<?xml version="1.0" encoding="UTF-8" standalone="no" ?>
<gpx xmlns="http://www.topografix.com/GPX/1/1" xmlns:xsi="http://www.w3.org/2001/XMLSchema-instance" xsi:schemaLocation="http://www.topografix.com/GPX/1/1 http://www.topografix.com/GPX/1/1/gpx.xsd" version="1.1" creator="VisuGPX - https://www.visugpx.com">
  <metadata>
    <name>2016-06-06 Bike ride-Dombes O-Medium</name>
    <desc><![CDATA[2016-06-06 Bike ride-Dombes O-Medium]]></desc>
  </metadata>
  <wpt lat="45.92453" lon="4.73721">
    <ele>189.9</ele>
    <name><![CDATA[2016-06-06 10:26 (Start)]]></name>
  </wpt>
  <wpt lat="45.92466" lon="4.73711">
    <ele>180.2</ele>
    <name><![CDATA[2016-06-06 10:26 (End)]]></name>
    <desc><![CDATA[Created by Google My Tracks on Android  Name: 2016-06-06 10:26 Activity type: biking Description: - Total distance: 56.01 km (34.8 mi) Total time: 2:39:30 Moving time: 2:37:25 Average speed: 21.07 km/h (13.1 mi/h) Average moving speed: 21.35 km/h (13.3 mi/h) Max speed: 47.86 km/h (29.7 mi/h) Average pace: 2:51 min/km (4:35 min/mi) Average moving pace: 2:49 min/km (4:31 min/mi) Fastest pace: 1:15 min/km (2:01 min/mi) Max elevation: 319 m (1046 ft) Min elevation: 168 m (552 ft) Elevation gain: 707 m (2318 ft) Max grade: 15 % Min grade: -24 % Recorded: 06/06/2016 10:26]]></desc>
  </wpt>
  <trk>
    <name><![CDATA[2016-06-06 10:26]]></name>
    <trkseg>
      <trkpt lat="45.92453" lon="4.73721">
        <ele>189.899993896</ele>
        <time>2016-06-06T08:26:51.074Z</time>
      </trkpt>
      <trkpt lat="45.92453" lon="4.73721">
        <ele>189.899993896</ele>
        <time>2016-06-06T08:27:21.94Z</time>
      </trkpt>
      <trkpt lat="45.92452" lon="4.73721">
        <ele>187.899993896</ele>
        <time>2016-06-06T08:27:22.701Z</time>
      </trkpt>
      <trkpt lat="45.92452" lon="4.7372">
        <ele>186</ele>
        <time>2016-06-06T08:27:31.694Z</time>
      </trkpt>
      <trkpt lat="45.9245" lon="4.73714">
        <ele>178.399993896</ele>
        <time>2016-06-06T08:27:32.702Z</time>
      </trkpt>
      <trkpt lat="45.92458" lon="4.7371">
        <ele>175.600006104</ele>
        <time>2016-06-06T08:28:17.726Z</time>
      </trkpt>
      <trkpt lat="45.9246" lon="4.73709">
        <ele>175.5</ele>
        <time>2016-06-06T08:28:18.701Z</time>
      </trkpt>
      <trkpt lat="45.92462" lon="4.737">
        <ele>175.699996948</ele>
        <time>2016-06-06T08:28:21.724Z</time>
      </trkpt>
      <trkpt lat="45.92463" lon="4.73696">
        <ele>175.699996948</ele>
        <time>2016-06-06T08:28:22.699Z</time>
      </trkpt>
      <trkpt lat="45.92464" lon="4.73685">
        <ele>175.5</ele>
        <time>2016-06-06T08:28:25.72Z</time>
      </trkpt>
      <trkpt lat="45.92464" lon="4.7368">
        <ele>175.5</ele>
        <time>2016-06-06T08:28:26.698Z</time>
      </trkpt>
      <trkpt lat="45.92466" lon="4.7367">
        <ele>175.699996948</ele>
        <time>2016-06-06T08:28:28.725Z</time>
      </trkpt>
      <trkpt lat="45.92466" lon="4.73664">
        <ele>175.899993896</ele>
        <time>2016-06-06T08:28:29.703Z</time>
      </trkpt>
      <trkpt lat="45.92467" lon="4.73653">
        <ele>176.300003052</ele>
        <time>2016-06-06T08:28:31.725Z</time>
      </trkpt>
      <trkpt lat="45.92469" lon="4.73648">
        <ele>177.300003052</ele>
        <time>2016-06-06T08:28:32.701Z</time>
      </trkpt>
      <trkpt lat="45.92475" lon="4.73643">
        <ele>178</ele>
        <time>2016-06-06T08:28:34.743Z</time>
      </trkpt>
      <trkpt lat="45.92479" lon="4.73643">
        <ele>178.199996948</ele>
        <time>2016-06-06T08:28:35.703Z</time>
      </trkpt>
      <trkpt lat="45.92487" lon="4.73644">
        <ele>178.5</ele>
        <time>2016-06-06T08:28:37.721Z</time>
      </trkpt>
      <trkpt lat="45.92492" lon="4.73644">
        <ele>178.199996948</ele>
        <time>2016-06-06T08:28:38.702Z</time>
      </trkpt>
      <trkpt lat="45.92497" lon="4.73643">
        <ele>178.100006104</ele>
        <time>2016-06-06T08:28:39.773Z</time>
      </trkpt>
      <trkpt lat="45.92502" lon="4.73643">
        <ele>177.800003052</ele>
        <time>2016-06-06T08:28:40.698Z</time>
      </trkpt>
      <trkpt lat="45.92506" lon="4.73643">
        <ele>177.899993896</ele>
        <time>2016-06-06T08:28:41.725Z</time>
      </trkpt>
      <trkpt lat="45.92511" lon="4.73643">
        <ele>178</ele>
        <time>2016-06-06T08:28:42.701Z</time>
      </trkpt>
      <trkpt lat="45.92516" lon="4.73642">
        <ele>178.199996948</ele>
        <time>2016-06-06T08:28:43.751Z</time>
      </trkpt>
      <trkpt lat="45.92521" lon="4.73642">
        <ele>178.600006104</ele>
        <time>2016-06-06T08:28:44.696Z</time>
      </trkpt>
      <trkpt lat="45.92527" lon="4.73642">
        <ele>178.5</ele>
        <time>2016-06-06T08:28:45.727Z</time>
      </trkpt>
      <trkpt lat="45.92532" lon="4.73642">
        <ele>179.100006104</ele>
        <time>2016-06-06T08:28:46.697Z</time>
      </trkpt>
      <trkpt lat="45.92537" lon="4.73641">
        <ele>179.300003052</ele>
        <time>2016-06-06T08:28:47.767Z</time>
      </trkpt>
      <trkpt lat="45.92542" lon="4.73641">
        <ele>179.5</ele>
        <time>2016-06-06T08:28:48.697Z</time>
      </trkpt>
      <trkpt lat="45.92547" lon="4.7364">
        <ele>179.699996948</ele>
        <time>2016-06-06T08:28:49.727Z</time>
      </trkpt>
      <trkpt lat="45.92552" lon="4.73639">
        <ele>179.899993896</ele>
        <time>2016-06-06T08:28:50.698Z</time>
      </trkpt>
      <trkpt lat="45.92557" lon="4.73638">
        <ele>180.100006104</ele>
        <time>2016-06-06T08:28:51.727Z</time>
      </trkpt>
      <trkpt lat="45.92562" lon="4.73636">
        <ele>180.600006104</ele>
        <time>2016-06-06T08:28:52.697Z</time>
      </trkpt>
      <trkpt lat="45.92566" lon="4.73635">
        <ele>180.800003052</ele>
        <time>2016-06-06T08:28:53.749Z</time>
      </trkpt>
      <trkpt lat="45.92571" lon="4.73634">
        <ele>181.699996948</ele>
        <time>2016-06-06T08:28:54.697Z</time>
      </trkpt>
      <trkpt lat="45.92576" lon="4.73632">
        <ele>182</ele>
        <time>2016-06-06T08:28:55.761Z</time>
      </trkpt>
      <trkpt lat="45.92581" lon="4.7363">
        <ele>182.199996948</ele>
        <time>2016-06-06T08:28:56.703Z</time>
      </trkpt>
      <trkpt lat="45.92586" lon="4.73628">
        <ele>182.399993896</ele>
        <time>2016-06-06T08:28:57.73Z</time>
      </trkpt>
      <trkpt lat="45.9259" lon="4.73627">
        <ele>181.699996948</ele>
        <time>2016-06-06T08:28:58.697Z</time>
      </trkpt>
      <trkpt lat="45.92594" lon="4.73626">
        <ele>181.399993896</ele>
        <time>2016-06-06T08:28:59.719Z</time>
      </trkpt>
      <trkpt lat="45.92599" lon="4.73625">
        <ele>181.600006104</ele>
        <time>2016-06-06T08:29:00.7Z</time>
      </trkpt>
      <trkpt lat="45.92606" lon="4.73626">
        <ele>181.699996948</ele>
        <time>2016-06-06T08:29:01.747Z</time>
      </trkpt>
      <trkpt lat="45.92612" lon="4.73627">
        <ele>181.300003052</ele>
        <time>2016-06-06T08:29:02.7Z</time>
      </trkpt>
      <trkpt lat="45.92616" lon="4.73635">
        <ele>181.300003052</ele>
        <time>2016-06-06T08:29:03.756Z</time>
      </trkpt>
      <trkpt lat="45.9262" lon="4.73643">
        <ele>181</ele>
        <time>2016-06-06T08:29:04.705Z</time>
      </trkpt>
      <trkpt lat="45.92623" lon="4.73652">
        <ele>180.600006104</ele>
        <time>2016-06-06T08:29:05.722Z</time>
      </trkpt>
      <trkpt lat="45.92627" lon="4.73659">
        <ele>180.600006104</ele>
        <time>2016-06-06T08:29:06.703Z</time>
      </trkpt>
      <trkpt lat="45.9263" lon="4.73667">
        <ele>180.5</ele>
        <time>2016-06-06T08:29:07.72Z</time>
      </trkpt>
      <trkpt lat="45.92634" lon="4.73674">
        <ele>180</ele>
        <time>2016-06-06T08:29:08.701Z</time>
      </trkpt>
      <trkpt lat="45.92638" lon="4.73681">
        <ele>179.399993896</ele>
        <time>2016-06-06T08:29:09.726Z</time>
      </trkpt>
      <trkpt lat="45.92643" lon="4.73687">
        <ele>179.300003052</ele>
        <time>2016-06-06T08:29:10.697Z</time>
      </trkpt>
      <trkpt lat="45.92648" lon="4.73693">
        <ele>178.899993896</ele>
        <time>2016-06-06T08:29:11.739Z</time>
      </trkpt>
      <trkpt lat="45.92653" lon="4.73697">
        <ele>178.100006104</ele>
        <time>2016-06-06T08:29:12.698Z</time>
      </trkpt>
      <trkpt lat="45.92658" lon="4.737">
        <ele>178.300003052</ele>
        <time>2016-06-06T08:29:13.777Z</time>
      </trkpt>
      <trkpt lat="45.92663" lon="4.73704">
        <ele>178.100006104</ele>
        <time>2016-06-06T08:29:14.701Z</time>
      </trkpt>
      <trkpt lat="45.92668" lon="4.73707">
        <ele>178</ele>
        <time>2016-06-06T08:29:15.878Z</time>
      </trkpt>
      <trkpt lat="45.92672" lon="4.73709">
        <ele>178</ele>
        <time>2016-06-06T08:29:16.701Z</time>
      </trkpt>
      <trkpt lat="45.92677" lon="4.73712">
        <ele>178</ele>
        <time>2016-06-06T08:29:17.725Z</time>
      </trkpt>
      <trkpt lat="45.92683" lon="4.73713">
        <ele>177.800003052</ele>
        <time>2016-06-06T08:29:18.697Z</time>
      </trkpt>
      <trkpt lat="45.92689" lon="4.73714">
        <ele>177.699996948</ele>
        <time>2016-06-06T08:29:19.721Z</time>
      </trkpt>
      <trkpt lat="45.92695" lon="4.73715">
        <ele>177.699996948</ele>
        <time>2016-06-06T08:29:20.698Z</time>
      </trkpt>
      <trkpt lat="45.92701" lon="4.73716">
        <ele>177.699996948</ele>
        <time>2016-06-06T08:29:21.726Z</time>
      </trkpt>
      <trkpt lat="45.92707" lon="4.73717">
        <ele>177.300003052</ele>
        <time>2016-06-06T08:29:22.697Z</time>
      </trkpt>
      <trkpt lat="45.92714" lon="4.73718">
        <ele>176.5</ele>
        <time>2016-06-06T08:29:23.752Z</time>
      </trkpt>
      <trkpt lat="45.9272" lon="4.7372">
        <ele>176.5</ele>
        <time>2016-06-06T08:29:24.697Z</time>
      </trkpt>
      <trkpt lat="45.92726" lon="4.73721">
        <ele>176.699996948</ele>
        <time>2016-06-06T08:29:25.759Z</time>
      </trkpt>
      <trkpt lat="45.92731" lon="4.73722">
        <ele>176.899993896</ele>
        <time>2016-06-06T08:29:26.697Z</time>
      </trkpt>
      <trkpt lat="45.92737" lon="4.73724">
        <ele>177.199996948</ele>
        <time>2016-06-06T08:29:27.742Z</time>
      </trkpt>
      <trkpt lat="45.92742" lon="4.73725">
        <ele>177.199996948</ele>
        <time>2016-06-06T08:29:28.766Z</time>
      </trkpt>
      <trkpt lat="45.92747" lon="4.73727">
        <ele>177.5</ele>
        <time>2016-06-06T08:29:29.721Z</time>
      </trkpt>
      <trkpt lat="45.92752" lon="4.73729">
        <ele>177.600006104</ele>
        <time>2016-06-06T08:29:30.702Z</time>
      </trkpt>
      <trkpt lat="45.92756" lon="4.7373">
        <ele>177.800003052</ele>
        <time>2016-06-06T08:29:31.724Z</time>
      </trkpt>
      <trkpt lat="45.92761" lon="4.73732">
        <ele>178.199996948</ele>
        <time>2016-06-06T08:29:32.701Z</time>
      </trkpt>
      <trkpt lat="45.92768" lon="4.73738">
        <ele>179.100006104</ele>
        <time>2016-06-06T08:29:34.723Z</time>
      </trkpt>
      <trkpt lat="45.92771" lon="4.73739">
        <ele>179.800003052</ele>
        <time>2016-06-06T08:29:35.701Z</time>
      </trkpt>
      <trkpt lat="45.92776" lon="4.73747">
        <ele>179.600006104</ele>
        <time>2016-06-06T08:29:37.721Z</time>
      </trkpt>
      <trkpt lat="45.92778" lon="4.73752">
        <ele>179.100006104</ele>
        <time>2016-06-06T08:29:38.708Z</time>
      </trkpt>
      <trkpt lat="45.92784" lon="4.73759">
        <ele>178.399993896</ele>
        <time>2016-06-06T08:29:40.752Z</time>
      </trkpt>
      <trkpt lat="45.92788" lon="4.73761">
        <ele>178.5</ele>
        <time>2016-06-06T08:29:41.7Z</time>
      </trkpt>
      <trkpt lat="45.92792" lon="4.73764">
        <ele>178.300003052</ele>
        <time>2016-06-06T08:29:42.73Z</time>
      </trkpt>
      <trkpt lat="45.92796" lon="4.73766">
        <ele>178.5</ele>
        <time>2016-06-06T08:29:43.719Z</time>
      </trkpt>
      <trkpt lat="45.92801" lon="4.7377">
        <ele>178.5</ele>
        <time>2016-06-06T08:29:44.724Z</time>
      </trkpt>
      <trkpt lat="45.92805" lon="4.73773">
        <ele>178.300003052</ele>
        <time>2016-06-06T08:29:45.703Z</time>
      </trkpt>
      <trkpt lat="45.92811" lon="4.73775">
        <ele>178</ele>
        <time>2016-06-06T08:29:46.723Z</time>
      </trkpt>
      <trkpt lat="45.92816" lon="4.73777">
        <ele>177.899993896</ele>
        <time>2016-06-06T08:29:47.724Z</time>
      </trkpt>
      <trkpt lat="45.92821" lon="4.7378">
        <ele>177.899993896</ele>
        <time>2016-06-06T08:29:48.752Z</time>
      </trkpt>
      <trkpt lat="45.92826" lon="4.73785">
        <ele>177.899993896</ele>
        <time>2016-06-06T08:29:49.747Z</time>
      </trkpt>
      <trkpt lat="45.92831" lon="4.73789">
        <ele>177.600006104</ele>
        <time>2016-06-06T08:29:50.721Z</time>
      </trkpt>
      <trkpt lat="45.92836" lon="4.73792">
        <ele>177.300003052</ele>
        <time>2016-06-06T08:29:51.703Z</time>
      </trkpt>
      <trkpt lat="45.92841" lon="4.73795">
        <ele>177.100006104</ele>
        <time>2016-06-06T08:29:52.896Z</time>
      </trkpt>
      <trkpt lat="45.92845" lon="4.73799">
        <ele>176.5</ele>
        <time>2016-06-06T08:29:53.703Z</time>
      </trkpt>
      <trkpt lat="45.92849" lon="4.73804">
        <ele>175.899993896</ele>
        <time>2016-06-06T08:29:54.722Z</time>
      </trkpt>
      <trkpt lat="45.92852" lon="4.7381">
        <ele>175.800003052</ele>
        <time>2016-06-06T08:29:55.7Z</time>
      </trkpt>
      <trkpt lat="45.92854" lon="4.73816">
        <ele>175.600006104</ele>
        <time>2016-06-06T08:29:56.72Z</time>
      </trkpt>
      <trkpt lat="45.92856" lon="4.73823">
        <ele>175.300003052</ele>
        <time>2016-06-06T08:29:57.703Z</time>
      </trkpt>
      <trkpt lat="45.92858" lon="4.7383">
        <ele>174.699996948</ele>
        <time>2016-06-06T08:29:58.72Z</time>
      </trkpt>
      <trkpt lat="45.92859" lon="4.73838">
        <ele>174.5</ele>
        <time>2016-06-06T08:29:59.701Z</time>
      </trkpt>
      <trkpt lat="45.92862" lon="4.73845">
        <ele>174.5</ele>
        <time>2016-06-06T08:30:00.731Z</time>
      </trkpt>
      <trkpt lat="45.92865" lon="4.73853">
        <ele>174.399993896</ele>
        <time>2016-06-06T08:30:01.701Z</time>
      </trkpt>
      <trkpt lat="45.92867" lon="4.7386">
        <ele>174.399993896</ele>
        <time>2016-06-06T08:30:02.724Z</time>
      </trkpt>
      <trkpt lat="45.92869" lon="4.73868">
        <ele>174.199996948</ele>
        <time>2016-06-06T08:30:03.699Z</time>
      </trkpt>
      <trkpt lat="45.92872" lon="4.73876">
        <ele>174.100006104</ele>
        <time>2016-06-06T08:30:04.723Z</time>
      </trkpt>
      <trkpt lat="45.92876" lon="4.73884">
        <ele>173.800003052</ele>
        <time>2016-06-06T08:30:05.703Z</time>
      </trkpt>
      <trkpt lat="45.92879" lon="4.73892">
        <ele>173.600006104</ele>
        <time>2016-06-06T08:30:06.741Z</time>
      </trkpt>
      <trkpt lat="45.9288" lon="4.739">
        <ele>173.300003052</ele>
        <time>2016-06-06T08:30:07.698Z</time>
      </trkpt>
      <trkpt lat="45.9288" lon="4.73908">
        <ele>173.300003052</ele>
        <time>2016-06-06T08:30:08.722Z</time>
      </trkpt>
      <trkpt lat="45.92881" lon="4.73917">
        <ele>173.399993896</ele>
        <time>2016-06-06T08:30:09.72Z</time>
      </trkpt>
      <trkpt lat="45.92882" lon="4.73926">
        <ele>173.300003052</ele>
        <time>2016-06-06T08:30:10.756Z</time>
      </trkpt>
      <trkpt lat="45.92883" lon="4.73935">
        <ele>173.399993896</ele>
        <time>2016-06-06T08:30:11.698Z</time>
      </trkpt>
      <trkpt lat="45.92884" lon="4.73944">
        <ele>173.300003052</ele>
        <time>2016-06-06T08:30:12.719Z</time>
      </trkpt>
      <trkpt lat="45.92884" lon="4.73952">
        <ele>173.300003052</ele>
        <time>2016-06-06T08:30:13.697Z</time>
      </trkpt>
      <trkpt lat="45.92885" lon="4.73959">
        <ele>173.199996948</ele>
        <time>2016-06-06T08:30:14.723Z</time>
      </trkpt>
      <trkpt lat="45.92885" lon="4.73967">
        <ele>173.199996948</ele>
        <time>2016-06-06T08:30:15.703Z</time>
      </trkpt>
      <trkpt lat="45.92885" lon="4.73975">
        <ele>173.300003052</ele>
        <time>2016-06-06T08:30:16.719Z</time>
      </trkpt>
      <trkpt lat="45.92884" lon="4.73983">
        <ele>173.100006104</ele>
        <time>2016-06-06T08:30:17.703Z</time>
      </trkpt>
      <trkpt lat="45.92882" lon="4.7399">
        <ele>172.899993896</ele>
        <time>2016-06-06T08:30:18.755Z</time>
      </trkpt>
      <trkpt lat="45.92881" lon="4.73997">
        <ele>173.100006104</ele>
        <time>2016-06-06T08:30:19.697Z</time>
      </trkpt>
      <trkpt lat="45.92879" lon="4.74004">
        <ele>173.100006104</ele>
        <time>2016-06-06T08:30:20.722Z</time>
      </trkpt>
      <trkpt lat="45.92878" lon="4.74012">
        <ele>173.100006104</ele>
        <time>2016-06-06T08:30:21.699Z</time>
      </trkpt>
      <trkpt lat="45.92876" lon="4.7402">
        <ele>172.800003052</ele>
        <time>2016-06-06T08:30:22.72Z</time>
      </trkpt>
      <trkpt lat="45.92875" lon="4.74028">
        <ele>172.699996948</ele>
        <time>2016-06-06T08:30:23.697Z</time>
      </trkpt>
      <trkpt lat="45.92872" lon="4.74036">
        <ele>172.300003052</ele>
        <time>2016-06-06T08:30:24.723Z</time>
      </trkpt>
      <trkpt lat="45.92868" lon="4.74044">
        <ele>172.300003052</ele>
        <time>2016-06-06T08:30:25.699Z</time>
      </trkpt>
      <trkpt lat="45.92864" lon="4.74051">
        <ele>172.5</ele>
        <time>2016-06-06T08:30:26.748Z</time>
      </trkpt>
      <trkpt lat="45.92859" lon="4.74057">
        <ele>172.699996948</ele>
        <time>2016-06-06T08:30:27.7Z</time>
      </trkpt>
      <trkpt lat="45.92855" lon="4.74062">
        <ele>173</ele>
        <time>2016-06-06T08:30:28.815Z</time>
      </trkpt>
      <trkpt lat="45.9285" lon="4.74068">
        <ele>173.600006104</ele>
        <time>2016-06-06T08:30:29.701Z</time>
      </trkpt>
      <trkpt lat="45.92845" lon="4.74074">
        <ele>174.100006104</ele>
        <time>2016-06-06T08:30:30.736Z</time>
      </trkpt>
      <trkpt lat="45.9284" lon="4.74079">
        <ele>174.300003052</ele>
        <time>2016-06-06T08:30:31.7Z</time>
      </trkpt>
      <trkpt lat="45.92835" lon="4.74085">
        <ele>174.800003052</ele>
        <time>2016-06-06T08:30:32.721Z</time>
      </trkpt>
      <trkpt lat="45.92831" lon="4.7409">
        <ele>175.100006104</ele>
        <time>2016-06-06T08:30:33.681Z</time>
      </trkpt>
      <trkpt lat="45.92826" lon="4.74096">
        <ele>175.199996948</ele>
        <time>2016-06-06T08:30:34.724Z</time>
      </trkpt>
      <trkpt lat="45.9282" lon="4.74102">
        <ele>175.300003052</ele>
        <time>2016-06-06T08:30:35.703Z</time>
      </trkpt>
      <trkpt lat="45.92815" lon="4.74107">
        <ele>175.600006104</ele>
        <time>2016-06-06T08:30:36.723Z</time>
      </trkpt>
      <trkpt lat="45.9281" lon="4.74113">
        <ele>175.600006104</ele>
        <time>2016-06-06T08:30:37.698Z</time>
      </trkpt>
      <trkpt lat="45.92804" lon="4.74118">
        <ele>175.399993896</ele>
        <time>2016-06-06T08:30:38.72Z</time>
      </trkpt>
      <trkpt lat="45.92799" lon="4.74124">
        <ele>175</ele>
        <time>2016-06-06T08:30:39.7Z</time>
      </trkpt>
      <trkpt lat="45.92794" lon="4.74129">
        <ele>175.100006104</ele>
        <time>2016-06-06T08:30:40.719Z</time>
      </trkpt>
      <trkpt lat="45.92789" lon="4.74134">
        <ele>174.699996948</ele>
        <time>2016-06-06T08:30:41.697Z</time>
      </trkpt>
      <trkpt lat="45.92784" lon="4.74139">
        <ele>174.800003052</ele>
        <time>2016-06-06T08:30:42.719Z</time>
      </trkpt>
      <trkpt lat="45.92779" lon="4.74144">
        <ele>175</ele>
        <time>2016-06-06T08:30:43.7Z</time>
      </trkpt>
      <trkpt lat="45.92774" lon="4.74149">
        <ele>175.100006104</ele>
        <time>2016-06-06T08:30:44.745Z</time>
      </trkpt>
      <trkpt lat="45.92769" lon="4.74154">
        <ele>175</ele>
        <time>2016-06-06T08:30:45.7Z</time>
      </trkpt>
      <trkpt lat="45.92764" lon="4.7416">
        <ele>175.399993896</ele>
        <time>2016-06-06T08:30:46.718Z</time>
      </trkpt>
      <trkpt lat="45.92759" lon="4.74165">
        <ele>175.5</ele>
        <time>2016-06-06T08:30:47.697Z</time>
      </trkpt>
      <trkpt lat="45.92754" lon="4.7417">
        <ele>176</ele>
        <time>2016-06-06T08:30:48.719Z</time>
      </trkpt>
      <trkpt lat="45.9275" lon="4.74175">
        <ele>176.100006104</ele>
        <time>2016-06-06T08:30:49.748Z</time>
      </trkpt>
      <trkpt lat="45.92745" lon="4.74181">
        <ele>176</ele>
        <time>2016-06-06T08:30:50.758Z</time>
      </trkpt>
      <trkpt lat="45.92741" lon="4.74186">
        <ele>176</ele>
        <time>2016-06-06T08:30:51.703Z</time>
      </trkpt>
      <trkpt lat="45.92737" lon="4.74192">
        <ele>175.899993896</ele>
        <time>2016-06-06T08:30:52.72Z</time>
      </trkpt>
      <trkpt lat="45.92732" lon="4.74198">
        <ele>175.199996948</ele>
        <time>2016-06-06T08:30:53.697Z</time>
      </trkpt>
      <trkpt lat="45.92728" lon="4.74204">
        <ele>175.300003052</ele>
        <time>2016-06-06T08:30:54.719Z</time>
      </trkpt>
      <trkpt lat="45.92724" lon="4.7421">
        <ele>175.600006104</ele>
        <time>2016-06-06T08:30:55.697Z</time>
      </trkpt>
      <trkpt lat="45.92719" lon="4.74217">
        <ele>175.600006104</ele>
        <time>2016-06-06T08:30:56.779Z</time>
      </trkpt>
      <trkpt lat="45.92715" lon="4.74224">
        <ele>175.300003052</ele>
        <time>2016-06-06T08:30:57.705Z</time>
      </trkpt>
      <trkpt lat="45.9271" lon="4.7423">
        <ele>175.300003052</ele>
        <time>2016-06-06T08:30:58.809Z</time>
      </trkpt>
      <trkpt lat="45.92706" lon="4.74237">
        <ele>175.300003052</ele>
        <time>2016-06-06T08:30:59.697Z</time>
      </trkpt>
      <trkpt lat="45.92702" lon="4.74244">
        <ele>175.5</ele>
        <time>2016-06-06T08:31:00.723Z</time>
      </trkpt>
      <trkpt lat="45.92698" lon="4.7425">
        <ele>175.399993896</ele>
        <time>2016-06-06T08:31:01.722Z</time>
      </trkpt>
      <trkpt lat="45.92694" lon="4.74258">
        <ele>175.399993896</ele>
        <time>2016-06-06T08:31:02.719Z</time>
      </trkpt>
      <trkpt lat="45.92689" lon="4.74265">
        <ele>175.300003052</ele>
        <time>2016-06-06T08:31:03.699Z</time>
      </trkpt>
      <trkpt lat="45.92685" lon="4.74272">
        <ele>175.199996948</ele>
        <time>2016-06-06T08:31:04.719Z</time>
      </trkpt>
      <trkpt lat="45.92681" lon="4.74279">
        <ele>175.199996948</ele>
        <time>2016-06-06T08:31:05.698Z</time>
      </trkpt>
      <trkpt lat="45.92677" lon="4.74286">
        <ele>174.899993896</ele>
        <time>2016-06-06T08:31:06.751Z</time>
      </trkpt>
      <trkpt lat="45.92673" lon="4.74294">
        <ele>174.899993896</ele>
        <time>2016-06-06T08:31:07.7Z</time>
      </trkpt>
      <trkpt lat="45.92669" lon="4.74301">
        <ele>174.899993896</ele>
        <time>2016-06-06T08:31:08.718Z</time>
      </trkpt>
      <trkpt lat="45.92665" lon="4.74308">
        <ele>174.800003052</ele>
        <time>2016-06-06T08:31:09.695Z</time>
      </trkpt>
      <trkpt lat="45.92661" lon="4.74315">
        <ele>174.699996948</ele>
        <time>2016-06-06T08:31:10.721Z</time>
      </trkpt>
      <trkpt lat="45.92657" lon="4.74322">
        <ele>174.600006104</ele>
        <time>2016-06-06T08:31:11.698Z</time>
      </trkpt>
      <trkpt lat="45.92653" lon="4.7433">
        <ele>174.5</ele>
        <time>2016-06-06T08:31:12.754Z</time>
      </trkpt>
      <trkpt lat="45.9265" lon="4.74337">
        <ele>174.300003052</ele>
        <time>2016-06-06T08:31:13.697Z</time>
      </trkpt>
      <trkpt lat="45.92646" lon="4.74344">
        <ele>174.300003052</ele>
        <time>2016-06-06T08:31:14.722Z</time>
      </trkpt>
      <trkpt lat="45.92642" lon="4.74351">
        <ele>174.199996948</ele>
        <time>2016-06-06T08:31:15.702Z</time>
      </trkpt>
      <trkpt lat="45.92638" lon="4.74358">
        <ele>174.300003052</ele>
        <time>2016-06-06T08:31:17.17Z</time>
      </trkpt>
      <trkpt lat="45.92634" lon="4.74365">
        <ele>174.300003052</ele>
        <time>2016-06-06T08:31:17.747Z</time>
      </trkpt>
      <trkpt lat="45.92631" lon="4.74372">
        <ele>174.199996948</ele>
        <time>2016-06-06T08:31:19.065Z</time>
      </trkpt>
      <trkpt lat="45.92627" lon="4.7438">
        <ele>174.100006104</ele>
        <time>2016-06-06T08:31:19.746Z</time>
      </trkpt>
      <trkpt lat="45.92623" lon="4.74386">
        <ele>174.100006104</ele>
        <time>2016-06-06T08:31:20.795Z</time>
      </trkpt>
      <trkpt lat="45.92619" lon="4.74394">
        <ele>174</ele>
        <time>2016-06-06T08:31:21.746Z</time>
      </trkpt>
      <trkpt lat="45.92615" lon="4.74401">
        <ele>173.899993896</ele>
        <time>2016-06-06T08:31:22.806Z</time>
      </trkpt>
      <trkpt lat="45.92611" lon="4.74408">
        <ele>173.800003052</ele>
        <time>2016-06-06T08:31:23.756Z</time>
      </trkpt>
      <trkpt lat="45.92607" lon="4.74416">
        <ele>173.699996948</ele>
        <time>2016-06-06T08:31:24.797Z</time>
      </trkpt>
      <trkpt lat="45.92603" lon="4.74424">
        <ele>173.5</ele>
        <time>2016-06-06T08:31:25.746Z</time>
      </trkpt>
      <trkpt lat="45.92599" lon="4.74431">
        <ele>173.5</ele>
        <time>2016-06-06T08:31:26.719Z</time>
      </trkpt>
      <trkpt lat="45.92594" lon="4.74439">
        <ele>173.399993896</ele>
        <time>2016-06-06T08:31:27.717Z</time>
      </trkpt>
      <trkpt lat="45.9259" lon="4.74447">
        <ele>173.199996948</ele>
        <time>2016-06-06T08:31:28.805Z</time>
      </trkpt>
      <trkpt lat="45.92586" lon="4.74454">
        <ele>173.300003052</ele>
        <time>2016-06-06T08:31:29.735Z</time>
      </trkpt>
      <trkpt lat="45.92581" lon="4.74462">
        <ele>173.199996948</ele>
        <time>2016-06-06T08:31:30.72Z</time>
      </trkpt>
      <trkpt lat="45.92577" lon="4.7447">
        <ele>173.100006104</ele>
        <time>2016-06-06T08:31:31.696Z</time>
      </trkpt>
      <trkpt lat="45.92573" lon="4.74477">
        <ele>173</ele>
        <time>2016-06-06T08:31:32.739Z</time>
      </trkpt>
      <trkpt lat="45.92569" lon="4.74485">
        <ele>173</ele>
        <time>2016-06-06T08:31:33.699Z</time>
      </trkpt>
      <trkpt lat="45.92565" lon="4.74492">
        <ele>173</ele>
        <time>2016-06-06T08:31:34.743Z</time>
      </trkpt>
      <trkpt lat="45.92561" lon="4.745">
        <ele>172.800003052</ele>
        <time>2016-06-06T08:31:35.703Z</time>
      </trkpt>
      <trkpt lat="45.92558" lon="4.74507">
        <ele>172.699996948</ele>
        <time>2016-06-06T08:31:36.72Z</time>
      </trkpt>
      <trkpt lat="45.92554" lon="4.74514">
        <ele>172.699996948</ele>
        <time>2016-06-06T08:31:37.697Z</time>
      </trkpt>
      <trkpt lat="45.9255" lon="4.74521">
        <ele>172.800003052</ele>
        <time>2016-06-06T08:31:38.718Z</time>
      </trkpt>
      <trkpt lat="45.92546" lon="4.74527">
        <ele>172.800003052</ele>
        <time>2016-06-06T08:31:39.702Z</time>
      </trkpt>
      <trkpt lat="45.92542" lon="4.74534">
        <ele>172.800003052</ele>
        <time>2016-06-06T08:31:40.719Z</time>
      </trkpt>
      <trkpt lat="45.92538" lon="4.74541">
        <ele>172.600006104</ele>
        <time>2016-06-06T08:31:41.698Z</time>
      </trkpt>
      <trkpt lat="45.92533" lon="4.74548">
        <ele>172.699996948</ele>
        <time>2016-06-06T08:31:42.719Z</time>
      </trkpt>
      <trkpt lat="45.92529" lon="4.74555">
        <ele>172.800003052</ele>
        <time>2016-06-06T08:31:43.698Z</time>
      </trkpt>
      <trkpt lat="45.92524" lon="4.74561">
        <ele>172.899993896</ele>
        <time>2016-06-06T08:31:44.723Z</time>
      </trkpt>
      <trkpt lat="45.92519" lon="4.74568">
        <ele>172.899993896</ele>
        <time>2016-06-06T08:31:45.7Z</time>
      </trkpt>
      <trkpt lat="45.92515" lon="4.74574">
        <ele>173</ele>
        <time>2016-06-06T08:31:46.72Z</time>
      </trkpt>
      <trkpt lat="45.92509" lon="4.7458">
        <ele>173.100006104</ele>
        <time>2016-06-06T08:31:47.699Z</time>
      </trkpt>
      <trkpt lat="45.92505" lon="4.74585">
        <ele>173.199996948</ele>
        <time>2016-06-06T08:31:48.793Z</time>
      </trkpt>
      <trkpt lat="45.925" lon="4.74591">
        <ele>173.300003052</ele>
        <time>2016-06-06T08:31:49.697Z</time>
      </trkpt>
      <trkpt lat="45.92495" lon="4.74597">
        <ele>173.300003052</ele>
        <time>2016-06-06T08:31:50.868Z</time>
      </trkpt>
      <trkpt lat="45.9249" lon="4.74603">
        <ele>173.300003052</ele>
        <time>2016-06-06T08:31:51.703Z</time>
      </trkpt>
      <trkpt lat="45.92485" lon="4.74609">
        <ele>173.300003052</ele>
        <time>2016-06-06T08:31:52.722Z</time>
      </trkpt>
      <trkpt lat="45.9248" lon="4.74615">
        <ele>173.300003052</ele>
        <time>2016-06-06T08:31:53.697Z</time>
      </trkpt>
      <trkpt lat="45.92475" lon="4.74621">
        <ele>173.300003052</ele>
        <time>2016-06-06T08:31:54.72Z</time>
      </trkpt>
      <trkpt lat="45.9247" lon="4.74628">
        <ele>173.300003052</ele>
        <time>2016-06-06T08:31:55.701Z</time>
      </trkpt>
      <trkpt lat="45.92466" lon="4.74635">
        <ele>173.300003052</ele>
        <time>2016-06-06T08:31:56.738Z</time>
      </trkpt>
      <trkpt lat="45.92461" lon="4.74642">
        <ele>173.300003052</ele>
        <time>2016-06-06T08:31:57.703Z</time>
      </trkpt>
      <trkpt lat="45.92457" lon="4.74649">
        <ele>173.300003052</ele>
        <time>2016-06-06T08:31:58.723Z</time>
      </trkpt>
      <trkpt lat="45.92453" lon="4.74657">
        <ele>173.5</ele>
        <time>2016-06-06T08:31:59.7Z</time>
      </trkpt>
      <trkpt lat="45.92449" lon="4.74664">
        <ele>173.600006104</ele>
        <time>2016-06-06T08:32:00.872Z</time>
      </trkpt>
      <trkpt lat="45.92444" lon="4.74672">
        <ele>173.600006104</ele>
        <time>2016-06-06T08:32:01.705Z</time>
      </trkpt>
      <trkpt lat="45.92441" lon="4.7468">
        <ele>173.5</ele>
        <time>2016-06-06T08:32:02.725Z</time>
      </trkpt>
      <trkpt lat="45.92437" lon="4.74688">
        <ele>173.600006104</ele>
        <time>2016-06-06T08:32:03.703Z</time>
      </trkpt>
      <trkpt lat="45.92434" lon="4.74696">
        <ele>173.699996948</ele>
        <time>2016-06-06T08:32:04.746Z</time>
      </trkpt>
      <trkpt lat="45.9243" lon="4.74704">
        <ele>173.699996948</ele>
        <time>2016-06-06T08:32:05.698Z</time>
      </trkpt>
      <trkpt lat="45.92427" lon="4.74713">
        <ele>173.899993896</ele>
        <time>2016-06-06T08:32:06.738Z</time>
      </trkpt>
      <trkpt lat="45.92425" lon="4.74721">
        <ele>173.800003052</ele>
        <time>2016-06-06T08:32:07.697Z</time>
      </trkpt>
      <trkpt lat="45.92422" lon="4.74729">
        <ele>173.699996948</ele>
        <time>2016-06-06T08:32:08.719Z</time>
      </trkpt>
      <trkpt lat="45.92419" lon="4.74738">
        <ele>173.699996948</ele>
        <time>2016-06-06T08:32:09.718Z</time>
      </trkpt>
      <trkpt lat="45.92416" lon="4.74747">
        <ele>173.699996948</ele>
        <time>2016-06-06T08:32:10.719Z</time>
      </trkpt>
      <trkpt lat="45.92414" lon="4.74756">
        <ele>173.899993896</ele>
        <time>2016-06-06T08:32:11.697Z</time>
      </trkpt>
      <trkpt lat="45.92411" lon="4.74765">
        <ele>174</ele>
        <time>2016-06-06T08:32:12.964Z</time>
      </trkpt>
      <trkpt lat="45.92409" lon="4.74774">
        <ele>174.100006104</ele>
        <time>2016-06-06T08:32:13.697Z</time>
      </trkpt>
      <trkpt lat="45.92406" lon="4.74784">
        <ele>174</ele>
        <time>2016-06-06T08:32:14.739Z</time>
      </trkpt>
      <trkpt lat="45.92404" lon="4.74794">
        <ele>174</ele>
        <time>2016-06-06T08:32:15.704Z</time>
      </trkpt>
      <trkpt lat="45.92402" lon="4.74803">
        <ele>174.100006104</ele>
        <time>2016-06-06T08:32:16.719Z</time>
      </trkpt>
      <trkpt lat="45.924" lon="4.74813">
        <ele>174.100006104</ele>
        <time>2016-06-06T08:32:17.697Z</time>
      </trkpt>
      <trkpt lat="45.92398" lon="4.74822">
        <ele>173.899993896</ele>
        <time>2016-06-06T08:32:18.722Z</time>
      </trkpt>
      <trkpt lat="45.92395" lon="4.74832">
        <ele>173.800003052</ele>
        <time>2016-06-06T08:32:19.697Z</time>
      </trkpt>
      <trkpt lat="45.92393" lon="4.74841">
        <ele>173.5</ele>
        <time>2016-06-06T08:32:20.719Z</time>
      </trkpt>
      <trkpt lat="45.9239" lon="4.74851">
        <ele>173</ele>
        <time>2016-06-06T08:32:21.699Z</time>
      </trkpt>
      <trkpt lat="45.92387" lon="4.7486">
        <ele>172.699996948</ele>
        <time>2016-06-06T08:32:22.718Z</time>
      </trkpt>
      <trkpt lat="45.92384" lon="4.7487">
        <ele>172.399993896</ele>
        <time>2016-06-06T08:32:23.696Z</time>
      </trkpt>
      <trkpt lat="45.92381" lon="4.74879">
        <ele>172.399993896</ele>
        <time>2016-06-06T08:32:24.719Z</time>
      </trkpt>
      <trkpt lat="45.92378" lon="4.74888">
        <ele>172.5</ele>
        <time>2016-06-06T08:32:25.698Z</time>
      </trkpt>
      <trkpt lat="45.92374" lon="4.74897">
        <ele>172.699996948</ele>
        <time>2016-06-06T08:32:26.719Z</time>
      </trkpt>
      <trkpt lat="45.92371" lon="4.74906">
        <ele>172.699996948</ele>
        <time>2016-06-06T08:32:27.697Z</time>
      </trkpt>
      <trkpt lat="45.92368" lon="4.74915">
        <ele>173</ele>
        <time>2016-06-06T08:32:28.866Z</time>
      </trkpt>
      <trkpt lat="45.92364" lon="4.74923">
        <ele>173.300003052</ele>
        <time>2016-06-06T08:32:29.701Z</time>
      </trkpt>
      <trkpt lat="45.9236" lon="4.74932">
        <ele>173.5</ele>
        <time>2016-06-06T08:32:30.736Z</time>
      </trkpt>
      <trkpt lat="45.92357" lon="4.7494">
        <ele>173.600006104</ele>
        <time>2016-06-06T08:32:31.703Z</time>
      </trkpt>
      <trkpt lat="45.92354" lon="4.74948">
        <ele>173.5</ele>
        <time>2016-06-06T08:32:32.722Z</time>
      </trkpt>
      <trkpt lat="45.9235" lon="4.74956">
        <ele>173.5</ele>
        <time>2016-06-06T08:32:33.699Z</time>
      </trkpt>
      <trkpt lat="45.92347" lon="4.74965">
        <ele>173.699996948</ele>
        <time>2016-06-06T08:32:34.865Z</time>
      </trkpt>
      <trkpt lat="45.92344" lon="4.74973">
        <ele>173.699996948</ele>
        <time>2016-06-06T08:32:35.698Z</time>
      </trkpt>
      <trkpt lat="45.9234" lon="4.74981">
        <ele>173.699996948</ele>
        <time>2016-06-06T08:32:36.719Z</time>
      </trkpt>
      <trkpt lat="45.92337" lon="4.7499">
        <ele>173.199996948</ele>
        <time>2016-06-06T08:32:37.7Z</time>
      </trkpt>
      <trkpt lat="45.92334" lon="4.74998">
        <ele>173.199996948</ele>
        <time>2016-06-06T08:32:38.722Z</time>
      </trkpt>
      <trkpt lat="45.9233" lon="4.75007">
        <ele>172.899993896</ele>
        <time>2016-06-06T08:32:39.699Z</time>
      </trkpt>
      <trkpt lat="45.92326" lon="4.75016">
        <ele>172.600006104</ele>
        <time>2016-06-06T08:32:40.722Z</time>
      </trkpt>
      <trkpt lat="45.92323" lon="4.75024">
        <ele>172.300003052</ele>
        <time>2016-06-06T08:32:41.698Z</time>
      </trkpt>
      <trkpt lat="45.92318" lon="4.75032">
        <ele>172.199996948</ele>
        <time>2016-06-06T08:32:42.719Z</time>
      </trkpt>
      <trkpt lat="45.92314" lon="4.75041">
        <ele>172</ele>
        <time>2016-06-06T08:32:43.7Z</time>
      </trkpt>
      <trkpt lat="45.92309" lon="4.75049">
        <ele>171.899993896</ele>
        <time>2016-06-06T08:32:44.759Z</time>
      </trkpt>
      <trkpt lat="45.92304" lon="4.75056">
        <ele>172.600006104</ele>
        <time>2016-06-06T08:32:45.703Z</time>
      </trkpt>
      <trkpt lat="45.92299" lon="4.75063">
        <ele>172.800003052</ele>
        <time>2016-06-06T08:32:46.735Z</time>
      </trkpt>
      <trkpt lat="45.92293" lon="4.7507">
        <ele>173.100006104</ele>
        <time>2016-06-06T08:32:47.698Z</time>
      </trkpt>
      <trkpt lat="45.92288" lon="4.75076">
        <ele>173.399993896</ele>
        <time>2016-06-06T08:32:48.72Z</time>
      </trkpt>
      <trkpt lat="45.92283" lon="4.75082">
        <ele>173.600006104</ele>
        <time>2016-06-06T08:32:49.697Z</time>
      </trkpt>
      <trkpt lat="45.92278" lon="4.75087">
        <ele>173.800003052</ele>
        <time>2016-06-06T08:32:50.744Z</time>
      </trkpt>
      <trkpt lat="45.92273" lon="4.75092">
        <ele>173.899993896</ele>
        <time>2016-06-06T08:32:51.703Z</time>
      </trkpt>
      <trkpt lat="45.92268" lon="4.75097">
        <ele>173.699996948</ele>
        <time>2016-06-06T08:32:52.718Z</time>
      </trkpt>
      <trkpt lat="45.92263" lon="4.75102">
        <ele>174</ele>
        <time>2016-06-06T08:32:53.703Z</time>
      </trkpt>
      <trkpt lat="45.92258" lon="4.75107">
        <ele>174.100006104</ele>
        <time>2016-06-06T08:32:54.723Z</time>
      </trkpt>
      <trkpt lat="45.92253" lon="4.75112">
        <ele>174</ele>
        <time>2016-06-06T08:32:55.698Z</time>
      </trkpt>
      <trkpt lat="45.92248" lon="4.75118">
        <ele>174.199996948</ele>
        <time>2016-06-06T08:32:56.719Z</time>
      </trkpt>
      <trkpt lat="45.92244" lon="4.75123">
        <ele>174.5</ele>
        <time>2016-06-06T08:32:57.7Z</time>
      </trkpt>
      <trkpt lat="45.9224" lon="4.75128">
        <ele>174.899993896</ele>
        <time>2016-06-06T08:32:58.719Z</time>
      </trkpt>
      <trkpt lat="45.92236" lon="4.75134">
        <ele>175</ele>
        <time>2016-06-06T08:32:59.697Z</time>
      </trkpt>
      <trkpt lat="45.92232" lon="4.75141">
        <ele>175.100006104</ele>
        <time>2016-06-06T08:33:00.724Z</time>
      </trkpt>
      <trkpt lat="45.92228" lon="4.75147">
        <ele>175.300003052</ele>
        <time>2016-06-06T08:33:01.702Z</time>
      </trkpt>
      <trkpt lat="45.92225" lon="4.75153">
        <ele>175.399993896</ele>
        <time>2016-06-06T08:33:02.722Z</time>
      </trkpt>
      <trkpt lat="45.92222" lon="4.7516">
        <ele>175.5</ele>
        <time>2016-06-06T08:33:03.701Z</time>
      </trkpt>
      <trkpt lat="45.92219" lon="4.75168">
        <ele>175.899993896</ele>
        <time>2016-06-06T08:33:04.724Z</time>
      </trkpt>
      <trkpt lat="45.92216" lon="4.75176">
        <ele>176</ele>
        <time>2016-06-06T08:33:05.7Z</time>
      </trkpt>
      <trkpt lat="45.92214" lon="4.75185">
        <ele>176.100006104</ele>
        <time>2016-06-06T08:33:06.732Z</time>
      </trkpt>
      <trkpt lat="45.92212" lon="4.75193">
        <ele>176.300003052</ele>
        <time>2016-06-06T08:33:07.715Z</time>
      </trkpt>
      <trkpt lat="45.9221" lon="4.75202">
        <ele>176.100006104</ele>
        <time>2016-06-06T08:33:08.739Z</time>
      </trkpt>
      <trkpt lat="45.92209" lon="4.75211">
        <ele>176</ele>
        <time>2016-06-06T08:33:09.712Z</time>
      </trkpt>
      <trkpt lat="45.92208" lon="4.7522">
        <ele>176</ele>
        <time>2016-06-06T08:33:10.726Z</time>
      </trkpt>
      <trkpt lat="45.92207" lon="4.75228">
        <ele>176.199996948</ele>
        <time>2016-06-06T08:33:11.704Z</time>
      </trkpt>
      <trkpt lat="45.92207" lon="4.75236">
        <ele>176.199996948</ele>
        <time>2016-06-06T08:33:12.751Z</time>
      </trkpt>
      <trkpt lat="45.92207" lon="4.75245">
        <ele>176.100006104</ele>
        <time>2016-06-06T08:33:13.701Z</time>
      </trkpt>
      <trkpt lat="45.92207" lon="4.75254">
        <ele>175.899993896</ele>
        <time>2016-06-06T08:33:14.756Z</time>
      </trkpt>
      <trkpt lat="45.92207" lon="4.75263">
        <ele>175.899993896</ele>
        <time>2016-06-06T08:33:15.711Z</time>
      </trkpt>
      <trkpt lat="45.92207" lon="4.75272">
        <ele>176.100006104</ele>
        <time>2016-06-06T08:33:16.727Z</time>
      </trkpt>
      <trkpt lat="45.92207" lon="4.75281">
        <ele>176.100006104</ele>
        <time>2016-06-06T08:33:17.704Z</time>
      </trkpt>
      <trkpt lat="45.92206" lon="4.7529">
        <ele>176.100006104</ele>
        <time>2016-06-06T08:33:18.765Z</time>
      </trkpt>
      <trkpt lat="45.92206" lon="4.75298">
        <ele>176.199996948</ele>
        <time>2016-06-06T08:33:19.703Z</time>
      </trkpt>
      <trkpt lat="45.92206" lon="4.75307">
        <ele>176.399993896</ele>
        <time>2016-06-06T08:33:20.727Z</time>
      </trkpt>
      <trkpt lat="45.92205" lon="4.75315">
        <ele>176.600006104</ele>
        <time>2016-06-06T08:33:21.704Z</time>
      </trkpt>
      <trkpt lat="45.92204" lon="4.75323">
        <ele>176.800003052</ele>
        <time>2016-06-06T08:33:22.728Z</time>
      </trkpt>
      <trkpt lat="45.92202" lon="4.75331">
        <ele>176.899993896</ele>
        <time>2016-06-06T08:33:23.699Z</time>
      </trkpt>
      <trkpt lat="45.922" lon="4.75339">
        <ele>177.300003052</ele>
        <time>2016-06-06T08:33:24.724Z</time>
      </trkpt>
      <trkpt lat="45.92198" lon="4.75346">
        <ele>177.199996948</ele>
        <time>2016-06-06T08:33:25.734Z</time>
      </trkpt>
      <trkpt lat="45.92195" lon="4.75354">
        <ele>177.199996948</ele>
        <time>2016-06-06T08:33:26.724Z</time>
      </trkpt>
      <trkpt lat="45.92193" lon="4.75362">
        <ele>177</ele>
        <time>2016-06-06T08:33:27.705Z</time>
      </trkpt>
      <trkpt lat="45.92191" lon="4.7537">
        <ele>177.100006104</ele>
        <time>2016-06-06T08:33:28.742Z</time>
      </trkpt>
      <trkpt lat="45.92188" lon="4.75378">
        <ele>177.199996948</ele>
        <time>2016-06-06T08:33:29.702Z</time>
      </trkpt>
      <trkpt lat="45.92185" lon="4.75386">
        <ele>177.300003052</ele>
        <time>2016-06-06T08:33:30.725Z</time>
      </trkpt>
      <trkpt lat="45.92181" lon="4.75395">
        <ele>177.100006104</ele>
        <time>2016-06-06T08:33:31.703Z</time>
      </trkpt>
      <trkpt lat="45.92177" lon="4.75404">
        <ele>177.100006104</ele>
        <time>2016-06-06T08:33:32.725Z</time>
      </trkpt>
      <trkpt lat="45.92174" lon="4.75412">
        <ele>177.300003052</ele>
        <time>2016-06-06T08:33:33.707Z</time>
      </trkpt>
      <trkpt lat="45.92172" lon="4.75421">
        <ele>177.300003052</ele>
        <time>2016-06-06T08:33:34.721Z</time>
      </trkpt>
      <trkpt lat="45.92169" lon="4.75429">
        <ele>177.399993896</ele>
        <time>2016-06-06T08:33:35.707Z</time>
      </trkpt>
      <trkpt lat="45.92166" lon="4.75437">
        <ele>177.399993896</ele>
        <time>2016-06-06T08:33:36.749Z</time>
      </trkpt>
      <trkpt lat="45.92163" lon="4.75445">
        <ele>177.699996948</ele>
        <time>2016-06-06T08:33:37.699Z</time>
      </trkpt>
      <trkpt lat="45.9216" lon="4.75453">
        <ele>177.899993896</ele>
        <time>2016-06-06T08:33:38.725Z</time>
      </trkpt>
      <trkpt lat="45.92156" lon="4.75461">
        <ele>177.199996948</ele>
        <time>2016-06-06T08:33:39.7Z</time>
      </trkpt>
      <trkpt lat="45.92152" lon="4.75468">
        <ele>176.699996948</ele>
        <time>2016-06-06T08:33:40.722Z</time>
      </trkpt>
      <trkpt lat="45.92149" lon="4.75477">
        <ele>177.300003052</ele>
        <time>2016-06-06T08:33:41.702Z</time>
      </trkpt>
      <trkpt lat="45.92145" lon="4.75485">
        <ele>177.300003052</ele>
        <time>2016-06-06T08:33:42.725Z</time>
      </trkpt>
      <trkpt lat="45.92142" lon="4.75493">
        <ele>177.5</ele>
        <time>2016-06-06T08:33:43.697Z</time>
      </trkpt>
      <trkpt lat="45.92138" lon="4.75501">
        <ele>177.300003052</ele>
        <time>2016-06-06T08:33:44.806Z</time>
      </trkpt>
      <trkpt lat="45.92134" lon="4.75509">
        <ele>176.899993896</ele>
        <time>2016-06-06T08:33:45.712Z</time>
      </trkpt>
      <trkpt lat="45.9213" lon="4.75516">
        <ele>176.699996948</ele>
        <time>2016-06-06T08:33:46.723Z</time>
      </trkpt>
      <trkpt lat="45.92126" lon="4.75524">
        <ele>176.699996948</ele>
        <time>2016-06-06T08:33:47.704Z</time>
      </trkpt>
      <trkpt lat="45.92121" lon="4.75531">
        <ele>176.800003052</ele>
        <time>2016-06-06T08:33:48.724Z</time>
      </trkpt>
      <trkpt lat="45.92118" lon="4.75538">
        <ele>176.899993896</ele>
        <time>2016-06-06T08:33:49.722Z</time>
      </trkpt>
      <trkpt lat="45.92114" lon="4.75546">
        <ele>177.100006104</ele>
        <time>2016-06-06T08:33:50.724Z</time>
      </trkpt>
      <trkpt lat="45.9211" lon="4.75554">
        <ele>177.100006104</ele>
        <time>2016-06-06T08:33:51.705Z</time>
      </trkpt>
      <trkpt lat="45.92105" lon="4.75561">
        <ele>177</ele>
        <time>2016-06-06T08:33:52.726Z</time>
      </trkpt>
      <trkpt lat="45.921" lon="4.75568">
        <ele>177.100006104</ele>
        <time>2016-06-06T08:33:53.702Z</time>
      </trkpt>
      <trkpt lat="45.92096" lon="4.75576">
        <ele>177.300003052</ele>
        <time>2016-06-06T08:33:54.724Z</time>
      </trkpt>
      <trkpt lat="45.92092" lon="4.75584">
        <ele>177.199996948</ele>
        <time>2016-06-06T08:33:55.704Z</time>
      </trkpt>
      <trkpt lat="45.92087" lon="4.75592">
        <ele>177.199996948</ele>
        <time>2016-06-06T08:33:56.726Z</time>
      </trkpt>
      <trkpt lat="45.92083" lon="4.75599">
        <ele>177.300003052</ele>
        <time>2016-06-06T08:33:57.703Z</time>
      </trkpt>
      <trkpt lat="45.92079" lon="4.75607">
        <ele>177.199996948</ele>
        <time>2016-06-06T08:33:58.723Z</time>
      </trkpt>
      <trkpt lat="45.92075" lon="4.75614">
        <ele>177.5</ele>
        <time>2016-06-06T08:33:59.704Z</time>
      </trkpt>
      <trkpt lat="45.92071" lon="4.75621">
        <ele>177.600006104</ele>
        <time>2016-06-06T08:34:00.754Z</time>
      </trkpt>
      <trkpt lat="45.92067" lon="4.75628">
        <ele>177.899993896</ele>
        <time>2016-06-06T08:34:01.699Z</time>
      </trkpt>
      <trkpt lat="45.92063" lon="4.75636">
        <ele>177.600006104</ele>
        <time>2016-06-06T08:34:02.871Z</time>
      </trkpt>
      <trkpt lat="45.9206" lon="4.75644">
        <ele>177.300003052</ele>
        <time>2016-06-06T08:34:03.754Z</time>
      </trkpt>
      <trkpt lat="45.92056" lon="4.7565">
        <ele>177.300003052</ele>
        <time>2016-06-06T08:34:04.727Z</time>
      </trkpt>
      <trkpt lat="45.92051" lon="4.75657">
        <ele>177.5</ele>
        <time>2016-06-06T08:34:05.701Z</time>
      </trkpt>
      <trkpt lat="45.92048" lon="4.75665">
        <ele>177.5</ele>
        <time>2016-06-06T08:34:06.722Z</time>
      </trkpt>
      <trkpt lat="45.92044" lon="4.75672">
        <ele>177.399993896</ele>
        <time>2016-06-06T08:34:07.702Z</time>
      </trkpt>
      <trkpt lat="45.9204" lon="4.75679">
        <ele>177.399993896</ele>
        <time>2016-06-06T08:34:08.725Z</time>
      </trkpt>
      <trkpt lat="45.92036" lon="4.75687">
        <ele>177.399993896</ele>
        <time>2016-06-06T08:34:09.701Z</time>
      </trkpt>
      <trkpt lat="45.92032" lon="4.75694">
        <ele>177.600006104</ele>
        <time>2016-06-06T08:34:10.752Z</time>
      </trkpt>
      <trkpt lat="45.92028" lon="4.75701">
        <ele>177.399993896</ele>
        <time>2016-06-06T08:34:11.705Z</time>
      </trkpt>
      <trkpt lat="45.92024" lon="4.75709">
        <ele>177.300003052</ele>
        <time>2016-06-06T08:34:12.723Z</time>
      </trkpt>
      <trkpt lat="45.9202" lon="4.75716">
        <ele>177.100006104</ele>
        <time>2016-06-06T08:34:13.698Z</time>
      </trkpt>
      <trkpt lat="45.92016" lon="4.75724">
        <ele>177</ele>
        <time>2016-06-06T08:34:14.785Z</time>
      </trkpt>
      <trkpt lat="45.92011" lon="4.75731">
        <ele>177</ele>
        <time>2016-06-06T08:34:15.706Z</time>
      </trkpt>
      <trkpt lat="45.92007" lon="4.75738">
        <ele>176.699996948</ele>
        <time>2016-06-06T08:34:16.81Z</time>
      </trkpt>
      <trkpt lat="45.92003" lon="4.75746">
        <ele>176.600006104</ele>
        <time>2016-06-06T08:34:17.697Z</time>
      </trkpt>
      <trkpt lat="45.91998" lon="4.75753">
        <ele>176.899993896</ele>
        <time>2016-06-06T08:34:18.721Z</time>
      </trkpt>
      <trkpt lat="45.91994" lon="4.75761">
        <ele>177</ele>
        <time>2016-06-06T08:34:19.697Z</time>
      </trkpt>
      <trkpt lat="45.9199" lon="4.75768">
        <ele>177</ele>
        <time>2016-06-06T08:34:20.721Z</time>
      </trkpt>
      <trkpt lat="45.91986" lon="4.75775">
        <ele>177.100006104</ele>
        <time>2016-06-06T08:34:21.703Z</time>
      </trkpt>
      <trkpt lat="45.91983" lon="4.75782">
        <ele>177.600006104</ele>
        <time>2016-06-06T08:34:22.723Z</time>
      </trkpt>
      <trkpt lat="45.91979" lon="4.75789">
        <ele>177.600006104</ele>
        <time>2016-06-06T08:34:23.698Z</time>
      </trkpt>
      <trkpt lat="45.91975" lon="4.75796">
        <ele>177.600006104</ele>
        <time>2016-06-06T08:34:24.721Z</time>
      </trkpt>
      <trkpt lat="45.91971" lon="4.75804">
        <ele>177.800003052</ele>
        <time>2016-06-06T08:34:25.699Z</time>
      </trkpt>
      <trkpt lat="45.91967" lon="4.75812">
        <ele>177.899993896</ele>
        <time>2016-06-06T08:34:26.755Z</time>
      </trkpt>
      <trkpt lat="45.91962" lon="4.75819">
        <ele>177.800003052</ele>
        <time>2016-06-06T08:34:27.7Z</time>
      </trkpt>
      <trkpt lat="45.91959" lon="4.75826">
        <ele>177.399993896</ele>
        <time>2016-06-06T08:34:28.721Z</time>
      </trkpt>
      <trkpt lat="45.91955" lon="4.75834">
        <ele>177.600006104</ele>
        <time>2016-06-06T08:34:29.698Z</time>
      </trkpt>
      <trkpt lat="45.9195" lon="4.75841">
        <ele>177.800003052</ele>
        <time>2016-06-06T08:34:30.756Z</time>
      </trkpt>
      <trkpt lat="45.91946" lon="4.75849">
        <ele>177.699996948</ele>
        <time>2016-06-06T08:34:31.698Z</time>
      </trkpt>
      <trkpt lat="45.91943" lon="4.75856">
        <ele>177.699996948</ele>
        <time>2016-06-06T08:34:32.722Z</time>
      </trkpt>
      <trkpt lat="45.91939" lon="4.75863">
        <ele>177.800003052</ele>
        <time>2016-06-06T08:34:33.7Z</time>
      </trkpt>
      <trkpt lat="45.91935" lon="4.7587">
        <ele>177.800003052</ele>
        <time>2016-06-06T08:34:34.719Z</time>
      </trkpt>
      <trkpt lat="45.91932" lon="4.75878">
        <ele>177.800003052</ele>
        <time>2016-06-06T08:34:35.702Z</time>
      </trkpt>
      <trkpt lat="45.91928" lon="4.75886">
        <ele>177.699996948</ele>
        <time>2016-06-06T08:34:36.908Z</time>
      </trkpt>
      <trkpt lat="45.91925" lon="4.75895">
        <ele>177.600006104</ele>
        <time>2016-06-06T08:34:37.7Z</time>
      </trkpt>
      <trkpt lat="45.91922" lon="4.75904">
        <ele>177.5</ele>
        <time>2016-06-06T08:34:38.722Z</time>
      </trkpt>
      <trkpt lat="45.91919" lon="4.75912">
        <ele>177.399993896</ele>
        <time>2016-06-06T08:34:39.701Z</time>
      </trkpt>
      <trkpt lat="45.91917" lon="4.75921">
        <ele>177.199996948</ele>
        <time>2016-06-06T08:34:40.72Z</time>
      </trkpt>
      <trkpt lat="45.91915" lon="4.7593">
        <ele>176.699996948</ele>
        <time>2016-06-06T08:34:41.699Z</time>
      </trkpt>
      <trkpt lat="45.91913" lon="4.75938">
        <ele>176.600006104</ele>
        <time>2016-06-06T08:34:42.755Z</time>
      </trkpt>
      <trkpt lat="45.9191" lon="4.75947">
        <ele>176.699996948</ele>
        <time>2016-06-06T08:34:43.698Z</time>
      </trkpt>
      <trkpt lat="45.91908" lon="4.75956">
        <ele>176.600006104</ele>
        <time>2016-06-06T08:34:44.721Z</time>
      </trkpt>
      <trkpt lat="45.91906" lon="4.75966">
        <ele>176.899993896</ele>
        <time>2016-06-06T08:34:45.739Z</time>
      </trkpt>
      <trkpt lat="45.91904" lon="4.75975">
        <ele>177</ele>
        <time>2016-06-06T08:34:46.88Z</time>
      </trkpt>
      <trkpt lat="45.91901" lon="4.75983">
        <ele>177.100006104</ele>
        <time>2016-06-06T08:34:47.719Z</time>
      </trkpt>
      <trkpt lat="45.91899" lon="4.75991">
        <ele>177.300003052</ele>
        <time>2016-06-06T08:34:48.72Z</time>
      </trkpt>
      <trkpt lat="45.91897" lon="4.76">
        <ele>177.699996948</ele>
        <time>2016-06-06T08:34:49.699Z</time>
      </trkpt>
      <trkpt lat="45.91895" lon="4.76008">
        <ele>178</ele>
        <time>2016-06-06T08:34:50.722Z</time>
      </trkpt>
      <trkpt lat="45.91893" lon="4.76016">
        <ele>177.899993896</ele>
        <time>2016-06-06T08:34:51.704Z</time>
      </trkpt>
      <trkpt lat="45.91891" lon="4.76025">
        <ele>177.800003052</ele>
        <time>2016-06-06T08:34:52.768Z</time>
      </trkpt>
      <trkpt lat="45.91889" lon="4.76033">
        <ele>177.600006104</ele>
        <time>2016-06-06T08:34:53.698Z</time>
      </trkpt>
      <trkpt lat="45.91887" lon="4.76042">
        <ele>177.800003052</ele>
        <time>2016-06-06T08:34:54.721Z</time>
      </trkpt>
      <trkpt lat="45.91884" lon="4.7605">
        <ele>177.5</ele>
        <time>2016-06-06T08:34:55.7Z</time>
      </trkpt>
      <trkpt lat="45.91882" lon="4.76059">
        <ele>177.5</ele>
        <time>2016-06-06T08:34:56.724Z</time>
      </trkpt>
      <trkpt lat="45.9188" lon="4.76067">
        <ele>177.600006104</ele>
        <time>2016-06-06T08:34:57.704Z</time>
      </trkpt>
      <trkpt lat="45.91878" lon="4.76076">
        <ele>177.699996948</ele>
        <time>2016-06-06T08:34:58.721Z</time>
      </trkpt>
      <trkpt lat="45.91876" lon="4.76084">
        <ele>178</ele>
        <time>2016-06-06T08:34:59.698Z</time>
      </trkpt>
      <trkpt lat="45.91874" lon="4.76093">
        <ele>178.5</ele>
        <time>2016-06-06T08:35:00.722Z</time>
      </trkpt>
      <trkpt lat="45.91872" lon="4.76102">
        <ele>178.5</ele>
        <time>2016-06-06T08:35:01.736Z</time>
      </trkpt>
      <trkpt lat="45.91869" lon="4.7611">
        <ele>178.600006104</ele>
        <time>2016-06-06T08:35:02.738Z</time>
      </trkpt>
      <trkpt lat="45.91867" lon="4.76119">
        <ele>178.699996948</ele>
        <time>2016-06-06T08:35:03.706Z</time>
      </trkpt>
      <trkpt lat="45.91865" lon="4.76127">
        <ele>179.100006104</ele>
        <time>2016-06-06T08:35:04.722Z</time>
      </trkpt>
      <trkpt lat="45.91863" lon="4.76136">
        <ele>178.899993896</ele>
        <time>2016-06-06T08:35:05.698Z</time>
      </trkpt>
      <trkpt lat="45.9186" lon="4.76144">
        <ele>179</ele>
        <time>2016-06-06T08:35:06.72Z</time>
      </trkpt>
      <trkpt lat="45.91858" lon="4.76152">
        <ele>179.199996948</ele>
        <time>2016-06-06T08:35:07.724Z</time>
      </trkpt>
      <trkpt lat="45.91856" lon="4.7616">
        <ele>179.100006104</ele>
        <time>2016-06-06T08:35:08.775Z</time>
      </trkpt>
      <trkpt lat="45.91854" lon="4.76168">
        <ele>179.100006104</ele>
        <time>2016-06-06T08:35:09.7Z</time>
      </trkpt>
      <trkpt lat="45.91852" lon="4.76176">
        <ele>178.699996948</ele>
        <time>2016-06-06T08:35:10.764Z</time>
      </trkpt>
      <trkpt lat="45.9185" lon="4.76185">
        <ele>178.699996948</ele>
        <time>2016-06-06T08:35:11.698Z</time>
      </trkpt>
      <trkpt lat="45.91848" lon="4.76194">
        <ele>178.699996948</ele>
        <time>2016-06-06T08:35:12.843Z</time>
      </trkpt>
      <trkpt lat="45.91845" lon="4.76203">
        <ele>178.399993896</ele>
        <time>2016-06-06T08:35:13.698Z</time>
      </trkpt>
      <trkpt lat="45.91843" lon="4.76212">
        <ele>178.300003052</ele>
        <time>2016-06-06T08:35:14.777Z</time>
      </trkpt>
      <trkpt lat="45.9184" lon="4.76221">
        <ele>178.399993896</ele>
        <time>2016-06-06T08:35:15.704Z</time>
      </trkpt>
      <trkpt lat="45.91838" lon="4.7623">
        <ele>178.399993896</ele>
        <time>2016-06-06T08:35:16.721Z</time>
      </trkpt>
      <trkpt lat="45.91836" lon="4.7624">
        <ele>178.600006104</ele>
        <time>2016-06-06T08:35:17.774Z</time>
      </trkpt>
      <trkpt lat="45.91833" lon="4.76249">
        <ele>178.600006104</ele>
        <time>2016-06-06T08:35:18.987Z</time>
      </trkpt>
      <trkpt lat="45.91831" lon="4.76258">
        <ele>178.5</ele>
        <time>2016-06-06T08:35:19.699Z</time>
      </trkpt>
      <trkpt lat="45.91828" lon="4.76267">
        <ele>178.600006104</ele>
        <time>2016-06-06T08:35:20.761Z</time>
      </trkpt>
      <trkpt lat="45.91826" lon="4.76276">
        <ele>178.5</ele>
        <time>2016-06-06T08:35:21.762Z</time>
      </trkpt>
      <trkpt lat="45.91824" lon="4.76284">
        <ele>178.399993896</ele>
        <time>2016-06-06T08:35:22.732Z</time>
      </trkpt>
      <trkpt lat="45.91821" lon="4.76293">
        <ele>178.300003052</ele>
        <time>2016-06-06T08:35:23.709Z</time>
      </trkpt>
      <trkpt lat="45.91819" lon="4.76301">
        <ele>178</ele>
        <time>2016-06-06T08:35:24.761Z</time>
      </trkpt>
      <trkpt lat="45.91818" lon="4.76309">
        <ele>177.699996948</ele>
        <time>2016-06-06T08:35:25.711Z</time>
      </trkpt>
      <trkpt lat="45.91816" lon="4.76316">
        <ele>177.5</ele>
        <time>2016-06-06T08:35:26.733Z</time>
      </trkpt>
      <trkpt lat="45.91814" lon="4.76324">
        <ele>177.300003052</ele>
        <time>2016-06-06T08:35:27.708Z</time>
      </trkpt>
      <trkpt lat="45.91812" lon="4.76333">
        <ele>177.300003052</ele>
        <time>2016-06-06T08:35:28.728Z</time>
      </trkpt>
      <trkpt lat="45.91812" lon="4.76341">
        <ele>177.5</ele>
        <time>2016-06-06T08:35:29.705Z</time>
      </trkpt>
      <trkpt lat="45.91811" lon="4.76349">
        <ele>177.800003052</ele>
        <time>2016-06-06T08:35:30.722Z</time>
      </trkpt>
      <trkpt lat="45.91809" lon="4.76358">
        <ele>177.300003052</ele>
        <time>2016-06-06T08:35:31.696Z</time>
      </trkpt>
      <trkpt lat="45.91809" lon="4.76367">
        <ele>177.199996948</ele>
        <time>2016-06-06T08:35:32.725Z</time>
      </trkpt>
      <trkpt lat="45.91808" lon="4.76376">
        <ele>177.300003052</ele>
        <time>2016-06-06T08:35:33.705Z</time>
      </trkpt>
      <trkpt lat="45.91808" lon="4.76385">
        <ele>177.100006104</ele>
        <time>2016-06-06T08:35:34.726Z</time>
      </trkpt>
      <trkpt lat="45.91807" lon="4.76394">
        <ele>177.100006104</ele>
        <time>2016-06-06T08:35:35.704Z</time>
      </trkpt>
      <trkpt lat="45.91806" lon="4.76403">
        <ele>177.100006104</ele>
        <time>2016-06-06T08:35:36.727Z</time>
      </trkpt>
      <trkpt lat="45.91806" lon="4.76412">
        <ele>177.100006104</ele>
        <time>2016-06-06T08:35:37.698Z</time>
      </trkpt>
      <trkpt lat="45.91805" lon="4.76421">
        <ele>177.699996948</ele>
        <time>2016-06-06T08:35:38.725Z</time>
      </trkpt>
      <trkpt lat="45.91804" lon="4.76431">
        <ele>178</ele>
        <time>2016-06-06T08:35:39.72Z</time>
      </trkpt>
      <trkpt lat="45.91804" lon="4.76441">
        <ele>178.100006104</ele>
        <time>2016-06-06T08:35:40.723Z</time>
      </trkpt>
      <trkpt lat="45.91803" lon="4.76451">
        <ele>178</ele>
        <time>2016-06-06T08:35:41.698Z</time>
      </trkpt>
      <trkpt lat="45.91803" lon="4.76461">
        <ele>177.800003052</ele>
        <time>2016-06-06T08:35:42.72Z</time>
      </trkpt>
      <trkpt lat="45.91802" lon="4.76471">
        <ele>177.699996948</ele>
        <time>2016-06-06T08:35:43.698Z</time>
      </trkpt>
      <trkpt lat="45.91802" lon="4.76481">
        <ele>178.100006104</ele>
        <time>2016-06-06T08:35:44.721Z</time>
      </trkpt>
      <trkpt lat="45.91801" lon="4.7649">
        <ele>178.399993896</ele>
        <time>2016-06-06T08:35:45.705Z</time>
      </trkpt>
      <trkpt lat="45.91801" lon="4.76499">
        <ele>178.800003052</ele>
        <time>2016-06-06T08:35:46.721Z</time>
      </trkpt>
      <trkpt lat="45.918" lon="4.76509">
        <ele>178.699996948</ele>
        <time>2016-06-06T08:35:47.698Z</time>
      </trkpt>
      <trkpt lat="45.91799" lon="4.76519">
        <ele>178.199996948</ele>
        <time>2016-06-06T08:35:48.722Z</time>
      </trkpt>
      <trkpt lat="45.91798" lon="4.76528">
        <ele>178.399993896</ele>
        <time>2016-06-06T08:35:49.697Z</time>
      </trkpt>
      <trkpt lat="45.91797" lon="4.76538">
        <ele>178.600006104</ele>
        <time>2016-06-06T08:35:50.722Z</time>
      </trkpt>
      <trkpt lat="45.91796" lon="4.76547">
        <ele>178.899993896</ele>
        <time>2016-06-06T08:35:51.703Z</time>
      </trkpt>
      <trkpt lat="45.91795" lon="4.76557">
        <ele>178.899993896</ele>
        <time>2016-06-06T08:35:52.725Z</time>
      </trkpt>
      <trkpt lat="45.91794" lon="4.76567">
        <ele>178.899993896</ele>
        <time>2016-06-06T08:35:53.724Z</time>
      </trkpt>
      <trkpt lat="45.91793" lon="4.76576">
        <ele>179.300003052</ele>
        <time>2016-06-06T08:35:54.724Z</time>
      </trkpt>
      <trkpt lat="45.91792" lon="4.76586">
        <ele>179.699996948</ele>
        <time>2016-06-06T08:35:55.706Z</time>
      </trkpt>
      <trkpt lat="45.91791" lon="4.76596">
        <ele>179.600006104</ele>
        <time>2016-06-06T08:35:56.859Z</time>
      </trkpt>
      <trkpt lat="45.9179" lon="4.76606">
        <ele>179.699996948</ele>
        <time>2016-06-06T08:35:57.7Z</time>
      </trkpt>
      <trkpt lat="45.91789" lon="4.76616">
        <ele>179.800003052</ele>
        <time>2016-06-06T08:35:58.731Z</time>
      </trkpt>
      <trkpt lat="45.91788" lon="4.76626">
        <ele>179.699996948</ele>
        <time>2016-06-06T08:35:59.695Z</time>
      </trkpt>
      <trkpt lat="45.91787" lon="4.76636">
        <ele>179.699996948</ele>
        <time>2016-06-06T08:36:00.739Z</time>
      </trkpt>
      <trkpt lat="45.91786" lon="4.76646">
        <ele>179.399993896</ele>
        <time>2016-06-06T08:36:01.698Z</time>
      </trkpt>
      <trkpt lat="45.91785" lon="4.76655">
        <ele>179.100006104</ele>
        <time>2016-06-06T08:36:02.725Z</time>
      </trkpt>
      <trkpt lat="45.91783" lon="4.76666">
        <ele>178.800003052</ele>
        <time>2016-06-06T08:36:03.7Z</time>
      </trkpt>
      <trkpt lat="45.91782" lon="4.76676">
        <ele>178.300003052</ele>
        <time>2016-06-06T08:36:04.72Z</time>
      </trkpt>
      <trkpt lat="45.91781" lon="4.76685">
        <ele>178.100006104</ele>
        <time>2016-06-06T08:36:05.701Z</time>
      </trkpt>
      <trkpt lat="45.9178" lon="4.76695">
        <ele>178.199996948</ele>
        <time>2016-06-06T08:36:06.722Z</time>
      </trkpt>
      <trkpt lat="45.91779" lon="4.76705">
        <ele>178.199996948</ele>
        <time>2016-06-06T08:36:07.697Z</time>
      </trkpt>
      <trkpt lat="45.91778" lon="4.76715">
        <ele>178.199996948</ele>
        <time>2016-06-06T08:36:08.72Z</time>
      </trkpt>
      <trkpt lat="45.91776" lon="4.76725">
        <ele>178.100006104</ele>
        <time>2016-06-06T08:36:09.7Z</time>
      </trkpt>
      <trkpt lat="45.91776" lon="4.76735">
        <ele>178.300003052</ele>
        <time>2016-06-06T08:36:10.72Z</time>
      </trkpt>
      <trkpt lat="45.91775" lon="4.76746">
        <ele>178.199996948</ele>
        <time>2016-06-06T08:36:11.698Z</time>
      </trkpt>
      <trkpt lat="45.91774" lon="4.76757">
        <ele>178</ele>
        <time>2016-06-06T08:36:12.72Z</time>
      </trkpt>
      <trkpt lat="45.91774" lon="4.76768">
        <ele>177.5</ele>
        <time>2016-06-06T08:36:13.696Z</time>
      </trkpt>
      <trkpt lat="45.91774" lon="4.76779">
        <ele>177.100006104</ele>
        <time>2016-06-06T08:36:14.719Z</time>
      </trkpt>
      <trkpt lat="45.91773" lon="4.76789">
        <ele>176.899993896</ele>
        <time>2016-06-06T08:36:15.702Z</time>
      </trkpt>
      <trkpt lat="45.91773" lon="4.768">
        <ele>177.100006104</ele>
        <time>2016-06-06T08:36:16.737Z</time>
      </trkpt>
      <trkpt lat="45.91772" lon="4.7681">
        <ele>176.800003052</ele>
        <time>2016-06-06T08:36:17.701Z</time>
      </trkpt>
      <trkpt lat="45.91772" lon="4.7682">
        <ele>176.5</ele>
        <time>2016-06-06T08:36:18.723Z</time>
      </trkpt>
      <trkpt lat="45.91772" lon="4.7683">
        <ele>176.300003052</ele>
        <time>2016-06-06T08:36:19.698Z</time>
      </trkpt>
      <trkpt lat="45.91772" lon="4.7684">
        <ele>176.199996948</ele>
        <time>2016-06-06T08:36:20.724Z</time>
      </trkpt>
      <trkpt lat="45.91772" lon="4.7685">
        <ele>176</ele>
        <time>2016-06-06T08:36:21.711Z</time>
      </trkpt>
      <trkpt lat="45.91772" lon="4.76861">
        <ele>175.800003052</ele>
        <time>2016-06-06T08:36:22.727Z</time>
      </trkpt>
      <trkpt lat="45.91771" lon="4.76871">
        <ele>176</ele>
        <time>2016-06-06T08:36:23.699Z</time>
      </trkpt>
      <trkpt lat="45.91771" lon="4.76881">
        <ele>176.5</ele>
        <time>2016-06-06T08:36:24.723Z</time>
      </trkpt>
      <trkpt lat="45.9177" lon="4.76891">
        <ele>176.5</ele>
        <time>2016-06-06T08:36:25.706Z</time>
      </trkpt>
      <trkpt lat="45.9177" lon="4.76901">
        <ele>176.800003052</ele>
        <time>2016-06-06T08:36:26.794Z</time>
      </trkpt>
      <trkpt lat="45.91769" lon="4.76911">
        <ele>177</ele>
        <time>2016-06-06T08:36:27.699Z</time>
      </trkpt>
      <trkpt lat="45.91769" lon="4.76922">
        <ele>176.800003052</ele>
        <time>2016-06-06T08:36:28.72Z</time>
      </trkpt>
      <trkpt lat="45.91768" lon="4.76932">
        <ele>177.100006104</ele>
        <time>2016-06-06T08:36:29.698Z</time>
      </trkpt>
      <trkpt lat="45.91767" lon="4.76941">
        <ele>177.100006104</ele>
        <time>2016-06-06T08:36:30.722Z</time>
      </trkpt>
      <trkpt lat="45.91766" lon="4.76951">
        <ele>177.100006104</ele>
        <time>2016-06-06T08:36:31.697Z</time>
      </trkpt>
      <trkpt lat="45.91765" lon="4.76961">
        <ele>177.100006104</ele>
        <time>2016-06-06T08:36:32.72Z</time>
      </trkpt>
      <trkpt lat="45.91764" lon="4.76971">
        <ele>177.100006104</ele>
        <time>2016-06-06T08:36:33.703Z</time>
      </trkpt>
      <trkpt lat="45.91763" lon="4.7698">
        <ele>177.100006104</ele>
        <time>2016-06-06T08:36:34.722Z</time>
      </trkpt>
      <trkpt lat="45.91761" lon="4.7699">
        <ele>176.899993896</ele>
        <time>2016-06-06T08:36:35.703Z</time>
      </trkpt>
      <trkpt lat="45.9176" lon="4.76999">
        <ele>177.199996948</ele>
        <time>2016-06-06T08:36:36.722Z</time>
      </trkpt>
      <trkpt lat="45.91758" lon="4.77009">
        <ele>177.199996948</ele>
        <time>2016-06-06T08:36:37.701Z</time>
      </trkpt>
      <trkpt lat="45.91758" lon="4.77018">
        <ele>177.199996948</ele>
        <time>2016-06-06T08:36:38.757Z</time>
      </trkpt>
      <trkpt lat="45.91756" lon="4.77027">
        <ele>177.399993896</ele>
        <time>2016-06-06T08:36:39.726Z</time>
      </trkpt>
      <trkpt lat="45.91755" lon="4.77035">
        <ele>177.600006104</ele>
        <time>2016-06-06T08:36:40.83Z</time>
      </trkpt>
      <trkpt lat="45.91754" lon="4.77045">
        <ele>178.100006104</ele>
        <time>2016-06-06T08:36:41.698Z</time>
      </trkpt>
      <trkpt lat="45.91753" lon="4.77054">
        <ele>178.300003052</ele>
        <time>2016-06-06T08:36:42.737Z</time>
      </trkpt>
      <trkpt lat="45.91752" lon="4.77063">
        <ele>178.399993896</ele>
        <time>2016-06-06T08:36:43.696Z</time>
      </trkpt>
      <trkpt lat="45.9175" lon="4.77073">
        <ele>178.5</ele>
        <time>2016-06-06T08:36:44.724Z</time>
      </trkpt>
      <trkpt lat="45.91749" lon="4.77082">
        <ele>178.300003052</ele>
        <time>2016-06-06T08:36:45.704Z</time>
      </trkpt>
      <trkpt lat="45.91747" lon="4.77092">
        <ele>178.199996948</ele>
        <time>2016-06-06T08:36:46.72Z</time>
      </trkpt>
      <trkpt lat="45.91746" lon="4.77102">
        <ele>177.899993896</ele>
        <time>2016-06-06T08:36:47.703Z</time>
      </trkpt>
      <trkpt lat="45.91745" lon="4.77112">
        <ele>177.800003052</ele>
        <time>2016-06-06T08:36:48.72Z</time>
      </trkpt>
      <trkpt lat="45.91743" lon="4.77122">
        <ele>177.800003052</ele>
        <time>2016-06-06T08:36:49.697Z</time>
      </trkpt>
      <trkpt lat="45.91742" lon="4.77132">
        <ele>177.600006104</ele>
        <time>2016-06-06T08:36:50.748Z</time>
      </trkpt>
      <trkpt lat="45.9174" lon="4.77141">
        <ele>177.399993896</ele>
        <time>2016-06-06T08:36:51.704Z</time>
      </trkpt>
      <trkpt lat="45.91739" lon="4.7715">
        <ele>177.300003052</ele>
        <time>2016-06-06T08:36:52.719Z</time>
      </trkpt>
      <trkpt lat="45.91738" lon="4.77159">
        <ele>177.399993896</ele>
        <time>2016-06-06T08:36:53.701Z</time>
      </trkpt>
      <trkpt lat="45.91736" lon="4.77168">
        <ele>177.399993896</ele>
        <time>2016-06-06T08:36:54.72Z</time>
      </trkpt>
      <trkpt lat="45.91735" lon="4.77177">
        <ele>177.399993896</ele>
        <time>2016-06-06T08:36:55.757Z</time>
      </trkpt>
      <trkpt lat="45.91734" lon="4.77186">
        <ele>177.5</ele>
        <time>2016-06-06T08:36:56.732Z</time>
      </trkpt>
      <trkpt lat="45.91732" lon="4.77195">
        <ele>177.399993896</ele>
        <time>2016-06-06T08:36:57.701Z</time>
      </trkpt>
      <trkpt lat="45.91731" lon="4.77205">
        <ele>177.5</ele>
        <time>2016-06-06T08:36:58.74Z</time>
      </trkpt>
      <trkpt lat="45.91729" lon="4.77215">
        <ele>177.5</ele>
        <time>2016-06-06T08:36:59.701Z</time>
      </trkpt>
      <trkpt lat="45.91728" lon="4.77225">
        <ele>177.600006104</ele>
        <time>2016-06-06T08:37:00.72Z</time>
      </trkpt>
      <trkpt lat="45.91727" lon="4.77234">
        <ele>177.600006104</ele>
        <time>2016-06-06T08:37:01.696Z</time>
      </trkpt>
      <trkpt lat="45.91725" lon="4.77243">
        <ele>177.600006104</ele>
        <time>2016-06-06T08:37:02.865Z</time>
      </trkpt>
      <trkpt lat="45.91724" lon="4.77252">
        <ele>177.5</ele>
        <time>2016-06-06T08:37:03.7Z</time>
      </trkpt>
      <trkpt lat="45.91723" lon="4.77261">
        <ele>177.100006104</ele>
        <time>2016-06-06T08:37:04.756Z</time>
      </trkpt>
      <trkpt lat="45.91722" lon="4.7727">
        <ele>176.899993896</ele>
        <time>2016-06-06T08:37:05.707Z</time>
      </trkpt>
      <trkpt lat="45.9172" lon="4.77279">
        <ele>176.899993896</ele>
        <time>2016-06-06T08:37:06.724Z</time>
      </trkpt>
      <trkpt lat="45.91719" lon="4.77288">
        <ele>176.899993896</ele>
        <time>2016-06-06T08:37:07.697Z</time>
      </trkpt>
      <trkpt lat="45.91718" lon="4.77296">
        <ele>177</ele>
        <time>2016-06-06T08:37:08.72Z</time>
      </trkpt>
      <trkpt lat="45.91716" lon="4.77305">
        <ele>176.699996948</ele>
        <time>2016-06-06T08:37:09.698Z</time>
      </trkpt>
      <trkpt lat="45.91715" lon="4.77316">
        <ele>176.100006104</ele>
        <time>2016-06-06T08:37:10.723Z</time>
      </trkpt>
      <trkpt lat="45.91713" lon="4.77326">
        <ele>175.699996948</ele>
        <time>2016-06-06T08:37:11.697Z</time>
      </trkpt>
      <trkpt lat="45.91712" lon="4.77335">
        <ele>175.300003052</ele>
        <time>2016-06-06T08:37:12.722Z</time>
      </trkpt>
      <trkpt lat="45.91711" lon="4.77345">
        <ele>174.800003052</ele>
        <time>2016-06-06T08:37:13.701Z</time>
      </trkpt>
      <trkpt lat="45.91709" lon="4.77355">
        <ele>174.600006104</ele>
        <time>2016-06-06T08:37:14.723Z</time>
      </trkpt>
      <trkpt lat="45.91707" lon="4.77364">
        <ele>174.199996948</ele>
        <time>2016-06-06T08:37:15.708Z</time>
      </trkpt>
      <trkpt lat="45.91706" lon="4.77373">
        <ele>173.899993896</ele>
        <time>2016-06-06T08:37:16.72Z</time>
      </trkpt>
      <trkpt lat="45.91704" lon="4.77381">
        <ele>173.5</ele>
        <time>2016-06-06T08:37:17.701Z</time>
      </trkpt>
      <trkpt lat="45.91702" lon="4.7739">
        <ele>173.300003052</ele>
        <time>2016-06-06T08:37:18.719Z</time>
      </trkpt>
      <trkpt lat="45.917" lon="4.77398">
        <ele>173</ele>
        <time>2016-06-06T08:37:19.718Z</time>
      </trkpt>
      <trkpt lat="45.91698" lon="4.77407">
        <ele>172.899993896</ele>
        <time>2016-06-06T08:37:20.72Z</time>
      </trkpt>
      <trkpt lat="45.91697" lon="4.77415">
        <ele>172.600006104</ele>
        <time>2016-06-06T08:37:21.702Z</time>
      </trkpt>
      <trkpt lat="45.91695" lon="4.77424">
        <ele>172.5</ele>
        <time>2016-06-06T08:37:22.72Z</time>
      </trkpt>
      <trkpt lat="45.91694" lon="4.77432">
        <ele>172.300003052</ele>
        <time>2016-06-06T08:37:23.697Z</time>
      </trkpt>
      <trkpt lat="45.91694" lon="4.77441">
        <ele>172.199996948</ele>
        <time>2016-06-06T08:37:24.854Z</time>
      </trkpt>
      <trkpt lat="45.91693" lon="4.77449">
        <ele>172.100006104</ele>
        <time>2016-06-06T08:37:25.703Z</time>
      </trkpt>
      <trkpt lat="45.91693" lon="4.77457">
        <ele>171.899993896</ele>
        <time>2016-06-06T08:37:26.72Z</time>
      </trkpt>
      <trkpt lat="45.91691" lon="4.77464">
        <ele>171.600006104</ele>
        <time>2016-06-06T08:37:27.703Z</time>
      </trkpt>
      <trkpt lat="45.91689" lon="4.77471">
        <ele>171.5</ele>
        <time>2016-06-06T08:37:28.72Z</time>
      </trkpt>
      <trkpt lat="45.91686" lon="4.77478">
        <ele>171.199996948</ele>
        <time>2016-06-06T08:37:29.698Z</time>
      </trkpt>
      <trkpt lat="45.91684" lon="4.77486">
        <ele>171</ele>
        <time>2016-06-06T08:37:30.723Z</time>
      </trkpt>
      <trkpt lat="45.91684" lon="4.77495">
        <ele>171.399993896</ele>
        <time>2016-06-06T08:37:31.697Z</time>
      </trkpt>
      <trkpt lat="45.91685" lon="4.77503">
        <ele>171.399993896</ele>
        <time>2016-06-06T08:37:32.72Z</time>
      </trkpt>
      <trkpt lat="45.91686" lon="4.77511">
        <ele>171.399993896</ele>
        <time>2016-06-06T08:37:33.7Z</time>
      </trkpt>
      <trkpt lat="45.91685" lon="4.77519">
        <ele>171.399993896</ele>
        <time>2016-06-06T08:37:34.723Z</time>
      </trkpt>
      <trkpt lat="45.91684" lon="4.77528">
        <ele>171.5</ele>
        <time>2016-06-06T08:37:35.757Z</time>
      </trkpt>
      <trkpt lat="45.91683" lon="4.77536">
        <ele>171.399993896</ele>
        <time>2016-06-06T08:37:36.759Z</time>
      </trkpt>
      <trkpt lat="45.91682" lon="4.77544">
        <ele>171.800003052</ele>
        <time>2016-06-06T08:37:37.697Z</time>
      </trkpt>
      <trkpt lat="45.9168" lon="4.77553">
        <ele>171.600006104</ele>
        <time>2016-06-06T08:37:38.723Z</time>
      </trkpt>
      <trkpt lat="45.91679" lon="4.7756">
        <ele>171.800003052</ele>
        <time>2016-06-06T08:37:39.703Z</time>
      </trkpt>
      <trkpt lat="45.91677" lon="4.77568">
        <ele>171.899993896</ele>
        <time>2016-06-06T08:37:40.723Z</time>
      </trkpt>
      <trkpt lat="45.91676" lon="4.77576">
        <ele>172</ele>
        <time>2016-06-06T08:37:41.701Z</time>
      </trkpt>
      <trkpt lat="45.91675" lon="4.77585">
        <ele>171.899993896</ele>
        <time>2016-06-06T08:37:42.72Z</time>
      </trkpt>
      <trkpt lat="45.91673" lon="4.77593">
        <ele>172.199996948</ele>
        <time>2016-06-06T08:37:43.7Z</time>
      </trkpt>
      <trkpt lat="45.91672" lon="4.77602">
        <ele>172.800003052</ele>
        <time>2016-06-06T08:37:44.719Z</time>
      </trkpt>
      <trkpt lat="45.9167" lon="4.77611">
        <ele>173.5</ele>
        <time>2016-06-06T08:37:45.712Z</time>
      </trkpt>
      <trkpt lat="45.91668" lon="4.7762">
        <ele>173.699996948</ele>
        <time>2016-06-06T08:37:46.74Z</time>
      </trkpt>
      <trkpt lat="45.91666" lon="4.77629">
        <ele>174.100006104</ele>
        <time>2016-06-06T08:37:47.698Z</time>
      </trkpt>
      <trkpt lat="45.91664" lon="4.77637">
        <ele>174.300003052</ele>
        <time>2016-06-06T08:37:48.718Z</time>
      </trkpt>
      <trkpt lat="45.91662" lon="4.77646">
        <ele>174.300003052</ele>
        <time>2016-06-06T08:37:49.7Z</time>
      </trkpt>
      <trkpt lat="45.9166" lon="4.77654">
        <ele>174.5</ele>
        <time>2016-06-06T08:37:50.723Z</time>
      </trkpt>
      <trkpt lat="45.91659" lon="4.77663">
        <ele>174.5</ele>
        <time>2016-06-06T08:37:51.707Z</time>
      </trkpt>
      <trkpt lat="45.91657" lon="4.77672">
        <ele>174.800003052</ele>
        <time>2016-06-06T08:37:52.72Z</time>
      </trkpt>
      <trkpt lat="45.91655" lon="4.7768">
        <ele>175</ele>
        <time>2016-06-06T08:37:53.699Z</time>
      </trkpt>
      <trkpt lat="45.91653" lon="4.77688">
        <ele>175.100006104</ele>
        <time>2016-06-06T08:37:54.722Z</time>
      </trkpt>
      <trkpt lat="45.91651" lon="4.77696">
        <ele>175.100006104</ele>
        <time>2016-06-06T08:37:55.711Z</time>
      </trkpt>
      <trkpt lat="45.91649" lon="4.77704">
        <ele>175.100006104</ele>
        <time>2016-06-06T08:37:56.719Z</time>
      </trkpt>
      <trkpt lat="45.91647" lon="4.77712">
        <ele>175.199996948</ele>
        <time>2016-06-06T08:37:57.703Z</time>
      </trkpt>
      <trkpt lat="45.91645" lon="4.7772">
        <ele>175.300003052</ele>
        <time>2016-06-06T08:37:58.722Z</time>
      </trkpt>
      <trkpt lat="45.91643" lon="4.77728">
        <ele>175.5</ele>
        <time>2016-06-06T08:37:59.697Z</time>
      </trkpt>
      <trkpt lat="45.91641" lon="4.77736">
        <ele>175.899993896</ele>
        <time>2016-06-06T08:38:00.721Z</time>
      </trkpt>
      <trkpt lat="45.91639" lon="4.77745">
        <ele>176.699996948</ele>
        <time>2016-06-06T08:38:01.7Z</time>
      </trkpt>
      <trkpt lat="45.91637" lon="4.77753">
        <ele>176.699996948</ele>
        <time>2016-06-06T08:38:02.74Z</time>
      </trkpt>
      <trkpt lat="45.91634" lon="4.77762">
        <ele>177</ele>
        <time>2016-06-06T08:38:03.703Z</time>
      </trkpt>
      <trkpt lat="45.91632" lon="4.77771">
        <ele>176.699996948</ele>
        <time>2016-06-06T08:38:04.718Z</time>
      </trkpt>
      <trkpt lat="45.91629" lon="4.7778">
        <ele>176.600006104</ele>
        <time>2016-06-06T08:38:05.713Z</time>
      </trkpt>
      <trkpt lat="45.91626" lon="4.77788">
        <ele>176.5</ele>
        <time>2016-06-06T08:38:06.724Z</time>
      </trkpt>
      <trkpt lat="45.91623" lon="4.77797">
        <ele>176.5</ele>
        <time>2016-06-06T08:38:07.7Z</time>
      </trkpt>
      <trkpt lat="45.91621" lon="4.77805">
        <ele>176.600006104</ele>
        <time>2016-06-06T08:38:08.833Z</time>
      </trkpt>
      <trkpt lat="45.91618" lon="4.77813">
        <ele>176.399993896</ele>
        <time>2016-06-06T08:38:09.711Z</time>
      </trkpt>
      <trkpt lat="45.91615" lon="4.7782">
        <ele>176.399993896</ele>
        <time>2016-06-06T08:38:10.748Z</time>
      </trkpt>
      <trkpt lat="45.91612" lon="4.77828">
        <ele>176.399993896</ele>
        <time>2016-06-06T08:38:11.698Z</time>
      </trkpt>
      <trkpt lat="45.91609" lon="4.77835">
        <ele>176.399993896</ele>
        <time>2016-06-06T08:38:12.723Z</time>
      </trkpt>
      <trkpt lat="45.91605" lon="4.77843">
        <ele>176.399993896</ele>
        <time>2016-06-06T08:38:13.7Z</time>
      </trkpt>
      <trkpt lat="45.91602" lon="4.77851">
        <ele>176</ele>
        <time>2016-06-06T08:38:14.72Z</time>
      </trkpt>
      <trkpt lat="45.91598" lon="4.77858">
        <ele>175.699996948</ele>
        <time>2016-06-06T08:38:15.71Z</time>
      </trkpt>
      <trkpt lat="45.91594" lon="4.77865">
        <ele>175.600006104</ele>
        <time>2016-06-06T08:38:16.723Z</time>
      </trkpt>
      <trkpt lat="45.91591" lon="4.77873">
        <ele>175.600006104</ele>
        <time>2016-06-06T08:38:17.701Z</time>
      </trkpt>
      <trkpt lat="45.91587" lon="4.77881">
        <ele>174.899993896</ele>
        <time>2016-06-06T08:38:18.741Z</time>
      </trkpt>
      <trkpt lat="45.91583" lon="4.77889">
        <ele>175</ele>
        <time>2016-06-06T08:38:19.707Z</time>
      </trkpt>
      <trkpt lat="45.91579" lon="4.77896">
        <ele>175.199996948</ele>
        <time>2016-06-06T08:38:20.839Z</time>
      </trkpt>
      <trkpt lat="45.91576" lon="4.77903">
        <ele>175.300003052</ele>
        <time>2016-06-06T08:38:21.702Z</time>
      </trkpt>
      <trkpt lat="45.91573" lon="4.7791">
        <ele>175.399993896</ele>
        <time>2016-06-06T08:38:22.719Z</time>
      </trkpt>
      <trkpt lat="45.9157" lon="4.77917">
        <ele>175.199996948</ele>
        <time>2016-06-06T08:38:23.697Z</time>
      </trkpt>
      <trkpt lat="45.91567" lon="4.77924">
        <ele>175.300003052</ele>
        <time>2016-06-06T08:38:24.723Z</time>
      </trkpt>
      <trkpt lat="45.91563" lon="4.77931">
        <ele>175.399993896</ele>
        <time>2016-06-06T08:38:25.707Z</time>
      </trkpt>
      <trkpt lat="45.9156" lon="4.77937">
        <ele>175.5</ele>
        <time>2016-06-06T08:38:26.723Z</time>
      </trkpt>
      <trkpt lat="45.91557" lon="4.77944">
        <ele>175.699996948</ele>
        <time>2016-06-06T08:38:27.699Z</time>
      </trkpt>
      <trkpt lat="45.91554" lon="4.7795">
        <ele>175.899993896</ele>
        <time>2016-06-06T08:38:28.723Z</time>
      </trkpt>
      <trkpt lat="45.91551" lon="4.77957">
        <ele>176</ele>
        <time>2016-06-06T08:38:29.697Z</time>
      </trkpt>
      <trkpt lat="45.91547" lon="4.77964">
        <ele>176</ele>
        <time>2016-06-06T08:38:30.719Z</time>
      </trkpt>
      <trkpt lat="45.91544" lon="4.77971">
        <ele>176</ele>
        <time>2016-06-06T08:38:31.817Z</time>
      </trkpt>
      <trkpt lat="45.9154" lon="4.77979">
        <ele>176</ele>
        <time>2016-06-06T08:38:32.723Z</time>
      </trkpt>
      <trkpt lat="45.91537" lon="4.77986">
        <ele>176</ele>
        <time>2016-06-06T08:38:33.702Z</time>
      </trkpt>
      <trkpt lat="45.91533" lon="4.77994">
        <ele>176</ele>
        <time>2016-06-06T08:38:34.783Z</time>
      </trkpt>
      <trkpt lat="45.9153" lon="4.78002">
        <ele>176.100006104</ele>
        <time>2016-06-06T08:38:35.713Z</time>
      </trkpt>
      <trkpt lat="45.91526" lon="4.7801">
        <ele>175.899993896</ele>
        <time>2016-06-06T08:38:36.731Z</time>
      </trkpt>
      <trkpt lat="45.91523" lon="4.78017">
        <ele>175.800003052</ele>
        <time>2016-06-06T08:38:37.696Z</time>
      </trkpt>
      <trkpt lat="45.9152" lon="4.78024">
        <ele>175.699996948</ele>
        <time>2016-06-06T08:38:38.723Z</time>
      </trkpt>
      <trkpt lat="45.91516" lon="4.78031">
        <ele>175.899993896</ele>
        <time>2016-06-06T08:38:39.698Z</time>
      </trkpt>
      <trkpt lat="45.91513" lon="4.78038">
        <ele>175.800003052</ele>
        <time>2016-06-06T08:38:40.719Z</time>
      </trkpt>
      <trkpt lat="45.91509" lon="4.78045">
        <ele>176.199996948</ele>
        <time>2016-06-06T08:38:41.697Z</time>
      </trkpt>
      <trkpt lat="45.91505" lon="4.78052">
        <ele>176.100006104</ele>
        <time>2016-06-06T08:38:42.718Z</time>
      </trkpt>
      <trkpt lat="45.91502" lon="4.78059">
        <ele>176.199996948</ele>
        <time>2016-06-06T08:38:43.7Z</time>
      </trkpt>
      <trkpt lat="45.91498" lon="4.78066">
        <ele>176.100006104</ele>
        <time>2016-06-06T08:38:44.719Z</time>
      </trkpt>
      <trkpt lat="45.91495" lon="4.78074">
        <ele>175.800003052</ele>
        <time>2016-06-06T08:38:45.713Z</time>
      </trkpt>
      <trkpt lat="45.91492" lon="4.78082">
        <ele>175.699996948</ele>
        <time>2016-06-06T08:38:46.753Z</time>
      </trkpt>
      <trkpt lat="45.91488" lon="4.78089">
        <ele>175.5</ele>
        <time>2016-06-06T08:38:47.73Z</time>
      </trkpt>
      <trkpt lat="45.91484" lon="4.78096">
        <ele>175.300003052</ele>
        <time>2016-06-06T08:38:48.767Z</time>
      </trkpt>
      <trkpt lat="45.9148" lon="4.78103">
        <ele>175.399993896</ele>
        <time>2016-06-06T08:38:49.7Z</time>
      </trkpt>
      <trkpt lat="45.91477" lon="4.78109">
        <ele>175.600006104</ele>
        <time>2016-06-06T08:38:50.742Z</time>
      </trkpt>
      <trkpt lat="45.91473" lon="4.78116">
        <ele>175.699996948</ele>
        <time>2016-06-06T08:38:51.705Z</time>
      </trkpt>
      <trkpt lat="45.9147" lon="4.78123">
        <ele>175.699996948</ele>
        <time>2016-06-06T08:38:52.749Z</time>
      </trkpt>
      <trkpt lat="45.91466" lon="4.78129">
        <ele>175.399993896</ele>
        <time>2016-06-06T08:38:53.702Z</time>
      </trkpt>
      <trkpt lat="45.91463" lon="4.78137">
        <ele>175.399993896</ele>
        <time>2016-06-06T08:38:54.727Z</time>
      </trkpt>
      <trkpt lat="45.9146" lon="4.78145">
        <ele>175.300003052</ele>
        <time>2016-06-06T08:38:55.719Z</time>
      </trkpt>
      <trkpt lat="45.91457" lon="4.78153">
        <ele>175.399993896</ele>
        <time>2016-06-06T08:38:56.719Z</time>
      </trkpt>
      <trkpt lat="45.91453" lon="4.7816">
        <ele>175.300003052</ele>
        <time>2016-06-06T08:38:57.702Z</time>
      </trkpt>
      <trkpt lat="45.91449" lon="4.78167">
        <ele>175.199996948</ele>
        <time>2016-06-06T08:38:58.721Z</time>
      </trkpt>
      <trkpt lat="45.91446" lon="4.78175">
        <ele>175.300003052</ele>
        <time>2016-06-06T08:38:59.696Z</time>
      </trkpt>
      <trkpt lat="45.91442" lon="4.78181">
        <ele>175.399993896</ele>
        <time>2016-06-06T08:39:00.72Z</time>
      </trkpt>
      <trkpt lat="45.91439" lon="4.78188">
        <ele>175.399993896</ele>
        <time>2016-06-06T08:39:01.7Z</time>
      </trkpt>
      <trkpt lat="45.91436" lon="4.78195">
        <ele>175.399993896</ele>
        <time>2016-06-06T08:39:02.733Z</time>
      </trkpt>
      <trkpt lat="45.91433" lon="4.78202">
        <ele>175.300003052</ele>
        <time>2016-06-06T08:39:03.736Z</time>
      </trkpt>
      <trkpt lat="45.9143" lon="4.78209">
        <ele>175.699996948</ele>
        <time>2016-06-06T08:39:04.725Z</time>
      </trkpt>
      <trkpt lat="45.91426" lon="4.78216">
        <ele>175.699996948</ele>
        <time>2016-06-06T08:39:05.763Z</time>
      </trkpt>
      <trkpt lat="45.91423" lon="4.78222">
        <ele>175.699996948</ele>
        <time>2016-06-06T08:39:06.736Z</time>
      </trkpt>
      <trkpt lat="45.9142" lon="4.7823">
        <ele>175.899993896</ele>
        <time>2016-06-06T08:39:07.7Z</time>
      </trkpt>
      <trkpt lat="45.91417" lon="4.78236">
        <ele>176.100006104</ele>
        <time>2016-06-06T08:39:08.722Z</time>
      </trkpt>
      <trkpt lat="45.91414" lon="4.78242">
        <ele>176</ele>
        <time>2016-06-06T08:39:09.701Z</time>
      </trkpt>
      <trkpt lat="45.91411" lon="4.78249">
        <ele>175.899993896</ele>
        <time>2016-06-06T08:39:10.838Z</time>
      </trkpt>
      <trkpt lat="45.91408" lon="4.78255">
        <ele>175.899993896</ele>
        <time>2016-06-06T08:39:11.703Z</time>
      </trkpt>
      <trkpt lat="45.91404" lon="4.78262">
        <ele>175.899993896</ele>
        <time>2016-06-06T08:39:12.751Z</time>
      </trkpt>
      <trkpt lat="45.91401" lon="4.78269">
        <ele>176</ele>
        <time>2016-06-06T08:39:13.7Z</time>
      </trkpt>
      <trkpt lat="45.91398" lon="4.78276">
        <ele>176.199996948</ele>
        <time>2016-06-06T08:39:14.719Z</time>
      </trkpt>
      <trkpt lat="45.91395" lon="4.78283">
        <ele>176.399993896</ele>
        <time>2016-06-06T08:39:15.765Z</time>
      </trkpt>
      <trkpt lat="45.91391" lon="4.78291">
        <ele>176.699996948</ele>
        <time>2016-06-06T08:39:16.718Z</time>
      </trkpt>
      <trkpt lat="45.91388" lon="4.78298">
        <ele>176.800003052</ele>
        <time>2016-06-06T08:39:17.7Z</time>
      </trkpt>
      <trkpt lat="45.91386" lon="4.78305">
        <ele>177.300003052</ele>
        <time>2016-06-06T08:39:18.719Z</time>
      </trkpt>
      <trkpt lat="45.91383" lon="4.78312">
        <ele>178.399993896</ele>
        <time>2016-06-06T08:39:19.705Z</time>
      </trkpt>
      <trkpt lat="45.91381" lon="4.7832">
        <ele>179.199996948</ele>
        <time>2016-06-06T08:39:20.809Z</time>
      </trkpt>
      <trkpt lat="45.91377" lon="4.78328">
        <ele>179.300003052</ele>
        <time>2016-06-06T08:39:21.699Z</time>
      </trkpt>
      <trkpt lat="45.91375" lon="4.78335">
        <ele>179.899993896</ele>
        <time>2016-06-06T08:39:22.762Z</time>
      </trkpt>
      <trkpt lat="45.91372" lon="4.78342">
        <ele>180.399993896</ele>
        <time>2016-06-06T08:39:23.7Z</time>
      </trkpt>
      <trkpt lat="45.91369" lon="4.78349">
        <ele>181.100006104</ele>
        <time>2016-06-06T08:39:24.722Z</time>
      </trkpt>
      <trkpt lat="45.91365" lon="4.78356">
        <ele>181.5</ele>
        <time>2016-06-06T08:39:25.72Z</time>
      </trkpt>
      <trkpt lat="45.91362" lon="4.78364">
        <ele>181.699996948</ele>
        <time>2016-06-06T08:39:26.719Z</time>
      </trkpt>
      <trkpt lat="45.91359" lon="4.78371">
        <ele>182.199996948</ele>
        <time>2016-06-06T08:39:27.699Z</time>
      </trkpt>
      <trkpt lat="45.91355" lon="4.78379">
        <ele>182.800003052</ele>
        <time>2016-06-06T08:39:28.719Z</time>
      </trkpt>
      <trkpt lat="45.91352" lon="4.78386">
        <ele>183.199996948</ele>
        <time>2016-06-06T08:39:29.697Z</time>
      </trkpt>
      <trkpt lat="45.91349" lon="4.78393">
        <ele>183.699996948</ele>
        <time>2016-06-06T08:39:30.72Z</time>
      </trkpt>
      <trkpt lat="45.91345" lon="4.78401">
        <ele>184</ele>
        <time>2016-06-06T08:39:31.7Z</time>
      </trkpt>
      <trkpt lat="45.91342" lon="4.78407">
        <ele>184.300003052</ele>
        <time>2016-06-06T08:39:32.723Z</time>
      </trkpt>
      <trkpt lat="45.91339" lon="4.78414">
        <ele>184.699996948</ele>
        <time>2016-06-06T08:39:33.702Z</time>
      </trkpt>
      <trkpt lat="45.91335" lon="4.7842">
        <ele>184.699996948</ele>
        <time>2016-06-06T08:39:34.722Z</time>
      </trkpt>
      <trkpt lat="45.91333" lon="4.78426">
        <ele>184.800003052</ele>
        <time>2016-06-06T08:39:35.721Z</time>
      </trkpt>
      <trkpt lat="45.9133" lon="4.78433">
        <ele>185</ele>
        <time>2016-06-06T08:39:36.722Z</time>
      </trkpt>
      <trkpt lat="45.91327" lon="4.7844">
        <ele>185.100006104</ele>
        <time>2016-06-06T08:39:37.7Z</time>
      </trkpt>
      <trkpt lat="45.91324" lon="4.78447">
        <ele>185.199996948</ele>
        <time>2016-06-06T08:39:38.849Z</time>
      </trkpt>
      <trkpt lat="45.91321" lon="4.78454">
        <ele>184.800003052</ele>
        <time>2016-06-06T08:39:39.702Z</time>
      </trkpt>
      <trkpt lat="45.91317" lon="4.78461">
        <ele>184.5</ele>
        <time>2016-06-06T08:39:40.749Z</time>
      </trkpt>
      <trkpt lat="45.91314" lon="4.78467">
        <ele>184.399993896</ele>
        <time>2016-06-06T08:39:41.697Z</time>
      </trkpt>
      <trkpt lat="45.91311" lon="4.78474">
        <ele>184.600006104</ele>
        <time>2016-06-06T08:39:42.723Z</time>
      </trkpt>
      <trkpt lat="45.91308" lon="4.78481">
        <ele>184.600006104</ele>
        <time>2016-06-06T08:39:43.696Z</time>
      </trkpt>
      <trkpt lat="45.91304" lon="4.78488">
        <ele>184.699996948</ele>
        <time>2016-06-06T08:39:44.718Z</time>
      </trkpt>
      <trkpt lat="45.91301" lon="4.78494">
        <ele>184.600006104</ele>
        <time>2016-06-06T08:39:45.72Z</time>
      </trkpt>
      <trkpt lat="45.91298" lon="4.78501">
        <ele>184.699996948</ele>
        <time>2016-06-06T08:39:46.723Z</time>
      </trkpt>
      <trkpt lat="45.91295" lon="4.78508">
        <ele>184.699996948</ele>
        <time>2016-06-06T08:39:47.7Z</time>
      </trkpt>
      <trkpt lat="45.91291" lon="4.78516">
        <ele>184.399993896</ele>
        <time>2016-06-06T08:39:48.722Z</time>
      </trkpt>
      <trkpt lat="45.91288" lon="4.78523">
        <ele>184.300003052</ele>
        <time>2016-06-06T08:39:49.7Z</time>
      </trkpt>
      <trkpt lat="45.91285" lon="4.7853">
        <ele>183.899993896</ele>
        <time>2016-06-06T08:39:50.739Z</time>
      </trkpt>
      <trkpt lat="45.91282" lon="4.78537">
        <ele>183.899993896</ele>
        <time>2016-06-06T08:39:51.734Z</time>
      </trkpt>
      <trkpt lat="45.91278" lon="4.78544">
        <ele>183.699996948</ele>
        <time>2016-06-06T08:39:52.719Z</time>
      </trkpt>
      <trkpt lat="45.91275" lon="4.78551">
        <ele>183.5</ele>
        <time>2016-06-06T08:39:53.697Z</time>
      </trkpt>
      <trkpt lat="45.91272" lon="4.78557">
        <ele>183.300003052</ele>
        <time>2016-06-06T08:39:54.735Z</time>
      </trkpt>
      <trkpt lat="45.91268" lon="4.78564">
        <ele>183.100006104</ele>
        <time>2016-06-06T08:39:55.721Z</time>
      </trkpt>
      <trkpt lat="45.91265" lon="4.78571">
        <ele>183.100006104</ele>
        <time>2016-06-06T08:39:56.736Z</time>
      </trkpt>
      <trkpt lat="45.91262" lon="4.78578">
        <ele>183.100006104</ele>
        <time>2016-06-06T08:39:57.699Z</time>
      </trkpt>
      <trkpt lat="45.91259" lon="4.78585">
        <ele>183.5</ele>
        <time>2016-06-06T08:39:58.719Z</time>
      </trkpt>
      <trkpt lat="45.91256" lon="4.78593">
        <ele>183.5</ele>
        <time>2016-06-06T08:39:59.696Z</time>
      </trkpt>
      <trkpt lat="45.91253" lon="4.786">
        <ele>183.600006104</ele>
        <time>2016-06-06T08:40:00.775Z</time>
      </trkpt>
      <trkpt lat="45.91249" lon="4.78607">
        <ele>183</ele>
        <time>2016-06-06T08:40:01.696Z</time>
      </trkpt>
      <trkpt lat="45.91246" lon="4.78614">
        <ele>182.899993896</ele>
        <time>2016-06-06T08:40:02.723Z</time>
      </trkpt>
      <trkpt lat="45.91242" lon="4.78622">
        <ele>182.399993896</ele>
        <time>2016-06-06T08:40:03.703Z</time>
      </trkpt>
      <trkpt lat="45.91239" lon="4.78629">
        <ele>182.300003052</ele>
        <time>2016-06-06T08:40:04.719Z</time>
      </trkpt>
      <trkpt lat="45.91235" lon="4.78636">
        <ele>181.899993896</ele>
        <time>2016-06-06T08:40:05.722Z</time>
      </trkpt>
      <trkpt lat="45.91232" lon="4.78644">
        <ele>181.699996948</ele>
        <time>2016-06-06T08:40:06.735Z</time>
      </trkpt>
      <trkpt lat="45.91228" lon="4.78652">
        <ele>181.300003052</ele>
        <time>2016-06-06T08:40:07.7Z</time>
      </trkpt>
      <trkpt lat="45.91225" lon="4.7866">
        <ele>180.800003052</ele>
        <time>2016-06-06T08:40:08.749Z</time>
      </trkpt>
      <trkpt lat="45.91221" lon="4.78668">
        <ele>180.699996948</ele>
        <time>2016-06-06T08:40:09.702Z</time>
      </trkpt>
      <trkpt lat="45.91217" lon="4.78675">
        <ele>180.5</ele>
        <time>2016-06-06T08:40:10.774Z</time>
      </trkpt>
      <trkpt lat="45.91214" lon="4.78683">
        <ele>180.300003052</ele>
        <time>2016-06-06T08:40:11.696Z</time>
      </trkpt>
      <trkpt lat="45.9121" lon="4.7869">
        <ele>180.100006104</ele>
        <time>2016-06-06T08:40:12.726Z</time>
      </trkpt>
      <trkpt lat="45.91207" lon="4.78698">
        <ele>180.300003052</ele>
        <time>2016-06-06T08:40:13.696Z</time>
      </trkpt>
      <trkpt lat="45.91203" lon="4.78705">
        <ele>180.399993896</ele>
        <time>2016-06-06T08:40:14.719Z</time>
      </trkpt>
      <trkpt lat="45.912" lon="4.78713">
        <ele>180.5</ele>
        <time>2016-06-06T08:40:15.727Z</time>
      </trkpt>
      <trkpt lat="45.91196" lon="4.7872">
        <ele>180.600006104</ele>
        <time>2016-06-06T08:40:16.766Z</time>
      </trkpt>
      <trkpt lat="45.91192" lon="4.78727">
        <ele>180.600006104</ele>
        <time>2016-06-06T08:40:17.697Z</time>
      </trkpt>
      <trkpt lat="45.91188" lon="4.78735">
        <ele>181.100006104</ele>
        <time>2016-06-06T08:40:18.722Z</time>
      </trkpt>
      <trkpt lat="45.91185" lon="4.78743">
        <ele>181.5</ele>
        <time>2016-06-06T08:40:19.697Z</time>
      </trkpt>
      <trkpt lat="45.91182" lon="4.7875">
        <ele>181.800003052</ele>
        <time>2016-06-06T08:40:20.72Z</time>
      </trkpt>
      <trkpt lat="45.91178" lon="4.78758">
        <ele>182.399993896</ele>
        <time>2016-06-06T08:40:21.702Z</time>
      </trkpt>
      <trkpt lat="45.91174" lon="4.78766">
        <ele>182.5</ele>
        <time>2016-06-06T08:40:22.723Z</time>
      </trkpt>
      <trkpt lat="45.9117" lon="4.78773">
        <ele>182.800003052</ele>
        <time>2016-06-06T08:40:23.697Z</time>
      </trkpt>
      <trkpt lat="45.91166" lon="4.78781">
        <ele>182.899993896</ele>
        <time>2016-06-06T08:40:24.718Z</time>
      </trkpt>
      <trkpt lat="45.91162" lon="4.78788">
        <ele>183.100006104</ele>
        <time>2016-06-06T08:40:25.717Z</time>
      </trkpt>
      <trkpt lat="45.91158" lon="4.78796">
        <ele>183.199996948</ele>
        <time>2016-06-06T08:40:26.76Z</time>
      </trkpt>
      <trkpt lat="45.91154" lon="4.78803">
        <ele>183.300003052</ele>
        <time>2016-06-06T08:40:27.699Z</time>
      </trkpt>
      <trkpt lat="45.91151" lon="4.7881">
        <ele>183.199996948</ele>
        <time>2016-06-06T08:40:28.718Z</time>
      </trkpt>
      <trkpt lat="45.91147" lon="4.78817">
        <ele>183.199996948</ele>
        <time>2016-06-06T08:40:29.7Z</time>
      </trkpt>
      <trkpt lat="45.91143" lon="4.78824">
        <ele>183.5</ele>
        <time>2016-06-06T08:40:30.719Z</time>
      </trkpt>
      <trkpt lat="45.91139" lon="4.78831">
        <ele>183.600006104</ele>
        <time>2016-06-06T08:40:31.696Z</time>
      </trkpt>
      <trkpt lat="45.91135" lon="4.78838">
        <ele>183.600006104</ele>
        <time>2016-06-06T08:40:32.723Z</time>
      </trkpt>
      <trkpt lat="45.91131" lon="4.78844">
        <ele>183.800003052</ele>
        <time>2016-06-06T08:40:33.699Z</time>
      </trkpt>
      <trkpt lat="45.91127" lon="4.78852">
        <ele>183.199996948</ele>
        <time>2016-06-06T08:40:34.851Z</time>
      </trkpt>
      <trkpt lat="45.91122" lon="4.78858">
        <ele>183.100006104</ele>
        <time>2016-06-06T08:40:35.722Z</time>
      </trkpt>
      <trkpt lat="45.91118" lon="4.78866">
        <ele>183.199996948</ele>
        <time>2016-06-06T08:40:36.719Z</time>
      </trkpt>
      <trkpt lat="45.91114" lon="4.78873">
        <ele>183.199996948</ele>
        <time>2016-06-06T08:40:37.699Z</time>
      </trkpt>
      <trkpt lat="45.91111" lon="4.7888">
        <ele>183.300003052</ele>
        <time>2016-06-06T08:40:38.723Z</time>
      </trkpt>
      <trkpt lat="45.91106" lon="4.78887">
        <ele>183.300003052</ele>
        <time>2016-06-06T08:40:39.702Z</time>
      </trkpt>
      <trkpt lat="45.91102" lon="4.78895">
        <ele>183.300003052</ele>
        <time>2016-06-06T08:40:40.718Z</time>
      </trkpt>
      <trkpt lat="45.91098" lon="4.78902">
        <ele>183.5</ele>
        <time>2016-06-06T08:40:41.7Z</time>
      </trkpt>
      <trkpt lat="45.91095" lon="4.7891">
        <ele>183.899993896</ele>
        <time>2016-06-06T08:40:42.739Z</time>
      </trkpt>
      <trkpt lat="45.91091" lon="4.78917">
        <ele>184</ele>
        <time>2016-06-06T08:40:43.696Z</time>
      </trkpt>
      <trkpt lat="45.91086" lon="4.78924">
        <ele>184.399993896</ele>
        <time>2016-06-06T08:40:44.718Z</time>
      </trkpt>
      <trkpt lat="45.91083" lon="4.78932">
        <ele>184.5</ele>
        <time>2016-06-06T08:40:45.746Z</time>
      </trkpt>
      <trkpt lat="45.91078" lon="4.78939">
        <ele>184.5</ele>
        <time>2016-06-06T08:40:46.719Z</time>
      </trkpt>
      <trkpt lat="45.91074" lon="4.78946">
        <ele>184.699996948</ele>
        <time>2016-06-06T08:40:47.7Z</time>
      </trkpt>
      <trkpt lat="45.91071" lon="4.78953">
        <ele>185</ele>
        <time>2016-06-06T08:40:48.722Z</time>
      </trkpt>
      <trkpt lat="45.91067" lon="4.78959">
        <ele>185</ele>
        <time>2016-06-06T08:40:49.727Z</time>
      </trkpt>
      <trkpt lat="45.91064" lon="4.78965">
        <ele>185.199996948</ele>
        <time>2016-06-06T08:40:50.722Z</time>
      </trkpt>
      <trkpt lat="45.9106" lon="4.78972">
        <ele>185.5</ele>
        <time>2016-06-06T08:40:51.705Z</time>
      </trkpt>
      <trkpt lat="45.91057" lon="4.78978">
        <ele>185.600006104</ele>
        <time>2016-06-06T08:40:52.721Z</time>
      </trkpt>
      <trkpt lat="45.91053" lon="4.78984">
        <ele>185.699996948</ele>
        <time>2016-06-06T08:40:53.696Z</time>
      </trkpt>
      <trkpt lat="45.9105" lon="4.78991">
        <ele>185.5</ele>
        <time>2016-06-06T08:40:54.718Z</time>
      </trkpt>
      <trkpt lat="45.91046" lon="4.78998">
        <ele>185.5</ele>
        <time>2016-06-06T08:40:55.723Z</time>
      </trkpt>
      <trkpt lat="45.91043" lon="4.79004">
        <ele>185.399993896</ele>
        <time>2016-06-06T08:40:56.733Z</time>
      </trkpt>
      <trkpt lat="45.91039" lon="4.79011">
        <ele>185.5</ele>
        <time>2016-06-06T08:40:57.698Z</time>
      </trkpt>
      <trkpt lat="45.91035" lon="4.79017">
        <ele>185.699996948</ele>
        <time>2016-06-06T08:40:58.733Z</time>
      </trkpt>
      <trkpt lat="45.91031" lon="4.79024">
        <ele>186.199996948</ele>
        <time>2016-06-06T08:40:59.7Z</time>
      </trkpt>
      <trkpt lat="45.91027" lon="4.79031">
        <ele>186.600006104</ele>
        <time>2016-06-06T08:41:00.775Z</time>
      </trkpt>
      <trkpt lat="45.91023" lon="4.79037">
        <ele>186.899993896</ele>
        <time>2016-06-06T08:41:01.699Z</time>
      </trkpt>
      <trkpt lat="45.9102" lon="4.79045">
        <ele>186.899993896</ele>
        <time>2016-06-06T08:41:02.718Z</time>
      </trkpt>
      <trkpt lat="45.91015" lon="4.79052">
        <ele>187.100006104</ele>
        <time>2016-06-06T08:41:03.703Z</time>
      </trkpt>
      <trkpt lat="45.91011" lon="4.79059">
        <ele>187.199996948</ele>
        <time>2016-06-06T08:41:04.718Z</time>
      </trkpt>
      <trkpt lat="45.91007" lon="4.79067">
        <ele>187.199996948</ele>
        <time>2016-06-06T08:41:05.721Z</time>
      </trkpt>
      <trkpt lat="45.91003" lon="4.79074">
        <ele>186.699996948</ele>
        <time>2016-06-06T08:41:06.718Z</time>
      </trkpt>
      <trkpt lat="45.91" lon="4.79081">
        <ele>186.5</ele>
        <time>2016-06-06T08:41:07.696Z</time>
      </trkpt>
      <trkpt lat="45.90996" lon="4.79088">
        <ele>186.300003052</ele>
        <time>2016-06-06T08:41:08.718Z</time>
      </trkpt>
      <trkpt lat="45.90993" lon="4.79095">
        <ele>185.899993896</ele>
        <time>2016-06-06T08:41:09.699Z</time>
      </trkpt>
      <trkpt lat="45.90989" lon="4.79102">
        <ele>185.899993896</ele>
        <time>2016-06-06T08:41:10.718Z</time>
      </trkpt>
      <trkpt lat="45.90986" lon="4.79109">
        <ele>186.199996948</ele>
        <time>2016-06-06T08:41:11.696Z</time>
      </trkpt>
      <trkpt lat="45.90982" lon="4.79115">
        <ele>186.399993896</ele>
        <time>2016-06-06T08:41:12.727Z</time>
      </trkpt>
      <trkpt lat="45.90979" lon="4.79121">
        <ele>186.300003052</ele>
        <time>2016-06-06T08:41:13.696Z</time>
      </trkpt>
      <trkpt lat="45.90975" lon="4.79128">
        <ele>186.399993896</ele>
        <time>2016-06-06T08:41:14.737Z</time>
      </trkpt>
      <trkpt lat="45.90972" lon="4.79135">
        <ele>186.399993896</ele>
        <time>2016-06-06T08:41:15.718Z</time>
      </trkpt>
      <trkpt lat="45.90969" lon="4.79142">
        <ele>186.199996948</ele>
        <time>2016-06-06T08:41:16.718Z</time>
      </trkpt>
      <trkpt lat="45.90965" lon="4.79149">
        <ele>186.300003052</ele>
        <time>2016-06-06T08:41:17.696Z</time>
      </trkpt>
      <trkpt lat="45.90961" lon="4.79155">
        <ele>186.399993896</ele>
        <time>2016-06-06T08:41:18.745Z</time>
      </trkpt>
      <trkpt lat="45.90957" lon="4.79162">
        <ele>186.300003052</ele>
        <time>2016-06-06T08:41:19.7Z</time>
      </trkpt>
      <trkpt lat="45.90954" lon="4.79168">
        <ele>186.300003052</ele>
        <time>2016-06-06T08:41:20.718Z</time>
      </trkpt>
      <trkpt lat="45.9095" lon="4.79174">
        <ele>186.100006104</ele>
        <time>2016-06-06T08:41:21.698Z</time>
      </trkpt>
      <trkpt lat="45.90947" lon="4.7918">
        <ele>186.199996948</ele>
        <time>2016-06-06T08:41:22.719Z</time>
      </trkpt>
      <trkpt lat="45.90943" lon="4.79186">
        <ele>186.199996948</ele>
        <time>2016-06-06T08:41:23.725Z</time>
      </trkpt>
      <trkpt lat="45.9094" lon="4.79192">
        <ele>186.399993896</ele>
        <time>2016-06-06T08:41:24.722Z</time>
      </trkpt>
      <trkpt lat="45.90936" lon="4.792">
        <ele>186.5</ele>
        <time>2016-06-06T08:41:25.697Z</time>
      </trkpt>
      <trkpt lat="45.90933" lon="4.79207">
        <ele>186.5</ele>
        <time>2016-06-06T08:41:26.722Z</time>
      </trkpt>
      <trkpt lat="45.90928" lon="4.79214">
        <ele>186.300003052</ele>
        <time>2016-06-06T08:41:27.733Z</time>
      </trkpt>
      <trkpt lat="45.90924" lon="4.79221">
        <ele>186.300003052</ele>
        <time>2016-06-06T08:41:28.722Z</time>
      </trkpt>
      <trkpt lat="45.9092" lon="4.79228">
        <ele>186.100006104</ele>
        <time>2016-06-06T08:41:29.701Z</time>
      </trkpt>
      <trkpt lat="45.90916" lon="4.79235">
        <ele>185.899993896</ele>
        <time>2016-06-06T08:41:30.737Z</time>
      </trkpt>
      <trkpt lat="45.90912" lon="4.79243">
        <ele>185.699996948</ele>
        <time>2016-06-06T08:41:31.696Z</time>
      </trkpt>
      <trkpt lat="45.90908" lon="4.7925">
        <ele>185.699996948</ele>
        <time>2016-06-06T08:41:32.722Z</time>
      </trkpt>
      <trkpt lat="45.90904" lon="4.79257">
        <ele>185.5</ele>
        <time>2016-06-06T08:41:33.699Z</time>
      </trkpt>
      <trkpt lat="45.90899" lon="4.79265">
        <ele>185.5</ele>
        <time>2016-06-06T08:41:34.73Z</time>
      </trkpt>
      <trkpt lat="45.90895" lon="4.79272">
        <ele>185.300003052</ele>
        <time>2016-06-06T08:41:35.711Z</time>
      </trkpt>
      <trkpt lat="45.90891" lon="4.79279">
        <ele>185.199996948</ele>
        <time>2016-06-06T08:41:36.722Z</time>
      </trkpt>
      <trkpt lat="45.90886" lon="4.79287">
        <ele>184.800003052</ele>
        <time>2016-06-06T08:41:37.699Z</time>
      </trkpt>
      <trkpt lat="45.90881" lon="4.79294">
        <ele>184.800003052</ele>
        <time>2016-06-06T08:41:38.721Z</time>
      </trkpt>
      <trkpt lat="45.90877" lon="4.79302">
        <ele>184.899993896</ele>
        <time>2016-06-06T08:41:39.698Z</time>
      </trkpt>
      <trkpt lat="45.90872" lon="4.79309">
        <ele>184.800003052</ele>
        <time>2016-06-06T08:41:40.739Z</time>
      </trkpt>
      <trkpt lat="45.90867" lon="4.79317">
        <ele>184.800003052</ele>
        <time>2016-06-06T08:41:41.7Z</time>
      </trkpt>
      <trkpt lat="45.90862" lon="4.79324">
        <ele>184.5</ele>
        <time>2016-06-06T08:41:42.722Z</time>
      </trkpt>
      <trkpt lat="45.90858" lon="4.79331">
        <ele>184.5</ele>
        <time>2016-06-06T08:41:43.696Z</time>
      </trkpt>
      <trkpt lat="45.90853" lon="4.79337">
        <ele>184.699996948</ele>
        <time>2016-06-06T08:41:44.721Z</time>
      </trkpt>
      <trkpt lat="45.90848" lon="4.79344">
        <ele>184.699996948</ele>
        <time>2016-06-06T08:41:45.714Z</time>
      </trkpt>
      <trkpt lat="45.90844" lon="4.7935">
        <ele>184.399993896</ele>
        <time>2016-06-06T08:41:46.768Z</time>
      </trkpt>
      <trkpt lat="45.90839" lon="4.79355">
        <ele>184.399993896</ele>
        <time>2016-06-06T08:41:47.7Z</time>
      </trkpt>
      <trkpt lat="45.90834" lon="4.79362">
        <ele>184.5</ele>
        <time>2016-06-06T08:41:48.718Z</time>
      </trkpt>
      <trkpt lat="45.9083" lon="4.79368">
        <ele>184.199996948</ele>
        <time>2016-06-06T08:41:49.696Z</time>
      </trkpt>
      <trkpt lat="45.90825" lon="4.79373">
        <ele>184.199996948</ele>
        <time>2016-06-06T08:41:50.718Z</time>
      </trkpt>
      <trkpt lat="45.9082" lon="4.79379">
        <ele>184</ele>
        <time>2016-06-06T08:41:51.704Z</time>
      </trkpt>
      <trkpt lat="45.90815" lon="4.79384">
        <ele>184.100006104</ele>
        <time>2016-06-06T08:41:52.719Z</time>
      </trkpt>
      <trkpt lat="45.9081" lon="4.79389">
        <ele>183.899993896</ele>
        <time>2016-06-06T08:41:53.697Z</time>
      </trkpt>
      <trkpt lat="45.90804" lon="4.79395">
        <ele>183.800003052</ele>
        <time>2016-06-06T08:41:54.717Z</time>
      </trkpt>
      <trkpt lat="45.90799" lon="4.794">
        <ele>183.899993896</ele>
        <time>2016-06-06T08:41:55.706Z</time>
      </trkpt>
      <trkpt lat="45.90793" lon="4.79405">
        <ele>183.600006104</ele>
        <time>2016-06-06T08:41:56.734Z</time>
      </trkpt>
      <trkpt lat="45.90788" lon="4.7941">
        <ele>183.199996948</ele>
        <time>2016-06-06T08:41:57.724Z</time>
      </trkpt>
      <trkpt lat="45.90783" lon="4.79414">
        <ele>183</ele>
        <time>2016-06-06T08:41:58.721Z</time>
      </trkpt>
      <trkpt lat="45.90777" lon="4.79419">
        <ele>182.899993896</ele>
        <time>2016-06-06T08:41:59.696Z</time>
      </trkpt>
      <trkpt lat="45.90771" lon="4.79423">
        <ele>182.699996948</ele>
        <time>2016-06-06T08:42:00.775Z</time>
      </trkpt>
      <trkpt lat="45.90765" lon="4.79427">
        <ele>182.600006104</ele>
        <time>2016-06-06T08:42:01.714Z</time>
      </trkpt>
      <trkpt lat="45.90759" lon="4.79431">
        <ele>182.300003052</ele>
        <time>2016-06-06T08:42:02.732Z</time>
      </trkpt>
      <trkpt lat="45.90753" lon="4.79435">
        <ele>182</ele>
        <time>2016-06-06T08:42:03.698Z</time>
      </trkpt>
      <trkpt lat="45.90747" lon="4.79438">
        <ele>181.5</ele>
        <time>2016-06-06T08:42:04.721Z</time>
      </trkpt>
      <trkpt lat="45.90741" lon="4.79442">
        <ele>181.399993896</ele>
        <time>2016-06-06T08:42:05.704Z</time>
      </trkpt>
      <trkpt lat="45.90735" lon="4.79445">
        <ele>181.300003052</ele>
        <time>2016-06-06T08:42:06.738Z</time>
      </trkpt>
      <trkpt lat="45.90729" lon="4.79448">
        <ele>181.199996948</ele>
        <time>2016-06-06T08:42:07.699Z</time>
      </trkpt>
      <trkpt lat="45.90723" lon="4.79452">
        <ele>180.5</ele>
        <time>2016-06-06T08:42:08.718Z</time>
      </trkpt>
      <trkpt lat="45.90717" lon="4.79456">
        <ele>180.100006104</ele>
        <time>2016-06-06T08:42:09.698Z</time>
      </trkpt>
      <trkpt lat="45.9071" lon="4.7946">
        <ele>180</ele>
        <time>2016-06-06T08:42:10.721Z</time>
      </trkpt>
      <trkpt lat="45.90704" lon="4.79465">
        <ele>179.399993896</ele>
        <time>2016-06-06T08:42:11.699Z</time>
      </trkpt>
      <trkpt lat="45.90697" lon="4.79468">
        <ele>179.300003052</ele>
        <time>2016-06-06T08:42:12.727Z</time>
      </trkpt>
      <trkpt lat="45.90691" lon="4.79472">
        <ele>178.899993896</ele>
        <time>2016-06-06T08:42:13.699Z</time>
      </trkpt>
      <trkpt lat="45.90684" lon="4.79475">
        <ele>178.600006104</ele>
        <time>2016-06-06T08:42:14.72Z</time>
      </trkpt>
      <trkpt lat="45.90678" lon="4.79478">
        <ele>178.199996948</ele>
        <time>2016-06-06T08:42:15.712Z</time>
      </trkpt>
      <trkpt lat="45.90673" lon="4.79482">
        <ele>178.199996948</ele>
        <time>2016-06-06T08:42:16.718Z</time>
      </trkpt>
      <trkpt lat="45.90667" lon="4.79485">
        <ele>177.800003052</ele>
        <time>2016-06-06T08:42:17.703Z</time>
      </trkpt>
      <trkpt lat="45.90663" lon="4.79489">
        <ele>177.600006104</ele>
        <time>2016-06-06T08:42:18.719Z</time>
      </trkpt>
      <trkpt lat="45.90657" lon="4.79492">
        <ele>177.300003052</ele>
        <time>2016-06-06T08:42:19.696Z</time>
      </trkpt>
      <trkpt lat="45.90652" lon="4.79496">
        <ele>177</ele>
        <time>2016-06-06T08:42:20.718Z</time>
      </trkpt>
      <trkpt lat="45.90646" lon="4.79498">
        <ele>176.699996948</ele>
        <time>2016-06-06T08:42:21.698Z</time>
      </trkpt>
      <trkpt lat="45.90641" lon="4.79501">
        <ele>176.600006104</ele>
        <time>2016-06-06T08:42:22.735Z</time>
      </trkpt>
      <trkpt lat="45.90635" lon="4.79505">
        <ele>175.899993896</ele>
        <time>2016-06-06T08:42:23.7Z</time>
      </trkpt>
      <trkpt lat="45.90629" lon="4.79509">
        <ele>175.600006104</ele>
        <time>2016-06-06T08:42:24.717Z</time>
      </trkpt>
      <trkpt lat="45.90623" lon="4.79512">
        <ele>175.399993896</ele>
        <time>2016-06-06T08:42:25.696Z</time>
      </trkpt>
      <trkpt lat="45.90617" lon="4.79516">
        <ele>175.100006104</ele>
        <time>2016-06-06T08:42:26.722Z</time>
      </trkpt>
      <trkpt lat="45.90612" lon="4.7952">
        <ele>174.899993896</ele>
        <time>2016-06-06T08:42:27.698Z</time>
      </trkpt>
      <trkpt lat="45.90606" lon="4.79523">
        <ele>175.100006104</ele>
        <time>2016-06-06T08:42:28.721Z</time>
      </trkpt>
      <trkpt lat="45.90601" lon="4.79526">
        <ele>174.899993896</ele>
        <time>2016-06-06T08:42:29.699Z</time>
      </trkpt>
      <trkpt lat="45.90595" lon="4.79529">
        <ele>175</ele>
        <time>2016-06-06T08:42:30.745Z</time>
      </trkpt>
      <trkpt lat="45.9059" lon="4.79533">
        <ele>174.899993896</ele>
        <time>2016-06-06T08:42:31.699Z</time>
      </trkpt>
      <trkpt lat="45.90585" lon="4.79536">
        <ele>174.800003052</ele>
        <time>2016-06-06T08:42:32.728Z</time>
      </trkpt>
      <trkpt lat="45.90579" lon="4.79539">
        <ele>175</ele>
        <time>2016-06-06T08:42:33.698Z</time>
      </trkpt>
      <trkpt lat="45.90574" lon="4.79543">
        <ele>175.100006104</ele>
        <time>2016-06-06T08:42:34.717Z</time>
      </trkpt>
      <trkpt lat="45.90569" lon="4.79547">
        <ele>175.5</ele>
        <time>2016-06-06T08:42:35.7Z</time>
      </trkpt>
      <trkpt lat="45.90564" lon="4.79551">
        <ele>175.800003052</ele>
        <time>2016-06-06T08:42:36.718Z</time>
      </trkpt>
      <trkpt lat="45.90559" lon="4.79555">
        <ele>175.899993896</ele>
        <time>2016-06-06T08:42:37.696Z</time>
      </trkpt>
      <trkpt lat="45.90554" lon="4.79559">
        <ele>176</ele>
        <time>2016-06-06T08:42:38.721Z</time>
      </trkpt>
      <trkpt lat="45.90549" lon="4.79562">
        <ele>176.100006104</ele>
        <time>2016-06-06T08:42:39.698Z</time>
      </trkpt>
      <trkpt lat="45.90543" lon="4.79566">
        <ele>176.100006104</ele>
        <time>2016-06-06T08:42:40.721Z</time>
      </trkpt>
      <trkpt lat="45.90538" lon="4.7957">
        <ele>176.300003052</ele>
        <time>2016-06-06T08:42:41.699Z</time>
      </trkpt>
      <trkpt lat="45.90532" lon="4.79574">
        <ele>176.5</ele>
        <time>2016-06-06T08:42:42.722Z</time>
      </trkpt>
      <trkpt lat="45.90527" lon="4.79578">
        <ele>176.699996948</ele>
        <time>2016-06-06T08:42:43.74Z</time>
      </trkpt>
      <trkpt lat="45.90522" lon="4.79583">
        <ele>177.100006104</ele>
        <time>2016-06-06T08:42:44.722Z</time>
      </trkpt>
      <trkpt lat="45.90517" lon="4.79587">
        <ele>177.5</ele>
        <time>2016-06-06T08:42:45.699Z</time>
      </trkpt>
      <trkpt lat="45.90511" lon="4.79592">
        <ele>177.600006104</ele>
        <time>2016-06-06T08:42:46.718Z</time>
      </trkpt>
      <trkpt lat="45.90507" lon="4.79596">
        <ele>177.5</ele>
        <time>2016-06-06T08:42:47.697Z</time>
      </trkpt>
      <trkpt lat="45.90502" lon="4.79601">
        <ele>177.5</ele>
        <time>2016-06-06T08:42:48.718Z</time>
      </trkpt>
      <trkpt lat="45.90497" lon="4.79606">
        <ele>177.5</ele>
        <time>2016-06-06T08:42:49.696Z</time>
      </trkpt>
      <trkpt lat="45.90491" lon="4.79611">
        <ele>177.699996948</ele>
        <time>2016-06-06T08:42:50.764Z</time>
      </trkpt>
      <trkpt lat="45.90486" lon="4.79617">
        <ele>178</ele>
        <time>2016-06-06T08:42:51.701Z</time>
      </trkpt>
      <trkpt lat="45.90481" lon="4.79623">
        <ele>178.199996948</ele>
        <time>2016-06-06T08:42:52.718Z</time>
      </trkpt>
      <trkpt lat="45.90475" lon="4.79628">
        <ele>178.399993896</ele>
        <time>2016-06-06T08:42:53.696Z</time>
      </trkpt>
      <trkpt lat="45.9047" lon="4.79634">
        <ele>178.600006104</ele>
        <time>2016-06-06T08:42:54.734Z</time>
      </trkpt>
      <trkpt lat="45.90465" lon="4.79639">
        <ele>178.800003052</ele>
        <time>2016-06-06T08:42:55.696Z</time>
      </trkpt>
      <trkpt lat="45.90461" lon="4.79645">
        <ele>179</ele>
        <time>2016-06-06T08:42:56.717Z</time>
      </trkpt>
      <trkpt lat="45.90456" lon="4.7965">
        <ele>179.199996948</ele>
        <time>2016-06-06T08:42:57.703Z</time>
      </trkpt>
      <trkpt lat="45.90451" lon="4.79656">
        <ele>179.300003052</ele>
        <time>2016-06-06T08:42:58.718Z</time>
      </trkpt>
      <trkpt lat="45.90447" lon="4.79661">
        <ele>179.600006104</ele>
        <time>2016-06-06T08:42:59.697Z</time>
      </trkpt>
      <trkpt lat="45.90443" lon="4.79667">
        <ele>179.600006104</ele>
        <time>2016-06-06T08:43:00.745Z</time>
      </trkpt>
      <trkpt lat="45.90438" lon="4.79673">
        <ele>179.5</ele>
        <time>2016-06-06T08:43:01.699Z</time>
      </trkpt>
      <trkpt lat="45.90434" lon="4.79678">
        <ele>179.5</ele>
        <time>2016-06-06T08:43:02.725Z</time>
      </trkpt>
      <trkpt lat="45.90429" lon="4.79683">
        <ele>179.399993896</ele>
        <time>2016-06-06T08:43:03.698Z</time>
      </trkpt>
      <trkpt lat="45.90424" lon="4.79689">
        <ele>179.699996948</ele>
        <time>2016-06-06T08:43:04.757Z</time>
      </trkpt>
      <trkpt lat="45.9042" lon="4.79696">
        <ele>179.899993896</ele>
        <time>2016-06-06T08:43:05.7Z</time>
      </trkpt>
      <trkpt lat="45.90415" lon="4.79702">
        <ele>180.100006104</ele>
        <time>2016-06-06T08:43:06.721Z</time>
      </trkpt>
      <trkpt lat="45.9041" lon="4.79707">
        <ele>180</ele>
        <time>2016-06-06T08:43:07.695Z</time>
      </trkpt>
      <trkpt lat="45.90405" lon="4.79714">
        <ele>179.800003052</ele>
        <time>2016-06-06T08:43:08.721Z</time>
      </trkpt>
      <trkpt lat="45.904" lon="4.7972">
        <ele>179.600006104</ele>
        <time>2016-06-06T08:43:09.698Z</time>
      </trkpt>
      <trkpt lat="45.90395" lon="4.79727">
        <ele>179.5</ele>
        <time>2016-06-06T08:43:10.718Z</time>
      </trkpt>
      <trkpt lat="45.90389" lon="4.79733">
        <ele>179.399993896</ele>
        <time>2016-06-06T08:43:11.696Z</time>
      </trkpt>
      <trkpt lat="45.90384" lon="4.7974">
        <ele>179.300003052</ele>
        <time>2016-06-06T08:43:12.721Z</time>
      </trkpt>
      <trkpt lat="45.90379" lon="4.79747">
        <ele>179</ele>
        <time>2016-06-06T08:43:13.695Z</time>
      </trkpt>
      <trkpt lat="45.90374" lon="4.79753">
        <ele>179</ele>
        <time>2016-06-06T08:43:14.717Z</time>
      </trkpt>
      <trkpt lat="45.90368" lon="4.7976">
        <ele>178.800003052</ele>
        <time>2016-06-06T08:43:15.698Z</time>
      </trkpt>
      <trkpt lat="45.90364" lon="4.79766">
        <ele>178.899993896</ele>
        <time>2016-06-06T08:43:16.717Z</time>
      </trkpt>
      <trkpt lat="45.90359" lon="4.79772">
        <ele>178.800003052</ele>
        <time>2016-06-06T08:43:17.7Z</time>
      </trkpt>
      <trkpt lat="45.90354" lon="4.79778">
        <ele>178.800003052</ele>
        <time>2016-06-06T08:43:18.829Z</time>
      </trkpt>
      <trkpt lat="45.9035" lon="4.79784">
        <ele>178.800003052</ele>
        <time>2016-06-06T08:43:19.698Z</time>
      </trkpt>
      <trkpt lat="45.90345" lon="4.7979">
        <ele>178.800003052</ele>
        <time>2016-06-06T08:43:20.722Z</time>
      </trkpt>
      <trkpt lat="45.9034" lon="4.79796">
        <ele>178.899993896</ele>
        <time>2016-06-06T08:43:21.698Z</time>
      </trkpt>
      <trkpt lat="45.90335" lon="4.79802">
        <ele>178.899993896</ele>
        <time>2016-06-06T08:43:22.717Z</time>
      </trkpt>
      <trkpt lat="45.9033" lon="4.79809">
        <ele>178.699996948</ele>
        <time>2016-06-06T08:43:23.693Z</time>
      </trkpt>
      <trkpt lat="45.90325" lon="4.79815">
        <ele>178.699996948</ele>
        <time>2016-06-06T08:43:24.718Z</time>
      </trkpt>
      <trkpt lat="45.9032" lon="4.79821">
        <ele>178.5</ele>
        <time>2016-06-06T08:43:25.713Z</time>
      </trkpt>
      <trkpt lat="45.90316" lon="4.79827">
        <ele>178.399993896</ele>
        <time>2016-06-06T08:43:26.717Z</time>
      </trkpt>
      <trkpt lat="45.90311" lon="4.79833">
        <ele>178.399993896</ele>
        <time>2016-06-06T08:43:27.699Z</time>
      </trkpt>
      <trkpt lat="45.90307" lon="4.79839">
        <ele>178.300003052</ele>
        <time>2016-06-06T08:43:28.721Z</time>
      </trkpt>
      <trkpt lat="45.90302" lon="4.79845">
        <ele>178</ele>
        <time>2016-06-06T08:43:29.697Z</time>
      </trkpt>
      <trkpt lat="45.90298" lon="4.79851">
        <ele>178.199996948</ele>
        <time>2016-06-06T08:43:30.775Z</time>
      </trkpt>
      <trkpt lat="45.90293" lon="4.79857">
        <ele>178.399993896</ele>
        <time>2016-06-06T08:43:31.696Z</time>
      </trkpt>
      <trkpt lat="45.90288" lon="4.79862">
        <ele>178.5</ele>
        <time>2016-06-06T08:43:32.721Z</time>
      </trkpt>
      <trkpt lat="45.90283" lon="4.79868">
        <ele>178.5</ele>
        <time>2016-06-06T08:43:33.704Z</time>
      </trkpt>
      <trkpt lat="45.90277" lon="4.79874">
        <ele>178.199996948</ele>
        <time>2016-06-06T08:43:34.732Z</time>
      </trkpt>
      <trkpt lat="45.90272" lon="4.79879">
        <ele>177.899993896</ele>
        <time>2016-06-06T08:43:35.7Z</time>
      </trkpt>
      <trkpt lat="45.90266" lon="4.79884">
        <ele>177.800003052</ele>
        <time>2016-06-06T08:43:36.721Z</time>
      </trkpt>
      <trkpt lat="45.90261" lon="4.79889">
        <ele>177.399993896</ele>
        <time>2016-06-06T08:43:37.699Z</time>
      </trkpt>
      <trkpt lat="45.90255" lon="4.79894">
        <ele>176.800003052</ele>
        <time>2016-06-06T08:43:38.717Z</time>
      </trkpt>
      <trkpt lat="45.90249" lon="4.79898">
        <ele>176.699996948</ele>
        <time>2016-06-06T08:43:39.698Z</time>
      </trkpt>
      <trkpt lat="45.90243" lon="4.79903">
        <ele>176.300003052</ele>
        <time>2016-06-06T08:43:40.721Z</time>
      </trkpt>
      <trkpt lat="45.90238" lon="4.79906">
        <ele>176.199996948</ele>
        <time>2016-06-06T08:43:41.7Z</time>
      </trkpt>
      <trkpt lat="45.90233" lon="4.7991">
        <ele>176.5</ele>
        <time>2016-06-06T08:43:42.748Z</time>
      </trkpt>
      <trkpt lat="45.90227" lon="4.79913">
        <ele>176.600006104</ele>
        <time>2016-06-06T08:43:43.696Z</time>
      </trkpt>
      <trkpt lat="45.90222" lon="4.79915">
        <ele>176.600006104</ele>
        <time>2016-06-06T08:43:44.718Z</time>
      </trkpt>
      <trkpt lat="45.90217" lon="4.79918">
        <ele>176.699996948</ele>
        <time>2016-06-06T08:43:45.701Z</time>
      </trkpt>
      <trkpt lat="45.90212" lon="4.79921">
        <ele>177</ele>
        <time>2016-06-06T08:43:46.888Z</time>
      </trkpt>
      <trkpt lat="45.90206" lon="4.79924">
        <ele>177</ele>
        <time>2016-06-06T08:43:47.696Z</time>
      </trkpt>
      <trkpt lat="45.90201" lon="4.79927">
        <ele>177</ele>
        <time>2016-06-06T08:43:48.719Z</time>
      </trkpt>
      <trkpt lat="45.90196" lon="4.79929">
        <ele>177.5</ele>
        <time>2016-06-06T08:43:49.696Z</time>
      </trkpt>
      <trkpt lat="45.9019" lon="4.79931">
        <ele>177.300003052</ele>
        <time>2016-06-06T08:43:50.721Z</time>
      </trkpt>
      <trkpt lat="45.90185" lon="4.79934">
        <ele>177.5</ele>
        <time>2016-06-06T08:43:51.701Z</time>
      </trkpt>
      <trkpt lat="45.90179" lon="4.79936">
        <ele>177.600006104</ele>
        <time>2016-06-06T08:43:52.854Z</time>
      </trkpt>
      <trkpt lat="45.90173" lon="4.79938">
        <ele>177.899993896</ele>
        <time>2016-06-06T08:43:53.697Z</time>
      </trkpt>
      <trkpt lat="45.90166" lon="4.7994">
        <ele>177.899993896</ele>
        <time>2016-06-06T08:43:54.72Z</time>
      </trkpt>
      <trkpt lat="45.90161" lon="4.79942">
        <ele>177.699996948</ele>
        <time>2016-06-06T08:43:55.696Z</time>
      </trkpt>
      <trkpt lat="45.90155" lon="4.79945">
        <ele>177.5</ele>
        <time>2016-06-06T08:43:56.73Z</time>
      </trkpt>
      <trkpt lat="45.90149" lon="4.79947">
        <ele>177.5</ele>
        <time>2016-06-06T08:43:57.702Z</time>
      </trkpt>
      <trkpt lat="45.90143" lon="4.7995">
        <ele>177.5</ele>
        <time>2016-06-06T08:43:58.721Z</time>
      </trkpt>
      <trkpt lat="45.90137" lon="4.79952">
        <ele>177.699996948</ele>
        <time>2016-06-06T08:43:59.696Z</time>
      </trkpt>
      <trkpt lat="45.90131" lon="4.79954">
        <ele>177.600006104</ele>
        <time>2016-06-06T08:44:00.775Z</time>
      </trkpt>
      <trkpt lat="45.90124" lon="4.79957">
        <ele>176.899993896</ele>
        <time>2016-06-06T08:44:01.693Z</time>
      </trkpt>
      <trkpt lat="45.90118" lon="4.7996">
        <ele>176.899993896</ele>
        <time>2016-06-06T08:44:02.755Z</time>
      </trkpt>
      <trkpt lat="45.90112" lon="4.79962">
        <ele>176.899993896</ele>
        <time>2016-06-06T08:44:03.696Z</time>
      </trkpt>
      <trkpt lat="45.90105" lon="4.79965">
        <ele>176.899993896</ele>
        <time>2016-06-06T08:44:04.716Z</time>
      </trkpt>
      <trkpt lat="45.90099" lon="4.79967">
        <ele>176.199996948</ele>
        <time>2016-06-06T08:44:05.695Z</time>
      </trkpt>
      <trkpt lat="45.90092" lon="4.7997">
        <ele>176.300003052</ele>
        <time>2016-06-06T08:44:06.719Z</time>
      </trkpt>
      <trkpt lat="45.90086" lon="4.79973">
        <ele>176</ele>
        <time>2016-06-06T08:44:07.699Z</time>
      </trkpt>
      <trkpt lat="45.9008" lon="4.79976">
        <ele>176.100006104</ele>
        <time>2016-06-06T08:44:08.717Z</time>
      </trkpt>
      <trkpt lat="45.90074" lon="4.79979">
        <ele>176.199996948</ele>
        <time>2016-06-06T08:44:09.704Z</time>
      </trkpt>
      <trkpt lat="45.90068" lon="4.79983">
        <ele>176.399993896</ele>
        <time>2016-06-06T08:44:10.721Z</time>
      </trkpt>
      <trkpt lat="45.90062" lon="4.79986">
        <ele>176.199996948</ele>
        <time>2016-06-06T08:44:11.703Z</time>
      </trkpt>
      <trkpt lat="45.90055" lon="4.79988">
        <ele>175.800003052</ele>
        <time>2016-06-06T08:44:12.767Z</time>
      </trkpt>
      <trkpt lat="45.90049" lon="4.79991">
        <ele>175.600006104</ele>
        <time>2016-06-06T08:44:13.693Z</time>
      </trkpt>
      <trkpt lat="45.90043" lon="4.79993">
        <ele>175.399993896</ele>
        <time>2016-06-06T08:44:14.743Z</time>
      </trkpt>
      <trkpt lat="45.90036" lon="4.79996">
        <ele>174.800003052</ele>
        <time>2016-06-06T08:44:15.7Z</time>
      </trkpt>
      <trkpt lat="45.90029" lon="4.79999">
        <ele>174.5</ele>
        <time>2016-06-06T08:44:16.719Z</time>
      </trkpt>
      <trkpt lat="45.90023" lon="4.80002">
        <ele>174.199996948</ele>
        <time>2016-06-06T08:44:17.695Z</time>
      </trkpt>
      <trkpt lat="45.90016" lon="4.80004">
        <ele>173.800003052</ele>
        <time>2016-06-06T08:44:18.716Z</time>
      </trkpt>
      <trkpt lat="45.9001" lon="4.80007">
        <ele>173.800003052</ele>
        <time>2016-06-06T08:44:19.699Z</time>
      </trkpt>
      <trkpt lat="45.90004" lon="4.80009">
        <ele>173.699996948</ele>
        <time>2016-06-06T08:44:20.719Z</time>
      </trkpt>
      <trkpt lat="45.89998" lon="4.80012">
        <ele>173.699996948</ele>
        <time>2016-06-06T08:44:21.7Z</time>
      </trkpt>
      <trkpt lat="45.89992" lon="4.80014">
        <ele>173.800003052</ele>
        <time>2016-06-06T08:44:22.716Z</time>
      </trkpt>
      <trkpt lat="45.89986" lon="4.80016">
        <ele>173.899993896</ele>
        <time>2016-06-06T08:44:23.693Z</time>
      </trkpt>
      <trkpt lat="45.89981" lon="4.80019">
        <ele>173.899993896</ele>
        <time>2016-06-06T08:44:24.715Z</time>
      </trkpt>
      <trkpt lat="45.89975" lon="4.80021">
        <ele>173.899993896</ele>
        <time>2016-06-06T08:44:25.693Z</time>
      </trkpt>
      <trkpt lat="45.89969" lon="4.80024">
        <ele>174.100006104</ele>
        <time>2016-06-06T08:44:26.719Z</time>
      </trkpt>
      <trkpt lat="45.89963" lon="4.80027">
        <ele>174.199996948</ele>
        <time>2016-06-06T08:44:27.696Z</time>
      </trkpt>
      <trkpt lat="45.89957" lon="4.80029">
        <ele>174.699996948</ele>
        <time>2016-06-06T08:44:28.758Z</time>
      </trkpt>
      <trkpt lat="45.89951" lon="4.80032">
        <ele>175.199996948</ele>
        <time>2016-06-06T08:44:29.695Z</time>
      </trkpt>
      <trkpt lat="45.89944" lon="4.80035">
        <ele>175.199996948</ele>
        <time>2016-06-06T08:44:30.769Z</time>
      </trkpt>
      <trkpt lat="45.89938" lon="4.80037">
        <ele>175.600006104</ele>
        <time>2016-06-06T08:44:31.696Z</time>
      </trkpt>
      <trkpt lat="45.89931" lon="4.8004">
        <ele>175.699996948</ele>
        <time>2016-06-06T08:44:32.719Z</time>
      </trkpt>
      <trkpt lat="45.89925" lon="4.80043">
        <ele>175.600006104</ele>
        <time>2016-06-06T08:44:33.697Z</time>
      </trkpt>
      <trkpt lat="45.89919" lon="4.80046">
        <ele>175.399993896</ele>
        <time>2016-06-06T08:44:34.715Z</time>
      </trkpt>
      <trkpt lat="45.89912" lon="4.80049">
        <ele>175.600006104</ele>
        <time>2016-06-06T08:44:35.694Z</time>
      </trkpt>
      <trkpt lat="45.89906" lon="4.80051">
        <ele>175.5</ele>
        <time>2016-06-06T08:44:36.838Z</time>
      </trkpt>
      <trkpt lat="45.89899" lon="4.80054">
        <ele>175.399993896</ele>
        <time>2016-06-06T08:44:37.696Z</time>
      </trkpt>
      <trkpt lat="45.89892" lon="4.80057">
        <ele>175.399993896</ele>
        <time>2016-06-06T08:44:38.724Z</time>
      </trkpt>
      <trkpt lat="45.89886" lon="4.8006">
        <ele>175.300003052</ele>
        <time>2016-06-06T08:44:39.7Z</time>
      </trkpt>
      <trkpt lat="45.8988" lon="4.80063">
        <ele>175.300003052</ele>
        <time>2016-06-06T08:44:40.719Z</time>
      </trkpt>
      <trkpt lat="45.89873" lon="4.80066">
        <ele>175.199996948</ele>
        <time>2016-06-06T08:44:41.735Z</time>
      </trkpt>
      <trkpt lat="45.89866" lon="4.80068">
        <ele>175.199996948</ele>
        <time>2016-06-06T08:44:42.716Z</time>
      </trkpt>
      <trkpt lat="45.8986" lon="4.80071">
        <ele>175.199996948</ele>
        <time>2016-06-06T08:44:43.699Z</time>
      </trkpt>
      <trkpt lat="45.89853" lon="4.80074">
        <ele>175.100006104</ele>
        <time>2016-06-06T08:44:44.734Z</time>
      </trkpt>
      <trkpt lat="45.89847" lon="4.80076">
        <ele>175</ele>
        <time>2016-06-06T08:44:45.696Z</time>
      </trkpt>
      <trkpt lat="45.8984" lon="4.80079">
        <ele>175</ele>
        <time>2016-06-06T08:44:46.716Z</time>
      </trkpt>
      <trkpt lat="45.89833" lon="4.80081">
        <ele>175</ele>
        <time>2016-06-06T08:44:47.822Z</time>
      </trkpt>
      <trkpt lat="45.89827" lon="4.80083">
        <ele>175.300003052</ele>
        <time>2016-06-06T08:44:48.723Z</time>
      </trkpt>
      <trkpt lat="45.8982" lon="4.80086">
        <ele>175</ele>
        <time>2016-06-06T08:44:49.699Z</time>
      </trkpt>
      <trkpt lat="45.89814" lon="4.80089">
        <ele>174.800003052</ele>
        <time>2016-06-06T08:44:50.716Z</time>
      </trkpt>
      <trkpt lat="45.89808" lon="4.80092">
        <ele>174.800003052</ele>
        <time>2016-06-06T08:44:51.7Z</time>
      </trkpt>
      <trkpt lat="45.89802" lon="4.80095">
        <ele>174.899993896</ele>
        <time>2016-06-06T08:44:52.715Z</time>
      </trkpt>
      <trkpt lat="45.89796" lon="4.80097">
        <ele>175.100006104</ele>
        <time>2016-06-06T08:44:53.694Z</time>
      </trkpt>
      <trkpt lat="45.89791" lon="4.80099">
        <ele>175.199996948</ele>
        <time>2016-06-06T08:44:54.715Z</time>
      </trkpt>
      <trkpt lat="45.89785" lon="4.80102">
        <ele>175.899993896</ele>
        <time>2016-06-06T08:44:55.693Z</time>
      </trkpt>
      <trkpt lat="45.89779" lon="4.80104">
        <ele>176.100006104</ele>
        <time>2016-06-06T08:44:56.716Z</time>
      </trkpt>
      <trkpt lat="45.89773" lon="4.80106">
        <ele>176.600006104</ele>
        <time>2016-06-06T08:44:57.696Z</time>
      </trkpt>
      <trkpt lat="45.89767" lon="4.80109">
        <ele>176.800003052</ele>
        <time>2016-06-06T08:44:58.852Z</time>
      </trkpt>
      <trkpt lat="45.89761" lon="4.80112">
        <ele>176.800003052</ele>
        <time>2016-06-06T08:44:59.695Z</time>
      </trkpt>
      <trkpt lat="45.89755" lon="4.80115">
        <ele>177</ele>
        <time>2016-06-06T08:45:00.774Z</time>
      </trkpt>
      <trkpt lat="45.89749" lon="4.80117">
        <ele>176.899993896</ele>
        <time>2016-06-06T08:45:01.695Z</time>
      </trkpt>
      <trkpt lat="45.89743" lon="4.80119">
        <ele>176.800003052</ele>
        <time>2016-06-06T08:45:02.716Z</time>
      </trkpt>
      <trkpt lat="45.89738" lon="4.80121">
        <ele>176.899993896</ele>
        <time>2016-06-06T08:45:03.696Z</time>
      </trkpt>
      <trkpt lat="45.89732" lon="4.80124">
        <ele>177</ele>
        <time>2016-06-06T08:45:04.716Z</time>
      </trkpt>
      <trkpt lat="45.89726" lon="4.80127">
        <ele>177</ele>
        <time>2016-06-06T08:45:05.698Z</time>
      </trkpt>
      <trkpt lat="45.89721" lon="4.80129">
        <ele>177.199996948</ele>
        <time>2016-06-06T08:45:06.719Z</time>
      </trkpt>
      <trkpt lat="45.89715" lon="4.80132">
        <ele>177.399993896</ele>
        <time>2016-06-06T08:45:07.699Z</time>
      </trkpt>
      <trkpt lat="45.89709" lon="4.80134">
        <ele>177.399993896</ele>
        <time>2016-06-06T08:45:08.719Z</time>
      </trkpt>
      <trkpt lat="45.89703" lon="4.80136">
        <ele>177.399993896</ele>
        <time>2016-06-06T08:45:09.696Z</time>
      </trkpt>
      <trkpt lat="45.89697" lon="4.80138">
        <ele>177.399993896</ele>
        <time>2016-06-06T08:45:10.72Z</time>
      </trkpt>
      <trkpt lat="45.89692" lon="4.80141">
        <ele>177.399993896</ele>
        <time>2016-06-06T08:45:11.695Z</time>
      </trkpt>
      <trkpt lat="45.89686" lon="4.80144">
        <ele>177.399993896</ele>
        <time>2016-06-06T08:45:12.715Z</time>
      </trkpt>
      <trkpt lat="45.8968" lon="4.80146">
        <ele>177.600006104</ele>
        <time>2016-06-06T08:45:13.699Z</time>
      </trkpt>
      <trkpt lat="45.89675" lon="4.80149">
        <ele>177.5</ele>
        <time>2016-06-06T08:45:14.747Z</time>
      </trkpt>
      <trkpt lat="45.8967" lon="4.80152">
        <ele>177.699996948</ele>
        <time>2016-06-06T08:45:15.699Z</time>
      </trkpt>
      <trkpt lat="45.89664" lon="4.80155">
        <ele>177.800003052</ele>
        <time>2016-06-06T08:45:16.733Z</time>
      </trkpt>
      <trkpt lat="45.89659" lon="4.80157">
        <ele>178</ele>
        <time>2016-06-06T08:45:17.698Z</time>
      </trkpt>
      <trkpt lat="45.89652" lon="4.8016">
        <ele>178.100006104</ele>
        <time>2016-06-06T08:45:18.718Z</time>
      </trkpt>
      <trkpt lat="45.89646" lon="4.80163">
        <ele>177.699996948</ele>
        <time>2016-06-06T08:45:19.699Z</time>
      </trkpt>
      <trkpt lat="45.8964" lon="4.80166">
        <ele>177.699996948</ele>
        <time>2016-06-06T08:45:20.719Z</time>
      </trkpt>
      <trkpt lat="45.89633" lon="4.80168">
        <ele>178.100006104</ele>
        <time>2016-06-06T08:45:21.716Z</time>
      </trkpt>
      <trkpt lat="45.89626" lon="4.80171">
        <ele>178.199996948</ele>
        <time>2016-06-06T08:45:22.718Z</time>
      </trkpt>
      <trkpt lat="45.89619" lon="4.80173">
        <ele>178.100006104</ele>
        <time>2016-06-06T08:45:23.7Z</time>
      </trkpt>
      <trkpt lat="45.89612" lon="4.80176">
        <ele>178.199996948</ele>
        <time>2016-06-06T08:45:24.716Z</time>
      </trkpt>
      <trkpt lat="45.89606" lon="4.80177">
        <ele>178.100006104</ele>
        <time>2016-06-06T08:45:25.694Z</time>
      </trkpt>
      <trkpt lat="45.896" lon="4.8018">
        <ele>178.399993896</ele>
        <time>2016-06-06T08:45:26.746Z</time>
      </trkpt>
      <trkpt lat="45.89594" lon="4.80182">
        <ele>178.5</ele>
        <time>2016-06-06T08:45:27.701Z</time>
      </trkpt>
      <trkpt lat="45.89588" lon="4.80185">
        <ele>178.600006104</ele>
        <time>2016-06-06T08:45:28.719Z</time>
      </trkpt>
      <trkpt lat="45.89582" lon="4.80187">
        <ele>178.300003052</ele>
        <time>2016-06-06T08:45:29.7Z</time>
      </trkpt>
      <trkpt lat="45.89576" lon="4.80191">
        <ele>177.800003052</ele>
        <time>2016-06-06T08:45:30.921Z</time>
      </trkpt>
      <trkpt lat="45.8957" lon="4.80193">
        <ele>177.600006104</ele>
        <time>2016-06-06T08:45:31.695Z</time>
      </trkpt>
      <trkpt lat="45.89564" lon="4.80196">
        <ele>177.399993896</ele>
        <time>2016-06-06T08:45:32.719Z</time>
      </trkpt>
      <trkpt lat="45.89557" lon="4.80199">
        <ele>177.300003052</ele>
        <time>2016-06-06T08:45:33.702Z</time>
      </trkpt>
      <trkpt lat="45.89552" lon="4.80203">
        <ele>177.300003052</ele>
        <time>2016-06-06T08:45:34.718Z</time>
      </trkpt>
      <trkpt lat="45.89546" lon="4.80206">
        <ele>177.199996948</ele>
        <time>2016-06-06T08:45:35.7Z</time>
      </trkpt>
      <trkpt lat="45.89539" lon="4.80209">
        <ele>177</ele>
        <time>2016-06-06T08:45:36.733Z</time>
      </trkpt>
      <trkpt lat="45.89533" lon="4.80212">
        <ele>176.699996948</ele>
        <time>2016-06-06T08:45:37.699Z</time>
      </trkpt>
      <trkpt lat="45.89526" lon="4.80216">
        <ele>176.399993896</ele>
        <time>2016-06-06T08:45:38.715Z</time>
      </trkpt>
      <trkpt lat="45.8952" lon="4.80218">
        <ele>176</ele>
        <time>2016-06-06T08:45:39.695Z</time>
      </trkpt>
      <trkpt lat="45.89513" lon="4.80221">
        <ele>175.600006104</ele>
        <time>2016-06-06T08:45:40.722Z</time>
      </trkpt>
      <trkpt lat="45.89507" lon="4.80222">
        <ele>175.300003052</ele>
        <time>2016-06-06T08:45:41.695Z</time>
      </trkpt>
      <trkpt lat="45.89501" lon="4.80225">
        <ele>175.199996948</ele>
        <time>2016-06-06T08:45:42.871Z</time>
      </trkpt>
      <trkpt lat="45.89495" lon="4.80227">
        <ele>175.199996948</ele>
        <time>2016-06-06T08:45:43.699Z</time>
      </trkpt>
      <trkpt lat="45.89488" lon="4.8023">
        <ele>175.100006104</ele>
        <time>2016-06-06T08:45:44.716Z</time>
      </trkpt>
      <trkpt lat="45.89482" lon="4.80233">
        <ele>175.100006104</ele>
        <time>2016-06-06T08:45:45.723Z</time>
      </trkpt>
      <trkpt lat="45.89476" lon="4.80236">
        <ele>175</ele>
        <time>2016-06-06T08:45:46.716Z</time>
      </trkpt>
      <trkpt lat="45.8947" lon="4.80239">
        <ele>175</ele>
        <time>2016-06-06T08:45:47.7Z</time>
      </trkpt>
      <trkpt lat="45.89463" lon="4.80242">
        <ele>175</ele>
        <time>2016-06-06T08:45:48.715Z</time>
      </trkpt>
      <trkpt lat="45.89457" lon="4.80245">
        <ele>175</ele>
        <time>2016-06-06T08:45:49.698Z</time>
      </trkpt>
      <trkpt lat="45.8945" lon="4.80248">
        <ele>174.899993896</ele>
        <time>2016-06-06T08:45:50.716Z</time>
      </trkpt>
      <trkpt lat="45.89444" lon="4.80251">
        <ele>175.199996948</ele>
        <time>2016-06-06T08:45:51.699Z</time>
      </trkpt>
      <trkpt lat="45.89438" lon="4.80254">
        <ele>175.399993896</ele>
        <time>2016-06-06T08:45:52.715Z</time>
      </trkpt>
      <trkpt lat="45.89432" lon="4.80257">
        <ele>175.600006104</ele>
        <time>2016-06-06T08:45:53.7Z</time>
      </trkpt>
      <trkpt lat="45.89426" lon="4.8026">
        <ele>175.300003052</ele>
        <time>2016-06-06T08:45:54.718Z</time>
      </trkpt>
      <trkpt lat="45.8942" lon="4.80264">
        <ele>175.399993896</ele>
        <time>2016-06-06T08:45:55.699Z</time>
      </trkpt>
      <trkpt lat="45.89414" lon="4.80267">
        <ele>175.399993896</ele>
        <time>2016-06-06T08:45:56.715Z</time>
      </trkpt>
      <trkpt lat="45.89408" lon="4.80273">
        <ele>175.699996948</ele>
        <time>2016-06-06T08:45:57.697Z</time>
      </trkpt>
      <trkpt lat="45.89402" lon="4.80276">
        <ele>175.699996948</ele>
        <time>2016-06-06T08:45:58.715Z</time>
      </trkpt>
      <trkpt lat="45.89396" lon="4.8028">
        <ele>175.899993896</ele>
        <time>2016-06-06T08:45:59.696Z</time>
      </trkpt>
      <trkpt lat="45.89389" lon="4.80284">
        <ele>175.800003052</ele>
        <time>2016-06-06T08:46:00.719Z</time>
      </trkpt>
      <trkpt lat="45.89384" lon="4.80288">
        <ele>175.600006104</ele>
        <time>2016-06-06T08:46:01.698Z</time>
      </trkpt>
      <trkpt lat="45.89378" lon="4.80293">
        <ele>175.600006104</ele>
        <time>2016-06-06T08:46:02.715Z</time>
      </trkpt>
      <trkpt lat="45.89372" lon="4.80297">
        <ele>175.699996948</ele>
        <time>2016-06-06T08:46:03.712Z</time>
      </trkpt>
      <trkpt lat="45.89366" lon="4.80301">
        <ele>175.699996948</ele>
        <time>2016-06-06T08:46:04.715Z</time>
      </trkpt>
      <trkpt lat="45.89361" lon="4.80305">
        <ele>175.800003052</ele>
        <time>2016-06-06T08:46:05.697Z</time>
      </trkpt>
      <trkpt lat="45.89355" lon="4.8031">
        <ele>175.800003052</ele>
        <time>2016-06-06T08:46:06.722Z</time>
      </trkpt>
      <trkpt lat="45.89349" lon="4.80315">
        <ele>175.800003052</ele>
        <time>2016-06-06T08:46:07.694Z</time>
      </trkpt>
      <trkpt lat="45.89343" lon="4.8032">
        <ele>175.600006104</ele>
        <time>2016-06-06T08:46:08.73Z</time>
      </trkpt>
      <trkpt lat="45.89338" lon="4.80324">
        <ele>175.199996948</ele>
        <time>2016-06-06T08:46:09.7Z</time>
      </trkpt>
      <trkpt lat="45.89332" lon="4.80329">
        <ele>174.899993896</ele>
        <time>2016-06-06T08:46:10.715Z</time>
      </trkpt>
      <trkpt lat="45.89327" lon="4.80334">
        <ele>175.100006104</ele>
        <time>2016-06-06T08:46:11.695Z</time>
      </trkpt>
      <trkpt lat="45.89321" lon="4.80339">
        <ele>175</ele>
        <time>2016-06-06T08:46:12.718Z</time>
      </trkpt>
      <trkpt lat="45.89316" lon="4.80344">
        <ele>174.899993896</ele>
        <time>2016-06-06T08:46:13.698Z</time>
      </trkpt>
      <trkpt lat="45.89311" lon="4.80348">
        <ele>174.800003052</ele>
        <time>2016-06-06T08:46:14.728Z</time>
      </trkpt>
      <trkpt lat="45.89305" lon="4.80354">
        <ele>174.800003052</ele>
        <time>2016-06-06T08:46:15.697Z</time>
      </trkpt>
      <trkpt lat="45.89299" lon="4.80359">
        <ele>174.699996948</ele>
        <time>2016-06-06T08:46:16.714Z</time>
      </trkpt>
      <trkpt lat="45.89292" lon="4.80364">
        <ele>174.600006104</ele>
        <time>2016-06-06T08:46:17.7Z</time>
      </trkpt>
      <trkpt lat="45.89287" lon="4.80369">
        <ele>174.800003052</ele>
        <time>2016-06-06T08:46:18.757Z</time>
      </trkpt>
      <trkpt lat="45.89281" lon="4.80373">
        <ele>175</ele>
        <time>2016-06-06T08:46:19.698Z</time>
      </trkpt>
      <trkpt lat="45.89275" lon="4.80378">
        <ele>175</ele>
        <time>2016-06-06T08:46:20.718Z</time>
      </trkpt>
      <trkpt lat="45.8927" lon="4.80383">
        <ele>175</ele>
        <time>2016-06-06T08:46:21.696Z</time>
      </trkpt>
      <trkpt lat="45.89265" lon="4.80388">
        <ele>174.800003052</ele>
        <time>2016-06-06T08:46:22.719Z</time>
      </trkpt>
      <trkpt lat="45.8926" lon="4.80393">
        <ele>174.699996948</ele>
        <time>2016-06-06T08:46:23.699Z</time>
      </trkpt>
      <trkpt lat="45.89255" lon="4.80398">
        <ele>174.5</ele>
        <time>2016-06-06T08:46:24.73Z</time>
      </trkpt>
      <trkpt lat="45.8925" lon="4.80402">
        <ele>174</ele>
        <time>2016-06-06T08:46:25.699Z</time>
      </trkpt>
      <trkpt lat="45.89244" lon="4.80408">
        <ele>173.899993896</ele>
        <time>2016-06-06T08:46:26.841Z</time>
      </trkpt>
      <trkpt lat="45.89239" lon="4.80414">
        <ele>173.699996948</ele>
        <time>2016-06-06T08:46:27.7Z</time>
      </trkpt>
      <trkpt lat="45.89233" lon="4.80419">
        <ele>173.699996948</ele>
        <time>2016-06-06T08:46:28.715Z</time>
      </trkpt>
      <trkpt lat="45.89227" lon="4.80424">
        <ele>173.899993896</ele>
        <time>2016-06-06T08:46:29.7Z</time>
      </trkpt>
      <trkpt lat="45.89222" lon="4.80429">
        <ele>173.699996948</ele>
        <time>2016-06-06T08:46:30.715Z</time>
      </trkpt>
      <trkpt lat="45.89217" lon="4.80434">
        <ele>173.399993896</ele>
        <time>2016-06-06T08:46:31.719Z</time>
      </trkpt>
      <trkpt lat="45.89211" lon="4.80439">
        <ele>173.199996948</ele>
        <time>2016-06-06T08:46:32.719Z</time>
      </trkpt>
      <trkpt lat="45.89207" lon="4.80444">
        <ele>173.300003052</ele>
        <time>2016-06-06T08:46:33.7Z</time>
      </trkpt>
      <trkpt lat="45.89201" lon="4.80448">
        <ele>173.199996948</ele>
        <time>2016-06-06T08:46:34.719Z</time>
      </trkpt>
      <trkpt lat="45.89196" lon="4.80453">
        <ele>173.100006104</ele>
        <time>2016-06-06T08:46:35.7Z</time>
      </trkpt>
      <trkpt lat="45.89191" lon="4.80458">
        <ele>172.899993896</ele>
        <time>2016-06-06T08:46:36.736Z</time>
      </trkpt>
      <trkpt lat="45.89186" lon="4.80463">
        <ele>172.699996948</ele>
        <time>2016-06-06T08:46:37.716Z</time>
      </trkpt>
      <trkpt lat="45.89181" lon="4.80468">
        <ele>172.699996948</ele>
        <time>2016-06-06T08:46:38.715Z</time>
      </trkpt>
      <trkpt lat="45.89175" lon="4.80473">
        <ele>172.5</ele>
        <time>2016-06-06T08:46:39.701Z</time>
      </trkpt>
      <trkpt lat="45.8917" lon="4.80477">
        <ele>172.5</ele>
        <time>2016-06-06T08:46:40.715Z</time>
      </trkpt>
      <trkpt lat="45.89164" lon="4.80482">
        <ele>172.399993896</ele>
        <time>2016-06-06T08:46:41.695Z</time>
      </trkpt>
      <trkpt lat="45.89159" lon="4.80485">
        <ele>171.699996948</ele>
        <time>2016-06-06T08:46:42.716Z</time>
      </trkpt>
      <trkpt lat="45.89154" lon="4.80489">
        <ele>171.600006104</ele>
        <time>2016-06-06T08:46:43.697Z</time>
      </trkpt>
      <trkpt lat="45.89148" lon="4.80492">
        <ele>171.5</ele>
        <time>2016-06-06T08:46:44.715Z</time>
      </trkpt>
      <trkpt lat="45.89143" lon="4.80496">
        <ele>171.300003052</ele>
        <time>2016-06-06T08:46:45.701Z</time>
      </trkpt>
      <trkpt lat="45.89136" lon="4.80499">
        <ele>171.300003052</ele>
        <time>2016-06-06T08:46:46.735Z</time>
      </trkpt>
      <trkpt lat="45.8913" lon="4.80503">
        <ele>171.399993896</ele>
        <time>2016-06-06T08:46:47.694Z</time>
      </trkpt>
      <trkpt lat="45.89124" lon="4.80505">
        <ele>171.100006104</ele>
        <time>2016-06-06T08:46:48.715Z</time>
      </trkpt>
      <trkpt lat="45.89118" lon="4.80508">
        <ele>170.699996948</ele>
        <time>2016-06-06T08:46:49.693Z</time>
      </trkpt>
      <trkpt lat="45.89112" lon="4.80511">
        <ele>170.699996948</ele>
        <time>2016-06-06T08:46:50.731Z</time>
      </trkpt>
      <trkpt lat="45.89106" lon="4.80514">
        <ele>170.699996948</ele>
        <time>2016-06-06T08:46:51.699Z</time>
      </trkpt>
      <trkpt lat="45.891" lon="4.80516">
        <ele>170.600006104</ele>
        <time>2016-06-06T08:46:52.715Z</time>
      </trkpt>
      <trkpt lat="45.89094" lon="4.80518">
        <ele>170</ele>
        <time>2016-06-06T08:46:53.695Z</time>
      </trkpt>
      <trkpt lat="45.89088" lon="4.8052">
        <ele>169.300003052</ele>
        <time>2016-06-06T08:46:54.715Z</time>
      </trkpt>
      <trkpt lat="45.89081" lon="4.80522">
        <ele>168.800003052</ele>
        <time>2016-06-06T08:46:55.693Z</time>
      </trkpt>
      <trkpt lat="45.89075" lon="4.80525">
        <ele>168.699996948</ele>
        <time>2016-06-06T08:46:56.719Z</time>
      </trkpt>
      <trkpt lat="45.89068" lon="4.80527">
        <ele>168.600006104</ele>
        <time>2016-06-06T08:46:57.7Z</time>
      </trkpt>
      <trkpt lat="45.89061" lon="4.80528">
        <ele>168.699996948</ele>
        <time>2016-06-06T08:46:58.718Z</time>
      </trkpt>
      <trkpt lat="45.89055" lon="4.8053">
        <ele>168.699996948</ele>
        <time>2016-06-06T08:46:59.696Z</time>
      </trkpt>
      <trkpt lat="45.89048" lon="4.80532">
        <ele>169.100006104</ele>
        <time>2016-06-06T08:47:00.948Z</time>
      </trkpt>
      <trkpt lat="45.89042" lon="4.80534">
        <ele>169.5</ele>
        <time>2016-06-06T08:47:01.699Z</time>
      </trkpt>
      <trkpt lat="45.89036" lon="4.80536">
        <ele>169.699996948</ele>
        <time>2016-06-06T08:47:02.726Z</time>
      </trkpt>
      <trkpt lat="45.8903" lon="4.80538">
        <ele>169.899993896</ele>
        <time>2016-06-06T08:47:03.739Z</time>
      </trkpt>
      <trkpt lat="45.89023" lon="4.80541">
        <ele>170</ele>
        <time>2016-06-06T08:47:04.716Z</time>
      </trkpt>
      <trkpt lat="45.89017" lon="4.80543">
        <ele>170.300003052</ele>
        <time>2016-06-06T08:47:05.7Z</time>
      </trkpt>
      <trkpt lat="45.89011" lon="4.80545">
        <ele>170.5</ele>
        <time>2016-06-06T08:47:06.719Z</time>
      </trkpt>
      <trkpt lat="45.89005" lon="4.80547">
        <ele>170.699996948</ele>
        <time>2016-06-06T08:47:07.692Z</time>
      </trkpt>
      <trkpt lat="45.89" lon="4.80549">
        <ele>171.600006104</ele>
        <time>2016-06-06T08:47:08.718Z</time>
      </trkpt>
      <trkpt lat="45.88995" lon="4.80551">
        <ele>172.100006104</ele>
        <time>2016-06-06T08:47:09.7Z</time>
      </trkpt>
      <trkpt lat="45.88989" lon="4.80553">
        <ele>172.5</ele>
        <time>2016-06-06T08:47:10.756Z</time>
      </trkpt>
      <trkpt lat="45.88983" lon="4.80554">
        <ele>172.699996948</ele>
        <time>2016-06-06T08:47:11.712Z</time>
      </trkpt>
      <trkpt lat="45.88977" lon="4.80556">
        <ele>172.899993896</ele>
        <time>2016-06-06T08:47:12.719Z</time>
      </trkpt>
      <trkpt lat="45.88972" lon="4.80558">
        <ele>173.5</ele>
        <time>2016-06-06T08:47:13.693Z</time>
      </trkpt>
      <trkpt lat="45.88966" lon="4.80559">
        <ele>173.5</ele>
        <time>2016-06-06T08:47:14.715Z</time>
      </trkpt>
      <trkpt lat="45.8896" lon="4.8056">
        <ele>173.600006104</ele>
        <time>2016-06-06T08:47:15.697Z</time>
      </trkpt>
      <trkpt lat="45.88955" lon="4.8056">
        <ele>173.800003052</ele>
        <time>2016-06-06T08:47:16.756Z</time>
      </trkpt>
      <trkpt lat="45.88949" lon="4.80559">
        <ele>173.399993896</ele>
        <time>2016-06-06T08:47:17.721Z</time>
      </trkpt>
      <trkpt lat="45.88944" lon="4.80559">
        <ele>173.399993896</ele>
        <time>2016-06-06T08:47:18.718Z</time>
      </trkpt>
      <trkpt lat="45.88939" lon="4.80561">
        <ele>173.600006104</ele>
        <time>2016-06-06T08:47:19.698Z</time>
      </trkpt>
      <trkpt lat="45.88934" lon="4.80565">
        <ele>173.399993896</ele>
        <time>2016-06-06T08:47:20.715Z</time>
      </trkpt>
      <trkpt lat="45.8893" lon="4.8057">
        <ele>173.5</ele>
        <time>2016-06-06T08:47:21.697Z</time>
      </trkpt>
      <trkpt lat="45.88926" lon="4.80576">
        <ele>173.399993896</ele>
        <time>2016-06-06T08:47:22.715Z</time>
      </trkpt>
      <trkpt lat="45.88921" lon="4.80581">
        <ele>173.600006104</ele>
        <time>2016-06-06T08:47:23.695Z</time>
      </trkpt>
      <trkpt lat="45.88916" lon="4.80585">
        <ele>173.699996948</ele>
        <time>2016-06-06T08:47:24.72Z</time>
      </trkpt>
      <trkpt lat="45.88911" lon="4.8059">
        <ele>173.800003052</ele>
        <time>2016-06-06T08:47:25.693Z</time>
      </trkpt>
      <trkpt lat="45.88906" lon="4.80595">
        <ele>173.899993896</ele>
        <time>2016-06-06T08:47:26.719Z</time>
      </trkpt>
      <trkpt lat="45.88901" lon="4.80599">
        <ele>174.100006104</ele>
        <time>2016-06-06T08:47:27.7Z</time>
      </trkpt>
      <trkpt lat="45.88895" lon="4.80602">
        <ele>173.899993896</ele>
        <time>2016-06-06T08:47:28.718Z</time>
      </trkpt>
      <trkpt lat="45.88889" lon="4.80606">
        <ele>173.899993896</ele>
        <time>2016-06-06T08:47:29.699Z</time>
      </trkpt>
      <trkpt lat="45.88883" lon="4.80609">
        <ele>174.100006104</ele>
        <time>2016-06-06T08:47:30.746Z</time>
      </trkpt>
      <trkpt lat="45.88877" lon="4.80613">
        <ele>174.199996948</ele>
        <time>2016-06-06T08:47:31.695Z</time>
      </trkpt>
      <trkpt lat="45.88871" lon="4.80617">
        <ele>174.300003052</ele>
        <time>2016-06-06T08:47:32.735Z</time>
      </trkpt>
      <trkpt lat="45.88865" lon="4.80622">
        <ele>174.199996948</ele>
        <time>2016-06-06T08:47:33.697Z</time>
      </trkpt>
      <trkpt lat="45.88859" lon="4.80627">
        <ele>173.899993896</ele>
        <time>2016-06-06T08:47:34.715Z</time>
      </trkpt>
      <trkpt lat="45.88853" lon="4.80631">
        <ele>173.800003052</ele>
        <time>2016-06-06T08:47:35.695Z</time>
      </trkpt>
      <trkpt lat="45.88847" lon="4.80636">
        <ele>173.800003052</ele>
        <time>2016-06-06T08:47:36.718Z</time>
      </trkpt>
      <trkpt lat="45.88842" lon="4.80641">
        <ele>173.800003052</ele>
        <time>2016-06-06T08:47:37.698Z</time>
      </trkpt>
      <trkpt lat="45.88836" lon="4.80646">
        <ele>173.600006104</ele>
        <time>2016-06-06T08:47:38.719Z</time>
      </trkpt>
      <trkpt lat="45.88831" lon="4.8065">
        <ele>173.600006104</ele>
        <time>2016-06-06T08:47:39.7Z</time>
      </trkpt>
      <trkpt lat="45.88825" lon="4.80656">
        <ele>173.399993896</ele>
        <time>2016-06-06T08:47:40.718Z</time>
      </trkpt>
      <trkpt lat="45.8882" lon="4.80661">
        <ele>173</ele>
        <time>2016-06-06T08:47:41.7Z</time>
      </trkpt>
      <trkpt lat="45.88815" lon="4.80666">
        <ele>172.5</ele>
        <time>2016-06-06T08:47:42.715Z</time>
      </trkpt>
      <trkpt lat="45.8881" lon="4.80671">
        <ele>172.199996948</ele>
        <time>2016-06-06T08:47:43.692Z</time>
      </trkpt>
      <trkpt lat="45.88804" lon="4.80677">
        <ele>171.800003052</ele>
        <time>2016-06-06T08:47:44.714Z</time>
      </trkpt>
      <trkpt lat="45.88799" lon="4.80683">
        <ele>171.399993896</ele>
        <time>2016-06-06T08:47:45.7Z</time>
      </trkpt>
      <trkpt lat="45.88794" lon="4.80689">
        <ele>171</ele>
        <time>2016-06-06T08:47:46.714Z</time>
      </trkpt>
      <trkpt lat="45.88788" lon="4.80695">
        <ele>171</ele>
        <time>2016-06-06T08:47:47.699Z</time>
      </trkpt>
      <trkpt lat="45.88783" lon="4.80701">
        <ele>171</ele>
        <time>2016-06-06T08:47:48.732Z</time>
      </trkpt>
      <trkpt lat="45.88777" lon="4.80708">
        <ele>170.800003052</ele>
        <time>2016-06-06T08:47:49.695Z</time>
      </trkpt>
      <trkpt lat="45.88771" lon="4.80714">
        <ele>170.300003052</ele>
        <time>2016-06-06T08:47:50.727Z</time>
      </trkpt>
      <trkpt lat="45.88766" lon="4.8072">
        <ele>170.100006104</ele>
        <time>2016-06-06T08:47:51.702Z</time>
      </trkpt>
      <trkpt lat="45.8876" lon="4.80725">
        <ele>170</ele>
        <time>2016-06-06T08:47:52.717Z</time>
      </trkpt>
      <trkpt lat="45.88755" lon="4.8073">
        <ele>170</ele>
        <time>2016-06-06T08:47:53.699Z</time>
      </trkpt>
      <trkpt lat="45.88749" lon="4.80736">
        <ele>170.300003052</ele>
        <time>2016-06-06T08:47:54.718Z</time>
      </trkpt>
      <trkpt lat="45.88744" lon="4.80742">
        <ele>170.399993896</ele>
        <time>2016-06-06T08:47:55.698Z</time>
      </trkpt>
      <trkpt lat="45.88739" lon="4.80748">
        <ele>170.5</ele>
        <time>2016-06-06T08:47:56.717Z</time>
      </trkpt>
      <trkpt lat="45.88734" lon="4.80753">
        <ele>171.699996948</ele>
        <time>2016-06-06T08:47:57.7Z</time>
      </trkpt>
      <trkpt lat="45.88729" lon="4.80758">
        <ele>172.199996948</ele>
        <time>2016-06-06T08:47:58.745Z</time>
      </trkpt>
      <trkpt lat="45.88724" lon="4.80765">
        <ele>172.100006104</ele>
        <time>2016-06-06T08:47:59.693Z</time>
      </trkpt>
      <trkpt lat="45.88719" lon="4.8077">
        <ele>172</ele>
        <time>2016-06-06T08:48:00.723Z</time>
      </trkpt>
      <trkpt lat="45.88715" lon="4.80776">
        <ele>172.199996948</ele>
        <time>2016-06-06T08:48:01.693Z</time>
      </trkpt>
      <trkpt lat="45.88711" lon="4.80781">
        <ele>172.5</ele>
        <time>2016-06-06T08:48:02.718Z</time>
      </trkpt>
      <trkpt lat="45.88707" lon="4.80786">
        <ele>172.899993896</ele>
        <time>2016-06-06T08:48:03.726Z</time>
      </trkpt>
      <trkpt lat="45.88702" lon="4.80791">
        <ele>173.300003052</ele>
        <time>2016-06-06T08:48:04.73Z</time>
      </trkpt>
      <trkpt lat="45.88698" lon="4.80795">
        <ele>173.699996948</ele>
        <time>2016-06-06T08:48:05.71Z</time>
      </trkpt>
      <trkpt lat="45.88693" lon="4.808">
        <ele>173.600006104</ele>
        <time>2016-06-06T08:48:06.715Z</time>
      </trkpt>
      <trkpt lat="45.88688" lon="4.80805">
        <ele>173.699996948</ele>
        <time>2016-06-06T08:48:07.698Z</time>
      </trkpt>
      <trkpt lat="45.88683" lon="4.8081">
        <ele>174</ele>
        <time>2016-06-06T08:48:08.717Z</time>
      </trkpt>
      <trkpt lat="45.88678" lon="4.80815">
        <ele>174</ele>
        <time>2016-06-06T08:48:09.696Z</time>
      </trkpt>
      <trkpt lat="45.88674" lon="4.8082">
        <ele>174.100006104</ele>
        <time>2016-06-06T08:48:10.718Z</time>
      </trkpt>
      <trkpt lat="45.88669" lon="4.80825">
        <ele>174.300003052</ele>
        <time>2016-06-06T08:48:11.699Z</time>
      </trkpt>
      <trkpt lat="45.88664" lon="4.8083">
        <ele>174.300003052</ele>
        <time>2016-06-06T08:48:12.718Z</time>
      </trkpt>
      <trkpt lat="45.8866" lon="4.80835">
        <ele>174.300003052</ele>
        <time>2016-06-06T08:48:13.698Z</time>
      </trkpt>
      <trkpt lat="45.88655" lon="4.8084">
        <ele>174.300003052</ele>
        <time>2016-06-06T08:48:14.714Z</time>
      </trkpt>
      <trkpt lat="45.8865" lon="4.80846">
        <ele>174.300003052</ele>
        <time>2016-06-06T08:48:15.696Z</time>
      </trkpt>
      <trkpt lat="45.88645" lon="4.80851">
        <ele>174.600006104</ele>
        <time>2016-06-06T08:48:16.721Z</time>
      </trkpt>
      <trkpt lat="45.8864" lon="4.80857">
        <ele>174.800003052</ele>
        <time>2016-06-06T08:48:17.7Z</time>
      </trkpt>
      <trkpt lat="45.88635" lon="4.80862">
        <ele>174.800003052</ele>
        <time>2016-06-06T08:48:18.718Z</time>
      </trkpt>
      <trkpt lat="45.8863" lon="4.80869">
        <ele>174.699996948</ele>
        <time>2016-06-06T08:48:19.692Z</time>
      </trkpt>
      <trkpt lat="45.88625" lon="4.80875">
        <ele>174.899993896</ele>
        <time>2016-06-06T08:48:20.731Z</time>
      </trkpt>
      <trkpt lat="45.8862" lon="4.8088">
        <ele>175.399993896</ele>
        <time>2016-06-06T08:48:21.696Z</time>
      </trkpt>
      <trkpt lat="45.88614" lon="4.80887">
        <ele>175.699996948</ele>
        <time>2016-06-06T08:48:22.715Z</time>
      </trkpt>
      <trkpt lat="45.88609" lon="4.80893">
        <ele>175.800003052</ele>
        <time>2016-06-06T08:48:23.699Z</time>
      </trkpt>
      <trkpt lat="45.88604" lon="4.80898">
        <ele>176</ele>
        <time>2016-06-06T08:48:24.716Z</time>
      </trkpt>
      <trkpt lat="45.88599" lon="4.80904">
        <ele>176.199996948</ele>
        <time>2016-06-06T08:48:25.698Z</time>
      </trkpt>
      <trkpt lat="45.88594" lon="4.80909">
        <ele>176.300003052</ele>
        <time>2016-06-06T08:48:26.717Z</time>
      </trkpt>
      <trkpt lat="45.8859" lon="4.80914">
        <ele>176.5</ele>
        <time>2016-06-06T08:48:27.7Z</time>
      </trkpt>
      <trkpt lat="45.88585" lon="4.80919">
        <ele>176.600006104</ele>
        <time>2016-06-06T08:48:28.714Z</time>
      </trkpt>
      <trkpt lat="45.88581" lon="4.80925">
        <ele>176.699996948</ele>
        <time>2016-06-06T08:48:29.695Z</time>
      </trkpt>
      <trkpt lat="45.88576" lon="4.8093">
        <ele>176.899993896</ele>
        <time>2016-06-06T08:48:30.795Z</time>
      </trkpt>
      <trkpt lat="45.88571" lon="4.80936">
        <ele>176.699996948</ele>
        <time>2016-06-06T08:48:31.692Z</time>
      </trkpt>
      <trkpt lat="45.88566" lon="4.80941">
        <ele>177</ele>
        <time>2016-06-06T08:48:32.74Z</time>
      </trkpt>
      <trkpt lat="45.88562" lon="4.80947">
        <ele>176.699996948</ele>
        <time>2016-06-06T08:48:33.728Z</time>
      </trkpt>
      <trkpt lat="45.88557" lon="4.80952">
        <ele>176.899993896</ele>
        <time>2016-06-06T08:48:34.714Z</time>
      </trkpt>
      <trkpt lat="45.88552" lon="4.80958">
        <ele>177.100006104</ele>
        <time>2016-06-06T08:48:35.695Z</time>
      </trkpt>
      <trkpt lat="45.88547" lon="4.80964">
        <ele>177.100006104</ele>
        <time>2016-06-06T08:48:36.718Z</time>
      </trkpt>
      <trkpt lat="45.88542" lon="4.80969">
        <ele>177.100006104</ele>
        <time>2016-06-06T08:48:37.698Z</time>
      </trkpt>
      <trkpt lat="45.88537" lon="4.80975">
        <ele>177.199996948</ele>
        <time>2016-06-06T08:48:38.718Z</time>
      </trkpt>
      <trkpt lat="45.88532" lon="4.80981">
        <ele>176.699996948</ele>
        <time>2016-06-06T08:48:39.696Z</time>
      </trkpt>
      <trkpt lat="45.88528" lon="4.80987">
        <ele>176.800003052</ele>
        <time>2016-06-06T08:48:40.724Z</time>
      </trkpt>
      <trkpt lat="45.88524" lon="4.80993">
        <ele>176.5</ele>
        <time>2016-06-06T08:48:41.697Z</time>
      </trkpt>
      <trkpt lat="45.8852" lon="4.80998">
        <ele>176.600006104</ele>
        <time>2016-06-06T08:48:42.722Z</time>
      </trkpt>
      <trkpt lat="45.88516" lon="4.81004">
        <ele>176.600006104</ele>
        <time>2016-06-06T08:48:43.698Z</time>
      </trkpt>
      <trkpt lat="45.88512" lon="4.8101">
        <ele>176.5</ele>
        <time>2016-06-06T08:48:44.714Z</time>
      </trkpt>
      <trkpt lat="45.88507" lon="4.81015">
        <ele>176.5</ele>
        <time>2016-06-06T08:48:45.695Z</time>
      </trkpt>
      <trkpt lat="45.88503" lon="4.81021">
        <ele>176.5</ele>
        <time>2016-06-06T08:48:46.729Z</time>
      </trkpt>
      <trkpt lat="45.88499" lon="4.81027">
        <ele>176.399993896</ele>
        <time>2016-06-06T08:48:47.722Z</time>
      </trkpt>
      <trkpt lat="45.88494" lon="4.81033">
        <ele>176.300003052</ele>
        <time>2016-06-06T08:48:48.765Z</time>
      </trkpt>
      <trkpt lat="45.8849" lon="4.8104">
        <ele>176</ele>
        <time>2016-06-06T08:48:49.722Z</time>
      </trkpt>
      <trkpt lat="45.88486" lon="4.81046">
        <ele>175.899993896</ele>
        <time>2016-06-06T08:48:50.715Z</time>
      </trkpt>
      <trkpt lat="45.88481" lon="4.81052">
        <ele>176</ele>
        <time>2016-06-06T08:48:51.702Z</time>
      </trkpt>
      <trkpt lat="45.88477" lon="4.81059">
        <ele>175.600006104</ele>
        <time>2016-06-06T08:48:52.75Z</time>
      </trkpt>
      <trkpt lat="45.88472" lon="4.81066">
        <ele>175.5</ele>
        <time>2016-06-06T08:48:53.699Z</time>
      </trkpt>
      <trkpt lat="45.88467" lon="4.81072">
        <ele>175.600006104</ele>
        <time>2016-06-06T08:48:54.721Z</time>
      </trkpt>
      <trkpt lat="45.88463" lon="4.81078">
        <ele>175.699996948</ele>
        <time>2016-06-06T08:48:55.696Z</time>
      </trkpt>
      <trkpt lat="45.88458" lon="4.81085">
        <ele>175.800003052</ele>
        <time>2016-06-06T08:48:56.821Z</time>
      </trkpt>
      <trkpt lat="45.88453" lon="4.81092">
        <ele>175.5</ele>
        <time>2016-06-06T08:48:57.697Z</time>
      </trkpt>
      <trkpt lat="45.88448" lon="4.81099">
        <ele>175.300003052</ele>
        <time>2016-06-06T08:48:58.718Z</time>
      </trkpt>
      <trkpt lat="45.88444" lon="4.81106">
        <ele>175.100006104</ele>
        <time>2016-06-06T08:48:59.696Z</time>
      </trkpt>
      <trkpt lat="45.88439" lon="4.81112">
        <ele>174.800003052</ele>
        <time>2016-06-06T08:49:00.715Z</time>
      </trkpt>
      <trkpt lat="45.88435" lon="4.81119">
        <ele>174.600006104</ele>
        <time>2016-06-06T08:49:01.692Z</time>
      </trkpt>
      <trkpt lat="45.8843" lon="4.81126">
        <ele>174</ele>
        <time>2016-06-06T08:49:02.718Z</time>
      </trkpt>
      <trkpt lat="45.88426" lon="4.81132">
        <ele>173.800003052</ele>
        <time>2016-06-06T08:49:03.7Z</time>
      </trkpt>
      <trkpt lat="45.88422" lon="4.81138">
        <ele>174</ele>
        <time>2016-06-06T08:49:04.717Z</time>
      </trkpt>
      <trkpt lat="45.88418" lon="4.81143">
        <ele>174.199996948</ele>
        <time>2016-06-06T08:49:05.695Z</time>
      </trkpt>
      <trkpt lat="45.88415" lon="4.81149">
        <ele>174.199996948</ele>
        <time>2016-06-06T08:49:06.714Z</time>
      </trkpt>
      <trkpt lat="45.88411" lon="4.81155">
        <ele>174.399993896</ele>
        <time>2016-06-06T08:49:07.71Z</time>
      </trkpt>
      <trkpt lat="45.88407" lon="4.81161">
        <ele>174.399993896</ele>
        <time>2016-06-06T08:49:08.718Z</time>
      </trkpt>
      <trkpt lat="45.88403" lon="4.81167">
        <ele>174.399993896</ele>
        <time>2016-06-06T08:49:09.696Z</time>
      </trkpt>
      <trkpt lat="45.88399" lon="4.81173">
        <ele>174.699996948</ele>
        <time>2016-06-06T08:49:10.719Z</time>
      </trkpt>
      <trkpt lat="45.88395" lon="4.8118">
        <ele>174.800003052</ele>
        <time>2016-06-06T08:49:11.689Z</time>
      </trkpt>
      <trkpt lat="45.88391" lon="4.81186">
        <ele>174.800003052</ele>
        <time>2016-06-06T08:49:12.734Z</time>
      </trkpt>
      <trkpt lat="45.88387" lon="4.81193">
        <ele>174.800003052</ele>
        <time>2016-06-06T08:49:13.699Z</time>
      </trkpt>
      <trkpt lat="45.88382" lon="4.81199">
        <ele>174.5</ele>
        <time>2016-06-06T08:49:14.717Z</time>
      </trkpt>
      <trkpt lat="45.88378" lon="4.81206">
        <ele>174.199996948</ele>
        <time>2016-06-06T08:49:15.697Z</time>
      </trkpt>
      <trkpt lat="45.88374" lon="4.81213">
        <ele>174.100006104</ele>
        <time>2016-06-06T08:49:16.717Z</time>
      </trkpt>
      <trkpt lat="45.8837" lon="4.81221">
        <ele>174.199996948</ele>
        <time>2016-06-06T08:49:17.696Z</time>
      </trkpt>
      <trkpt lat="45.88366" lon="4.81228">
        <ele>174</ele>
        <time>2016-06-06T08:49:18.719Z</time>
      </trkpt>
      <trkpt lat="45.88361" lon="4.81235">
        <ele>173.899993896</ele>
        <time>2016-06-06T08:49:19.693Z</time>
      </trkpt>
      <trkpt lat="45.88357" lon="4.81242">
        <ele>173.899993896</ele>
        <time>2016-06-06T08:49:20.718Z</time>
      </trkpt>
      <trkpt lat="45.88354" lon="4.81249">
        <ele>174</ele>
        <time>2016-06-06T08:49:21.696Z</time>
      </trkpt>
      <trkpt lat="45.8835" lon="4.81256">
        <ele>174</ele>
        <time>2016-06-06T08:49:22.718Z</time>
      </trkpt>
      <trkpt lat="45.88346" lon="4.81262">
        <ele>174.199996948</ele>
        <time>2016-06-06T08:49:23.698Z</time>
      </trkpt>
      <trkpt lat="45.88343" lon="4.81269">
        <ele>174.300003052</ele>
        <time>2016-06-06T08:49:24.716Z</time>
      </trkpt>
      <trkpt lat="45.88339" lon="4.81276">
        <ele>174.300003052</ele>
        <time>2016-06-06T08:49:25.695Z</time>
      </trkpt>
      <trkpt lat="45.88335" lon="4.81284">
        <ele>174</ele>
        <time>2016-06-06T08:49:26.755Z</time>
      </trkpt>
      <trkpt lat="45.88331" lon="4.81292">
        <ele>174.199996948</ele>
        <time>2016-06-06T08:49:27.697Z</time>
      </trkpt>
      <trkpt lat="45.88328" lon="4.81299">
        <ele>174.100006104</ele>
        <time>2016-06-06T08:49:28.741Z</time>
      </trkpt>
      <trkpt lat="45.88324" lon="4.81307">
        <ele>174</ele>
        <time>2016-06-06T08:49:29.697Z</time>
      </trkpt>
      <trkpt lat="45.8832" lon="4.81314">
        <ele>174</ele>
        <time>2016-06-06T08:49:30.72Z</time>
      </trkpt>
      <trkpt lat="45.88316" lon="4.81321">
        <ele>173.699996948</ele>
        <time>2016-06-06T08:49:31.73Z</time>
      </trkpt>
      <trkpt lat="45.88312" lon="4.81329">
        <ele>173.699996948</ele>
        <time>2016-06-06T08:49:32.72Z</time>
      </trkpt>
      <trkpt lat="45.88309" lon="4.81336">
        <ele>173.800003052</ele>
        <time>2016-06-06T08:49:33.696Z</time>
      </trkpt>
      <trkpt lat="45.88305" lon="4.81345">
        <ele>173.600006104</ele>
        <time>2016-06-06T08:49:34.72Z</time>
      </trkpt>
      <trkpt lat="45.88301" lon="4.81353">
        <ele>173.5</ele>
        <time>2016-06-06T08:49:35.722Z</time>
      </trkpt>
      <trkpt lat="45.88298" lon="4.81361">
        <ele>173.399993896</ele>
        <time>2016-06-06T08:49:36.718Z</time>
      </trkpt>
      <trkpt lat="45.88294" lon="4.81369">
        <ele>173</ele>
        <time>2016-06-06T08:49:37.7Z</time>
      </trkpt>
      <trkpt lat="45.88291" lon="4.81377">
        <ele>172.899993896</ele>
        <time>2016-06-06T08:49:38.716Z</time>
      </trkpt>
      <trkpt lat="45.88287" lon="4.81385">
        <ele>172.699996948</ele>
        <time>2016-06-06T08:49:39.7Z</time>
      </trkpt>
      <trkpt lat="45.88283" lon="4.81392">
        <ele>172.600006104</ele>
        <time>2016-06-06T08:49:40.719Z</time>
      </trkpt>
      <trkpt lat="45.8828" lon="4.814">
        <ele>172.5</ele>
        <time>2016-06-06T08:49:41.7Z</time>
      </trkpt>
      <trkpt lat="45.88275" lon="4.81407">
        <ele>172.399993896</ele>
        <time>2016-06-06T08:49:42.719Z</time>
      </trkpt>
      <trkpt lat="45.88272" lon="4.81414">
        <ele>172.300003052</ele>
        <time>2016-06-06T08:49:43.693Z</time>
      </trkpt>
      <trkpt lat="45.88268" lon="4.81422">
        <ele>172.100006104</ele>
        <time>2016-06-06T08:49:44.73Z</time>
      </trkpt>
      <trkpt lat="45.88264" lon="4.81429">
        <ele>171.899993896</ele>
        <time>2016-06-06T08:49:45.7Z</time>
      </trkpt>
      <trkpt lat="45.8826" lon="4.81438">
        <ele>171.800003052</ele>
        <time>2016-06-06T08:49:46.718Z</time>
      </trkpt>
      <trkpt lat="45.88257" lon="4.81446">
        <ele>171.699996948</ele>
        <time>2016-06-06T08:49:47.699Z</time>
      </trkpt>
      <trkpt lat="45.88253" lon="4.81454">
        <ele>171.800003052</ele>
        <time>2016-06-06T08:49:48.718Z</time>
      </trkpt>
      <trkpt lat="45.88249" lon="4.81462">
        <ele>171.800003052</ele>
        <time>2016-06-06T08:49:49.699Z</time>
      </trkpt>
      <trkpt lat="45.88246" lon="4.8147">
        <ele>171.699996948</ele>
        <time>2016-06-06T08:49:50.718Z</time>
      </trkpt>
      <trkpt lat="45.88242" lon="4.81477">
        <ele>171.699996948</ele>
        <time>2016-06-06T08:49:51.703Z</time>
      </trkpt>
      <trkpt lat="45.88238" lon="4.81485">
        <ele>171.699996948</ele>
        <time>2016-06-06T08:49:52.715Z</time>
      </trkpt>
      <trkpt lat="45.88234" lon="4.81492">
        <ele>172</ele>
        <time>2016-06-06T08:49:53.695Z</time>
      </trkpt>
      <trkpt lat="45.8823" lon="4.81499">
        <ele>172.199996948</ele>
        <time>2016-06-06T08:49:54.718Z</time>
      </trkpt>
      <trkpt lat="45.88228" lon="4.81507">
        <ele>172.399993896</ele>
        <time>2016-06-06T08:49:55.693Z</time>
      </trkpt>
      <trkpt lat="45.88225" lon="4.81515">
        <ele>172.5</ele>
        <time>2016-06-06T08:49:56.736Z</time>
      </trkpt>
      <trkpt lat="45.88222" lon="4.81522">
        <ele>172.899993896</ele>
        <time>2016-06-06T08:49:57.697Z</time>
      </trkpt>
      <trkpt lat="45.88219" lon="4.8153">
        <ele>173.199996948</ele>
        <time>2016-06-06T08:49:58.719Z</time>
      </trkpt>
      <trkpt lat="45.88216" lon="4.81537">
        <ele>173.5</ele>
        <time>2016-06-06T08:49:59.695Z</time>
      </trkpt>
      <trkpt lat="45.88212" lon="4.81545">
        <ele>173.699996948</ele>
        <time>2016-06-06T08:50:00.734Z</time>
      </trkpt>
      <trkpt lat="45.88209" lon="4.81553">
        <ele>173.199996948</ele>
        <time>2016-06-06T08:50:01.698Z</time>
      </trkpt>
      <trkpt lat="45.88206" lon="4.81561">
        <ele>173.300003052</ele>
        <time>2016-06-06T08:50:02.746Z</time>
      </trkpt>
      <trkpt lat="45.88202" lon="4.81568">
        <ele>173.199996948</ele>
        <time>2016-06-06T08:50:03.7Z</time>
      </trkpt>
      <trkpt lat="45.88199" lon="4.81579">
        <ele>173</ele>
        <time>2016-06-06T08:50:04.744Z</time>
      </trkpt>
      <trkpt lat="45.88195" lon="4.81588">
        <ele>173</ele>
        <time>2016-06-06T08:50:05.696Z</time>
      </trkpt>
      <trkpt lat="45.88192" lon="4.81596">
        <ele>172.5</ele>
        <time>2016-06-06T08:50:06.715Z</time>
      </trkpt>
      <trkpt lat="45.88188" lon="4.81604">
        <ele>172.199996948</ele>
        <time>2016-06-06T08:50:07.693Z</time>
      </trkpt>
      <trkpt lat="45.88184" lon="4.81612">
        <ele>172.300003052</ele>
        <time>2016-06-06T08:50:08.715Z</time>
      </trkpt>
      <trkpt lat="45.8818" lon="4.8162">
        <ele>171.699996948</ele>
        <time>2016-06-06T08:50:09.697Z</time>
      </trkpt>
      <trkpt lat="45.88177" lon="4.81628">
        <ele>171.199996948</ele>
        <time>2016-06-06T08:50:10.715Z</time>
      </trkpt>
      <trkpt lat="45.88173" lon="4.81636">
        <ele>171.199996948</ele>
        <time>2016-06-06T08:50:11.7Z</time>
      </trkpt>
      <trkpt lat="45.88169" lon="4.81644">
        <ele>171.199996948</ele>
        <time>2016-06-06T08:50:12.717Z</time>
      </trkpt>
      <trkpt lat="45.88166" lon="4.81652">
        <ele>171.199996948</ele>
        <time>2016-06-06T08:50:13.694Z</time>
      </trkpt>
      <trkpt lat="45.88163" lon="4.81659">
        <ele>171.399993896</ele>
        <time>2016-06-06T08:50:14.715Z</time>
      </trkpt>
      <trkpt lat="45.8816" lon="4.81667">
        <ele>171.300003052</ele>
        <time>2016-06-06T08:50:15.7Z</time>
      </trkpt>
      <trkpt lat="45.88157" lon="4.81675">
        <ele>171.100006104</ele>
        <time>2016-06-06T08:50:16.714Z</time>
      </trkpt>
      <trkpt lat="45.88154" lon="4.81684">
        <ele>170.699996948</ele>
        <time>2016-06-06T08:50:17.696Z</time>
      </trkpt>
      <trkpt lat="45.8815" lon="4.81692">
        <ele>170.399993896</ele>
        <time>2016-06-06T08:50:18.718Z</time>
      </trkpt>
      <trkpt lat="45.88146" lon="4.817">
        <ele>170.100006104</ele>
        <time>2016-06-06T08:50:19.693Z</time>
      </trkpt>
      <trkpt lat="45.88142" lon="4.81709">
        <ele>170</ele>
        <time>2016-06-06T08:50:20.718Z</time>
      </trkpt>
      <trkpt lat="45.88139" lon="4.81716">
        <ele>169.899993896</ele>
        <time>2016-06-06T08:50:21.715Z</time>
      </trkpt>
      <trkpt lat="45.88135" lon="4.81724">
        <ele>169.600006104</ele>
        <time>2016-06-06T08:50:22.716Z</time>
      </trkpt>
      <trkpt lat="45.88131" lon="4.81732">
        <ele>169.600006104</ele>
        <time>2016-06-06T08:50:23.7Z</time>
      </trkpt>
      <trkpt lat="45.88129" lon="4.81741">
        <ele>169.5</ele>
        <time>2016-06-06T08:50:24.715Z</time>
      </trkpt>
      <trkpt lat="45.88125" lon="4.81749">
        <ele>169.300003052</ele>
        <time>2016-06-06T08:50:25.693Z</time>
      </trkpt>
      <trkpt lat="45.88122" lon="4.81757">
        <ele>169</ele>
        <time>2016-06-06T08:50:26.736Z</time>
      </trkpt>
      <trkpt lat="45.88119" lon="4.81765">
        <ele>168.899993896</ele>
        <time>2016-06-06T08:50:27.7Z</time>
      </trkpt>
      <trkpt lat="45.88116" lon="4.81773">
        <ele>168.899993896</ele>
        <time>2016-06-06T08:50:28.715Z</time>
      </trkpt>
      <trkpt lat="45.88113" lon="4.81782">
        <ele>169.199996948</ele>
        <time>2016-06-06T08:50:29.696Z</time>
      </trkpt>
      <trkpt lat="45.8811" lon="4.8179">
        <ele>169.300003052</ele>
        <time>2016-06-06T08:50:30.715Z</time>
      </trkpt>
      <trkpt lat="45.88106" lon="4.81798">
        <ele>169.199996948</ele>
        <time>2016-06-06T08:50:31.695Z</time>
      </trkpt>
      <trkpt lat="45.88102" lon="4.81807">
        <ele>169.5</ele>
        <time>2016-06-06T08:50:32.715Z</time>
      </trkpt>
      <trkpt lat="45.88099" lon="4.81815">
        <ele>169.399993896</ele>
        <time>2016-06-06T08:50:33.697Z</time>
      </trkpt>
      <trkpt lat="45.88095" lon="4.81824">
        <ele>169.199996948</ele>
        <time>2016-06-06T08:50:34.727Z</time>
      </trkpt>
      <trkpt lat="45.88094" lon="4.81834">
        <ele>169.600006104</ele>
        <time>2016-06-06T08:50:35.699Z</time>
      </trkpt>
      <trkpt lat="45.88091" lon="4.81843">
        <ele>170.5</ele>
        <time>2016-06-06T08:50:36.718Z</time>
      </trkpt>
      <trkpt lat="45.88088" lon="4.81852">
        <ele>170.899993896</ele>
        <time>2016-06-06T08:50:37.693Z</time>
      </trkpt>
      <trkpt lat="45.88085" lon="4.81861">
        <ele>171.100006104</ele>
        <time>2016-06-06T08:50:38.717Z</time>
      </trkpt>
      <trkpt lat="45.88082" lon="4.8187">
        <ele>171.199996948</ele>
        <time>2016-06-06T08:50:39.696Z</time>
      </trkpt>
      <trkpt lat="45.88079" lon="4.81879">
        <ele>171.899993896</ele>
        <time>2016-06-06T08:50:40.715Z</time>
      </trkpt>
      <trkpt lat="45.88077" lon="4.81888">
        <ele>171.899993896</ele>
        <time>2016-06-06T08:50:41.696Z</time>
      </trkpt>
      <trkpt lat="45.88074" lon="4.81897">
        <ele>171.899993896</ele>
        <time>2016-06-06T08:50:42.733Z</time>
      </trkpt>
      <trkpt lat="45.88071" lon="4.81907">
        <ele>172.100006104</ele>
        <time>2016-06-06T08:50:43.693Z</time>
      </trkpt>
      <trkpt lat="45.88067" lon="4.81916">
        <ele>172.399993896</ele>
        <time>2016-06-06T08:50:44.718Z</time>
      </trkpt>
      <trkpt lat="45.88064" lon="4.81926">
        <ele>172.5</ele>
        <time>2016-06-06T08:50:45.696Z</time>
      </trkpt>
      <trkpt lat="45.88061" lon="4.81935">
        <ele>172.5</ele>
        <time>2016-06-06T08:50:46.714Z</time>
      </trkpt>
      <trkpt lat="45.88058" lon="4.81944">
        <ele>172.300003052</ele>
        <time>2016-06-06T08:50:47.696Z</time>
      </trkpt>
      <trkpt lat="45.88055" lon="4.81953">
        <ele>172.199996948</ele>
        <time>2016-06-06T08:50:48.715Z</time>
      </trkpt>
      <trkpt lat="45.88053" lon="4.81962">
        <ele>171.899993896</ele>
        <time>2016-06-06T08:50:49.693Z</time>
      </trkpt>
      <trkpt lat="45.8805" lon="4.8197">
        <ele>171.899993896</ele>
        <time>2016-06-06T08:50:50.755Z</time>
      </trkpt>
      <trkpt lat="45.88047" lon="4.81979">
        <ele>171.800003052</ele>
        <time>2016-06-06T08:50:51.7Z</time>
      </trkpt>
      <trkpt lat="45.88044" lon="4.81987">
        <ele>171.600006104</ele>
        <time>2016-06-06T08:50:52.74Z</time>
      </trkpt>
      <trkpt lat="45.88041" lon="4.81995">
        <ele>171.600006104</ele>
        <time>2016-06-06T08:50:53.699Z</time>
      </trkpt>
      <trkpt lat="45.88038" lon="4.82003">
        <ele>171.699996948</ele>
        <time>2016-06-06T08:50:54.747Z</time>
      </trkpt>
      <trkpt lat="45.88035" lon="4.82011">
        <ele>172.199996948</ele>
        <time>2016-06-06T08:50:55.698Z</time>
      </trkpt>
      <trkpt lat="45.88032" lon="4.82019">
        <ele>172.699996948</ele>
        <time>2016-06-06T08:50:56.862Z</time>
      </trkpt>
      <trkpt lat="45.88029" lon="4.82026">
        <ele>173</ele>
        <time>2016-06-06T08:50:57.7Z</time>
      </trkpt>
      <trkpt lat="45.88026" lon="4.82034">
        <ele>173.199996948</ele>
        <time>2016-06-06T08:50:58.756Z</time>
      </trkpt>
      <trkpt lat="45.88023" lon="4.82041">
        <ele>173.300003052</ele>
        <time>2016-06-06T08:50:59.694Z</time>
      </trkpt>
      <trkpt lat="45.88019" lon="4.82047">
        <ele>173.399993896</ele>
        <time>2016-06-06T08:51:00.718Z</time>
      </trkpt>
      <trkpt lat="45.88015" lon="4.82053">
        <ele>173.600006104</ele>
        <time>2016-06-06T08:51:01.695Z</time>
      </trkpt>
      <trkpt lat="45.88011" lon="4.82059">
        <ele>173.800003052</ele>
        <time>2016-06-06T08:51:02.747Z</time>
      </trkpt>
      <trkpt lat="45.88005" lon="4.82063">
        <ele>173.800003052</ele>
        <time>2016-06-06T08:51:03.696Z</time>
      </trkpt>
      <trkpt lat="45.88" lon="4.82067">
        <ele>173.199996948</ele>
        <time>2016-06-06T08:51:04.714Z</time>
      </trkpt>
      <trkpt lat="45.87995" lon="4.8207">
        <ele>172.800003052</ele>
        <time>2016-06-06T08:51:05.696Z</time>
      </trkpt>
      <trkpt lat="45.8799" lon="4.82073">
        <ele>172.399993896</ele>
        <time>2016-06-06T08:51:06.738Z</time>
      </trkpt>
      <trkpt lat="45.87985" lon="4.82077">
        <ele>172.399993896</ele>
        <time>2016-06-06T08:51:07.698Z</time>
      </trkpt>
      <trkpt lat="45.87981" lon="4.82083">
        <ele>172</ele>
        <time>2016-06-06T08:51:08.745Z</time>
      </trkpt>
      <trkpt lat="45.87978" lon="4.8209">
        <ele>171.600006104</ele>
        <time>2016-06-06T08:51:09.697Z</time>
      </trkpt>
      <trkpt lat="45.87975" lon="4.82098">
        <ele>171.699996948</ele>
        <time>2016-06-06T08:51:10.714Z</time>
      </trkpt>
      <trkpt lat="45.87972" lon="4.82106">
        <ele>171.300003052</ele>
        <time>2016-06-06T08:51:11.696Z</time>
      </trkpt>
      <trkpt lat="45.87969" lon="4.82113">
        <ele>171.199996948</ele>
        <time>2016-06-06T08:51:12.718Z</time>
      </trkpt>
      <trkpt lat="45.87966" lon="4.82121">
        <ele>171</ele>
        <time>2016-06-06T08:51:13.693Z</time>
      </trkpt>
      <trkpt lat="45.87963" lon="4.82129">
        <ele>170.800003052</ele>
        <time>2016-06-06T08:51:14.734Z</time>
      </trkpt>
      <trkpt lat="45.87961" lon="4.82138">
        <ele>170.399993896</ele>
        <time>2016-06-06T08:51:15.7Z</time>
      </trkpt>
      <trkpt lat="45.8796" lon="4.82146">
        <ele>170.300003052</ele>
        <time>2016-06-06T08:51:16.717Z</time>
      </trkpt>
      <trkpt lat="45.87959" lon="4.82154">
        <ele>170.300003052</ele>
        <time>2016-06-06T08:51:17.697Z</time>
      </trkpt>
      <trkpt lat="45.87958" lon="4.82163">
        <ele>170</ele>
        <time>2016-06-06T08:51:18.723Z</time>
      </trkpt>
      <trkpt lat="45.87957" lon="4.82171">
        <ele>170</ele>
        <time>2016-06-06T08:51:19.692Z</time>
      </trkpt>
      <trkpt lat="45.87956" lon="4.8218">
        <ele>169.699996948</ele>
        <time>2016-06-06T08:51:20.747Z</time>
      </trkpt>
      <trkpt lat="45.87955" lon="4.82189">
        <ele>169.800003052</ele>
        <time>2016-06-06T08:51:21.696Z</time>
      </trkpt>
      <trkpt lat="45.87955" lon="4.82199">
        <ele>169.800003052</ele>
        <time>2016-06-06T08:51:22.717Z</time>
      </trkpt>
      <trkpt lat="45.87954" lon="4.82209">
        <ele>169.800003052</ele>
        <time>2016-06-06T08:51:23.7Z</time>
      </trkpt>
      <trkpt lat="45.87954" lon="4.82219">
        <ele>169.699996948</ele>
        <time>2016-06-06T08:51:24.715Z</time>
      </trkpt>
      <trkpt lat="45.87953" lon="4.82229">
        <ele>169.5</ele>
        <time>2016-06-06T08:51:25.699Z</time>
      </trkpt>
      <trkpt lat="45.87952" lon="4.82239">
        <ele>169.5</ele>
        <time>2016-06-06T08:51:26.718Z</time>
      </trkpt>
      <trkpt lat="45.87951" lon="4.82248">
        <ele>169.600006104</ele>
        <time>2016-06-06T08:51:27.696Z</time>
      </trkpt>
      <trkpt lat="45.87949" lon="4.82257">
        <ele>169.300003052</ele>
        <time>2016-06-06T08:51:28.718Z</time>
      </trkpt>
      <trkpt lat="45.87948" lon="4.82266">
        <ele>169.399993896</ele>
        <time>2016-06-06T08:51:29.694Z</time>
      </trkpt>
      <trkpt lat="45.87946" lon="4.82275">
        <ele>169.399993896</ele>
        <time>2016-06-06T08:51:30.731Z</time>
      </trkpt>
      <trkpt lat="45.87946" lon="4.82284">
        <ele>169.600006104</ele>
        <time>2016-06-06T08:51:31.698Z</time>
      </trkpt>
      <trkpt lat="45.87944" lon="4.82292">
        <ele>170.300003052</ele>
        <time>2016-06-06T08:51:32.717Z</time>
      </trkpt>
      <trkpt lat="45.87943" lon="4.82301">
        <ele>170.300003052</ele>
        <time>2016-06-06T08:51:33.7Z</time>
      </trkpt>
      <trkpt lat="45.87942" lon="4.8231">
        <ele>170.300003052</ele>
        <time>2016-06-06T08:51:34.726Z</time>
      </trkpt>
      <trkpt lat="45.87941" lon="4.82319">
        <ele>170.399993896</ele>
        <time>2016-06-06T08:51:35.699Z</time>
      </trkpt>
      <trkpt lat="45.8794" lon="4.82328">
        <ele>170.699996948</ele>
        <time>2016-06-06T08:51:36.718Z</time>
      </trkpt>
      <trkpt lat="45.87939" lon="4.82337">
        <ele>170.800003052</ele>
        <time>2016-06-06T08:51:37.698Z</time>
      </trkpt>
      <trkpt lat="45.87938" lon="4.82346">
        <ele>170.699996948</ele>
        <time>2016-06-06T08:51:38.718Z</time>
      </trkpt>
      <trkpt lat="45.87937" lon="4.82356">
        <ele>171.100006104</ele>
        <time>2016-06-06T08:51:39.696Z</time>
      </trkpt>
      <trkpt lat="45.87935" lon="4.82365">
        <ele>171.199996948</ele>
        <time>2016-06-06T08:51:40.714Z</time>
      </trkpt>
      <trkpt lat="45.87934" lon="4.82375">
        <ele>171.100006104</ele>
        <time>2016-06-06T08:51:41.699Z</time>
      </trkpt>
      <trkpt lat="45.87933" lon="4.82385">
        <ele>171</ele>
        <time>2016-06-06T08:51:42.718Z</time>
      </trkpt>
      <trkpt lat="45.87932" lon="4.82394">
        <ele>170.899993896</ele>
        <time>2016-06-06T08:51:43.696Z</time>
      </trkpt>
      <trkpt lat="45.87931" lon="4.82403">
        <ele>170.600006104</ele>
        <time>2016-06-06T08:51:44.718Z</time>
      </trkpt>
      <trkpt lat="45.8793" lon="4.82413">
        <ele>170.600006104</ele>
        <time>2016-06-06T08:51:45.697Z</time>
      </trkpt>
      <trkpt lat="45.87928" lon="4.82422">
        <ele>170.600006104</ele>
        <time>2016-06-06T08:51:46.714Z</time>
      </trkpt>
      <trkpt lat="45.87927" lon="4.8243">
        <ele>170.600006104</ele>
        <time>2016-06-06T08:51:47.7Z</time>
      </trkpt>
      <trkpt lat="45.87925" lon="4.82439">
        <ele>170.699996948</ele>
        <time>2016-06-06T08:51:48.745Z</time>
      </trkpt>
      <trkpt lat="45.87924" lon="4.82448">
        <ele>170.699996948</ele>
        <time>2016-06-06T08:51:49.693Z</time>
      </trkpt>
      <trkpt lat="45.87922" lon="4.82458">
        <ele>171</ele>
        <time>2016-06-06T08:51:50.714Z</time>
      </trkpt>
      <trkpt lat="45.87921" lon="4.82467">
        <ele>170.899993896</ele>
        <time>2016-06-06T08:51:51.715Z</time>
      </trkpt>
      <trkpt lat="45.87919" lon="4.82477">
        <ele>170.699996948</ele>
        <time>2016-06-06T08:51:52.715Z</time>
      </trkpt>
      <trkpt lat="45.87917" lon="4.82486">
        <ele>170.399993896</ele>
        <time>2016-06-06T08:51:53.699Z</time>
      </trkpt>
      <trkpt lat="45.87915" lon="4.82494">
        <ele>170.399993896</ele>
        <time>2016-06-06T08:51:54.714Z</time>
      </trkpt>
      <trkpt lat="45.87913" lon="4.82503">
        <ele>170.600006104</ele>
        <time>2016-06-06T08:51:55.698Z</time>
      </trkpt>
      <trkpt lat="45.87911" lon="4.82511">
        <ele>170.800003052</ele>
        <time>2016-06-06T08:51:56.745Z</time>
      </trkpt>
      <trkpt lat="45.8791" lon="4.8252">
        <ele>170.800003052</ele>
        <time>2016-06-06T08:51:57.7Z</time>
      </trkpt>
      <trkpt lat="45.87908" lon="4.82529">
        <ele>170.600006104</ele>
        <time>2016-06-06T08:51:58.717Z</time>
      </trkpt>
      <trkpt lat="45.87906" lon="4.82538">
        <ele>170.5</ele>
        <time>2016-06-06T08:51:59.693Z</time>
      </trkpt>
      <trkpt lat="45.87904" lon="4.82546">
        <ele>170.600006104</ele>
        <time>2016-06-06T08:52:00.716Z</time>
      </trkpt>
      <trkpt lat="45.87901" lon="4.82556">
        <ele>170.600006104</ele>
        <time>2016-06-06T08:52:01.696Z</time>
      </trkpt>
      <trkpt lat="45.87899" lon="4.82566">
        <ele>170.800003052</ele>
        <time>2016-06-06T08:52:02.715Z</time>
      </trkpt>
      <trkpt lat="45.87897" lon="4.82575">
        <ele>171</ele>
        <time>2016-06-06T08:52:03.699Z</time>
      </trkpt>
      <trkpt lat="45.87895" lon="4.82584">
        <ele>171.199996948</ele>
        <time>2016-06-06T08:52:04.714Z</time>
      </trkpt>
      <trkpt lat="45.87893" lon="4.82594">
        <ele>171.199996948</ele>
        <time>2016-06-06T08:52:05.7Z</time>
      </trkpt>
      <trkpt lat="45.87891" lon="4.82603">
        <ele>171.100006104</ele>
        <time>2016-06-06T08:52:06.715Z</time>
      </trkpt>
      <trkpt lat="45.87888" lon="4.82613">
        <ele>170.5</ele>
        <time>2016-06-06T08:52:07.693Z</time>
      </trkpt>
      <trkpt lat="45.87886" lon="4.82622">
        <ele>170.199996948</ele>
        <time>2016-06-06T08:52:08.715Z</time>
      </trkpt>
      <trkpt lat="45.87884" lon="4.82631">
        <ele>170.300003052</ele>
        <time>2016-06-06T08:52:09.696Z</time>
      </trkpt>
      <trkpt lat="45.87882" lon="4.8264">
        <ele>170.300003052</ele>
        <time>2016-06-06T08:52:10.721Z</time>
      </trkpt>
      <trkpt lat="45.8788" lon="4.82649">
        <ele>170.100006104</ele>
        <time>2016-06-06T08:52:11.694Z</time>
      </trkpt>
      <trkpt lat="45.87878" lon="4.82658">
        <ele>170.199996948</ele>
        <time>2016-06-06T08:52:12.714Z</time>
      </trkpt>
      <trkpt lat="45.87876" lon="4.82667">
        <ele>170.100006104</ele>
        <time>2016-06-06T08:52:13.698Z</time>
      </trkpt>
      <trkpt lat="45.87875" lon="4.82676">
        <ele>170.100006104</ele>
        <time>2016-06-06T08:52:14.717Z</time>
      </trkpt>
      <trkpt lat="45.87874" lon="4.82684">
        <ele>170.199996948</ele>
        <time>2016-06-06T08:52:15.699Z</time>
      </trkpt>
      <trkpt lat="45.87873" lon="4.82694">
        <ele>170.199996948</ele>
        <time>2016-06-06T08:52:16.725Z</time>
      </trkpt>
      <trkpt lat="45.87872" lon="4.82703">
        <ele>170.300003052</ele>
        <time>2016-06-06T08:52:17.712Z</time>
      </trkpt>
      <trkpt lat="45.87871" lon="4.82712">
        <ele>170.399993896</ele>
        <time>2016-06-06T08:52:18.718Z</time>
      </trkpt>
      <trkpt lat="45.87871" lon="4.82722">
        <ele>170.300003052</ele>
        <time>2016-06-06T08:52:19.698Z</time>
      </trkpt>
      <trkpt lat="45.87871" lon="4.82732">
        <ele>170.199996948</ele>
        <time>2016-06-06T08:52:20.718Z</time>
      </trkpt>
      <trkpt lat="45.87871" lon="4.82742">
        <ele>170.300003052</ele>
        <time>2016-06-06T08:52:21.696Z</time>
      </trkpt>
      <trkpt lat="45.87872" lon="4.82751">
        <ele>171.199996948</ele>
        <time>2016-06-06T08:52:22.76Z</time>
      </trkpt>
      <trkpt lat="45.87873" lon="4.8276">
        <ele>171.600006104</ele>
        <time>2016-06-06T08:52:23.699Z</time>
      </trkpt>
      <trkpt lat="45.87873" lon="4.82769">
        <ele>171.699996948</ele>
        <time>2016-06-06T08:52:24.717Z</time>
      </trkpt>
      <trkpt lat="45.87874" lon="4.82777">
        <ele>171.800003052</ele>
        <time>2016-06-06T08:52:25.726Z</time>
      </trkpt>
      <trkpt lat="45.87875" lon="4.82785">
        <ele>171.899993896</ele>
        <time>2016-06-06T08:52:26.718Z</time>
      </trkpt>
      <trkpt lat="45.87876" lon="4.82793">
        <ele>172</ele>
        <time>2016-06-06T08:52:27.7Z</time>
      </trkpt>
      <trkpt lat="45.87876" lon="4.82802">
        <ele>172</ele>
        <time>2016-06-06T08:52:28.718Z</time>
      </trkpt>
      <trkpt lat="45.87877" lon="4.8281">
        <ele>172</ele>
        <time>2016-06-06T08:52:29.693Z</time>
      </trkpt>
      <trkpt lat="45.87878" lon="4.82819">
        <ele>172</ele>
        <time>2016-06-06T08:52:30.718Z</time>
      </trkpt>
      <trkpt lat="45.87879" lon="4.82828">
        <ele>172</ele>
        <time>2016-06-06T08:52:31.696Z</time>
      </trkpt>
      <trkpt lat="45.87879" lon="4.82838">
        <ele>171.800003052</ele>
        <time>2016-06-06T08:52:32.714Z</time>
      </trkpt>
      <trkpt lat="45.8788" lon="4.82848">
        <ele>171.5</ele>
        <time>2016-06-06T08:52:33.7Z</time>
      </trkpt>
      <trkpt lat="45.8788" lon="4.82858">
        <ele>171.199996948</ele>
        <time>2016-06-06T08:52:34.715Z</time>
      </trkpt>
      <trkpt lat="45.87881" lon="4.82868">
        <ele>171.100006104</ele>
        <time>2016-06-06T08:52:35.697Z</time>
      </trkpt>
      <trkpt lat="45.87881" lon="4.82878">
        <ele>171</ele>
        <time>2016-06-06T08:52:36.721Z</time>
      </trkpt>
      <trkpt lat="45.87881" lon="4.82887">
        <ele>170.899993896</ele>
        <time>2016-06-06T08:52:37.722Z</time>
      </trkpt>
      <trkpt lat="45.87882" lon="4.82897">
        <ele>171</ele>
        <time>2016-06-06T08:52:38.73Z</time>
      </trkpt>
      <trkpt lat="45.87883" lon="4.82906">
        <ele>171.100006104</ele>
        <time>2016-06-06T08:52:39.7Z</time>
      </trkpt>
      <trkpt lat="45.87883" lon="4.82916">
        <ele>171</ele>
        <time>2016-06-06T08:52:40.714Z</time>
      </trkpt>
      <trkpt lat="45.87883" lon="4.82926">
        <ele>170.699996948</ele>
        <time>2016-06-06T08:52:41.699Z</time>
      </trkpt>
      <trkpt lat="45.87882" lon="4.82936">
        <ele>170.399993896</ele>
        <time>2016-06-06T08:52:42.714Z</time>
      </trkpt>
      <trkpt lat="45.87882" lon="4.82946">
        <ele>170.5</ele>
        <time>2016-06-06T08:52:43.698Z</time>
      </trkpt>
      <trkpt lat="45.87882" lon="4.82956">
        <ele>170.399993896</ele>
        <time>2016-06-06T08:52:44.714Z</time>
      </trkpt>
      <trkpt lat="45.8788" lon="4.82965">
        <ele>170.399993896</ele>
        <time>2016-06-06T08:52:45.7Z</time>
      </trkpt>
      <trkpt lat="45.87879" lon="4.82974">
        <ele>170.399993896</ele>
        <time>2016-06-06T08:52:46.714Z</time>
      </trkpt>
      <trkpt lat="45.87878" lon="4.82983">
        <ele>170.300003052</ele>
        <time>2016-06-06T08:52:47.695Z</time>
      </trkpt>
      <trkpt lat="45.87877" lon="4.82992">
        <ele>170.199996948</ele>
        <time>2016-06-06T08:52:48.714Z</time>
      </trkpt>
      <trkpt lat="45.87876" lon="4.83001">
        <ele>170.100006104</ele>
        <time>2016-06-06T08:52:49.698Z</time>
      </trkpt>
      <trkpt lat="45.87875" lon="4.8301">
        <ele>169.800003052</ele>
        <time>2016-06-06T08:52:50.714Z</time>
      </trkpt>
      <trkpt lat="45.87874" lon="4.83019">
        <ele>169.800003052</ele>
        <time>2016-06-06T08:52:51.698Z</time>
      </trkpt>
      <trkpt lat="45.87873" lon="4.83028">
        <ele>169.899993896</ele>
        <time>2016-06-06T08:52:52.714Z</time>
      </trkpt>
      <trkpt lat="45.87872" lon="4.83038">
        <ele>170</ele>
        <time>2016-06-06T08:52:53.694Z</time>
      </trkpt>
      <trkpt lat="45.87871" lon="4.83047">
        <ele>169.899993896</ele>
        <time>2016-06-06T08:52:54.747Z</time>
      </trkpt>
      <trkpt lat="45.8787" lon="4.83057">
        <ele>170</ele>
        <time>2016-06-06T08:52:55.692Z</time>
      </trkpt>
      <trkpt lat="45.87869" lon="4.83066">
        <ele>170.100006104</ele>
        <time>2016-06-06T08:52:56.714Z</time>
      </trkpt>
      <trkpt lat="45.87868" lon="4.83075">
        <ele>170.100006104</ele>
        <time>2016-06-06T08:52:57.699Z</time>
      </trkpt>
      <trkpt lat="45.87867" lon="4.83084">
        <ele>170.199996948</ele>
        <time>2016-06-06T08:52:58.869Z</time>
      </trkpt>
      <trkpt lat="45.87866" lon="4.83092">
        <ele>170.300003052</ele>
        <time>2016-06-06T08:52:59.699Z</time>
      </trkpt>
      <trkpt lat="45.87864" lon="4.83101">
        <ele>170.199996948</ele>
        <time>2016-06-06T08:53:00.718Z</time>
      </trkpt>
      <trkpt lat="45.87863" lon="4.83109">
        <ele>170.300003052</ele>
        <time>2016-06-06T08:53:01.695Z</time>
      </trkpt>
      <trkpt lat="45.87862" lon="4.83118">
        <ele>170.199996948</ele>
        <time>2016-06-06T08:53:02.721Z</time>
      </trkpt>
      <trkpt lat="45.87861" lon="4.83128">
        <ele>170.199996948</ele>
        <time>2016-06-06T08:53:03.7Z</time>
      </trkpt>
      <trkpt lat="45.8786" lon="4.83137">
        <ele>170.300003052</ele>
        <time>2016-06-06T08:53:04.752Z</time>
      </trkpt>
      <trkpt lat="45.87858" lon="4.83146">
        <ele>170.300003052</ele>
        <time>2016-06-06T08:53:05.699Z</time>
      </trkpt>
      <trkpt lat="45.87858" lon="4.83154">
        <ele>170</ele>
        <time>2016-06-06T08:53:06.718Z</time>
      </trkpt>
      <trkpt lat="45.87856" lon="4.83162">
        <ele>169.399993896</ele>
        <time>2016-06-06T08:53:07.697Z</time>
      </trkpt>
      <trkpt lat="45.87856" lon="4.83171">
        <ele>169.300003052</ele>
        <time>2016-06-06T08:53:08.714Z</time>
      </trkpt>
      <trkpt lat="45.87856" lon="4.83179">
        <ele>169.300003052</ele>
        <time>2016-06-06T08:53:09.836Z</time>
      </trkpt>
      <trkpt lat="45.87853" lon="4.83187">
        <ele>169.300003052</ele>
        <time>2016-06-06T08:53:10.718Z</time>
      </trkpt>
      <trkpt lat="45.87851" lon="4.83196">
        <ele>169.300003052</ele>
        <time>2016-06-06T08:53:11.699Z</time>
      </trkpt>
      <trkpt lat="45.87849" lon="4.83205">
        <ele>169.100006104</ele>
        <time>2016-06-06T08:53:12.718Z</time>
      </trkpt>
      <trkpt lat="45.87847" lon="4.83213">
        <ele>168.699996948</ele>
        <time>2016-06-06T08:53:13.698Z</time>
      </trkpt>
      <trkpt lat="45.87844" lon="4.83222">
        <ele>168.699996948</ele>
        <time>2016-06-06T08:53:14.714Z</time>
      </trkpt>
      <trkpt lat="45.87842" lon="4.83231">
        <ele>168.300003052</ele>
        <time>2016-06-06T08:53:15.699Z</time>
      </trkpt>
      <trkpt lat="45.87839" lon="4.83241">
        <ele>168.199996948</ele>
        <time>2016-06-06T08:53:16.875Z</time>
      </trkpt>
      <trkpt lat="45.87838" lon="4.83251">
        <ele>168.699996948</ele>
        <time>2016-06-06T08:53:17.699Z</time>
      </trkpt>
      <trkpt lat="45.87836" lon="4.8326">
        <ele>168.600006104</ele>
        <time>2016-06-06T08:53:18.714Z</time>
      </trkpt>
      <trkpt lat="45.87833" lon="4.83269">
        <ele>168.5</ele>
        <time>2016-06-06T08:53:19.697Z</time>
      </trkpt>
      <trkpt lat="45.87831" lon="4.83278">
        <ele>168.399993896</ele>
        <time>2016-06-06T08:53:20.733Z</time>
      </trkpt>
      <trkpt lat="45.87828" lon="4.83287">
        <ele>168.100006104</ele>
        <time>2016-06-06T08:53:21.7Z</time>
      </trkpt>
      <trkpt lat="45.87825" lon="4.83295">
        <ele>168</ele>
        <time>2016-06-06T08:53:22.718Z</time>
      </trkpt>
      <trkpt lat="45.87822" lon="4.83304">
        <ele>167.899993896</ele>
        <time>2016-06-06T08:53:23.695Z</time>
      </trkpt>
      <trkpt lat="45.87819" lon="4.83311">
        <ele>167.600006104</ele>
        <time>2016-06-06T08:53:24.757Z</time>
      </trkpt>
      <trkpt lat="45.87816" lon="4.83319">
        <ele>167.399993896</ele>
        <time>2016-06-06T08:53:25.698Z</time>
      </trkpt>
      <trkpt lat="45.87813" lon="4.83326">
        <ele>167.100006104</ele>
        <time>2016-06-06T08:53:26.735Z</time>
      </trkpt>
      <trkpt lat="45.87812" lon="4.83335">
        <ele>167.899993896</ele>
        <time>2016-06-06T08:53:27.699Z</time>
      </trkpt>
      <trkpt lat="45.8781" lon="4.83344">
        <ele>168.199996948</ele>
        <time>2016-06-06T08:53:28.721Z</time>
      </trkpt>
      <trkpt lat="45.87807" lon="4.83352">
        <ele>168.100006104</ele>
        <time>2016-06-06T08:53:29.693Z</time>
      </trkpt>
      <trkpt lat="45.87803" lon="4.83361">
        <ele>168.199996948</ele>
        <time>2016-06-06T08:53:30.718Z</time>
      </trkpt>
      <trkpt lat="45.878" lon="4.83369">
        <ele>168.399993896</ele>
        <time>2016-06-06T08:53:31.692Z</time>
      </trkpt>
      <trkpt lat="45.87796" lon="4.83378">
        <ele>168.699996948</ele>
        <time>2016-06-06T08:53:32.714Z</time>
      </trkpt>
      <trkpt lat="45.87793" lon="4.83386">
        <ele>168.699996948</ele>
        <time>2016-06-06T08:53:33.696Z</time>
      </trkpt>
      <trkpt lat="45.87789" lon="4.83394">
        <ele>168.899993896</ele>
        <time>2016-06-06T08:53:34.714Z</time>
      </trkpt>
      <trkpt lat="45.87785" lon="4.83402">
        <ele>168.800003052</ele>
        <time>2016-06-06T08:53:35.699Z</time>
      </trkpt>
      <trkpt lat="45.87781" lon="4.8341">
        <ele>168.699996948</ele>
        <time>2016-06-06T08:53:36.729Z</time>
      </trkpt>
      <trkpt lat="45.87777" lon="4.83418">
        <ele>168.800003052</ele>
        <time>2016-06-06T08:53:37.693Z</time>
      </trkpt>
      <trkpt lat="45.87774" lon="4.83426">
        <ele>168.800003052</ele>
        <time>2016-06-06T08:53:38.719Z</time>
      </trkpt>
      <trkpt lat="45.8777" lon="4.83433">
        <ele>168.800003052</ele>
        <time>2016-06-06T08:53:39.699Z</time>
      </trkpt>
      <trkpt lat="45.87766" lon="4.8344">
        <ele>168.699996948</ele>
        <time>2016-06-06T08:53:40.718Z</time>
      </trkpt>
      <trkpt lat="45.87762" lon="4.83447">
        <ele>168.600006104</ele>
        <time>2016-06-06T08:53:41.718Z</time>
      </trkpt>
      <trkpt lat="45.87757" lon="4.83454">
        <ele>168.5</ele>
        <time>2016-06-06T08:53:42.831Z</time>
      </trkpt>
      <trkpt lat="45.87752" lon="4.8346">
        <ele>168.5</ele>
        <time>2016-06-06T08:53:43.732Z</time>
      </trkpt>
      <trkpt lat="45.87748" lon="4.83465">
        <ele>168.5</ele>
        <time>2016-06-06T08:53:44.715Z</time>
      </trkpt>
      <trkpt lat="45.87743" lon="4.83471">
        <ele>168.600006104</ele>
        <time>2016-06-06T08:53:45.7Z</time>
      </trkpt>
      <trkpt lat="45.87738" lon="4.83477">
        <ele>168.600006104</ele>
        <time>2016-06-06T08:53:46.718Z</time>
      </trkpt>
      <trkpt lat="45.87734" lon="4.83483">
        <ele>168.699996948</ele>
        <time>2016-06-06T08:53:47.698Z</time>
      </trkpt>
      <trkpt lat="45.87728" lon="4.83489">
        <ele>168.399993896</ele>
        <time>2016-06-06T08:53:48.717Z</time>
      </trkpt>
      <trkpt lat="45.87723" lon="4.83494">
        <ele>168.699996948</ele>
        <time>2016-06-06T08:53:49.696Z</time>
      </trkpt>
      <trkpt lat="45.87718" lon="4.835">
        <ele>169</ele>
        <time>2016-06-06T08:53:50.717Z</time>
      </trkpt>
      <trkpt lat="45.87713" lon="4.83506">
        <ele>169.100006104</ele>
        <time>2016-06-06T08:53:51.702Z</time>
      </trkpt>
      <trkpt lat="45.87709" lon="4.83511">
        <ele>169.100006104</ele>
        <time>2016-06-06T08:53:52.714Z</time>
      </trkpt>
      <trkpt lat="45.87704" lon="4.83516">
        <ele>169.199996948</ele>
        <time>2016-06-06T08:53:53.696Z</time>
      </trkpt>
      <trkpt lat="45.877" lon="4.83521">
        <ele>169.5</ele>
        <time>2016-06-06T08:53:54.718Z</time>
      </trkpt>
      <trkpt lat="45.87696" lon="4.83525">
        <ele>169.600006104</ele>
        <time>2016-06-06T08:53:55.698Z</time>
      </trkpt>
      <trkpt lat="45.87687" lon="4.8353">
        <ele>170.600006104</ele>
        <time>2016-06-06T08:53:57.721Z</time>
      </trkpt>
      <trkpt lat="45.87684" lon="4.83531">
        <ele>171.199996948</ele>
        <time>2016-06-06T08:53:58.698Z</time>
      </trkpt>
      <trkpt lat="45.87676" lon="4.83532">
        <ele>172</ele>
        <time>2016-06-06T08:54:00.718Z</time>
      </trkpt>
      <trkpt lat="45.87671" lon="4.83534">
        <ele>172</ele>
        <time>2016-06-06T08:54:01.698Z</time>
      </trkpt>
      <trkpt lat="45.87667" lon="4.83544">
        <ele>172.199996948</ele>
        <time>2016-06-06T08:54:03.748Z</time>
      </trkpt>
      <trkpt lat="45.87668" lon="4.83551">
        <ele>172.399993896</ele>
        <time>2016-06-06T08:54:04.698Z</time>
      </trkpt>
      <trkpt lat="45.8767" lon="4.83558">
        <ele>172.600006104</ele>
        <time>2016-06-06T08:54:05.716Z</time>
      </trkpt>
      <trkpt lat="45.87672" lon="4.83565">
        <ele>172.699996948</ele>
        <time>2016-06-06T08:54:06.698Z</time>
      </trkpt>
      <trkpt lat="45.87674" lon="4.83572">
        <ele>174.5</ele>
        <time>2016-06-06T08:54:07.732Z</time>
      </trkpt>
      <trkpt lat="45.87676" lon="4.83579">
        <ele>175.600006104</ele>
        <time>2016-06-06T08:54:08.719Z</time>
      </trkpt>
      <trkpt lat="45.87676" lon="4.83587">
        <ele>176.199996948</ele>
        <time>2016-06-06T08:54:09.721Z</time>
      </trkpt>
      <trkpt lat="45.87677" lon="4.83595">
        <ele>176.300003052</ele>
        <time>2016-06-06T08:54:10.704Z</time>
      </trkpt>
      <trkpt lat="45.87677" lon="4.83601">
        <ele>176.399993896</ele>
        <time>2016-06-06T08:54:11.716Z</time>
      </trkpt>
      <trkpt lat="45.87678" lon="4.83608">
        <ele>176.600006104</ele>
        <time>2016-06-06T08:54:12.698Z</time>
      </trkpt>
      <trkpt lat="45.87679" lon="4.83614">
        <ele>177.199996948</ele>
        <time>2016-06-06T08:54:13.745Z</time>
      </trkpt>
      <trkpt lat="45.8768" lon="4.83621">
        <ele>177.800003052</ele>
        <time>2016-06-06T08:54:14.697Z</time>
      </trkpt>
      <trkpt lat="45.87681" lon="4.83628">
        <ele>178.199996948</ele>
        <time>2016-06-06T08:54:15.718Z</time>
      </trkpt>
      <trkpt lat="45.87681" lon="4.83635">
        <ele>178.600006104</ele>
        <time>2016-06-06T08:54:16.692Z</time>
      </trkpt>
      <trkpt lat="45.87682" lon="4.83642">
        <ele>179</ele>
        <time>2016-06-06T08:54:17.719Z</time>
      </trkpt>
      <trkpt lat="45.87682" lon="4.83649">
        <ele>179.300003052</ele>
        <time>2016-06-06T08:54:18.715Z</time>
      </trkpt>
      <trkpt lat="45.87683" lon="4.83661">
        <ele>179.899993896</ele>
        <time>2016-06-06T08:54:20.721Z</time>
      </trkpt>
      <trkpt lat="45.87683" lon="4.83667">
        <ele>180.199996948</ele>
        <time>2016-06-06T08:54:21.698Z</time>
      </trkpt>
      <trkpt lat="45.87684" lon="4.83674">
        <ele>180.399993896</ele>
        <time>2016-06-06T08:54:22.716Z</time>
      </trkpt>
      <trkpt lat="45.87684" lon="4.8368">
        <ele>180.899993896</ele>
        <time>2016-06-06T08:54:23.698Z</time>
      </trkpt>
      <trkpt lat="45.87685" lon="4.83687">
        <ele>181.100006104</ele>
        <time>2016-06-06T08:54:24.756Z</time>
      </trkpt>
      <trkpt lat="45.87685" lon="4.83695">
        <ele>181.399993896</ele>
        <time>2016-06-06T08:54:25.697Z</time>
      </trkpt>
      <trkpt lat="45.87686" lon="4.83702">
        <ele>181.800003052</ele>
        <time>2016-06-06T08:54:26.717Z</time>
      </trkpt>
      <trkpt lat="45.87687" lon="4.8371">
        <ele>181.899993896</ele>
        <time>2016-06-06T08:54:27.699Z</time>
      </trkpt>
      <trkpt lat="45.87688" lon="4.83718">
        <ele>181.800003052</ele>
        <time>2016-06-06T08:54:28.714Z</time>
      </trkpt>
      <trkpt lat="45.87689" lon="4.83727">
        <ele>181.800003052</ele>
        <time>2016-06-06T08:54:29.699Z</time>
      </trkpt>
      <trkpt lat="45.8769" lon="4.83736">
        <ele>181.899993896</ele>
        <time>2016-06-06T08:54:30.714Z</time>
      </trkpt>
      <trkpt lat="45.8769" lon="4.83744">
        <ele>182</ele>
        <time>2016-06-06T08:54:31.692Z</time>
      </trkpt>
      <trkpt lat="45.87691" lon="4.83753">
        <ele>182.100006104</ele>
        <time>2016-06-06T08:54:32.714Z</time>
      </trkpt>
      <trkpt lat="45.87692" lon="4.83761">
        <ele>182.300003052</ele>
        <time>2016-06-06T08:54:33.696Z</time>
      </trkpt>
      <trkpt lat="45.87693" lon="4.8377">
        <ele>182.5</ele>
        <time>2016-06-06T08:54:34.733Z</time>
      </trkpt>
      <trkpt lat="45.87694" lon="4.83779">
        <ele>182</ele>
        <time>2016-06-06T08:54:35.698Z</time>
      </trkpt>
      <trkpt lat="45.87695" lon="4.83788">
        <ele>181.399993896</ele>
        <time>2016-06-06T08:54:36.717Z</time>
      </trkpt>
      <trkpt lat="45.87696" lon="4.83797">
        <ele>181</ele>
        <time>2016-06-06T08:54:37.692Z</time>
      </trkpt>
      <trkpt lat="45.87696" lon="4.83805">
        <ele>180.899993896</ele>
        <time>2016-06-06T08:54:38.717Z</time>
      </trkpt>
      <trkpt lat="45.87696" lon="4.83812">
        <ele>180.5</ele>
        <time>2016-06-06T08:54:39.7Z</time>
      </trkpt>
      <trkpt lat="45.87696" lon="4.83822">
        <ele>180.199996948</ele>
        <time>2016-06-06T08:54:41.716Z</time>
      </trkpt>
      <trkpt lat="45.87694" lon="4.83827">
        <ele>180.100006104</ele>
        <time>2016-06-06T08:54:42.698Z</time>
      </trkpt>
      <trkpt lat="45.87693" lon="4.83834">
        <ele>179.800003052</ele>
        <time>2016-06-06T08:54:43.744Z</time>
      </trkpt>
      <trkpt lat="45.87693" lon="4.8384">
        <ele>179.5</ele>
        <time>2016-06-06T08:54:44.698Z</time>
      </trkpt>
      <trkpt lat="45.87694" lon="4.83847">
        <ele>179.300003052</ele>
        <time>2016-06-06T08:54:45.721Z</time>
      </trkpt>
      <trkpt lat="45.87696" lon="4.83854">
        <ele>179</ele>
        <time>2016-06-06T08:54:46.696Z</time>
      </trkpt>
      <trkpt lat="45.877" lon="4.83859">
        <ele>178.699996948</ele>
        <time>2016-06-06T08:54:47.719Z</time>
      </trkpt>
      <trkpt lat="45.87704" lon="4.83864">
        <ele>178.399993896</ele>
        <time>2016-06-06T08:54:48.692Z</time>
      </trkpt>
      <trkpt lat="45.87707" lon="4.83869">
        <ele>178.199996948</ele>
        <time>2016-06-06T08:54:49.717Z</time>
      </trkpt>
      <trkpt lat="45.8771" lon="4.83875">
        <ele>178</ele>
        <time>2016-06-06T08:54:50.692Z</time>
      </trkpt>
      <trkpt lat="45.87712" lon="4.83881">
        <ele>178</ele>
        <time>2016-06-06T08:54:51.723Z</time>
      </trkpt>
      <trkpt lat="45.87713" lon="4.83887">
        <ele>177.899993896</ele>
        <time>2016-06-06T08:54:52.696Z</time>
      </trkpt>
      <trkpt lat="45.87714" lon="4.83894">
        <ele>177.699996948</ele>
        <time>2016-06-06T08:54:53.775Z</time>
      </trkpt>
      <trkpt lat="45.87715" lon="4.83901">
        <ele>177.600006104</ele>
        <time>2016-06-06T08:54:54.694Z</time>
      </trkpt>
      <trkpt lat="45.87715" lon="4.83908">
        <ele>177.199996948</ele>
        <time>2016-06-06T08:54:55.78Z</time>
      </trkpt>
      <trkpt lat="45.87716" lon="4.83915">
        <ele>176.899993896</ele>
        <time>2016-06-06T08:54:56.697Z</time>
      </trkpt>
      <trkpt lat="45.87717" lon="4.83921">
        <ele>176.699996948</ele>
        <time>2016-06-06T08:54:57.721Z</time>
      </trkpt>
      <trkpt lat="45.87718" lon="4.83928">
        <ele>176.5</ele>
        <time>2016-06-06T08:54:58.692Z</time>
      </trkpt>
      <trkpt lat="45.8772" lon="4.8394">
        <ele>176.199996948</ele>
        <time>2016-06-06T08:55:00.773Z</time>
      </trkpt>
      <trkpt lat="45.8772" lon="4.83946">
        <ele>176.100006104</ele>
        <time>2016-06-06T08:55:01.698Z</time>
      </trkpt>
      <trkpt lat="45.87721" lon="4.83952">
        <ele>176</ele>
        <time>2016-06-06T08:55:02.714Z</time>
      </trkpt>
      <trkpt lat="45.87722" lon="4.83958">
        <ele>175.899993896</ele>
        <time>2016-06-06T08:55:03.699Z</time>
      </trkpt>
      <trkpt lat="45.87723" lon="4.83965">
        <ele>175.699996948</ele>
        <time>2016-06-06T08:55:04.717Z</time>
      </trkpt>
      <trkpt lat="45.87724" lon="4.83972">
        <ele>175.600006104</ele>
        <time>2016-06-06T08:55:05.698Z</time>
      </trkpt>
      <trkpt lat="45.87725" lon="4.83979">
        <ele>175.399993896</ele>
        <time>2016-06-06T08:55:06.714Z</time>
      </trkpt>
      <trkpt lat="45.87726" lon="4.83986">
        <ele>175.300003052</ele>
        <time>2016-06-06T08:55:07.692Z</time>
      </trkpt>
      <trkpt lat="45.87726" lon="4.83993">
        <ele>175.100006104</ele>
        <time>2016-06-06T08:55:08.718Z</time>
      </trkpt>
      <trkpt lat="45.87726" lon="4.83999">
        <ele>175</ele>
        <time>2016-06-06T08:55:09.699Z</time>
      </trkpt>
      <trkpt lat="45.87726" lon="4.84011">
        <ele>174.600006104</ele>
        <time>2016-06-06T08:55:11.719Z</time>
      </trkpt>
      <trkpt lat="45.87724" lon="4.84017">
        <ele>174.5</ele>
        <time>2016-06-06T08:55:12.699Z</time>
      </trkpt>
      <trkpt lat="45.87721" lon="4.84024">
        <ele>174.399993896</ele>
        <time>2016-06-06T08:55:13.744Z</time>
      </trkpt>
      <trkpt lat="45.87719" lon="4.84029">
        <ele>174.300003052</ele>
        <time>2016-06-06T08:55:14.697Z</time>
      </trkpt>
      <trkpt lat="45.87715" lon="4.8404">
        <ele>174.100006104</ele>
        <time>2016-06-06T08:55:16.717Z</time>
      </trkpt>
      <trkpt lat="45.87713" lon="4.84046">
        <ele>174</ele>
        <time>2016-06-06T08:55:17.698Z</time>
      </trkpt>
      <trkpt lat="45.87709" lon="4.84051">
        <ele>173.899993896</ele>
        <time>2016-06-06T08:55:18.718Z</time>
      </trkpt>
      <trkpt lat="45.87707" lon="4.84056">
        <ele>173.899993896</ele>
        <time>2016-06-06T08:55:19.692Z</time>
      </trkpt>
      <trkpt lat="45.87705" lon="4.84063">
        <ele>173.800003052</ele>
        <time>2016-06-06T08:55:20.717Z</time>
      </trkpt>
      <trkpt lat="45.87703" lon="4.84069">
        <ele>173.699996948</ele>
        <time>2016-06-06T08:55:21.712Z</time>
      </trkpt>
      <trkpt lat="45.87701" lon="4.84076">
        <ele>173.600006104</ele>
        <time>2016-06-06T08:55:22.745Z</time>
      </trkpt>
      <trkpt lat="45.87699" lon="4.84083">
        <ele>173.399993896</ele>
        <time>2016-06-06T08:55:23.695Z</time>
      </trkpt>
      <trkpt lat="45.87697" lon="4.8409">
        <ele>173.300003052</ele>
        <time>2016-06-06T08:55:24.718Z</time>
      </trkpt>
      <trkpt lat="45.87694" lon="4.84095">
        <ele>173.199996948</ele>
        <time>2016-06-06T08:55:25.697Z</time>
      </trkpt>
      <trkpt lat="45.87692" lon="4.84102">
        <ele>173.100006104</ele>
        <time>2016-06-06T08:55:26.713Z</time>
      </trkpt>
      <trkpt lat="45.8769" lon="4.84108">
        <ele>173.100006104</ele>
        <time>2016-06-06T08:55:27.699Z</time>
      </trkpt>
      <trkpt lat="45.87686" lon="4.8412">
        <ele>173.100006104</ele>
        <time>2016-06-06T08:55:29.715Z</time>
      </trkpt>
      <trkpt lat="45.87684" lon="4.84125">
        <ele>172.899993896</ele>
        <time>2016-06-06T08:55:30.714Z</time>
      </trkpt>
      <trkpt lat="45.87679" lon="4.8413">
        <ele>172.5</ele>
        <time>2016-06-06T08:55:31.717Z</time>
      </trkpt>
      <trkpt lat="45.87676" lon="4.84135">
        <ele>172.800003052</ele>
        <time>2016-06-06T08:55:32.786Z</time>
      </trkpt>
      <trkpt lat="45.87673" lon="4.84147">
        <ele>173.199996948</ele>
        <time>2016-06-06T08:55:34.717Z</time>
      </trkpt>
      <trkpt lat="45.87672" lon="4.84153">
        <ele>173.100006104</ele>
        <time>2016-06-06T08:55:35.699Z</time>
      </trkpt>
      <trkpt lat="45.8767" lon="4.84166">
        <ele>172.899993896</ele>
        <time>2016-06-06T08:55:37.731Z</time>
      </trkpt>
      <trkpt lat="45.8767" lon="4.84171">
        <ele>172.699996948</ele>
        <time>2016-06-06T08:55:38.699Z</time>
      </trkpt>
      <trkpt lat="45.87667" lon="4.84181">
        <ele>172.600006104</ele>
        <time>2016-06-06T08:55:40.714Z</time>
      </trkpt>
      <trkpt lat="45.87664" lon="4.84187">
        <ele>172.699996948</ele>
        <time>2016-06-06T08:55:41.696Z</time>
      </trkpt>
      <trkpt lat="45.87661" lon="4.84197">
        <ele>172.899993896</ele>
        <time>2016-06-06T08:55:44.015Z</time>
      </trkpt>
      <trkpt lat="45.87659" lon="4.84202">
        <ele>173.100006104</ele>
        <time>2016-06-06T08:55:44.698Z</time>
      </trkpt>
      <trkpt lat="45.87656" lon="4.84212">
        <ele>173.399993896</ele>
        <time>2016-06-06T08:55:46.714Z</time>
      </trkpt>
      <trkpt lat="45.87655" lon="4.84216">
        <ele>173.399993896</ele>
        <time>2016-06-06T08:55:47.698Z</time>
      </trkpt>
      <trkpt lat="45.87654" lon="4.84227">
        <ele>174.199996948</ele>
        <time>2016-06-06T08:55:49.718Z</time>
      </trkpt>
      <trkpt lat="45.87652" lon="4.84234">
        <ele>174.300003052</ele>
        <time>2016-06-06T08:55:50.697Z</time>
      </trkpt>
      <trkpt lat="45.87651" lon="4.8424">
        <ele>174.5</ele>
        <time>2016-06-06T08:55:51.723Z</time>
      </trkpt>
      <trkpt lat="45.8765" lon="4.84247">
        <ele>174.699996948</ele>
        <time>2016-06-06T08:55:52.697Z</time>
      </trkpt>
      <trkpt lat="45.87648" lon="4.84259">
        <ele>174.899993896</ele>
        <time>2016-06-06T08:55:54.717Z</time>
      </trkpt>
      <trkpt lat="45.87647" lon="4.84264">
        <ele>175.300003052</ele>
        <time>2016-06-06T08:55:55.692Z</time>
      </trkpt>
      <trkpt lat="45.87646" lon="4.84275">
        <ele>175.800003052</ele>
        <time>2016-06-06T08:55:57.72Z</time>
      </trkpt>
      <trkpt lat="45.87645" lon="4.84279">
        <ele>176.199996948</ele>
        <time>2016-06-06T08:55:58.686Z</time>
      </trkpt>
      <trkpt lat="45.87641" lon="4.84288">
        <ele>177.5</ele>
        <time>2016-06-06T08:56:02.717Z</time>
      </trkpt>
      <trkpt lat="45.87639" lon="4.84292">
        <ele>178.100006104</ele>
        <time>2016-06-06T08:56:03.713Z</time>
      </trkpt>
      <trkpt lat="45.87637" lon="4.843">
        <ele>179.899993896</ele>
        <time>2016-06-06T08:56:05.718Z</time>
      </trkpt>
      <trkpt lat="45.87636" lon="4.84305">
        <ele>180.199996948</ele>
        <time>2016-06-06T08:56:06.697Z</time>
      </trkpt>
      <trkpt lat="45.87636" lon="4.84315">
        <ele>181.100006104</ele>
        <time>2016-06-06T08:56:08.717Z</time>
      </trkpt>
      <trkpt lat="45.87638" lon="4.84321">
        <ele>182.199996948</ele>
        <time>2016-06-06T08:56:09.699Z</time>
      </trkpt>
      <trkpt lat="45.87639" lon="4.84331">
        <ele>183.100006104</ele>
        <time>2016-06-06T08:56:11.714Z</time>
      </trkpt>
      <trkpt lat="45.8764" lon="4.84336">
        <ele>184.100006104</ele>
        <time>2016-06-06T08:56:12.692Z</time>
      </trkpt>
      <trkpt lat="45.87642" lon="4.84346">
        <ele>185.600006104</ele>
        <time>2016-06-06T08:56:14.714Z</time>
      </trkpt>
      <trkpt lat="45.87643" lon="4.84352">
        <ele>186.399993896</ele>
        <time>2016-06-06T08:56:15.696Z</time>
      </trkpt>
      <trkpt lat="45.87645" lon="4.84361">
        <ele>187.300003052</ele>
        <time>2016-06-06T08:56:17.746Z</time>
      </trkpt>
      <trkpt lat="45.87646" lon="4.84365">
        <ele>187.600006104</ele>
        <time>2016-06-06T08:56:18.692Z</time>
      </trkpt>
      <trkpt lat="45.87647" lon="4.84374">
        <ele>188.100006104</ele>
        <time>2016-06-06T08:56:20.713Z</time>
      </trkpt>
      <trkpt lat="45.87647" lon="4.84379">
        <ele>188.399993896</ele>
        <time>2016-06-06T08:56:21.699Z</time>
      </trkpt>
      <trkpt lat="45.87648" lon="4.84388">
        <ele>188.899993896</ele>
        <time>2016-06-06T08:56:23.747Z</time>
      </trkpt>
      <trkpt lat="45.87648" lon="4.84393">
        <ele>189.300003052</ele>
        <time>2016-06-06T08:56:24.718Z</time>
      </trkpt>
      <trkpt lat="45.87649" lon="4.84403">
        <ele>189.399993896</ele>
        <time>2016-06-06T08:56:26.717Z</time>
      </trkpt>
      <trkpt lat="45.87649" lon="4.84407">
        <ele>189.699996948</ele>
        <time>2016-06-06T08:56:27.699Z</time>
      </trkpt>
      <trkpt lat="45.8765" lon="4.84416">
        <ele>190.600006104</ele>
        <time>2016-06-06T08:56:29.886Z</time>
      </trkpt>
      <trkpt lat="45.8765" lon="4.8442">
        <ele>191.100006104</ele>
        <time>2016-06-06T08:56:30.699Z</time>
      </trkpt>
      <trkpt lat="45.87651" lon="4.84429">
        <ele>191.5</ele>
        <time>2016-06-06T08:56:32.714Z</time>
      </trkpt>
      <trkpt lat="45.87652" lon="4.84434">
        <ele>192.300003052</ele>
        <time>2016-06-06T08:56:33.699Z</time>
      </trkpt>
      <trkpt lat="45.87652" lon="4.84444">
        <ele>192.5</ele>
        <time>2016-06-06T08:56:35.72Z</time>
      </trkpt>
      <trkpt lat="45.87652" lon="4.84449">
        <ele>192.5</ele>
        <time>2016-06-06T08:56:36.694Z</time>
      </trkpt>
      <trkpt lat="45.87653" lon="4.84459">
        <ele>192.399993896</ele>
        <time>2016-06-06T08:56:38.714Z</time>
      </trkpt>
      <trkpt lat="45.87654" lon="4.84464">
        <ele>192.199996948</ele>
        <time>2016-06-06T08:56:39.695Z</time>
      </trkpt>
      <trkpt lat="45.87655" lon="4.84474">
        <ele>192.100006104</ele>
        <time>2016-06-06T08:56:41.714Z</time>
      </trkpt>
      <trkpt lat="45.87656" lon="4.84479">
        <ele>192.100006104</ele>
        <time>2016-06-06T08:56:42.697Z</time>
      </trkpt>
      <trkpt lat="45.87658" lon="4.84488">
        <ele>192.199996948</ele>
        <time>2016-06-06T08:56:44.714Z</time>
      </trkpt>
      <trkpt lat="45.87659" lon="4.84492">
        <ele>192.399993896</ele>
        <time>2016-06-06T08:56:45.699Z</time>
      </trkpt>
      <trkpt lat="45.87659" lon="4.84501">
        <ele>192.600006104</ele>
        <time>2016-06-06T08:56:47.718Z</time>
      </trkpt>
      <trkpt lat="45.87659" lon="4.84506">
        <ele>192.5</ele>
        <time>2016-06-06T08:56:48.695Z</time>
      </trkpt>
      <trkpt lat="45.8766" lon="4.84516">
        <ele>192.899993896</ele>
        <time>2016-06-06T08:56:50.733Z</time>
      </trkpt>
      <trkpt lat="45.8766" lon="4.84521">
        <ele>193.100006104</ele>
        <time>2016-06-06T08:56:51.698Z</time>
      </trkpt>
      <trkpt lat="45.87658" lon="4.8453">
        <ele>193.199996948</ele>
        <time>2016-06-06T08:56:53.746Z</time>
      </trkpt>
      <trkpt lat="45.87657" lon="4.84534">
        <ele>193.399993896</ele>
        <time>2016-06-06T08:56:54.695Z</time>
      </trkpt>
      <trkpt lat="45.87656" lon="4.84543">
        <ele>193.5</ele>
        <time>2016-06-06T08:56:56.761Z</time>
      </trkpt>
      <trkpt lat="45.87655" lon="4.84548">
        <ele>193.600006104</ele>
        <time>2016-06-06T08:56:57.699Z</time>
      </trkpt>
      <trkpt lat="45.87654" lon="4.84556">
        <ele>193.800003052</ele>
        <time>2016-06-06T08:56:59.714Z</time>
      </trkpt>
      <trkpt lat="45.87654" lon="4.84561">
        <ele>193.899993896</ele>
        <time>2016-06-06T08:57:00.694Z</time>
      </trkpt>
      <trkpt lat="45.87653" lon="4.84569">
        <ele>194.300003052</ele>
        <time>2016-06-06T08:57:02.717Z</time>
      </trkpt>
      <trkpt lat="45.87653" lon="4.84574">
        <ele>194.399993896</ele>
        <time>2016-06-06T08:57:03.699Z</time>
      </trkpt>
      <trkpt lat="45.87652" lon="4.84583">
        <ele>194.600006104</ele>
        <time>2016-06-06T08:57:05.718Z</time>
      </trkpt>
      <trkpt lat="45.87652" lon="4.84587">
        <ele>194.800003052</ele>
        <time>2016-06-06T08:57:06.692Z</time>
      </trkpt>
      <trkpt lat="45.8765" lon="4.84596">
        <ele>195.300003052</ele>
        <time>2016-06-06T08:57:08.716Z</time>
      </trkpt>
      <trkpt lat="45.8765" lon="4.846">
        <ele>195.699996948</ele>
        <time>2016-06-06T08:57:09.695Z</time>
      </trkpt>
      <trkpt lat="45.8765" lon="4.8461">
        <ele>196</ele>
        <time>2016-06-06T08:57:11.729Z</time>
      </trkpt>
      <trkpt lat="45.8765" lon="4.84615">
        <ele>196.199996948</ele>
        <time>2016-06-06T08:57:12.694Z</time>
      </trkpt>
      <trkpt lat="45.87648" lon="4.84624">
        <ele>196.699996948</ele>
        <time>2016-06-06T08:57:14.713Z</time>
      </trkpt>
      <trkpt lat="45.87647" lon="4.8463">
        <ele>196.300003052</ele>
        <time>2016-06-06T08:57:15.696Z</time>
      </trkpt>
      <trkpt lat="45.87646" lon="4.8464">
        <ele>195.899993896</ele>
        <time>2016-06-06T08:57:17.718Z</time>
      </trkpt>
      <trkpt lat="45.87648" lon="4.84643">
        <ele>196.600006104</ele>
        <time>2016-06-06T08:57:18.694Z</time>
      </trkpt>
      <trkpt lat="45.87647" lon="4.84652">
        <ele>197.800003052</ele>
        <time>2016-06-06T08:57:20.717Z</time>
      </trkpt>
      <trkpt lat="45.87646" lon="4.84656">
        <ele>197.899993896</ele>
        <time>2016-06-06T08:57:21.695Z</time>
      </trkpt>
      <trkpt lat="45.87645" lon="4.84665">
        <ele>198.199996948</ele>
        <time>2016-06-06T08:57:23.747Z</time>
      </trkpt>
      <trkpt lat="45.87644" lon="4.84669">
        <ele>198.300003052</ele>
        <time>2016-06-06T08:57:24.694Z</time>
      </trkpt>
      <trkpt lat="45.87643" lon="4.84681">
        <ele>197.899993896</ele>
        <time>2016-06-06T08:57:27.721Z</time>
      </trkpt>
      <trkpt lat="45.87642" lon="4.84685">
        <ele>197.899993896</ele>
        <time>2016-06-06T08:57:28.691Z</time>
      </trkpt>
      <trkpt lat="45.8764" lon="4.84697">
        <ele>198.100006104</ele>
        <time>2016-06-06T08:57:31.721Z</time>
      </trkpt>
      <trkpt lat="45.87639" lon="4.84701">
        <ele>198.300003052</ele>
        <time>2016-06-06T08:57:32.692Z</time>
      </trkpt>
      <trkpt lat="45.87638" lon="4.84713">
        <ele>198.5</ele>
        <time>2016-06-06T08:57:35.717Z</time>
      </trkpt>
      <trkpt lat="45.87638" lon="4.84718">
        <ele>198.600006104</ele>
        <time>2016-06-06T08:57:36.695Z</time>
      </trkpt>
      <trkpt lat="45.87637" lon="4.84726">
        <ele>198.699996948</ele>
        <time>2016-06-06T08:57:38.716Z</time>
      </trkpt>
      <trkpt lat="45.87637" lon="4.84731">
        <ele>198.699996948</ele>
        <time>2016-06-06T08:57:39.695Z</time>
      </trkpt>
      <trkpt lat="45.87636" lon="4.84742">
        <ele>199.5</ele>
        <time>2016-06-06T08:57:42.731Z</time>
      </trkpt>
      <trkpt lat="45.87635" lon="4.84746">
        <ele>199.800003052</ele>
        <time>2016-06-06T08:57:43.697Z</time>
      </trkpt>
      <trkpt lat="45.87634" lon="4.84759">
        <ele>200</ele>
        <time>2016-06-06T08:57:46.716Z</time>
      </trkpt>
      <trkpt lat="45.87634" lon="4.84763">
        <ele>200.300003052</ele>
        <time>2016-06-06T08:57:47.696Z</time>
      </trkpt>
      <trkpt lat="45.87632" lon="4.84775">
        <ele>201.300003052</ele>
        <time>2016-06-06T08:57:50.713Z</time>
      </trkpt>
      <trkpt lat="45.87632" lon="4.84779">
        <ele>201.800003052</ele>
        <time>2016-06-06T08:57:51.736Z</time>
      </trkpt>
      <trkpt lat="45.87631" lon="4.84789">
        <ele>202.399993896</ele>
        <time>2016-06-06T08:57:54.753Z</time>
      </trkpt>
      <trkpt lat="45.87631" lon="4.84793">
        <ele>203.100006104</ele>
        <time>2016-06-06T08:57:55.721Z</time>
      </trkpt>
      <trkpt lat="45.87631" lon="4.84802">
        <ele>203.800003052</ele>
        <time>2016-06-06T08:57:58.754Z</time>
      </trkpt>
      <trkpt lat="45.87631" lon="4.84806">
        <ele>203.800003052</ele>
        <time>2016-06-06T08:57:59.698Z</time>
      </trkpt>
      <trkpt lat="45.87629" lon="4.84816">
        <ele>203.5</ele>
        <time>2016-06-06T08:58:02.714Z</time>
      </trkpt>
      <trkpt lat="45.87629" lon="4.84819">
        <ele>203.600006104</ele>
        <time>2016-06-06T08:58:03.698Z</time>
      </trkpt>
      <trkpt lat="45.87628" lon="4.84829">
        <ele>203.800003052</ele>
        <time>2016-06-06T08:58:06.716Z</time>
      </trkpt>
      <trkpt lat="45.87627" lon="4.84832">
        <ele>203.899993896</ele>
        <time>2016-06-06T08:58:07.691Z</time>
      </trkpt>
      <trkpt lat="45.87625" lon="4.84844">
        <ele>204.5</ele>
        <time>2016-06-06T08:58:11.719Z</time>
      </trkpt>
      <trkpt lat="45.87625" lon="4.84847">
        <ele>204.899993896</ele>
        <time>2016-06-06T08:58:12.696Z</time>
      </trkpt>
      <trkpt lat="45.87627" lon="4.84857">
        <ele>205.399993896</ele>
        <time>2016-06-06T08:58:15.719Z</time>
      </trkpt>
      <trkpt lat="45.87628" lon="4.8486">
        <ele>205.5</ele>
        <time>2016-06-06T08:58:16.696Z</time>
      </trkpt>
      <trkpt lat="45.87632" lon="4.84869">
        <ele>206</ele>
        <time>2016-06-06T08:58:19.731Z</time>
      </trkpt>
      <trkpt lat="45.87635" lon="4.84872">
        <ele>205.899993896</ele>
        <time>2016-06-06T08:58:20.697Z</time>
      </trkpt>
      <trkpt lat="45.87639" lon="4.84882">
        <ele>206.300003052</ele>
        <time>2016-06-06T08:58:23.742Z</time>
      </trkpt>
      <trkpt lat="45.87641" lon="4.84885">
        <ele>206.300003052</ele>
        <time>2016-06-06T08:58:24.692Z</time>
      </trkpt>
      <trkpt lat="45.87646" lon="4.84894">
        <ele>206.800003052</ele>
        <time>2016-06-06T08:58:27.749Z</time>
      </trkpt>
      <trkpt lat="45.87648" lon="4.84896">
        <ele>207.300003052</ele>
        <time>2016-06-06T08:58:28.698Z</time>
      </trkpt>
      <trkpt lat="45.87655" lon="4.84904">
        <ele>208.699996948</ele>
        <time>2016-06-06T08:58:31.735Z</time>
      </trkpt>
      <trkpt lat="45.87657" lon="4.84906">
        <ele>208.899993896</ele>
        <time>2016-06-06T08:58:32.691Z</time>
      </trkpt>
      <trkpt lat="45.87663" lon="4.84914">
        <ele>209.399993896</ele>
        <time>2016-06-06T08:58:35.84Z</time>
      </trkpt>
      <trkpt lat="45.87665" lon="4.84917">
        <ele>209.5</ele>
        <time>2016-06-06T08:58:36.692Z</time>
      </trkpt>
      <trkpt lat="45.87671" lon="4.84925">
        <ele>210.399993896</ele>
        <time>2016-06-06T08:58:39.717Z</time>
      </trkpt>
      <trkpt lat="45.87673" lon="4.84928">
        <ele>210.5</ele>
        <time>2016-06-06T08:58:40.697Z</time>
      </trkpt>
      <trkpt lat="45.87679" lon="4.84936">
        <ele>211</ele>
        <time>2016-06-06T08:58:43.751Z</time>
      </trkpt>
      <trkpt lat="45.87681" lon="4.84939">
        <ele>211.199996948</ele>
        <time>2016-06-06T08:58:44.695Z</time>
      </trkpt>
      <trkpt lat="45.87687" lon="4.84947">
        <ele>211.899993896</ele>
        <time>2016-06-06T08:58:47.77Z</time>
      </trkpt>
      <trkpt lat="45.87689" lon="4.8495">
        <ele>212.100006104</ele>
        <time>2016-06-06T08:58:48.736Z</time>
      </trkpt>
      <trkpt lat="45.87694" lon="4.84956">
        <ele>212.5</ele>
        <time>2016-06-06T08:58:51.746Z</time>
      </trkpt>
      <trkpt lat="45.87695" lon="4.84958">
        <ele>212.5</ele>
        <time>2016-06-06T08:58:52.724Z</time>
      </trkpt>
      <trkpt lat="45.87701" lon="4.84968">
        <ele>212.800003052</ele>
        <time>2016-06-06T08:58:55.714Z</time>
      </trkpt>
      <trkpt lat="45.87703" lon="4.8497">
        <ele>212.800003052</ele>
        <time>2016-06-06T08:58:56.697Z</time>
      </trkpt>
      <trkpt lat="45.87709" lon="4.84978">
        <ele>213</ele>
        <time>2016-06-06T08:58:59.714Z</time>
      </trkpt>
      <trkpt lat="45.87711" lon="4.84981">
        <ele>213.100006104</ele>
        <time>2016-06-06T08:59:00.693Z</time>
      </trkpt>
      <trkpt lat="45.87717" lon="4.8499">
        <ele>213.300003052</ele>
        <time>2016-06-06T08:59:03.717Z</time>
      </trkpt>
      <trkpt lat="45.87718" lon="4.84993">
        <ele>213.300003052</ele>
        <time>2016-06-06T08:59:04.691Z</time>
      </trkpt>
      <trkpt lat="45.87723" lon="4.85">
        <ele>213.399993896</ele>
        <time>2016-06-06T08:59:07.735Z</time>
      </trkpt>
      <trkpt lat="45.87725" lon="4.85003">
        <ele>213.300003052</ele>
        <time>2016-06-06T08:59:08.697Z</time>
      </trkpt>
      <trkpt lat="45.87731" lon="4.8501">
        <ele>213.800003052</ele>
        <time>2016-06-06T08:59:11.717Z</time>
      </trkpt>
      <trkpt lat="45.87733" lon="4.85013">
        <ele>214</ele>
        <time>2016-06-06T08:59:12.697Z</time>
      </trkpt>
      <trkpt lat="45.87739" lon="4.85021">
        <ele>214</ele>
        <time>2016-06-06T08:59:15.747Z</time>
      </trkpt>
      <trkpt lat="45.87741" lon="4.85023">
        <ele>214.199996948</ele>
        <time>2016-06-06T08:59:16.691Z</time>
      </trkpt>
      <trkpt lat="45.87748" lon="4.85031">
        <ele>214.899993896</ele>
        <time>2016-06-06T08:59:19.714Z</time>
      </trkpt>
      <trkpt lat="45.87749" lon="4.85034">
        <ele>215.199996948</ele>
        <time>2016-06-06T08:59:20.691Z</time>
      </trkpt>
      <trkpt lat="45.87754" lon="4.85044">
        <ele>215.600006104</ele>
        <time>2016-06-06T08:59:23.717Z</time>
      </trkpt>
      <trkpt lat="45.87756" lon="4.85047">
        <ele>215.600006104</ele>
        <time>2016-06-06T08:59:24.693Z</time>
      </trkpt>
      <trkpt lat="45.87761" lon="4.85055">
        <ele>216.800003052</ele>
        <time>2016-06-06T08:59:27.718Z</time>
      </trkpt>
      <trkpt lat="45.87763" lon="4.85057">
        <ele>217.300003052</ele>
        <time>2016-06-06T08:59:28.754Z</time>
      </trkpt>
      <trkpt lat="45.87769" lon="4.85065">
        <ele>217.600006104</ele>
        <time>2016-06-06T08:59:31.714Z</time>
      </trkpt>
      <trkpt lat="45.87771" lon="4.85068">
        <ele>217.899993896</ele>
        <time>2016-06-06T08:59:32.697Z</time>
      </trkpt>
      <trkpt lat="45.87775" lon="4.85075">
        <ele>219</ele>
        <time>2016-06-06T08:59:34.714Z</time>
      </trkpt>
      <trkpt lat="45.87778" lon="4.85078">
        <ele>219.399993896</ele>
        <time>2016-06-06T08:59:35.692Z</time>
      </trkpt>
      <trkpt lat="45.87784" lon="4.85086">
        <ele>220.600006104</ele>
        <time>2016-06-06T08:59:38.713Z</time>
      </trkpt>
      <trkpt lat="45.87786" lon="4.85089">
        <ele>220.899993896</ele>
        <time>2016-06-06T08:59:39.696Z</time>
      </trkpt>
      <trkpt lat="45.87792" lon="4.85097">
        <ele>221.600006104</ele>
        <time>2016-06-06T08:59:42.723Z</time>
      </trkpt>
      <trkpt lat="45.87794" lon="4.851">
        <ele>221.800003052</ele>
        <time>2016-06-06T08:59:43.697Z</time>
      </trkpt>
      <trkpt lat="45.87801" lon="4.85108">
        <ele>222</ele>
        <time>2016-06-06T08:59:46.74Z</time>
      </trkpt>
      <trkpt lat="45.87803" lon="4.85111">
        <ele>221.899993896</ele>
        <time>2016-06-06T08:59:47.695Z</time>
      </trkpt>
      <trkpt lat="45.8781" lon="4.85119">
        <ele>223.199996948</ele>
        <time>2016-06-06T08:59:50.714Z</time>
      </trkpt>
      <trkpt lat="45.87812" lon="4.85122">
        <ele>223.399993896</ele>
        <time>2016-06-06T08:59:51.698Z</time>
      </trkpt>
      <trkpt lat="45.87817" lon="4.85127">
        <ele>224.600006104</ele>
        <time>2016-06-06T08:59:53.718Z</time>
      </trkpt>
      <trkpt lat="45.87819" lon="4.8513">
        <ele>224.699996948</ele>
        <time>2016-06-06T08:59:54.697Z</time>
      </trkpt>
      <trkpt lat="45.87825" lon="4.85138">
        <ele>226.199996948</ele>
        <time>2016-06-06T08:59:57.717Z</time>
      </trkpt>
      <trkpt lat="45.87827" lon="4.85141">
        <ele>226.100006104</ele>
        <time>2016-06-06T08:59:58.698Z</time>
      </trkpt>
      <trkpt lat="45.87832" lon="4.85149">
        <ele>226.600006104</ele>
        <time>2016-06-06T09:00:01.754Z</time>
      </trkpt>
      <trkpt lat="45.87834" lon="4.85152">
        <ele>226.800003052</ele>
        <time>2016-06-06T09:00:02.691Z</time>
      </trkpt>
      <trkpt lat="45.87841" lon="4.8516">
        <ele>227.399993896</ele>
        <time>2016-06-06T09:00:05.719Z</time>
      </trkpt>
      <trkpt lat="45.87843" lon="4.85162">
        <ele>227.800003052</ele>
        <time>2016-06-06T09:00:06.691Z</time>
      </trkpt>
      <trkpt lat="45.87849" lon="4.85171">
        <ele>228.899993896</ele>
        <time>2016-06-06T09:00:09.718Z</time>
      </trkpt>
      <trkpt lat="45.8785" lon="4.85175">
        <ele>229.399993896</ele>
        <time>2016-06-06T09:00:10.712Z</time>
      </trkpt>
      <trkpt lat="45.87856" lon="4.85184">
        <ele>230.100006104</ele>
        <time>2016-06-06T09:00:13.713Z</time>
      </trkpt>
      <trkpt lat="45.87859" lon="4.85187">
        <ele>230.100006104</ele>
        <time>2016-06-06T09:00:14.691Z</time>
      </trkpt>
      <trkpt lat="45.87865" lon="4.85196">
        <ele>229.899993896</ele>
        <time>2016-06-06T09:00:17.715Z</time>
      </trkpt>
      <trkpt lat="45.87866" lon="4.85199">
        <ele>229.600006104</ele>
        <time>2016-06-06T09:00:18.691Z</time>
      </trkpt>
      <trkpt lat="45.87872" lon="4.85207">
        <ele>229.899993896</ele>
        <time>2016-06-06T09:00:21.717Z</time>
      </trkpt>
      <trkpt lat="45.87874" lon="4.8521">
        <ele>229.899993896</ele>
        <time>2016-06-06T09:00:22.691Z</time>
      </trkpt>
      <trkpt lat="45.8788" lon="4.85218">
        <ele>230.600006104</ele>
        <time>2016-06-06T09:00:25.718Z</time>
      </trkpt>
      <trkpt lat="45.87882" lon="4.85221">
        <ele>230.800003052</ele>
        <time>2016-06-06T09:00:26.812Z</time>
      </trkpt>
      <trkpt lat="45.87887" lon="4.85227">
        <ele>231.199996948</ele>
        <time>2016-06-06T09:00:28.747Z</time>
      </trkpt>
      <trkpt lat="45.8789" lon="4.85231">
        <ele>231.300003052</ele>
        <time>2016-06-06T09:00:29.693Z</time>
      </trkpt>
      <trkpt lat="45.87896" lon="4.85238">
        <ele>231.699996948</ele>
        <time>2016-06-06T09:00:32.713Z</time>
      </trkpt>
      <trkpt lat="45.87898" lon="4.85241">
        <ele>232.100006104</ele>
        <time>2016-06-06T09:00:33.696Z</time>
      </trkpt>
      <trkpt lat="45.87903" lon="4.85248">
        <ele>232.600006104</ele>
        <time>2016-06-06T09:00:36.714Z</time>
      </trkpt>
      <trkpt lat="45.87905" lon="4.85251">
        <ele>232.800003052</ele>
        <time>2016-06-06T09:00:37.693Z</time>
      </trkpt>
      <trkpt lat="45.8791" lon="4.85258">
        <ele>234.399993896</ele>
        <time>2016-06-06T09:00:40.717Z</time>
      </trkpt>
      <trkpt lat="45.87912" lon="4.85261">
        <ele>234.800003052</ele>
        <time>2016-06-06T09:00:41.693Z</time>
      </trkpt>
      <trkpt lat="45.87917" lon="4.85268">
        <ele>236.100006104</ele>
        <time>2016-06-06T09:00:44.716Z</time>
      </trkpt>
      <trkpt lat="45.87919" lon="4.85271">
        <ele>236.399993896</ele>
        <time>2016-06-06T09:00:45.699Z</time>
      </trkpt>
      <trkpt lat="45.87925" lon="4.85279">
        <ele>237</ele>
        <time>2016-06-06T09:00:48.918Z</time>
      </trkpt>
      <trkpt lat="45.87927" lon="4.85282">
        <ele>237.300003052</ele>
        <time>2016-06-06T09:00:49.692Z</time>
      </trkpt>
      <trkpt lat="45.87933" lon="4.85291">
        <ele>237.199996948</ele>
        <time>2016-06-06T09:00:53.043Z</time>
      </trkpt>
      <trkpt lat="45.87935" lon="4.85294">
        <ele>237</ele>
        <time>2016-06-06T09:00:53.696Z</time>
      </trkpt>
      <trkpt lat="45.87941" lon="4.85303">
        <ele>237</ele>
        <time>2016-06-06T09:00:56.748Z</time>
      </trkpt>
      <trkpt lat="45.87943" lon="4.85306">
        <ele>237</ele>
        <time>2016-06-06T09:00:57.695Z</time>
      </trkpt>
      <trkpt lat="45.87948" lon="4.85314">
        <ele>236.5</ele>
        <time>2016-06-06T09:01:00.722Z</time>
      </trkpt>
      <trkpt lat="45.8795" lon="4.85317">
        <ele>236.199996948</ele>
        <time>2016-06-06T09:01:01.701Z</time>
      </trkpt>
      <trkpt lat="45.87956" lon="4.85325">
        <ele>236.399993896</ele>
        <time>2016-06-06T09:01:04.719Z</time>
      </trkpt>
      <trkpt lat="45.87958" lon="4.85328">
        <ele>236.399993896</ele>
        <time>2016-06-06T09:01:05.693Z</time>
      </trkpt>
      <trkpt lat="45.87964" lon="4.85336">
        <ele>235.899993896</ele>
        <time>2016-06-06T09:01:08.746Z</time>
      </trkpt>
      <trkpt lat="45.87966" lon="4.85339">
        <ele>235.899993896</ele>
        <time>2016-06-06T09:01:09.708Z</time>
      </trkpt>
      <trkpt lat="45.87972" lon="4.85347">
        <ele>236.399993896</ele>
        <time>2016-06-06T09:01:12.721Z</time>
      </trkpt>
      <trkpt lat="45.87973" lon="4.8535">
        <ele>236.100006104</ele>
        <time>2016-06-06T09:01:13.699Z</time>
      </trkpt>
      <trkpt lat="45.87979" lon="4.85357">
        <ele>236.800003052</ele>
        <time>2016-06-06T09:01:16.798Z</time>
      </trkpt>
      <trkpt lat="45.87981" lon="4.8536">
        <ele>236.800003052</ele>
        <time>2016-06-06T09:01:17.697Z</time>
      </trkpt>
      <trkpt lat="45.87986" lon="4.85369">
        <ele>237</ele>
        <time>2016-06-06T09:01:20.72Z</time>
      </trkpt>
      <trkpt lat="45.87988" lon="4.85371">
        <ele>236.699996948</ele>
        <time>2016-06-06T09:01:21.703Z</time>
      </trkpt>
      <trkpt lat="45.87993" lon="4.85379">
        <ele>237</ele>
        <time>2016-06-06T09:01:24.737Z</time>
      </trkpt>
      <trkpt lat="45.87994" lon="4.85382">
        <ele>236.899993896</ele>
        <time>2016-06-06T09:01:25.7Z</time>
      </trkpt>
      <trkpt lat="45.87999" lon="4.85389">
        <ele>237.5</ele>
        <time>2016-06-06T09:01:28.72Z</time>
      </trkpt>
      <trkpt lat="45.88001" lon="4.85392">
        <ele>237.699996948</ele>
        <time>2016-06-06T09:01:29.7Z</time>
      </trkpt>
      <trkpt lat="45.88007" lon="4.85399">
        <ele>238.699996948</ele>
        <time>2016-06-06T09:01:32.72Z</time>
      </trkpt>
      <trkpt lat="45.88009" lon="4.85402">
        <ele>239.100006104</ele>
        <time>2016-06-06T09:01:33.702Z</time>
      </trkpt>
      <trkpt lat="45.88016" lon="4.85407">
        <ele>239.800003052</ele>
        <time>2016-06-06T09:01:36.719Z</time>
      </trkpt>
      <trkpt lat="45.88017" lon="4.85409">
        <ele>240.300003052</ele>
        <time>2016-06-06T09:01:37.695Z</time>
      </trkpt>
      <trkpt lat="45.88024" lon="4.85413">
        <ele>242</ele>
        <time>2016-06-06T09:01:40.736Z</time>
      </trkpt>
      <trkpt lat="45.88026" lon="4.85414">
        <ele>242.399993896</ele>
        <time>2016-06-06T09:01:41.698Z</time>
      </trkpt>
      <trkpt lat="45.88032" lon="4.85415">
        <ele>242.899993896</ele>
        <time>2016-06-06T09:01:43.716Z</time>
      </trkpt>
      <trkpt lat="45.88035" lon="4.85415">
        <ele>243.5</ele>
        <time>2016-06-06T09:01:44.693Z</time>
      </trkpt>
      <trkpt lat="45.88041" lon="4.85416">
        <ele>244.600006104</ele>
        <time>2016-06-06T09:01:46.718Z</time>
      </trkpt>
      <trkpt lat="45.88044" lon="4.85417">
        <ele>245.5</ele>
        <time>2016-06-06T09:01:47.699Z</time>
      </trkpt>
      <trkpt lat="45.8805" lon="4.85417">
        <ele>247.5</ele>
        <time>2016-06-06T09:01:49.719Z</time>
      </trkpt>
      <trkpt lat="45.88053" lon="4.85417">
        <ele>248.100006104</ele>
        <time>2016-06-06T09:01:50.691Z</time>
      </trkpt>
      <trkpt lat="45.8806" lon="4.85417">
        <ele>250.199996948</ele>
        <time>2016-06-06T09:01:52.718Z</time>
      </trkpt>
      <trkpt lat="45.88063" lon="4.85418">
        <ele>250.699996948</ele>
        <time>2016-06-06T09:01:53.735Z</time>
      </trkpt>
      <trkpt lat="45.88069" lon="4.85417">
        <ele>251.899993896</ele>
        <time>2016-06-06T09:01:55.718Z</time>
      </trkpt>
      <trkpt lat="45.88072" lon="4.85417">
        <ele>252.5</ele>
        <time>2016-06-06T09:01:56.697Z</time>
      </trkpt>
      <trkpt lat="45.88078" lon="4.85415">
        <ele>254.600006104</ele>
        <time>2016-06-06T09:01:59.716Z</time>
      </trkpt>
      <trkpt lat="45.88082" lon="4.85415">
        <ele>254.899993896</ele>
        <time>2016-06-06T09:02:00.693Z</time>
      </trkpt>
      <trkpt lat="45.88088" lon="4.85414">
        <ele>256</ele>
        <time>2016-06-06T09:02:02.725Z</time>
      </trkpt>
      <trkpt lat="45.88091" lon="4.85413">
        <ele>256.5</ele>
        <time>2016-06-06T09:02:03.701Z</time>
      </trkpt>
      <trkpt lat="45.88098" lon="4.85412">
        <ele>256.899993896</ele>
        <time>2016-06-06T09:02:05.729Z</time>
      </trkpt>
      <trkpt lat="45.88101" lon="4.85411">
        <ele>256.799987793</ele>
        <time>2016-06-06T09:02:06.692Z</time>
      </trkpt>
      <trkpt lat="45.88109" lon="4.85407">
        <ele>257.600006104</ele>
        <time>2016-06-06T09:02:09.724Z</time>
      </trkpt>
      <trkpt lat="45.88112" lon="4.85406">
        <ele>257.100006104</ele>
        <time>2016-06-06T09:02:10.692Z</time>
      </trkpt>
      <trkpt lat="45.88119" lon="4.85402">
        <ele>255.800003052</ele>
        <time>2016-06-06T09:02:13.715Z</time>
      </trkpt>
      <trkpt lat="45.88122" lon="4.854">
        <ele>256.399993896</ele>
        <time>2016-06-06T09:02:14.692Z</time>
      </trkpt>
      <trkpt lat="45.8813" lon="4.85396">
        <ele>258.5</ele>
        <time>2016-06-06T09:02:17.746Z</time>
      </trkpt>
      <trkpt lat="45.88133" lon="4.85395">
        <ele>258.299987793</ele>
        <time>2016-06-06T09:02:18.696Z</time>
      </trkpt>
      <trkpt lat="45.88139" lon="4.85392">
        <ele>258.299987793</ele>
        <time>2016-06-06T09:02:20.715Z</time>
      </trkpt>
      <trkpt lat="45.88141" lon="4.8539">
        <ele>258.5</ele>
        <time>2016-06-06T09:02:21.699Z</time>
      </trkpt>
      <trkpt lat="45.8815" lon="4.85387">
        <ele>259.5</ele>
        <time>2016-06-06T09:02:24.718Z</time>
      </trkpt>
      <trkpt lat="45.88152" lon="4.85389">
        <ele>259.200012207</ele>
        <time>2016-06-06T09:02:25.692Z</time>
      </trkpt>
      <trkpt lat="45.88158" lon="4.85393">
        <ele>260.299987793</ele>
        <time>2016-06-06T09:02:28.714Z</time>
      </trkpt>
      <trkpt lat="45.8816" lon="4.85395">
        <ele>260.600006104</ele>
        <time>2016-06-06T09:02:29.698Z</time>
      </trkpt>
      <trkpt lat="45.88161" lon="4.85406">
        <ele>262.5</ele>
        <time>2016-06-06T09:02:32.8Z</time>
      </trkpt>
      <trkpt lat="45.8816" lon="4.8541">
        <ele>262.799987793</ele>
        <time>2016-06-06T09:02:33.699Z</time>
      </trkpt>
      <trkpt lat="45.88153" lon="4.85416">
        <ele>264.5</ele>
        <time>2016-06-06T09:02:36.715Z</time>
      </trkpt>
      <trkpt lat="45.88151" lon="4.85418">
        <ele>265.100006104</ele>
        <time>2016-06-06T09:02:37.695Z</time>
      </trkpt>
      <trkpt lat="45.88143" lon="4.8542">
        <ele>266.299987793</ele>
        <time>2016-06-06T09:02:39.834Z</time>
      </trkpt>
      <trkpt lat="45.88141" lon="4.85421">
        <ele>266.700012207</ele>
        <time>2016-06-06T09:02:40.694Z</time>
      </trkpt>
      <trkpt lat="45.88134" lon="4.85423">
        <ele>266.799987793</ele>
        <time>2016-06-06T09:02:42.717Z</time>
      </trkpt>
      <trkpt lat="45.88131" lon="4.85423">
        <ele>266.899993896</ele>
        <time>2016-06-06T09:02:43.695Z</time>
      </trkpt>
      <trkpt lat="45.88123" lon="4.85426">
        <ele>266.899993896</ele>
        <time>2016-06-06T09:02:46.714Z</time>
      </trkpt>
      <trkpt lat="45.88121" lon="4.85427">
        <ele>267</ele>
        <time>2016-06-06T09:02:47.697Z</time>
      </trkpt>
      <trkpt lat="45.88113" lon="4.85431">
        <ele>268.200012207</ele>
        <time>2016-06-06T09:02:50.715Z</time>
      </trkpt>
      <trkpt lat="45.88111" lon="4.85433">
        <ele>268.5</ele>
        <time>2016-06-06T09:02:51.702Z</time>
      </trkpt>
      <trkpt lat="45.88104" lon="4.85435">
        <ele>269.299987793</ele>
        <time>2016-06-06T09:02:53.73Z</time>
      </trkpt>
      <trkpt lat="45.88101" lon="4.85437">
        <ele>269.5</ele>
        <time>2016-06-06T09:02:54.695Z</time>
      </trkpt>
      <trkpt lat="45.88094" lon="4.85441">
        <ele>270.700012207</ele>
        <time>2016-06-06T09:02:57.722Z</time>
      </trkpt>
      <trkpt lat="45.88092" lon="4.85445">
        <ele>270.700012207</ele>
        <time>2016-06-06T09:02:58.694Z</time>
      </trkpt>
      <trkpt lat="45.88085" lon="4.85452">
        <ele>271</ele>
        <time>2016-06-06T09:03:01.718Z</time>
      </trkpt>
      <trkpt lat="45.88082" lon="4.85455">
        <ele>271.200012207</ele>
        <time>2016-06-06T09:03:02.692Z</time>
      </trkpt>
      <trkpt lat="45.88075" lon="4.85463">
        <ele>271.5</ele>
        <time>2016-06-06T09:03:05.715Z</time>
      </trkpt>
      <trkpt lat="45.88071" lon="4.85465">
        <ele>269.299987793</ele>
        <time>2016-06-06T09:03:06.691Z</time>
      </trkpt>
      <trkpt lat="45.88067" lon="4.85471">
        <ele>268.600006104</ele>
        <time>2016-06-06T09:03:08.717Z</time>
      </trkpt>
      <trkpt lat="45.88064" lon="4.85474">
        <ele>268.799987793</ele>
        <time>2016-06-06T09:03:09.72Z</time>
      </trkpt>
      <trkpt lat="45.88057" lon="4.85482">
        <ele>269.399993896</ele>
        <time>2016-06-06T09:03:12.713Z</time>
      </trkpt>
      <trkpt lat="45.88055" lon="4.85485">
        <ele>269.399993896</ele>
        <time>2016-06-06T09:03:13.673Z</time>
      </trkpt>
      <trkpt lat="45.88048" lon="4.85492">
        <ele>270.100006104</ele>
        <time>2016-06-06T09:03:16.72Z</time>
      </trkpt>
      <trkpt lat="45.88046" lon="4.85494">
        <ele>271.100006104</ele>
        <time>2016-06-06T09:03:17.698Z</time>
      </trkpt>
      <trkpt lat="45.88039" lon="4.85501">
        <ele>272.899993896</ele>
        <time>2016-06-06T09:03:20.716Z</time>
      </trkpt>
      <trkpt lat="45.88036" lon="4.85504">
        <ele>273.5</ele>
        <time>2016-06-06T09:03:21.697Z</time>
      </trkpt>
      <trkpt lat="45.88029" lon="4.8551">
        <ele>273.5</ele>
        <time>2016-06-06T09:03:24.715Z</time>
      </trkpt>
      <trkpt lat="45.88027" lon="4.85512">
        <ele>273.299987793</ele>
        <time>2016-06-06T09:03:25.692Z</time>
      </trkpt>
      <trkpt lat="45.88019" lon="4.85518">
        <ele>273.5</ele>
        <time>2016-06-06T09:03:28.717Z</time>
      </trkpt>
      <trkpt lat="45.88017" lon="4.85521">
        <ele>273.399993896</ele>
        <time>2016-06-06T09:03:29.692Z</time>
      </trkpt>
      <trkpt lat="45.8801" lon="4.85529">
        <ele>273.399993896</ele>
        <time>2016-06-06T09:03:32.728Z</time>
      </trkpt>
      <trkpt lat="45.88008" lon="4.85531">
        <ele>273.5</ele>
        <time>2016-06-06T09:03:33.697Z</time>
      </trkpt>
      <trkpt lat="45.88001" lon="4.85538">
        <ele>273.600006104</ele>
        <time>2016-06-06T09:03:36.756Z</time>
      </trkpt>
      <trkpt lat="45.87999" lon="4.8554">
        <ele>273.600006104</ele>
        <time>2016-06-06T09:03:37.695Z</time>
      </trkpt>
      <trkpt lat="45.87992" lon="4.85546">
        <ele>274</ele>
        <time>2016-06-06T09:03:40.733Z</time>
      </trkpt>
      <trkpt lat="45.8799" lon="4.85548">
        <ele>273.899993896</ele>
        <time>2016-06-06T09:03:41.696Z</time>
      </trkpt>
      <trkpt lat="45.87985" lon="4.85555">
        <ele>274.5</ele>
        <time>2016-06-06T09:03:44.717Z</time>
      </trkpt>
      <trkpt lat="45.87983" lon="4.85557">
        <ele>275.100006104</ele>
        <time>2016-06-06T09:03:45.7Z</time>
      </trkpt>
      <trkpt lat="45.87978" lon="4.85564">
        <ele>275.799987793</ele>
        <time>2016-06-06T09:03:48.716Z</time>
      </trkpt>
      <trkpt lat="45.87977" lon="4.85568">
        <ele>276</ele>
        <time>2016-06-06T09:03:49.69Z</time>
      </trkpt>
      <trkpt lat="45.87973" lon="4.85577">
        <ele>276.600006104</ele>
        <time>2016-06-06T09:03:52.717Z</time>
      </trkpt>
      <trkpt lat="45.87971" lon="4.85581">
        <ele>276.799987793</ele>
        <time>2016-06-06T09:03:53.698Z</time>
      </trkpt>
      <trkpt lat="45.87966" lon="4.85591">
        <ele>276.899993896</ele>
        <time>2016-06-06T09:03:56.713Z</time>
      </trkpt>
      <trkpt lat="45.87965" lon="4.85594">
        <ele>276.899993896</ele>
        <time>2016-06-06T09:03:57.696Z</time>
      </trkpt>
      <trkpt lat="45.87961" lon="4.85604">
        <ele>277</ele>
        <time>2016-06-06T09:04:00.717Z</time>
      </trkpt>
      <trkpt lat="45.87961" lon="4.85609">
        <ele>276.899993896</ele>
        <time>2016-06-06T09:04:01.71Z</time>
      </trkpt>
      <trkpt lat="45.8796" lon="4.8562">
        <ele>277</ele>
        <time>2016-06-06T09:04:04.713Z</time>
      </trkpt>
      <trkpt lat="45.8796" lon="4.85624">
        <ele>276.899993896</ele>
        <time>2016-06-06T09:04:05.692Z</time>
      </trkpt>
      <trkpt lat="45.87961" lon="4.85636">
        <ele>276.600006104</ele>
        <time>2016-06-06T09:04:08.714Z</time>
      </trkpt>
      <trkpt lat="45.87962" lon="4.85641">
        <ele>276.600006104</ele>
        <time>2016-06-06T09:04:09.733Z</time>
      </trkpt>
      <trkpt lat="45.87965" lon="4.85652">
        <ele>276.299987793</ele>
        <time>2016-06-06T09:04:12.713Z</time>
      </trkpt>
      <trkpt lat="45.87966" lon="4.85656">
        <ele>276</ele>
        <time>2016-06-06T09:04:13.691Z</time>
      </trkpt>
      <trkpt lat="45.87967" lon="4.85666">
        <ele>275</ele>
        <time>2016-06-06T09:04:16.72Z</time>
      </trkpt>
      <trkpt lat="45.87968" lon="4.8567">
        <ele>274.899993896</ele>
        <time>2016-06-06T09:04:17.695Z</time>
      </trkpt>
      <trkpt lat="45.87972" lon="4.8568">
        <ele>274.200012207</ele>
        <time>2016-06-06T09:04:20.713Z</time>
      </trkpt>
      <trkpt lat="45.87973" lon="4.85684">
        <ele>273.899993896</ele>
        <time>2016-06-06T09:04:21.7Z</time>
      </trkpt>
      <trkpt lat="45.87977" lon="4.85695">
        <ele>273</ele>
        <time>2016-06-06T09:04:24.717Z</time>
      </trkpt>
      <trkpt lat="45.87978" lon="4.85699">
        <ele>272.899993896</ele>
        <time>2016-06-06T09:04:25.695Z</time>
      </trkpt>
      <trkpt lat="45.8798" lon="4.8571">
        <ele>272.5</ele>
        <time>2016-06-06T09:04:28.755Z</time>
      </trkpt>
      <trkpt lat="45.8798" lon="4.85714">
        <ele>272.399993896</ele>
        <time>2016-06-06T09:04:29.699Z</time>
      </trkpt>
      <trkpt lat="45.87982" lon="4.85725">
        <ele>274.600006104</ele>
        <time>2016-06-06T09:04:32.714Z</time>
      </trkpt>
      <trkpt lat="45.87982" lon="4.85728">
        <ele>275.200012207</ele>
        <time>2016-06-06T09:04:33.7Z</time>
      </trkpt>
      <trkpt lat="45.87979" lon="4.85739">
        <ele>276.299987793</ele>
        <time>2016-06-06T09:04:36.716Z</time>
      </trkpt>
      <trkpt lat="45.87977" lon="4.85742">
        <ele>276.700012207</ele>
        <time>2016-06-06T09:04:37.691Z</time>
      </trkpt>
      <trkpt lat="45.87971" lon="4.8575">
        <ele>277.700012207</ele>
        <time>2016-06-06T09:04:40.714Z</time>
      </trkpt>
      <trkpt lat="45.87969" lon="4.85753">
        <ele>278.100006104</ele>
        <time>2016-06-06T09:04:41.697Z</time>
      </trkpt>
      <trkpt lat="45.87964" lon="4.85759">
        <ele>279</ele>
        <time>2016-06-06T09:04:44.744Z</time>
      </trkpt>
      <trkpt lat="45.87961" lon="4.85762">
        <ele>279.700012207</ele>
        <time>2016-06-06T09:04:45.7Z</time>
      </trkpt>
      <trkpt lat="45.87955" lon="4.85768">
        <ele>280.899993896</ele>
        <time>2016-06-06T09:04:48.717Z</time>
      </trkpt>
      <trkpt lat="45.87953" lon="4.8577">
        <ele>281.299987793</ele>
        <time>2016-06-06T09:04:49.69Z</time>
      </trkpt>
      <trkpt lat="45.87946" lon="4.85776">
        <ele>282.299987793</ele>
        <time>2016-06-06T09:04:52.717Z</time>
      </trkpt>
      <trkpt lat="45.87944" lon="4.85779">
        <ele>282.600006104</ele>
        <time>2016-06-06T09:04:53.697Z</time>
      </trkpt>
      <trkpt lat="45.87937" lon="4.85786">
        <ele>283.600006104</ele>
        <time>2016-06-06T09:04:56.714Z</time>
      </trkpt>
      <trkpt lat="45.87935" lon="4.85788">
        <ele>283.799987793</ele>
        <time>2016-06-06T09:04:57.7Z</time>
      </trkpt>
      <trkpt lat="45.87928" lon="4.85794">
        <ele>284.799987793</ele>
        <time>2016-06-06T09:05:00.717Z</time>
      </trkpt>
      <trkpt lat="45.87925" lon="4.85796">
        <ele>285.200012207</ele>
        <time>2016-06-06T09:05:01.691Z</time>
      </trkpt>
      <trkpt lat="45.87918" lon="4.85802">
        <ele>286.700012207</ele>
        <time>2016-06-06T09:05:04.714Z</time>
      </trkpt>
      <trkpt lat="45.87916" lon="4.85805">
        <ele>287</ele>
        <time>2016-06-06T09:05:05.712Z</time>
      </trkpt>
      <trkpt lat="45.8791" lon="4.85811">
        <ele>288.200012207</ele>
        <time>2016-06-06T09:05:08.714Z</time>
      </trkpt>
      <trkpt lat="45.87907" lon="4.85812">
        <ele>288.600006104</ele>
        <time>2016-06-06T09:05:09.7Z</time>
      </trkpt>
      <trkpt lat="45.87901" lon="4.85819">
        <ele>289.100006104</ele>
        <time>2016-06-06T09:05:12.716Z</time>
      </trkpt>
      <trkpt lat="45.87899" lon="4.85822">
        <ele>289.399993896</ele>
        <time>2016-06-06T09:05:13.695Z</time>
      </trkpt>
      <trkpt lat="45.87894" lon="4.85828">
        <ele>290.5</ele>
        <time>2016-06-06T09:05:16.715Z</time>
      </trkpt>
      <trkpt lat="45.87891" lon="4.8583">
        <ele>290.700012207</ele>
        <time>2016-06-06T09:05:17.697Z</time>
      </trkpt>
      <trkpt lat="45.87883" lon="4.85836">
        <ele>291.799987793</ele>
        <time>2016-06-06T09:05:21.796Z</time>
      </trkpt>
      <trkpt lat="45.87881" lon="4.85837">
        <ele>292</ele>
        <time>2016-06-06T09:05:22.694Z</time>
      </trkpt>
      <trkpt lat="45.87874" lon="4.85841">
        <ele>292.600006104</ele>
        <time>2016-06-06T09:05:25.714Z</time>
      </trkpt>
      <trkpt lat="45.87872" lon="4.85844">
        <ele>293</ele>
        <time>2016-06-06T09:05:26.687Z</time>
      </trkpt>
      <trkpt lat="45.87867" lon="4.8585">
        <ele>293.5</ele>
        <time>2016-06-06T09:05:29.717Z</time>
      </trkpt>
      <trkpt lat="45.87865" lon="4.85852">
        <ele>293.899993896</ele>
        <time>2016-06-06T09:05:30.708Z</time>
      </trkpt>
      <trkpt lat="45.87858" lon="4.85859">
        <ele>294.700012207</ele>
        <time>2016-06-06T09:05:33.717Z</time>
      </trkpt>
      <trkpt lat="45.87855" lon="4.85861">
        <ele>295.100006104</ele>
        <time>2016-06-06T09:05:34.69Z</time>
      </trkpt>
      <trkpt lat="45.87849" lon="4.85867">
        <ele>295.799987793</ele>
        <time>2016-06-06T09:05:37.743Z</time>
      </trkpt>
      <trkpt lat="45.87847" lon="4.85869">
        <ele>296</ele>
        <time>2016-06-06T09:05:38.691Z</time>
      </trkpt>
      <trkpt lat="45.87844" lon="4.85876">
        <ele>295.700012207</ele>
        <time>2016-06-06T09:05:40.712Z</time>
      </trkpt>
      <trkpt lat="45.87841" lon="4.85879">
        <ele>295.799987793</ele>
        <time>2016-06-06T09:05:41.697Z</time>
      </trkpt>
      <trkpt lat="45.87837" lon="4.85886">
        <ele>296.100006104</ele>
        <time>2016-06-06T09:05:43.716Z</time>
      </trkpt>
      <trkpt lat="45.87836" lon="4.85889">
        <ele>296.200012207</ele>
        <time>2016-06-06T09:05:44.692Z</time>
      </trkpt>
      <trkpt lat="45.87833" lon="4.85897">
        <ele>296.100006104</ele>
        <time>2016-06-06T09:05:46.715Z</time>
      </trkpt>
      <trkpt lat="45.87832" lon="4.85901">
        <ele>296.200012207</ele>
        <time>2016-06-06T09:05:47.694Z</time>
      </trkpt>
      <trkpt lat="45.8783" lon="4.8591">
        <ele>295.899993896</ele>
        <time>2016-06-06T09:05:49.716Z</time>
      </trkpt>
      <trkpt lat="45.87829" lon="4.85915">
        <ele>295.799987793</ele>
        <time>2016-06-06T09:05:50.69Z</time>
      </trkpt>
      <trkpt lat="45.87829" lon="4.85923">
        <ele>296</ele>
        <time>2016-06-06T09:05:52.712Z</time>
      </trkpt>
      <trkpt lat="45.87829" lon="4.85928">
        <ele>296.200012207</ele>
        <time>2016-06-06T09:05:53.691Z</time>
      </trkpt>
      <trkpt lat="45.87831" lon="4.8594">
        <ele>296.299987793</ele>
        <time>2016-06-06T09:05:56.716Z</time>
      </trkpt>
      <trkpt lat="45.87832" lon="4.85944">
        <ele>296.399993896</ele>
        <time>2016-06-06T09:05:57.695Z</time>
      </trkpt>
      <trkpt lat="45.87836" lon="4.85956">
        <ele>296</ele>
        <time>2016-06-06T09:06:00.712Z</time>
      </trkpt>
      <trkpt lat="45.87837" lon="4.85959">
        <ele>296.299987793</ele>
        <time>2016-06-06T09:06:01.69Z</time>
      </trkpt>
      <trkpt lat="45.87841" lon="4.85967">
        <ele>296.5</ele>
        <time>2016-06-06T09:06:03.752Z</time>
      </trkpt>
      <trkpt lat="45.87842" lon="4.85971">
        <ele>296.799987793</ele>
        <time>2016-06-06T09:06:04.693Z</time>
      </trkpt>
      <trkpt lat="45.87846" lon="4.85977">
        <ele>297.5</ele>
        <time>2016-06-06T09:06:06.713Z</time>
      </trkpt>
      <trkpt lat="45.87848" lon="4.85981">
        <ele>297.600006104</ele>
        <time>2016-06-06T09:06:07.691Z</time>
      </trkpt>
      <trkpt lat="45.87853" lon="4.85986">
        <ele>297.899993896</ele>
        <time>2016-06-06T09:06:09.72Z</time>
      </trkpt>
      <trkpt lat="45.87856" lon="4.85989">
        <ele>297.799987793</ele>
        <time>2016-06-06T09:06:10.69Z</time>
      </trkpt>
      <trkpt lat="45.87862" lon="4.85993">
        <ele>297.899993896</ele>
        <time>2016-06-06T09:06:12.715Z</time>
      </trkpt>
      <trkpt lat="45.87864" lon="4.85994">
        <ele>297.899993896</ele>
        <time>2016-06-06T09:06:13.692Z</time>
      </trkpt>
      <trkpt lat="45.8787" lon="4.85997">
        <ele>297.299987793</ele>
        <time>2016-06-06T09:06:15.74Z</time>
      </trkpt>
      <trkpt lat="45.87873" lon="4.85998">
        <ele>297.399993896</ele>
        <time>2016-06-06T09:06:16.69Z</time>
      </trkpt>
      <trkpt lat="45.87881" lon="4.85997">
        <ele>297</ele>
        <time>2016-06-06T09:06:19.713Z</time>
      </trkpt>
      <trkpt lat="45.87884" lon="4.85996">
        <ele>297</ele>
        <time>2016-06-06T09:06:20.69Z</time>
      </trkpt>
      <trkpt lat="45.87892" lon="4.85995">
        <ele>296.700012207</ele>
        <time>2016-06-06T09:06:23.719Z</time>
      </trkpt>
      <trkpt lat="45.87895" lon="4.85994">
        <ele>296.899993896</ele>
        <time>2016-06-06T09:06:24.69Z</time>
      </trkpt>
      <trkpt lat="45.87901" lon="4.85992">
        <ele>296.799987793</ele>
        <time>2016-06-06T09:06:26.715Z</time>
      </trkpt>
      <trkpt lat="45.87904" lon="4.85991">
        <ele>296.799987793</ele>
        <time>2016-06-06T09:06:27.699Z</time>
      </trkpt>
      <trkpt lat="45.8791" lon="4.85989">
        <ele>296.899993896</ele>
        <time>2016-06-06T09:06:29.714Z</time>
      </trkpt>
      <trkpt lat="45.87913" lon="4.85987">
        <ele>297.100006104</ele>
        <time>2016-06-06T09:06:30.712Z</time>
      </trkpt>
      <trkpt lat="45.87921" lon="4.85984">
        <ele>297.5</ele>
        <time>2016-06-06T09:06:33.716Z</time>
      </trkpt>
      <trkpt lat="45.87924" lon="4.85984">
        <ele>297.399993896</ele>
        <time>2016-06-06T09:06:34.693Z</time>
      </trkpt>
      <trkpt lat="45.87932" lon="4.85984">
        <ele>297.600006104</ele>
        <time>2016-06-06T09:06:37.716Z</time>
      </trkpt>
      <trkpt lat="45.87934" lon="4.85985">
        <ele>297.899993896</ele>
        <time>2016-06-06T09:06:38.692Z</time>
      </trkpt>
      <trkpt lat="45.87941" lon="4.85992">
        <ele>298.100006104</ele>
        <time>2016-06-06T09:06:42.716Z</time>
      </trkpt>
      <trkpt lat="45.87943" lon="4.85996">
        <ele>298.200012207</ele>
        <time>2016-06-06T09:06:43.693Z</time>
      </trkpt>
      <trkpt lat="45.87948" lon="4.86005">
        <ele>298.799987793</ele>
        <time>2016-06-06T09:06:46.713Z</time>
      </trkpt>
      <trkpt lat="45.87949" lon="4.86009">
        <ele>299.200012207</ele>
        <time>2016-06-06T09:06:47.695Z</time>
      </trkpt>
      <trkpt lat="45.87954" lon="4.86017">
        <ele>299.700012207</ele>
        <time>2016-06-06T09:06:50.712Z</time>
      </trkpt>
      <trkpt lat="45.87956" lon="4.86018">
        <ele>300.299987793</ele>
        <time>2016-06-06T09:06:51.717Z</time>
      </trkpt>
      <trkpt lat="45.87963" lon="4.86018">
        <ele>301.700012207</ele>
        <time>2016-06-06T09:06:54.716Z</time>
      </trkpt>
      <trkpt lat="45.87966" lon="4.86018">
        <ele>302</ele>
        <time>2016-06-06T09:06:55.694Z</time>
      </trkpt>
      <trkpt lat="45.87972" lon="4.86018">
        <ele>303.200012207</ele>
        <time>2016-06-06T09:06:57.717Z</time>
      </trkpt>
      <trkpt lat="45.87975" lon="4.86018">
        <ele>303.799987793</ele>
        <time>2016-06-06T09:06:58.696Z</time>
      </trkpt>
      <trkpt lat="45.87982" lon="4.86016">
        <ele>304.600006104</ele>
        <time>2016-06-06T09:07:00.712Z</time>
      </trkpt>
      <trkpt lat="45.87986" lon="4.86015">
        <ele>304.899993896</ele>
        <time>2016-06-06T09:07:01.756Z</time>
      </trkpt>
      <trkpt lat="45.87992" lon="4.86014">
        <ele>305.700012207</ele>
        <time>2016-06-06T09:07:03.781Z</time>
      </trkpt>
      <trkpt lat="45.87996" lon="4.86015">
        <ele>306.200012207</ele>
        <time>2016-06-06T09:07:04.693Z</time>
      </trkpt>
      <trkpt lat="45.88003" lon="4.86016">
        <ele>306.200012207</ele>
        <time>2016-06-06T09:07:06.715Z</time>
      </trkpt>
      <trkpt lat="45.88007" lon="4.86016">
        <ele>305.299987793</ele>
        <time>2016-06-06T09:07:08.022Z</time>
      </trkpt>
      <trkpt lat="45.88013" lon="4.8602">
        <ele>305.399993896</ele>
        <time>2016-06-06T09:07:09.879Z</time>
      </trkpt>
      <trkpt lat="45.88015" lon="4.86023">
        <ele>305.5</ele>
        <time>2016-06-06T09:07:10.69Z</time>
      </trkpt>
      <trkpt lat="45.88017" lon="4.86035">
        <ele>306.299987793</ele>
        <time>2016-06-06T09:07:13.712Z</time>
      </trkpt>
      <trkpt lat="45.88018" lon="4.86039">
        <ele>306.200012207</ele>
        <time>2016-06-06T09:07:14.889Z</time>
      </trkpt>
      <trkpt lat="45.8802" lon="4.86048">
        <ele>305.799987793</ele>
        <time>2016-06-06T09:07:16.711Z</time>
      </trkpt>
      <trkpt lat="45.88021" lon="4.86052">
        <ele>305.700012207</ele>
        <time>2016-06-06T09:07:17.697Z</time>
      </trkpt>
      <trkpt lat="45.88024" lon="4.86061">
        <ele>305.600006104</ele>
        <time>2016-06-06T09:07:19.716Z</time>
      </trkpt>
      <trkpt lat="45.88025" lon="4.86066">
        <ele>305.600006104</ele>
        <time>2016-06-06T09:07:20.691Z</time>
      </trkpt>
      <trkpt lat="45.88026" lon="4.86076">
        <ele>306</ele>
        <time>2016-06-06T09:07:22.746Z</time>
      </trkpt>
      <trkpt lat="45.88027" lon="4.8608">
        <ele>306.100006104</ele>
        <time>2016-06-06T09:07:23.694Z</time>
      </trkpt>
      <trkpt lat="45.88029" lon="4.8609">
        <ele>305.899993896</ele>
        <time>2016-06-06T09:07:25.781Z</time>
      </trkpt>
      <trkpt lat="45.8803" lon="4.86094">
        <ele>305.700012207</ele>
        <time>2016-06-06T09:07:26.696Z</time>
      </trkpt>
      <trkpt lat="45.88032" lon="4.86104">
        <ele>304.899993896</ele>
        <time>2016-06-06T09:07:28.715Z</time>
      </trkpt>
      <trkpt lat="45.88032" lon="4.86109">
        <ele>304.5</ele>
        <time>2016-06-06T09:07:29.697Z</time>
      </trkpt>
      <trkpt lat="45.88035" lon="4.86118">
        <ele>304.5</ele>
        <time>2016-06-06T09:07:31.715Z</time>
      </trkpt>
      <trkpt lat="45.88035" lon="4.86123">
        <ele>304.5</ele>
        <time>2016-06-06T09:07:32.693Z</time>
      </trkpt>
      <trkpt lat="45.88038" lon="4.86133">
        <ele>304.399993896</ele>
        <time>2016-06-06T09:07:34.712Z</time>
      </trkpt>
      <trkpt lat="45.88038" lon="4.86139">
        <ele>304</ele>
        <time>2016-06-06T09:07:35.696Z</time>
      </trkpt>
      <trkpt lat="45.88042" lon="4.8615">
        <ele>304</ele>
        <time>2016-06-06T09:07:37.87Z</time>
      </trkpt>
      <trkpt lat="45.88043" lon="4.86155">
        <ele>304</ele>
        <time>2016-06-06T09:07:38.693Z</time>
      </trkpt>
      <trkpt lat="45.88046" lon="4.86166">
        <ele>304</ele>
        <time>2016-06-06T09:07:40.715Z</time>
      </trkpt>
      <trkpt lat="45.88047" lon="4.86172">
        <ele>303.899993896</ele>
        <time>2016-06-06T09:07:41.691Z</time>
      </trkpt>
      <trkpt lat="45.88049" lon="4.86182">
        <ele>304.100006104</ele>
        <time>2016-06-06T09:07:43.716Z</time>
      </trkpt>
      <trkpt lat="45.88051" lon="4.86187">
        <ele>304.299987793</ele>
        <time>2016-06-06T09:07:44.693Z</time>
      </trkpt>
      <trkpt lat="45.88055" lon="4.86197">
        <ele>303.899993896</ele>
        <time>2016-06-06T09:07:46.74Z</time>
      </trkpt>
      <trkpt lat="45.88057" lon="4.86202">
        <ele>303.899993896</ele>
        <time>2016-06-06T09:07:47.697Z</time>
      </trkpt>
      <trkpt lat="45.88062" lon="4.86212">
        <ele>303.899993896</ele>
        <time>2016-06-06T09:07:49.715Z</time>
      </trkpt>
      <trkpt lat="45.88064" lon="4.86217">
        <ele>304</ele>
        <time>2016-06-06T09:07:50.693Z</time>
      </trkpt>
      <trkpt lat="45.88068" lon="4.86227">
        <ele>304.100006104</ele>
        <time>2016-06-06T09:07:52.713Z</time>
      </trkpt>
      <trkpt lat="45.8807" lon="4.86232">
        <ele>304.100006104</ele>
        <time>2016-06-06T09:07:53.709Z</time>
      </trkpt>
      <trkpt lat="45.88074" lon="4.86242">
        <ele>304.100006104</ele>
        <time>2016-06-06T09:07:55.717Z</time>
      </trkpt>
      <trkpt lat="45.88076" lon="4.86247">
        <ele>304</ele>
        <time>2016-06-06T09:07:56.694Z</time>
      </trkpt>
      <trkpt lat="45.8808" lon="4.86257">
        <ele>304.100006104</ele>
        <time>2016-06-06T09:07:58.733Z</time>
      </trkpt>
      <trkpt lat="45.88082" lon="4.86262">
        <ele>304.299987793</ele>
        <time>2016-06-06T09:07:59.691Z</time>
      </trkpt>
      <trkpt lat="45.88084" lon="4.86269">
        <ele>304.799987793</ele>
        <time>2016-06-06T09:08:00.794Z</time>
      </trkpt>
      <trkpt lat="45.88085" lon="4.86275">
        <ele>305</ele>
        <time>2016-06-06T09:08:01.693Z</time>
      </trkpt>
      <trkpt lat="45.88087" lon="4.86281">
        <ele>305.200012207</ele>
        <time>2016-06-06T09:08:02.745Z</time>
      </trkpt>
      <trkpt lat="45.88089" lon="4.86288">
        <ele>305.200012207</ele>
        <time>2016-06-06T09:08:03.699Z</time>
      </trkpt>
      <trkpt lat="45.88091" lon="4.86294">
        <ele>305.299987793</ele>
        <time>2016-06-06T09:08:04.715Z</time>
      </trkpt>
      <trkpt lat="45.88093" lon="4.863">
        <ele>306.200012207</ele>
        <time>2016-06-06T09:08:05.696Z</time>
      </trkpt>
      <trkpt lat="45.88095" lon="4.86306">
        <ele>307.100006104</ele>
        <time>2016-06-06T09:08:06.715Z</time>
      </trkpt>
      <trkpt lat="45.88096" lon="4.86313">
        <ele>307.5</ele>
        <time>2016-06-06T09:08:07.69Z</time>
      </trkpt>
      <trkpt lat="45.88098" lon="4.8632">
        <ele>307.600006104</ele>
        <time>2016-06-06T09:08:08.712Z</time>
      </trkpt>
      <trkpt lat="45.881" lon="4.86326">
        <ele>307.799987793</ele>
        <time>2016-06-06T09:08:09.695Z</time>
      </trkpt>
      <trkpt lat="45.88104" lon="4.86336">
        <ele>309.100006104</ele>
        <time>2016-06-06T09:08:11.716Z</time>
      </trkpt>
      <trkpt lat="45.88105" lon="4.86341">
        <ele>308.899993896</ele>
        <time>2016-06-06T09:08:12.693Z</time>
      </trkpt>
      <trkpt lat="45.88106" lon="4.8635">
        <ele>308.700012207</ele>
        <time>2016-06-06T09:08:14.731Z</time>
      </trkpt>
      <trkpt lat="45.88107" lon="4.86355">
        <ele>308.5</ele>
        <time>2016-06-06T09:08:15.7Z</time>
      </trkpt>
      <trkpt lat="45.88109" lon="4.86366">
        <ele>308.700012207</ele>
        <time>2016-06-06T09:08:17.717Z</time>
      </trkpt>
      <trkpt lat="45.88111" lon="4.86372">
        <ele>308.600006104</ele>
        <time>2016-06-06T09:08:18.693Z</time>
      </trkpt>
      <trkpt lat="45.88113" lon="4.86384">
        <ele>308.600006104</ele>
        <time>2016-06-06T09:08:20.715Z</time>
      </trkpt>
      <trkpt lat="45.88114" lon="4.8639">
        <ele>308.5</ele>
        <time>2016-06-06T09:08:21.699Z</time>
      </trkpt>
      <trkpt lat="45.88116" lon="4.86396">
        <ele>308.799987793</ele>
        <time>2016-06-06T09:08:22.751Z</time>
      </trkpt>
      <trkpt lat="45.88117" lon="4.86403">
        <ele>309.200012207</ele>
        <time>2016-06-06T09:08:23.692Z</time>
      </trkpt>
      <trkpt lat="45.88117" lon="4.8641">
        <ele>309.200012207</ele>
        <time>2016-06-06T09:08:24.712Z</time>
      </trkpt>
      <trkpt lat="45.88118" lon="4.86417">
        <ele>309.299987793</ele>
        <time>2016-06-06T09:08:25.695Z</time>
      </trkpt>
      <trkpt lat="45.88118" lon="4.86424">
        <ele>309.399993896</ele>
        <time>2016-06-06T09:08:26.715Z</time>
      </trkpt>
      <trkpt lat="45.88119" lon="4.86432">
        <ele>309.399993896</ele>
        <time>2016-06-06T09:08:27.698Z</time>
      </trkpt>
      <trkpt lat="45.8812" lon="4.86439">
        <ele>309.399993896</ele>
        <time>2016-06-06T09:08:28.733Z</time>
      </trkpt>
      <trkpt lat="45.88121" lon="4.86447">
        <ele>309.399993896</ele>
        <time>2016-06-06T09:08:29.695Z</time>
      </trkpt>
      <trkpt lat="45.88122" lon="4.86454">
        <ele>309.399993896</ele>
        <time>2016-06-06T09:08:30.715Z</time>
      </trkpt>
      <trkpt lat="45.88122" lon="4.86461">
        <ele>309.5</ele>
        <time>2016-06-06T09:08:31.746Z</time>
      </trkpt>
      <trkpt lat="45.88123" lon="4.86468">
        <ele>309.5</ele>
        <time>2016-06-06T09:08:32.715Z</time>
      </trkpt>
      <trkpt lat="45.88124" lon="4.86474">
        <ele>309.600006104</ele>
        <time>2016-06-06T09:08:33.699Z</time>
      </trkpt>
      <trkpt lat="45.88127" lon="4.86485">
        <ele>310.700012207</ele>
        <time>2016-06-06T09:08:35.716Z</time>
      </trkpt>
      <trkpt lat="45.88127" lon="4.8649">
        <ele>310.899993896</ele>
        <time>2016-06-06T09:08:36.69Z</time>
      </trkpt>
      <trkpt lat="45.88129" lon="4.865">
        <ele>310.899993896</ele>
        <time>2016-06-06T09:08:39.715Z</time>
      </trkpt>
      <trkpt lat="45.88129" lon="4.86503">
        <ele>310.700012207</ele>
        <time>2016-06-06T09:08:40.736Z</time>
      </trkpt>
      <trkpt lat="45.8813" lon="4.86515">
        <ele>310.299987793</ele>
        <time>2016-06-06T09:08:49.718Z</time>
      </trkpt>
      <trkpt lat="45.88131" lon="4.86518">
        <ele>310.200012207</ele>
        <time>2016-06-06T09:08:50.693Z</time>
      </trkpt>
      <trkpt lat="45.88131" lon="4.86528">
        <ele>310.100006104</ele>
        <time>2016-06-06T09:08:52.715Z</time>
      </trkpt>
      <trkpt lat="45.88132" lon="4.86535">
        <ele>310.200012207</ele>
        <time>2016-06-06T09:08:53.697Z</time>
      </trkpt>
      <trkpt lat="45.88132" lon="4.86542">
        <ele>310.200012207</ele>
        <time>2016-06-06T09:08:54.728Z</time>
      </trkpt>
      <trkpt lat="45.88132" lon="4.86549">
        <ele>310.200012207</ele>
        <time>2016-06-06T09:08:55.693Z</time>
      </trkpt>
      <trkpt lat="45.88132" lon="4.86556">
        <ele>310.100006104</ele>
        <time>2016-06-06T09:08:56.757Z</time>
      </trkpt>
      <trkpt lat="45.88134" lon="4.86563">
        <ele>310.100006104</ele>
        <time>2016-06-06T09:08:57.698Z</time>
      </trkpt>
      <trkpt lat="45.88135" lon="4.8657">
        <ele>309.899993896</ele>
        <time>2016-06-06T09:08:58.746Z</time>
      </trkpt>
      <trkpt lat="45.88137" lon="4.86578">
        <ele>309.600006104</ele>
        <time>2016-06-06T09:08:59.694Z</time>
      </trkpt>
      <trkpt lat="45.88139" lon="4.86587">
        <ele>309.399993896</ele>
        <time>2016-06-06T09:09:00.746Z</time>
      </trkpt>
      <trkpt lat="45.88141" lon="4.86595">
        <ele>309.200012207</ele>
        <time>2016-06-06T09:09:01.824Z</time>
      </trkpt>
      <trkpt lat="45.88143" lon="4.86603">
        <ele>309</ele>
        <time>2016-06-06T09:09:02.715Z</time>
      </trkpt>
      <trkpt lat="45.88144" lon="4.86611">
        <ele>308.700012207</ele>
        <time>2016-06-06T09:09:03.699Z</time>
      </trkpt>
      <trkpt lat="45.88146" lon="4.86618">
        <ele>308.5</ele>
        <time>2016-06-06T09:09:04.712Z</time>
      </trkpt>
      <trkpt lat="45.88148" lon="4.86626">
        <ele>308.100006104</ele>
        <time>2016-06-06T09:09:05.697Z</time>
      </trkpt>
      <trkpt lat="45.8815" lon="4.86634">
        <ele>307.899993896</ele>
        <time>2016-06-06T09:09:06.717Z</time>
      </trkpt>
      <trkpt lat="45.88152" lon="4.86642">
        <ele>307</ele>
        <time>2016-06-06T09:09:07.695Z</time>
      </trkpt>
      <trkpt lat="45.88155" lon="4.86651">
        <ele>306.899993896</ele>
        <time>2016-06-06T09:09:08.716Z</time>
      </trkpt>
      <trkpt lat="45.88157" lon="4.86659">
        <ele>306.399993896</ele>
        <time>2016-06-06T09:09:09.699Z</time>
      </trkpt>
      <trkpt lat="45.8816" lon="4.86668">
        <ele>305.899993896</ele>
        <time>2016-06-06T09:09:10.718Z</time>
      </trkpt>
      <trkpt lat="45.88161" lon="4.86678">
        <ele>305.299987793</ele>
        <time>2016-06-06T09:09:11.698Z</time>
      </trkpt>
      <trkpt lat="45.88163" lon="4.86687">
        <ele>305</ele>
        <time>2016-06-06T09:09:12.732Z</time>
      </trkpt>
      <trkpt lat="45.88164" lon="4.86696">
        <ele>304.899993896</ele>
        <time>2016-06-06T09:09:13.696Z</time>
      </trkpt>
      <trkpt lat="45.88165" lon="4.86705">
        <ele>304.600006104</ele>
        <time>2016-06-06T09:09:14.714Z</time>
      </trkpt>
      <trkpt lat="45.88166" lon="4.86713">
        <ele>304.299987793</ele>
        <time>2016-06-06T09:09:15.697Z</time>
      </trkpt>
      <trkpt lat="45.88167" lon="4.86722">
        <ele>304.100006104</ele>
        <time>2016-06-06T09:09:16.724Z</time>
      </trkpt>
      <trkpt lat="45.88169" lon="4.86731">
        <ele>303.700012207</ele>
        <time>2016-06-06T09:09:17.737Z</time>
      </trkpt>
      <trkpt lat="45.8817" lon="4.86739">
        <ele>303.600006104</ele>
        <time>2016-06-06T09:09:18.714Z</time>
      </trkpt>
      <trkpt lat="45.88172" lon="4.86746">
        <ele>303.200012207</ele>
        <time>2016-06-06T09:09:19.69Z</time>
      </trkpt>
      <trkpt lat="45.88173" lon="4.86754">
        <ele>302.600006104</ele>
        <time>2016-06-06T09:09:20.716Z</time>
      </trkpt>
      <trkpt lat="45.88175" lon="4.86762">
        <ele>302.299987793</ele>
        <time>2016-06-06T09:09:21.693Z</time>
      </trkpt>
      <trkpt lat="45.88176" lon="4.8677">
        <ele>301.899993896</ele>
        <time>2016-06-06T09:09:22.712Z</time>
      </trkpt>
      <trkpt lat="45.88177" lon="4.86778">
        <ele>301.600006104</ele>
        <time>2016-06-06T09:09:23.693Z</time>
      </trkpt>
      <trkpt lat="45.88179" lon="4.86785">
        <ele>301.600006104</ele>
        <time>2016-06-06T09:09:24.715Z</time>
      </trkpt>
      <trkpt lat="45.88181" lon="4.86792">
        <ele>301.5</ele>
        <time>2016-06-06T09:09:25.695Z</time>
      </trkpt>
      <trkpt lat="45.88182" lon="4.86799">
        <ele>301.399993896</ele>
        <time>2016-06-06T09:09:26.711Z</time>
      </trkpt>
      <trkpt lat="45.88184" lon="4.86807">
        <ele>302.100006104</ele>
        <time>2016-06-06T09:09:27.745Z</time>
      </trkpt>
      <trkpt lat="45.88185" lon="4.86815">
        <ele>303.100006104</ele>
        <time>2016-06-06T09:09:28.717Z</time>
      </trkpt>
      <trkpt lat="45.88186" lon="4.86823">
        <ele>303</ele>
        <time>2016-06-06T09:09:29.691Z</time>
      </trkpt>
      <trkpt lat="45.88187" lon="4.86831">
        <ele>303</ele>
        <time>2016-06-06T09:09:30.712Z</time>
      </trkpt>
      <trkpt lat="45.88188" lon="4.86839">
        <ele>302.899993896</ele>
        <time>2016-06-06T09:09:31.695Z</time>
      </trkpt>
      <trkpt lat="45.88188" lon="4.86846">
        <ele>303.299987793</ele>
        <time>2016-06-06T09:09:32.715Z</time>
      </trkpt>
      <trkpt lat="45.88189" lon="4.86853">
        <ele>303.5</ele>
        <time>2016-06-06T09:09:33.699Z</time>
      </trkpt>
      <trkpt lat="45.88189" lon="4.8686">
        <ele>303.5</ele>
        <time>2016-06-06T09:09:34.728Z</time>
      </trkpt>
      <trkpt lat="45.8819" lon="4.86867">
        <ele>303.5</ele>
        <time>2016-06-06T09:09:35.698Z</time>
      </trkpt>
      <trkpt lat="45.8819" lon="4.86875">
        <ele>303.600006104</ele>
        <time>2016-06-06T09:09:36.717Z</time>
      </trkpt>
      <trkpt lat="45.8819" lon="4.86882">
        <ele>303.399993896</ele>
        <time>2016-06-06T09:09:37.727Z</time>
      </trkpt>
      <trkpt lat="45.8819" lon="4.8689">
        <ele>303.200012207</ele>
        <time>2016-06-06T09:09:38.712Z</time>
      </trkpt>
      <trkpt lat="45.88191" lon="4.86898">
        <ele>303</ele>
        <time>2016-06-06T09:09:39.693Z</time>
      </trkpt>
      <trkpt lat="45.88191" lon="4.86907">
        <ele>303</ele>
        <time>2016-06-06T09:09:40.715Z</time>
      </trkpt>
      <trkpt lat="45.88191" lon="4.86915">
        <ele>302.799987793</ele>
        <time>2016-06-06T09:09:41.698Z</time>
      </trkpt>
      <trkpt lat="45.88191" lon="4.86924">
        <ele>302.600006104</ele>
        <time>2016-06-06T09:09:42.716Z</time>
      </trkpt>
      <trkpt lat="45.88191" lon="4.86932">
        <ele>302.600006104</ele>
        <time>2016-06-06T09:09:43.708Z</time>
      </trkpt>
      <trkpt lat="45.88191" lon="4.8694">
        <ele>302.700012207</ele>
        <time>2016-06-06T09:09:44.716Z</time>
      </trkpt>
      <trkpt lat="45.88191" lon="4.86948">
        <ele>302.700012207</ele>
        <time>2016-06-06T09:09:45.694Z</time>
      </trkpt>
      <trkpt lat="45.88191" lon="4.86956">
        <ele>303</ele>
        <time>2016-06-06T09:09:46.718Z</time>
      </trkpt>
      <trkpt lat="45.88191" lon="4.86964">
        <ele>303.100006104</ele>
        <time>2016-06-06T09:09:47.709Z</time>
      </trkpt>
      <trkpt lat="45.88191" lon="4.86972">
        <ele>303.200012207</ele>
        <time>2016-06-06T09:09:48.755Z</time>
      </trkpt>
      <trkpt lat="45.88192" lon="4.8698">
        <ele>303.200012207</ele>
        <time>2016-06-06T09:09:49.694Z</time>
      </trkpt>
      <trkpt lat="45.88193" lon="4.86988">
        <ele>303.399993896</ele>
        <time>2016-06-06T09:09:50.717Z</time>
      </trkpt>
      <trkpt lat="45.88194" lon="4.86996">
        <ele>303.399993896</ele>
        <time>2016-06-06T09:09:51.7Z</time>
      </trkpt>
      <trkpt lat="45.88194" lon="4.87004">
        <ele>303.600006104</ele>
        <time>2016-06-06T09:09:52.715Z</time>
      </trkpt>
      <trkpt lat="45.88194" lon="4.87013">
        <ele>303.5</ele>
        <time>2016-06-06T09:09:53.692Z</time>
      </trkpt>
      <trkpt lat="45.88194" lon="4.8702">
        <ele>303.5</ele>
        <time>2016-06-06T09:09:54.712Z</time>
      </trkpt>
      <trkpt lat="45.88194" lon="4.87028">
        <ele>303.200012207</ele>
        <time>2016-06-06T09:09:55.691Z</time>
      </trkpt>
      <trkpt lat="45.88195" lon="4.87036">
        <ele>303.299987793</ele>
        <time>2016-06-06T09:09:56.712Z</time>
      </trkpt>
      <trkpt lat="45.88196" lon="4.87044">
        <ele>303.399993896</ele>
        <time>2016-06-06T09:09:57.694Z</time>
      </trkpt>
      <trkpt lat="45.88197" lon="4.87052">
        <ele>303.600006104</ele>
        <time>2016-06-06T09:09:58.713Z</time>
      </trkpt>
      <trkpt lat="45.88198" lon="4.8706">
        <ele>303.799987793</ele>
        <time>2016-06-06T09:09:59.691Z</time>
      </trkpt>
      <trkpt lat="45.88198" lon="4.87068">
        <ele>303.899993896</ele>
        <time>2016-06-06T09:10:00.825Z</time>
      </trkpt>
      <trkpt lat="45.88199" lon="4.87077">
        <ele>303.899993896</ele>
        <time>2016-06-06T09:10:01.691Z</time>
      </trkpt>
      <trkpt lat="45.88199" lon="4.87085">
        <ele>304.100006104</ele>
        <time>2016-06-06T09:10:02.736Z</time>
      </trkpt>
      <trkpt lat="45.88199" lon="4.87094">
        <ele>304.200012207</ele>
        <time>2016-06-06T09:10:03.695Z</time>
      </trkpt>
      <trkpt lat="45.88199" lon="4.87103">
        <ele>304.100006104</ele>
        <time>2016-06-06T09:10:04.729Z</time>
      </trkpt>
      <trkpt lat="45.882" lon="4.87113">
        <ele>304.399993896</ele>
        <time>2016-06-06T09:10:05.695Z</time>
      </trkpt>
      <trkpt lat="45.882" lon="4.87122">
        <ele>304</ele>
        <time>2016-06-06T09:10:06.715Z</time>
      </trkpt>
      <trkpt lat="45.882" lon="4.87131">
        <ele>303.799987793</ele>
        <time>2016-06-06T09:10:07.692Z</time>
      </trkpt>
      <trkpt lat="45.88201" lon="4.8714">
        <ele>304.5</ele>
        <time>2016-06-06T09:10:08.712Z</time>
      </trkpt>
      <trkpt lat="45.88201" lon="4.87149">
        <ele>304.399993896</ele>
        <time>2016-06-06T09:10:09.699Z</time>
      </trkpt>
      <trkpt lat="45.88202" lon="4.87157">
        <ele>304.799987793</ele>
        <time>2016-06-06T09:10:10.715Z</time>
      </trkpt>
      <trkpt lat="45.88202" lon="4.87166">
        <ele>305</ele>
        <time>2016-06-06T09:10:11.697Z</time>
      </trkpt>
      <trkpt lat="45.88202" lon="4.87175">
        <ele>305.799987793</ele>
        <time>2016-06-06T09:10:12.727Z</time>
      </trkpt>
      <trkpt lat="45.88202" lon="4.87184">
        <ele>305.899993896</ele>
        <time>2016-06-06T09:10:13.69Z</time>
      </trkpt>
      <trkpt lat="45.88203" lon="4.87194">
        <ele>305.899993896</ele>
        <time>2016-06-06T09:10:14.712Z</time>
      </trkpt>
      <trkpt lat="45.88203" lon="4.87203">
        <ele>305.799987793</ele>
        <time>2016-06-06T09:10:15.694Z</time>
      </trkpt>
      <trkpt lat="45.88204" lon="4.87213">
        <ele>305.799987793</ele>
        <time>2016-06-06T09:10:16.712Z</time>
      </trkpt>
      <trkpt lat="45.88205" lon="4.87223">
        <ele>305.5</ele>
        <time>2016-06-06T09:10:17.697Z</time>
      </trkpt>
      <trkpt lat="45.88205" lon="4.87234">
        <ele>305.100006104</ele>
        <time>2016-06-06T09:10:18.716Z</time>
      </trkpt>
      <trkpt lat="45.88206" lon="4.87243">
        <ele>305.100006104</ele>
        <time>2016-06-06T09:10:19.693Z</time>
      </trkpt>
      <trkpt lat="45.88206" lon="4.87253">
        <ele>305.100006104</ele>
        <time>2016-06-06T09:10:20.712Z</time>
      </trkpt>
      <trkpt lat="45.88207" lon="4.87263">
        <ele>305</ele>
        <time>2016-06-06T09:10:21.693Z</time>
      </trkpt>
      <trkpt lat="45.88208" lon="4.87272">
        <ele>304.700012207</ele>
        <time>2016-06-06T09:10:22.724Z</time>
      </trkpt>
      <trkpt lat="45.88208" lon="4.87282">
        <ele>304.5</ele>
        <time>2016-06-06T09:10:23.697Z</time>
      </trkpt>
      <trkpt lat="45.88209" lon="4.87291">
        <ele>303.799987793</ele>
        <time>2016-06-06T09:10:24.712Z</time>
      </trkpt>
      <trkpt lat="45.88209" lon="4.873">
        <ele>303.5</ele>
        <time>2016-06-06T09:10:25.691Z</time>
      </trkpt>
      <trkpt lat="45.8821" lon="4.87309">
        <ele>303.700012207</ele>
        <time>2016-06-06T09:10:26.715Z</time>
      </trkpt>
      <trkpt lat="45.8821" lon="4.87318">
        <ele>304.399993896</ele>
        <time>2016-06-06T09:10:27.694Z</time>
      </trkpt>
      <trkpt lat="45.8821" lon="4.87327">
        <ele>305</ele>
        <time>2016-06-06T09:10:28.739Z</time>
      </trkpt>
      <trkpt lat="45.88209" lon="4.87336">
        <ele>305.399993896</ele>
        <time>2016-06-06T09:10:29.697Z</time>
      </trkpt>
      <trkpt lat="45.88208" lon="4.87345">
        <ele>305.700012207</ele>
        <time>2016-06-06T09:10:30.73Z</time>
      </trkpt>
      <trkpt lat="45.88207" lon="4.87353">
        <ele>306</ele>
        <time>2016-06-06T09:10:31.693Z</time>
      </trkpt>
      <trkpt lat="45.88208" lon="4.87361">
        <ele>306.100006104</ele>
        <time>2016-06-06T09:10:32.718Z</time>
      </trkpt>
      <trkpt lat="45.8821" lon="4.87369">
        <ele>306.299987793</ele>
        <time>2016-06-06T09:10:33.697Z</time>
      </trkpt>
      <trkpt lat="45.88212" lon="4.87378">
        <ele>306.5</ele>
        <time>2016-06-06T09:10:34.712Z</time>
      </trkpt>
      <trkpt lat="45.88213" lon="4.87386">
        <ele>306.600006104</ele>
        <time>2016-06-06T09:10:35.741Z</time>
      </trkpt>
      <trkpt lat="45.88213" lon="4.87396">
        <ele>306.600006104</ele>
        <time>2016-06-06T09:10:36.712Z</time>
      </trkpt>
      <trkpt lat="45.88214" lon="4.87405">
        <ele>306.600006104</ele>
        <time>2016-06-06T09:10:37.693Z</time>
      </trkpt>
      <trkpt lat="45.88214" lon="4.87414">
        <ele>306.5</ele>
        <time>2016-06-06T09:10:38.715Z</time>
      </trkpt>
      <trkpt lat="45.88215" lon="4.87424">
        <ele>306.5</ele>
        <time>2016-06-06T09:10:39.694Z</time>
      </trkpt>
      <trkpt lat="45.88216" lon="4.87433">
        <ele>306.5</ele>
        <time>2016-06-06T09:10:40.716Z</time>
      </trkpt>
      <trkpt lat="45.88217" lon="4.87442">
        <ele>306.399993896</ele>
        <time>2016-06-06T09:10:41.697Z</time>
      </trkpt>
      <trkpt lat="45.88217" lon="4.87451">
        <ele>306.299987793</ele>
        <time>2016-06-06T09:10:42.728Z</time>
      </trkpt>
      <trkpt lat="45.88217" lon="4.8746">
        <ele>306.600006104</ele>
        <time>2016-06-06T09:10:43.693Z</time>
      </trkpt>
      <trkpt lat="45.88218" lon="4.87469">
        <ele>306.899993896</ele>
        <time>2016-06-06T09:10:44.849Z</time>
      </trkpt>
      <trkpt lat="45.88219" lon="4.87477">
        <ele>307</ele>
        <time>2016-06-06T09:10:45.694Z</time>
      </trkpt>
      <trkpt lat="45.88219" lon="4.87486">
        <ele>307.299987793</ele>
        <time>2016-06-06T09:10:46.716Z</time>
      </trkpt>
      <trkpt lat="45.8822" lon="4.87494">
        <ele>308.200012207</ele>
        <time>2016-06-06T09:10:47.692Z</time>
      </trkpt>
      <trkpt lat="45.88221" lon="4.87503">
        <ele>308</ele>
        <time>2016-06-06T09:10:48.713Z</time>
      </trkpt>
      <trkpt lat="45.8822" lon="4.87512">
        <ele>308.100006104</ele>
        <time>2016-06-06T09:10:49.692Z</time>
      </trkpt>
      <trkpt lat="45.88221" lon="4.8752">
        <ele>308.200012207</ele>
        <time>2016-06-06T09:10:50.713Z</time>
      </trkpt>
      <trkpt lat="45.88221" lon="4.87529">
        <ele>308.100006104</ele>
        <time>2016-06-06T09:10:51.696Z</time>
      </trkpt>
      <trkpt lat="45.88222" lon="4.87537">
        <ele>308.5</ele>
        <time>2016-06-06T09:10:52.726Z</time>
      </trkpt>
      <trkpt lat="45.88222" lon="4.87546">
        <ele>308.600006104</ele>
        <time>2016-06-06T09:10:53.691Z</time>
      </trkpt>
      <trkpt lat="45.88223" lon="4.87555">
        <ele>308.5</ele>
        <time>2016-06-06T09:10:54.713Z</time>
      </trkpt>
      <trkpt lat="45.88224" lon="4.87563">
        <ele>308.5</ele>
        <time>2016-06-06T09:10:55.694Z</time>
      </trkpt>
      <trkpt lat="45.88224" lon="4.87572">
        <ele>308.399993896</ele>
        <time>2016-06-06T09:10:56.713Z</time>
      </trkpt>
      <trkpt lat="45.88225" lon="4.8758">
        <ele>308.600006104</ele>
        <time>2016-06-06T09:10:57.693Z</time>
      </trkpt>
      <trkpt lat="45.88226" lon="4.87588">
        <ele>308.700012207</ele>
        <time>2016-06-06T09:10:58.714Z</time>
      </trkpt>
      <trkpt lat="45.88227" lon="4.87596">
        <ele>309.100006104</ele>
        <time>2016-06-06T09:10:59.698Z</time>
      </trkpt>
      <trkpt lat="45.88227" lon="4.87604">
        <ele>309.299987793</ele>
        <time>2016-06-06T09:11:00.716Z</time>
      </trkpt>
      <trkpt lat="45.88228" lon="4.87613">
        <ele>309.5</ele>
        <time>2016-06-06T09:11:01.71Z</time>
      </trkpt>
      <trkpt lat="45.88229" lon="4.87621">
        <ele>309.5</ele>
        <time>2016-06-06T09:11:02.716Z</time>
      </trkpt>
      <trkpt lat="45.8823" lon="4.8763">
        <ele>309.5</ele>
        <time>2016-06-06T09:11:03.693Z</time>
      </trkpt>
      <trkpt lat="45.8823" lon="4.87638">
        <ele>309.600006104</ele>
        <time>2016-06-06T09:11:04.712Z</time>
      </trkpt>
      <trkpt lat="45.88231" lon="4.87646">
        <ele>309.5</ele>
        <time>2016-06-06T09:11:05.694Z</time>
      </trkpt>
      <trkpt lat="45.88232" lon="4.87655">
        <ele>309.299987793</ele>
        <time>2016-06-06T09:11:06.861Z</time>
      </trkpt>
      <trkpt lat="45.88233" lon="4.87663">
        <ele>309.100006104</ele>
        <time>2016-06-06T09:11:07.691Z</time>
      </trkpt>
      <trkpt lat="45.88234" lon="4.87672">
        <ele>309.100006104</ele>
        <time>2016-06-06T09:11:08.712Z</time>
      </trkpt>
      <trkpt lat="45.88236" lon="4.8768">
        <ele>309</ele>
        <time>2016-06-06T09:11:09.693Z</time>
      </trkpt>
      <trkpt lat="45.88237" lon="4.87689">
        <ele>308.700012207</ele>
        <time>2016-06-06T09:11:10.716Z</time>
      </trkpt>
      <trkpt lat="45.88239" lon="4.87698">
        <ele>308.600006104</ele>
        <time>2016-06-06T09:11:11.697Z</time>
      </trkpt>
      <trkpt lat="45.8824" lon="4.87707">
        <ele>308.200012207</ele>
        <time>2016-06-06T09:11:12.713Z</time>
      </trkpt>
      <trkpt lat="45.88241" lon="4.87716">
        <ele>308.100006104</ele>
        <time>2016-06-06T09:11:13.691Z</time>
      </trkpt>
      <trkpt lat="45.88242" lon="4.87725">
        <ele>308.200012207</ele>
        <time>2016-06-06T09:11:14.727Z</time>
      </trkpt>
      <trkpt lat="45.88243" lon="4.87734">
        <ele>308</ele>
        <time>2016-06-06T09:11:15.696Z</time>
      </trkpt>
      <trkpt lat="45.88244" lon="4.87743">
        <ele>307.799987793</ele>
        <time>2016-06-06T09:11:16.712Z</time>
      </trkpt>
      <trkpt lat="45.88245" lon="4.87752">
        <ele>307.600006104</ele>
        <time>2016-06-06T09:11:17.712Z</time>
      </trkpt>
      <trkpt lat="45.88246" lon="4.87761">
        <ele>307.399993896</ele>
        <time>2016-06-06T09:11:18.716Z</time>
      </trkpt>
      <trkpt lat="45.88247" lon="4.87769">
        <ele>307.299987793</ele>
        <time>2016-06-06T09:11:19.694Z</time>
      </trkpt>
      <trkpt lat="45.88248" lon="4.87778">
        <ele>307.100006104</ele>
        <time>2016-06-06T09:11:20.712Z</time>
      </trkpt>
      <trkpt lat="45.88248" lon="4.87786">
        <ele>307.100006104</ele>
        <time>2016-06-06T09:11:21.695Z</time>
      </trkpt>
      <trkpt lat="45.88249" lon="4.87794">
        <ele>307.200012207</ele>
        <time>2016-06-06T09:11:22.732Z</time>
      </trkpt>
      <trkpt lat="45.8825" lon="4.87802">
        <ele>307.299987793</ele>
        <time>2016-06-06T09:11:23.697Z</time>
      </trkpt>
      <trkpt lat="45.88251" lon="4.8781">
        <ele>307.600006104</ele>
        <time>2016-06-06T09:11:24.716Z</time>
      </trkpt>
      <trkpt lat="45.88252" lon="4.87818">
        <ele>307.700012207</ele>
        <time>2016-06-06T09:11:25.691Z</time>
      </trkpt>
      <trkpt lat="45.88253" lon="4.87826">
        <ele>308</ele>
        <time>2016-06-06T09:11:26.715Z</time>
      </trkpt>
      <trkpt lat="45.88255" lon="4.87834">
        <ele>308.200012207</ele>
        <time>2016-06-06T09:11:27.696Z</time>
      </trkpt>
      <trkpt lat="45.88256" lon="4.87842">
        <ele>308.299987793</ele>
        <time>2016-06-06T09:11:28.712Z</time>
      </trkpt>
      <trkpt lat="45.88256" lon="4.8785">
        <ele>308.5</ele>
        <time>2016-06-06T09:11:29.694Z</time>
      </trkpt>
      <trkpt lat="45.88257" lon="4.87857">
        <ele>309</ele>
        <time>2016-06-06T09:11:30.712Z</time>
      </trkpt>
      <trkpt lat="45.88258" lon="4.87865">
        <ele>308.899993896</ele>
        <time>2016-06-06T09:11:31.691Z</time>
      </trkpt>
      <trkpt lat="45.88258" lon="4.87872">
        <ele>308.799987793</ele>
        <time>2016-06-06T09:11:32.711Z</time>
      </trkpt>
      <trkpt lat="45.88259" lon="4.87879">
        <ele>308.799987793</ele>
        <time>2016-06-06T09:11:33.737Z</time>
      </trkpt>
      <trkpt lat="45.88259" lon="4.87886">
        <ele>309.100006104</ele>
        <time>2016-06-06T09:11:34.717Z</time>
      </trkpt>
      <trkpt lat="45.8826" lon="4.87893">
        <ele>309.200012207</ele>
        <time>2016-06-06T09:11:35.696Z</time>
      </trkpt>
      <trkpt lat="45.8826" lon="4.879">
        <ele>309.399993896</ele>
        <time>2016-06-06T09:11:36.716Z</time>
      </trkpt>
      <trkpt lat="45.88261" lon="4.87906">
        <ele>309.299987793</ele>
        <time>2016-06-06T09:11:37.693Z</time>
      </trkpt>
      <trkpt lat="45.88261" lon="4.87918">
        <ele>309.700012207</ele>
        <time>2016-06-06T09:11:39.716Z</time>
      </trkpt>
      <trkpt lat="45.88261" lon="4.87924">
        <ele>309.899993896</ele>
        <time>2016-06-06T09:11:40.691Z</time>
      </trkpt>
      <trkpt lat="45.88262" lon="4.87936">
        <ele>310.299987793</ele>
        <time>2016-06-06T09:11:42.713Z</time>
      </trkpt>
      <trkpt lat="45.88262" lon="4.87942">
        <ele>310.399993896</ele>
        <time>2016-06-06T09:11:43.719Z</time>
      </trkpt>
      <trkpt lat="45.88263" lon="4.87953">
        <ele>311</ele>
        <time>2016-06-06T09:11:45.716Z</time>
      </trkpt>
      <trkpt lat="45.88264" lon="4.87959">
        <ele>311.299987793</ele>
        <time>2016-06-06T09:11:46.691Z</time>
      </trkpt>
      <trkpt lat="45.88264" lon="4.87972">
        <ele>311.100006104</ele>
        <time>2016-06-06T09:11:48.713Z</time>
      </trkpt>
      <trkpt lat="45.88265" lon="4.87978">
        <ele>310.600006104</ele>
        <time>2016-06-06T09:11:49.69Z</time>
      </trkpt>
      <trkpt lat="45.88265" lon="4.8799">
        <ele>310.200012207</ele>
        <time>2016-06-06T09:11:51.746Z</time>
      </trkpt>
      <trkpt lat="45.88266" lon="4.87996">
        <ele>310.200012207</ele>
        <time>2016-06-06T09:11:52.694Z</time>
      </trkpt>
      <trkpt lat="45.88266" lon="4.88009">
        <ele>310.100006104</ele>
        <time>2016-06-06T09:11:54.713Z</time>
      </trkpt>
      <trkpt lat="45.88266" lon="4.88015">
        <ele>310.100006104</ele>
        <time>2016-06-06T09:11:55.691Z</time>
      </trkpt>
      <trkpt lat="45.88267" lon="4.88028">
        <ele>310.799987793</ele>
        <time>2016-06-06T09:11:57.717Z</time>
      </trkpt>
      <trkpt lat="45.88268" lon="4.88034">
        <ele>310.5</ele>
        <time>2016-06-06T09:11:58.691Z</time>
      </trkpt>
      <trkpt lat="45.88268" lon="4.88041">
        <ele>310.200012207</ele>
        <time>2016-06-06T09:11:59.713Z</time>
      </trkpt>
      <trkpt lat="45.88268" lon="4.88047">
        <ele>310.399993896</ele>
        <time>2016-06-06T09:12:00.691Z</time>
      </trkpt>
      <trkpt lat="45.88269" lon="4.88054">
        <ele>310.100006104</ele>
        <time>2016-06-06T09:12:01.713Z</time>
      </trkpt>
      <trkpt lat="45.88269" lon="4.8806">
        <ele>310.200012207</ele>
        <time>2016-06-06T09:12:02.694Z</time>
      </trkpt>
      <trkpt lat="45.88269" lon="4.88067">
        <ele>310.200012207</ele>
        <time>2016-06-06T09:12:03.716Z</time>
      </trkpt>
      <trkpt lat="45.88269" lon="4.88074">
        <ele>310.399993896</ele>
        <time>2016-06-06T09:12:04.695Z</time>
      </trkpt>
      <trkpt lat="45.88269" lon="4.88087">
        <ele>310.200012207</ele>
        <time>2016-06-06T09:12:06.712Z</time>
      </trkpt>
      <trkpt lat="45.8827" lon="4.88093">
        <ele>310</ele>
        <time>2016-06-06T09:12:07.691Z</time>
      </trkpt>
      <trkpt lat="45.88271" lon="4.881">
        <ele>310.399993896</ele>
        <time>2016-06-06T09:12:08.712Z</time>
      </trkpt>
      <trkpt lat="45.88271" lon="4.88106">
        <ele>310.600006104</ele>
        <time>2016-06-06T09:12:09.712Z</time>
      </trkpt>
      <trkpt lat="45.88272" lon="4.88119">
        <ele>310.399993896</ele>
        <time>2016-06-06T09:12:11.713Z</time>
      </trkpt>
      <trkpt lat="45.88272" lon="4.88125">
        <ele>310.200012207</ele>
        <time>2016-06-06T09:12:12.691Z</time>
      </trkpt>
      <trkpt lat="45.88272" lon="4.88132">
        <ele>310.299987793</ele>
        <time>2016-06-06T09:12:13.713Z</time>
      </trkpt>
      <trkpt lat="45.88273" lon="4.88139">
        <ele>310.600006104</ele>
        <time>2016-06-06T09:12:14.691Z</time>
      </trkpt>
      <trkpt lat="45.88273" lon="4.88146">
        <ele>310.5</ele>
        <time>2016-06-06T09:12:15.717Z</time>
      </trkpt>
      <trkpt lat="45.88274" lon="4.88153">
        <ele>310.399993896</ele>
        <time>2016-06-06T09:12:16.697Z</time>
      </trkpt>
      <trkpt lat="45.88275" lon="4.88159">
        <ele>310.299987793</ele>
        <time>2016-06-06T09:12:17.726Z</time>
      </trkpt>
      <trkpt lat="45.88274" lon="4.88166">
        <ele>310.5</ele>
        <time>2016-06-06T09:12:18.69Z</time>
      </trkpt>
      <trkpt lat="45.88275" lon="4.88173">
        <ele>310.600006104</ele>
        <time>2016-06-06T09:12:19.713Z</time>
      </trkpt>
      <trkpt lat="45.88275" lon="4.8818">
        <ele>310.600006104</ele>
        <time>2016-06-06T09:12:20.691Z</time>
      </trkpt>
      <trkpt lat="45.88275" lon="4.88188">
        <ele>310.600006104</ele>
        <time>2016-06-06T09:12:21.716Z</time>
      </trkpt>
      <trkpt lat="45.88274" lon="4.88195">
        <ele>310.600006104</ele>
        <time>2016-06-06T09:12:22.694Z</time>
      </trkpt>
      <trkpt lat="45.88274" lon="4.88203">
        <ele>310.399993896</ele>
        <time>2016-06-06T09:12:23.714Z</time>
      </trkpt>
      <trkpt lat="45.88274" lon="4.8821">
        <ele>310.200012207</ele>
        <time>2016-06-06T09:12:24.691Z</time>
      </trkpt>
      <trkpt lat="45.88274" lon="4.88218">
        <ele>310.200012207</ele>
        <time>2016-06-06T09:12:25.727Z</time>
      </trkpt>
      <trkpt lat="45.88274" lon="4.88226">
        <ele>310.100006104</ele>
        <time>2016-06-06T09:12:26.691Z</time>
      </trkpt>
      <trkpt lat="45.88274" lon="4.88235">
        <ele>310.200012207</ele>
        <time>2016-06-06T09:12:27.716Z</time>
      </trkpt>
      <trkpt lat="45.88274" lon="4.88243">
        <ele>310.200012207</ele>
        <time>2016-06-06T09:12:28.691Z</time>
      </trkpt>
      <trkpt lat="45.88273" lon="4.88251">
        <ele>310.200012207</ele>
        <time>2016-06-06T09:12:29.717Z</time>
      </trkpt>
      <trkpt lat="45.88273" lon="4.88259">
        <ele>310.100006104</ele>
        <time>2016-06-06T09:12:30.691Z</time>
      </trkpt>
      <trkpt lat="45.88273" lon="4.88268">
        <ele>310.5</ele>
        <time>2016-06-06T09:12:31.713Z</time>
      </trkpt>
      <trkpt lat="45.88273" lon="4.88276">
        <ele>310.899993896</ele>
        <time>2016-06-06T09:12:32.686Z</time>
      </trkpt>
      <trkpt lat="45.88273" lon="4.88285">
        <ele>311.299987793</ele>
        <time>2016-06-06T09:12:33.729Z</time>
      </trkpt>
      <trkpt lat="45.88272" lon="4.88293">
        <ele>311.700012207</ele>
        <time>2016-06-06T09:12:34.691Z</time>
      </trkpt>
      <trkpt lat="45.88271" lon="4.88301">
        <ele>312</ele>
        <time>2016-06-06T09:12:35.716Z</time>
      </trkpt>
      <trkpt lat="45.88268" lon="4.88309">
        <ele>312.299987793</ele>
        <time>2016-06-06T09:12:36.694Z</time>
      </trkpt>
      <trkpt lat="45.88265" lon="4.88316">
        <ele>312.5</ele>
        <time>2016-06-06T09:12:37.712Z</time>
      </trkpt>
      <trkpt lat="45.88262" lon="4.88322">
        <ele>312.399993896</ele>
        <time>2016-06-06T09:12:38.694Z</time>
      </trkpt>
      <trkpt lat="45.88258" lon="4.88327">
        <ele>312.299987793</ele>
        <time>2016-06-06T09:12:39.72Z</time>
      </trkpt>
      <trkpt lat="45.88255" lon="4.88334">
        <ele>312.5</ele>
        <time>2016-06-06T09:12:40.694Z</time>
      </trkpt>
      <trkpt lat="45.88252" lon="4.88341">
        <ele>312.399993896</ele>
        <time>2016-06-06T09:12:41.729Z</time>
      </trkpt>
      <trkpt lat="45.88251" lon="4.88348">
        <ele>312.299987793</ele>
        <time>2016-06-06T09:12:42.696Z</time>
      </trkpt>
      <trkpt lat="45.88251" lon="4.88356">
        <ele>312</ele>
        <time>2016-06-06T09:12:43.716Z</time>
      </trkpt>
      <trkpt lat="45.88252" lon="4.88363">
        <ele>311.899993896</ele>
        <time>2016-06-06T09:12:44.691Z</time>
      </trkpt>
      <trkpt lat="45.88255" lon="4.88369">
        <ele>311.899993896</ele>
        <time>2016-06-06T09:12:45.718Z</time>
      </trkpt>
      <trkpt lat="45.88259" lon="4.88375">
        <ele>311.799987793</ele>
        <time>2016-06-06T09:12:46.69Z</time>
      </trkpt>
      <trkpt lat="45.88263" lon="4.88381">
        <ele>311.899993896</ele>
        <time>2016-06-06T09:12:47.717Z</time>
      </trkpt>
      <trkpt lat="45.88265" lon="4.88389">
        <ele>311.799987793</ele>
        <time>2016-06-06T09:12:48.694Z</time>
      </trkpt>
      <trkpt lat="45.88266" lon="4.88397">
        <ele>311.799987793</ele>
        <time>2016-06-06T09:12:49.712Z</time>
      </trkpt>
      <trkpt lat="45.88268" lon="4.88406">
        <ele>311.799987793</ele>
        <time>2016-06-06T09:12:50.693Z</time>
      </trkpt>
      <trkpt lat="45.88268" lon="4.88415">
        <ele>310.899993896</ele>
        <time>2016-06-06T09:12:51.719Z</time>
      </trkpt>
      <trkpt lat="45.88268" lon="4.88425">
        <ele>310.5</ele>
        <time>2016-06-06T09:12:52.69Z</time>
      </trkpt>
      <trkpt lat="45.88267" lon="4.88434">
        <ele>310.299987793</ele>
        <time>2016-06-06T09:12:53.71Z</time>
      </trkpt>
      <trkpt lat="45.88267" lon="4.88444">
        <ele>309.899993896</ele>
        <time>2016-06-06T09:12:54.692Z</time>
      </trkpt>
      <trkpt lat="45.88266" lon="4.88453">
        <ele>309.299987793</ele>
        <time>2016-06-06T09:12:55.717Z</time>
      </trkpt>
      <trkpt lat="45.88266" lon="4.88462">
        <ele>309</ele>
        <time>2016-06-06T09:12:56.692Z</time>
      </trkpt>
      <trkpt lat="45.88265" lon="4.88471">
        <ele>308.899993896</ele>
        <time>2016-06-06T09:12:57.716Z</time>
      </trkpt>
      <trkpt lat="45.88264" lon="4.8848">
        <ele>308.5</ele>
        <time>2016-06-06T09:12:58.693Z</time>
      </trkpt>
      <trkpt lat="45.88264" lon="4.8849">
        <ele>307.899993896</ele>
        <time>2016-06-06T09:12:59.712Z</time>
      </trkpt>
      <trkpt lat="45.88263" lon="4.88499">
        <ele>308</ele>
        <time>2016-06-06T09:13:00.69Z</time>
      </trkpt>
      <trkpt lat="45.88263" lon="4.88509">
        <ele>307.399993896</ele>
        <time>2016-06-06T09:13:01.727Z</time>
      </trkpt>
      <trkpt lat="45.88262" lon="4.88518">
        <ele>307.100006104</ele>
        <time>2016-06-06T09:13:02.69Z</time>
      </trkpt>
      <trkpt lat="45.88261" lon="4.88528">
        <ele>306.899993896</ele>
        <time>2016-06-06T09:13:03.717Z</time>
      </trkpt>
      <trkpt lat="45.8826" lon="4.88538">
        <ele>306.399993896</ele>
        <time>2016-06-06T09:13:04.673Z</time>
      </trkpt>
      <trkpt lat="45.88259" lon="4.88548">
        <ele>306.299987793</ele>
        <time>2016-06-06T09:13:05.715Z</time>
      </trkpt>
      <trkpt lat="45.88258" lon="4.88557">
        <ele>306.100006104</ele>
        <time>2016-06-06T09:13:06.693Z</time>
      </trkpt>
      <trkpt lat="45.88257" lon="4.88567">
        <ele>306.200012207</ele>
        <time>2016-06-06T09:13:07.728Z</time>
      </trkpt>
      <trkpt lat="45.88257" lon="4.88576">
        <ele>306.5</ele>
        <time>2016-06-06T09:13:08.692Z</time>
      </trkpt>
      <trkpt lat="45.88256" lon="4.88585">
        <ele>306.399993896</ele>
        <time>2016-06-06T09:13:09.839Z</time>
      </trkpt>
      <trkpt lat="45.88256" lon="4.88594">
        <ele>306.299987793</ele>
        <time>2016-06-06T09:13:10.696Z</time>
      </trkpt>
      <trkpt lat="45.88256" lon="4.88602">
        <ele>306.100006104</ele>
        <time>2016-06-06T09:13:11.716Z</time>
      </trkpt>
      <trkpt lat="45.88255" lon="4.88611">
        <ele>306</ele>
        <time>2016-06-06T09:13:12.69Z</time>
      </trkpt>
      <trkpt lat="45.88255" lon="4.88619">
        <ele>305.899993896</ele>
        <time>2016-06-06T09:13:13.711Z</time>
      </trkpt>
      <trkpt lat="45.88254" lon="4.88627">
        <ele>305.799987793</ele>
        <time>2016-06-06T09:13:14.69Z</time>
      </trkpt>
      <trkpt lat="45.88254" lon="4.88635">
        <ele>305.799987793</ele>
        <time>2016-06-06T09:13:15.742Z</time>
      </trkpt>
      <trkpt lat="45.88253" lon="4.88643">
        <ele>305.899993896</ele>
        <time>2016-06-06T09:13:16.69Z</time>
      </trkpt>
      <trkpt lat="45.88253" lon="4.88651">
        <ele>305.899993896</ele>
        <time>2016-06-06T09:13:17.719Z</time>
      </trkpt>
      <trkpt lat="45.88252" lon="4.88659">
        <ele>305.899993896</ele>
        <time>2016-06-06T09:13:18.692Z</time>
      </trkpt>
      <trkpt lat="45.88252" lon="4.88667">
        <ele>305.899993896</ele>
        <time>2016-06-06T09:13:19.715Z</time>
      </trkpt>
      <trkpt lat="45.88251" lon="4.88676">
        <ele>305.799987793</ele>
        <time>2016-06-06T09:13:20.689Z</time>
      </trkpt>
      <trkpt lat="45.88251" lon="4.88684">
        <ele>305.700012207</ele>
        <time>2016-06-06T09:13:21.716Z</time>
      </trkpt>
      <trkpt lat="45.88251" lon="4.88692">
        <ele>305.700012207</ele>
        <time>2016-06-06T09:13:22.692Z</time>
      </trkpt>
      <trkpt lat="45.8825" lon="4.887">
        <ele>305.799987793</ele>
        <time>2016-06-06T09:13:23.714Z</time>
      </trkpt>
      <trkpt lat="45.88249" lon="4.88707">
        <ele>305.899993896</ele>
        <time>2016-06-06T09:13:24.692Z</time>
      </trkpt>
      <trkpt lat="45.88249" lon="4.88714">
        <ele>306.100006104</ele>
        <time>2016-06-06T09:13:25.718Z</time>
      </trkpt>
      <trkpt lat="45.88248" lon="4.88722">
        <ele>306.200012207</ele>
        <time>2016-06-06T09:13:26.69Z</time>
      </trkpt>
      <trkpt lat="45.88248" lon="4.8873">
        <ele>305.899993896</ele>
        <time>2016-06-06T09:13:27.716Z</time>
      </trkpt>
      <trkpt lat="45.88247" lon="4.88738">
        <ele>305.799987793</ele>
        <time>2016-06-06T09:13:28.693Z</time>
      </trkpt>
      <trkpt lat="45.88247" lon="4.88746">
        <ele>305.600006104</ele>
        <time>2016-06-06T09:13:29.713Z</time>
      </trkpt>
      <trkpt lat="45.88246" lon="4.88754">
        <ele>306</ele>
        <time>2016-06-06T09:13:30.69Z</time>
      </trkpt>
      <trkpt lat="45.88246" lon="4.88762">
        <ele>305.899993896</ele>
        <time>2016-06-06T09:13:31.735Z</time>
      </trkpt>
      <trkpt lat="45.88245" lon="4.8877">
        <ele>306</ele>
        <time>2016-06-06T09:13:32.693Z</time>
      </trkpt>
      <trkpt lat="45.88245" lon="4.88779">
        <ele>306.200012207</ele>
        <time>2016-06-06T09:13:33.735Z</time>
      </trkpt>
      <trkpt lat="45.88244" lon="4.88787">
        <ele>306.299987793</ele>
        <time>2016-06-06T09:13:34.693Z</time>
      </trkpt>
      <trkpt lat="45.88243" lon="4.88795">
        <ele>306.5</ele>
        <time>2016-06-06T09:13:35.732Z</time>
      </trkpt>
      <trkpt lat="45.88242" lon="4.88803">
        <ele>306.700012207</ele>
        <time>2016-06-06T09:13:36.69Z</time>
      </trkpt>
      <trkpt lat="45.88242" lon="4.8881">
        <ele>306.5</ele>
        <time>2016-06-06T09:13:37.712Z</time>
      </trkpt>
      <trkpt lat="45.88242" lon="4.88819">
        <ele>306</ele>
        <time>2016-06-06T09:13:38.692Z</time>
      </trkpt>
      <trkpt lat="45.88241" lon="4.88826">
        <ele>306</ele>
        <time>2016-06-06T09:13:39.716Z</time>
      </trkpt>
      <trkpt lat="45.88241" lon="4.88834">
        <ele>305.899993896</ele>
        <time>2016-06-06T09:13:40.69Z</time>
      </trkpt>
      <trkpt lat="45.88241" lon="4.88842">
        <ele>305.899993896</ele>
        <time>2016-06-06T09:13:41.714Z</time>
      </trkpt>
      <trkpt lat="45.8824" lon="4.8885">
        <ele>305.700012207</ele>
        <time>2016-06-06T09:13:42.69Z</time>
      </trkpt>
      <trkpt lat="45.88239" lon="4.88858">
        <ele>305.700012207</ele>
        <time>2016-06-06T09:13:43.72Z</time>
      </trkpt>
      <trkpt lat="45.88239" lon="4.88867">
        <ele>305.600006104</ele>
        <time>2016-06-06T09:13:44.69Z</time>
      </trkpt>
      <trkpt lat="45.88238" lon="4.88875">
        <ele>305.399993896</ele>
        <time>2016-06-06T09:13:45.719Z</time>
      </trkpt>
      <trkpt lat="45.88237" lon="4.88884">
        <ele>305.399993896</ele>
        <time>2016-06-06T09:13:46.69Z</time>
      </trkpt>
      <trkpt lat="45.88237" lon="4.88893">
        <ele>305.299987793</ele>
        <time>2016-06-06T09:13:47.713Z</time>
      </trkpt>
      <trkpt lat="45.88236" lon="4.88902">
        <ele>305.100006104</ele>
        <time>2016-06-06T09:13:48.69Z</time>
      </trkpt>
      <trkpt lat="45.88236" lon="4.88911">
        <ele>305.100006104</ele>
        <time>2016-06-06T09:13:49.712Z</time>
      </trkpt>
      <trkpt lat="45.88235" lon="4.8892">
        <ele>305</ele>
        <time>2016-06-06T09:13:50.716Z</time>
      </trkpt>
      <trkpt lat="45.88234" lon="4.88929">
        <ele>305</ele>
        <time>2016-06-06T09:13:51.719Z</time>
      </trkpt>
      <trkpt lat="45.88233" lon="4.88939">
        <ele>305</ele>
        <time>2016-06-06T09:13:52.69Z</time>
      </trkpt>
      <trkpt lat="45.88232" lon="4.88948">
        <ele>305.200012207</ele>
        <time>2016-06-06T09:13:53.713Z</time>
      </trkpt>
      <trkpt lat="45.88231" lon="4.88957">
        <ele>305.5</ele>
        <time>2016-06-06T09:13:54.696Z</time>
      </trkpt>
      <trkpt lat="45.8823" lon="4.88966">
        <ele>305.5</ele>
        <time>2016-06-06T09:13:55.726Z</time>
      </trkpt>
      <trkpt lat="45.8823" lon="4.88974">
        <ele>305.299987793</ele>
        <time>2016-06-06T09:13:56.693Z</time>
      </trkpt>
      <trkpt lat="45.88229" lon="4.88982">
        <ele>305.200012207</ele>
        <time>2016-06-06T09:13:57.716Z</time>
      </trkpt>
      <trkpt lat="45.88229" lon="4.8899">
        <ele>305.200012207</ele>
        <time>2016-06-06T09:13:58.69Z</time>
      </trkpt>
      <trkpt lat="45.88228" lon="4.88998">
        <ele>305.5</ele>
        <time>2016-06-06T09:13:59.728Z</time>
      </trkpt>
      <trkpt lat="45.88227" lon="4.89006">
        <ele>305.100006104</ele>
        <time>2016-06-06T09:14:00.696Z</time>
      </trkpt>
      <trkpt lat="45.88226" lon="4.89014">
        <ele>305</ele>
        <time>2016-06-06T09:14:01.715Z</time>
      </trkpt>
      <trkpt lat="45.88225" lon="4.89023">
        <ele>305.200012207</ele>
        <time>2016-06-06T09:14:02.69Z</time>
      </trkpt>
      <trkpt lat="45.88224" lon="4.89032">
        <ele>305.399993896</ele>
        <time>2016-06-06T09:14:03.736Z</time>
      </trkpt>
      <trkpt lat="45.88223" lon="4.89041">
        <ele>305</ele>
        <time>2016-06-06T09:14:04.694Z</time>
      </trkpt>
      <trkpt lat="45.88222" lon="4.89049">
        <ele>304.899993896</ele>
        <time>2016-06-06T09:14:05.731Z</time>
      </trkpt>
      <trkpt lat="45.88222" lon="4.89058">
        <ele>305.100006104</ele>
        <time>2016-06-06T09:14:06.691Z</time>
      </trkpt>
      <trkpt lat="45.88221" lon="4.89066">
        <ele>305.299987793</ele>
        <time>2016-06-06T09:14:07.713Z</time>
      </trkpt>
      <trkpt lat="45.88221" lon="4.89074">
        <ele>305.399993896</ele>
        <time>2016-06-06T09:14:08.691Z</time>
      </trkpt>
      <trkpt lat="45.88221" lon="4.89082">
        <ele>305.299987793</ele>
        <time>2016-06-06T09:14:09.756Z</time>
      </trkpt>
      <trkpt lat="45.8822" lon="4.89089">
        <ele>304.799987793</ele>
        <time>2016-06-06T09:14:10.692Z</time>
      </trkpt>
      <trkpt lat="45.8822" lon="4.89097">
        <ele>304.899993896</ele>
        <time>2016-06-06T09:14:11.713Z</time>
      </trkpt>
      <trkpt lat="45.88219" lon="4.89105">
        <ele>305</ele>
        <time>2016-06-06T09:14:12.69Z</time>
      </trkpt>
      <trkpt lat="45.88218" lon="4.89113">
        <ele>304.700012207</ele>
        <time>2016-06-06T09:14:13.712Z</time>
      </trkpt>
      <trkpt lat="45.88217" lon="4.89121">
        <ele>304.200012207</ele>
        <time>2016-06-06T09:14:14.69Z</time>
      </trkpt>
      <trkpt lat="45.88216" lon="4.89129">
        <ele>304.5</ele>
        <time>2016-06-06T09:14:15.738Z</time>
      </trkpt>
      <trkpt lat="45.88216" lon="4.89137">
        <ele>304.299987793</ele>
        <time>2016-06-06T09:14:16.693Z</time>
      </trkpt>
      <trkpt lat="45.88215" lon="4.89145">
        <ele>304.299987793</ele>
        <time>2016-06-06T09:14:17.712Z</time>
      </trkpt>
      <trkpt lat="45.88215" lon="4.89153">
        <ele>304.399993896</ele>
        <time>2016-06-06T09:14:18.69Z</time>
      </trkpt>
      <trkpt lat="45.88214" lon="4.89161">
        <ele>304.399993896</ele>
        <time>2016-06-06T09:14:19.716Z</time>
      </trkpt>
      <trkpt lat="45.88213" lon="4.89169">
        <ele>304.600006104</ele>
        <time>2016-06-06T09:14:20.693Z</time>
      </trkpt>
      <trkpt lat="45.88212" lon="4.89177">
        <ele>305</ele>
        <time>2016-06-06T09:14:21.717Z</time>
      </trkpt>
      <trkpt lat="45.88211" lon="4.89185">
        <ele>306</ele>
        <time>2016-06-06T09:14:22.692Z</time>
      </trkpt>
      <trkpt lat="45.8821" lon="4.89192">
        <ele>306.399993896</ele>
        <time>2016-06-06T09:14:23.714Z</time>
      </trkpt>
      <trkpt lat="45.8821" lon="4.89199">
        <ele>306.700012207</ele>
        <time>2016-06-06T09:14:24.69Z</time>
      </trkpt>
      <trkpt lat="45.88209" lon="4.89206">
        <ele>306.700012207</ele>
        <time>2016-06-06T09:14:25.726Z</time>
      </trkpt>
      <trkpt lat="45.88208" lon="4.89213">
        <ele>306.899993896</ele>
        <time>2016-06-06T09:14:26.698Z</time>
      </trkpt>
      <trkpt lat="45.88208" lon="4.8922">
        <ele>307.399993896</ele>
        <time>2016-06-06T09:14:27.745Z</time>
      </trkpt>
      <trkpt lat="45.88208" lon="4.89227">
        <ele>307.600006104</ele>
        <time>2016-06-06T09:14:28.69Z</time>
      </trkpt>
      <trkpt lat="45.88208" lon="4.89235">
        <ele>307.399993896</ele>
        <time>2016-06-06T09:14:29.714Z</time>
      </trkpt>
      <trkpt lat="45.88207" lon="4.89242">
        <ele>307.399993896</ele>
        <time>2016-06-06T09:14:30.691Z</time>
      </trkpt>
      <trkpt lat="45.88207" lon="4.89249">
        <ele>308</ele>
        <time>2016-06-06T09:14:31.795Z</time>
      </trkpt>
      <trkpt lat="45.88206" lon="4.89257">
        <ele>307.899993896</ele>
        <time>2016-06-06T09:14:32.691Z</time>
      </trkpt>
      <trkpt lat="45.88206" lon="4.89264">
        <ele>308.299987793</ele>
        <time>2016-06-06T09:14:33.72Z</time>
      </trkpt>
      <trkpt lat="45.88206" lon="4.89271">
        <ele>308.5</ele>
        <time>2016-06-06T09:14:34.69Z</time>
      </trkpt>
      <trkpt lat="45.88205" lon="4.89278">
        <ele>309.100006104</ele>
        <time>2016-06-06T09:14:35.752Z</time>
      </trkpt>
      <trkpt lat="45.88205" lon="4.89286">
        <ele>309.5</ele>
        <time>2016-06-06T09:14:36.69Z</time>
      </trkpt>
      <trkpt lat="45.88204" lon="4.89293">
        <ele>309.200012207</ele>
        <time>2016-06-06T09:14:37.713Z</time>
      </trkpt>
      <trkpt lat="45.88204" lon="4.893">
        <ele>309.299987793</ele>
        <time>2016-06-06T09:14:38.692Z</time>
      </trkpt>
      <trkpt lat="45.88203" lon="4.89307">
        <ele>309.399993896</ele>
        <time>2016-06-06T09:14:39.718Z</time>
      </trkpt>
      <trkpt lat="45.88203" lon="4.89314">
        <ele>309.299987793</ele>
        <time>2016-06-06T09:14:40.694Z</time>
      </trkpt>
      <trkpt lat="45.88203" lon="4.89321">
        <ele>309.100006104</ele>
        <time>2016-06-06T09:14:41.715Z</time>
      </trkpt>
      <trkpt lat="45.88202" lon="4.89328">
        <ele>308.799987793</ele>
        <time>2016-06-06T09:14:42.691Z</time>
      </trkpt>
      <trkpt lat="45.88202" lon="4.89335">
        <ele>308.600006104</ele>
        <time>2016-06-06T09:14:43.711Z</time>
      </trkpt>
      <trkpt lat="45.88202" lon="4.89343">
        <ele>308.600006104</ele>
        <time>2016-06-06T09:14:44.69Z</time>
      </trkpt>
      <trkpt lat="45.88201" lon="4.8935">
        <ele>308.299987793</ele>
        <time>2016-06-06T09:14:45.727Z</time>
      </trkpt>
      <trkpt lat="45.88201" lon="4.89357">
        <ele>308.200012207</ele>
        <time>2016-06-06T09:14:46.693Z</time>
      </trkpt>
      <trkpt lat="45.882" lon="4.89364">
        <ele>307.899993896</ele>
        <time>2016-06-06T09:14:47.755Z</time>
      </trkpt>
      <trkpt lat="45.882" lon="4.89371">
        <ele>308</ele>
        <time>2016-06-06T09:14:48.73Z</time>
      </trkpt>
      <trkpt lat="45.88199" lon="4.89378">
        <ele>307.799987793</ele>
        <time>2016-06-06T09:14:49.712Z</time>
      </trkpt>
      <trkpt lat="45.88198" lon="4.89386">
        <ele>307.899993896</ele>
        <time>2016-06-06T09:14:50.69Z</time>
      </trkpt>
      <trkpt lat="45.88197" lon="4.89393">
        <ele>308</ele>
        <time>2016-06-06T09:14:51.719Z</time>
      </trkpt>
      <trkpt lat="45.88197" lon="4.894">
        <ele>307.799987793</ele>
        <time>2016-06-06T09:14:52.697Z</time>
      </trkpt>
      <trkpt lat="45.88197" lon="4.89408">
        <ele>307.799987793</ele>
        <time>2016-06-06T09:14:53.717Z</time>
      </trkpt>
      <trkpt lat="45.88197" lon="4.89415">
        <ele>307.799987793</ele>
        <time>2016-06-06T09:14:54.693Z</time>
      </trkpt>
      <trkpt lat="45.88196" lon="4.89422">
        <ele>307.5</ele>
        <time>2016-06-06T09:14:55.715Z</time>
      </trkpt>
      <trkpt lat="45.88196" lon="4.89429">
        <ele>307.5</ele>
        <time>2016-06-06T09:14:56.69Z</time>
      </trkpt>
      <trkpt lat="45.88196" lon="4.89436">
        <ele>307.700012207</ele>
        <time>2016-06-06T09:14:57.716Z</time>
      </trkpt>
      <trkpt lat="45.88196" lon="4.89444">
        <ele>307.899993896</ele>
        <time>2016-06-06T09:14:58.69Z</time>
      </trkpt>
      <trkpt lat="45.88195" lon="4.89451">
        <ele>308.100006104</ele>
        <time>2016-06-06T09:14:59.712Z</time>
      </trkpt>
      <trkpt lat="45.88195" lon="4.89458">
        <ele>308.100006104</ele>
        <time>2016-06-06T09:15:00.69Z</time>
      </trkpt>
      <trkpt lat="45.88195" lon="4.89465">
        <ele>308.299987793</ele>
        <time>2016-06-06T09:15:01.712Z</time>
      </trkpt>
      <trkpt lat="45.88195" lon="4.89472">
        <ele>308.600006104</ele>
        <time>2016-06-06T09:15:02.693Z</time>
      </trkpt>
      <trkpt lat="45.88195" lon="4.89479">
        <ele>309.100006104</ele>
        <time>2016-06-06T09:15:03.72Z</time>
      </trkpt>
      <trkpt lat="45.88195" lon="4.89486">
        <ele>309.299987793</ele>
        <time>2016-06-06T09:15:04.69Z</time>
      </trkpt>
      <trkpt lat="45.88195" lon="4.89499">
        <ele>310</ele>
        <time>2016-06-06T09:15:06.712Z</time>
      </trkpt>
      <trkpt lat="45.88195" lon="4.89505">
        <ele>310.100006104</ele>
        <time>2016-06-06T09:15:07.689Z</time>
      </trkpt>
      <trkpt lat="45.88195" lon="4.89517">
        <ele>311.200012207</ele>
        <time>2016-06-06T09:15:09.716Z</time>
      </trkpt>
      <trkpt lat="45.88195" lon="4.89523">
        <ele>311.600006104</ele>
        <time>2016-06-06T09:15:10.695Z</time>
      </trkpt>
      <trkpt lat="45.88195" lon="4.89535">
        <ele>312.600006104</ele>
        <time>2016-06-06T09:15:12.711Z</time>
      </trkpt>
      <trkpt lat="45.88195" lon="4.89541">
        <ele>312.799987793</ele>
        <time>2016-06-06T09:15:13.708Z</time>
      </trkpt>
      <trkpt lat="45.88195" lon="4.89552">
        <ele>312.799987793</ele>
        <time>2016-06-06T09:15:15.718Z</time>
      </trkpt>
      <trkpt lat="45.88194" lon="4.89558">
        <ele>312.700012207</ele>
        <time>2016-06-06T09:15:16.693Z</time>
      </trkpt>
      <trkpt lat="45.88194" lon="4.89568">
        <ele>313.5</ele>
        <time>2016-06-06T09:15:18.772Z</time>
      </trkpt>
      <trkpt lat="45.88194" lon="4.89573">
        <ele>314</ele>
        <time>2016-06-06T09:15:19.711Z</time>
      </trkpt>
      <trkpt lat="45.88193" lon="4.89583">
        <ele>315</ele>
        <time>2016-06-06T09:15:21.727Z</time>
      </trkpt>
      <trkpt lat="45.88193" lon="4.89588">
        <ele>315.399993896</ele>
        <time>2016-06-06T09:15:22.706Z</time>
      </trkpt>
      <trkpt lat="45.88193" lon="4.89598">
        <ele>315.799987793</ele>
        <time>2016-06-06T09:15:24.723Z</time>
      </trkpt>
      <trkpt lat="45.88193" lon="4.89603">
        <ele>316.5</ele>
        <time>2016-06-06T09:15:25.718Z</time>
      </trkpt>
      <trkpt lat="45.88193" lon="4.89614">
        <ele>316.799987793</ele>
        <time>2016-06-06T09:15:27.761Z</time>
      </trkpt>
      <trkpt lat="45.88193" lon="4.89619">
        <ele>317.100006104</ele>
        <time>2016-06-06T09:15:28.703Z</time>
      </trkpt>
      <trkpt lat="45.88193" lon="4.8963">
        <ele>317</ele>
        <time>2016-06-06T09:15:30.727Z</time>
      </trkpt>
      <trkpt lat="45.88192" lon="4.89636">
        <ele>316.899993896</ele>
        <time>2016-06-06T09:15:31.701Z</time>
      </trkpt>
      <trkpt lat="45.88192" lon="4.89648">
        <ele>316.600006104</ele>
        <time>2016-06-06T09:15:33.816Z</time>
      </trkpt>
      <trkpt lat="45.88192" lon="4.89654">
        <ele>316.799987793</ele>
        <time>2016-06-06T09:15:34.691Z</time>
      </trkpt>
      <trkpt lat="45.88192" lon="4.89666">
        <ele>316.799987793</ele>
        <time>2016-06-06T09:15:36.713Z</time>
      </trkpt>
      <trkpt lat="45.88191" lon="4.89672">
        <ele>316.799987793</ele>
        <time>2016-06-06T09:15:37.693Z</time>
      </trkpt>
      <trkpt lat="45.88191" lon="4.89684">
        <ele>316.600006104</ele>
        <time>2016-06-06T09:15:39.717Z</time>
      </trkpt>
      <trkpt lat="45.88191" lon="4.8969">
        <ele>316.600006104</ele>
        <time>2016-06-06T09:15:40.69Z</time>
      </trkpt>
      <trkpt lat="45.8819" lon="4.89702">
        <ele>316.299987793</ele>
        <time>2016-06-06T09:15:42.717Z</time>
      </trkpt>
      <trkpt lat="45.88189" lon="4.89709">
        <ele>316.299987793</ele>
        <time>2016-06-06T09:15:43.695Z</time>
      </trkpt>
      <trkpt lat="45.88189" lon="4.89715">
        <ele>316.200012207</ele>
        <time>2016-06-06T09:15:44.73Z</time>
      </trkpt>
      <trkpt lat="45.8819" lon="4.89722">
        <ele>316.100006104</ele>
        <time>2016-06-06T09:15:45.702Z</time>
      </trkpt>
      <trkpt lat="45.8819" lon="4.89729">
        <ele>316.100006104</ele>
        <time>2016-06-06T09:15:46.716Z</time>
      </trkpt>
      <trkpt lat="45.8819" lon="4.89735">
        <ele>316.200012207</ele>
        <time>2016-06-06T09:15:47.697Z</time>
      </trkpt>
      <trkpt lat="45.8819" lon="4.89742">
        <ele>315.899993896</ele>
        <time>2016-06-06T09:15:48.712Z</time>
      </trkpt>
      <trkpt lat="45.8819" lon="4.89749">
        <ele>315.700012207</ele>
        <time>2016-06-06T09:15:49.69Z</time>
      </trkpt>
      <trkpt lat="45.8819" lon="4.89756">
        <ele>316</ele>
        <time>2016-06-06T09:15:50.718Z</time>
      </trkpt>
      <trkpt lat="45.8819" lon="4.89763">
        <ele>316.100006104</ele>
        <time>2016-06-06T09:15:51.7Z</time>
      </trkpt>
      <trkpt lat="45.8819" lon="4.89771">
        <ele>316</ele>
        <time>2016-06-06T09:15:52.712Z</time>
      </trkpt>
      <trkpt lat="45.8819" lon="4.89779">
        <ele>315.899993896</ele>
        <time>2016-06-06T09:15:53.696Z</time>
      </trkpt>
      <trkpt lat="45.8819" lon="4.89786">
        <ele>316.100006104</ele>
        <time>2016-06-06T09:15:54.716Z</time>
      </trkpt>
      <trkpt lat="45.88191" lon="4.89793">
        <ele>316.299987793</ele>
        <time>2016-06-06T09:15:55.751Z</time>
      </trkpt>
      <trkpt lat="45.8819" lon="4.89801">
        <ele>316.299987793</ele>
        <time>2016-06-06T09:15:56.716Z</time>
      </trkpt>
      <trkpt lat="45.88191" lon="4.89809">
        <ele>316.200012207</ele>
        <time>2016-06-06T09:15:57.695Z</time>
      </trkpt>
      <trkpt lat="45.88191" lon="4.89817">
        <ele>316</ele>
        <time>2016-06-06T09:15:58.716Z</time>
      </trkpt>
      <trkpt lat="45.88191" lon="4.89825">
        <ele>315.799987793</ele>
        <time>2016-06-06T09:15:59.691Z</time>
      </trkpt>
      <trkpt lat="45.88191" lon="4.89833">
        <ele>315.5</ele>
        <time>2016-06-06T09:16:00.718Z</time>
      </trkpt>
      <trkpt lat="45.88191" lon="4.89842">
        <ele>315.5</ele>
        <time>2016-06-06T09:16:01.696Z</time>
      </trkpt>
      <trkpt lat="45.8819" lon="4.89849">
        <ele>315.5</ele>
        <time>2016-06-06T09:16:02.716Z</time>
      </trkpt>
      <trkpt lat="45.8819" lon="4.89858">
        <ele>315.399993896</ele>
        <time>2016-06-06T09:16:03.699Z</time>
      </trkpt>
      <trkpt lat="45.8819" lon="4.89866">
        <ele>315.200012207</ele>
        <time>2016-06-06T09:16:04.713Z</time>
      </trkpt>
      <trkpt lat="45.88189" lon="4.89874">
        <ele>314.799987793</ele>
        <time>2016-06-06T09:16:05.702Z</time>
      </trkpt>
      <trkpt lat="45.88189" lon="4.89883">
        <ele>314</ele>
        <time>2016-06-06T09:16:06.745Z</time>
      </trkpt>
      <trkpt lat="45.8819" lon="4.89891">
        <ele>314.100006104</ele>
        <time>2016-06-06T09:16:07.69Z</time>
      </trkpt>
      <trkpt lat="45.8819" lon="4.89899">
        <ele>313.600006104</ele>
        <time>2016-06-06T09:16:08.712Z</time>
      </trkpt>
      <trkpt lat="45.8819" lon="4.89907">
        <ele>313.200012207</ele>
        <time>2016-06-06T09:16:09.699Z</time>
      </trkpt>
      <trkpt lat="45.8819" lon="4.89915">
        <ele>313.200012207</ele>
        <time>2016-06-06T09:16:10.732Z</time>
      </trkpt>
      <trkpt lat="45.8819" lon="4.89923">
        <ele>313</ele>
        <time>2016-06-06T09:16:11.691Z</time>
      </trkpt>
      <trkpt lat="45.8819" lon="4.89932">
        <ele>312.700012207</ele>
        <time>2016-06-06T09:16:12.716Z</time>
      </trkpt>
      <trkpt lat="45.8819" lon="4.8994">
        <ele>312.799987793</ele>
        <time>2016-06-06T09:16:13.692Z</time>
      </trkpt>
      <trkpt lat="45.8819" lon="4.89948">
        <ele>312.700012207</ele>
        <time>2016-06-06T09:16:14.712Z</time>
      </trkpt>
      <trkpt lat="45.8819" lon="4.89957">
        <ele>312.700012207</ele>
        <time>2016-06-06T09:16:15.744Z</time>
      </trkpt>
      <trkpt lat="45.88191" lon="4.89966">
        <ele>312.799987793</ele>
        <time>2016-06-06T09:16:16.712Z</time>
      </trkpt>
      <trkpt lat="45.88192" lon="4.89975">
        <ele>312.5</ele>
        <time>2016-06-06T09:16:17.691Z</time>
      </trkpt>
      <trkpt lat="45.88192" lon="4.89983">
        <ele>312.299987793</ele>
        <time>2016-06-06T09:16:18.711Z</time>
      </trkpt>
      <trkpt lat="45.88192" lon="4.89992">
        <ele>312.399993896</ele>
        <time>2016-06-06T09:16:19.691Z</time>
      </trkpt>
      <trkpt lat="45.88193" lon="4.9">
        <ele>312.200012207</ele>
        <time>2016-06-06T09:16:20.714Z</time>
      </trkpt>
      <trkpt lat="45.88193" lon="4.90008">
        <ele>312.100006104</ele>
        <time>2016-06-06T09:16:21.699Z</time>
      </trkpt>
      <trkpt lat="45.88192" lon="4.90016">
        <ele>311.899993896</ele>
        <time>2016-06-06T09:16:22.713Z</time>
      </trkpt>
      <trkpt lat="45.88191" lon="4.90023">
        <ele>311.399993896</ele>
        <time>2016-06-06T09:16:23.691Z</time>
      </trkpt>
      <trkpt lat="45.88189" lon="4.90031">
        <ele>311.5</ele>
        <time>2016-06-06T09:16:24.713Z</time>
      </trkpt>
      <trkpt lat="45.88187" lon="4.90039">
        <ele>312.200012207</ele>
        <time>2016-06-06T09:16:25.697Z</time>
      </trkpt>
      <trkpt lat="45.88187" lon="4.90047">
        <ele>312</ele>
        <time>2016-06-06T09:16:26.712Z</time>
      </trkpt>
      <trkpt lat="45.88187" lon="4.90055">
        <ele>311.799987793</ele>
        <time>2016-06-06T09:16:27.694Z</time>
      </trkpt>
      <trkpt lat="45.8819" lon="4.90063">
        <ele>311.700012207</ele>
        <time>2016-06-06T09:16:28.715Z</time>
      </trkpt>
      <trkpt lat="45.88193" lon="4.90069">
        <ele>311.899993896</ele>
        <time>2016-06-06T09:16:29.69Z</time>
      </trkpt>
      <trkpt lat="45.88197" lon="4.90075">
        <ele>312</ele>
        <time>2016-06-06T09:16:30.713Z</time>
      </trkpt>
      <trkpt lat="45.88202" lon="4.90079">
        <ele>311.799987793</ele>
        <time>2016-06-06T09:16:31.689Z</time>
      </trkpt>
      <trkpt lat="45.88207" lon="4.90081">
        <ele>311.600006104</ele>
        <time>2016-06-06T09:16:32.725Z</time>
      </trkpt>
      <trkpt lat="45.88212" lon="4.90082">
        <ele>311.399993896</ele>
        <time>2016-06-06T09:16:33.699Z</time>
      </trkpt>
      <trkpt lat="45.88217" lon="4.90081">
        <ele>311.200012207</ele>
        <time>2016-06-06T09:16:34.713Z</time>
      </trkpt>
      <trkpt lat="45.88222" lon="4.90079">
        <ele>310.799987793</ele>
        <time>2016-06-06T09:16:35.698Z</time>
      </trkpt>
      <trkpt lat="45.88227" lon="4.90075">
        <ele>310.600006104</ele>
        <time>2016-06-06T09:16:36.715Z</time>
      </trkpt>
      <trkpt lat="45.88231" lon="4.9007">
        <ele>310.100006104</ele>
        <time>2016-06-06T09:16:37.693Z</time>
      </trkpt>
      <trkpt lat="45.88236" lon="4.90065">
        <ele>309.799987793</ele>
        <time>2016-06-06T09:16:38.712Z</time>
      </trkpt>
      <trkpt lat="45.8824" lon="4.90061">
        <ele>309.600006104</ele>
        <time>2016-06-06T09:16:39.698Z</time>
      </trkpt>
      <trkpt lat="45.88245" lon="4.90057">
        <ele>309.600006104</ele>
        <time>2016-06-06T09:16:40.712Z</time>
      </trkpt>
      <trkpt lat="45.88251" lon="4.90054">
        <ele>309.399993896</ele>
        <time>2016-06-06T09:16:41.707Z</time>
      </trkpt>
      <trkpt lat="45.88256" lon="4.90054">
        <ele>309.399993896</ele>
        <time>2016-06-06T09:16:42.715Z</time>
      </trkpt>
      <trkpt lat="45.88261" lon="4.90053">
        <ele>309.5</ele>
        <time>2016-06-06T09:16:43.689Z</time>
      </trkpt>
      <trkpt lat="45.88266" lon="4.90052">
        <ele>309.600006104</ele>
        <time>2016-06-06T09:16:44.712Z</time>
      </trkpt>
      <trkpt lat="45.88272" lon="4.9005">
        <ele>309.700012207</ele>
        <time>2016-06-06T09:16:45.751Z</time>
      </trkpt>
      <trkpt lat="45.88277" lon="4.90048">
        <ele>309.600006104</ele>
        <time>2016-06-06T09:16:46.727Z</time>
      </trkpt>
      <trkpt lat="45.88281" lon="4.90044">
        <ele>309.700012207</ele>
        <time>2016-06-06T09:16:47.691Z</time>
      </trkpt>
      <trkpt lat="45.88284" lon="4.9004">
        <ele>309.700012207</ele>
        <time>2016-06-06T09:16:48.711Z</time>
      </trkpt>
      <trkpt lat="45.88288" lon="4.90036">
        <ele>309.899993896</ele>
        <time>2016-06-06T09:16:49.689Z</time>
      </trkpt>
      <trkpt lat="45.88291" lon="4.90032">
        <ele>310.100006104</ele>
        <time>2016-06-06T09:16:50.712Z</time>
      </trkpt>
      <trkpt lat="45.88295" lon="4.90029">
        <ele>310.200012207</ele>
        <time>2016-06-06T09:16:51.697Z</time>
      </trkpt>
      <trkpt lat="45.883" lon="4.90026">
        <ele>310.299987793</ele>
        <time>2016-06-06T09:16:52.734Z</time>
      </trkpt>
      <trkpt lat="45.88304" lon="4.90024">
        <ele>310.600006104</ele>
        <time>2016-06-06T09:16:53.69Z</time>
      </trkpt>
      <trkpt lat="45.88313" lon="4.9002">
        <ele>310.5</ele>
        <time>2016-06-06T09:16:55.728Z</time>
      </trkpt>
      <trkpt lat="45.88316" lon="4.90018">
        <ele>311.100006104</ele>
        <time>2016-06-06T09:16:56.689Z</time>
      </trkpt>
      <trkpt lat="45.88324" lon="4.90014">
        <ele>311.700012207</ele>
        <time>2016-06-06T09:16:58.714Z</time>
      </trkpt>
      <trkpt lat="45.88327" lon="4.90012">
        <ele>311.899993896</ele>
        <time>2016-06-06T09:16:59.695Z</time>
      </trkpt>
      <trkpt lat="45.88335" lon="4.90009">
        <ele>311.700012207</ele>
        <time>2016-06-06T09:17:01.711Z</time>
      </trkpt>
      <trkpt lat="45.88339" lon="4.90007">
        <ele>311.5</ele>
        <time>2016-06-06T09:17:02.721Z</time>
      </trkpt>
      <trkpt lat="45.88347" lon="4.90003">
        <ele>310.799987793</ele>
        <time>2016-06-06T09:17:04.711Z</time>
      </trkpt>
      <trkpt lat="45.88351" lon="4.90001">
        <ele>310.799987793</ele>
        <time>2016-06-06T09:17:05.695Z</time>
      </trkpt>
      <trkpt lat="45.88359" lon="4.89997">
        <ele>310.5</ele>
        <time>2016-06-06T09:17:07.711Z</time>
      </trkpt>
      <trkpt lat="45.88363" lon="4.89994">
        <ele>310.600006104</ele>
        <time>2016-06-06T09:17:08.689Z</time>
      </trkpt>
      <trkpt lat="45.88367" lon="4.89991">
        <ele>310.600006104</ele>
        <time>2016-06-06T09:17:09.72Z</time>
      </trkpt>
      <trkpt lat="45.88372" lon="4.89988">
        <ele>310.5</ele>
        <time>2016-06-06T09:17:10.692Z</time>
      </trkpt>
      <trkpt lat="45.88377" lon="4.89985">
        <ele>310.299987793</ele>
        <time>2016-06-06T09:17:11.717Z</time>
      </trkpt>
      <trkpt lat="45.88382" lon="4.89983">
        <ele>310</ele>
        <time>2016-06-06T09:17:12.701Z</time>
      </trkpt>
      <trkpt lat="45.88388" lon="4.89981">
        <ele>309.799987793</ele>
        <time>2016-06-06T09:17:13.862Z</time>
      </trkpt>
      <trkpt lat="45.88394" lon="4.89978">
        <ele>309.700012207</ele>
        <time>2016-06-06T09:17:14.693Z</time>
      </trkpt>
      <trkpt lat="45.88399" lon="4.89976">
        <ele>309.299987793</ele>
        <time>2016-06-06T09:17:15.734Z</time>
      </trkpt>
      <trkpt lat="45.88405" lon="4.89973">
        <ele>309.299987793</ele>
        <time>2016-06-06T09:17:16.692Z</time>
      </trkpt>
      <trkpt lat="45.88411" lon="4.89971">
        <ele>309.100006104</ele>
        <time>2016-06-06T09:17:17.719Z</time>
      </trkpt>
      <trkpt lat="45.88417" lon="4.89968">
        <ele>309</ele>
        <time>2016-06-06T09:17:18.689Z</time>
      </trkpt>
      <trkpt lat="45.88423" lon="4.89965">
        <ele>308.899993896</ele>
        <time>2016-06-06T09:17:19.714Z</time>
      </trkpt>
      <trkpt lat="45.88429" lon="4.89962">
        <ele>308.5</ele>
        <time>2016-06-06T09:17:20.689Z</time>
      </trkpt>
      <trkpt lat="45.88434" lon="4.89959">
        <ele>308.200012207</ele>
        <time>2016-06-06T09:17:22.122Z</time>
      </trkpt>
      <trkpt lat="45.88439" lon="4.89956">
        <ele>308.100006104</ele>
        <time>2016-06-06T09:17:22.692Z</time>
      </trkpt>
      <trkpt lat="45.88445" lon="4.89954">
        <ele>307.899993896</ele>
        <time>2016-06-06T09:17:23.731Z</time>
      </trkpt>
      <trkpt lat="45.8845" lon="4.89953">
        <ele>307.600006104</ele>
        <time>2016-06-06T09:17:24.686Z</time>
      </trkpt>
      <trkpt lat="45.88456" lon="4.8995">
        <ele>307.299987793</ele>
        <time>2016-06-06T09:17:25.717Z</time>
      </trkpt>
      <trkpt lat="45.88461" lon="4.89947">
        <ele>307</ele>
        <time>2016-06-06T09:17:26.689Z</time>
      </trkpt>
      <trkpt lat="45.88467" lon="4.89945">
        <ele>306.700012207</ele>
        <time>2016-06-06T09:17:27.719Z</time>
      </trkpt>
      <trkpt lat="45.88472" lon="4.89942">
        <ele>306.799987793</ele>
        <time>2016-06-06T09:17:28.694Z</time>
      </trkpt>
      <trkpt lat="45.88478" lon="4.89941">
        <ele>306.700012207</ele>
        <time>2016-06-06T09:17:29.716Z</time>
      </trkpt>
      <trkpt lat="45.88483" lon="4.89939">
        <ele>306.600006104</ele>
        <time>2016-06-06T09:17:30.693Z</time>
      </trkpt>
      <trkpt lat="45.88489" lon="4.89937">
        <ele>306.100006104</ele>
        <time>2016-06-06T09:17:31.715Z</time>
      </trkpt>
      <trkpt lat="45.88495" lon="4.89934">
        <ele>305.399993896</ele>
        <time>2016-06-06T09:17:32.694Z</time>
      </trkpt>
      <trkpt lat="45.88501" lon="4.89933">
        <ele>305.200012207</ele>
        <time>2016-06-06T09:17:33.735Z</time>
      </trkpt>
      <trkpt lat="45.88508" lon="4.89932">
        <ele>304.600006104</ele>
        <time>2016-06-06T09:17:34.696Z</time>
      </trkpt>
      <trkpt lat="45.88515" lon="4.89931">
        <ele>304</ele>
        <time>2016-06-06T09:17:35.98Z</time>
      </trkpt>
      <trkpt lat="45.88523" lon="4.8993">
        <ele>303.600006104</ele>
        <time>2016-06-06T09:17:36.693Z</time>
      </trkpt>
      <trkpt lat="45.88531" lon="4.89927">
        <ele>303.100006104</ele>
        <time>2016-06-06T09:17:37.735Z</time>
      </trkpt>
      <trkpt lat="45.88539" lon="4.89925">
        <ele>302.700012207</ele>
        <time>2016-06-06T09:17:38.693Z</time>
      </trkpt>
      <trkpt lat="45.88547" lon="4.89923">
        <ele>302.399993896</ele>
        <time>2016-06-06T09:17:39.718Z</time>
      </trkpt>
      <trkpt lat="45.88556" lon="4.89921">
        <ele>302.100006104</ele>
        <time>2016-06-06T09:17:40.693Z</time>
      </trkpt>
      <trkpt lat="45.88564" lon="4.89918">
        <ele>301.700012207</ele>
        <time>2016-06-06T09:17:41.716Z</time>
      </trkpt>
      <trkpt lat="45.88573" lon="4.89916">
        <ele>301.200012207</ele>
        <time>2016-06-06T09:17:42.689Z</time>
      </trkpt>
      <trkpt lat="45.88573" lon="4.89916">
        <ele>301.200012207</ele>
        <time>2016-06-06T09:17:42.712Z</time>
      </trkpt>
      <trkpt lat="45.88582" lon="4.89915">
        <ele>300.600006104</ele>
        <time>2016-06-06T09:17:43.689Z</time>
      </trkpt>
      <trkpt lat="45.88591" lon="4.89913">
        <ele>299.899993896</ele>
        <time>2016-06-06T09:17:44.727Z</time>
      </trkpt>
      <trkpt lat="45.88599" lon="4.89911">
        <ele>299.600006104</ele>
        <time>2016-06-06T09:17:45.698Z</time>
      </trkpt>
      <trkpt lat="45.88606" lon="4.89911">
        <ele>299.299987793</ele>
        <time>2016-06-06T09:17:46.821Z</time>
      </trkpt>
      <trkpt lat="45.88613" lon="4.89912">
        <ele>299.100006104</ele>
        <time>2016-06-06T09:17:47.691Z</time>
      </trkpt>
      <trkpt lat="45.88617" lon="4.89916">
        <ele>299.100006104</ele>
        <time>2016-06-06T09:17:48.712Z</time>
      </trkpt>
      <trkpt lat="45.8862" lon="4.89921">
        <ele>298.799987793</ele>
        <time>2016-06-06T09:17:49.693Z</time>
      </trkpt>
      <trkpt lat="45.88622" lon="4.89928">
        <ele>298.700012207</ele>
        <time>2016-06-06T09:17:50.714Z</time>
      </trkpt>
      <trkpt lat="45.88623" lon="4.89935">
        <ele>298.600006104</ele>
        <time>2016-06-06T09:17:51.696Z</time>
      </trkpt>
      <trkpt lat="45.88624" lon="4.89942">
        <ele>298.399993896</ele>
        <time>2016-06-06T09:17:52.715Z</time>
      </trkpt>
      <trkpt lat="45.88625" lon="4.89949">
        <ele>298.299987793</ele>
        <time>2016-06-06T09:17:53.69Z</time>
      </trkpt>
      <trkpt lat="45.88627" lon="4.89956">
        <ele>298.899993896</ele>
        <time>2016-06-06T09:17:54.711Z</time>
      </trkpt>
      <trkpt lat="45.88628" lon="4.89963">
        <ele>298.899993896</ele>
        <time>2016-06-06T09:17:55.694Z</time>
      </trkpt>
      <trkpt lat="45.8863" lon="4.89969">
        <ele>299.100006104</ele>
        <time>2016-06-06T09:17:56.715Z</time>
      </trkpt>
      <trkpt lat="45.8863" lon="4.89976">
        <ele>299.200012207</ele>
        <time>2016-06-06T09:17:57.695Z</time>
      </trkpt>
      <trkpt lat="45.88632" lon="4.89982">
        <ele>299.600006104</ele>
        <time>2016-06-06T09:17:58.712Z</time>
      </trkpt>
      <trkpt lat="45.88633" lon="4.89988">
        <ele>299.700012207</ele>
        <time>2016-06-06T09:17:59.691Z</time>
      </trkpt>
      <trkpt lat="45.88635" lon="4.89995">
        <ele>299.899993896</ele>
        <time>2016-06-06T09:18:00.734Z</time>
      </trkpt>
      <trkpt lat="45.88636" lon="4.90002">
        <ele>299.700012207</ele>
        <time>2016-06-06T09:18:01.689Z</time>
      </trkpt>
      <trkpt lat="45.88638" lon="4.90009">
        <ele>300</ele>
        <time>2016-06-06T09:18:02.711Z</time>
      </trkpt>
      <trkpt lat="45.88639" lon="4.90017">
        <ele>300.100006104</ele>
        <time>2016-06-06T09:18:03.695Z</time>
      </trkpt>
      <trkpt lat="45.8864" lon="4.90025">
        <ele>300.5</ele>
        <time>2016-06-06T09:18:04.715Z</time>
      </trkpt>
      <trkpt lat="45.88641" lon="4.90032">
        <ele>300.799987793</ele>
        <time>2016-06-06T09:18:05.695Z</time>
      </trkpt>
      <trkpt lat="45.88642" lon="4.90039">
        <ele>301</ele>
        <time>2016-06-06T09:18:06.712Z</time>
      </trkpt>
      <trkpt lat="45.88643" lon="4.90046">
        <ele>300.899993896</ele>
        <time>2016-06-06T09:18:07.689Z</time>
      </trkpt>
      <trkpt lat="45.88644" lon="4.90053">
        <ele>300.600006104</ele>
        <time>2016-06-06T09:18:08.711Z</time>
      </trkpt>
      <trkpt lat="45.88646" lon="4.90061">
        <ele>300.700012207</ele>
        <time>2016-06-06T09:18:09.693Z</time>
      </trkpt>
      <trkpt lat="45.88647" lon="4.90068">
        <ele>300.5</ele>
        <time>2016-06-06T09:18:10.712Z</time>
      </trkpt>
      <trkpt lat="45.88648" lon="4.90076">
        <ele>300.299987793</ele>
        <time>2016-06-06T09:18:11.69Z</time>
      </trkpt>
      <trkpt lat="45.88649" lon="4.90084">
        <ele>300</ele>
        <time>2016-06-06T09:18:12.729Z</time>
      </trkpt>
      <trkpt lat="45.88651" lon="4.90093">
        <ele>299.600006104</ele>
        <time>2016-06-06T09:18:13.689Z</time>
      </trkpt>
      <trkpt lat="45.88652" lon="4.90101">
        <ele>299.399993896</ele>
        <time>2016-06-06T09:18:14.712Z</time>
      </trkpt>
      <trkpt lat="45.88654" lon="4.90109">
        <ele>299.5</ele>
        <time>2016-06-06T09:18:15.698Z</time>
      </trkpt>
      <trkpt lat="45.88654" lon="4.90117">
        <ele>299.799987793</ele>
        <time>2016-06-06T09:18:16.712Z</time>
      </trkpt>
      <trkpt lat="45.88656" lon="4.90125">
        <ele>299.799987793</ele>
        <time>2016-06-06T09:18:17.69Z</time>
      </trkpt>
      <trkpt lat="45.88657" lon="4.90133">
        <ele>299.700012207</ele>
        <time>2016-06-06T09:18:18.712Z</time>
      </trkpt>
      <trkpt lat="45.88658" lon="4.9014">
        <ele>300.100006104</ele>
        <time>2016-06-06T09:18:19.689Z</time>
      </trkpt>
      <trkpt lat="45.88659" lon="4.90147">
        <ele>300.100006104</ele>
        <time>2016-06-06T09:18:20.715Z</time>
      </trkpt>
      <trkpt lat="45.8866" lon="4.90155">
        <ele>300</ele>
        <time>2016-06-06T09:18:21.713Z</time>
      </trkpt>
      <trkpt lat="45.8866" lon="4.90162">
        <ele>300</ele>
        <time>2016-06-06T09:18:22.755Z</time>
      </trkpt>
      <trkpt lat="45.88661" lon="4.9017">
        <ele>300.100006104</ele>
        <time>2016-06-06T09:18:23.691Z</time>
      </trkpt>
      <trkpt lat="45.88661" lon="4.90178">
        <ele>300</ele>
        <time>2016-06-06T09:18:24.713Z</time>
      </trkpt>
      <trkpt lat="45.88662" lon="4.90186">
        <ele>300.100006104</ele>
        <time>2016-06-06T09:18:25.693Z</time>
      </trkpt>
      <trkpt lat="45.88662" lon="4.90194">
        <ele>300.399993896</ele>
        <time>2016-06-06T09:18:26.714Z</time>
      </trkpt>
      <trkpt lat="45.88662" lon="4.90203">
        <ele>300.299987793</ele>
        <time>2016-06-06T09:18:27.695Z</time>
      </trkpt>
      <trkpt lat="45.88662" lon="4.90211">
        <ele>300.5</ele>
        <time>2016-06-06T09:18:28.711Z</time>
      </trkpt>
      <trkpt lat="45.88662" lon="4.9022">
        <ele>300.700012207</ele>
        <time>2016-06-06T09:18:29.69Z</time>
      </trkpt>
      <trkpt lat="45.88661" lon="4.9023">
        <ele>301</ele>
        <time>2016-06-06T09:18:30.715Z</time>
      </trkpt>
      <trkpt lat="45.88661" lon="4.90239">
        <ele>301</ele>
        <time>2016-06-06T09:18:31.689Z</time>
      </trkpt>
      <trkpt lat="45.88661" lon="4.90248">
        <ele>301.200012207</ele>
        <time>2016-06-06T09:18:32.711Z</time>
      </trkpt>
      <trkpt lat="45.8866" lon="4.90257">
        <ele>301.100006104</ele>
        <time>2016-06-06T09:18:33.698Z</time>
      </trkpt>
      <trkpt lat="45.8866" lon="4.90266">
        <ele>301.100006104</ele>
        <time>2016-06-06T09:18:34.711Z</time>
      </trkpt>
      <trkpt lat="45.8866" lon="4.90275">
        <ele>301.200012207</ele>
        <time>2016-06-06T09:18:35.695Z</time>
      </trkpt>
      <trkpt lat="45.88659" lon="4.90283">
        <ele>301.5</ele>
        <time>2016-06-06T09:18:36.711Z</time>
      </trkpt>
      <trkpt lat="45.88659" lon="4.90291">
        <ele>301.5</ele>
        <time>2016-06-06T09:18:37.689Z</time>
      </trkpt>
      <trkpt lat="45.88659" lon="4.903">
        <ele>301.299987793</ele>
        <time>2016-06-06T09:18:38.718Z</time>
      </trkpt>
      <trkpt lat="45.8866" lon="4.90308">
        <ele>301.399993896</ele>
        <time>2016-06-06T09:18:39.698Z</time>
      </trkpt>
      <trkpt lat="45.88659" lon="4.90316">
        <ele>301</ele>
        <time>2016-06-06T09:18:40.714Z</time>
      </trkpt>
      <trkpt lat="45.8866" lon="4.90324">
        <ele>300.600006104</ele>
        <time>2016-06-06T09:18:41.694Z</time>
      </trkpt>
      <trkpt lat="45.88659" lon="4.90332">
        <ele>301</ele>
        <time>2016-06-06T09:18:42.727Z</time>
      </trkpt>
      <trkpt lat="45.88659" lon="4.9034">
        <ele>301</ele>
        <time>2016-06-06T09:18:43.689Z</time>
      </trkpt>
      <trkpt lat="45.8866" lon="4.90349">
        <ele>300.5</ele>
        <time>2016-06-06T09:18:44.714Z</time>
      </trkpt>
      <trkpt lat="45.8866" lon="4.90358">
        <ele>300.299987793</ele>
        <time>2016-06-06T09:18:45.697Z</time>
      </trkpt>
      <trkpt lat="45.8866" lon="4.90368">
        <ele>300.200012207</ele>
        <time>2016-06-06T09:18:46.712Z</time>
      </trkpt>
      <trkpt lat="45.8866" lon="4.90377">
        <ele>300.100006104</ele>
        <time>2016-06-06T09:18:47.738Z</time>
      </trkpt>
      <trkpt lat="45.8866" lon="4.90386">
        <ele>299.899993896</ele>
        <time>2016-06-06T09:18:48.766Z</time>
      </trkpt>
      <trkpt lat="45.8866" lon="4.90395">
        <ele>300.100006104</ele>
        <time>2016-06-06T09:18:49.693Z</time>
      </trkpt>
      <trkpt lat="45.8866" lon="4.90403">
        <ele>300</ele>
        <time>2016-06-06T09:18:50.718Z</time>
      </trkpt>
      <trkpt lat="45.8866" lon="4.90411">
        <ele>300.5</ele>
        <time>2016-06-06T09:18:51.699Z</time>
      </trkpt>
      <trkpt lat="45.88661" lon="4.9042">
        <ele>300.399993896</ele>
        <time>2016-06-06T09:18:52.816Z</time>
      </trkpt>
      <trkpt lat="45.88662" lon="4.90428">
        <ele>300.299987793</ele>
        <time>2016-06-06T09:18:53.69Z</time>
      </trkpt>
      <trkpt lat="45.88662" lon="4.90436">
        <ele>300.299987793</ele>
        <time>2016-06-06T09:18:54.714Z</time>
      </trkpt>
      <trkpt lat="45.88663" lon="4.90445">
        <ele>300</ele>
        <time>2016-06-06T09:18:55.694Z</time>
      </trkpt>
      <trkpt lat="45.88663" lon="4.90453">
        <ele>299.799987793</ele>
        <time>2016-06-06T09:18:56.714Z</time>
      </trkpt>
      <trkpt lat="45.88665" lon="4.90462">
        <ele>299.899993896</ele>
        <time>2016-06-06T09:18:57.698Z</time>
      </trkpt>
      <trkpt lat="45.88666" lon="4.9047">
        <ele>300</ele>
        <time>2016-06-06T09:18:58.768Z</time>
      </trkpt>
      <trkpt lat="45.88669" lon="4.90479">
        <ele>299.700012207</ele>
        <time>2016-06-06T09:18:59.696Z</time>
      </trkpt>
      <trkpt lat="45.88671" lon="4.90488">
        <ele>300</ele>
        <time>2016-06-06T09:19:00.715Z</time>
      </trkpt>
      <trkpt lat="45.88673" lon="4.90498">
        <ele>300</ele>
        <time>2016-06-06T09:19:01.721Z</time>
      </trkpt>
      <trkpt lat="45.88675" lon="4.90507">
        <ele>299.899993896</ele>
        <time>2016-06-06T09:19:02.716Z</time>
      </trkpt>
      <trkpt lat="45.88676" lon="4.90517">
        <ele>300.100006104</ele>
        <time>2016-06-06T09:19:03.698Z</time>
      </trkpt>
      <trkpt lat="45.88678" lon="4.90527">
        <ele>300</ele>
        <time>2016-06-06T09:19:04.714Z</time>
      </trkpt>
      <trkpt lat="45.8868" lon="4.90536">
        <ele>299.899993896</ele>
        <time>2016-06-06T09:19:05.696Z</time>
      </trkpt>
      <trkpt lat="45.88681" lon="4.90545">
        <ele>299.700012207</ele>
        <time>2016-06-06T09:19:06.715Z</time>
      </trkpt>
      <trkpt lat="45.88683" lon="4.90554">
        <ele>299.299987793</ele>
        <time>2016-06-06T09:19:07.694Z</time>
      </trkpt>
      <trkpt lat="45.88684" lon="4.90563">
        <ele>298.799987793</ele>
        <time>2016-06-06T09:19:08.781Z</time>
      </trkpt>
      <trkpt lat="45.88686" lon="4.90572">
        <ele>298.5</ele>
        <time>2016-06-06T09:19:09.699Z</time>
      </trkpt>
      <trkpt lat="45.88687" lon="4.9058">
        <ele>298.299987793</ele>
        <time>2016-06-06T09:19:10.712Z</time>
      </trkpt>
      <trkpt lat="45.88689" lon="4.90588">
        <ele>298.100006104</ele>
        <time>2016-06-06T09:19:11.693Z</time>
      </trkpt>
      <trkpt lat="45.8869" lon="4.90596">
        <ele>298.100006104</ele>
        <time>2016-06-06T09:19:12.714Z</time>
      </trkpt>
      <trkpt lat="45.88692" lon="4.90604">
        <ele>297.799987793</ele>
        <time>2016-06-06T09:19:13.689Z</time>
      </trkpt>
      <trkpt lat="45.88694" lon="4.90612">
        <ele>297.700012207</ele>
        <time>2016-06-06T09:19:14.712Z</time>
      </trkpt>
      <trkpt lat="45.88696" lon="4.9062">
        <ele>297.5</ele>
        <time>2016-06-06T09:19:15.697Z</time>
      </trkpt>
      <trkpt lat="45.88697" lon="4.90629">
        <ele>297.399993896</ele>
        <time>2016-06-06T09:19:16.714Z</time>
      </trkpt>
      <trkpt lat="45.88699" lon="4.90637">
        <ele>297</ele>
        <time>2016-06-06T09:19:17.694Z</time>
      </trkpt>
      <trkpt lat="45.887" lon="4.90646">
        <ele>296.799987793</ele>
        <time>2016-06-06T09:19:18.75Z</time>
      </trkpt>
      <trkpt lat="45.88701" lon="4.90655">
        <ele>296.600006104</ele>
        <time>2016-06-06T09:19:19.689Z</time>
      </trkpt>
      <trkpt lat="45.88702" lon="4.90664">
        <ele>296.5</ele>
        <time>2016-06-06T09:19:20.712Z</time>
      </trkpt>
      <trkpt lat="45.88704" lon="4.90674">
        <ele>296.799987793</ele>
        <time>2016-06-06T09:19:21.695Z</time>
      </trkpt>
      <trkpt lat="45.88705" lon="4.90683">
        <ele>296.899993896</ele>
        <time>2016-06-06T09:19:22.742Z</time>
      </trkpt>
      <trkpt lat="45.88707" lon="4.90692">
        <ele>296.700012207</ele>
        <time>2016-06-06T09:19:23.691Z</time>
      </trkpt>
      <trkpt lat="45.88708" lon="4.90701">
        <ele>296.700012207</ele>
        <time>2016-06-06T09:19:24.765Z</time>
      </trkpt>
      <trkpt lat="45.8871" lon="4.9071">
        <ele>296.600006104</ele>
        <time>2016-06-06T09:19:25.693Z</time>
      </trkpt>
      <trkpt lat="45.88711" lon="4.90718">
        <ele>296.600006104</ele>
        <time>2016-06-06T09:19:26.711Z</time>
      </trkpt>
      <trkpt lat="45.88713" lon="4.90727">
        <ele>296.399993896</ele>
        <time>2016-06-06T09:19:27.695Z</time>
      </trkpt>
      <trkpt lat="45.88715" lon="4.90735">
        <ele>296.399993896</ele>
        <time>2016-06-06T09:19:28.714Z</time>
      </trkpt>
      <trkpt lat="45.88717" lon="4.90744">
        <ele>296.899993896</ele>
        <time>2016-06-06T09:19:29.69Z</time>
      </trkpt>
      <trkpt lat="45.88719" lon="4.90753">
        <ele>297.100006104</ele>
        <time>2016-06-06T09:19:30.711Z</time>
      </trkpt>
      <trkpt lat="45.8872" lon="4.90762">
        <ele>296.899993896</ele>
        <time>2016-06-06T09:19:31.689Z</time>
      </trkpt>
      <trkpt lat="45.88723" lon="4.9077">
        <ele>296.799987793</ele>
        <time>2016-06-06T09:19:32.727Z</time>
      </trkpt>
      <trkpt lat="45.88725" lon="4.90779">
        <ele>296.5</ele>
        <time>2016-06-06T09:19:33.698Z</time>
      </trkpt>
      <trkpt lat="45.88727" lon="4.90788">
        <ele>296.799987793</ele>
        <time>2016-06-06T09:19:34.711Z</time>
      </trkpt>
      <trkpt lat="45.88729" lon="4.90797">
        <ele>296.700012207</ele>
        <time>2016-06-06T09:19:35.694Z</time>
      </trkpt>
      <trkpt lat="45.88731" lon="4.90806">
        <ele>297.100006104</ele>
        <time>2016-06-06T09:19:36.714Z</time>
      </trkpt>
      <trkpt lat="45.88733" lon="4.90815">
        <ele>297.299987793</ele>
        <time>2016-06-06T09:19:37.689Z</time>
      </trkpt>
      <trkpt lat="45.88735" lon="4.90823">
        <ele>297.299987793</ele>
        <time>2016-06-06T09:19:38.711Z</time>
      </trkpt>
      <trkpt lat="45.88737" lon="4.90832">
        <ele>297.399993896</ele>
        <time>2016-06-06T09:19:39.693Z</time>
      </trkpt>
      <trkpt lat="45.88739" lon="4.90841">
        <ele>297.100006104</ele>
        <time>2016-06-06T09:19:40.727Z</time>
      </trkpt>
      <trkpt lat="45.88741" lon="4.90849">
        <ele>297.299987793</ele>
        <time>2016-06-06T09:19:41.69Z</time>
      </trkpt>
      <trkpt lat="45.88742" lon="4.90858">
        <ele>297.600006104</ele>
        <time>2016-06-06T09:19:42.71Z</time>
      </trkpt>
      <trkpt lat="45.88743" lon="4.90866">
        <ele>297.899993896</ele>
        <time>2016-06-06T09:19:43.694Z</time>
      </trkpt>
      <trkpt lat="45.88744" lon="4.90874">
        <ele>298.299987793</ele>
        <time>2016-06-06T09:19:44.756Z</time>
      </trkpt>
      <trkpt lat="45.88747" lon="4.90882">
        <ele>298.299987793</ele>
        <time>2016-06-06T09:19:45.701Z</time>
      </trkpt>
      <trkpt lat="45.88748" lon="4.9089">
        <ele>298.399993896</ele>
        <time>2016-06-06T09:19:46.712Z</time>
      </trkpt>
      <trkpt lat="45.8875" lon="4.90898">
        <ele>298.399993896</ele>
        <time>2016-06-06T09:19:47.697Z</time>
      </trkpt>
      <trkpt lat="45.88752" lon="4.90905">
        <ele>298.399993896</ele>
        <time>2016-06-06T09:19:48.711Z</time>
      </trkpt>
      <trkpt lat="45.88753" lon="4.90913">
        <ele>298.299987793</ele>
        <time>2016-06-06T09:19:49.689Z</time>
      </trkpt>
      <trkpt lat="45.88756" lon="4.90922">
        <ele>298.299987793</ele>
        <time>2016-06-06T09:19:50.714Z</time>
      </trkpt>
      <trkpt lat="45.88758" lon="4.9093">
        <ele>298.100006104</ele>
        <time>2016-06-06T09:19:51.696Z</time>
      </trkpt>
      <trkpt lat="45.88759" lon="4.90938">
        <ele>298.100006104</ele>
        <time>2016-06-06T09:19:52.711Z</time>
      </trkpt>
      <trkpt lat="45.88761" lon="4.90947">
        <ele>298.100006104</ele>
        <time>2016-06-06T09:19:53.69Z</time>
      </trkpt>
      <trkpt lat="45.88763" lon="4.90955">
        <ele>298.100006104</ele>
        <time>2016-06-06T09:19:54.714Z</time>
      </trkpt>
      <trkpt lat="45.88764" lon="4.90963">
        <ele>298.100006104</ele>
        <time>2016-06-06T09:19:55.693Z</time>
      </trkpt>
      <trkpt lat="45.88765" lon="4.9097">
        <ele>297.700012207</ele>
        <time>2016-06-06T09:19:56.757Z</time>
      </trkpt>
      <trkpt lat="45.88767" lon="4.90977">
        <ele>297.799987793</ele>
        <time>2016-06-06T09:19:57.695Z</time>
      </trkpt>
      <trkpt lat="45.88768" lon="4.90984">
        <ele>297.899993896</ele>
        <time>2016-06-06T09:19:58.711Z</time>
      </trkpt>
      <trkpt lat="45.88769" lon="4.90991">
        <ele>298.100006104</ele>
        <time>2016-06-06T09:19:59.692Z</time>
      </trkpt>
      <trkpt lat="45.8877" lon="4.90997">
        <ele>298</ele>
        <time>2016-06-06T09:20:00.711Z</time>
      </trkpt>
      <trkpt lat="45.88772" lon="4.91004">
        <ele>298.100006104</ele>
        <time>2016-06-06T09:20:01.693Z</time>
      </trkpt>
      <trkpt lat="45.88773" lon="4.91011">
        <ele>298.299987793</ele>
        <time>2016-06-06T09:20:02.715Z</time>
      </trkpt>
      <trkpt lat="45.88774" lon="4.91018">
        <ele>298.399993896</ele>
        <time>2016-06-06T09:20:03.692Z</time>
      </trkpt>
      <trkpt lat="45.88776" lon="4.91025">
        <ele>298.200012207</ele>
        <time>2016-06-06T09:20:04.711Z</time>
      </trkpt>
      <trkpt lat="45.88779" lon="4.91032">
        <ele>297.700012207</ele>
        <time>2016-06-06T09:20:05.695Z</time>
      </trkpt>
      <trkpt lat="45.88781" lon="4.91039">
        <ele>297.600006104</ele>
        <time>2016-06-06T09:20:06.745Z</time>
      </trkpt>
      <trkpt lat="45.88783" lon="4.91047">
        <ele>297.299987793</ele>
        <time>2016-06-06T09:20:07.693Z</time>
      </trkpt>
      <trkpt lat="45.88786" lon="4.91054">
        <ele>297.100006104</ele>
        <time>2016-06-06T09:20:08.711Z</time>
      </trkpt>
      <trkpt lat="45.8879" lon="4.91061">
        <ele>297</ele>
        <time>2016-06-06T09:20:09.696Z</time>
      </trkpt>
      <trkpt lat="45.88795" lon="4.91067">
        <ele>296.5</ele>
        <time>2016-06-06T09:20:10.744Z</time>
      </trkpt>
      <trkpt lat="45.88798" lon="4.91074">
        <ele>296</ele>
        <time>2016-06-06T09:20:11.696Z</time>
      </trkpt>
      <trkpt lat="45.88802" lon="4.91082">
        <ele>295.899993896</ele>
        <time>2016-06-06T09:20:12.714Z</time>
      </trkpt>
      <trkpt lat="45.88804" lon="4.9109">
        <ele>295.5</ele>
        <time>2016-06-06T09:20:13.694Z</time>
      </trkpt>
      <trkpt lat="45.88804" lon="4.911">
        <ele>295.299987793</ele>
        <time>2016-06-06T09:20:14.715Z</time>
      </trkpt>
      <trkpt lat="45.88802" lon="4.91108">
        <ele>295.100006104</ele>
        <time>2016-06-06T09:20:15.7Z</time>
      </trkpt>
      <trkpt lat="45.888" lon="4.91115">
        <ele>295.200012207</ele>
        <time>2016-06-06T09:20:16.714Z</time>
      </trkpt>
      <trkpt lat="45.88797" lon="4.91122">
        <ele>295.100006104</ele>
        <time>2016-06-06T09:20:17.811Z</time>
      </trkpt>
      <trkpt lat="45.88795" lon="4.9113">
        <ele>295.200012207</ele>
        <time>2016-06-06T09:20:18.712Z</time>
      </trkpt>
      <trkpt lat="45.88792" lon="4.91137">
        <ele>295.200012207</ele>
        <time>2016-06-06T09:20:19.694Z</time>
      </trkpt>
      <trkpt lat="45.88791" lon="4.91144">
        <ele>295.5</ele>
        <time>2016-06-06T09:20:20.714Z</time>
      </trkpt>
      <trkpt lat="45.8879" lon="4.91152">
        <ele>295.799987793</ele>
        <time>2016-06-06T09:20:21.699Z</time>
      </trkpt>
      <trkpt lat="45.8879" lon="4.9116">
        <ele>296.100006104</ele>
        <time>2016-06-06T09:20:22.711Z</time>
      </trkpt>
      <trkpt lat="45.88789" lon="4.91167">
        <ele>296.299987793</ele>
        <time>2016-06-06T09:20:23.69Z</time>
      </trkpt>
      <trkpt lat="45.88789" lon="4.91175">
        <ele>296.899993896</ele>
        <time>2016-06-06T09:20:24.711Z</time>
      </trkpt>
      <trkpt lat="45.88789" lon="4.91182">
        <ele>297</ele>
        <time>2016-06-06T09:20:25.693Z</time>
      </trkpt>
      <trkpt lat="45.88789" lon="4.91189">
        <ele>297.299987793</ele>
        <time>2016-06-06T09:20:26.771Z</time>
      </trkpt>
      <trkpt lat="45.88789" lon="4.91197">
        <ele>297.299987793</ele>
        <time>2016-06-06T09:20:27.698Z</time>
      </trkpt>
      <trkpt lat="45.88789" lon="4.91204">
        <ele>297.5</ele>
        <time>2016-06-06T09:20:28.726Z</time>
      </trkpt>
      <trkpt lat="45.8879" lon="4.91211">
        <ele>297.5</ele>
        <time>2016-06-06T09:20:29.693Z</time>
      </trkpt>
      <trkpt lat="45.8879" lon="4.91218">
        <ele>297.799987793</ele>
        <time>2016-06-06T09:20:30.714Z</time>
      </trkpt>
      <trkpt lat="45.8879" lon="4.91226">
        <ele>298</ele>
        <time>2016-06-06T09:20:31.689Z</time>
      </trkpt>
      <trkpt lat="45.8879" lon="4.91233">
        <ele>298</ele>
        <time>2016-06-06T09:20:32.71Z</time>
      </trkpt>
      <trkpt lat="45.8879" lon="4.9124">
        <ele>298</ele>
        <time>2016-06-06T09:20:33.692Z</time>
      </trkpt>
      <trkpt lat="45.88791" lon="4.91248">
        <ele>298</ele>
        <time>2016-06-06T09:20:34.711Z</time>
      </trkpt>
      <trkpt lat="45.88791" lon="4.91255">
        <ele>298.299987793</ele>
        <time>2016-06-06T09:20:35.693Z</time>
      </trkpt>
      <trkpt lat="45.88791" lon="4.91263">
        <ele>298.299987793</ele>
        <time>2016-06-06T09:20:36.715Z</time>
      </trkpt>
      <trkpt lat="45.88792" lon="4.9127">
        <ele>298.200012207</ele>
        <time>2016-06-06T09:20:37.694Z</time>
      </trkpt>
      <trkpt lat="45.88792" lon="4.91278">
        <ele>298</ele>
        <time>2016-06-06T09:20:38.711Z</time>
      </trkpt>
      <trkpt lat="45.88792" lon="4.91285">
        <ele>297.899993896</ele>
        <time>2016-06-06T09:20:39.719Z</time>
      </trkpt>
      <trkpt lat="45.88792" lon="4.91292">
        <ele>298</ele>
        <time>2016-06-06T09:20:40.714Z</time>
      </trkpt>
      <trkpt lat="45.88793" lon="4.91299">
        <ele>298</ele>
        <time>2016-06-06T09:20:41.693Z</time>
      </trkpt>
      <trkpt lat="45.88794" lon="4.91306">
        <ele>297.899993896</ele>
        <time>2016-06-06T09:20:42.714Z</time>
      </trkpt>
      <trkpt lat="45.88794" lon="4.91313">
        <ele>297.899993896</ele>
        <time>2016-06-06T09:20:43.689Z</time>
      </trkpt>
      <trkpt lat="45.88794" lon="4.91321">
        <ele>297.700012207</ele>
        <time>2016-06-06T09:20:44.731Z</time>
      </trkpt>
      <trkpt lat="45.88794" lon="4.91328">
        <ele>297.700012207</ele>
        <time>2016-06-06T09:20:45.699Z</time>
      </trkpt>
      <trkpt lat="45.88794" lon="4.91335">
        <ele>297.899993896</ele>
        <time>2016-06-06T09:20:46.791Z</time>
      </trkpt>
      <trkpt lat="45.88795" lon="4.91343">
        <ele>298.100006104</ele>
        <time>2016-06-06T09:20:47.69Z</time>
      </trkpt>
      <trkpt lat="45.88796" lon="4.9135">
        <ele>298.399993896</ele>
        <time>2016-06-06T09:20:48.711Z</time>
      </trkpt>
      <trkpt lat="45.88797" lon="4.91358">
        <ele>298.5</ele>
        <time>2016-06-06T09:20:49.694Z</time>
      </trkpt>
      <trkpt lat="45.88798" lon="4.91366">
        <ele>298.799987793</ele>
        <time>2016-06-06T09:20:50.714Z</time>
      </trkpt>
      <trkpt lat="45.88799" lon="4.91374">
        <ele>298.5</ele>
        <time>2016-06-06T09:20:51.696Z</time>
      </trkpt>
      <trkpt lat="45.888" lon="4.91381">
        <ele>298.100006104</ele>
        <time>2016-06-06T09:20:52.727Z</time>
      </trkpt>
      <trkpt lat="45.88801" lon="4.91389">
        <ele>298.200012207</ele>
        <time>2016-06-06T09:20:53.692Z</time>
      </trkpt>
      <trkpt lat="45.88802" lon="4.91396">
        <ele>298</ele>
        <time>2016-06-06T09:20:54.71Z</time>
      </trkpt>
      <trkpt lat="45.88803" lon="4.91402">
        <ele>298</ele>
        <time>2016-06-06T09:20:55.697Z</time>
      </trkpt>
      <trkpt lat="45.88805" lon="4.91409">
        <ele>298.200012207</ele>
        <time>2016-06-06T09:20:56.787Z</time>
      </trkpt>
      <trkpt lat="45.88806" lon="4.91416">
        <ele>298.299987793</ele>
        <time>2016-06-06T09:20:57.689Z</time>
      </trkpt>
      <trkpt lat="45.88807" lon="4.91424">
        <ele>298</ele>
        <time>2016-06-06T09:20:58.711Z</time>
      </trkpt>
      <trkpt lat="45.88808" lon="4.91432">
        <ele>297.700012207</ele>
        <time>2016-06-06T09:20:59.693Z</time>
      </trkpt>
      <trkpt lat="45.8881" lon="4.9144">
        <ele>298.299987793</ele>
        <time>2016-06-06T09:21:00.711Z</time>
      </trkpt>
      <trkpt lat="45.88811" lon="4.91448">
        <ele>298.200012207</ele>
        <time>2016-06-06T09:21:01.689Z</time>
      </trkpt>
      <trkpt lat="45.88813" lon="4.91456">
        <ele>298.600006104</ele>
        <time>2016-06-06T09:21:02.726Z</time>
      </trkpt>
      <trkpt lat="45.88814" lon="4.91463">
        <ele>298.700012207</ele>
        <time>2016-06-06T09:21:03.693Z</time>
      </trkpt>
      <trkpt lat="45.88815" lon="4.91469">
        <ele>299</ele>
        <time>2016-06-06T09:21:04.714Z</time>
      </trkpt>
      <trkpt lat="45.88816" lon="4.91476">
        <ele>299.100006104</ele>
        <time>2016-06-06T09:21:05.697Z</time>
      </trkpt>
      <trkpt lat="45.88818" lon="4.91483">
        <ele>299.299987793</ele>
        <time>2016-06-06T09:21:06.714Z</time>
      </trkpt>
      <trkpt lat="45.8882" lon="4.9149">
        <ele>299.399993896</ele>
        <time>2016-06-06T09:21:07.694Z</time>
      </trkpt>
      <trkpt lat="45.88821" lon="4.91498">
        <ele>299.5</ele>
        <time>2016-06-06T09:21:08.714Z</time>
      </trkpt>
      <trkpt lat="45.88823" lon="4.91506">
        <ele>299.299987793</ele>
        <time>2016-06-06T09:21:09.698Z</time>
      </trkpt>
      <trkpt lat="45.88824" lon="4.91513">
        <ele>299.5</ele>
        <time>2016-06-06T09:21:10.726Z</time>
      </trkpt>
      <trkpt lat="45.88825" lon="4.9152">
        <ele>299.899993896</ele>
        <time>2016-06-06T09:21:11.69Z</time>
      </trkpt>
      <trkpt lat="45.88826" lon="4.91527">
        <ele>300.299987793</ele>
        <time>2016-06-06T09:21:12.785Z</time>
      </trkpt>
      <trkpt lat="45.88828" lon="4.91534">
        <ele>300.5</ele>
        <time>2016-06-06T09:21:13.691Z</time>
      </trkpt>
      <trkpt lat="45.88829" lon="4.91541">
        <ele>301.200012207</ele>
        <time>2016-06-06T09:21:14.714Z</time>
      </trkpt>
      <trkpt lat="45.88831" lon="4.91548">
        <ele>301.299987793</ele>
        <time>2016-06-06T09:21:15.698Z</time>
      </trkpt>
      <trkpt lat="45.88832" lon="4.91555">
        <ele>301.600006104</ele>
        <time>2016-06-06T09:21:16.711Z</time>
      </trkpt>
      <trkpt lat="45.88834" lon="4.91561">
        <ele>301.600006104</ele>
        <time>2016-06-06T09:21:17.694Z</time>
      </trkpt>
      <trkpt lat="45.88835" lon="4.91568">
        <ele>301.600006104</ele>
        <time>2016-06-06T09:21:18.763Z</time>
      </trkpt>
      <trkpt lat="45.88837" lon="4.91576">
        <ele>301.899993896</ele>
        <time>2016-06-06T09:21:19.688Z</time>
      </trkpt>
      <trkpt lat="45.8884" lon="4.91584">
        <ele>301.799987793</ele>
        <time>2016-06-06T09:21:20.714Z</time>
      </trkpt>
      <trkpt lat="45.88842" lon="4.91592">
        <ele>301.299987793</ele>
        <time>2016-06-06T09:21:21.694Z</time>
      </trkpt>
      <trkpt lat="45.88845" lon="4.916">
        <ele>301.600006104</ele>
        <time>2016-06-06T09:21:22.71Z</time>
      </trkpt>
      <trkpt lat="45.88847" lon="4.91607">
        <ele>301.5</ele>
        <time>2016-06-06T09:21:23.693Z</time>
      </trkpt>
      <trkpt lat="45.8885" lon="4.91616">
        <ele>301.5</ele>
        <time>2016-06-06T09:21:24.715Z</time>
      </trkpt>
      <trkpt lat="45.88852" lon="4.91623">
        <ele>301.700012207</ele>
        <time>2016-06-06T09:21:25.697Z</time>
      </trkpt>
      <trkpt lat="45.88854" lon="4.91631">
        <ele>302.100006104</ele>
        <time>2016-06-06T09:21:26.711Z</time>
      </trkpt>
      <trkpt lat="45.88856" lon="4.9164">
        <ele>302.100006104</ele>
        <time>2016-06-06T09:21:27.693Z</time>
      </trkpt>
      <trkpt lat="45.88858" lon="4.91648">
        <ele>301.600006104</ele>
        <time>2016-06-06T09:21:28.718Z</time>
      </trkpt>
      <trkpt lat="45.8886" lon="4.91656">
        <ele>301.100006104</ele>
        <time>2016-06-06T09:21:29.69Z</time>
      </trkpt>
      <trkpt lat="45.88863" lon="4.91664">
        <ele>301.100006104</ele>
        <time>2016-06-06T09:21:30.711Z</time>
      </trkpt>
      <trkpt lat="45.88865" lon="4.91672">
        <ele>301</ele>
        <time>2016-06-06T09:21:31.706Z</time>
      </trkpt>
      <trkpt lat="45.88867" lon="4.91679">
        <ele>301</ele>
        <time>2016-06-06T09:21:32.711Z</time>
      </trkpt>
      <trkpt lat="45.88869" lon="4.91687">
        <ele>301</ele>
        <time>2016-06-06T09:21:33.692Z</time>
      </trkpt>
      <trkpt lat="45.8887" lon="4.91695">
        <ele>300.700012207</ele>
        <time>2016-06-06T09:21:34.713Z</time>
      </trkpt>
      <trkpt lat="45.88872" lon="4.91702">
        <ele>300.600006104</ele>
        <time>2016-06-06T09:21:35.701Z</time>
      </trkpt>
      <trkpt lat="45.88873" lon="4.9171">
        <ele>300.600006104</ele>
        <time>2016-06-06T09:21:36.764Z</time>
      </trkpt>
      <trkpt lat="45.88875" lon="4.91718">
        <ele>300.399993896</ele>
        <time>2016-06-06T09:21:37.689Z</time>
      </trkpt>
      <trkpt lat="45.88876" lon="4.91726">
        <ele>300</ele>
        <time>2016-06-06T09:21:38.714Z</time>
      </trkpt>
      <trkpt lat="45.88878" lon="4.91734">
        <ele>299.399993896</ele>
        <time>2016-06-06T09:21:39.694Z</time>
      </trkpt>
      <trkpt lat="45.88879" lon="4.91742">
        <ele>299.200012207</ele>
        <time>2016-06-06T09:21:40.711Z</time>
      </trkpt>
      <trkpt lat="45.88881" lon="4.91751">
        <ele>298.899993896</ele>
        <time>2016-06-06T09:21:41.69Z</time>
      </trkpt>
      <trkpt lat="45.88883" lon="4.91759">
        <ele>298.700012207</ele>
        <time>2016-06-06T09:21:42.74Z</time>
      </trkpt>
      <trkpt lat="45.88884" lon="4.91767">
        <ele>298.5</ele>
        <time>2016-06-06T09:21:43.693Z</time>
      </trkpt>
      <trkpt lat="45.88886" lon="4.91776">
        <ele>298.299987793</ele>
        <time>2016-06-06T09:21:44.71Z</time>
      </trkpt>
      <trkpt lat="45.88888" lon="4.91784">
        <ele>298.100006104</ele>
        <time>2016-06-06T09:21:45.705Z</time>
      </trkpt>
      <trkpt lat="45.8889" lon="4.91793">
        <ele>297.700012207</ele>
        <time>2016-06-06T09:21:46.71Z</time>
      </trkpt>
      <trkpt lat="45.88892" lon="4.91801">
        <ele>297.399993896</ele>
        <time>2016-06-06T09:21:47.693Z</time>
      </trkpt>
      <trkpt lat="45.88893" lon="4.9181">
        <ele>297.100006104</ele>
        <time>2016-06-06T09:21:48.711Z</time>
      </trkpt>
      <trkpt lat="45.88895" lon="4.91819">
        <ele>297.100006104</ele>
        <time>2016-06-06T09:21:49.694Z</time>
      </trkpt>
      <trkpt lat="45.88897" lon="4.91827">
        <ele>297.200012207</ele>
        <time>2016-06-06T09:21:50.71Z</time>
      </trkpt>
      <trkpt lat="45.88898" lon="4.91835">
        <ele>297.100006104</ele>
        <time>2016-06-06T09:21:51.698Z</time>
      </trkpt>
      <trkpt lat="45.889" lon="4.91844">
        <ele>296.899993896</ele>
        <time>2016-06-06T09:21:52.726Z</time>
      </trkpt>
      <trkpt lat="45.88901" lon="4.91852">
        <ele>296.700012207</ele>
        <time>2016-06-06T09:21:53.693Z</time>
      </trkpt>
      <trkpt lat="45.88903" lon="4.91859">
        <ele>296.600006104</ele>
        <time>2016-06-06T09:21:54.717Z</time>
      </trkpt>
      <trkpt lat="45.88905" lon="4.91867">
        <ele>296.600006104</ele>
        <time>2016-06-06T09:21:55.703Z</time>
      </trkpt>
      <trkpt lat="45.88909" lon="4.91874">
        <ele>296.600006104</ele>
        <time>2016-06-06T09:21:56.714Z</time>
      </trkpt>
      <trkpt lat="45.88912" lon="4.9188">
        <ele>296.399993896</ele>
        <time>2016-06-06T09:21:57.698Z</time>
      </trkpt>
      <trkpt lat="45.88915" lon="4.91887">
        <ele>296.399993896</ele>
        <time>2016-06-06T09:21:58.715Z</time>
      </trkpt>
      <trkpt lat="45.88918" lon="4.91894">
        <ele>296.299987793</ele>
        <time>2016-06-06T09:21:59.696Z</time>
      </trkpt>
      <trkpt lat="45.88921" lon="4.91901">
        <ele>296.299987793</ele>
        <time>2016-06-06T09:22:00.711Z</time>
      </trkpt>
      <trkpt lat="45.88925" lon="4.91908">
        <ele>296.299987793</ele>
        <time>2016-06-06T09:22:01.694Z</time>
      </trkpt>
      <trkpt lat="45.88929" lon="4.91916">
        <ele>296</ele>
        <time>2016-06-06T09:22:02.713Z</time>
      </trkpt>
      <trkpt lat="45.88933" lon="4.91923">
        <ele>295.799987793</ele>
        <time>2016-06-06T09:22:03.693Z</time>
      </trkpt>
      <trkpt lat="45.88937" lon="4.91929">
        <ele>295.5</ele>
        <time>2016-06-06T09:22:04.711Z</time>
      </trkpt>
      <trkpt lat="45.88941" lon="4.91936">
        <ele>294.899993896</ele>
        <time>2016-06-06T09:22:05.707Z</time>
      </trkpt>
      <trkpt lat="45.88944" lon="4.91942">
        <ele>294.399993896</ele>
        <time>2016-06-06T09:22:06.714Z</time>
      </trkpt>
      <trkpt lat="45.88948" lon="4.91948">
        <ele>294.299987793</ele>
        <time>2016-06-06T09:22:07.691Z</time>
      </trkpt>
      <trkpt lat="45.88951" lon="4.91954">
        <ele>293.600006104</ele>
        <time>2016-06-06T09:22:08.725Z</time>
      </trkpt>
      <trkpt lat="45.88955" lon="4.9196">
        <ele>293.600006104</ele>
        <time>2016-06-06T09:22:09.694Z</time>
      </trkpt>
      <trkpt lat="45.88959" lon="4.91966">
        <ele>293.399993896</ele>
        <time>2016-06-06T09:22:10.735Z</time>
      </trkpt>
      <trkpt lat="45.88963" lon="4.91971">
        <ele>293.399993896</ele>
        <time>2016-06-06T09:22:11.69Z</time>
      </trkpt>
      <trkpt lat="45.88967" lon="4.91976">
        <ele>293.700012207</ele>
        <time>2016-06-06T09:22:12.713Z</time>
      </trkpt>
      <trkpt lat="45.8897" lon="4.91982">
        <ele>293.600006104</ele>
        <time>2016-06-06T09:22:13.689Z</time>
      </trkpt>
      <trkpt lat="45.88974" lon="4.91988">
        <ele>293.299987793</ele>
        <time>2016-06-06T09:22:14.714Z</time>
      </trkpt>
      <trkpt lat="45.88979" lon="4.91994">
        <ele>293.200012207</ele>
        <time>2016-06-06T09:22:15.707Z</time>
      </trkpt>
      <trkpt lat="45.88984" lon="4.91999">
        <ele>293.399993896</ele>
        <time>2016-06-06T09:22:16.822Z</time>
      </trkpt>
      <trkpt lat="45.88988" lon="4.92005">
        <ele>293</ele>
        <time>2016-06-06T09:22:17.692Z</time>
      </trkpt>
      <trkpt lat="45.88992" lon="4.92012">
        <ele>292.700012207</ele>
        <time>2016-06-06T09:22:18.71Z</time>
      </trkpt>
      <trkpt lat="45.88997" lon="4.92018">
        <ele>292.899993896</ele>
        <time>2016-06-06T09:22:19.689Z</time>
      </trkpt>
      <trkpt lat="45.89001" lon="4.92025">
        <ele>292.899993896</ele>
        <time>2016-06-06T09:22:20.717Z</time>
      </trkpt>
      <trkpt lat="45.89006" lon="4.92031">
        <ele>292.799987793</ele>
        <time>2016-06-06T09:22:21.694Z</time>
      </trkpt>
      <trkpt lat="45.8901" lon="4.92036">
        <ele>292.700012207</ele>
        <time>2016-06-06T09:22:22.719Z</time>
      </trkpt>
      <trkpt lat="45.89015" lon="4.92041">
        <ele>292.600006104</ele>
        <time>2016-06-06T09:22:23.693Z</time>
      </trkpt>
      <trkpt lat="45.8902" lon="4.92046">
        <ele>292.600006104</ele>
        <time>2016-06-06T09:22:24.715Z</time>
      </trkpt>
      <trkpt lat="45.89024" lon="4.92051">
        <ele>292.600006104</ele>
        <time>2016-06-06T09:22:25.709Z</time>
      </trkpt>
      <trkpt lat="45.89029" lon="4.92056">
        <ele>292.600006104</ele>
        <time>2016-06-06T09:22:26.712Z</time>
      </trkpt>
      <trkpt lat="45.89033" lon="4.92061">
        <ele>292.5</ele>
        <time>2016-06-06T09:22:27.692Z</time>
      </trkpt>
      <trkpt lat="45.89038" lon="4.92066">
        <ele>292.399993896</ele>
        <time>2016-06-06T09:22:28.71Z</time>
      </trkpt>
      <trkpt lat="45.89043" lon="4.9207">
        <ele>292.399993896</ele>
        <time>2016-06-06T09:22:29.693Z</time>
      </trkpt>
      <trkpt lat="45.89048" lon="4.92074">
        <ele>292.399993896</ele>
        <time>2016-06-06T09:22:30.713Z</time>
      </trkpt>
      <trkpt lat="45.89053" lon="4.92078">
        <ele>292.200012207</ele>
        <time>2016-06-06T09:22:31.694Z</time>
      </trkpt>
      <trkpt lat="45.89058" lon="4.92082">
        <ele>292.299987793</ele>
        <time>2016-06-06T09:22:32.714Z</time>
      </trkpt>
      <trkpt lat="45.89062" lon="4.92085">
        <ele>292.5</ele>
        <time>2016-06-06T09:22:33.694Z</time>
      </trkpt>
      <trkpt lat="45.89066" lon="4.92089">
        <ele>292.600006104</ele>
        <time>2016-06-06T09:22:34.756Z</time>
      </trkpt>
      <trkpt lat="45.8907" lon="4.92093">
        <ele>292.899993896</ele>
        <time>2016-06-06T09:22:35.709Z</time>
      </trkpt>
      <trkpt lat="45.89074" lon="4.92097">
        <ele>292.899993896</ele>
        <time>2016-06-06T09:22:36.71Z</time>
      </trkpt>
      <trkpt lat="45.89078" lon="4.92101">
        <ele>293</ele>
        <time>2016-06-06T09:22:37.693Z</time>
      </trkpt>
      <trkpt lat="45.89083" lon="4.92106">
        <ele>292.899993896</ele>
        <time>2016-06-06T09:22:38.714Z</time>
      </trkpt>
      <trkpt lat="45.89088" lon="4.9211">
        <ele>293</ele>
        <time>2016-06-06T09:22:39.694Z</time>
      </trkpt>
      <trkpt lat="45.89093" lon="4.92113">
        <ele>293.299987793</ele>
        <time>2016-06-06T09:22:40.711Z</time>
      </trkpt>
      <trkpt lat="45.89098" lon="4.92117">
        <ele>293.200012207</ele>
        <time>2016-06-06T09:22:41.692Z</time>
      </trkpt>
      <trkpt lat="45.89102" lon="4.92121">
        <ele>293.200012207</ele>
        <time>2016-06-06T09:22:42.711Z</time>
      </trkpt>
      <trkpt lat="45.89107" lon="4.92125">
        <ele>293.399993896</ele>
        <time>2016-06-06T09:22:43.688Z</time>
      </trkpt>
      <trkpt lat="45.89111" lon="4.92128">
        <ele>293.600006104</ele>
        <time>2016-06-06T09:22:44.711Z</time>
      </trkpt>
      <trkpt lat="45.89116" lon="4.92132">
        <ele>293.600006104</ele>
        <time>2016-06-06T09:22:45.712Z</time>
      </trkpt>
      <trkpt lat="45.8912" lon="4.92135">
        <ele>293.700012207</ele>
        <time>2016-06-06T09:22:46.71Z</time>
      </trkpt>
      <trkpt lat="45.89124" lon="4.92139">
        <ele>293.899993896</ele>
        <time>2016-06-06T09:22:47.692Z</time>
      </trkpt>
      <trkpt lat="45.89129" lon="4.92143">
        <ele>293.600006104</ele>
        <time>2016-06-06T09:22:48.714Z</time>
      </trkpt>
      <trkpt lat="45.89133" lon="4.92147">
        <ele>293.299987793</ele>
        <time>2016-06-06T09:22:49.693Z</time>
      </trkpt>
      <trkpt lat="45.89138" lon="4.9215">
        <ele>293.100006104</ele>
        <time>2016-06-06T09:22:50.765Z</time>
      </trkpt>
      <trkpt lat="45.89142" lon="4.92154">
        <ele>292.899993896</ele>
        <time>2016-06-06T09:22:51.695Z</time>
      </trkpt>
      <trkpt lat="45.89147" lon="4.92158">
        <ele>293</ele>
        <time>2016-06-06T09:22:52.71Z</time>
      </trkpt>
      <trkpt lat="45.89151" lon="4.92162">
        <ele>293</ele>
        <time>2016-06-06T09:22:53.691Z</time>
      </trkpt>
      <trkpt lat="45.89156" lon="4.92166">
        <ele>292.899993896</ele>
        <time>2016-06-06T09:22:54.711Z</time>
      </trkpt>
      <trkpt lat="45.8916" lon="4.9217">
        <ele>293</ele>
        <time>2016-06-06T09:22:55.729Z</time>
      </trkpt>
      <trkpt lat="45.89164" lon="4.92175">
        <ele>293.200012207</ele>
        <time>2016-06-06T09:22:56.713Z</time>
      </trkpt>
      <trkpt lat="45.89168" lon="4.9218">
        <ele>293.399993896</ele>
        <time>2016-06-06T09:22:57.695Z</time>
      </trkpt>
      <trkpt lat="45.89172" lon="4.92185">
        <ele>293.5</ele>
        <time>2016-06-06T09:22:58.738Z</time>
      </trkpt>
      <trkpt lat="45.89175" lon="4.9219">
        <ele>293.399993896</ele>
        <time>2016-06-06T09:22:59.693Z</time>
      </trkpt>
      <trkpt lat="45.89179" lon="4.92195">
        <ele>293.700012207</ele>
        <time>2016-06-06T09:23:00.717Z</time>
      </trkpt>
      <trkpt lat="45.89183" lon="4.92201">
        <ele>293.700012207</ele>
        <time>2016-06-06T09:23:01.694Z</time>
      </trkpt>
      <trkpt lat="45.89186" lon="4.92207">
        <ele>293.700012207</ele>
        <time>2016-06-06T09:23:02.713Z</time>
      </trkpt>
      <trkpt lat="45.8919" lon="4.92212">
        <ele>293.700012207</ele>
        <time>2016-06-06T09:23:03.694Z</time>
      </trkpt>
      <trkpt lat="45.89193" lon="4.92219">
        <ele>293.899993896</ele>
        <time>2016-06-06T09:23:04.71Z</time>
      </trkpt>
      <trkpt lat="45.89198" lon="4.92225">
        <ele>293.799987793</ele>
        <time>2016-06-06T09:23:05.713Z</time>
      </trkpt>
      <trkpt lat="45.89201" lon="4.92231">
        <ele>293.799987793</ele>
        <time>2016-06-06T09:23:06.711Z</time>
      </trkpt>
      <trkpt lat="45.89205" lon="4.92238">
        <ele>294</ele>
        <time>2016-06-06T09:23:07.694Z</time>
      </trkpt>
      <trkpt lat="45.89208" lon="4.92244">
        <ele>294.200012207</ele>
        <time>2016-06-06T09:23:08.71Z</time>
      </trkpt>
      <trkpt lat="45.89211" lon="4.9225">
        <ele>294.600006104</ele>
        <time>2016-06-06T09:23:09.698Z</time>
      </trkpt>
      <trkpt lat="45.89214" lon="4.92256">
        <ele>294.600006104</ele>
        <time>2016-06-06T09:23:10.71Z</time>
      </trkpt>
      <trkpt lat="45.89216" lon="4.92261">
        <ele>294.700012207</ele>
        <time>2016-06-06T09:23:11.692Z</time>
      </trkpt>
      <trkpt lat="45.89219" lon="4.92267">
        <ele>295</ele>
        <time>2016-06-06T09:23:12.713Z</time>
      </trkpt>
      <trkpt lat="45.89221" lon="4.92273">
        <ele>295.299987793</ele>
        <time>2016-06-06T09:23:13.694Z</time>
      </trkpt>
      <trkpt lat="45.89223" lon="4.92279">
        <ele>295.299987793</ele>
        <time>2016-06-06T09:23:14.711Z</time>
      </trkpt>
      <trkpt lat="45.89225" lon="4.92285">
        <ele>295.799987793</ele>
        <time>2016-06-06T09:23:15.715Z</time>
      </trkpt>
      <trkpt lat="45.89229" lon="4.92296">
        <ele>295.899993896</ele>
        <time>2016-06-06T09:23:17.714Z</time>
      </trkpt>
      <trkpt lat="45.89231" lon="4.92302">
        <ele>295.899993896</ele>
        <time>2016-06-06T09:23:18.688Z</time>
      </trkpt>
      <trkpt lat="45.89234" lon="4.92313">
        <ele>296.899993896</ele>
        <time>2016-06-06T09:23:20.713Z</time>
      </trkpt>
      <trkpt lat="45.89235" lon="4.92319">
        <ele>297.399993896</ele>
        <time>2016-06-06T09:23:21.695Z</time>
      </trkpt>
      <trkpt lat="45.89238" lon="4.92332">
        <ele>298.5</ele>
        <time>2016-06-06T09:23:23.724Z</time>
      </trkpt>
      <trkpt lat="45.89239" lon="4.92337">
        <ele>299.299987793</ele>
        <time>2016-06-06T09:23:24.689Z</time>
      </trkpt>
      <trkpt lat="45.8924" lon="4.92349">
        <ele>299.899993896</ele>
        <time>2016-06-06T09:23:26.726Z</time>
      </trkpt>
      <trkpt lat="45.89241" lon="4.92356">
        <ele>300.100006104</ele>
        <time>2016-06-06T09:23:27.691Z</time>
      </trkpt>
      <trkpt lat="45.89243" lon="4.92362">
        <ele>300.299987793</ele>
        <time>2016-06-06T09:23:28.71Z</time>
      </trkpt>
      <trkpt lat="45.89244" lon="4.92368">
        <ele>300.5</ele>
        <time>2016-06-06T09:23:29.689Z</time>
      </trkpt>
      <trkpt lat="45.89248" lon="4.92379">
        <ele>300.700012207</ele>
        <time>2016-06-06T09:23:31.725Z</time>
      </trkpt>
      <trkpt lat="45.8925" lon="4.92384">
        <ele>300.799987793</ele>
        <time>2016-06-06T09:23:32.684Z</time>
      </trkpt>
      <trkpt lat="45.89253" lon="4.92395">
        <ele>300.299987793</ele>
        <time>2016-06-06T09:23:34.821Z</time>
      </trkpt>
      <trkpt lat="45.89255" lon="4.92401">
        <ele>300.700012207</ele>
        <time>2016-06-06T09:23:35.716Z</time>
      </trkpt>
      <trkpt lat="45.8926" lon="4.92411">
        <ele>301.200012207</ele>
        <time>2016-06-06T09:23:37.709Z</time>
      </trkpt>
      <trkpt lat="45.89262" lon="4.92417">
        <ele>301.299987793</ele>
        <time>2016-06-06T09:23:38.693Z</time>
      </trkpt>
      <trkpt lat="45.89264" lon="4.92423">
        <ele>301.100006104</ele>
        <time>2016-06-06T09:23:39.714Z</time>
      </trkpt>
      <trkpt lat="45.89266" lon="4.92429">
        <ele>301</ele>
        <time>2016-06-06T09:23:40.688Z</time>
      </trkpt>
      <trkpt lat="45.89269" lon="4.92436">
        <ele>301.100006104</ele>
        <time>2016-06-06T09:23:41.735Z</time>
      </trkpt>
      <trkpt lat="45.89271" lon="4.92443">
        <ele>301.200012207</ele>
        <time>2016-06-06T09:23:42.688Z</time>
      </trkpt>
      <trkpt lat="45.89274" lon="4.9245">
        <ele>301.5</ele>
        <time>2016-06-06T09:23:43.71Z</time>
      </trkpt>
      <trkpt lat="45.89276" lon="4.92456">
        <ele>301.299987793</ele>
        <time>2016-06-06T09:23:44.691Z</time>
      </trkpt>
      <trkpt lat="45.89278" lon="4.92463">
        <ele>301.299987793</ele>
        <time>2016-06-06T09:23:45.899Z</time>
      </trkpt>
      <trkpt lat="45.8928" lon="4.9247">
        <ele>301</ele>
        <time>2016-06-06T09:23:46.688Z</time>
      </trkpt>
      <trkpt lat="45.89282" lon="4.92476">
        <ele>300.799987793</ele>
        <time>2016-06-06T09:23:47.712Z</time>
      </trkpt>
      <trkpt lat="45.89285" lon="4.92482">
        <ele>300.399993896</ele>
        <time>2016-06-06T09:23:48.694Z</time>
      </trkpt>
      <trkpt lat="45.89287" lon="4.92487">
        <ele>300.399993896</ele>
        <time>2016-06-06T09:23:49.713Z</time>
      </trkpt>
      <trkpt lat="45.89289" lon="4.92493">
        <ele>300.5</ele>
        <time>2016-06-06T09:23:50.693Z</time>
      </trkpt>
      <trkpt lat="45.89291" lon="4.92499">
        <ele>300.399993896</ele>
        <time>2016-06-06T09:23:51.731Z</time>
      </trkpt>
      <trkpt lat="45.89294" lon="4.92506">
        <ele>300.600006104</ele>
        <time>2016-06-06T09:23:52.69Z</time>
      </trkpt>
      <trkpt lat="45.89295" lon="4.92512">
        <ele>300.5</ele>
        <time>2016-06-06T09:23:53.71Z</time>
      </trkpt>
      <trkpt lat="45.89297" lon="4.92519">
        <ele>300.5</ele>
        <time>2016-06-06T09:23:54.688Z</time>
      </trkpt>
      <trkpt lat="45.893" lon="4.92525">
        <ele>300</ele>
        <time>2016-06-06T09:23:55.741Z</time>
      </trkpt>
      <trkpt lat="45.89302" lon="4.92531">
        <ele>300</ele>
        <time>2016-06-06T09:23:56.693Z</time>
      </trkpt>
      <trkpt lat="45.89304" lon="4.92538">
        <ele>300.100006104</ele>
        <time>2016-06-06T09:23:57.736Z</time>
      </trkpt>
      <trkpt lat="45.89306" lon="4.92545">
        <ele>299.899993896</ele>
        <time>2016-06-06T09:23:58.688Z</time>
      </trkpt>
      <trkpt lat="45.89308" lon="4.92552">
        <ele>299.600006104</ele>
        <time>2016-06-06T09:23:59.711Z</time>
      </trkpt>
      <trkpt lat="45.89311" lon="4.92559">
        <ele>299.600006104</ele>
        <time>2016-06-06T09:24:00.688Z</time>
      </trkpt>
      <trkpt lat="45.89313" lon="4.92566">
        <ele>299.5</ele>
        <time>2016-06-06T09:24:01.71Z</time>
      </trkpt>
      <trkpt lat="45.89316" lon="4.92574">
        <ele>299.5</ele>
        <time>2016-06-06T09:24:02.693Z</time>
      </trkpt>
      <trkpt lat="45.89318" lon="4.92581">
        <ele>299.399993896</ele>
        <time>2016-06-06T09:24:03.713Z</time>
      </trkpt>
      <trkpt lat="45.8932" lon="4.92589">
        <ele>299.600006104</ele>
        <time>2016-06-06T09:24:04.688Z</time>
      </trkpt>
      <trkpt lat="45.89322" lon="4.92597">
        <ele>299.299987793</ele>
        <time>2016-06-06T09:24:05.74Z</time>
      </trkpt>
      <trkpt lat="45.89324" lon="4.92604">
        <ele>299.100006104</ele>
        <time>2016-06-06T09:24:06.687Z</time>
      </trkpt>
      <trkpt lat="45.89326" lon="4.92612">
        <ele>298.799987793</ele>
        <time>2016-06-06T09:24:07.71Z</time>
      </trkpt>
      <trkpt lat="45.89328" lon="4.92619">
        <ele>299</ele>
        <time>2016-06-06T09:24:08.688Z</time>
      </trkpt>
      <trkpt lat="45.8933" lon="4.92627">
        <ele>299.100006104</ele>
        <time>2016-06-06T09:24:09.713Z</time>
      </trkpt>
      <trkpt lat="45.89332" lon="4.92634">
        <ele>299</ele>
        <time>2016-06-06T09:24:10.694Z</time>
      </trkpt>
      <trkpt lat="45.89334" lon="4.92641">
        <ele>298.600006104</ele>
        <time>2016-06-06T09:24:11.714Z</time>
      </trkpt>
      <trkpt lat="45.89336" lon="4.92648">
        <ele>298.5</ele>
        <time>2016-06-06T09:24:12.688Z</time>
      </trkpt>
      <trkpt lat="45.89338" lon="4.92655">
        <ele>298.399993896</ele>
        <time>2016-06-06T09:24:13.723Z</time>
      </trkpt>
      <trkpt lat="45.89339" lon="4.92662">
        <ele>298.299987793</ele>
        <time>2016-06-06T09:24:14.694Z</time>
      </trkpt>
      <trkpt lat="45.89341" lon="4.92669">
        <ele>298</ele>
        <time>2016-06-06T09:24:15.882Z</time>
      </trkpt>
      <trkpt lat="45.89343" lon="4.92677">
        <ele>298</ele>
        <time>2016-06-06T09:24:16.774Z</time>
      </trkpt>
      <trkpt lat="45.89345" lon="4.92684">
        <ele>297.600006104</ele>
        <time>2016-06-06T09:24:17.711Z</time>
      </trkpt>
      <trkpt lat="45.89347" lon="4.92692">
        <ele>297.399993896</ele>
        <time>2016-06-06T09:24:18.688Z</time>
      </trkpt>
      <trkpt lat="45.89348" lon="4.92701">
        <ele>297.200012207</ele>
        <time>2016-06-06T09:24:19.713Z</time>
      </trkpt>
      <trkpt lat="45.8935" lon="4.92709">
        <ele>297</ele>
        <time>2016-06-06T09:24:20.693Z</time>
      </trkpt>
      <trkpt lat="45.89352" lon="4.92718">
        <ele>296.700012207</ele>
        <time>2016-06-06T09:24:21.713Z</time>
      </trkpt>
      <trkpt lat="45.89354" lon="4.92727">
        <ele>296.399993896</ele>
        <time>2016-06-06T09:24:22.691Z</time>
      </trkpt>
      <trkpt lat="45.89355" lon="4.92735">
        <ele>296.399993896</ele>
        <time>2016-06-06T09:24:23.73Z</time>
      </trkpt>
      <trkpt lat="45.89357" lon="4.92744">
        <ele>296.700012207</ele>
        <time>2016-06-06T09:24:24.687Z</time>
      </trkpt>
      <trkpt lat="45.89359" lon="4.92751">
        <ele>296.899993896</ele>
        <time>2016-06-06T09:24:25.744Z</time>
      </trkpt>
      <trkpt lat="45.8936" lon="4.92759">
        <ele>297.100006104</ele>
        <time>2016-06-06T09:24:26.688Z</time>
      </trkpt>
      <trkpt lat="45.89362" lon="4.92766">
        <ele>297.100006104</ele>
        <time>2016-06-06T09:24:27.717Z</time>
      </trkpt>
      <trkpt lat="45.89363" lon="4.92774">
        <ele>297.100006104</ele>
        <time>2016-06-06T09:24:28.688Z</time>
      </trkpt>
      <trkpt lat="45.89364" lon="4.92781">
        <ele>297.100006104</ele>
        <time>2016-06-06T09:24:29.738Z</time>
      </trkpt>
      <trkpt lat="45.89365" lon="4.92789">
        <ele>297.100006104</ele>
        <time>2016-06-06T09:24:30.68Z</time>
      </trkpt>
      <trkpt lat="45.89366" lon="4.92796">
        <ele>296.899993896</ele>
        <time>2016-06-06T09:24:31.713Z</time>
      </trkpt>
      <trkpt lat="45.89367" lon="4.92803">
        <ele>297</ele>
        <time>2016-06-06T09:24:32.691Z</time>
      </trkpt>
      <trkpt lat="45.89368" lon="4.92809">
        <ele>296.899993896</ele>
        <time>2016-06-06T09:24:33.713Z</time>
      </trkpt>
      <trkpt lat="45.89369" lon="4.92817">
        <ele>297.299987793</ele>
        <time>2016-06-06T09:24:34.691Z</time>
      </trkpt>
      <trkpt lat="45.8937" lon="4.92824">
        <ele>297.100006104</ele>
        <time>2016-06-06T09:24:35.777Z</time>
      </trkpt>
      <trkpt lat="45.89372" lon="4.92831">
        <ele>296.700012207</ele>
        <time>2016-06-06T09:24:36.691Z</time>
      </trkpt>
      <trkpt lat="45.89373" lon="4.92839">
        <ele>296.700012207</ele>
        <time>2016-06-06T09:24:37.736Z</time>
      </trkpt>
      <trkpt lat="45.89375" lon="4.92847">
        <ele>296.299987793</ele>
        <time>2016-06-06T09:24:38.691Z</time>
      </trkpt>
      <trkpt lat="45.89378" lon="4.92855">
        <ele>295.799987793</ele>
        <time>2016-06-06T09:24:39.716Z</time>
      </trkpt>
      <trkpt lat="45.89381" lon="4.92864">
        <ele>294.899993896</ele>
        <time>2016-06-06T09:24:40.691Z</time>
      </trkpt>
      <trkpt lat="45.89385" lon="4.92873">
        <ele>294.5</ele>
        <time>2016-06-06T09:24:41.718Z</time>
      </trkpt>
      <trkpt lat="45.89389" lon="4.92882">
        <ele>293.799987793</ele>
        <time>2016-06-06T09:24:42.688Z</time>
      </trkpt>
      <trkpt lat="45.89392" lon="4.92892">
        <ele>292.700012207</ele>
        <time>2016-06-06T09:24:43.713Z</time>
      </trkpt>
      <trkpt lat="45.89396" lon="4.92902">
        <ele>292.399993896</ele>
        <time>2016-06-06T09:24:44.706Z</time>
      </trkpt>
      <trkpt lat="45.89399" lon="4.92912">
        <ele>291.899993896</ele>
        <time>2016-06-06T09:24:45.746Z</time>
      </trkpt>
      <trkpt lat="45.89404" lon="4.92923">
        <ele>291.799987793</ele>
        <time>2016-06-06T09:24:46.691Z</time>
      </trkpt>
      <trkpt lat="45.89408" lon="4.92933">
        <ele>291.299987793</ele>
        <time>2016-06-06T09:24:47.71Z</time>
      </trkpt>
      <trkpt lat="45.89412" lon="4.92943">
        <ele>290.5</ele>
        <time>2016-06-06T09:24:48.694Z</time>
      </trkpt>
      <trkpt lat="45.89417" lon="4.92955">
        <ele>290</ele>
        <time>2016-06-06T09:24:49.729Z</time>
      </trkpt>
      <trkpt lat="45.8942" lon="4.92966">
        <ele>289.600006104</ele>
        <time>2016-06-06T09:24:50.695Z</time>
      </trkpt>
      <trkpt lat="45.89424" lon="4.92977">
        <ele>289.399993896</ele>
        <time>2016-06-06T09:24:51.731Z</time>
      </trkpt>
      <trkpt lat="45.89428" lon="4.92987">
        <ele>288.899993896</ele>
        <time>2016-06-06T09:24:52.689Z</time>
      </trkpt>
      <trkpt lat="45.89432" lon="4.92997">
        <ele>288.5</ele>
        <time>2016-06-06T09:24:53.714Z</time>
      </trkpt>
      <trkpt lat="45.89436" lon="4.93007">
        <ele>288.5</ele>
        <time>2016-06-06T09:24:54.691Z</time>
      </trkpt>
      <trkpt lat="45.8944" lon="4.93016">
        <ele>288.299987793</ele>
        <time>2016-06-06T09:24:55.744Z</time>
      </trkpt>
      <trkpt lat="45.89444" lon="4.93024">
        <ele>287.700012207</ele>
        <time>2016-06-06T09:24:56.691Z</time>
      </trkpt>
      <trkpt lat="45.89447" lon="4.93031">
        <ele>287.399993896</ele>
        <time>2016-06-06T09:24:57.716Z</time>
      </trkpt>
      <trkpt lat="45.89449" lon="4.93038">
        <ele>286.899993896</ele>
        <time>2016-06-06T09:24:58.687Z</time>
      </trkpt>
      <trkpt lat="45.89452" lon="4.93044">
        <ele>286.5</ele>
        <time>2016-06-06T09:24:59.71Z</time>
      </trkpt>
      <trkpt lat="45.89454" lon="4.9305">
        <ele>286</ele>
        <time>2016-06-06T09:25:00.737Z</time>
      </trkpt>
      <trkpt lat="45.89456" lon="4.93056">
        <ele>285.5</ele>
        <time>2016-06-06T09:25:01.808Z</time>
      </trkpt>
      <trkpt lat="45.89459" lon="4.93061">
        <ele>285.200012207</ele>
        <time>2016-06-06T09:25:02.691Z</time>
      </trkpt>
      <trkpt lat="45.89463" lon="4.9307">
        <ele>284.799987793</ele>
        <time>2016-06-06T09:25:04.714Z</time>
      </trkpt>
      <trkpt lat="45.89465" lon="4.93075">
        <ele>284</ele>
        <time>2016-06-06T09:25:05.724Z</time>
      </trkpt>
      <trkpt lat="45.89468" lon="4.93084">
        <ele>283.5</ele>
        <time>2016-06-06T09:25:08.713Z</time>
      </trkpt>
      <trkpt lat="45.89468" lon="4.93087">
        <ele>283.299987793</ele>
        <time>2016-06-06T09:25:09.694Z</time>
      </trkpt>
      <trkpt lat="45.8947" lon="4.93096">
        <ele>283.200012207</ele>
        <time>2016-06-06T09:25:11.878Z</time>
      </trkpt>
      <trkpt lat="45.8947" lon="4.931">
        <ele>283.299987793</ele>
        <time>2016-06-06T09:25:12.688Z</time>
      </trkpt>
      <trkpt lat="45.89474" lon="4.93111">
        <ele>282.899993896</ele>
        <time>2016-06-06T09:25:15.764Z</time>
      </trkpt>
      <trkpt lat="45.89477" lon="4.93112">
        <ele>282.899993896</ele>
        <time>2016-06-06T09:25:16.693Z</time>
      </trkpt>
      <trkpt lat="45.89483" lon="4.93115">
        <ele>282.799987793</ele>
        <time>2016-06-06T09:25:19.713Z</time>
      </trkpt>
      <trkpt lat="45.89486" lon="4.93115">
        <ele>282.700012207</ele>
        <time>2016-06-06T09:25:20.691Z</time>
      </trkpt>
      <trkpt lat="45.89493" lon="4.9312">
        <ele>282.5</ele>
        <time>2016-06-06T09:25:23.713Z</time>
      </trkpt>
      <trkpt lat="45.89495" lon="4.93124">
        <ele>282.5</ele>
        <time>2016-06-06T09:25:24.692Z</time>
      </trkpt>
      <trkpt lat="45.895" lon="4.93135">
        <ele>282.799987793</ele>
        <time>2016-06-06T09:25:26.71Z</time>
      </trkpt>
      <trkpt lat="45.89501" lon="4.93141">
        <ele>282.700012207</ele>
        <time>2016-06-06T09:25:27.694Z</time>
      </trkpt>
      <trkpt lat="45.89503" lon="4.93148">
        <ele>282.700012207</ele>
        <time>2016-06-06T09:25:28.745Z</time>
      </trkpt>
      <trkpt lat="45.89505" lon="4.93154">
        <ele>283</ele>
        <time>2016-06-06T09:25:29.693Z</time>
      </trkpt>
      <trkpt lat="45.89507" lon="4.9316">
        <ele>283.200012207</ele>
        <time>2016-06-06T09:25:30.787Z</time>
      </trkpt>
      <trkpt lat="45.89509" lon="4.93166">
        <ele>283.399993896</ele>
        <time>2016-06-06T09:25:31.705Z</time>
      </trkpt>
      <trkpt lat="45.89511" lon="4.93172">
        <ele>283.700012207</ele>
        <time>2016-06-06T09:25:32.713Z</time>
      </trkpt>
      <trkpt lat="45.89513" lon="4.93178">
        <ele>284</ele>
        <time>2016-06-06T09:25:33.691Z</time>
      </trkpt>
      <trkpt lat="45.89514" lon="4.93185">
        <ele>284.299987793</ele>
        <time>2016-06-06T09:25:34.828Z</time>
      </trkpt>
      <trkpt lat="45.89516" lon="4.93191">
        <ele>284.5</ele>
        <time>2016-06-06T09:25:35.72Z</time>
      </trkpt>
      <trkpt lat="45.89517" lon="4.93197">
        <ele>284.700012207</ele>
        <time>2016-06-06T09:25:36.729Z</time>
      </trkpt>
      <trkpt lat="45.89519" lon="4.93203">
        <ele>285.5</ele>
        <time>2016-06-06T09:25:37.687Z</time>
      </trkpt>
      <trkpt lat="45.89521" lon="4.9321">
        <ele>285.700012207</ele>
        <time>2016-06-06T09:25:38.713Z</time>
      </trkpt>
      <trkpt lat="45.89522" lon="4.93216">
        <ele>285.899993896</ele>
        <time>2016-06-06T09:25:39.694Z</time>
      </trkpt>
      <trkpt lat="45.89524" lon="4.93222">
        <ele>286.399993896</ele>
        <time>2016-06-06T09:25:40.713Z</time>
      </trkpt>
      <trkpt lat="45.89525" lon="4.93228">
        <ele>286.899993896</ele>
        <time>2016-06-06T09:25:41.693Z</time>
      </trkpt>
      <trkpt lat="45.89525" lon="4.93241">
        <ele>287.5</ele>
        <time>2016-06-06T09:25:43.716Z</time>
      </trkpt>
      <trkpt lat="45.89526" lon="4.93247">
        <ele>287.799987793</ele>
        <time>2016-06-06T09:25:44.691Z</time>
      </trkpt>
      <trkpt lat="45.89526" lon="4.93259">
        <ele>287.899993896</ele>
        <time>2016-06-06T09:25:46.713Z</time>
      </trkpt>
      <trkpt lat="45.89524" lon="4.93265">
        <ele>287.200012207</ele>
        <time>2016-06-06T09:25:47.694Z</time>
      </trkpt>
      <trkpt lat="45.89522" lon="4.93277">
        <ele>286.899993896</ele>
        <time>2016-06-06T09:25:49.715Z</time>
      </trkpt>
      <trkpt lat="45.89522" lon="4.93282">
        <ele>286.899993896</ele>
        <time>2016-06-06T09:25:50.692Z</time>
      </trkpt>
      <trkpt lat="45.89522" lon="4.93289">
        <ele>287.100006104</ele>
        <time>2016-06-06T09:25:51.715Z</time>
      </trkpt>
      <trkpt lat="45.89521" lon="4.93296">
        <ele>287</ele>
        <time>2016-06-06T09:25:52.712Z</time>
      </trkpt>
      <trkpt lat="45.8952" lon="4.93304">
        <ele>286.600006104</ele>
        <time>2016-06-06T09:25:53.713Z</time>
      </trkpt>
      <trkpt lat="45.8952" lon="4.93312">
        <ele>286.299987793</ele>
        <time>2016-06-06T09:25:54.687Z</time>
      </trkpt>
      <trkpt lat="45.8952" lon="4.9332">
        <ele>285.899993896</ele>
        <time>2016-06-06T09:25:55.75Z</time>
      </trkpt>
      <trkpt lat="45.89521" lon="4.93329">
        <ele>285.299987793</ele>
        <time>2016-06-06T09:25:56.693Z</time>
      </trkpt>
      <trkpt lat="45.89522" lon="4.93339">
        <ele>285.600006104</ele>
        <time>2016-06-06T09:25:57.754Z</time>
      </trkpt>
      <trkpt lat="45.89524" lon="4.93348">
        <ele>285.399993896</ele>
        <time>2016-06-06T09:25:58.688Z</time>
      </trkpt>
      <trkpt lat="45.89526" lon="4.93357">
        <ele>285.100006104</ele>
        <time>2016-06-06T09:25:59.731Z</time>
      </trkpt>
      <trkpt lat="45.89529" lon="4.93367">
        <ele>285.100006104</ele>
        <time>2016-06-06T09:26:00.691Z</time>
      </trkpt>
      <trkpt lat="45.89531" lon="4.93376">
        <ele>285</ele>
        <time>2016-06-06T09:26:01.739Z</time>
      </trkpt>
      <trkpt lat="45.89534" lon="4.93385">
        <ele>284.600006104</ele>
        <time>2016-06-06T09:26:02.687Z</time>
      </trkpt>
      <trkpt lat="45.89537" lon="4.93394">
        <ele>284.200012207</ele>
        <time>2016-06-06T09:26:03.716Z</time>
      </trkpt>
      <trkpt lat="45.89539" lon="4.93404">
        <ele>283.700012207</ele>
        <time>2016-06-06T09:26:04.691Z</time>
      </trkpt>
      <trkpt lat="45.89542" lon="4.93414">
        <ele>283.5</ele>
        <time>2016-06-06T09:26:05.744Z</time>
      </trkpt>
      <trkpt lat="45.89545" lon="4.93424">
        <ele>283.299987793</ele>
        <time>2016-06-06T09:26:06.693Z</time>
      </trkpt>
      <trkpt lat="45.89547" lon="4.93434">
        <ele>283</ele>
        <time>2016-06-06T09:26:07.713Z</time>
      </trkpt>
      <trkpt lat="45.89549" lon="4.93445">
        <ele>283</ele>
        <time>2016-06-06T09:26:08.693Z</time>
      </trkpt>
      <trkpt lat="45.89549" lon="4.93456">
        <ele>283</ele>
        <time>2016-06-06T09:26:09.72Z</time>
      </trkpt>
      <trkpt lat="45.8955" lon="4.93467">
        <ele>283</ele>
        <time>2016-06-06T09:26:10.691Z</time>
      </trkpt>
      <trkpt lat="45.8955" lon="4.93478">
        <ele>282.600006104</ele>
        <time>2016-06-06T09:26:11.711Z</time>
      </trkpt>
      <trkpt lat="45.8955" lon="4.93489">
        <ele>282.700012207</ele>
        <time>2016-06-06T09:26:12.691Z</time>
      </trkpt>
      <trkpt lat="45.89549" lon="4.935">
        <ele>282.399993896</ele>
        <time>2016-06-06T09:26:13.727Z</time>
      </trkpt>
      <trkpt lat="45.89548" lon="4.93511">
        <ele>282.5</ele>
        <time>2016-06-06T09:26:14.69Z</time>
      </trkpt>
      <trkpt lat="45.89547" lon="4.93522">
        <ele>282.299987793</ele>
        <time>2016-06-06T09:26:15.746Z</time>
      </trkpt>
      <trkpt lat="45.89546" lon="4.93533">
        <ele>282</ele>
        <time>2016-06-06T09:26:16.691Z</time>
      </trkpt>
      <trkpt lat="45.89544" lon="4.93544">
        <ele>281.700012207</ele>
        <time>2016-06-06T09:26:17.713Z</time>
      </trkpt>
      <trkpt lat="45.89542" lon="4.93555">
        <ele>281.600006104</ele>
        <time>2016-06-06T09:26:18.687Z</time>
      </trkpt>
      <trkpt lat="45.89542" lon="4.93565">
        <ele>281.299987793</ele>
        <time>2016-06-06T09:26:19.709Z</time>
      </trkpt>
      <trkpt lat="45.89541" lon="4.93576">
        <ele>281.200012207</ele>
        <time>2016-06-06T09:26:20.691Z</time>
      </trkpt>
      <trkpt lat="45.8954" lon="4.93586">
        <ele>281</ele>
        <time>2016-06-06T09:26:21.716Z</time>
      </trkpt>
      <trkpt lat="45.8954" lon="4.93596">
        <ele>281</ele>
        <time>2016-06-06T09:26:22.691Z</time>
      </trkpt>
      <trkpt lat="45.89539" lon="4.93606">
        <ele>280.899993896</ele>
        <time>2016-06-06T09:26:23.71Z</time>
      </trkpt>
      <trkpt lat="45.89539" lon="4.93616">
        <ele>280.600006104</ele>
        <time>2016-06-06T09:26:24.687Z</time>
      </trkpt>
      <trkpt lat="45.89538" lon="4.93626">
        <ele>280.200012207</ele>
        <time>2016-06-06T09:26:25.737Z</time>
      </trkpt>
      <trkpt lat="45.89537" lon="4.93636">
        <ele>280</ele>
        <time>2016-06-06T09:26:26.681Z</time>
      </trkpt>
      <trkpt lat="45.89537" lon="4.93646">
        <ele>279.799987793</ele>
        <time>2016-06-06T09:26:27.716Z</time>
      </trkpt>
      <trkpt lat="45.89536" lon="4.93657">
        <ele>279.600006104</ele>
        <time>2016-06-06T09:26:28.687Z</time>
      </trkpt>
      <trkpt lat="45.89536" lon="4.93667">
        <ele>279.5</ele>
        <time>2016-06-06T09:26:29.727Z</time>
      </trkpt>
      <trkpt lat="45.89535" lon="4.93678">
        <ele>279.399993896</ele>
        <time>2016-06-06T09:26:30.692Z</time>
      </trkpt>
      <trkpt lat="45.89535" lon="4.93688">
        <ele>279.5</ele>
        <time>2016-06-06T09:26:31.709Z</time>
      </trkpt>
      <trkpt lat="45.89534" lon="4.93699">
        <ele>279.700012207</ele>
        <time>2016-06-06T09:26:32.687Z</time>
      </trkpt>
      <trkpt lat="45.89533" lon="4.93709">
        <ele>279.899993896</ele>
        <time>2016-06-06T09:26:33.726Z</time>
      </trkpt>
      <trkpt lat="45.89533" lon="4.93719">
        <ele>279.799987793</ele>
        <time>2016-06-06T09:26:34.693Z</time>
      </trkpt>
      <trkpt lat="45.89533" lon="4.93729">
        <ele>280</ele>
        <time>2016-06-06T09:26:35.743Z</time>
      </trkpt>
      <trkpt lat="45.89533" lon="4.93739">
        <ele>279.600006104</ele>
        <time>2016-06-06T09:26:36.688Z</time>
      </trkpt>
      <trkpt lat="45.89533" lon="4.93749">
        <ele>279.399993896</ele>
        <time>2016-06-06T09:26:37.709Z</time>
      </trkpt>
      <trkpt lat="45.89534" lon="4.93758">
        <ele>279.299987793</ele>
        <time>2016-06-06T09:26:38.687Z</time>
      </trkpt>
      <trkpt lat="45.89534" lon="4.93767">
        <ele>279.299987793</ele>
        <time>2016-06-06T09:26:39.712Z</time>
      </trkpt>
      <trkpt lat="45.89533" lon="4.93775">
        <ele>279.299987793</ele>
        <time>2016-06-06T09:26:40.687Z</time>
      </trkpt>
      <trkpt lat="45.89533" lon="4.93784">
        <ele>279.399993896</ele>
        <time>2016-06-06T09:26:41.845Z</time>
      </trkpt>
      <trkpt lat="45.89532" lon="4.93793">
        <ele>279.399993896</ele>
        <time>2016-06-06T09:26:42.687Z</time>
      </trkpt>
      <trkpt lat="45.89531" lon="4.93802">
        <ele>279.399993896</ele>
        <time>2016-06-06T09:26:43.723Z</time>
      </trkpt>
      <trkpt lat="45.89529" lon="4.93811">
        <ele>279.100006104</ele>
        <time>2016-06-06T09:26:44.691Z</time>
      </trkpt>
      <trkpt lat="45.89528" lon="4.9382">
        <ele>279.299987793</ele>
        <time>2016-06-06T09:26:45.747Z</time>
      </trkpt>
      <trkpt lat="45.89527" lon="4.93829">
        <ele>279.200012207</ele>
        <time>2016-06-06T09:26:46.691Z</time>
      </trkpt>
      <trkpt lat="45.89526" lon="4.93839">
        <ele>279.399993896</ele>
        <time>2016-06-06T09:26:47.714Z</time>
      </trkpt>
      <trkpt lat="45.89524" lon="4.93849">
        <ele>279.399993896</ele>
        <time>2016-06-06T09:26:48.687Z</time>
      </trkpt>
      <trkpt lat="45.89523" lon="4.93859">
        <ele>279.600006104</ele>
        <time>2016-06-06T09:26:49.709Z</time>
      </trkpt>
      <trkpt lat="45.89522" lon="4.93868">
        <ele>280</ele>
        <time>2016-06-06T09:26:50.687Z</time>
      </trkpt>
      <trkpt lat="45.89522" lon="4.93878">
        <ele>280.299987793</ele>
        <time>2016-06-06T09:26:51.719Z</time>
      </trkpt>
      <trkpt lat="45.89521" lon="4.93889">
        <ele>280.299987793</ele>
        <time>2016-06-06T09:26:52.691Z</time>
      </trkpt>
      <trkpt lat="45.8952" lon="4.93899">
        <ele>280.200012207</ele>
        <time>2016-06-06T09:26:53.87Z</time>
      </trkpt>
      <trkpt lat="45.8952" lon="4.93909">
        <ele>280</ele>
        <time>2016-06-06T09:26:54.693Z</time>
      </trkpt>
      <trkpt lat="45.89519" lon="4.93918">
        <ele>279.899993896</ele>
        <time>2016-06-06T09:26:55.757Z</time>
      </trkpt>
      <trkpt lat="45.89518" lon="4.93928">
        <ele>280</ele>
        <time>2016-06-06T09:26:56.687Z</time>
      </trkpt>
      <trkpt lat="45.89518" lon="4.93938">
        <ele>280.200012207</ele>
        <time>2016-06-06T09:26:57.716Z</time>
      </trkpt>
      <trkpt lat="45.89518" lon="4.93947">
        <ele>280.399993896</ele>
        <time>2016-06-06T09:26:58.691Z</time>
      </trkpt>
      <trkpt lat="45.89517" lon="4.93957">
        <ele>280.399993896</ele>
        <time>2016-06-06T09:26:59.713Z</time>
      </trkpt>
      <trkpt lat="45.89517" lon="4.93966">
        <ele>280.600006104</ele>
        <time>2016-06-06T09:27:00.692Z</time>
      </trkpt>
      <trkpt lat="45.89516" lon="4.93975">
        <ele>280.600006104</ele>
        <time>2016-06-06T09:27:01.716Z</time>
      </trkpt>
      <trkpt lat="45.89515" lon="4.93983">
        <ele>280.700012207</ele>
        <time>2016-06-06T09:27:02.692Z</time>
      </trkpt>
      <trkpt lat="45.89516" lon="4.93992">
        <ele>281.100006104</ele>
        <time>2016-06-06T09:27:03.713Z</time>
      </trkpt>
      <trkpt lat="45.89515" lon="4.94">
        <ele>280.5</ele>
        <time>2016-06-06T09:27:04.693Z</time>
      </trkpt>
      <trkpt lat="45.89514" lon="4.94009">
        <ele>280.100006104</ele>
        <time>2016-06-06T09:27:05.746Z</time>
      </trkpt>
      <trkpt lat="45.89513" lon="4.94018">
        <ele>280.100006104</ele>
        <time>2016-06-06T09:27:06.693Z</time>
      </trkpt>
      <trkpt lat="45.89513" lon="4.94027">
        <ele>280.200012207</ele>
        <time>2016-06-06T09:27:07.709Z</time>
      </trkpt>
      <trkpt lat="45.89512" lon="4.94035">
        <ele>280.299987793</ele>
        <time>2016-06-06T09:27:08.687Z</time>
      </trkpt>
      <trkpt lat="45.89511" lon="4.94044">
        <ele>280.100006104</ele>
        <time>2016-06-06T09:27:09.716Z</time>
      </trkpt>
      <trkpt lat="45.8951" lon="4.94054">
        <ele>280.100006104</ele>
        <time>2016-06-06T09:27:10.691Z</time>
      </trkpt>
      <trkpt lat="45.89509" lon="4.94063">
        <ele>280.200012207</ele>
        <time>2016-06-06T09:27:11.728Z</time>
      </trkpt>
      <trkpt lat="45.89509" lon="4.94073">
        <ele>280</ele>
        <time>2016-06-06T09:27:12.692Z</time>
      </trkpt>
      <trkpt lat="45.89508" lon="4.94082">
        <ele>280.100006104</ele>
        <time>2016-06-06T09:27:13.712Z</time>
      </trkpt>
      <trkpt lat="45.89508" lon="4.94091">
        <ele>280.200012207</ele>
        <time>2016-06-06T09:27:14.691Z</time>
      </trkpt>
      <trkpt lat="45.89508" lon="4.941">
        <ele>280.5</ele>
        <time>2016-06-06T09:27:15.734Z</time>
      </trkpt>
      <trkpt lat="45.89507" lon="4.94108">
        <ele>280.600006104</ele>
        <time>2016-06-06T09:27:16.687Z</time>
      </trkpt>
      <trkpt lat="45.89507" lon="4.94116">
        <ele>280.700012207</ele>
        <time>2016-06-06T09:27:17.71Z</time>
      </trkpt>
      <trkpt lat="45.89506" lon="4.94124">
        <ele>280.799987793</ele>
        <time>2016-06-06T09:27:18.691Z</time>
      </trkpt>
      <trkpt lat="45.89505" lon="4.94133">
        <ele>280.899993896</ele>
        <time>2016-06-06T09:27:19.712Z</time>
      </trkpt>
      <trkpt lat="45.89504" lon="4.94141">
        <ele>281.100006104</ele>
        <time>2016-06-06T09:27:20.691Z</time>
      </trkpt>
      <trkpt lat="45.89504" lon="4.94149">
        <ele>281.600006104</ele>
        <time>2016-06-06T09:27:21.716Z</time>
      </trkpt>
      <trkpt lat="45.89503" lon="4.94157">
        <ele>281.799987793</ele>
        <time>2016-06-06T09:27:22.688Z</time>
      </trkpt>
      <trkpt lat="45.89503" lon="4.94166">
        <ele>282</ele>
        <time>2016-06-06T09:27:23.714Z</time>
      </trkpt>
      <trkpt lat="45.89502" lon="4.94175">
        <ele>282.100006104</ele>
        <time>2016-06-06T09:27:24.688Z</time>
      </trkpt>
      <trkpt lat="45.89501" lon="4.94184">
        <ele>282.100006104</ele>
        <time>2016-06-06T09:27:25.735Z</time>
      </trkpt>
      <trkpt lat="45.895" lon="4.94192">
        <ele>282.200012207</ele>
        <time>2016-06-06T09:27:26.69Z</time>
      </trkpt>
      <trkpt lat="45.89498" lon="4.942">
        <ele>282.200012207</ele>
        <time>2016-06-06T09:27:27.74Z</time>
      </trkpt>
      <trkpt lat="45.89498" lon="4.94208">
        <ele>282.200012207</ele>
        <time>2016-06-06T09:27:28.717Z</time>
      </trkpt>
      <trkpt lat="45.89497" lon="4.94217">
        <ele>282.100006104</ele>
        <time>2016-06-06T09:27:29.713Z</time>
      </trkpt>
      <trkpt lat="45.89497" lon="4.94225">
        <ele>282.200012207</ele>
        <time>2016-06-06T09:27:30.688Z</time>
      </trkpt>
      <trkpt lat="45.89497" lon="4.94233">
        <ele>282.399993896</ele>
        <time>2016-06-06T09:27:31.71Z</time>
      </trkpt>
      <trkpt lat="45.89496" lon="4.94241">
        <ele>282.299987793</ele>
        <time>2016-06-06T09:27:32.687Z</time>
      </trkpt>
      <trkpt lat="45.89495" lon="4.94249">
        <ele>282.5</ele>
        <time>2016-06-06T09:27:33.712Z</time>
      </trkpt>
      <trkpt lat="45.89494" lon="4.94257">
        <ele>282.700012207</ele>
        <time>2016-06-06T09:27:34.687Z</time>
      </trkpt>
      <trkpt lat="45.89494" lon="4.94265">
        <ele>283.399993896</ele>
        <time>2016-06-06T09:27:35.722Z</time>
      </trkpt>
      <trkpt lat="45.89493" lon="4.94274">
        <ele>283.700012207</ele>
        <time>2016-06-06T09:27:36.687Z</time>
      </trkpt>
      <trkpt lat="45.89493" lon="4.94284">
        <ele>283.700012207</ele>
        <time>2016-06-06T09:27:37.709Z</time>
      </trkpt>
      <trkpt lat="45.89492" lon="4.94293">
        <ele>283.299987793</ele>
        <time>2016-06-06T09:27:38.688Z</time>
      </trkpt>
      <trkpt lat="45.89492" lon="4.94302">
        <ele>283.299987793</ele>
        <time>2016-06-06T09:27:39.716Z</time>
      </trkpt>
      <trkpt lat="45.89491" lon="4.9431">
        <ele>283.299987793</ele>
        <time>2016-06-06T09:27:40.687Z</time>
      </trkpt>
      <trkpt lat="45.8949" lon="4.94319">
        <ele>283.100006104</ele>
        <time>2016-06-06T09:27:41.71Z</time>
      </trkpt>
      <trkpt lat="45.89489" lon="4.94327">
        <ele>283</ele>
        <time>2016-06-06T09:27:42.687Z</time>
      </trkpt>
      <trkpt lat="45.89488" lon="4.94335">
        <ele>283.5</ele>
        <time>2016-06-06T09:27:43.767Z</time>
      </trkpt>
      <trkpt lat="45.89488" lon="4.94344">
        <ele>283.399993896</ele>
        <time>2016-06-06T09:27:44.69Z</time>
      </trkpt>
      <trkpt lat="45.89487" lon="4.94352">
        <ele>283.200012207</ele>
        <time>2016-06-06T09:27:45.736Z</time>
      </trkpt>
      <trkpt lat="45.89488" lon="4.9436">
        <ele>282.799987793</ele>
        <time>2016-06-06T09:27:46.687Z</time>
      </trkpt>
      <trkpt lat="45.89488" lon="4.94369">
        <ele>281.899993896</ele>
        <time>2016-06-06T09:27:47.85Z</time>
      </trkpt>
      <trkpt lat="45.89487" lon="4.94378">
        <ele>281.799987793</ele>
        <time>2016-06-06T09:27:48.688Z</time>
      </trkpt>
      <trkpt lat="45.89486" lon="4.94387">
        <ele>281.600006104</ele>
        <time>2016-06-06T09:27:49.711Z</time>
      </trkpt>
      <trkpt lat="45.89485" lon="4.94395">
        <ele>281.700012207</ele>
        <time>2016-06-06T09:27:50.727Z</time>
      </trkpt>
      <trkpt lat="45.89484" lon="4.94403">
        <ele>281.700012207</ele>
        <time>2016-06-06T09:27:51.716Z</time>
      </trkpt>
      <trkpt lat="45.89483" lon="4.94411">
        <ele>281.600006104</ele>
        <time>2016-06-06T09:27:52.687Z</time>
      </trkpt>
      <trkpt lat="45.89481" lon="4.9442">
        <ele>281.399993896</ele>
        <time>2016-06-06T09:27:53.713Z</time>
      </trkpt>
      <trkpt lat="45.8948" lon="4.94428">
        <ele>280.799987793</ele>
        <time>2016-06-06T09:27:54.688Z</time>
      </trkpt>
      <trkpt lat="45.89479" lon="4.94437">
        <ele>281.100006104</ele>
        <time>2016-06-06T09:27:55.724Z</time>
      </trkpt>
      <trkpt lat="45.89477" lon="4.94446">
        <ele>281.100006104</ele>
        <time>2016-06-06T09:27:56.687Z</time>
      </trkpt>
      <trkpt lat="45.89476" lon="4.94455">
        <ele>281.299987793</ele>
        <time>2016-06-06T09:27:57.745Z</time>
      </trkpt>
      <trkpt lat="45.89475" lon="4.94464">
        <ele>281.5</ele>
        <time>2016-06-06T09:27:58.688Z</time>
      </trkpt>
      <trkpt lat="45.89474" lon="4.94472">
        <ele>281.700012207</ele>
        <time>2016-06-06T09:27:59.729Z</time>
      </trkpt>
      <trkpt lat="45.89473" lon="4.9448">
        <ele>281.899993896</ele>
        <time>2016-06-06T09:28:00.688Z</time>
      </trkpt>
      <trkpt lat="45.89472" lon="4.94488">
        <ele>282.299987793</ele>
        <time>2016-06-06T09:28:01.71Z</time>
      </trkpt>
      <trkpt lat="45.89471" lon="4.94495">
        <ele>282.5</ele>
        <time>2016-06-06T09:28:02.687Z</time>
      </trkpt>
      <trkpt lat="45.8947" lon="4.94503">
        <ele>282.5</ele>
        <time>2016-06-06T09:28:03.788Z</time>
      </trkpt>
      <trkpt lat="45.89469" lon="4.94511">
        <ele>282.399993896</ele>
        <time>2016-06-06T09:28:04.687Z</time>
      </trkpt>
      <trkpt lat="45.89468" lon="4.9452">
        <ele>282.700012207</ele>
        <time>2016-06-06T09:28:05.716Z</time>
      </trkpt>
      <trkpt lat="45.89467" lon="4.94528">
        <ele>282.899993896</ele>
        <time>2016-06-06T09:28:06.687Z</time>
      </trkpt>
      <trkpt lat="45.89467" lon="4.94537">
        <ele>282.899993896</ele>
        <time>2016-06-06T09:28:07.709Z</time>
      </trkpt>
      <trkpt lat="45.89465" lon="4.94545">
        <ele>283.200012207</ele>
        <time>2016-06-06T09:28:08.691Z</time>
      </trkpt>
      <trkpt lat="45.89464" lon="4.94553">
        <ele>282.899993896</ele>
        <time>2016-06-06T09:28:09.713Z</time>
      </trkpt>
      <trkpt lat="45.89463" lon="4.94561">
        <ele>282.899993896</ele>
        <time>2016-06-06T09:28:10.691Z</time>
      </trkpt>
      <trkpt lat="45.89463" lon="4.94569">
        <ele>283.100006104</ele>
        <time>2016-06-06T09:28:11.71Z</time>
      </trkpt>
      <trkpt lat="45.89462" lon="4.94576">
        <ele>283.399993896</ele>
        <time>2016-06-06T09:28:12.687Z</time>
      </trkpt>
      <trkpt lat="45.89461" lon="4.94584">
        <ele>283.600006104</ele>
        <time>2016-06-06T09:28:13.725Z</time>
      </trkpt>
      <trkpt lat="45.89461" lon="4.94592">
        <ele>283.899993896</ele>
        <time>2016-06-06T09:28:14.692Z</time>
      </trkpt>
      <trkpt lat="45.8946" lon="4.946">
        <ele>284.100006104</ele>
        <time>2016-06-06T09:28:15.757Z</time>
      </trkpt>
      <trkpt lat="45.89459" lon="4.94609">
        <ele>283.899993896</ele>
        <time>2016-06-06T09:28:16.685Z</time>
      </trkpt>
      <trkpt lat="45.89457" lon="4.94618">
        <ele>283.799987793</ele>
        <time>2016-06-06T09:28:17.71Z</time>
      </trkpt>
      <trkpt lat="45.89456" lon="4.94627">
        <ele>283.5</ele>
        <time>2016-06-06T09:28:18.692Z</time>
      </trkpt>
      <trkpt lat="45.89454" lon="4.94636">
        <ele>283.299987793</ele>
        <time>2016-06-06T09:28:19.712Z</time>
      </trkpt>
      <trkpt lat="45.89452" lon="4.94645">
        <ele>282.799987793</ele>
        <time>2016-06-06T09:28:20.692Z</time>
      </trkpt>
      <trkpt lat="45.8945" lon="4.94654">
        <ele>282.700012207</ele>
        <time>2016-06-06T09:28:21.716Z</time>
      </trkpt>
      <trkpt lat="45.89447" lon="4.94662">
        <ele>282.799987793</ele>
        <time>2016-06-06T09:28:22.687Z</time>
      </trkpt>
      <trkpt lat="45.89445" lon="4.9467">
        <ele>282.799987793</ele>
        <time>2016-06-06T09:28:23.71Z</time>
      </trkpt>
      <trkpt lat="45.89442" lon="4.94679">
        <ele>282.5</ele>
        <time>2016-06-06T09:28:24.692Z</time>
      </trkpt>
      <trkpt lat="45.8944" lon="4.94687">
        <ele>282.399993896</ele>
        <time>2016-06-06T09:28:25.716Z</time>
      </trkpt>
      <trkpt lat="45.89439" lon="4.94695">
        <ele>282.299987793</ele>
        <time>2016-06-06T09:28:26.691Z</time>
      </trkpt>
      <trkpt lat="45.89437" lon="4.94702">
        <ele>282.299987793</ele>
        <time>2016-06-06T09:28:27.713Z</time>
      </trkpt>
      <trkpt lat="45.89435" lon="4.9471">
        <ele>282.100006104</ele>
        <time>2016-06-06T09:28:28.687Z</time>
      </trkpt>
      <trkpt lat="45.89432" lon="4.94717">
        <ele>282.399993896</ele>
        <time>2016-06-06T09:28:29.71Z</time>
      </trkpt>
      <trkpt lat="45.8943" lon="4.94725">
        <ele>282.700012207</ele>
        <time>2016-06-06T09:28:30.688Z</time>
      </trkpt>
      <trkpt lat="45.89428" lon="4.94732">
        <ele>282.700012207</ele>
        <time>2016-06-06T09:28:31.724Z</time>
      </trkpt>
      <trkpt lat="45.89426" lon="4.9474">
        <ele>282.600006104</ele>
        <time>2016-06-06T09:28:32.688Z</time>
      </trkpt>
      <trkpt lat="45.89423" lon="4.94748">
        <ele>282.799987793</ele>
        <time>2016-06-06T09:28:33.713Z</time>
      </trkpt>
      <trkpt lat="45.8942" lon="4.94755">
        <ele>282.700012207</ele>
        <time>2016-06-06T09:28:34.687Z</time>
      </trkpt>
      <trkpt lat="45.89417" lon="4.94763">
        <ele>282.600006104</ele>
        <time>2016-06-06T09:28:35.71Z</time>
      </trkpt>
      <trkpt lat="45.89415" lon="4.94771">
        <ele>282.399993896</ele>
        <time>2016-06-06T09:28:36.688Z</time>
      </trkpt>
      <trkpt lat="45.89413" lon="4.94778">
        <ele>282.600006104</ele>
        <time>2016-06-06T09:28:37.709Z</time>
      </trkpt>
      <trkpt lat="45.8941" lon="4.94786">
        <ele>282.399993896</ele>
        <time>2016-06-06T09:28:38.688Z</time>
      </trkpt>
      <trkpt lat="45.89408" lon="4.94793">
        <ele>282.399993896</ele>
        <time>2016-06-06T09:28:39.712Z</time>
      </trkpt>
      <trkpt lat="45.89406" lon="4.948">
        <ele>282.299987793</ele>
        <time>2016-06-06T09:28:40.69Z</time>
      </trkpt>
      <trkpt lat="45.89404" lon="4.94808">
        <ele>282.200012207</ele>
        <time>2016-06-06T09:28:41.727Z</time>
      </trkpt>
      <trkpt lat="45.89401" lon="4.94816">
        <ele>282.299987793</ele>
        <time>2016-06-06T09:28:42.716Z</time>
      </trkpt>
      <trkpt lat="45.89399" lon="4.94824">
        <ele>282.200012207</ele>
        <time>2016-06-06T09:28:43.712Z</time>
      </trkpt>
      <trkpt lat="45.89397" lon="4.94832">
        <ele>282.100006104</ele>
        <time>2016-06-06T09:28:44.692Z</time>
      </trkpt>
      <trkpt lat="45.89395" lon="4.9484">
        <ele>282</ele>
        <time>2016-06-06T09:28:45.717Z</time>
      </trkpt>
      <trkpt lat="45.89393" lon="4.94848">
        <ele>282</ele>
        <time>2016-06-06T09:28:46.687Z</time>
      </trkpt>
      <trkpt lat="45.8939" lon="4.94856">
        <ele>281.899993896</ele>
        <time>2016-06-06T09:28:47.761Z</time>
      </trkpt>
      <trkpt lat="45.89389" lon="4.94864">
        <ele>281.799987793</ele>
        <time>2016-06-06T09:28:48.692Z</time>
      </trkpt>
      <trkpt lat="45.89386" lon="4.94871">
        <ele>281.799987793</ele>
        <time>2016-06-06T09:28:49.756Z</time>
      </trkpt>
      <trkpt lat="45.89384" lon="4.94878">
        <ele>281.799987793</ele>
        <time>2016-06-06T09:28:50.692Z</time>
      </trkpt>
      <trkpt lat="45.89382" lon="4.94885">
        <ele>281.600006104</ele>
        <time>2016-06-06T09:28:51.782Z</time>
      </trkpt>
      <trkpt lat="45.8938" lon="4.94893">
        <ele>281.600006104</ele>
        <time>2016-06-06T09:28:52.697Z</time>
      </trkpt>
      <trkpt lat="45.89378" lon="4.94901">
        <ele>281.600006104</ele>
        <time>2016-06-06T09:28:53.763Z</time>
      </trkpt>
      <trkpt lat="45.89375" lon="4.94908">
        <ele>281.600006104</ele>
        <time>2016-06-06T09:28:54.732Z</time>
      </trkpt>
      <trkpt lat="45.89373" lon="4.94916">
        <ele>281.5</ele>
        <time>2016-06-06T09:28:55.714Z</time>
      </trkpt>
      <trkpt lat="45.89371" lon="4.94924">
        <ele>281.600006104</ele>
        <time>2016-06-06T09:28:56.692Z</time>
      </trkpt>
      <trkpt lat="45.89369" lon="4.94931">
        <ele>281.700012207</ele>
        <time>2016-06-06T09:28:57.736Z</time>
      </trkpt>
      <trkpt lat="45.89367" lon="4.94939">
        <ele>281.700012207</ele>
        <time>2016-06-06T09:28:58.696Z</time>
      </trkpt>
      <trkpt lat="45.89364" lon="4.94946">
        <ele>282</ele>
        <time>2016-06-06T09:28:59.859Z</time>
      </trkpt>
      <trkpt lat="45.89362" lon="4.94953">
        <ele>281.899993896</ele>
        <time>2016-06-06T09:29:00.695Z</time>
      </trkpt>
      <trkpt lat="45.8936" lon="4.9496">
        <ele>281.899993896</ele>
        <time>2016-06-06T09:29:01.716Z</time>
      </trkpt>
      <trkpt lat="45.89359" lon="4.94967">
        <ele>282.200012207</ele>
        <time>2016-06-06T09:29:02.688Z</time>
      </trkpt>
      <trkpt lat="45.89357" lon="4.94974">
        <ele>282.5</ele>
        <time>2016-06-06T09:29:03.722Z</time>
      </trkpt>
      <trkpt lat="45.89355" lon="4.94982">
        <ele>282.299987793</ele>
        <time>2016-06-06T09:29:04.696Z</time>
      </trkpt>
      <trkpt lat="45.89353" lon="4.94989">
        <ele>282.200012207</ele>
        <time>2016-06-06T09:29:05.715Z</time>
      </trkpt>
      <trkpt lat="45.8935" lon="4.94997">
        <ele>282</ele>
        <time>2016-06-06T09:29:06.755Z</time>
      </trkpt>
      <trkpt lat="45.89348" lon="4.95006">
        <ele>282</ele>
        <time>2016-06-06T09:29:07.716Z</time>
      </trkpt>
      <trkpt lat="45.89345" lon="4.95014">
        <ele>281.700012207</ele>
        <time>2016-06-06T09:29:08.693Z</time>
      </trkpt>
      <trkpt lat="45.89342" lon="4.95023">
        <ele>281.600006104</ele>
        <time>2016-06-06T09:29:09.746Z</time>
      </trkpt>
      <trkpt lat="45.8934" lon="4.9503">
        <ele>281.399993896</ele>
        <time>2016-06-06T09:29:10.69Z</time>
      </trkpt>
      <trkpt lat="45.89338" lon="4.95038">
        <ele>281.200012207</ele>
        <time>2016-06-06T09:29:11.713Z</time>
      </trkpt>
      <trkpt lat="45.89336" lon="4.95045">
        <ele>281</ele>
        <time>2016-06-06T09:29:12.693Z</time>
      </trkpt>
      <trkpt lat="45.89334" lon="4.95053">
        <ele>280.700012207</ele>
        <time>2016-06-06T09:29:13.765Z</time>
      </trkpt>
      <trkpt lat="45.89332" lon="4.9506">
        <ele>280.700012207</ele>
        <time>2016-06-06T09:29:14.688Z</time>
      </trkpt>
      <trkpt lat="45.89329" lon="4.95067">
        <ele>280.799987793</ele>
        <time>2016-06-06T09:29:15.712Z</time>
      </trkpt>
      <trkpt lat="45.89327" lon="4.95074">
        <ele>280.600006104</ele>
        <time>2016-06-06T09:29:16.687Z</time>
      </trkpt>
      <trkpt lat="45.89325" lon="4.95082">
        <ele>280.600006104</ele>
        <time>2016-06-06T09:29:17.709Z</time>
      </trkpt>
      <trkpt lat="45.89323" lon="4.95089">
        <ele>280.600006104</ele>
        <time>2016-06-06T09:29:18.692Z</time>
      </trkpt>
      <trkpt lat="45.89321" lon="4.95097">
        <ele>280.600006104</ele>
        <time>2016-06-06T09:29:19.709Z</time>
      </trkpt>
      <trkpt lat="45.89319" lon="4.95104">
        <ele>280.399993896</ele>
        <time>2016-06-06T09:29:20.691Z</time>
      </trkpt>
      <trkpt lat="45.89317" lon="4.95112">
        <ele>280.200012207</ele>
        <time>2016-06-06T09:29:21.748Z</time>
      </trkpt>
      <trkpt lat="45.89316" lon="4.9512">
        <ele>280.299987793</ele>
        <time>2016-06-06T09:29:22.69Z</time>
      </trkpt>
      <trkpt lat="45.89315" lon="4.95127">
        <ele>280.100006104</ele>
        <time>2016-06-06T09:29:23.711Z</time>
      </trkpt>
      <trkpt lat="45.89314" lon="4.95135">
        <ele>279.899993896</ele>
        <time>2016-06-06T09:29:24.687Z</time>
      </trkpt>
      <trkpt lat="45.89314" lon="4.95142">
        <ele>280.200012207</ele>
        <time>2016-06-06T09:29:25.712Z</time>
      </trkpt>
      <trkpt lat="45.89313" lon="4.95148">
        <ele>280.299987793</ele>
        <time>2016-06-06T09:29:26.687Z</time>
      </trkpt>
      <trkpt lat="45.89312" lon="4.95155">
        <ele>280.700012207</ele>
        <time>2016-06-06T09:29:27.716Z</time>
      </trkpt>
      <trkpt lat="45.89312" lon="4.95163">
        <ele>280.799987793</ele>
        <time>2016-06-06T09:29:28.687Z</time>
      </trkpt>
      <trkpt lat="45.89313" lon="4.95169">
        <ele>281</ele>
        <time>2016-06-06T09:29:29.733Z</time>
      </trkpt>
      <trkpt lat="45.89315" lon="4.95176">
        <ele>281</ele>
        <time>2016-06-06T09:29:30.688Z</time>
      </trkpt>
      <trkpt lat="45.89317" lon="4.95183">
        <ele>281</ele>
        <time>2016-06-06T09:29:31.709Z</time>
      </trkpt>
      <trkpt lat="45.89318" lon="4.95189">
        <ele>281.100006104</ele>
        <time>2016-06-06T09:29:32.69Z</time>
      </trkpt>
      <trkpt lat="45.8932" lon="4.95202">
        <ele>281.399993896</ele>
        <time>2016-06-06T09:29:34.713Z</time>
      </trkpt>
      <trkpt lat="45.89321" lon="4.95208">
        <ele>281.600006104</ele>
        <time>2016-06-06T09:29:35.688Z</time>
      </trkpt>
      <trkpt lat="45.89321" lon="4.95215">
        <ele>281.600006104</ele>
        <time>2016-06-06T09:29:36.708Z</time>
      </trkpt>
      <trkpt lat="45.89323" lon="4.95222">
        <ele>281.5</ele>
        <time>2016-06-06T09:29:37.696Z</time>
      </trkpt>
      <trkpt lat="45.89324" lon="4.95229">
        <ele>281.5</ele>
        <time>2016-06-06T09:29:38.71Z</time>
      </trkpt>
      <trkpt lat="45.89327" lon="4.95237">
        <ele>281.5</ele>
        <time>2016-06-06T09:29:39.69Z</time>
      </trkpt>
      <trkpt lat="45.89328" lon="4.95245">
        <ele>281.5</ele>
        <time>2016-06-06T09:29:40.713Z</time>
      </trkpt>
      <trkpt lat="45.8933" lon="4.95252">
        <ele>281.5</ele>
        <time>2016-06-06T09:29:41.688Z</time>
      </trkpt>
      <trkpt lat="45.89332" lon="4.9526">
        <ele>281.600006104</ele>
        <time>2016-06-06T09:29:42.71Z</time>
      </trkpt>
      <trkpt lat="45.89333" lon="4.95268">
        <ele>281.700012207</ele>
        <time>2016-06-06T09:29:43.691Z</time>
      </trkpt>
      <trkpt lat="45.89335" lon="4.95275">
        <ele>281.799987793</ele>
        <time>2016-06-06T09:29:44.712Z</time>
      </trkpt>
      <trkpt lat="45.89337" lon="4.95282">
        <ele>281.799987793</ele>
        <time>2016-06-06T09:29:45.696Z</time>
      </trkpt>
      <trkpt lat="45.89339" lon="4.95289">
        <ele>281.899993896</ele>
        <time>2016-06-06T09:29:46.709Z</time>
      </trkpt>
      <trkpt lat="45.8934" lon="4.95296">
        <ele>281.799987793</ele>
        <time>2016-06-06T09:29:47.691Z</time>
      </trkpt>
      <trkpt lat="45.89342" lon="4.95303">
        <ele>281.799987793</ele>
        <time>2016-06-06T09:29:48.713Z</time>
      </trkpt>
      <trkpt lat="45.89343" lon="4.9531">
        <ele>281.600006104</ele>
        <time>2016-06-06T09:29:49.687Z</time>
      </trkpt>
      <trkpt lat="45.89345" lon="4.95318">
        <ele>281.100006104</ele>
        <time>2016-06-06T09:29:50.74Z</time>
      </trkpt>
      <trkpt lat="45.89347" lon="4.95325">
        <ele>281</ele>
        <time>2016-06-06T09:29:51.693Z</time>
      </trkpt>
      <trkpt lat="45.89349" lon="4.95333">
        <ele>281</ele>
        <time>2016-06-06T09:29:52.713Z</time>
      </trkpt>
      <trkpt lat="45.89351" lon="4.95341">
        <ele>281</ele>
        <time>2016-06-06T09:29:53.692Z</time>
      </trkpt>
      <trkpt lat="45.89352" lon="4.95347">
        <ele>281.200012207</ele>
        <time>2016-06-06T09:29:54.714Z</time>
      </trkpt>
      <trkpt lat="45.89354" lon="4.95354">
        <ele>281.299987793</ele>
        <time>2016-06-06T09:29:55.709Z</time>
      </trkpt>
      <trkpt lat="45.89355" lon="4.9536">
        <ele>281.299987793</ele>
        <time>2016-06-06T09:29:56.711Z</time>
      </trkpt>
      <trkpt lat="45.89356" lon="4.95367">
        <ele>281.399993896</ele>
        <time>2016-06-06T09:29:57.697Z</time>
      </trkpt>
      <trkpt lat="45.89357" lon="4.95374">
        <ele>281.600006104</ele>
        <time>2016-06-06T09:29:58.713Z</time>
      </trkpt>
      <trkpt lat="45.89359" lon="4.95382">
        <ele>281.700012207</ele>
        <time>2016-06-06T09:29:59.693Z</time>
      </trkpt>
      <trkpt lat="45.8936" lon="4.9539">
        <ele>281.799987793</ele>
        <time>2016-06-06T09:30:00.709Z</time>
      </trkpt>
      <trkpt lat="45.89362" lon="4.95397">
        <ele>282</ele>
        <time>2016-06-06T09:30:01.69Z</time>
      </trkpt>
      <trkpt lat="45.89364" lon="4.95405">
        <ele>282.299987793</ele>
        <time>2016-06-06T09:30:02.708Z</time>
      </trkpt>
      <trkpt lat="45.89365" lon="4.95412">
        <ele>282.700012207</ele>
        <time>2016-06-06T09:30:03.696Z</time>
      </trkpt>
      <trkpt lat="45.89366" lon="4.95418">
        <ele>282.799987793</ele>
        <time>2016-06-06T09:30:04.746Z</time>
      </trkpt>
      <trkpt lat="45.89368" lon="4.95425">
        <ele>282.799987793</ele>
        <time>2016-06-06T09:30:05.693Z</time>
      </trkpt>
      <trkpt lat="45.89369" lon="4.95431">
        <ele>282.799987793</ele>
        <time>2016-06-06T09:30:06.713Z</time>
      </trkpt>
      <trkpt lat="45.89371" lon="4.95437">
        <ele>283.200012207</ele>
        <time>2016-06-06T09:30:07.691Z</time>
      </trkpt>
      <trkpt lat="45.89372" lon="4.95443">
        <ele>283.299987793</ele>
        <time>2016-06-06T09:30:08.709Z</time>
      </trkpt>
      <trkpt lat="45.89374" lon="4.95449">
        <ele>283.600006104</ele>
        <time>2016-06-06T09:30:09.69Z</time>
      </trkpt>
      <trkpt lat="45.89375" lon="4.95455">
        <ele>283.799987793</ele>
        <time>2016-06-06T09:30:10.713Z</time>
      </trkpt>
      <trkpt lat="45.89376" lon="4.95462">
        <ele>283.799987793</ele>
        <time>2016-06-06T09:30:11.688Z</time>
      </trkpt>
      <trkpt lat="45.89378" lon="4.95468">
        <ele>283.600006104</ele>
        <time>2016-06-06T09:30:12.71Z</time>
      </trkpt>
      <trkpt lat="45.8938" lon="4.95475">
        <ele>284.399993896</ele>
        <time>2016-06-06T09:30:13.691Z</time>
      </trkpt>
      <trkpt lat="45.89381" lon="4.95482">
        <ele>284.899993896</ele>
        <time>2016-06-06T09:30:14.713Z</time>
      </trkpt>
      <trkpt lat="45.89383" lon="4.95488">
        <ele>285</ele>
        <time>2016-06-06T09:30:15.69Z</time>
      </trkpt>
      <trkpt lat="45.89384" lon="4.95494">
        <ele>285.200012207</ele>
        <time>2016-06-06T09:30:16.709Z</time>
      </trkpt>
      <trkpt lat="45.89386" lon="4.95501">
        <ele>285.100006104</ele>
        <time>2016-06-06T09:30:17.688Z</time>
      </trkpt>
      <trkpt lat="45.89389" lon="4.95513">
        <ele>285</ele>
        <time>2016-06-06T09:30:19.75Z</time>
      </trkpt>
      <trkpt lat="45.8939" lon="4.95519">
        <ele>285.299987793</ele>
        <time>2016-06-06T09:30:20.691Z</time>
      </trkpt>
      <trkpt lat="45.89393" lon="4.9553">
        <ele>285.399993896</ele>
        <time>2016-06-06T09:30:22.709Z</time>
      </trkpt>
      <trkpt lat="45.89394" lon="4.95536">
        <ele>285.200012207</ele>
        <time>2016-06-06T09:30:23.688Z</time>
      </trkpt>
      <trkpt lat="45.89396" lon="4.95548">
        <ele>285.700012207</ele>
        <time>2016-06-06T09:30:25.738Z</time>
      </trkpt>
      <trkpt lat="45.89398" lon="4.95555">
        <ele>285.600006104</ele>
        <time>2016-06-06T09:30:26.686Z</time>
      </trkpt>
      <trkpt lat="45.89401" lon="4.95566">
        <ele>285.700012207</ele>
        <time>2016-06-06T09:30:28.708Z</time>
      </trkpt>
      <trkpt lat="45.89402" lon="4.95571">
        <ele>285.799987793</ele>
        <time>2016-06-06T09:30:29.691Z</time>
      </trkpt>
      <trkpt lat="45.89404" lon="4.95583">
        <ele>286.399993896</ele>
        <time>2016-06-06T09:30:31.709Z</time>
      </trkpt>
      <trkpt lat="45.89405" lon="4.9559">
        <ele>286.399993896</ele>
        <time>2016-06-06T09:30:32.687Z</time>
      </trkpt>
      <trkpt lat="45.89406" lon="4.95596">
        <ele>286.399993896</ele>
        <time>2016-06-06T09:30:33.712Z</time>
      </trkpt>
      <trkpt lat="45.89407" lon="4.95602">
        <ele>286.799987793</ele>
        <time>2016-06-06T09:30:34.687Z</time>
      </trkpt>
      <trkpt lat="45.89409" lon="4.95609">
        <ele>286.799987793</ele>
        <time>2016-06-06T09:30:35.71Z</time>
      </trkpt>
      <trkpt lat="45.89411" lon="4.95616">
        <ele>286.799987793</ele>
        <time>2016-06-06T09:30:36.687Z</time>
      </trkpt>
      <trkpt lat="45.89413" lon="4.95623">
        <ele>286.700012207</ele>
        <time>2016-06-06T09:30:37.709Z</time>
      </trkpt>
      <trkpt lat="45.89414" lon="4.9563">
        <ele>286.5</ele>
        <time>2016-06-06T09:30:38.716Z</time>
      </trkpt>
      <trkpt lat="45.89416" lon="4.95637">
        <ele>286.700012207</ele>
        <time>2016-06-06T09:30:39.723Z</time>
      </trkpt>
      <trkpt lat="45.89417" lon="4.95644">
        <ele>287</ele>
        <time>2016-06-06T09:30:40.691Z</time>
      </trkpt>
      <trkpt lat="45.89419" lon="4.9565">
        <ele>287.299987793</ele>
        <time>2016-06-06T09:30:41.709Z</time>
      </trkpt>
      <trkpt lat="45.8942" lon="4.95656">
        <ele>287.399993896</ele>
        <time>2016-06-06T09:30:42.691Z</time>
      </trkpt>
      <trkpt lat="45.89421" lon="4.95663">
        <ele>287.600006104</ele>
        <time>2016-06-06T09:30:43.713Z</time>
      </trkpt>
      <trkpt lat="45.89423" lon="4.95669">
        <ele>287.600006104</ele>
        <time>2016-06-06T09:30:44.687Z</time>
      </trkpt>
      <trkpt lat="45.89424" lon="4.95675">
        <ele>287.600006104</ele>
        <time>2016-06-06T09:30:45.712Z</time>
      </trkpt>
      <trkpt lat="45.89426" lon="4.95682">
        <ele>287.799987793</ele>
        <time>2016-06-06T09:30:46.687Z</time>
      </trkpt>
      <trkpt lat="45.89428" lon="4.95694">
        <ele>288</ele>
        <time>2016-06-06T09:30:48.712Z</time>
      </trkpt>
      <trkpt lat="45.89429" lon="4.957">
        <ele>287.899993896</ele>
        <time>2016-06-06T09:30:49.687Z</time>
      </trkpt>
      <trkpt lat="45.89431" lon="4.95706">
        <ele>288.100006104</ele>
        <time>2016-06-06T09:30:50.709Z</time>
      </trkpt>
      <trkpt lat="45.89432" lon="4.95712">
        <ele>288.200012207</ele>
        <time>2016-06-06T09:30:51.697Z</time>
      </trkpt>
      <trkpt lat="45.89434" lon="4.95718">
        <ele>288</ele>
        <time>2016-06-06T09:30:52.74Z</time>
      </trkpt>
      <trkpt lat="45.89436" lon="4.95724">
        <ele>288.100006104</ele>
        <time>2016-06-06T09:30:53.688Z</time>
      </trkpt>
      <trkpt lat="45.89437" lon="4.95731">
        <ele>287.899993896</ele>
        <time>2016-06-06T09:30:54.708Z</time>
      </trkpt>
      <trkpt lat="45.89438" lon="4.95738">
        <ele>287.299987793</ele>
        <time>2016-06-06T09:30:55.69Z</time>
      </trkpt>
      <trkpt lat="45.8944" lon="4.95745">
        <ele>286.5</ele>
        <time>2016-06-06T09:30:56.714Z</time>
      </trkpt>
      <trkpt lat="45.89442" lon="4.95752">
        <ele>286.5</ele>
        <time>2016-06-06T09:30:57.716Z</time>
      </trkpt>
      <trkpt lat="45.89443" lon="4.95759">
        <ele>286.399993896</ele>
        <time>2016-06-06T09:30:58.709Z</time>
      </trkpt>
      <trkpt lat="45.89445" lon="4.95766">
        <ele>285.700012207</ele>
        <time>2016-06-06T09:30:59.691Z</time>
      </trkpt>
      <trkpt lat="45.89446" lon="4.95772">
        <ele>284.899993896</ele>
        <time>2016-06-06T09:31:00.709Z</time>
      </trkpt>
      <trkpt lat="45.89447" lon="4.95778">
        <ele>284.899993896</ele>
        <time>2016-06-06T09:31:01.687Z</time>
      </trkpt>
      <trkpt lat="45.8945" lon="4.95791">
        <ele>283.899993896</ele>
        <time>2016-06-06T09:31:03.712Z</time>
      </trkpt>
      <trkpt lat="45.89452" lon="4.95797">
        <ele>283.899993896</ele>
        <time>2016-06-06T09:31:04.69Z</time>
      </trkpt>
      <trkpt lat="45.89454" lon="4.95803">
        <ele>283.5</ele>
        <time>2016-06-06T09:31:05.71Z</time>
      </trkpt>
      <trkpt lat="45.89456" lon="4.9581">
        <ele>283.700012207</ele>
        <time>2016-06-06T09:31:06.687Z</time>
      </trkpt>
      <trkpt lat="45.89457" lon="4.95817">
        <ele>283.299987793</ele>
        <time>2016-06-06T09:31:07.709Z</time>
      </trkpt>
      <trkpt lat="45.89458" lon="4.95824">
        <ele>283.399993896</ele>
        <time>2016-06-06T09:31:08.709Z</time>
      </trkpt>
      <trkpt lat="45.8946" lon="4.9583">
        <ele>283.5</ele>
        <time>2016-06-06T09:31:09.712Z</time>
      </trkpt>
      <trkpt lat="45.89462" lon="4.95837">
        <ele>283.299987793</ele>
        <time>2016-06-06T09:31:10.69Z</time>
      </trkpt>
      <trkpt lat="45.89464" lon="4.95844">
        <ele>283.200012207</ele>
        <time>2016-06-06T09:31:11.71Z</time>
      </trkpt>
      <trkpt lat="45.89465" lon="4.95851">
        <ele>283.100006104</ele>
        <time>2016-06-06T09:31:12.691Z</time>
      </trkpt>
      <trkpt lat="45.89466" lon="4.95858">
        <ele>283.100006104</ele>
        <time>2016-06-06T09:31:13.728Z</time>
      </trkpt>
      <trkpt lat="45.89468" lon="4.95865">
        <ele>282.700012207</ele>
        <time>2016-06-06T09:31:14.687Z</time>
      </trkpt>
      <trkpt lat="45.89468" lon="4.95872">
        <ele>282.399993896</ele>
        <time>2016-06-06T09:31:15.712Z</time>
      </trkpt>
      <trkpt lat="45.89469" lon="4.95879">
        <ele>282.399993896</ele>
        <time>2016-06-06T09:31:16.69Z</time>
      </trkpt>
      <trkpt lat="45.8947" lon="4.95885">
        <ele>282.399993896</ele>
        <time>2016-06-06T09:31:17.713Z</time>
      </trkpt>
      <trkpt lat="45.89471" lon="4.95891">
        <ele>282.299987793</ele>
        <time>2016-06-06T09:31:18.691Z</time>
      </trkpt>
      <trkpt lat="45.89473" lon="4.95897">
        <ele>281.899993896</ele>
        <time>2016-06-06T09:31:19.712Z</time>
      </trkpt>
      <trkpt lat="45.89474" lon="4.95904">
        <ele>281.600006104</ele>
        <time>2016-06-06T09:31:20.69Z</time>
      </trkpt>
      <trkpt lat="45.89474" lon="4.9591">
        <ele>281.700012207</ele>
        <time>2016-06-06T09:31:21.719Z</time>
      </trkpt>
      <trkpt lat="45.89475" lon="4.95918">
        <ele>282</ele>
        <time>2016-06-06T09:31:22.691Z</time>
      </trkpt>
      <trkpt lat="45.89475" lon="4.95925">
        <ele>282.200012207</ele>
        <time>2016-06-06T09:31:23.713Z</time>
      </trkpt>
      <trkpt lat="45.89476" lon="4.95932">
        <ele>282.399993896</ele>
        <time>2016-06-06T09:31:24.687Z</time>
      </trkpt>
      <trkpt lat="45.89477" lon="4.95939">
        <ele>283.100006104</ele>
        <time>2016-06-06T09:31:25.71Z</time>
      </trkpt>
      <trkpt lat="45.89477" lon="4.95946">
        <ele>283.600006104</ele>
        <time>2016-06-06T09:31:26.687Z</time>
      </trkpt>
      <trkpt lat="45.89478" lon="4.95953">
        <ele>284.100006104</ele>
        <time>2016-06-06T09:31:27.711Z</time>
      </trkpt>
      <trkpt lat="45.89479" lon="4.95961">
        <ele>284.399993896</ele>
        <time>2016-06-06T09:31:28.687Z</time>
      </trkpt>
      <trkpt lat="45.89479" lon="4.95969">
        <ele>284.5</ele>
        <time>2016-06-06T09:31:29.727Z</time>
      </trkpt>
      <trkpt lat="45.8948" lon="4.95976">
        <ele>284.299987793</ele>
        <time>2016-06-06T09:31:30.687Z</time>
      </trkpt>
      <trkpt lat="45.89481" lon="4.95984">
        <ele>284.399993896</ele>
        <time>2016-06-06T09:31:31.709Z</time>
      </trkpt>
      <trkpt lat="45.89481" lon="4.95992">
        <ele>284.299987793</ele>
        <time>2016-06-06T09:31:32.687Z</time>
      </trkpt>
      <trkpt lat="45.89482" lon="4.96">
        <ele>284.399993896</ele>
        <time>2016-06-06T09:31:33.711Z</time>
      </trkpt>
      <trkpt lat="45.89482" lon="4.96007">
        <ele>284.5</ele>
        <time>2016-06-06T09:31:34.703Z</time>
      </trkpt>
      <trkpt lat="45.89482" lon="4.96014">
        <ele>284.799987793</ele>
        <time>2016-06-06T09:31:35.71Z</time>
      </trkpt>
      <trkpt lat="45.89482" lon="4.96021">
        <ele>284.600006104</ele>
        <time>2016-06-06T09:31:36.688Z</time>
      </trkpt>
      <trkpt lat="45.89482" lon="4.96028">
        <ele>284.899993896</ele>
        <time>2016-06-06T09:31:37.713Z</time>
      </trkpt>
      <trkpt lat="45.89482" lon="4.96035">
        <ele>284.899993896</ele>
        <time>2016-06-06T09:31:38.687Z</time>
      </trkpt>
      <trkpt lat="45.89483" lon="4.96042">
        <ele>284.600006104</ele>
        <time>2016-06-06T09:31:39.732Z</time>
      </trkpt>
      <trkpt lat="45.89482" lon="4.9605">
        <ele>284.700012207</ele>
        <time>2016-06-06T09:31:40.687Z</time>
      </trkpt>
      <trkpt lat="45.89482" lon="4.96058">
        <ele>284.799987793</ele>
        <time>2016-06-06T09:31:41.71Z</time>
      </trkpt>
      <trkpt lat="45.89482" lon="4.96065">
        <ele>284.700012207</ele>
        <time>2016-06-06T09:31:42.687Z</time>
      </trkpt>
      <trkpt lat="45.89482" lon="4.96072">
        <ele>284.5</ele>
        <time>2016-06-06T09:31:43.735Z</time>
      </trkpt>
      <trkpt lat="45.89481" lon="4.96079">
        <ele>284.399993896</ele>
        <time>2016-06-06T09:31:44.687Z</time>
      </trkpt>
      <trkpt lat="45.89481" lon="4.96085">
        <ele>284.200012207</ele>
        <time>2016-06-06T09:31:45.715Z</time>
      </trkpt>
      <trkpt lat="45.89481" lon="4.96092">
        <ele>284.299987793</ele>
        <time>2016-06-06T09:31:46.692Z</time>
      </trkpt>
      <trkpt lat="45.8948" lon="4.96098">
        <ele>284.399993896</ele>
        <time>2016-06-06T09:31:47.716Z</time>
      </trkpt>
      <trkpt lat="45.8948" lon="4.96105">
        <ele>284.600006104</ele>
        <time>2016-06-06T09:31:48.687Z</time>
      </trkpt>
      <trkpt lat="45.89481" lon="4.96111">
        <ele>284.600006104</ele>
        <time>2016-06-06T09:31:49.712Z</time>
      </trkpt>
      <trkpt lat="45.89481" lon="4.96118">
        <ele>285.100006104</ele>
        <time>2016-06-06T09:31:50.687Z</time>
      </trkpt>
      <trkpt lat="45.89482" lon="4.96124">
        <ele>285.299987793</ele>
        <time>2016-06-06T09:31:51.716Z</time>
      </trkpt>
      <trkpt lat="45.89482" lon="4.9613">
        <ele>285.899993896</ele>
        <time>2016-06-06T09:31:52.687Z</time>
      </trkpt>
      <trkpt lat="45.89484" lon="4.96143">
        <ele>286.799987793</ele>
        <time>2016-06-06T09:31:54.847Z</time>
      </trkpt>
      <trkpt lat="45.89485" lon="4.96149">
        <ele>287.200012207</ele>
        <time>2016-06-06T09:31:55.702Z</time>
      </trkpt>
      <trkpt lat="45.89486" lon="4.96156">
        <ele>287.700012207</ele>
        <time>2016-06-06T09:31:56.714Z</time>
      </trkpt>
      <trkpt lat="45.89487" lon="4.96162">
        <ele>287.700012207</ele>
        <time>2016-06-06T09:31:57.692Z</time>
      </trkpt>
      <trkpt lat="45.89488" lon="4.96168">
        <ele>287.799987793</ele>
        <time>2016-06-06T09:31:58.709Z</time>
      </trkpt>
      <trkpt lat="45.8949" lon="4.96175">
        <ele>287.799987793</ele>
        <time>2016-06-06T09:31:59.688Z</time>
      </trkpt>
      <trkpt lat="45.89491" lon="4.96181">
        <ele>288</ele>
        <time>2016-06-06T09:32:00.728Z</time>
      </trkpt>
      <trkpt lat="45.89492" lon="4.96187">
        <ele>288.100006104</ele>
        <time>2016-06-06T09:32:01.715Z</time>
      </trkpt>
      <trkpt lat="45.89495" lon="4.96199">
        <ele>288.700012207</ele>
        <time>2016-06-06T09:32:03.711Z</time>
      </trkpt>
      <trkpt lat="45.89497" lon="4.96204">
        <ele>288.799987793</ele>
        <time>2016-06-06T09:32:04.687Z</time>
      </trkpt>
      <trkpt lat="45.895" lon="4.96215">
        <ele>288.799987793</ele>
        <time>2016-06-06T09:32:06.71Z</time>
      </trkpt>
      <trkpt lat="45.89501" lon="4.96221">
        <ele>289.200012207</ele>
        <time>2016-06-06T09:32:07.687Z</time>
      </trkpt>
      <trkpt lat="45.89503" lon="4.96227">
        <ele>289.100006104</ele>
        <time>2016-06-06T09:32:08.755Z</time>
      </trkpt>
      <trkpt lat="45.89506" lon="4.96233">
        <ele>289</ele>
        <time>2016-06-06T09:32:09.693Z</time>
      </trkpt>
      <trkpt lat="45.89509" lon="4.96243">
        <ele>289</ele>
        <time>2016-06-06T09:32:11.711Z</time>
      </trkpt>
      <trkpt lat="45.8951" lon="4.96249">
        <ele>289.299987793</ele>
        <time>2016-06-06T09:32:12.691Z</time>
      </trkpt>
      <trkpt lat="45.89514" lon="4.96258">
        <ele>289.5</ele>
        <time>2016-06-06T09:32:14.709Z</time>
      </trkpt>
      <trkpt lat="45.89516" lon="4.96263">
        <ele>289.600006104</ele>
        <time>2016-06-06T09:32:15.726Z</time>
      </trkpt>
      <trkpt lat="45.89519" lon="4.96272">
        <ele>290</ele>
        <time>2016-06-06T09:32:17.736Z</time>
      </trkpt>
      <trkpt lat="45.89521" lon="4.96278">
        <ele>289.899993896</ele>
        <time>2016-06-06T09:32:18.691Z</time>
      </trkpt>
      <trkpt lat="45.89525" lon="4.96289">
        <ele>289.700012207</ele>
        <time>2016-06-06T09:32:20.712Z</time>
      </trkpt>
      <trkpt lat="45.89527" lon="4.96295">
        <ele>289.5</ele>
        <time>2016-06-06T09:32:21.693Z</time>
      </trkpt>
      <trkpt lat="45.89531" lon="4.96306">
        <ele>289.399993896</ele>
        <time>2016-06-06T09:32:23.735Z</time>
      </trkpt>
      <trkpt lat="45.89533" lon="4.96312">
        <ele>289.5</ele>
        <time>2016-06-06T09:32:24.691Z</time>
      </trkpt>
      <trkpt lat="45.89535" lon="4.96318">
        <ele>289.399993896</ele>
        <time>2016-06-06T09:32:25.709Z</time>
      </trkpt>
      <trkpt lat="45.89538" lon="4.96323">
        <ele>289.399993896</ele>
        <time>2016-06-06T09:32:26.687Z</time>
      </trkpt>
      <trkpt lat="45.8954" lon="4.96329">
        <ele>289.299987793</ele>
        <time>2016-06-06T09:32:27.711Z</time>
      </trkpt>
      <trkpt lat="45.89542" lon="4.96335">
        <ele>289.399993896</ele>
        <time>2016-06-06T09:32:28.687Z</time>
      </trkpt>
      <trkpt lat="45.89545" lon="4.96341">
        <ele>289.5</ele>
        <time>2016-06-06T09:32:29.713Z</time>
      </trkpt>
      <trkpt lat="45.89546" lon="4.96347">
        <ele>289.299987793</ele>
        <time>2016-06-06T09:32:30.686Z</time>
      </trkpt>
      <trkpt lat="45.89551" lon="4.96358">
        <ele>289.299987793</ele>
        <time>2016-06-06T09:32:32.709Z</time>
      </trkpt>
      <trkpt lat="45.89553" lon="4.96364">
        <ele>289.200012207</ele>
        <time>2016-06-06T09:32:33.69Z</time>
      </trkpt>
      <trkpt lat="45.89556" lon="4.96375">
        <ele>289</ele>
        <time>2016-06-06T09:32:35.709Z</time>
      </trkpt>
      <trkpt lat="45.89557" lon="4.96381">
        <ele>288.799987793</ele>
        <time>2016-06-06T09:32:36.687Z</time>
      </trkpt>
      <trkpt lat="45.89561" lon="4.96392">
        <ele>288.299987793</ele>
        <time>2016-06-06T09:32:38.735Z</time>
      </trkpt>
      <trkpt lat="45.89563" lon="4.96397">
        <ele>288.5</ele>
        <time>2016-06-06T09:32:39.697Z</time>
      </trkpt>
      <trkpt lat="45.89566" lon="4.96407">
        <ele>288.5</ele>
        <time>2016-06-06T09:32:41.71Z</time>
      </trkpt>
      <trkpt lat="45.89568" lon="4.96413">
        <ele>288.399993896</ele>
        <time>2016-06-06T09:32:42.691Z</time>
      </trkpt>
      <trkpt lat="45.89571" lon="4.96423">
        <ele>288.5</ele>
        <time>2016-06-06T09:32:44.712Z</time>
      </trkpt>
      <trkpt lat="45.89573" lon="4.96429">
        <ele>288.5</ele>
        <time>2016-06-06T09:32:45.69Z</time>
      </trkpt>
      <trkpt lat="45.89576" lon="4.96441">
        <ele>288.200012207</ele>
        <time>2016-06-06T09:32:47.714Z</time>
      </trkpt>
      <trkpt lat="45.89578" lon="4.96447">
        <ele>288.299987793</ele>
        <time>2016-06-06T09:32:48.691Z</time>
      </trkpt>
      <trkpt lat="45.89581" lon="4.96453">
        <ele>288.299987793</ele>
        <time>2016-06-06T09:32:49.712Z</time>
      </trkpt>
      <trkpt lat="45.89582" lon="4.96458">
        <ele>288.5</ele>
        <time>2016-06-06T09:32:50.688Z</time>
      </trkpt>
      <trkpt lat="45.89586" lon="4.96468">
        <ele>288.299987793</ele>
        <time>2016-06-06T09:32:52.709Z</time>
      </trkpt>
      <trkpt lat="45.89587" lon="4.96472">
        <ele>288.200012207</ele>
        <time>2016-06-06T09:32:53.709Z</time>
      </trkpt>
      <trkpt lat="45.8959" lon="4.96483">
        <ele>287.799987793</ele>
        <time>2016-06-06T09:32:55.713Z</time>
      </trkpt>
      <trkpt lat="45.89591" lon="4.96489">
        <ele>287.700012207</ele>
        <time>2016-06-06T09:32:56.691Z</time>
      </trkpt>
      <trkpt lat="45.89594" lon="4.96499">
        <ele>287.399993896</ele>
        <time>2016-06-06T09:32:58.709Z</time>
      </trkpt>
      <trkpt lat="45.89596" lon="4.96505">
        <ele>287.399993896</ele>
        <time>2016-06-06T09:32:59.687Z</time>
      </trkpt>
      <trkpt lat="45.89598" lon="4.96511">
        <ele>287.299987793</ele>
        <time>2016-06-06T09:33:00.709Z</time>
      </trkpt>
      <trkpt lat="45.896" lon="4.96517">
        <ele>287.299987793</ele>
        <time>2016-06-06T09:33:01.69Z</time>
      </trkpt>
      <trkpt lat="45.89603" lon="4.96528">
        <ele>287.200012207</ele>
        <time>2016-06-06T09:33:03.711Z</time>
      </trkpt>
      <trkpt lat="45.89604" lon="4.96534">
        <ele>287</ele>
        <time>2016-06-06T09:33:04.686Z</time>
      </trkpt>
      <trkpt lat="45.89608" lon="4.96544">
        <ele>287</ele>
        <time>2016-06-06T09:33:06.714Z</time>
      </trkpt>
      <trkpt lat="45.89609" lon="4.9655">
        <ele>287.299987793</ele>
        <time>2016-06-06T09:33:07.687Z</time>
      </trkpt>
      <trkpt lat="45.89612" lon="4.96561">
        <ele>287.899993896</ele>
        <time>2016-06-06T09:33:09.735Z</time>
      </trkpt>
      <trkpt lat="45.89614" lon="4.96566">
        <ele>287.799987793</ele>
        <time>2016-06-06T09:33:10.687Z</time>
      </trkpt>
      <trkpt lat="45.89617" lon="4.96578">
        <ele>288.600006104</ele>
        <time>2016-06-06T09:33:12.713Z</time>
      </trkpt>
      <trkpt lat="45.89619" lon="4.96584">
        <ele>288.799987793</ele>
        <time>2016-06-06T09:33:13.687Z</time>
      </trkpt>
      <trkpt lat="45.89621" lon="4.96595">
        <ele>289.299987793</ele>
        <time>2016-06-06T09:33:15.712Z</time>
      </trkpt>
      <trkpt lat="45.89622" lon="4.96601">
        <ele>289.700012207</ele>
        <time>2016-06-06T09:33:16.691Z</time>
      </trkpt>
      <trkpt lat="45.89625" lon="4.96613">
        <ele>289.899993896</ele>
        <time>2016-06-06T09:33:18.712Z</time>
      </trkpt>
      <trkpt lat="45.89626" lon="4.9662">
        <ele>289.899993896</ele>
        <time>2016-06-06T09:33:19.687Z</time>
      </trkpt>
      <trkpt lat="45.89627" lon="4.96632">
        <ele>289.700012207</ele>
        <time>2016-06-06T09:33:21.712Z</time>
      </trkpt>
      <trkpt lat="45.89629" lon="4.96638">
        <ele>289.899993896</ele>
        <time>2016-06-06T09:33:22.691Z</time>
      </trkpt>
      <trkpt lat="45.89631" lon="4.96649">
        <ele>290.200012207</ele>
        <time>2016-06-06T09:33:24.712Z</time>
      </trkpt>
      <trkpt lat="45.89632" lon="4.96654">
        <ele>290.299987793</ele>
        <time>2016-06-06T09:33:25.688Z</time>
      </trkpt>
      <trkpt lat="45.89633" lon="4.96665">
        <ele>290.899993896</ele>
        <time>2016-06-06T09:33:27.712Z</time>
      </trkpt>
      <trkpt lat="45.89632" lon="4.96671">
        <ele>291.200012207</ele>
        <time>2016-06-06T09:33:28.691Z</time>
      </trkpt>
      <trkpt lat="45.89631" lon="4.96677">
        <ele>291.200012207</ele>
        <time>2016-06-06T09:33:29.716Z</time>
      </trkpt>
      <trkpt lat="45.8963" lon="4.96684">
        <ele>291.200012207</ele>
        <time>2016-06-06T09:33:30.686Z</time>
      </trkpt>
      <trkpt lat="45.89629" lon="4.9669">
        <ele>291</ele>
        <time>2016-06-06T09:33:31.715Z</time>
      </trkpt>
      <trkpt lat="45.89628" lon="4.96697">
        <ele>290.899993896</ele>
        <time>2016-06-06T09:33:32.73Z</time>
      </trkpt>
      <trkpt lat="45.89626" lon="4.96708">
        <ele>291.399993896</ele>
        <time>2016-06-06T09:33:34.713Z</time>
      </trkpt>
      <trkpt lat="45.89625" lon="4.96714">
        <ele>291.399993896</ele>
        <time>2016-06-06T09:33:35.693Z</time>
      </trkpt>
      <trkpt lat="45.89621" lon="4.96723">
        <ele>291.700012207</ele>
        <time>2016-06-06T09:33:37.709Z</time>
      </trkpt>
      <trkpt lat="45.8962" lon="4.96728">
        <ele>291.700012207</ele>
        <time>2016-06-06T09:33:38.691Z</time>
      </trkpt>
      <trkpt lat="45.89618" lon="4.96739">
        <ele>292</ele>
        <time>2016-06-06T09:33:40.709Z</time>
      </trkpt>
      <trkpt lat="45.89617" lon="4.96744">
        <ele>292.200012207</ele>
        <time>2016-06-06T09:33:41.691Z</time>
      </trkpt>
      <trkpt lat="45.89614" lon="4.96755">
        <ele>292.100006104</ele>
        <time>2016-06-06T09:33:43.709Z</time>
      </trkpt>
      <trkpt lat="45.89613" lon="4.96761">
        <ele>292.200012207</ele>
        <time>2016-06-06T09:33:44.687Z</time>
      </trkpt>
      <trkpt lat="45.8961" lon="4.96773">
        <ele>292.799987793</ele>
        <time>2016-06-06T09:33:46.713Z</time>
      </trkpt>
      <trkpt lat="45.89608" lon="4.96778">
        <ele>292.899993896</ele>
        <time>2016-06-06T09:33:47.687Z</time>
      </trkpt>
      <trkpt lat="45.89605" lon="4.96789">
        <ele>293.5</ele>
        <time>2016-06-06T09:33:49.712Z</time>
      </trkpt>
      <trkpt lat="45.89604" lon="4.96795">
        <ele>293.700012207</ele>
        <time>2016-06-06T09:33:50.691Z</time>
      </trkpt>
      <trkpt lat="45.89601" lon="4.96806">
        <ele>294</ele>
        <time>2016-06-06T09:33:52.736Z</time>
      </trkpt>
      <trkpt lat="45.896" lon="4.96812">
        <ele>294.100006104</ele>
        <time>2016-06-06T09:33:53.691Z</time>
      </trkpt>
      <trkpt lat="45.89597" lon="4.96822">
        <ele>294.100006104</ele>
        <time>2016-06-06T09:33:55.71Z</time>
      </trkpt>
      <trkpt lat="45.89596" lon="4.96827">
        <ele>293.700012207</ele>
        <time>2016-06-06T09:33:56.691Z</time>
      </trkpt>
      <trkpt lat="45.89595" lon="4.96833">
        <ele>293.700012207</ele>
        <time>2016-06-06T09:33:57.715Z</time>
      </trkpt>
      <trkpt lat="45.89594" lon="4.96841">
        <ele>293.899993896</ele>
        <time>2016-06-06T09:33:58.687Z</time>
      </trkpt>
      <trkpt lat="45.89592" lon="4.96853">
        <ele>293.600006104</ele>
        <time>2016-06-06T09:34:00.71Z</time>
      </trkpt>
      <trkpt lat="45.89592" lon="4.9686">
        <ele>293.299987793</ele>
        <time>2016-06-06T09:34:01.704Z</time>
      </trkpt>
      <trkpt lat="45.89593" lon="4.96866">
        <ele>293.100006104</ele>
        <time>2016-06-06T09:34:02.709Z</time>
      </trkpt>
      <trkpt lat="45.89596" lon="4.96873">
        <ele>293.399993896</ele>
        <time>2016-06-06T09:34:03.693Z</time>
      </trkpt>
      <trkpt lat="45.896" lon="4.96884">
        <ele>293.5</ele>
        <time>2016-06-06T09:34:05.71Z</time>
      </trkpt>
      <trkpt lat="45.89602" lon="4.96889">
        <ele>293.200012207</ele>
        <time>2016-06-06T09:34:06.69Z</time>
      </trkpt>
      <trkpt lat="45.89608" lon="4.96899">
        <ele>293.600006104</ele>
        <time>2016-06-06T09:34:08.709Z</time>
      </trkpt>
      <trkpt lat="45.8961" lon="4.96903">
        <ele>294</ele>
        <time>2016-06-06T09:34:09.692Z</time>
      </trkpt>
      <trkpt lat="45.89614" lon="4.96912">
        <ele>294.200012207</ele>
        <time>2016-06-06T09:34:11.712Z</time>
      </trkpt>
      <trkpt lat="45.89616" lon="4.96914">
        <ele>294.299987793</ele>
        <time>2016-06-06T09:34:12.687Z</time>
      </trkpt>
      <trkpt lat="45.89619" lon="4.96919">
        <ele>293.799987793</ele>
        <time>2016-06-06T09:34:16.709Z</time>
      </trkpt>
      <trkpt lat="45.8962" lon="4.9692">
        <ele>293.600006104</ele>
        <time>2016-06-06T09:34:17.703Z</time>
      </trkpt>
      <trkpt lat="45.89622" lon="4.96925">
        <ele>293.299987793</ele>
        <time>2016-06-06T09:34:19.83Z</time>
      </trkpt>
      <trkpt lat="45.89624" lon="4.96928">
        <ele>293.299987793</ele>
        <time>2016-06-06T09:34:20.687Z</time>
      </trkpt>
      <trkpt lat="45.89629" lon="4.96935">
        <ele>293.5</ele>
        <time>2016-06-06T09:34:22.727Z</time>
      </trkpt>
      <trkpt lat="45.89631" lon="4.9694">
        <ele>293.5</ele>
        <time>2016-06-06T09:34:23.693Z</time>
      </trkpt>
      <trkpt lat="45.89635" lon="4.96946">
        <ele>293.399993896</ele>
        <time>2016-06-06T09:34:24.709Z</time>
      </trkpt>
      <trkpt lat="45.89639" lon="4.96953">
        <ele>293.200012207</ele>
        <time>2016-06-06T09:34:25.687Z</time>
      </trkpt>
      <trkpt lat="45.89642" lon="4.96959">
        <ele>292.899993896</ele>
        <time>2016-06-06T09:34:26.712Z</time>
      </trkpt>
      <trkpt lat="45.89646" lon="4.96965">
        <ele>292.5</ele>
        <time>2016-06-06T09:34:27.693Z</time>
      </trkpt>
      <trkpt lat="45.8965" lon="4.9697">
        <ele>292.299987793</ele>
        <time>2016-06-06T09:34:28.734Z</time>
      </trkpt>
      <trkpt lat="45.89654" lon="4.96977">
        <ele>292.100006104</ele>
        <time>2016-06-06T09:34:29.691Z</time>
      </trkpt>
      <trkpt lat="45.89658" lon="4.96983">
        <ele>291.899993896</ele>
        <time>2016-06-06T09:34:30.709Z</time>
      </trkpt>
      <trkpt lat="45.89661" lon="4.96989">
        <ele>291.899993896</ele>
        <time>2016-06-06T09:34:31.687Z</time>
      </trkpt>
      <trkpt lat="45.89665" lon="4.96999">
        <ele>291.5</ele>
        <time>2016-06-06T09:34:33.712Z</time>
      </trkpt>
      <trkpt lat="45.89668" lon="4.97003">
        <ele>291.299987793</ele>
        <time>2016-06-06T09:34:34.687Z</time>
      </trkpt>
      <trkpt lat="45.89673" lon="4.97013">
        <ele>291.299987793</ele>
        <time>2016-06-06T09:34:36.713Z</time>
      </trkpt>
      <trkpt lat="45.89677" lon="4.97019">
        <ele>291.5</ele>
        <time>2016-06-06T09:34:37.687Z</time>
      </trkpt>
      <trkpt lat="45.8968" lon="4.97025">
        <ele>291.700012207</ele>
        <time>2016-06-06T09:34:38.709Z</time>
      </trkpt>
      <trkpt lat="45.89682" lon="4.9703">
        <ele>291.700012207</ele>
        <time>2016-06-06T09:34:39.69Z</time>
      </trkpt>
      <trkpt lat="45.89688" lon="4.97038">
        <ele>291.799987793</ele>
        <time>2016-06-06T09:34:41.71Z</time>
      </trkpt>
      <trkpt lat="45.89692" lon="4.97043">
        <ele>291.700012207</ele>
        <time>2016-06-06T09:34:42.691Z</time>
      </trkpt>
      <trkpt lat="45.89696" lon="4.97048">
        <ele>291.600006104</ele>
        <time>2016-06-06T09:34:43.713Z</time>
      </trkpt>
      <trkpt lat="45.89701" lon="4.97054">
        <ele>291.600006104</ele>
        <time>2016-06-06T09:34:44.691Z</time>
      </trkpt>
      <trkpt lat="45.89705" lon="4.9706">
        <ele>291.5</ele>
        <time>2016-06-06T09:34:45.711Z</time>
      </trkpt>
      <trkpt lat="45.89709" lon="4.97067">
        <ele>291.600006104</ele>
        <time>2016-06-06T09:34:46.691Z</time>
      </trkpt>
      <trkpt lat="45.89712" lon="4.97073">
        <ele>291.700012207</ele>
        <time>2016-06-06T09:34:47.713Z</time>
      </trkpt>
      <trkpt lat="45.89716" lon="4.97078">
        <ele>291.799987793</ele>
        <time>2016-06-06T09:34:48.708Z</time>
      </trkpt>
      <trkpt lat="45.89719" lon="4.97084">
        <ele>291.899993896</ele>
        <time>2016-06-06T09:34:49.716Z</time>
      </trkpt>
      <trkpt lat="45.89723" lon="4.9709">
        <ele>292.200012207</ele>
        <time>2016-06-06T09:34:50.687Z</time>
      </trkpt>
      <trkpt lat="45.89727" lon="4.97096">
        <ele>292.299987793</ele>
        <time>2016-06-06T09:34:51.719Z</time>
      </trkpt>
      <trkpt lat="45.8973" lon="4.97103">
        <ele>292.299987793</ele>
        <time>2016-06-06T09:34:52.691Z</time>
      </trkpt>
      <trkpt lat="45.89733" lon="4.97108">
        <ele>292.100006104</ele>
        <time>2016-06-06T09:34:53.728Z</time>
      </trkpt>
      <trkpt lat="45.89736" lon="4.97113">
        <ele>292</ele>
        <time>2016-06-06T09:34:54.688Z</time>
      </trkpt>
      <trkpt lat="45.89739" lon="4.97118">
        <ele>291.899993896</ele>
        <time>2016-06-06T09:34:55.885Z</time>
      </trkpt>
      <trkpt lat="45.89742" lon="4.97123">
        <ele>291.799987793</ele>
        <time>2016-06-06T09:34:56.688Z</time>
      </trkpt>
      <trkpt lat="45.89745" lon="4.97128">
        <ele>292</ele>
        <time>2016-06-06T09:34:57.715Z</time>
      </trkpt>
      <trkpt lat="45.89748" lon="4.97133">
        <ele>292.100006104</ele>
        <time>2016-06-06T09:34:58.694Z</time>
      </trkpt>
      <trkpt lat="45.89752" lon="4.97141">
        <ele>291.899993896</ele>
        <time>2016-06-06T09:35:00.71Z</time>
      </trkpt>
      <trkpt lat="45.89754" lon="4.97145">
        <ele>291.399993896</ele>
        <time>2016-06-06T09:35:01.689Z</time>
      </trkpt>
      <trkpt lat="45.89758" lon="4.97152">
        <ele>291.200012207</ele>
        <time>2016-06-06T09:35:03.739Z</time>
      </trkpt>
      <trkpt lat="45.8976" lon="4.97155">
        <ele>291.200012207</ele>
        <time>2016-06-06T09:35:04.687Z</time>
      </trkpt>
      <trkpt lat="45.89765" lon="4.97165">
        <ele>291.100006104</ele>
        <time>2016-06-06T09:35:06.745Z</time>
      </trkpt>
      <trkpt lat="45.89767" lon="4.97169">
        <ele>291</ele>
        <time>2016-06-06T09:35:07.688Z</time>
      </trkpt>
      <trkpt lat="45.8977" lon="4.97174">
        <ele>290.899993896</ele>
        <time>2016-06-06T09:35:08.712Z</time>
      </trkpt>
      <trkpt lat="45.89773" lon="4.97179">
        <ele>290.899993896</ele>
        <time>2016-06-06T09:35:09.708Z</time>
      </trkpt>
      <trkpt lat="45.89777" lon="4.97185">
        <ele>291</ele>
        <time>2016-06-06T09:35:10.713Z</time>
      </trkpt>
      <trkpt lat="45.8978" lon="4.97191">
        <ele>291.100006104</ele>
        <time>2016-06-06T09:35:11.691Z</time>
      </trkpt>
      <trkpt lat="45.89782" lon="4.97196">
        <ele>290.899993896</ele>
        <time>2016-06-06T09:35:12.712Z</time>
      </trkpt>
      <trkpt lat="45.89786" lon="4.97202">
        <ele>291.200012207</ele>
        <time>2016-06-06T09:35:13.687Z</time>
      </trkpt>
      <trkpt lat="45.89788" lon="4.97207">
        <ele>291.299987793</ele>
        <time>2016-06-06T09:35:14.728Z</time>
      </trkpt>
      <trkpt lat="45.89791" lon="4.97213">
        <ele>291.399993896</ele>
        <time>2016-06-06T09:35:15.695Z</time>
      </trkpt>
      <trkpt lat="45.89793" lon="4.9722">
        <ele>291.200012207</ele>
        <time>2016-06-06T09:35:16.714Z</time>
      </trkpt>
      <trkpt lat="45.89795" lon="4.97226">
        <ele>290.899993896</ele>
        <time>2016-06-06T09:35:17.694Z</time>
      </trkpt>
      <trkpt lat="45.89796" lon="4.97233">
        <ele>290.700012207</ele>
        <time>2016-06-06T09:35:18.712Z</time>
      </trkpt>
      <trkpt lat="45.89796" lon="4.9724">
        <ele>290.799987793</ele>
        <time>2016-06-06T09:35:19.69Z</time>
      </trkpt>
      <trkpt lat="45.89795" lon="4.97247">
        <ele>290.600006104</ele>
        <time>2016-06-06T09:35:20.716Z</time>
      </trkpt>
      <trkpt lat="45.89793" lon="4.97253">
        <ele>291.299987793</ele>
        <time>2016-06-06T09:35:21.691Z</time>
      </trkpt>
      <trkpt lat="45.8979" lon="4.97258">
        <ele>291.399993896</ele>
        <time>2016-06-06T09:35:22.709Z</time>
      </trkpt>
      <trkpt lat="45.89788" lon="4.97264">
        <ele>291.600006104</ele>
        <time>2016-06-06T09:35:23.687Z</time>
      </trkpt>
      <trkpt lat="45.89783" lon="4.97274">
        <ele>291.700012207</ele>
        <time>2016-06-06T09:35:25.725Z</time>
      </trkpt>
      <trkpt lat="45.89781" lon="4.97279">
        <ele>291.600006104</ele>
        <time>2016-06-06T09:35:26.691Z</time>
      </trkpt>
      <trkpt lat="45.89775" lon="4.97289">
        <ele>292.399993896</ele>
        <time>2016-06-06T09:35:28.735Z</time>
      </trkpt>
      <trkpt lat="45.89773" lon="4.97293">
        <ele>292.700012207</ele>
        <time>2016-06-06T09:35:29.72Z</time>
      </trkpt>
      <trkpt lat="45.89769" lon="4.97303">
        <ele>293</ele>
        <time>2016-06-06T09:35:31.709Z</time>
      </trkpt>
      <trkpt lat="45.89766" lon="4.97307">
        <ele>293.100006104</ele>
        <time>2016-06-06T09:35:32.69Z</time>
      </trkpt>
      <trkpt lat="45.89761" lon="4.97318">
        <ele>293.399993896</ele>
        <time>2016-06-06T09:35:34.712Z</time>
      </trkpt>
      <trkpt lat="45.89759" lon="4.97322">
        <ele>293.600006104</ele>
        <time>2016-06-06T09:35:35.717Z</time>
      </trkpt>
      <trkpt lat="45.89757" lon="4.97327">
        <ele>293.600006104</ele>
        <time>2016-06-06T09:35:36.712Z</time>
      </trkpt>
      <trkpt lat="45.89754" lon="4.97332">
        <ele>293.899993896</ele>
        <time>2016-06-06T09:35:37.69Z</time>
      </trkpt>
      <trkpt lat="45.89749" lon="4.97343">
        <ele>294.200012207</ele>
        <time>2016-06-06T09:35:39.712Z</time>
      </trkpt>
      <trkpt lat="45.89747" lon="4.97348">
        <ele>293.899993896</ele>
        <time>2016-06-06T09:35:40.687Z</time>
      </trkpt>
      <trkpt lat="45.89742" lon="4.97357">
        <ele>293.799987793</ele>
        <time>2016-06-06T09:35:42.761Z</time>
      </trkpt>
      <trkpt lat="45.8974" lon="4.97362">
        <ele>293.600006104</ele>
        <time>2016-06-06T09:35:43.688Z</time>
      </trkpt>
      <trkpt lat="45.89738" lon="4.97368">
        <ele>293.399993896</ele>
        <time>2016-06-06T09:35:44.713Z</time>
      </trkpt>
      <trkpt lat="45.89736" lon="4.97373">
        <ele>293.299987793</ele>
        <time>2016-06-06T09:35:45.693Z</time>
      </trkpt>
      <trkpt lat="45.89733" lon="4.97379">
        <ele>293.200012207</ele>
        <time>2016-06-06T09:35:46.713Z</time>
      </trkpt>
      <trkpt lat="45.8973" lon="4.97385">
        <ele>293</ele>
        <time>2016-06-06T09:35:47.691Z</time>
      </trkpt>
      <trkpt lat="45.89728" lon="4.97391">
        <ele>293.200012207</ele>
        <time>2016-06-06T09:35:48.75Z</time>
      </trkpt>
      <trkpt lat="45.89726" lon="4.97397">
        <ele>293.5</ele>
        <time>2016-06-06T09:35:49.687Z</time>
      </trkpt>
      <trkpt lat="45.89724" lon="4.97403">
        <ele>293.5</ele>
        <time>2016-06-06T09:35:50.712Z</time>
      </trkpt>
      <trkpt lat="45.89722" lon="4.97409">
        <ele>293.399993896</ele>
        <time>2016-06-06T09:35:51.713Z</time>
      </trkpt>
      <trkpt lat="45.89717" lon="4.97419">
        <ele>293.5</ele>
        <time>2016-06-06T09:35:53.71Z</time>
      </trkpt>
      <trkpt lat="45.89716" lon="4.97426">
        <ele>293.299987793</ele>
        <time>2016-06-06T09:35:54.691Z</time>
      </trkpt>
      <trkpt lat="45.89714" lon="4.97433">
        <ele>293.299987793</ele>
        <time>2016-06-06T09:35:55.72Z</time>
      </trkpt>
      <trkpt lat="45.89713" lon="4.9744">
        <ele>293.5</ele>
        <time>2016-06-06T09:35:56.691Z</time>
      </trkpt>
      <trkpt lat="45.89712" lon="4.97447">
        <ele>293.5</ele>
        <time>2016-06-06T09:35:57.795Z</time>
      </trkpt>
      <trkpt lat="45.89711" lon="4.97453">
        <ele>293.5</ele>
        <time>2016-06-06T09:35:58.69Z</time>
      </trkpt>
      <trkpt lat="45.89709" lon="4.97466">
        <ele>293.600006104</ele>
        <time>2016-06-06T09:36:00.713Z</time>
      </trkpt>
      <trkpt lat="45.89708" lon="4.97472">
        <ele>293.5</ele>
        <time>2016-06-06T09:36:01.69Z</time>
      </trkpt>
      <trkpt lat="45.89706" lon="4.97478">
        <ele>293.600006104</ele>
        <time>2016-06-06T09:36:02.835Z</time>
      </trkpt>
      <trkpt lat="45.89705" lon="4.97485">
        <ele>293.399993896</ele>
        <time>2016-06-06T09:36:03.692Z</time>
      </trkpt>
      <trkpt lat="45.89704" lon="4.97492">
        <ele>293.399993896</ele>
        <time>2016-06-06T09:36:04.712Z</time>
      </trkpt>
      <trkpt lat="45.89702" lon="4.97499">
        <ele>293.299987793</ele>
        <time>2016-06-06T09:36:05.692Z</time>
      </trkpt>
      <trkpt lat="45.89701" lon="4.97507">
        <ele>292.899993896</ele>
        <time>2016-06-06T09:36:06.709Z</time>
      </trkpt>
      <trkpt lat="45.89699" lon="4.97514">
        <ele>292.600006104</ele>
        <time>2016-06-06T09:36:07.744Z</time>
      </trkpt>
      <trkpt lat="45.89698" lon="4.97522">
        <ele>292.299987793</ele>
        <time>2016-06-06T09:36:08.713Z</time>
      </trkpt>
      <trkpt lat="45.89697" lon="4.9753">
        <ele>291.899993896</ele>
        <time>2016-06-06T09:36:09.692Z</time>
      </trkpt>
      <trkpt lat="45.89695" lon="4.97538">
        <ele>291.700012207</ele>
        <time>2016-06-06T09:36:10.712Z</time>
      </trkpt>
      <trkpt lat="45.89694" lon="4.97547">
        <ele>291.399993896</ele>
        <time>2016-06-06T09:36:11.691Z</time>
      </trkpt>
      <trkpt lat="45.89692" lon="4.97556">
        <ele>290.899993896</ele>
        <time>2016-06-06T09:36:12.711Z</time>
      </trkpt>
      <trkpt lat="45.89691" lon="4.97566">
        <ele>290.399993896</ele>
        <time>2016-06-06T09:36:13.687Z</time>
      </trkpt>
      <trkpt lat="45.89689" lon="4.97575">
        <ele>290.299987793</ele>
        <time>2016-06-06T09:36:14.711Z</time>
      </trkpt>
      <trkpt lat="45.89688" lon="4.97586">
        <ele>290.100006104</ele>
        <time>2016-06-06T09:36:15.693Z</time>
      </trkpt>
      <trkpt lat="45.89686" lon="4.97596">
        <ele>290</ele>
        <time>2016-06-06T09:36:16.708Z</time>
      </trkpt>
      <trkpt lat="45.89684" lon="4.97607">
        <ele>289.899993896</ele>
        <time>2016-06-06T09:36:17.691Z</time>
      </trkpt>
      <trkpt lat="45.89683" lon="4.97619">
        <ele>289.5</ele>
        <time>2016-06-06T09:36:18.711Z</time>
      </trkpt>
      <trkpt lat="45.89681" lon="4.9763">
        <ele>289.600006104</ele>
        <time>2016-06-06T09:36:19.686Z</time>
      </trkpt>
      <trkpt lat="45.89679" lon="4.97642">
        <ele>289.299987793</ele>
        <time>2016-06-06T09:36:20.708Z</time>
      </trkpt>
      <trkpt lat="45.89677" lon="4.97653">
        <ele>288.899993896</ele>
        <time>2016-06-06T09:36:21.691Z</time>
      </trkpt>
      <trkpt lat="45.89675" lon="4.97664">
        <ele>288.799987793</ele>
        <time>2016-06-06T09:36:22.711Z</time>
      </trkpt>
      <trkpt lat="45.89674" lon="4.97674">
        <ele>288.5</ele>
        <time>2016-06-06T09:36:23.691Z</time>
      </trkpt>
      <trkpt lat="45.89671" lon="4.97685">
        <ele>288</ele>
        <time>2016-06-06T09:36:24.735Z</time>
      </trkpt>
      <trkpt lat="45.89669" lon="4.97695">
        <ele>287.600006104</ele>
        <time>2016-06-06T09:36:25.687Z</time>
      </trkpt>
      <trkpt lat="45.89667" lon="4.97705">
        <ele>287.299987793</ele>
        <time>2016-06-06T09:36:26.738Z</time>
      </trkpt>
      <trkpt lat="45.89665" lon="4.97716">
        <ele>286.899993896</ele>
        <time>2016-06-06T09:36:27.693Z</time>
      </trkpt>
      <trkpt lat="45.89664" lon="4.97725">
        <ele>286.700012207</ele>
        <time>2016-06-06T09:36:28.723Z</time>
      </trkpt>
      <trkpt lat="45.89663" lon="4.97735">
        <ele>286.5</ele>
        <time>2016-06-06T09:36:29.687Z</time>
      </trkpt>
      <trkpt lat="45.89663" lon="4.97744">
        <ele>286.100006104</ele>
        <time>2016-06-06T09:36:30.711Z</time>
      </trkpt>
      <trkpt lat="45.89665" lon="4.97753">
        <ele>285.600006104</ele>
        <time>2016-06-06T09:36:31.686Z</time>
      </trkpt>
      <trkpt lat="45.89668" lon="4.97761">
        <ele>284.799987793</ele>
        <time>2016-06-06T09:36:32.711Z</time>
      </trkpt>
      <trkpt lat="45.89673" lon="4.97768">
        <ele>284.5</ele>
        <time>2016-06-06T09:36:33.696Z</time>
      </trkpt>
      <trkpt lat="45.89678" lon="4.97773">
        <ele>284.299987793</ele>
        <time>2016-06-06T09:36:34.739Z</time>
      </trkpt>
      <trkpt lat="45.89684" lon="4.97777">
        <ele>284.100006104</ele>
        <time>2016-06-06T09:36:35.691Z</time>
      </trkpt>
      <trkpt lat="45.89689" lon="4.97781">
        <ele>283.5</ele>
        <time>2016-06-06T09:36:36.708Z</time>
      </trkpt>
      <trkpt lat="45.89695" lon="4.97785">
        <ele>283.200012207</ele>
        <time>2016-06-06T09:36:37.687Z</time>
      </trkpt>
      <trkpt lat="45.897" lon="4.9779">
        <ele>283.200012207</ele>
        <time>2016-06-06T09:36:38.708Z</time>
      </trkpt>
      <trkpt lat="45.89705" lon="4.97794">
        <ele>283</ele>
        <time>2016-06-06T09:36:39.693Z</time>
      </trkpt>
      <trkpt lat="45.8971" lon="4.97797">
        <ele>282.700012207</ele>
        <time>2016-06-06T09:36:40.712Z</time>
      </trkpt>
      <trkpt lat="45.89715" lon="4.97801">
        <ele>282.600006104</ele>
        <time>2016-06-06T09:36:41.687Z</time>
      </trkpt>
      <trkpt lat="45.8972" lon="4.97805">
        <ele>282.200012207</ele>
        <time>2016-06-06T09:36:42.725Z</time>
      </trkpt>
      <trkpt lat="45.89725" lon="4.97809">
        <ele>282</ele>
        <time>2016-06-06T09:36:43.689Z</time>
      </trkpt>
      <trkpt lat="45.89731" lon="4.97813">
        <ele>281.799987793</ele>
        <time>2016-06-06T09:36:44.723Z</time>
      </trkpt>
      <trkpt lat="45.89736" lon="4.97817">
        <ele>281.700012207</ele>
        <time>2016-06-06T09:36:45.689Z</time>
      </trkpt>
      <trkpt lat="45.89741" lon="4.97821">
        <ele>281.5</ele>
        <time>2016-06-06T09:36:46.852Z</time>
      </trkpt>
      <trkpt lat="45.89746" lon="4.97825">
        <ele>281.399993896</ele>
        <time>2016-06-06T09:36:47.688Z</time>
      </trkpt>
      <trkpt lat="45.89751" lon="4.97829">
        <ele>281.299987793</ele>
        <time>2016-06-06T09:36:48.708Z</time>
      </trkpt>
      <trkpt lat="45.89756" lon="4.97833">
        <ele>281.299987793</ele>
        <time>2016-06-06T09:36:49.686Z</time>
      </trkpt>
      <trkpt lat="45.89761" lon="4.97836">
        <ele>281.5</ele>
        <time>2016-06-06T09:36:50.708Z</time>
      </trkpt>
      <trkpt lat="45.89766" lon="4.9784">
        <ele>281.399993896</ele>
        <time>2016-06-06T09:36:51.693Z</time>
      </trkpt>
      <trkpt lat="45.8977" lon="4.97844">
        <ele>281.399993896</ele>
        <time>2016-06-06T09:36:52.722Z</time>
      </trkpt>
      <trkpt lat="45.89775" lon="4.97848">
        <ele>281.299987793</ele>
        <time>2016-06-06T09:36:53.688Z</time>
      </trkpt>
      <trkpt lat="45.89781" lon="4.97852">
        <ele>281.299987793</ele>
        <time>2016-06-06T09:36:54.708Z</time>
      </trkpt>
      <trkpt lat="45.89786" lon="4.97855">
        <ele>281.100006104</ele>
        <time>2016-06-06T09:36:55.689Z</time>
      </trkpt>
      <trkpt lat="45.89791" lon="4.97858">
        <ele>280.899993896</ele>
        <time>2016-06-06T09:36:56.708Z</time>
      </trkpt>
      <trkpt lat="45.89797" lon="4.97862">
        <ele>280.899993896</ele>
        <time>2016-06-06T09:36:57.689Z</time>
      </trkpt>
      <trkpt lat="45.89802" lon="4.97866">
        <ele>280.700012207</ele>
        <time>2016-06-06T09:36:58.734Z</time>
      </trkpt>
      <trkpt lat="45.89807" lon="4.9787">
        <ele>280.5</ele>
        <time>2016-06-06T09:36:59.69Z</time>
      </trkpt>
      <trkpt lat="45.89812" lon="4.97873">
        <ele>280.399993896</ele>
        <time>2016-06-06T09:37:00.728Z</time>
      </trkpt>
      <trkpt lat="45.89817" lon="4.97877">
        <ele>280.5</ele>
        <time>2016-06-06T09:37:01.686Z</time>
      </trkpt>
      <trkpt lat="45.89821" lon="4.9788">
        <ele>280.600006104</ele>
        <time>2016-06-06T09:37:02.708Z</time>
      </trkpt>
      <trkpt lat="45.89826" lon="4.97883">
        <ele>280.899993896</ele>
        <time>2016-06-06T09:37:03.693Z</time>
      </trkpt>
      <trkpt lat="45.89831" lon="4.97886">
        <ele>281</ele>
        <time>2016-06-06T09:37:04.708Z</time>
      </trkpt>
      <trkpt lat="45.89836" lon="4.97889">
        <ele>281.200012207</ele>
        <time>2016-06-06T09:37:05.736Z</time>
      </trkpt>
      <trkpt lat="45.89841" lon="4.97893">
        <ele>281.200012207</ele>
        <time>2016-06-06T09:37:06.708Z</time>
      </trkpt>
      <trkpt lat="45.89846" lon="4.97896">
        <ele>281.200012207</ele>
        <time>2016-06-06T09:37:07.69Z</time>
      </trkpt>
      <trkpt lat="45.89851" lon="4.97899">
        <ele>280.600006104</ele>
        <time>2016-06-06T09:37:08.853Z</time>
      </trkpt>
      <trkpt lat="45.89856" lon="4.97902">
        <ele>280.700012207</ele>
        <time>2016-06-06T09:37:09.691Z</time>
      </trkpt>
      <trkpt lat="45.89862" lon="4.97905">
        <ele>280.700012207</ele>
        <time>2016-06-06T09:37:10.708Z</time>
      </trkpt>
      <trkpt lat="45.89867" lon="4.97908">
        <ele>280.5</ele>
        <time>2016-06-06T09:37:11.688Z</time>
      </trkpt>
      <trkpt lat="45.89872" lon="4.97912">
        <ele>280.5</ele>
        <time>2016-06-06T09:37:12.708Z</time>
      </trkpt>
      <trkpt lat="45.89878" lon="4.97915">
        <ele>280.5</ele>
        <time>2016-06-06T09:37:13.69Z</time>
      </trkpt>
      <trkpt lat="45.89884" lon="4.97918">
        <ele>280.399993896</ele>
        <time>2016-06-06T09:37:14.712Z</time>
      </trkpt>
      <trkpt lat="45.8989" lon="4.9792">
        <ele>280.600006104</ele>
        <time>2016-06-06T09:37:15.694Z</time>
      </trkpt>
      <trkpt lat="45.89896" lon="4.97923">
        <ele>280.299987793</ele>
        <time>2016-06-06T09:37:16.711Z</time>
      </trkpt>
      <trkpt lat="45.89901" lon="4.97925">
        <ele>280</ele>
        <time>2016-06-06T09:37:17.691Z</time>
      </trkpt>
      <trkpt lat="45.89907" lon="4.97927">
        <ele>280</ele>
        <time>2016-06-06T09:37:18.746Z</time>
      </trkpt>
      <trkpt lat="45.89912" lon="4.97929">
        <ele>279.799987793</ele>
        <time>2016-06-06T09:37:19.69Z</time>
      </trkpt>
      <trkpt lat="45.89916" lon="4.97931">
        <ele>279.700012207</ele>
        <time>2016-06-06T09:37:20.712Z</time>
      </trkpt>
      <trkpt lat="45.89921" lon="4.97932">
        <ele>279.600006104</ele>
        <time>2016-06-06T09:37:21.692Z</time>
      </trkpt>
      <trkpt lat="45.89926" lon="4.97933">
        <ele>279.399993896</ele>
        <time>2016-06-06T09:37:22.708Z</time>
      </trkpt>
      <trkpt lat="45.8993" lon="4.97934">
        <ele>279.299987793</ele>
        <time>2016-06-06T09:37:23.691Z</time>
      </trkpt>
      <trkpt lat="45.89934" lon="4.97936">
        <ele>279.299987793</ele>
        <time>2016-06-06T09:37:24.745Z</time>
      </trkpt>
      <trkpt lat="45.89939" lon="4.97937">
        <ele>279.5</ele>
        <time>2016-06-06T09:37:25.69Z</time>
      </trkpt>
      <trkpt lat="45.89943" lon="4.97938">
        <ele>279.5</ele>
        <time>2016-06-06T09:37:26.709Z</time>
      </trkpt>
      <trkpt lat="45.89948" lon="4.97938">
        <ele>279.600006104</ele>
        <time>2016-06-06T09:37:27.694Z</time>
      </trkpt>
      <trkpt lat="45.89953" lon="4.97938">
        <ele>279.799987793</ele>
        <time>2016-06-06T09:37:28.708Z</time>
      </trkpt>
      <trkpt lat="45.89957" lon="4.97937">
        <ele>279.700012207</ele>
        <time>2016-06-06T09:37:29.687Z</time>
      </trkpt>
      <trkpt lat="45.89966" lon="4.97935">
        <ele>279.600006104</ele>
        <time>2016-06-06T09:37:31.723Z</time>
      </trkpt>
      <trkpt lat="45.8997" lon="4.97934">
        <ele>279.799987793</ele>
        <time>2016-06-06T09:37:32.689Z</time>
      </trkpt>
      <trkpt lat="45.89975" lon="4.97933">
        <ele>279.899993896</ele>
        <time>2016-06-06T09:37:33.71Z</time>
      </trkpt>
      <trkpt lat="45.8998" lon="4.97932">
        <ele>279.600006104</ele>
        <time>2016-06-06T09:37:34.686Z</time>
      </trkpt>
      <trkpt lat="45.89985" lon="4.97931">
        <ele>280</ele>
        <time>2016-06-06T09:37:35.709Z</time>
      </trkpt>
      <trkpt lat="45.89991" lon="4.9793">
        <ele>280.100006104</ele>
        <time>2016-06-06T09:37:36.686Z</time>
      </trkpt>
      <trkpt lat="45.89996" lon="4.97928">
        <ele>279.899993896</ele>
        <time>2016-06-06T09:37:37.708Z</time>
      </trkpt>
      <trkpt lat="45.9" lon="4.97926">
        <ele>279.700012207</ele>
        <time>2016-06-06T09:37:38.686Z</time>
      </trkpt>
      <trkpt lat="45.90005" lon="4.97925">
        <ele>280</ele>
        <time>2016-06-06T09:37:39.714Z</time>
      </trkpt>
      <trkpt lat="45.90009" lon="4.97925">
        <ele>279.700012207</ele>
        <time>2016-06-06T09:37:40.686Z</time>
      </trkpt>
      <trkpt lat="45.90014" lon="4.97925">
        <ele>279.299987793</ele>
        <time>2016-06-06T09:37:41.726Z</time>
      </trkpt>
      <trkpt lat="45.90019" lon="4.97923">
        <ele>278.700012207</ele>
        <time>2016-06-06T09:37:42.686Z</time>
      </trkpt>
      <trkpt lat="45.90024" lon="4.97924">
        <ele>278.299987793</ele>
        <time>2016-06-06T09:37:43.736Z</time>
      </trkpt>
      <trkpt lat="45.90028" lon="4.97926">
        <ele>279.200012207</ele>
        <time>2016-06-06T09:37:44.69Z</time>
      </trkpt>
      <trkpt lat="45.90033" lon="4.97936">
        <ele>279.600006104</ele>
        <time>2016-06-06T09:37:46.711Z</time>
      </trkpt>
      <trkpt lat="45.90033" lon="4.97943">
        <ele>280.100006104</ele>
        <time>2016-06-06T09:37:47.711Z</time>
      </trkpt>
      <trkpt lat="45.90033" lon="4.97951">
        <ele>280.299987793</ele>
        <time>2016-06-06T09:37:48.711Z</time>
      </trkpt>
      <trkpt lat="45.90034" lon="4.97958">
        <ele>280.299987793</ele>
        <time>2016-06-06T09:37:49.689Z</time>
      </trkpt>
      <trkpt lat="45.90036" lon="4.9797">
        <ele>280.899993896</ele>
        <time>2016-06-06T09:37:51.745Z</time>
      </trkpt>
      <trkpt lat="45.90036" lon="4.97976">
        <ele>281</ele>
        <time>2016-06-06T09:37:52.686Z</time>
      </trkpt>
      <trkpt lat="45.90037" lon="4.97988">
        <ele>281.5</ele>
        <time>2016-06-06T09:37:54.708Z</time>
      </trkpt>
      <trkpt lat="45.90038" lon="4.97994">
        <ele>281.5</ele>
        <time>2016-06-06T09:37:55.686Z</time>
      </trkpt>
      <trkpt lat="45.90038" lon="4.98">
        <ele>282.200012207</ele>
        <time>2016-06-06T09:37:56.709Z</time>
      </trkpt>
      <trkpt lat="45.90039" lon="4.98007">
        <ele>281.5</ele>
        <time>2016-06-06T09:37:57.689Z</time>
      </trkpt>
      <trkpt lat="45.9004" lon="4.98013">
        <ele>281.200012207</ele>
        <time>2016-06-06T09:37:58.708Z</time>
      </trkpt>
      <trkpt lat="45.90041" lon="4.9802">
        <ele>281.200012207</ele>
        <time>2016-06-06T09:37:59.691Z</time>
      </trkpt>
      <trkpt lat="45.90042" lon="4.98027">
        <ele>281.5</ele>
        <time>2016-06-06T09:38:00.709Z</time>
      </trkpt>
      <trkpt lat="45.90042" lon="4.98034">
        <ele>281.700012207</ele>
        <time>2016-06-06T09:38:01.686Z</time>
      </trkpt>
      <trkpt lat="45.90043" lon="4.98041">
        <ele>281.799987793</ele>
        <time>2016-06-06T09:38:02.904Z</time>
      </trkpt>
      <trkpt lat="45.90044" lon="4.98047">
        <ele>282.200012207</ele>
        <time>2016-06-06T09:38:03.689Z</time>
      </trkpt>
      <trkpt lat="45.90044" lon="4.98054">
        <ele>282.700012207</ele>
        <time>2016-06-06T09:38:04.708Z</time>
      </trkpt>
      <trkpt lat="45.90045" lon="4.9806">
        <ele>282.799987793</ele>
        <time>2016-06-06T09:38:05.713Z</time>
      </trkpt>
      <trkpt lat="45.90047" lon="4.98073">
        <ele>283.799987793</ele>
        <time>2016-06-06T09:38:07.708Z</time>
      </trkpt>
      <trkpt lat="45.90048" lon="4.98079">
        <ele>284.200012207</ele>
        <time>2016-06-06T09:38:08.703Z</time>
      </trkpt>
      <trkpt lat="45.90048" lon="4.98086">
        <ele>284.799987793</ele>
        <time>2016-06-06T09:38:09.711Z</time>
      </trkpt>
      <trkpt lat="45.90048" lon="4.98093">
        <ele>284.799987793</ele>
        <time>2016-06-06T09:38:10.686Z</time>
      </trkpt>
      <trkpt lat="45.90049" lon="4.981">
        <ele>284.899993896</ele>
        <time>2016-06-06T09:38:11.709Z</time>
      </trkpt>
      <trkpt lat="45.9005" lon="4.98107">
        <ele>285.100006104</ele>
        <time>2016-06-06T09:38:12.686Z</time>
      </trkpt>
      <trkpt lat="45.90051" lon="4.98114">
        <ele>285.299987793</ele>
        <time>2016-06-06T09:38:13.737Z</time>
      </trkpt>
      <trkpt lat="45.90051" lon="4.9812">
        <ele>285.700012207</ele>
        <time>2016-06-06T09:38:14.79Z</time>
      </trkpt>
      <trkpt lat="45.90052" lon="4.98127">
        <ele>286</ele>
        <time>2016-06-06T09:38:15.711Z</time>
      </trkpt>
      <trkpt lat="45.90052" lon="4.98134">
        <ele>286.299987793</ele>
        <time>2016-06-06T09:38:16.687Z</time>
      </trkpt>
      <trkpt lat="45.90052" lon="4.98141">
        <ele>286.299987793</ele>
        <time>2016-06-06T09:38:17.715Z</time>
      </trkpt>
      <trkpt lat="45.90053" lon="4.98148">
        <ele>286.299987793</ele>
        <time>2016-06-06T09:38:18.686Z</time>
      </trkpt>
      <trkpt lat="45.90053" lon="4.98155">
        <ele>286.100006104</ele>
        <time>2016-06-06T09:38:19.708Z</time>
      </trkpt>
      <trkpt lat="45.90054" lon="4.98162">
        <ele>286.100006104</ele>
        <time>2016-06-06T09:38:20.686Z</time>
      </trkpt>
      <trkpt lat="45.90054" lon="4.98169">
        <ele>286.299987793</ele>
        <time>2016-06-06T09:38:21.711Z</time>
      </trkpt>
      <trkpt lat="45.90054" lon="4.98176">
        <ele>286.200012207</ele>
        <time>2016-06-06T09:38:22.686Z</time>
      </trkpt>
      <trkpt lat="45.90055" lon="4.98183">
        <ele>286.299987793</ele>
        <time>2016-06-06T09:38:23.868Z</time>
      </trkpt>
      <trkpt lat="45.90055" lon="4.98189">
        <ele>286.5</ele>
        <time>2016-06-06T09:38:24.686Z</time>
      </trkpt>
      <trkpt lat="45.90056" lon="4.98196">
        <ele>286.5</ele>
        <time>2016-06-06T09:38:25.708Z</time>
      </trkpt>
      <trkpt lat="45.90056" lon="4.98203">
        <ele>286.299987793</ele>
        <time>2016-06-06T09:38:26.687Z</time>
      </trkpt>
      <trkpt lat="45.90057" lon="4.98211">
        <ele>286.399993896</ele>
        <time>2016-06-06T09:38:27.712Z</time>
      </trkpt>
      <trkpt lat="45.90057" lon="4.98218">
        <ele>286.700012207</ele>
        <time>2016-06-06T09:38:28.686Z</time>
      </trkpt>
      <trkpt lat="45.90058" lon="4.98224">
        <ele>286.700012207</ele>
        <time>2016-06-06T09:38:29.709Z</time>
      </trkpt>
      <trkpt lat="45.90059" lon="4.98231">
        <ele>286.700012207</ele>
        <time>2016-06-06T09:38:30.689Z</time>
      </trkpt>
      <trkpt lat="45.90059" lon="4.98238">
        <ele>286.600006104</ele>
        <time>2016-06-06T09:38:31.712Z</time>
      </trkpt>
      <trkpt lat="45.9006" lon="4.98245">
        <ele>286.700012207</ele>
        <time>2016-06-06T09:38:32.686Z</time>
      </trkpt>
      <trkpt lat="45.9006" lon="4.98252">
        <ele>286.899993896</ele>
        <time>2016-06-06T09:38:33.711Z</time>
      </trkpt>
      <trkpt lat="45.90061" lon="4.98259">
        <ele>287</ele>
        <time>2016-06-06T09:38:34.702Z</time>
      </trkpt>
      <trkpt lat="45.90061" lon="4.98266">
        <ele>286.799987793</ele>
        <time>2016-06-06T09:38:35.735Z</time>
      </trkpt>
      <trkpt lat="45.90062" lon="4.98272">
        <ele>287</ele>
        <time>2016-06-06T09:38:36.687Z</time>
      </trkpt>
      <trkpt lat="45.90063" lon="4.98279">
        <ele>287.200012207</ele>
        <time>2016-06-06T09:38:37.711Z</time>
      </trkpt>
      <trkpt lat="45.90063" lon="4.98286">
        <ele>287.299987793</ele>
        <time>2016-06-06T09:38:38.686Z</time>
      </trkpt>
      <trkpt lat="45.90063" lon="4.98293">
        <ele>287.100006104</ele>
        <time>2016-06-06T09:38:39.727Z</time>
      </trkpt>
      <trkpt lat="45.90063" lon="4.98299">
        <ele>287.200012207</ele>
        <time>2016-06-06T09:38:40.686Z</time>
      </trkpt>
      <trkpt lat="45.90064" lon="4.98306">
        <ele>287</ele>
        <time>2016-06-06T09:38:41.74Z</time>
      </trkpt>
      <trkpt lat="45.90064" lon="4.98312">
        <ele>287.100006104</ele>
        <time>2016-06-06T09:38:42.686Z</time>
      </trkpt>
      <trkpt lat="45.90064" lon="4.98319">
        <ele>287</ele>
        <time>2016-06-06T09:38:43.715Z</time>
      </trkpt>
      <trkpt lat="45.90065" lon="4.98325">
        <ele>286.799987793</ele>
        <time>2016-06-06T09:38:44.69Z</time>
      </trkpt>
      <trkpt lat="45.90065" lon="4.98337">
        <ele>286.700012207</ele>
        <time>2016-06-06T09:38:46.736Z</time>
      </trkpt>
      <trkpt lat="45.90066" lon="4.98343">
        <ele>286.5</ele>
        <time>2016-06-06T09:38:47.718Z</time>
      </trkpt>
      <trkpt lat="45.90066" lon="4.98355">
        <ele>286.299987793</ele>
        <time>2016-06-06T09:38:49.708Z</time>
      </trkpt>
      <trkpt lat="45.90066" lon="4.98362">
        <ele>286.5</ele>
        <time>2016-06-06T09:38:50.686Z</time>
      </trkpt>
      <trkpt lat="45.90067" lon="4.98368">
        <ele>286.899993896</ele>
        <time>2016-06-06T09:38:51.715Z</time>
      </trkpt>
      <trkpt lat="45.90068" lon="4.98375">
        <ele>286.899993896</ele>
        <time>2016-06-06T09:38:52.686Z</time>
      </trkpt>
      <trkpt lat="45.90068" lon="4.98381">
        <ele>286.899993896</ele>
        <time>2016-06-06T09:38:53.709Z</time>
      </trkpt>
      <trkpt lat="45.90069" lon="4.98388">
        <ele>286.899993896</ele>
        <time>2016-06-06T09:38:54.697Z</time>
      </trkpt>
      <trkpt lat="45.9007" lon="4.98394">
        <ele>286.700012207</ele>
        <time>2016-06-06T09:38:55.776Z</time>
      </trkpt>
      <trkpt lat="45.90072" lon="4.984">
        <ele>287.100006104</ele>
        <time>2016-06-06T09:38:56.686Z</time>
      </trkpt>
      <trkpt lat="45.90075" lon="4.98412">
        <ele>286.799987793</ele>
        <time>2016-06-06T09:38:58.711Z</time>
      </trkpt>
      <trkpt lat="45.90077" lon="4.98417">
        <ele>287</ele>
        <time>2016-06-06T09:38:59.688Z</time>
      </trkpt>
      <trkpt lat="45.90081" lon="4.98429">
        <ele>287.200012207</ele>
        <time>2016-06-06T09:39:01.722Z</time>
      </trkpt>
      <trkpt lat="45.90083" lon="4.98434">
        <ele>287</ele>
        <time>2016-06-06T09:39:02.689Z</time>
      </trkpt>
      <trkpt lat="45.90086" lon="4.98445">
        <ele>287.200012207</ele>
        <time>2016-06-06T09:39:04.712Z</time>
      </trkpt>
      <trkpt lat="45.90088" lon="4.9845">
        <ele>287.200012207</ele>
        <time>2016-06-06T09:39:05.687Z</time>
      </trkpt>
      <trkpt lat="45.90092" lon="4.98462">
        <ele>287.200012207</ele>
        <time>2016-06-06T09:39:07.708Z</time>
      </trkpt>
      <trkpt lat="45.90094" lon="4.98467">
        <ele>287.200012207</ele>
        <time>2016-06-06T09:39:08.686Z</time>
      </trkpt>
      <trkpt lat="45.90099" lon="4.98478">
        <ele>287.399993896</ele>
        <time>2016-06-06T09:39:10.709Z</time>
      </trkpt>
      <trkpt lat="45.90101" lon="4.98483">
        <ele>287.899993896</ele>
        <time>2016-06-06T09:39:11.718Z</time>
      </trkpt>
      <trkpt lat="45.90103" lon="4.98489">
        <ele>287.700012207</ele>
        <time>2016-06-06T09:39:12.709Z</time>
      </trkpt>
      <trkpt lat="45.90105" lon="4.98496">
        <ele>288</ele>
        <time>2016-06-06T09:39:13.686Z</time>
      </trkpt>
      <trkpt lat="45.90107" lon="4.98502">
        <ele>288.299987793</ele>
        <time>2016-06-06T09:39:14.71Z</time>
      </trkpt>
      <trkpt lat="45.90109" lon="4.98508">
        <ele>288.200012207</ele>
        <time>2016-06-06T09:39:15.77Z</time>
      </trkpt>
      <trkpt lat="45.90112" lon="4.98515">
        <ele>288.600006104</ele>
        <time>2016-06-06T09:39:16.717Z</time>
      </trkpt>
      <trkpt lat="45.90114" lon="4.98521">
        <ele>288.600006104</ele>
        <time>2016-06-06T09:39:17.696Z</time>
      </trkpt>
      <trkpt lat="45.90116" lon="4.98528">
        <ele>288.600006104</ele>
        <time>2016-06-06T09:39:18.719Z</time>
      </trkpt>
      <trkpt lat="45.90118" lon="4.98534">
        <ele>288.899993896</ele>
        <time>2016-06-06T09:39:19.699Z</time>
      </trkpt>
      <trkpt lat="45.9012" lon="4.98541">
        <ele>289.100006104</ele>
        <time>2016-06-06T09:39:20.76Z</time>
      </trkpt>
      <trkpt lat="45.90122" lon="4.98547">
        <ele>289.299987793</ele>
        <time>2016-06-06T09:39:21.746Z</time>
      </trkpt>
      <trkpt lat="45.90125" lon="4.98553">
        <ele>289.299987793</ele>
        <time>2016-06-06T09:39:22.734Z</time>
      </trkpt>
      <trkpt lat="45.90127" lon="4.98559">
        <ele>289.100006104</ele>
        <time>2016-06-06T09:39:23.69Z</time>
      </trkpt>
      <trkpt lat="45.90129" lon="4.98565">
        <ele>289</ele>
        <time>2016-06-06T09:39:24.713Z</time>
      </trkpt>
      <trkpt lat="45.90131" lon="4.98571">
        <ele>289.100006104</ele>
        <time>2016-06-06T09:39:25.693Z</time>
      </trkpt>
      <trkpt lat="45.90133" lon="4.98577">
        <ele>289.100006104</ele>
        <time>2016-06-06T09:39:26.73Z</time>
      </trkpt>
      <trkpt lat="45.90136" lon="4.98584">
        <ele>289.100006104</ele>
        <time>2016-06-06T09:39:27.695Z</time>
      </trkpt>
      <trkpt lat="45.90138" lon="4.9859">
        <ele>289.100006104</ele>
        <time>2016-06-06T09:39:28.714Z</time>
      </trkpt>
      <trkpt lat="45.9014" lon="4.98597">
        <ele>288.899993896</ele>
        <time>2016-06-06T09:39:29.696Z</time>
      </trkpt>
      <trkpt lat="45.90143" lon="4.98604">
        <ele>288.600006104</ele>
        <time>2016-06-06T09:39:30.713Z</time>
      </trkpt>
      <trkpt lat="45.90145" lon="4.9861">
        <ele>288.5</ele>
        <time>2016-06-06T09:39:31.693Z</time>
      </trkpt>
      <trkpt lat="45.90148" lon="4.98617">
        <ele>288.200012207</ele>
        <time>2016-06-06T09:39:32.716Z</time>
      </trkpt>
      <trkpt lat="45.9015" lon="4.98623">
        <ele>288.100006104</ele>
        <time>2016-06-06T09:39:33.698Z</time>
      </trkpt>
      <trkpt lat="45.90152" lon="4.98629">
        <ele>287.700012207</ele>
        <time>2016-06-06T09:39:34.712Z</time>
      </trkpt>
      <trkpt lat="45.90153" lon="4.98635">
        <ele>287.399993896</ele>
        <time>2016-06-06T09:39:35.693Z</time>
      </trkpt>
      <trkpt lat="45.90156" lon="4.98641">
        <ele>287.299987793</ele>
        <time>2016-06-06T09:39:36.716Z</time>
      </trkpt>
      <trkpt lat="45.90158" lon="4.98646">
        <ele>287.200012207</ele>
        <time>2016-06-06T09:39:37.689Z</time>
      </trkpt>
      <trkpt lat="45.90162" lon="4.98657">
        <ele>287</ele>
        <time>2016-06-06T09:39:39.718Z</time>
      </trkpt>
      <trkpt lat="45.90164" lon="4.98663">
        <ele>287</ele>
        <time>2016-06-06T09:39:40.692Z</time>
      </trkpt>
      <trkpt lat="45.90166" lon="4.9867">
        <ele>287.200012207</ele>
        <time>2016-06-06T09:39:41.712Z</time>
      </trkpt>
      <trkpt lat="45.90168" lon="4.98676">
        <ele>287.200012207</ele>
        <time>2016-06-06T09:39:42.705Z</time>
      </trkpt>
      <trkpt lat="45.9017" lon="4.98682">
        <ele>287.200012207</ele>
        <time>2016-06-06T09:39:43.711Z</time>
      </trkpt>
      <trkpt lat="45.90173" lon="4.98689">
        <ele>287.299987793</ele>
        <time>2016-06-06T09:39:44.692Z</time>
      </trkpt>
      <trkpt lat="45.90175" lon="4.98695">
        <ele>287.399993896</ele>
        <time>2016-06-06T09:39:45.715Z</time>
      </trkpt>
      <trkpt lat="45.90177" lon="4.98702">
        <ele>287.399993896</ele>
        <time>2016-06-06T09:39:46.693Z</time>
      </trkpt>
      <trkpt lat="45.9018" lon="4.9871">
        <ele>287.399993896</ele>
        <time>2016-06-06T09:39:47.731Z</time>
      </trkpt>
      <trkpt lat="45.90182" lon="4.98717">
        <ele>287.399993896</ele>
        <time>2016-06-06T09:39:48.688Z</time>
      </trkpt>
      <trkpt lat="45.90184" lon="4.98724">
        <ele>287.5</ele>
        <time>2016-06-06T09:39:49.726Z</time>
      </trkpt>
      <trkpt lat="45.90186" lon="4.98731">
        <ele>287.399993896</ele>
        <time>2016-06-06T09:39:50.688Z</time>
      </trkpt>
      <trkpt lat="45.90188" lon="4.98739">
        <ele>287.299987793</ele>
        <time>2016-06-06T09:39:51.717Z</time>
      </trkpt>
      <trkpt lat="45.90191" lon="4.98746">
        <ele>287.399993896</ele>
        <time>2016-06-06T09:39:52.692Z</time>
      </trkpt>
      <trkpt lat="45.90193" lon="4.98753">
        <ele>287.5</ele>
        <time>2016-06-06T09:39:53.713Z</time>
      </trkpt>
      <trkpt lat="45.90196" lon="4.98759">
        <ele>287.5</ele>
        <time>2016-06-06T09:39:54.687Z</time>
      </trkpt>
      <trkpt lat="45.90197" lon="4.98766">
        <ele>287.100006104</ele>
        <time>2016-06-06T09:39:55.711Z</time>
      </trkpt>
      <trkpt lat="45.902" lon="4.98773">
        <ele>287.200012207</ele>
        <time>2016-06-06T09:39:56.689Z</time>
      </trkpt>
      <trkpt lat="45.90201" lon="4.98779">
        <ele>287</ele>
        <time>2016-06-06T09:39:57.715Z</time>
      </trkpt>
      <trkpt lat="45.90203" lon="4.98786">
        <ele>286.899993896</ele>
        <time>2016-06-06T09:39:58.687Z</time>
      </trkpt>
      <trkpt lat="45.90205" lon="4.98793">
        <ele>286.5</ele>
        <time>2016-06-06T09:39:59.748Z</time>
      </trkpt>
      <trkpt lat="45.90207" lon="4.98801">
        <ele>286</ele>
        <time>2016-06-06T09:40:00.688Z</time>
      </trkpt>
      <trkpt lat="45.90209" lon="4.98808">
        <ele>285.399993896</ele>
        <time>2016-06-06T09:40:01.745Z</time>
      </trkpt>
      <trkpt lat="45.90211" lon="4.98815">
        <ele>285.200012207</ele>
        <time>2016-06-06T09:40:02.69Z</time>
      </trkpt>
      <trkpt lat="45.90213" lon="4.98822">
        <ele>285.100006104</ele>
        <time>2016-06-06T09:40:03.735Z</time>
      </trkpt>
      <trkpt lat="45.90214" lon="4.9883">
        <ele>285.100006104</ele>
        <time>2016-06-06T09:40:04.688Z</time>
      </trkpt>
      <trkpt lat="45.90216" lon="4.98837">
        <ele>285</ele>
        <time>2016-06-06T09:40:05.838Z</time>
      </trkpt>
      <trkpt lat="45.90217" lon="4.98844">
        <ele>285</ele>
        <time>2016-06-06T09:40:06.691Z</time>
      </trkpt>
      <trkpt lat="45.90219" lon="4.98852">
        <ele>285.299987793</ele>
        <time>2016-06-06T09:40:07.711Z</time>
      </trkpt>
      <trkpt lat="45.9022" lon="4.9886">
        <ele>285.299987793</ele>
        <time>2016-06-06T09:40:08.688Z</time>
      </trkpt>
      <trkpt lat="45.90221" lon="4.98868">
        <ele>285.399993896</ele>
        <time>2016-06-06T09:40:09.717Z</time>
      </trkpt>
      <trkpt lat="45.90221" lon="4.98876">
        <ele>285.100006104</ele>
        <time>2016-06-06T09:40:10.689Z</time>
      </trkpt>
      <trkpt lat="45.90222" lon="4.98884">
        <ele>284.5</ele>
        <time>2016-06-06T09:40:11.712Z</time>
      </trkpt>
      <trkpt lat="45.90222" lon="4.98893">
        <ele>284.299987793</ele>
        <time>2016-06-06T09:40:12.688Z</time>
      </trkpt>
      <trkpt lat="45.90222" lon="4.98902">
        <ele>284.100006104</ele>
        <time>2016-06-06T09:40:13.711Z</time>
      </trkpt>
      <trkpt lat="45.90223" lon="4.98911">
        <ele>283.799987793</ele>
        <time>2016-06-06T09:40:14.688Z</time>
      </trkpt>
      <trkpt lat="45.90223" lon="4.9892">
        <ele>283.600006104</ele>
        <time>2016-06-06T09:40:15.715Z</time>
      </trkpt>
      <trkpt lat="45.90224" lon="4.98929">
        <ele>283.5</ele>
        <time>2016-06-06T09:40:16.692Z</time>
      </trkpt>
      <trkpt lat="45.90224" lon="4.98937">
        <ele>283.5</ele>
        <time>2016-06-06T09:40:17.711Z</time>
      </trkpt>
      <trkpt lat="45.90224" lon="4.98946">
        <ele>283.5</ele>
        <time>2016-06-06T09:40:18.681Z</time>
      </trkpt>
      <trkpt lat="45.90225" lon="4.98954">
        <ele>283.399993896</ele>
        <time>2016-06-06T09:40:19.726Z</time>
      </trkpt>
      <trkpt lat="45.90225" lon="4.98962">
        <ele>283.399993896</ele>
        <time>2016-06-06T09:40:20.688Z</time>
      </trkpt>
      <trkpt lat="45.90225" lon="4.9897">
        <ele>283.5</ele>
        <time>2016-06-06T09:40:21.738Z</time>
      </trkpt>
      <trkpt lat="45.90226" lon="4.98977">
        <ele>283.5</ele>
        <time>2016-06-06T09:40:22.691Z</time>
      </trkpt>
      <trkpt lat="45.90226" lon="4.98984">
        <ele>283.5</ele>
        <time>2016-06-06T09:40:23.711Z</time>
      </trkpt>
      <trkpt lat="45.90226" lon="4.98991">
        <ele>283.299987793</ele>
        <time>2016-06-06T09:40:24.691Z</time>
      </trkpt>
      <trkpt lat="45.90226" lon="4.98999">
        <ele>283.299987793</ele>
        <time>2016-06-06T09:40:25.71Z</time>
      </trkpt>
      <trkpt lat="45.90226" lon="4.99006">
        <ele>283.299987793</ele>
        <time>2016-06-06T09:40:26.689Z</time>
      </trkpt>
      <trkpt lat="45.90227" lon="4.99014">
        <ele>283.399993896</ele>
        <time>2016-06-06T09:40:27.765Z</time>
      </trkpt>
      <trkpt lat="45.90227" lon="4.99021">
        <ele>283.299987793</ele>
        <time>2016-06-06T09:40:28.691Z</time>
      </trkpt>
      <trkpt lat="45.90227" lon="4.99029">
        <ele>283.299987793</ele>
        <time>2016-06-06T09:40:29.747Z</time>
      </trkpt>
      <trkpt lat="45.90227" lon="4.99036">
        <ele>283.200012207</ele>
        <time>2016-06-06T09:40:30.688Z</time>
      </trkpt>
      <trkpt lat="45.90228" lon="4.99044">
        <ele>283.100006104</ele>
        <time>2016-06-06T09:40:31.712Z</time>
      </trkpt>
      <trkpt lat="45.90228" lon="4.99051">
        <ele>283</ele>
        <time>2016-06-06T09:40:32.691Z</time>
      </trkpt>
      <trkpt lat="45.90229" lon="4.99058">
        <ele>283.299987793</ele>
        <time>2016-06-06T09:40:33.714Z</time>
      </trkpt>
      <trkpt lat="45.90229" lon="4.99066">
        <ele>283.100006104</ele>
        <time>2016-06-06T09:40:34.688Z</time>
      </trkpt>
      <trkpt lat="45.90229" lon="4.99073">
        <ele>283.299987793</ele>
        <time>2016-06-06T09:40:35.712Z</time>
      </trkpt>
      <trkpt lat="45.90229" lon="4.9908">
        <ele>283.299987793</ele>
        <time>2016-06-06T09:40:36.694Z</time>
      </trkpt>
      <trkpt lat="45.90229" lon="4.99087">
        <ele>283.600006104</ele>
        <time>2016-06-06T09:40:37.714Z</time>
      </trkpt>
      <trkpt lat="45.90229" lon="4.99093">
        <ele>283.799987793</ele>
        <time>2016-06-06T09:40:38.688Z</time>
      </trkpt>
      <trkpt lat="45.90229" lon="4.991">
        <ele>283.899993896</ele>
        <time>2016-06-06T09:40:39.713Z</time>
      </trkpt>
      <trkpt lat="45.9023" lon="4.99107">
        <ele>283.899993896</ele>
        <time>2016-06-06T09:40:40.688Z</time>
      </trkpt>
      <trkpt lat="45.9023" lon="4.99114">
        <ele>284</ele>
        <time>2016-06-06T09:40:41.711Z</time>
      </trkpt>
      <trkpt lat="45.9023" lon="4.99122">
        <ele>284.299987793</ele>
        <time>2016-06-06T09:40:42.737Z</time>
      </trkpt>
      <trkpt lat="45.9023" lon="4.99129">
        <ele>284.399993896</ele>
        <time>2016-06-06T09:40:43.709Z</time>
      </trkpt>
      <trkpt lat="45.9023" lon="4.99136">
        <ele>284.600006104</ele>
        <time>2016-06-06T09:40:44.691Z</time>
      </trkpt>
      <trkpt lat="45.90231" lon="4.99144">
        <ele>284.5</ele>
        <time>2016-06-06T09:40:45.731Z</time>
      </trkpt>
      <trkpt lat="45.90231" lon="4.99151">
        <ele>284.799987793</ele>
        <time>2016-06-06T09:40:46.69Z</time>
      </trkpt>
      <trkpt lat="45.90232" lon="4.99158">
        <ele>285</ele>
        <time>2016-06-06T09:40:47.711Z</time>
      </trkpt>
      <trkpt lat="45.90232" lon="4.99166">
        <ele>285.100006104</ele>
        <time>2016-06-06T09:40:48.688Z</time>
      </trkpt>
      <trkpt lat="45.90233" lon="4.99173">
        <ele>285.399993896</ele>
        <time>2016-06-06T09:40:49.714Z</time>
      </trkpt>
      <trkpt lat="45.90233" lon="4.9918">
        <ele>285.5</ele>
        <time>2016-06-06T09:40:50.691Z</time>
      </trkpt>
      <trkpt lat="45.90233" lon="4.99187">
        <ele>285.600006104</ele>
        <time>2016-06-06T09:40:51.716Z</time>
      </trkpt>
      <trkpt lat="45.90233" lon="4.99195">
        <ele>285.700012207</ele>
        <time>2016-06-06T09:40:52.688Z</time>
      </trkpt>
      <trkpt lat="45.90233" lon="4.99203">
        <ele>286</ele>
        <time>2016-06-06T09:40:53.714Z</time>
      </trkpt>
      <trkpt lat="45.90233" lon="4.9921">
        <ele>286.299987793</ele>
        <time>2016-06-06T09:40:54.688Z</time>
      </trkpt>
      <trkpt lat="45.90233" lon="4.99218">
        <ele>286.5</ele>
        <time>2016-06-06T09:40:55.71Z</time>
      </trkpt>
      <trkpt lat="45.90234" lon="4.99226">
        <ele>286.399993896</ele>
        <time>2016-06-06T09:40:56.69Z</time>
      </trkpt>
      <trkpt lat="45.90235" lon="4.99233">
        <ele>286.700012207</ele>
        <time>2016-06-06T09:40:57.753Z</time>
      </trkpt>
      <trkpt lat="45.90235" lon="4.9924">
        <ele>287.100006104</ele>
        <time>2016-06-06T09:40:58.687Z</time>
      </trkpt>
      <trkpt lat="45.90235" lon="4.99247">
        <ele>287.100006104</ele>
        <time>2016-06-06T09:40:59.714Z</time>
      </trkpt>
      <trkpt lat="45.90235" lon="4.99253">
        <ele>287.399993896</ele>
        <time>2016-06-06T09:41:00.692Z</time>
      </trkpt>
      <trkpt lat="45.90235" lon="4.9926">
        <ele>287.5</ele>
        <time>2016-06-06T09:41:01.714Z</time>
      </trkpt>
      <trkpt lat="45.90235" lon="4.99267">
        <ele>287.5</ele>
        <time>2016-06-06T09:41:02.691Z</time>
      </trkpt>
      <trkpt lat="45.90235" lon="4.99274">
        <ele>287.399993896</ele>
        <time>2016-06-06T09:41:03.73Z</time>
      </trkpt>
      <trkpt lat="45.90235" lon="4.99282">
        <ele>287.899993896</ele>
        <time>2016-06-06T09:41:04.692Z</time>
      </trkpt>
      <trkpt lat="45.90235" lon="4.99289">
        <ele>287.899993896</ele>
        <time>2016-06-06T09:41:05.715Z</time>
      </trkpt>
      <trkpt lat="45.90235" lon="4.99297">
        <ele>288.100006104</ele>
        <time>2016-06-06T09:41:06.723Z</time>
      </trkpt>
      <trkpt lat="45.90235" lon="4.99304">
        <ele>288</ele>
        <time>2016-06-06T09:41:07.714Z</time>
      </trkpt>
      <trkpt lat="45.90234" lon="4.99311">
        <ele>288</ele>
        <time>2016-06-06T09:41:08.691Z</time>
      </trkpt>
      <trkpt lat="45.90234" lon="4.99323">
        <ele>288.5</ele>
        <time>2016-06-06T09:41:10.711Z</time>
      </trkpt>
      <trkpt lat="45.90234" lon="4.99329">
        <ele>288.399993896</ele>
        <time>2016-06-06T09:41:11.689Z</time>
      </trkpt>
      <trkpt lat="45.90234" lon="4.99341">
        <ele>288.5</ele>
        <time>2016-06-06T09:41:13.723Z</time>
      </trkpt>
      <trkpt lat="45.90234" lon="4.99347">
        <ele>288.5</ele>
        <time>2016-06-06T09:41:14.691Z</time>
      </trkpt>
      <trkpt lat="45.90234" lon="4.9936">
        <ele>288.5</ele>
        <time>2016-06-06T09:41:16.748Z</time>
      </trkpt>
      <trkpt lat="45.90233" lon="4.99366">
        <ele>288.600006104</ele>
        <time>2016-06-06T09:41:17.689Z</time>
      </trkpt>
      <trkpt lat="45.90233" lon="4.99379">
        <ele>288.799987793</ele>
        <time>2016-06-06T09:41:19.718Z</time>
      </trkpt>
      <trkpt lat="45.90232" lon="4.99386">
        <ele>288.799987793</ele>
        <time>2016-06-06T09:41:20.691Z</time>
      </trkpt>
      <trkpt lat="45.90231" lon="4.99392">
        <ele>288.799987793</ele>
        <time>2016-06-06T09:41:21.717Z</time>
      </trkpt>
      <trkpt lat="45.90231" lon="4.99399">
        <ele>288.899993896</ele>
        <time>2016-06-06T09:41:22.708Z</time>
      </trkpt>
      <trkpt lat="45.90231" lon="4.99406">
        <ele>288.899993896</ele>
        <time>2016-06-06T09:41:23.874Z</time>
      </trkpt>
      <trkpt lat="45.90231" lon="4.99412">
        <ele>289</ele>
        <time>2016-06-06T09:41:24.687Z</time>
      </trkpt>
      <trkpt lat="45.9023" lon="4.99423">
        <ele>289.100006104</ele>
        <time>2016-06-06T09:41:26.713Z</time>
      </trkpt>
      <trkpt lat="45.9023" lon="4.99429">
        <ele>289</ele>
        <time>2016-06-06T09:41:27.691Z</time>
      </trkpt>
      <trkpt lat="45.90229" lon="4.99442">
        <ele>288.299987793</ele>
        <time>2016-06-06T09:41:29.712Z</time>
      </trkpt>
      <trkpt lat="45.90228" lon="4.99448">
        <ele>288.299987793</ele>
        <time>2016-06-06T09:41:30.688Z</time>
      </trkpt>
      <trkpt lat="45.90227" lon="4.9946">
        <ele>288.299987793</ele>
        <time>2016-06-06T09:41:32.709Z</time>
      </trkpt>
      <trkpt lat="45.90226" lon="4.99466">
        <ele>288.200012207</ele>
        <time>2016-06-06T09:41:33.692Z</time>
      </trkpt>
      <trkpt lat="45.90224" lon="4.99478">
        <ele>288.100006104</ele>
        <time>2016-06-06T09:41:35.714Z</time>
      </trkpt>
      <trkpt lat="45.90223" lon="4.99483">
        <ele>288.5</ele>
        <time>2016-06-06T09:41:36.69Z</time>
      </trkpt>
      <trkpt lat="45.9022" lon="4.99495">
        <ele>288.799987793</ele>
        <time>2016-06-06T09:41:38.728Z</time>
      </trkpt>
      <trkpt lat="45.90219" lon="4.995">
        <ele>289.200012207</ele>
        <time>2016-06-06T09:41:39.694Z</time>
      </trkpt>
      <trkpt lat="45.90217" lon="4.99511">
        <ele>289.799987793</ele>
        <time>2016-06-06T09:41:41.711Z</time>
      </trkpt>
      <trkpt lat="45.90216" lon="4.99517">
        <ele>290</ele>
        <time>2016-06-06T09:41:42.69Z</time>
      </trkpt>
      <trkpt lat="45.90214" lon="4.99527">
        <ele>289.899993896</ele>
        <time>2016-06-06T09:41:44.712Z</time>
      </trkpt>
      <trkpt lat="45.90213" lon="4.99533">
        <ele>290</ele>
        <time>2016-06-06T09:41:45.696Z</time>
      </trkpt>
      <trkpt lat="45.90211" lon="4.99543">
        <ele>290.100006104</ele>
        <time>2016-06-06T09:41:47.714Z</time>
      </trkpt>
      <trkpt lat="45.9021" lon="4.99549">
        <ele>290.299987793</ele>
        <time>2016-06-06T09:41:48.69Z</time>
      </trkpt>
      <trkpt lat="45.90209" lon="4.99561">
        <ele>290.799987793</ele>
        <time>2016-06-06T09:41:50.713Z</time>
      </trkpt>
      <trkpt lat="45.90209" lon="4.99567">
        <ele>290.899993896</ele>
        <time>2016-06-06T09:41:51.7Z</time>
      </trkpt>
      <trkpt lat="45.90208" lon="4.99577">
        <ele>291.5</ele>
        <time>2016-06-06T09:41:53.714Z</time>
      </trkpt>
      <trkpt lat="45.90207" lon="4.99583">
        <ele>291.5</ele>
        <time>2016-06-06T09:41:54.688Z</time>
      </trkpt>
      <trkpt lat="45.90207" lon="4.99594">
        <ele>291.700012207</ele>
        <time>2016-06-06T09:41:56.714Z</time>
      </trkpt>
      <trkpt lat="45.90207" lon="4.996">
        <ele>291.799987793</ele>
        <time>2016-06-06T09:41:57.692Z</time>
      </trkpt>
      <trkpt lat="45.90207" lon="4.99607">
        <ele>291</ele>
        <time>2016-06-06T09:41:58.713Z</time>
      </trkpt>
      <trkpt lat="45.90208" lon="4.99614">
        <ele>290.799987793</ele>
        <time>2016-06-06T09:41:59.71Z</time>
      </trkpt>
      <trkpt lat="45.90208" lon="4.9962">
        <ele>291.100006104</ele>
        <time>2016-06-06T09:42:00.715Z</time>
      </trkpt>
      <trkpt lat="45.90209" lon="4.99627">
        <ele>290.899993896</ele>
        <time>2016-06-06T09:42:01.691Z</time>
      </trkpt>
      <trkpt lat="45.90212" lon="4.99638">
        <ele>291.200012207</ele>
        <time>2016-06-06T09:42:03.717Z</time>
      </trkpt>
      <trkpt lat="45.90213" lon="4.99644">
        <ele>291.100006104</ele>
        <time>2016-06-06T09:42:04.69Z</time>
      </trkpt>
      <trkpt lat="45.90216" lon="4.99655">
        <ele>291.299987793</ele>
        <time>2016-06-06T09:42:06.716Z</time>
      </trkpt>
      <trkpt lat="45.90217" lon="4.99661">
        <ele>291.399993896</ele>
        <time>2016-06-06T09:42:07.689Z</time>
      </trkpt>
      <trkpt lat="45.90218" lon="4.99668">
        <ele>291.600006104</ele>
        <time>2016-06-06T09:42:08.712Z</time>
      </trkpt>
      <trkpt lat="45.9022" lon="4.99674">
        <ele>291.899993896</ele>
        <time>2016-06-06T09:42:09.692Z</time>
      </trkpt>
      <trkpt lat="45.90221" lon="4.99681">
        <ele>292.299987793</ele>
        <time>2016-06-06T09:42:10.712Z</time>
      </trkpt>
      <trkpt lat="45.90222" lon="4.99687">
        <ele>292.200012207</ele>
        <time>2016-06-06T09:42:11.691Z</time>
      </trkpt>
      <trkpt lat="45.90223" lon="4.99693">
        <ele>292.200012207</ele>
        <time>2016-06-06T09:42:12.714Z</time>
      </trkpt>
      <trkpt lat="45.90224" lon="4.997">
        <ele>292</ele>
        <time>2016-06-06T09:42:13.687Z</time>
      </trkpt>
      <trkpt lat="45.90225" lon="4.99707">
        <ele>291.799987793</ele>
        <time>2016-06-06T09:42:14.714Z</time>
      </trkpt>
      <trkpt lat="45.90226" lon="4.99715">
        <ele>291.899993896</ele>
        <time>2016-06-06T09:42:15.711Z</time>
      </trkpt>
      <trkpt lat="45.90226" lon="4.99723">
        <ele>292.100006104</ele>
        <time>2016-06-06T09:42:16.712Z</time>
      </trkpt>
      <trkpt lat="45.90227" lon="4.9973">
        <ele>292.100006104</ele>
        <time>2016-06-06T09:42:17.692Z</time>
      </trkpt>
      <trkpt lat="45.90228" lon="4.99737">
        <ele>292</ele>
        <time>2016-06-06T09:42:18.712Z</time>
      </trkpt>
      <trkpt lat="45.90229" lon="4.99743">
        <ele>292.899993896</ele>
        <time>2016-06-06T09:42:19.687Z</time>
      </trkpt>
      <trkpt lat="45.9023" lon="4.9975">
        <ele>293.5</ele>
        <time>2016-06-06T09:42:20.714Z</time>
      </trkpt>
      <trkpt lat="45.90231" lon="4.99758">
        <ele>293.700012207</ele>
        <time>2016-06-06T09:42:21.691Z</time>
      </trkpt>
      <trkpt lat="45.90232" lon="4.99765">
        <ele>293.700012207</ele>
        <time>2016-06-06T09:42:22.709Z</time>
      </trkpt>
      <trkpt lat="45.90233" lon="4.99772">
        <ele>293.399993896</ele>
        <time>2016-06-06T09:42:23.691Z</time>
      </trkpt>
      <trkpt lat="45.90234" lon="4.99779">
        <ele>293.799987793</ele>
        <time>2016-06-06T09:42:24.709Z</time>
      </trkpt>
      <trkpt lat="45.90234" lon="4.99785">
        <ele>293.700012207</ele>
        <time>2016-06-06T09:42:25.687Z</time>
      </trkpt>
      <trkpt lat="45.90235" lon="4.99792">
        <ele>293.899993896</ele>
        <time>2016-06-06T09:42:26.716Z</time>
      </trkpt>
      <trkpt lat="45.90236" lon="4.998">
        <ele>293.899993896</ele>
        <time>2016-06-06T09:42:27.693Z</time>
      </trkpt>
      <trkpt lat="45.90237" lon="4.99807">
        <ele>293.899993896</ele>
        <time>2016-06-06T09:42:28.712Z</time>
      </trkpt>
      <trkpt lat="45.90238" lon="4.99814">
        <ele>293.899993896</ele>
        <time>2016-06-06T09:42:29.691Z</time>
      </trkpt>
      <trkpt lat="45.90238" lon="4.99821">
        <ele>293.799987793</ele>
        <time>2016-06-06T09:42:30.864Z</time>
      </trkpt>
      <trkpt lat="45.90239" lon="4.99828">
        <ele>294</ele>
        <time>2016-06-06T09:42:31.687Z</time>
      </trkpt>
      <trkpt lat="45.90239" lon="4.99836">
        <ele>294</ele>
        <time>2016-06-06T09:42:32.713Z</time>
      </trkpt>
      <trkpt lat="45.9024" lon="4.99843">
        <ele>294.100006104</ele>
        <time>2016-06-06T09:42:33.693Z</time>
      </trkpt>
      <trkpt lat="45.90241" lon="4.9985">
        <ele>294.100006104</ele>
        <time>2016-06-06T09:42:34.78Z</time>
      </trkpt>
      <trkpt lat="45.90243" lon="4.99858">
        <ele>294.200012207</ele>
        <time>2016-06-06T09:42:35.692Z</time>
      </trkpt>
      <trkpt lat="45.90246" lon="4.99865">
        <ele>294.100006104</ele>
        <time>2016-06-06T09:42:36.726Z</time>
      </trkpt>
      <trkpt lat="45.90249" lon="4.99872">
        <ele>293.700012207</ele>
        <time>2016-06-06T09:42:37.692Z</time>
      </trkpt>
      <trkpt lat="45.90253" lon="4.99878">
        <ele>293.799987793</ele>
        <time>2016-06-06T09:42:38.713Z</time>
      </trkpt>
      <trkpt lat="45.90256" lon="4.99886">
        <ele>293.799987793</ele>
        <time>2016-06-06T09:42:39.692Z</time>
      </trkpt>
      <trkpt lat="45.90258" lon="4.99895">
        <ele>293.799987793</ele>
        <time>2016-06-06T09:42:40.709Z</time>
      </trkpt>
      <trkpt lat="45.90259" lon="4.99905">
        <ele>293.899993896</ele>
        <time>2016-06-06T09:42:41.692Z</time>
      </trkpt>
      <trkpt lat="45.90258" lon="4.99914">
        <ele>294.100006104</ele>
        <time>2016-06-06T09:42:42.71Z</time>
      </trkpt>
      <trkpt lat="45.90257" lon="4.99924">
        <ele>293.899993896</ele>
        <time>2016-06-06T09:42:43.687Z</time>
      </trkpt>
      <trkpt lat="45.90256" lon="4.99933">
        <ele>293.600006104</ele>
        <time>2016-06-06T09:42:44.713Z</time>
      </trkpt>
      <trkpt lat="45.90255" lon="4.99941">
        <ele>293.600006104</ele>
        <time>2016-06-06T09:42:45.693Z</time>
      </trkpt>
      <trkpt lat="45.90254" lon="4.9995">
        <ele>293.399993896</ele>
        <time>2016-06-06T09:42:46.732Z</time>
      </trkpt>
      <trkpt lat="45.90253" lon="4.9996">
        <ele>293.200012207</ele>
        <time>2016-06-06T09:42:47.692Z</time>
      </trkpt>
      <trkpt lat="45.90252" lon="4.99969">
        <ele>293</ele>
        <time>2016-06-06T09:42:48.709Z</time>
      </trkpt>
      <trkpt lat="45.90251" lon="4.99978">
        <ele>292.799987793</ele>
        <time>2016-06-06T09:42:49.691Z</time>
      </trkpt>
      <trkpt lat="45.9025" lon="4.99987">
        <ele>292.600006104</ele>
        <time>2016-06-06T09:42:50.738Z</time>
      </trkpt>
      <trkpt lat="45.9025" lon="4.99996">
        <ele>292.5</ele>
        <time>2016-06-06T09:42:51.692Z</time>
      </trkpt>
      <trkpt lat="45.90249" lon="5.00006">
        <ele>292.299987793</ele>
        <time>2016-06-06T09:42:52.742Z</time>
      </trkpt>
      <trkpt lat="45.90248" lon="5.00015">
        <ele>292.200012207</ele>
        <time>2016-06-06T09:42:53.688Z</time>
      </trkpt>
      <trkpt lat="45.90248" lon="5.00026">
        <ele>291.299987793</ele>
        <time>2016-06-06T09:42:54.711Z</time>
      </trkpt>
      <trkpt lat="45.90247" lon="5.00036">
        <ele>290.799987793</ele>
        <time>2016-06-06T09:42:55.69Z</time>
      </trkpt>
      <trkpt lat="45.90246" lon="5.00046">
        <ele>290.299987793</ele>
        <time>2016-06-06T09:42:56.713Z</time>
      </trkpt>
      <trkpt lat="45.90245" lon="5.00057">
        <ele>289.700012207</ele>
        <time>2016-06-06T09:42:57.695Z</time>
      </trkpt>
      <trkpt lat="45.90245" lon="5.00067">
        <ele>289.200012207</ele>
        <time>2016-06-06T09:42:58.709Z</time>
      </trkpt>
      <trkpt lat="45.90244" lon="5.00077">
        <ele>288.700012207</ele>
        <time>2016-06-06T09:42:59.692Z</time>
      </trkpt>
      <trkpt lat="45.90243" lon="5.00088">
        <ele>288.299987793</ele>
        <time>2016-06-06T09:43:00.745Z</time>
      </trkpt>
      <trkpt lat="45.90242" lon="5.00097">
        <ele>287.700012207</ele>
        <time>2016-06-06T09:43:01.687Z</time>
      </trkpt>
      <trkpt lat="45.90241" lon="5.00108">
        <ele>287.399993896</ele>
        <time>2016-06-06T09:43:02.729Z</time>
      </trkpt>
      <trkpt lat="45.90239" lon="5.00118">
        <ele>287.100006104</ele>
        <time>2016-06-06T09:43:03.691Z</time>
      </trkpt>
      <trkpt lat="45.90239" lon="5.00128">
        <ele>286.799987793</ele>
        <time>2016-06-06T09:43:04.708Z</time>
      </trkpt>
      <trkpt lat="45.90238" lon="5.00139">
        <ele>286.600006104</ele>
        <time>2016-06-06T09:43:05.691Z</time>
      </trkpt>
      <trkpt lat="45.90238" lon="5.00149">
        <ele>286.399993896</ele>
        <time>2016-06-06T09:43:06.713Z</time>
      </trkpt>
      <trkpt lat="45.90237" lon="5.0016">
        <ele>286</ele>
        <time>2016-06-06T09:43:07.691Z</time>
      </trkpt>
      <trkpt lat="45.90236" lon="5.0017">
        <ele>285.600006104</ele>
        <time>2016-06-06T09:43:08.709Z</time>
      </trkpt>
      <trkpt lat="45.90236" lon="5.00181">
        <ele>285.5</ele>
        <time>2016-06-06T09:43:09.69Z</time>
      </trkpt>
      <trkpt lat="45.90235" lon="5.00191">
        <ele>285.299987793</ele>
        <time>2016-06-06T09:43:10.71Z</time>
      </trkpt>
      <trkpt lat="45.90234" lon="5.00202">
        <ele>284.899993896</ele>
        <time>2016-06-06T09:43:11.725Z</time>
      </trkpt>
      <trkpt lat="45.90233" lon="5.00212">
        <ele>284.600006104</ele>
        <time>2016-06-06T09:43:12.709Z</time>
      </trkpt>
      <trkpt lat="45.90232" lon="5.00223">
        <ele>284.600006104</ele>
        <time>2016-06-06T09:43:13.69Z</time>
      </trkpt>
      <trkpt lat="45.90231" lon="5.00233">
        <ele>284.700012207</ele>
        <time>2016-06-06T09:43:14.713Z</time>
      </trkpt>
      <trkpt lat="45.9023" lon="5.00243">
        <ele>284.200012207</ele>
        <time>2016-06-06T09:43:15.692Z</time>
      </trkpt>
      <trkpt lat="45.9023" lon="5.00253">
        <ele>283.700012207</ele>
        <time>2016-06-06T09:43:16.713Z</time>
      </trkpt>
      <trkpt lat="45.90229" lon="5.00264">
        <ele>282.899993896</ele>
        <time>2016-06-06T09:43:17.688Z</time>
      </trkpt>
      <trkpt lat="45.90228" lon="5.00274">
        <ele>282.700012207</ele>
        <time>2016-06-06T09:43:18.725Z</time>
      </trkpt>
      <trkpt lat="45.90227" lon="5.00285">
        <ele>282.5</ele>
        <time>2016-06-06T09:43:19.687Z</time>
      </trkpt>
      <trkpt lat="45.90227" lon="5.00294">
        <ele>282.100006104</ele>
        <time>2016-06-06T09:43:20.713Z</time>
      </trkpt>
      <trkpt lat="45.90226" lon="5.00304">
        <ele>281.799987793</ele>
        <time>2016-06-06T09:43:21.693Z</time>
      </trkpt>
      <trkpt lat="45.90226" lon="5.00313">
        <ele>281.399993896</ele>
        <time>2016-06-06T09:43:22.712Z</time>
      </trkpt>
      <trkpt lat="45.90226" lon="5.00321">
        <ele>281.200012207</ele>
        <time>2016-06-06T09:43:23.881Z</time>
      </trkpt>
      <trkpt lat="45.90227" lon="5.00329">
        <ele>281.299987793</ele>
        <time>2016-06-06T09:43:24.709Z</time>
      </trkpt>
      <trkpt lat="45.90227" lon="5.00337">
        <ele>280.799987793</ele>
        <time>2016-06-06T09:43:25.691Z</time>
      </trkpt>
      <trkpt lat="45.90229" lon="5.00344">
        <ele>280.200012207</ele>
        <time>2016-06-06T09:43:26.718Z</time>
      </trkpt>
      <trkpt lat="45.90232" lon="5.00351">
        <ele>280.100006104</ele>
        <time>2016-06-06T09:43:27.695Z</time>
      </trkpt>
      <trkpt lat="45.90235" lon="5.00357">
        <ele>280.200012207</ele>
        <time>2016-06-06T09:43:28.748Z</time>
      </trkpt>
      <trkpt lat="45.90239" lon="5.00363">
        <ele>280.399993896</ele>
        <time>2016-06-06T09:43:29.691Z</time>
      </trkpt>
      <trkpt lat="45.90242" lon="5.00369">
        <ele>280.399993896</ele>
        <time>2016-06-06T09:43:30.709Z</time>
      </trkpt>
      <trkpt lat="45.90247" lon="5.00376">
        <ele>280.299987793</ele>
        <time>2016-06-06T09:43:31.688Z</time>
      </trkpt>
      <trkpt lat="45.90251" lon="5.00381">
        <ele>280.299987793</ele>
        <time>2016-06-06T09:43:32.709Z</time>
      </trkpt>
      <trkpt lat="45.90255" lon="5.00387">
        <ele>280.200012207</ele>
        <time>2016-06-06T09:43:33.692Z</time>
      </trkpt>
      <trkpt lat="45.90259" lon="5.00392">
        <ele>280</ele>
        <time>2016-06-06T09:43:34.869Z</time>
      </trkpt>
      <trkpt lat="45.90263" lon="5.00396">
        <ele>280</ele>
        <time>2016-06-06T09:43:35.688Z</time>
      </trkpt>
      <trkpt lat="45.90267" lon="5.00401">
        <ele>280</ele>
        <time>2016-06-06T09:43:36.712Z</time>
      </trkpt>
      <trkpt lat="45.90271" lon="5.00405">
        <ele>280.200012207</ele>
        <time>2016-06-06T09:43:37.69Z</time>
      </trkpt>
      <trkpt lat="45.90274" lon="5.00411">
        <ele>280.200012207</ele>
        <time>2016-06-06T09:43:38.709Z</time>
      </trkpt>
      <trkpt lat="45.90278" lon="5.00416">
        <ele>280.299987793</ele>
        <time>2016-06-06T09:43:39.697Z</time>
      </trkpt>
      <trkpt lat="45.90282" lon="5.00421">
        <ele>280.299987793</ele>
        <time>2016-06-06T09:43:40.716Z</time>
      </trkpt>
      <trkpt lat="45.90286" lon="5.00426">
        <ele>280.399993896</ele>
        <time>2016-06-06T09:43:41.692Z</time>
      </trkpt>
      <trkpt lat="45.90293" lon="5.00433">
        <ele>280.399993896</ele>
        <time>2016-06-06T09:43:43.712Z</time>
      </trkpt>
      <trkpt lat="45.90297" lon="5.00437">
        <ele>280.299987793</ele>
        <time>2016-06-06T09:43:44.686Z</time>
      </trkpt>
      <trkpt lat="45.903" lon="5.00442">
        <ele>280.399993896</ele>
        <time>2016-06-06T09:43:45.862Z</time>
      </trkpt>
      <trkpt lat="45.90304" lon="5.00448">
        <ele>280.700012207</ele>
        <time>2016-06-06T09:43:46.689Z</time>
      </trkpt>
      <trkpt lat="45.90307" lon="5.00453">
        <ele>280.799987793</ele>
        <time>2016-06-06T09:43:47.71Z</time>
      </trkpt>
      <trkpt lat="45.90311" lon="5.00458">
        <ele>281</ele>
        <time>2016-06-06T09:43:48.687Z</time>
      </trkpt>
      <trkpt lat="45.90315" lon="5.00463">
        <ele>280.899993896</ele>
        <time>2016-06-06T09:43:49.712Z</time>
      </trkpt>
      <trkpt lat="45.90319" lon="5.00467">
        <ele>281</ele>
        <time>2016-06-06T09:43:50.704Z</time>
      </trkpt>
      <trkpt lat="45.90325" lon="5.00475">
        <ele>281.200012207</ele>
        <time>2016-06-06T09:43:52.713Z</time>
      </trkpt>
      <trkpt lat="45.90328" lon="5.0048">
        <ele>281</ele>
        <time>2016-06-06T09:43:53.688Z</time>
      </trkpt>
      <trkpt lat="45.90334" lon="5.00489">
        <ele>281.200012207</ele>
        <time>2016-06-06T09:43:55.731Z</time>
      </trkpt>
      <trkpt lat="45.90337" lon="5.00493">
        <ele>281.399993896</ele>
        <time>2016-06-06T09:43:56.697Z</time>
      </trkpt>
      <trkpt lat="45.90343" lon="5.005">
        <ele>281.899993896</ele>
        <time>2016-06-06T09:43:58.709Z</time>
      </trkpt>
      <trkpt lat="45.90346" lon="5.00504">
        <ele>282.299987793</ele>
        <time>2016-06-06T09:43:59.689Z</time>
      </trkpt>
      <trkpt lat="45.90351" lon="5.00513">
        <ele>283.200012207</ele>
        <time>2016-06-06T09:44:01.709Z</time>
      </trkpt>
      <trkpt lat="45.90354" lon="5.00517">
        <ele>283.399993896</ele>
        <time>2016-06-06T09:44:02.686Z</time>
      </trkpt>
      <trkpt lat="45.9036" lon="5.00526">
        <ele>284</ele>
        <time>2016-06-06T09:44:04.782Z</time>
      </trkpt>
      <trkpt lat="45.90363" lon="5.0053">
        <ele>284.299987793</ele>
        <time>2016-06-06T09:44:05.706Z</time>
      </trkpt>
      <trkpt lat="45.90367" lon="5.00534">
        <ele>284.700012207</ele>
        <time>2016-06-06T09:44:06.913Z</time>
      </trkpt>
      <trkpt lat="45.9037" lon="5.00538">
        <ele>285.100006104</ele>
        <time>2016-06-06T09:44:07.704Z</time>
      </trkpt>
      <trkpt lat="45.90377" lon="5.00546">
        <ele>284.899993896</ele>
        <time>2016-06-06T09:44:09.725Z</time>
      </trkpt>
      <trkpt lat="45.9038" lon="5.0055">
        <ele>284.899993896</ele>
        <time>2016-06-06T09:44:10.7Z</time>
      </trkpt>
      <trkpt lat="45.90383" lon="5.0056">
        <ele>285.799987793</ele>
        <time>2016-06-06T09:44:12.72Z</time>
      </trkpt>
      <trkpt lat="45.90385" lon="5.00566">
        <ele>285.899993896</ele>
        <time>2016-06-06T09:44:13.691Z</time>
      </trkpt>
      <trkpt lat="45.90387" lon="5.00576">
        <ele>286.799987793</ele>
        <time>2016-06-06T09:44:15.717Z</time>
      </trkpt>
      <trkpt lat="45.90387" lon="5.00581">
        <ele>286.700012207</ele>
        <time>2016-06-06T09:44:16.693Z</time>
      </trkpt>
      <trkpt lat="45.90387" lon="5.00594">
        <ele>286.899993896</ele>
        <time>2016-06-06T09:44:18.858Z</time>
      </trkpt>
      <trkpt lat="45.90387" lon="5.00601">
        <ele>286.899993896</ele>
        <time>2016-06-06T09:44:19.688Z</time>
      </trkpt>
      <trkpt lat="45.90388" lon="5.00607">
        <ele>286.899993896</ele>
        <time>2016-06-06T09:44:20.714Z</time>
      </trkpt>
      <trkpt lat="45.90389" lon="5.00614">
        <ele>286.700012207</ele>
        <time>2016-06-06T09:44:21.694Z</time>
      </trkpt>
      <trkpt lat="45.90389" lon="5.00621">
        <ele>286.5</ele>
        <time>2016-06-06T09:44:22.711Z</time>
      </trkpt>
      <trkpt lat="45.9039" lon="5.00628">
        <ele>286.399993896</ele>
        <time>2016-06-06T09:44:23.688Z</time>
      </trkpt>
      <trkpt lat="45.90391" lon="5.00635">
        <ele>286.700012207</ele>
        <time>2016-06-06T09:44:24.709Z</time>
      </trkpt>
      <trkpt lat="45.90391" lon="5.00642">
        <ele>287</ele>
        <time>2016-06-06T09:44:25.688Z</time>
      </trkpt>
      <trkpt lat="45.90392" lon="5.00649">
        <ele>287.299987793</ele>
        <time>2016-06-06T09:44:26.769Z</time>
      </trkpt>
      <trkpt lat="45.90392" lon="5.00655">
        <ele>287.5</ele>
        <time>2016-06-06T09:44:27.692Z</time>
      </trkpt>
      <trkpt lat="45.90393" lon="5.00662">
        <ele>287.5</ele>
        <time>2016-06-06T09:44:28.717Z</time>
      </trkpt>
      <trkpt lat="45.90394" lon="5.00669">
        <ele>287.600006104</ele>
        <time>2016-06-06T09:44:29.688Z</time>
      </trkpt>
      <trkpt lat="45.90394" lon="5.00676">
        <ele>287.5</ele>
        <time>2016-06-06T09:44:30.711Z</time>
      </trkpt>
      <trkpt lat="45.90395" lon="5.00683">
        <ele>287.5</ele>
        <time>2016-06-06T09:44:31.69Z</time>
      </trkpt>
      <trkpt lat="45.90396" lon="5.00691">
        <ele>287.600006104</ele>
        <time>2016-06-06T09:44:32.716Z</time>
      </trkpt>
      <trkpt lat="45.90397" lon="5.00698">
        <ele>287.399993896</ele>
        <time>2016-06-06T09:44:33.689Z</time>
      </trkpt>
      <trkpt lat="45.90397" lon="5.00705">
        <ele>287.5</ele>
        <time>2016-06-06T09:44:34.709Z</time>
      </trkpt>
      <trkpt lat="45.90398" lon="5.00712">
        <ele>287.799987793</ele>
        <time>2016-06-06T09:44:35.689Z</time>
      </trkpt>
      <trkpt lat="45.90398" lon="5.00719">
        <ele>287.700012207</ele>
        <time>2016-06-06T09:44:36.715Z</time>
      </trkpt>
      <trkpt lat="45.90399" lon="5.00726">
        <ele>287.600006104</ele>
        <time>2016-06-06T09:44:37.688Z</time>
      </trkpt>
      <trkpt lat="45.904" lon="5.00733">
        <ele>287.299987793</ele>
        <time>2016-06-06T09:44:38.712Z</time>
      </trkpt>
      <trkpt lat="45.904" lon="5.0074">
        <ele>287</ele>
        <time>2016-06-06T09:44:39.692Z</time>
      </trkpt>
      <trkpt lat="45.904" lon="5.00746">
        <ele>286.899993896</ele>
        <time>2016-06-06T09:44:40.709Z</time>
      </trkpt>
      <trkpt lat="45.90401" lon="5.00753">
        <ele>286.899993896</ele>
        <time>2016-06-06T09:44:41.688Z</time>
      </trkpt>
      <trkpt lat="45.90402" lon="5.00759">
        <ele>286.899993896</ele>
        <time>2016-06-06T09:44:42.729Z</time>
      </trkpt>
      <trkpt lat="45.90403" lon="5.00766">
        <ele>287</ele>
        <time>2016-06-06T09:44:43.688Z</time>
      </trkpt>
      <trkpt lat="45.90403" lon="5.00773">
        <ele>286.899993896</ele>
        <time>2016-06-06T09:44:44.71Z</time>
      </trkpt>
      <trkpt lat="45.90404" lon="5.00781">
        <ele>287.100006104</ele>
        <time>2016-06-06T09:44:45.692Z</time>
      </trkpt>
      <trkpt lat="45.90405" lon="5.00788">
        <ele>287.299987793</ele>
        <time>2016-06-06T09:44:46.722Z</time>
      </trkpt>
      <trkpt lat="45.90406" lon="5.00796">
        <ele>287.299987793</ele>
        <time>2016-06-06T09:44:47.688Z</time>
      </trkpt>
      <trkpt lat="45.90407" lon="5.00803">
        <ele>287.399993896</ele>
        <time>2016-06-06T09:44:48.71Z</time>
      </trkpt>
      <trkpt lat="45.90407" lon="5.00811">
        <ele>287.399993896</ele>
        <time>2016-06-06T09:44:49.691Z</time>
      </trkpt>
      <trkpt lat="45.90407" lon="5.00819">
        <ele>287.299987793</ele>
        <time>2016-06-06T09:44:50.709Z</time>
      </trkpt>
      <trkpt lat="45.90408" lon="5.00826">
        <ele>287</ele>
        <time>2016-06-06T09:44:51.693Z</time>
      </trkpt>
      <trkpt lat="45.90409" lon="5.00833">
        <ele>287.100006104</ele>
        <time>2016-06-06T09:44:52.712Z</time>
      </trkpt>
      <trkpt lat="45.90409" lon="5.00839">
        <ele>287</ele>
        <time>2016-06-06T09:44:53.691Z</time>
      </trkpt>
      <trkpt lat="45.9041" lon="5.00846">
        <ele>286.899993896</ele>
        <time>2016-06-06T09:44:54.733Z</time>
      </trkpt>
      <trkpt lat="45.9041" lon="5.00853">
        <ele>286.899993896</ele>
        <time>2016-06-06T09:44:55.688Z</time>
      </trkpt>
      <trkpt lat="45.9041" lon="5.0086">
        <ele>286.799987793</ele>
        <time>2016-06-06T09:44:56.719Z</time>
      </trkpt>
      <trkpt lat="45.90411" lon="5.00867">
        <ele>286.899993896</ele>
        <time>2016-06-06T09:44:57.694Z</time>
      </trkpt>
      <trkpt lat="45.90412" lon="5.00874">
        <ele>286.700012207</ele>
        <time>2016-06-06T09:44:58.713Z</time>
      </trkpt>
      <trkpt lat="45.90412" lon="5.00882">
        <ele>286.700012207</ele>
        <time>2016-06-06T09:44:59.687Z</time>
      </trkpt>
      <trkpt lat="45.90413" lon="5.00889">
        <ele>286.399993896</ele>
        <time>2016-06-06T09:45:00.71Z</time>
      </trkpt>
      <trkpt lat="45.90413" lon="5.00897">
        <ele>286.5</ele>
        <time>2016-06-06T09:45:01.688Z</time>
      </trkpt>
      <trkpt lat="45.90414" lon="5.00904">
        <ele>286.200012207</ele>
        <time>2016-06-06T09:45:02.709Z</time>
      </trkpt>
      <trkpt lat="45.90415" lon="5.00911">
        <ele>286</ele>
        <time>2016-06-06T09:45:03.707Z</time>
      </trkpt>
      <trkpt lat="45.90416" lon="5.00919">
        <ele>286.100006104</ele>
        <time>2016-06-06T09:45:04.71Z</time>
      </trkpt>
      <trkpt lat="45.90416" lon="5.00926">
        <ele>286.200012207</ele>
        <time>2016-06-06T09:45:05.726Z</time>
      </trkpt>
      <trkpt lat="45.90417" lon="5.00934">
        <ele>286.299987793</ele>
        <time>2016-06-06T09:45:06.718Z</time>
      </trkpt>
      <trkpt lat="45.90418" lon="5.00941">
        <ele>286.299987793</ele>
        <time>2016-06-06T09:45:07.688Z</time>
      </trkpt>
      <trkpt lat="45.90418" lon="5.00949">
        <ele>286.200012207</ele>
        <time>2016-06-06T09:45:08.726Z</time>
      </trkpt>
      <trkpt lat="45.90419" lon="5.00956">
        <ele>286.100006104</ele>
        <time>2016-06-06T09:45:09.747Z</time>
      </trkpt>
      <trkpt lat="45.9042" lon="5.00964">
        <ele>286</ele>
        <time>2016-06-06T09:45:10.713Z</time>
      </trkpt>
      <trkpt lat="45.9042" lon="5.00972">
        <ele>286.299987793</ele>
        <time>2016-06-06T09:45:11.689Z</time>
      </trkpt>
      <trkpt lat="45.90421" lon="5.00979">
        <ele>286.600006104</ele>
        <time>2016-06-06T09:45:12.712Z</time>
      </trkpt>
      <trkpt lat="45.90421" lon="5.00986">
        <ele>286.700012207</ele>
        <time>2016-06-06T09:45:13.687Z</time>
      </trkpt>
      <trkpt lat="45.90422" lon="5.00993">
        <ele>286.799987793</ele>
        <time>2016-06-06T09:45:14.708Z</time>
      </trkpt>
      <trkpt lat="45.90422" lon="5.01">
        <ele>286.799987793</ele>
        <time>2016-06-06T09:45:15.689Z</time>
      </trkpt>
      <trkpt lat="45.90422" lon="5.01007">
        <ele>287.100006104</ele>
        <time>2016-06-06T09:45:16.722Z</time>
      </trkpt>
      <trkpt lat="45.90423" lon="5.01014">
        <ele>287.100006104</ele>
        <time>2016-06-06T09:45:17.695Z</time>
      </trkpt>
      <trkpt lat="45.90423" lon="5.01021">
        <ele>287</ele>
        <time>2016-06-06T09:45:18.709Z</time>
      </trkpt>
      <trkpt lat="45.90424" lon="5.01027">
        <ele>287</ele>
        <time>2016-06-06T09:45:19.688Z</time>
      </trkpt>
      <trkpt lat="45.90425" lon="5.01034">
        <ele>287.200012207</ele>
        <time>2016-06-06T09:45:20.708Z</time>
      </trkpt>
      <trkpt lat="45.90426" lon="5.01041">
        <ele>287.5</ele>
        <time>2016-06-06T09:45:21.691Z</time>
      </trkpt>
      <trkpt lat="45.90426" lon="5.01048">
        <ele>287.399993896</ele>
        <time>2016-06-06T09:45:22.709Z</time>
      </trkpt>
      <trkpt lat="45.90427" lon="5.01056">
        <ele>287.399993896</ele>
        <time>2016-06-06T09:45:23.692Z</time>
      </trkpt>
      <trkpt lat="45.90427" lon="5.01063">
        <ele>287.700012207</ele>
        <time>2016-06-06T09:45:24.724Z</time>
      </trkpt>
      <trkpt lat="45.90428" lon="5.01071">
        <ele>287.700012207</ele>
        <time>2016-06-06T09:45:25.686Z</time>
      </trkpt>
      <trkpt lat="45.90429" lon="5.01079">
        <ele>287.600006104</ele>
        <time>2016-06-06T09:45:26.724Z</time>
      </trkpt>
      <trkpt lat="45.9043" lon="5.01087">
        <ele>287.200012207</ele>
        <time>2016-06-06T09:45:27.691Z</time>
      </trkpt>
      <trkpt lat="45.90431" lon="5.01095">
        <ele>287.200012207</ele>
        <time>2016-06-06T09:45:28.709Z</time>
      </trkpt>
      <trkpt lat="45.90431" lon="5.01103">
        <ele>287.100006104</ele>
        <time>2016-06-06T09:45:29.687Z</time>
      </trkpt>
      <trkpt lat="45.90432" lon="5.01111">
        <ele>286.899993896</ele>
        <time>2016-06-06T09:45:30.708Z</time>
      </trkpt>
      <trkpt lat="45.90433" lon="5.01119">
        <ele>286.700012207</ele>
        <time>2016-06-06T09:45:31.687Z</time>
      </trkpt>
      <trkpt lat="45.90433" lon="5.01126">
        <ele>286.700012207</ele>
        <time>2016-06-06T09:45:32.719Z</time>
      </trkpt>
      <trkpt lat="45.90433" lon="5.01133">
        <ele>286.100006104</ele>
        <time>2016-06-06T09:45:33.689Z</time>
      </trkpt>
      <trkpt lat="45.90433" lon="5.0114">
        <ele>286</ele>
        <time>2016-06-06T09:45:34.712Z</time>
      </trkpt>
      <trkpt lat="45.90434" lon="5.01148">
        <ele>286.100006104</ele>
        <time>2016-06-06T09:45:35.691Z</time>
      </trkpt>
      <trkpt lat="45.90435" lon="5.01154">
        <ele>286.5</ele>
        <time>2016-06-06T09:45:37.352Z</time>
      </trkpt>
      <trkpt lat="45.90435" lon="5.01161">
        <ele>286.5</ele>
        <time>2016-06-06T09:45:37.692Z</time>
      </trkpt>
      <trkpt lat="45.90436" lon="5.01168">
        <ele>286.399993896</ele>
        <time>2016-06-06T09:45:38.712Z</time>
      </trkpt>
      <trkpt lat="45.90437" lon="5.01175">
        <ele>286.5</ele>
        <time>2016-06-06T09:45:39.692Z</time>
      </trkpt>
      <trkpt lat="45.90437" lon="5.01183">
        <ele>286.299987793</ele>
        <time>2016-06-06T09:45:40.728Z</time>
      </trkpt>
      <trkpt lat="45.90438" lon="5.01191">
        <ele>286</ele>
        <time>2016-06-06T09:45:41.688Z</time>
      </trkpt>
      <trkpt lat="45.90439" lon="5.01199">
        <ele>286.100006104</ele>
        <time>2016-06-06T09:45:42.709Z</time>
      </trkpt>
      <trkpt lat="45.90439" lon="5.01207">
        <ele>286.299987793</ele>
        <time>2016-06-06T09:45:43.687Z</time>
      </trkpt>
      <trkpt lat="45.9044" lon="5.01215">
        <ele>286.299987793</ele>
        <time>2016-06-06T09:45:44.708Z</time>
      </trkpt>
      <trkpt lat="45.90441" lon="5.01222">
        <ele>286.200012207</ele>
        <time>2016-06-06T09:45:45.689Z</time>
      </trkpt>
      <trkpt lat="45.90442" lon="5.0123">
        <ele>285.799987793</ele>
        <time>2016-06-06T09:45:46.723Z</time>
      </trkpt>
      <trkpt lat="45.90443" lon="5.01237">
        <ele>285.700012207</ele>
        <time>2016-06-06T09:45:47.687Z</time>
      </trkpt>
      <trkpt lat="45.90444" lon="5.01244">
        <ele>285.700012207</ele>
        <time>2016-06-06T09:45:48.708Z</time>
      </trkpt>
      <trkpt lat="45.90444" lon="5.01251">
        <ele>285.600006104</ele>
        <time>2016-06-06T09:45:49.686Z</time>
      </trkpt>
      <trkpt lat="45.90445" lon="5.01258">
        <ele>285.200012207</ele>
        <time>2016-06-06T09:45:50.709Z</time>
      </trkpt>
      <trkpt lat="45.90445" lon="5.01266">
        <ele>285.200012207</ele>
        <time>2016-06-06T09:45:51.692Z</time>
      </trkpt>
      <trkpt lat="45.90445" lon="5.01273">
        <ele>285.200012207</ele>
        <time>2016-06-06T09:45:52.708Z</time>
      </trkpt>
      <trkpt lat="45.90445" lon="5.01281">
        <ele>285.200012207</ele>
        <time>2016-06-06T09:45:53.687Z</time>
      </trkpt>
      <trkpt lat="45.90445" lon="5.01289">
        <ele>285.299987793</ele>
        <time>2016-06-06T09:45:54.712Z</time>
      </trkpt>
      <trkpt lat="45.90446" lon="5.01297">
        <ele>285.200012207</ele>
        <time>2016-06-06T09:45:55.695Z</time>
      </trkpt>
      <trkpt lat="45.90446" lon="5.01305">
        <ele>285.399993896</ele>
        <time>2016-06-06T09:45:56.73Z</time>
      </trkpt>
      <trkpt lat="45.90447" lon="5.01313">
        <ele>285.299987793</ele>
        <time>2016-06-06T09:45:57.689Z</time>
      </trkpt>
      <trkpt lat="45.90448" lon="5.01321">
        <ele>285.200012207</ele>
        <time>2016-06-06T09:45:58.714Z</time>
      </trkpt>
      <trkpt lat="45.90449" lon="5.01329">
        <ele>285.200012207</ele>
        <time>2016-06-06T09:45:59.688Z</time>
      </trkpt>
      <trkpt lat="45.9045" lon="5.01336">
        <ele>285.100006104</ele>
        <time>2016-06-06T09:46:00.708Z</time>
      </trkpt>
      <trkpt lat="45.9045" lon="5.01343">
        <ele>285.100006104</ele>
        <time>2016-06-06T09:46:01.687Z</time>
      </trkpt>
      <trkpt lat="45.90451" lon="5.0135">
        <ele>285</ele>
        <time>2016-06-06T09:46:02.709Z</time>
      </trkpt>
      <trkpt lat="45.90451" lon="5.01357">
        <ele>285.200012207</ele>
        <time>2016-06-06T09:46:03.689Z</time>
      </trkpt>
      <trkpt lat="45.90452" lon="5.01363">
        <ele>285.100006104</ele>
        <time>2016-06-06T09:46:04.712Z</time>
      </trkpt>
      <trkpt lat="45.90453" lon="5.0137">
        <ele>285.100006104</ele>
        <time>2016-06-06T09:46:05.687Z</time>
      </trkpt>
      <trkpt lat="45.90454" lon="5.01378">
        <ele>285.100006104</ele>
        <time>2016-06-06T09:46:06.75Z</time>
      </trkpt>
      <trkpt lat="45.90455" lon="5.01386">
        <ele>285.399993896</ele>
        <time>2016-06-06T09:46:07.691Z</time>
      </trkpt>
      <trkpt lat="45.90455" lon="5.01394">
        <ele>285.600006104</ele>
        <time>2016-06-06T09:46:08.873Z</time>
      </trkpt>
      <trkpt lat="45.90455" lon="5.01402">
        <ele>285.600006104</ele>
        <time>2016-06-06T09:46:09.691Z</time>
      </trkpt>
      <trkpt lat="45.90456" lon="5.01409">
        <ele>285.899993896</ele>
        <time>2016-06-06T09:46:10.708Z</time>
      </trkpt>
      <trkpt lat="45.90457" lon="5.01417">
        <ele>285.899993896</ele>
        <time>2016-06-06T09:46:11.688Z</time>
      </trkpt>
      <trkpt lat="45.90458" lon="5.01425">
        <ele>286.399993896</ele>
        <time>2016-06-06T09:46:12.707Z</time>
      </trkpt>
      <trkpt lat="45.90458" lon="5.01432">
        <ele>286.5</ele>
        <time>2016-06-06T09:46:13.689Z</time>
      </trkpt>
      <trkpt lat="45.90459" lon="5.01439">
        <ele>287.100006104</ele>
        <time>2016-06-06T09:46:14.708Z</time>
      </trkpt>
      <trkpt lat="45.90459" lon="5.01447">
        <ele>287.299987793</ele>
        <time>2016-06-06T09:46:15.692Z</time>
      </trkpt>
      <trkpt lat="45.9046" lon="5.01454">
        <ele>287.5</ele>
        <time>2016-06-06T09:46:16.728Z</time>
      </trkpt>
      <trkpt lat="45.90461" lon="5.01462">
        <ele>287.700012207</ele>
        <time>2016-06-06T09:46:17.691Z</time>
      </trkpt>
      <trkpt lat="45.90462" lon="5.01469">
        <ele>287.799987793</ele>
        <time>2016-06-06T09:46:18.708Z</time>
      </trkpt>
      <trkpt lat="45.90463" lon="5.01477">
        <ele>287.700012207</ele>
        <time>2016-06-06T09:46:19.72Z</time>
      </trkpt>
      <trkpt lat="45.90464" lon="5.01484">
        <ele>287.899993896</ele>
        <time>2016-06-06T09:46:20.726Z</time>
      </trkpt>
      <trkpt lat="45.90464" lon="5.01491">
        <ele>287.899993896</ele>
        <time>2016-06-06T09:46:21.701Z</time>
      </trkpt>
      <trkpt lat="45.90465" lon="5.01499">
        <ele>287.899993896</ele>
        <time>2016-06-06T09:46:23.101Z</time>
      </trkpt>
      <trkpt lat="45.90466" lon="5.01506">
        <ele>287.899993896</ele>
        <time>2016-06-06T09:46:23.688Z</time>
      </trkpt>
      <trkpt lat="45.90466" lon="5.01514">
        <ele>288</ele>
        <time>2016-06-06T09:46:24.708Z</time>
      </trkpt>
      <trkpt lat="45.90467" lon="5.01521">
        <ele>288</ele>
        <time>2016-06-06T09:46:25.719Z</time>
      </trkpt>
      <trkpt lat="45.90467" lon="5.01529">
        <ele>288.200012207</ele>
        <time>2016-06-06T09:46:26.716Z</time>
      </trkpt>
      <trkpt lat="45.90468" lon="5.01536">
        <ele>288.200012207</ele>
        <time>2016-06-06T09:46:27.702Z</time>
      </trkpt>
      <trkpt lat="45.90468" lon="5.01543">
        <ele>288.299987793</ele>
        <time>2016-06-06T09:46:28.717Z</time>
      </trkpt>
      <trkpt lat="45.90469" lon="5.0155">
        <ele>288.299987793</ele>
        <time>2016-06-06T09:46:29.697Z</time>
      </trkpt>
      <trkpt lat="45.90469" lon="5.01556">
        <ele>288.399993896</ele>
        <time>2016-06-06T09:46:30.713Z</time>
      </trkpt>
      <trkpt lat="45.90469" lon="5.01563">
        <ele>288.200012207</ele>
        <time>2016-06-06T09:46:31.689Z</time>
      </trkpt>
      <trkpt lat="45.90469" lon="5.01575">
        <ele>288.5</ele>
        <time>2016-06-06T09:46:33.717Z</time>
      </trkpt>
      <trkpt lat="45.9047" lon="5.01581">
        <ele>288.600006104</ele>
        <time>2016-06-06T09:46:34.686Z</time>
      </trkpt>
      <trkpt lat="45.90474" lon="5.0159">
        <ele>288.799987793</ele>
        <time>2016-06-06T09:46:36.739Z</time>
      </trkpt>
      <trkpt lat="45.90478" lon="5.01593">
        <ele>288.799987793</ele>
        <time>2016-06-06T09:46:37.726Z</time>
      </trkpt>
      <trkpt lat="45.90485" lon="5.01593">
        <ele>288.799987793</ele>
        <time>2016-06-06T09:46:39.714Z</time>
      </trkpt>
      <trkpt lat="45.9049" lon="5.01592">
        <ele>289</ele>
        <time>2016-06-06T09:46:40.689Z</time>
      </trkpt>
      <trkpt lat="45.90498" lon="5.01589">
        <ele>288.899993896</ele>
        <time>2016-06-06T09:46:42.714Z</time>
      </trkpt>
      <trkpt lat="45.90502" lon="5.01588">
        <ele>288.799987793</ele>
        <time>2016-06-06T09:46:43.691Z</time>
      </trkpt>
      <trkpt lat="45.9051" lon="5.01587">
        <ele>288.799987793</ele>
        <time>2016-06-06T09:46:45.711Z</time>
      </trkpt>
      <trkpt lat="45.90514" lon="5.01587">
        <ele>288.5</ele>
        <time>2016-06-06T09:46:46.716Z</time>
      </trkpt>
      <trkpt lat="45.90519" lon="5.01587">
        <ele>288.600006104</ele>
        <time>2016-06-06T09:46:47.736Z</time>
      </trkpt>
      <trkpt lat="45.90524" lon="5.01587">
        <ele>288.5</ele>
        <time>2016-06-06T09:46:48.687Z</time>
      </trkpt>
      <trkpt lat="45.90528" lon="5.01587">
        <ele>288.700012207</ele>
        <time>2016-06-06T09:46:49.707Z</time>
      </trkpt>
      <trkpt lat="45.90533" lon="5.01587">
        <ele>288.700012207</ele>
        <time>2016-06-06T09:46:50.69Z</time>
      </trkpt>
      <trkpt lat="45.90538" lon="5.01588">
        <ele>288.5</ele>
        <time>2016-06-06T09:46:51.715Z</time>
      </trkpt>
      <trkpt lat="45.90543" lon="5.01589">
        <ele>287.799987793</ele>
        <time>2016-06-06T09:46:52.691Z</time>
      </trkpt>
      <trkpt lat="45.90549" lon="5.01591">
        <ele>287.5</ele>
        <time>2016-06-06T09:46:53.722Z</time>
      </trkpt>
      <trkpt lat="45.90554" lon="5.01592">
        <ele>287.100006104</ele>
        <time>2016-06-06T09:46:54.688Z</time>
      </trkpt>
      <trkpt lat="45.90559" lon="5.01593">
        <ele>286.700012207</ele>
        <time>2016-06-06T09:46:55.712Z</time>
      </trkpt>
      <trkpt lat="45.90564" lon="5.01595">
        <ele>287.200012207</ele>
        <time>2016-06-06T09:46:56.711Z</time>
      </trkpt>
      <trkpt lat="45.90568" lon="5.01597">
        <ele>287.299987793</ele>
        <time>2016-06-06T09:46:57.711Z</time>
      </trkpt>
      <trkpt lat="45.90573" lon="5.01599">
        <ele>287.299987793</ele>
        <time>2016-06-06T09:46:58.688Z</time>
      </trkpt>
      <trkpt lat="45.90582" lon="5.01602">
        <ele>287.100006104</ele>
        <time>2016-06-06T09:47:00.711Z</time>
      </trkpt>
      <trkpt lat="45.90586" lon="5.01604">
        <ele>286.799987793</ele>
        <time>2016-06-06T09:47:01.692Z</time>
      </trkpt>
      <trkpt lat="45.90591" lon="5.01605">
        <ele>286.5</ele>
        <time>2016-06-06T09:47:02.711Z</time>
      </trkpt>
      <trkpt lat="45.90596" lon="5.01606">
        <ele>286.100006104</ele>
        <time>2016-06-06T09:47:03.695Z</time>
      </trkpt>
      <trkpt lat="45.90601" lon="5.01609">
        <ele>285.799987793</ele>
        <time>2016-06-06T09:47:04.782Z</time>
      </trkpt>
      <trkpt lat="45.90606" lon="5.01611">
        <ele>285.899993896</ele>
        <time>2016-06-06T09:47:05.69Z</time>
      </trkpt>
      <trkpt lat="45.90612" lon="5.01613">
        <ele>285.899993896</ele>
        <time>2016-06-06T09:47:06.751Z</time>
      </trkpt>
      <trkpt lat="45.90618" lon="5.01615">
        <ele>285.799987793</ele>
        <time>2016-06-06T09:47:07.69Z</time>
      </trkpt>
      <trkpt lat="45.90623" lon="5.01617">
        <ele>285.700012207</ele>
        <time>2016-06-06T09:47:08.712Z</time>
      </trkpt>
      <trkpt lat="45.90629" lon="5.01618">
        <ele>285.399993896</ele>
        <time>2016-06-06T09:47:09.691Z</time>
      </trkpt>
      <trkpt lat="45.90635" lon="5.0162">
        <ele>284.899993896</ele>
        <time>2016-06-06T09:47:10.732Z</time>
      </trkpt>
      <trkpt lat="45.90641" lon="5.01622">
        <ele>284.700012207</ele>
        <time>2016-06-06T09:47:11.687Z</time>
      </trkpt>
      <trkpt lat="45.90647" lon="5.01623">
        <ele>284.899993896</ele>
        <time>2016-06-06T09:47:12.708Z</time>
      </trkpt>
      <trkpt lat="45.90653" lon="5.01625">
        <ele>284.899993896</ele>
        <time>2016-06-06T09:47:13.716Z</time>
      </trkpt>
      <trkpt lat="45.90659" lon="5.01627">
        <ele>284.899993896</ele>
        <time>2016-06-06T09:47:14.719Z</time>
      </trkpt>
      <trkpt lat="45.90665" lon="5.0163">
        <ele>284.799987793</ele>
        <time>2016-06-06T09:47:15.692Z</time>
      </trkpt>
      <trkpt lat="45.90672" lon="5.01632">
        <ele>285</ele>
        <time>2016-06-06T09:47:16.74Z</time>
      </trkpt>
      <trkpt lat="45.90678" lon="5.01635">
        <ele>284.899993896</ele>
        <time>2016-06-06T09:47:17.688Z</time>
      </trkpt>
      <trkpt lat="45.90685" lon="5.01637">
        <ele>285.100006104</ele>
        <time>2016-06-06T09:47:18.711Z</time>
      </trkpt>
      <trkpt lat="45.90692" lon="5.0164">
        <ele>285.5</ele>
        <time>2016-06-06T09:47:19.688Z</time>
      </trkpt>
      <trkpt lat="45.90698" lon="5.01642">
        <ele>285.5</ele>
        <time>2016-06-06T09:47:20.726Z</time>
      </trkpt>
      <trkpt lat="45.90704" lon="5.01644">
        <ele>285.700012207</ele>
        <time>2016-06-06T09:47:21.691Z</time>
      </trkpt>
      <trkpt lat="45.90709" lon="5.01646">
        <ele>286</ele>
        <time>2016-06-06T09:47:22.712Z</time>
      </trkpt>
      <trkpt lat="45.90715" lon="5.01649">
        <ele>286.100006104</ele>
        <time>2016-06-06T09:47:23.687Z</time>
      </trkpt>
      <trkpt lat="45.90721" lon="5.01651">
        <ele>286.299987793</ele>
        <time>2016-06-06T09:47:24.707Z</time>
      </trkpt>
      <trkpt lat="45.90726" lon="5.01653">
        <ele>286.5</ele>
        <time>2016-06-06T09:47:25.689Z</time>
      </trkpt>
      <trkpt lat="45.90731" lon="5.01655">
        <ele>286.600006104</ele>
        <time>2016-06-06T09:47:26.743Z</time>
      </trkpt>
      <trkpt lat="45.90736" lon="5.01657">
        <ele>286.799987793</ele>
        <time>2016-06-06T09:47:27.695Z</time>
      </trkpt>
      <trkpt lat="45.90742" lon="5.0166">
        <ele>286.899993896</ele>
        <time>2016-06-06T09:47:28.711Z</time>
      </trkpt>
      <trkpt lat="45.90747" lon="5.01661">
        <ele>287.299987793</ele>
        <time>2016-06-06T09:47:29.688Z</time>
      </trkpt>
      <trkpt lat="45.90753" lon="5.01664">
        <ele>287.799987793</ele>
        <time>2016-06-06T09:47:30.862Z</time>
      </trkpt>
      <trkpt lat="45.90758" lon="5.01666">
        <ele>288.200012207</ele>
        <time>2016-06-06T09:47:31.691Z</time>
      </trkpt>
      <trkpt lat="45.90763" lon="5.01667">
        <ele>288.399993896</ele>
        <time>2016-06-06T09:47:32.729Z</time>
      </trkpt>
      <trkpt lat="45.90769" lon="5.01669">
        <ele>288.200012207</ele>
        <time>2016-06-06T09:47:33.691Z</time>
      </trkpt>
      <trkpt lat="45.90775" lon="5.01671">
        <ele>288.399993896</ele>
        <time>2016-06-06T09:47:34.715Z</time>
      </trkpt>
      <trkpt lat="45.90781" lon="5.01673">
        <ele>288.399993896</ele>
        <time>2016-06-06T09:47:35.739Z</time>
      </trkpt>
      <trkpt lat="45.90786" lon="5.01675">
        <ele>288.399993896</ele>
        <time>2016-06-06T09:47:36.735Z</time>
      </trkpt>
      <trkpt lat="45.90792" lon="5.01676">
        <ele>288.700012207</ele>
        <time>2016-06-06T09:47:37.688Z</time>
      </trkpt>
      <trkpt lat="45.90797" lon="5.01678">
        <ele>288.700012207</ele>
        <time>2016-06-06T09:47:38.709Z</time>
      </trkpt>
      <trkpt lat="45.90801" lon="5.0168">
        <ele>288.399993896</ele>
        <time>2016-06-06T09:47:39.694Z</time>
      </trkpt>
      <trkpt lat="45.90806" lon="5.01682">
        <ele>288.200012207</ele>
        <time>2016-06-06T09:47:40.708Z</time>
      </trkpt>
      <trkpt lat="45.90811" lon="5.01684">
        <ele>287.700012207</ele>
        <time>2016-06-06T09:47:41.688Z</time>
      </trkpt>
      <trkpt lat="45.90816" lon="5.01686">
        <ele>287.700012207</ele>
        <time>2016-06-06T09:47:42.724Z</time>
      </trkpt>
      <trkpt lat="45.90821" lon="5.01687">
        <ele>287.399993896</ele>
        <time>2016-06-06T09:47:43.691Z</time>
      </trkpt>
      <trkpt lat="45.90826" lon="5.01689">
        <ele>287.399993896</ele>
        <time>2016-06-06T09:47:44.711Z</time>
      </trkpt>
      <trkpt lat="45.90831" lon="5.0169">
        <ele>287.399993896</ele>
        <time>2016-06-06T09:47:45.694Z</time>
      </trkpt>
      <trkpt lat="45.90836" lon="5.01692">
        <ele>287.399993896</ele>
        <time>2016-06-06T09:47:46.735Z</time>
      </trkpt>
      <trkpt lat="45.90842" lon="5.01694">
        <ele>288</ele>
        <time>2016-06-06T09:47:47.691Z</time>
      </trkpt>
      <trkpt lat="45.90846" lon="5.01695">
        <ele>288</ele>
        <time>2016-06-06T09:47:48.711Z</time>
      </trkpt>
      <trkpt lat="45.90852" lon="5.01697">
        <ele>288.600006104</ele>
        <time>2016-06-06T09:47:49.691Z</time>
      </trkpt>
      <trkpt lat="45.90857" lon="5.01699">
        <ele>289</ele>
        <time>2016-06-06T09:47:50.712Z</time>
      </trkpt>
      <trkpt lat="45.90862" lon="5.01701">
        <ele>288.5</ele>
        <time>2016-06-06T09:47:51.693Z</time>
      </trkpt>
      <trkpt lat="45.90868" lon="5.01703">
        <ele>288.5</ele>
        <time>2016-06-06T09:47:52.795Z</time>
      </trkpt>
      <trkpt lat="45.90874" lon="5.01704">
        <ele>288.100006104</ele>
        <time>2016-06-06T09:47:53.69Z</time>
      </trkpt>
      <trkpt lat="45.90879" lon="5.01706">
        <ele>287.799987793</ele>
        <time>2016-06-06T09:47:54.708Z</time>
      </trkpt>
      <trkpt lat="45.90885" lon="5.01706">
        <ele>287.5</ele>
        <time>2016-06-06T09:47:55.688Z</time>
      </trkpt>
      <trkpt lat="45.9089" lon="5.01707">
        <ele>287.600006104</ele>
        <time>2016-06-06T09:47:56.757Z</time>
      </trkpt>
      <trkpt lat="45.90896" lon="5.01709">
        <ele>287.5</ele>
        <time>2016-06-06T09:47:57.692Z</time>
      </trkpt>
      <trkpt lat="45.90901" lon="5.0171">
        <ele>286.600006104</ele>
        <time>2016-06-06T09:47:58.708Z</time>
      </trkpt>
      <trkpt lat="45.90906" lon="5.01711">
        <ele>286.600006104</ele>
        <time>2016-06-06T09:47:59.69Z</time>
      </trkpt>
      <trkpt lat="45.90912" lon="5.01711">
        <ele>286.5</ele>
        <time>2016-06-06T09:48:00.715Z</time>
      </trkpt>
      <trkpt lat="45.90918" lon="5.01711">
        <ele>286.5</ele>
        <time>2016-06-06T09:48:01.686Z</time>
      </trkpt>
      <trkpt lat="45.90924" lon="5.0171">
        <ele>286.399993896</ele>
        <time>2016-06-06T09:48:02.716Z</time>
      </trkpt>
      <trkpt lat="45.9093" lon="5.01708">
        <ele>286.200012207</ele>
        <time>2016-06-06T09:48:03.689Z</time>
      </trkpt>
      <trkpt lat="45.90937" lon="5.01706">
        <ele>286.100006104</ele>
        <time>2016-06-06T09:48:04.708Z</time>
      </trkpt>
      <trkpt lat="45.90943" lon="5.01704">
        <ele>285.799987793</ele>
        <time>2016-06-06T09:48:05.688Z</time>
      </trkpt>
      <trkpt lat="45.9095" lon="5.01702">
        <ele>285.5</ele>
        <time>2016-06-06T09:48:06.736Z</time>
      </trkpt>
      <trkpt lat="45.90956" lon="5.017">
        <ele>285</ele>
        <time>2016-06-06T09:48:07.686Z</time>
      </trkpt>
      <trkpt lat="45.90962" lon="5.01698">
        <ele>284.799987793</ele>
        <time>2016-06-06T09:48:08.713Z</time>
      </trkpt>
      <trkpt lat="45.90968" lon="5.01695">
        <ele>284.399993896</ele>
        <time>2016-06-06T09:48:09.69Z</time>
      </trkpt>
      <trkpt lat="45.90975" lon="5.01693">
        <ele>283.299987793</ele>
        <time>2016-06-06T09:48:10.708Z</time>
      </trkpt>
      <trkpt lat="45.90982" lon="5.0169">
        <ele>282.799987793</ele>
        <time>2016-06-06T09:48:11.688Z</time>
      </trkpt>
      <trkpt lat="45.90988" lon="5.01688">
        <ele>282.200012207</ele>
        <time>2016-06-06T09:48:12.724Z</time>
      </trkpt>
      <trkpt lat="45.90995" lon="5.01685">
        <ele>281.700012207</ele>
        <time>2016-06-06T09:48:13.688Z</time>
      </trkpt>
      <trkpt lat="45.91002" lon="5.01683">
        <ele>281.399993896</ele>
        <time>2016-06-06T09:48:14.858Z</time>
      </trkpt>
      <trkpt lat="45.91009" lon="5.0168">
        <ele>281.200012207</ele>
        <time>2016-06-06T09:48:15.69Z</time>
      </trkpt>
      <trkpt lat="45.91017" lon="5.01678">
        <ele>281.100006104</ele>
        <time>2016-06-06T09:48:16.734Z</time>
      </trkpt>
      <trkpt lat="45.91024" lon="5.01674">
        <ele>281.100006104</ele>
        <time>2016-06-06T09:48:17.687Z</time>
      </trkpt>
      <trkpt lat="45.91031" lon="5.01672">
        <ele>281.100006104</ele>
        <time>2016-06-06T09:48:18.708Z</time>
      </trkpt>
      <trkpt lat="45.91038" lon="5.01668">
        <ele>280.799987793</ele>
        <time>2016-06-06T09:48:19.691Z</time>
      </trkpt>
      <trkpt lat="45.91045" lon="5.01664">
        <ele>280.399993896</ele>
        <time>2016-06-06T09:48:20.708Z</time>
      </trkpt>
      <trkpt lat="45.91053" lon="5.01661">
        <ele>279.799987793</ele>
        <time>2016-06-06T09:48:21.693Z</time>
      </trkpt>
      <trkpt lat="45.9106" lon="5.01657">
        <ele>279</ele>
        <time>2016-06-06T09:48:22.708Z</time>
      </trkpt>
      <trkpt lat="45.91068" lon="5.01655">
        <ele>278.600006104</ele>
        <time>2016-06-06T09:48:23.687Z</time>
      </trkpt>
      <trkpt lat="45.91075" lon="5.01652">
        <ele>278.200012207</ele>
        <time>2016-06-06T09:48:24.712Z</time>
      </trkpt>
      <trkpt lat="45.91083" lon="5.01649">
        <ele>277.5</ele>
        <time>2016-06-06T09:48:25.691Z</time>
      </trkpt>
      <trkpt lat="45.9109" lon="5.01646">
        <ele>276.799987793</ele>
        <time>2016-06-06T09:48:26.74Z</time>
      </trkpt>
      <trkpt lat="45.91097" lon="5.01644">
        <ele>276.399993896</ele>
        <time>2016-06-06T09:48:27.695Z</time>
      </trkpt>
      <trkpt lat="45.91104" lon="5.01642">
        <ele>275.799987793</ele>
        <time>2016-06-06T09:48:28.837Z</time>
      </trkpt>
      <trkpt lat="45.91112" lon="5.0164">
        <ele>275.600006104</ele>
        <time>2016-06-06T09:48:29.691Z</time>
      </trkpt>
      <trkpt lat="45.91119" lon="5.01638">
        <ele>275.399993896</ele>
        <time>2016-06-06T09:48:30.743Z</time>
      </trkpt>
      <trkpt lat="45.91126" lon="5.01635">
        <ele>275</ele>
        <time>2016-06-06T09:48:31.691Z</time>
      </trkpt>
      <trkpt lat="45.91133" lon="5.01632">
        <ele>274.700012207</ele>
        <time>2016-06-06T09:48:32.711Z</time>
      </trkpt>
      <trkpt lat="45.9114" lon="5.01629">
        <ele>274.700012207</ele>
        <time>2016-06-06T09:48:33.741Z</time>
      </trkpt>
      <trkpt lat="45.91146" lon="5.01627">
        <ele>274.600006104</ele>
        <time>2016-06-06T09:48:34.746Z</time>
      </trkpt>
      <trkpt lat="45.91153" lon="5.01625">
        <ele>274.700012207</ele>
        <time>2016-06-06T09:48:35.688Z</time>
      </trkpt>
      <trkpt lat="45.91159" lon="5.01622">
        <ele>274.700012207</ele>
        <time>2016-06-06T09:48:36.734Z</time>
      </trkpt>
      <trkpt lat="45.91166" lon="5.0162">
        <ele>275.100006104</ele>
        <time>2016-06-06T09:48:37.692Z</time>
      </trkpt>
      <trkpt lat="45.91171" lon="5.01617">
        <ele>275.299987793</ele>
        <time>2016-06-06T09:48:38.712Z</time>
      </trkpt>
      <trkpt lat="45.91176" lon="5.01614">
        <ele>275.5</ele>
        <time>2016-06-06T09:48:39.695Z</time>
      </trkpt>
      <trkpt lat="45.91182" lon="5.01613">
        <ele>276.100006104</ele>
        <time>2016-06-06T09:48:40.712Z</time>
      </trkpt>
      <trkpt lat="45.91187" lon="5.01611">
        <ele>276.200012207</ele>
        <time>2016-06-06T09:48:41.688Z</time>
      </trkpt>
      <trkpt lat="45.91193" lon="5.01609">
        <ele>276.100006104</ele>
        <time>2016-06-06T09:48:42.707Z</time>
      </trkpt>
      <trkpt lat="45.91198" lon="5.01608">
        <ele>276</ele>
        <time>2016-06-06T09:48:43.691Z</time>
      </trkpt>
      <trkpt lat="45.91204" lon="5.01606">
        <ele>275.700012207</ele>
        <time>2016-06-06T09:48:44.727Z</time>
      </trkpt>
      <trkpt lat="45.91209" lon="5.01605">
        <ele>275.600006104</ele>
        <time>2016-06-06T09:48:45.692Z</time>
      </trkpt>
      <trkpt lat="45.91215" lon="5.01603">
        <ele>275.600006104</ele>
        <time>2016-06-06T09:48:46.736Z</time>
      </trkpt>
      <trkpt lat="45.91221" lon="5.01601">
        <ele>275.100006104</ele>
        <time>2016-06-06T09:48:47.691Z</time>
      </trkpt>
      <trkpt lat="45.91228" lon="5.01599">
        <ele>274.799987793</ele>
        <time>2016-06-06T09:48:48.718Z</time>
      </trkpt>
      <trkpt lat="45.91234" lon="5.01597">
        <ele>274.600006104</ele>
        <time>2016-06-06T09:48:49.688Z</time>
      </trkpt>
      <trkpt lat="45.9124" lon="5.01595">
        <ele>274.200012207</ele>
        <time>2016-06-06T09:48:50.709Z</time>
      </trkpt>
      <trkpt lat="45.91246" lon="5.01594">
        <ele>274.100006104</ele>
        <time>2016-06-06T09:48:51.695Z</time>
      </trkpt>
      <trkpt lat="45.91252" lon="5.01594">
        <ele>274.399993896</ele>
        <time>2016-06-06T09:48:52.715Z</time>
      </trkpt>
      <trkpt lat="45.91257" lon="5.01593">
        <ele>274.899993896</ele>
        <time>2016-06-06T09:48:53.7Z</time>
      </trkpt>
      <trkpt lat="45.91262" lon="5.01593">
        <ele>275.5</ele>
        <time>2016-06-06T09:48:54.708Z</time>
      </trkpt>
      <trkpt lat="45.91268" lon="5.01593">
        <ele>275.299987793</ele>
        <time>2016-06-06T09:48:55.691Z</time>
      </trkpt>
      <trkpt lat="45.91273" lon="5.01592">
        <ele>275.799987793</ele>
        <time>2016-06-06T09:48:56.76Z</time>
      </trkpt>
      <trkpt lat="45.91279" lon="5.01591">
        <ele>276.399993896</ele>
        <time>2016-06-06T09:48:57.693Z</time>
      </trkpt>
      <trkpt lat="45.91284" lon="5.01592">
        <ele>277.100006104</ele>
        <time>2016-06-06T09:48:58.707Z</time>
      </trkpt>
      <trkpt lat="45.91289" lon="5.01592">
        <ele>276.899993896</ele>
        <time>2016-06-06T09:48:59.687Z</time>
      </trkpt>
      <trkpt lat="45.91295" lon="5.01593">
        <ele>277</ele>
        <time>2016-06-06T09:49:00.708Z</time>
      </trkpt>
      <trkpt lat="45.913" lon="5.01595">
        <ele>278</ele>
        <time>2016-06-06T09:49:01.689Z</time>
      </trkpt>
      <trkpt lat="45.91304" lon="5.01596">
        <ele>278.299987793</ele>
        <time>2016-06-06T09:49:02.711Z</time>
      </trkpt>
      <trkpt lat="45.91309" lon="5.01597">
        <ele>278</ele>
        <time>2016-06-06T09:49:03.741Z</time>
      </trkpt>
      <trkpt lat="45.91313" lon="5.01598">
        <ele>278.100006104</ele>
        <time>2016-06-06T09:49:04.712Z</time>
      </trkpt>
      <trkpt lat="45.91319" lon="5.01598">
        <ele>278.100006104</ele>
        <time>2016-06-06T09:49:05.687Z</time>
      </trkpt>
      <trkpt lat="45.91323" lon="5.01598">
        <ele>278.200012207</ele>
        <time>2016-06-06T09:49:06.733Z</time>
      </trkpt>
      <trkpt lat="45.91328" lon="5.016">
        <ele>279.100006104</ele>
        <time>2016-06-06T09:49:07.689Z</time>
      </trkpt>
      <trkpt lat="45.91333" lon="5.01601">
        <ele>278.799987793</ele>
        <time>2016-06-06T09:49:08.711Z</time>
      </trkpt>
      <trkpt lat="45.91338" lon="5.01602">
        <ele>278.799987793</ele>
        <time>2016-06-06T09:49:09.689Z</time>
      </trkpt>
      <trkpt lat="45.91343" lon="5.01603">
        <ele>279.200012207</ele>
        <time>2016-06-06T09:49:10.723Z</time>
      </trkpt>
      <trkpt lat="45.91348" lon="5.01604">
        <ele>279.799987793</ele>
        <time>2016-06-06T09:49:11.687Z</time>
      </trkpt>
      <trkpt lat="45.91353" lon="5.01605">
        <ele>280.100006104</ele>
        <time>2016-06-06T09:49:12.708Z</time>
      </trkpt>
      <trkpt lat="45.91357" lon="5.01606">
        <ele>280.600006104</ele>
        <time>2016-06-06T09:49:13.691Z</time>
      </trkpt>
      <trkpt lat="45.91362" lon="5.01607">
        <ele>281.100006104</ele>
        <time>2016-06-06T09:49:14.712Z</time>
      </trkpt>
      <trkpt lat="45.91366" lon="5.01609">
        <ele>281.5</ele>
        <time>2016-06-06T09:49:15.688Z</time>
      </trkpt>
      <trkpt lat="45.91371" lon="5.0161">
        <ele>281.600006104</ele>
        <time>2016-06-06T09:49:16.733Z</time>
      </trkpt>
      <trkpt lat="45.91375" lon="5.01611">
        <ele>281.399993896</ele>
        <time>2016-06-06T09:49:17.693Z</time>
      </trkpt>
      <trkpt lat="45.9138" lon="5.01612">
        <ele>281.700012207</ele>
        <time>2016-06-06T09:49:18.716Z</time>
      </trkpt>
      <trkpt lat="45.91384" lon="5.01614">
        <ele>281.899993896</ele>
        <time>2016-06-06T09:49:19.691Z</time>
      </trkpt>
      <trkpt lat="45.91392" lon="5.01617">
        <ele>282</ele>
        <time>2016-06-06T09:49:21.711Z</time>
      </trkpt>
      <trkpt lat="45.91397" lon="5.01618">
        <ele>282.399993896</ele>
        <time>2016-06-06T09:49:22.688Z</time>
      </trkpt>
      <trkpt lat="45.91402" lon="5.01619">
        <ele>282.799987793</ele>
        <time>2016-06-06T09:49:23.862Z</time>
      </trkpt>
      <trkpt lat="45.91406" lon="5.01621">
        <ele>283.399993896</ele>
        <time>2016-06-06T09:49:24.692Z</time>
      </trkpt>
      <trkpt lat="45.9141" lon="5.01622">
        <ele>283</ele>
        <time>2016-06-06T09:49:25.756Z</time>
      </trkpt>
      <trkpt lat="45.91415" lon="5.01624">
        <ele>282.799987793</ele>
        <time>2016-06-06T09:49:26.807Z</time>
      </trkpt>
      <trkpt lat="45.91423" lon="5.01626">
        <ele>282.600006104</ele>
        <time>2016-06-06T09:49:28.765Z</time>
      </trkpt>
      <trkpt lat="45.91427" lon="5.01627">
        <ele>283</ele>
        <time>2016-06-06T09:49:29.688Z</time>
      </trkpt>
      <trkpt lat="45.91436" lon="5.01626">
        <ele>283.100006104</ele>
        <time>2016-06-06T09:49:31.711Z</time>
      </trkpt>
      <trkpt lat="45.9144" lon="5.01626">
        <ele>283.299987793</ele>
        <time>2016-06-06T09:49:32.691Z</time>
      </trkpt>
      <trkpt lat="45.91448" lon="5.01624">
        <ele>284.100006104</ele>
        <time>2016-06-06T09:49:34.712Z</time>
      </trkpt>
      <trkpt lat="45.91452" lon="5.01622">
        <ele>284.100006104</ele>
        <time>2016-06-06T09:49:35.69Z</time>
      </trkpt>
      <trkpt lat="45.91459" lon="5.01615">
        <ele>284.5</ele>
        <time>2016-06-06T09:49:37.711Z</time>
      </trkpt>
      <trkpt lat="45.91462" lon="5.01611">
        <ele>284.5</ele>
        <time>2016-06-06T09:49:38.689Z</time>
      </trkpt>
      <trkpt lat="45.91469" lon="5.01603">
        <ele>284.100006104</ele>
        <time>2016-06-06T09:49:40.708Z</time>
      </trkpt>
      <trkpt lat="45.91472" lon="5.01599">
        <ele>283.799987793</ele>
        <time>2016-06-06T09:49:41.685Z</time>
      </trkpt>
      <trkpt lat="45.91475" lon="5.01595">
        <ele>283.799987793</ele>
        <time>2016-06-06T09:49:42.735Z</time>
      </trkpt>
      <trkpt lat="45.91478" lon="5.0159">
        <ele>283.399993896</ele>
        <time>2016-06-06T09:49:43.694Z</time>
      </trkpt>
      <trkpt lat="45.91481" lon="5.01584">
        <ele>283.100006104</ele>
        <time>2016-06-06T09:49:44.714Z</time>
      </trkpt>
      <trkpt lat="45.91484" lon="5.01579">
        <ele>283.100006104</ele>
        <time>2016-06-06T09:49:45.694Z</time>
      </trkpt>
      <trkpt lat="45.91487" lon="5.01574">
        <ele>283.100006104</ele>
        <time>2016-06-06T09:49:46.754Z</time>
      </trkpt>
      <trkpt lat="45.91491" lon="5.01568">
        <ele>282.899993896</ele>
        <time>2016-06-06T09:49:47.69Z</time>
      </trkpt>
      <trkpt lat="45.91494" lon="5.01562">
        <ele>282.700012207</ele>
        <time>2016-06-06T09:49:48.733Z</time>
      </trkpt>
      <trkpt lat="45.91497" lon="5.01557">
        <ele>282.399993896</ele>
        <time>2016-06-06T09:49:49.691Z</time>
      </trkpt>
      <trkpt lat="45.91501" lon="5.01552">
        <ele>282.200012207</ele>
        <time>2016-06-06T09:49:50.711Z</time>
      </trkpt>
      <trkpt lat="45.91504" lon="5.01546">
        <ele>282</ele>
        <time>2016-06-06T09:49:51.696Z</time>
      </trkpt>
      <trkpt lat="45.91508" lon="5.01541">
        <ele>282.100006104</ele>
        <time>2016-06-06T09:49:52.711Z</time>
      </trkpt>
      <trkpt lat="45.91512" lon="5.01537">
        <ele>282.100006104</ele>
        <time>2016-06-06T09:49:53.691Z</time>
      </trkpt>
      <trkpt lat="45.91516" lon="5.01533">
        <ele>282.200012207</ele>
        <time>2016-06-06T09:49:54.707Z</time>
      </trkpt>
      <trkpt lat="45.9152" lon="5.01528">
        <ele>281.899993896</ele>
        <time>2016-06-06T09:49:55.686Z</time>
      </trkpt>
      <trkpt lat="45.91525" lon="5.01523">
        <ele>281.700012207</ele>
        <time>2016-06-06T09:49:56.734Z</time>
      </trkpt>
      <trkpt lat="45.91529" lon="5.01518">
        <ele>281.5</ele>
        <time>2016-06-06T09:49:57.695Z</time>
      </trkpt>
      <trkpt lat="45.91534" lon="5.01513">
        <ele>281.399993896</ele>
        <time>2016-06-06T09:49:58.711Z</time>
      </trkpt>
      <trkpt lat="45.91539" lon="5.01508">
        <ele>281.200012207</ele>
        <time>2016-06-06T09:49:59.692Z</time>
      </trkpt>
      <trkpt lat="45.91543" lon="5.01503">
        <ele>281.200012207</ele>
        <time>2016-06-06T09:50:00.711Z</time>
      </trkpt>
      <trkpt lat="45.91548" lon="5.01497">
        <ele>281.100006104</ele>
        <time>2016-06-06T09:50:01.688Z</time>
      </trkpt>
      <trkpt lat="45.91553" lon="5.01491">
        <ele>281.299987793</ele>
        <time>2016-06-06T09:50:02.724Z</time>
      </trkpt>
      <trkpt lat="45.91558" lon="5.01486">
        <ele>281.5</ele>
        <time>2016-06-06T09:50:03.691Z</time>
      </trkpt>
      <trkpt lat="45.91562" lon="5.01481">
        <ele>281.799987793</ele>
        <time>2016-06-06T09:50:04.721Z</time>
      </trkpt>
      <trkpt lat="45.91567" lon="5.01477">
        <ele>282.200012207</ele>
        <time>2016-06-06T09:50:05.69Z</time>
      </trkpt>
      <trkpt lat="45.91571" lon="5.01472">
        <ele>282.399993896</ele>
        <time>2016-06-06T09:50:06.734Z</time>
      </trkpt>
      <trkpt lat="45.91575" lon="5.01467">
        <ele>282.200012207</ele>
        <time>2016-06-06T09:50:07.691Z</time>
      </trkpt>
      <trkpt lat="45.91579" lon="5.01463">
        <ele>282.399993896</ele>
        <time>2016-06-06T09:50:08.711Z</time>
      </trkpt>
      <trkpt lat="45.91583" lon="5.01458">
        <ele>282.600006104</ele>
        <time>2016-06-06T09:50:09.693Z</time>
      </trkpt>
      <trkpt lat="45.91587" lon="5.01453">
        <ele>282.799987793</ele>
        <time>2016-06-06T09:50:10.714Z</time>
      </trkpt>
      <trkpt lat="45.91591" lon="5.01448">
        <ele>282.799987793</ele>
        <time>2016-06-06T09:50:11.687Z</time>
      </trkpt>
      <trkpt lat="45.91596" lon="5.01443">
        <ele>283.100006104</ele>
        <time>2016-06-06T09:50:12.708Z</time>
      </trkpt>
      <trkpt lat="45.916" lon="5.01438">
        <ele>282.899993896</ele>
        <time>2016-06-06T09:50:13.688Z</time>
      </trkpt>
      <trkpt lat="45.91604" lon="5.01434">
        <ele>282.399993896</ele>
        <time>2016-06-06T09:50:14.713Z</time>
      </trkpt>
      <trkpt lat="45.91608" lon="5.01429">
        <ele>282.399993896</ele>
        <time>2016-06-06T09:50:15.692Z</time>
      </trkpt>
      <trkpt lat="45.91615" lon="5.01422">
        <ele>282.299987793</ele>
        <time>2016-06-06T09:50:17.71Z</time>
      </trkpt>
      <trkpt lat="45.91618" lon="5.01419">
        <ele>282.399993896</ele>
        <time>2016-06-06T09:50:18.707Z</time>
      </trkpt>
      <trkpt lat="45.91625" lon="5.01413">
        <ele>282.5</ele>
        <time>2016-06-06T09:50:20.711Z</time>
      </trkpt>
      <trkpt lat="45.91629" lon="5.0141">
        <ele>283</ele>
        <time>2016-06-06T09:50:21.691Z</time>
      </trkpt>
      <trkpt lat="45.91633" lon="5.01407">
        <ele>283.299987793</ele>
        <time>2016-06-06T09:50:22.708Z</time>
      </trkpt>
      <trkpt lat="45.91638" lon="5.01404">
        <ele>283.399993896</ele>
        <time>2016-06-06T09:50:23.688Z</time>
      </trkpt>
      <trkpt lat="45.91642" lon="5.01401">
        <ele>283.600006104</ele>
        <time>2016-06-06T09:50:24.735Z</time>
      </trkpt>
      <trkpt lat="45.91647" lon="5.01397">
        <ele>283.700012207</ele>
        <time>2016-06-06T09:50:25.686Z</time>
      </trkpt>
      <trkpt lat="45.91651" lon="5.01394">
        <ele>283.799987793</ele>
        <time>2016-06-06T09:50:26.74Z</time>
      </trkpt>
      <trkpt lat="45.91656" lon="5.01392">
        <ele>283.899993896</ele>
        <time>2016-06-06T09:50:27.692Z</time>
      </trkpt>
      <trkpt lat="45.9166" lon="5.01389">
        <ele>284</ele>
        <time>2016-06-06T09:50:28.708Z</time>
      </trkpt>
      <trkpt lat="45.91665" lon="5.01386">
        <ele>283.600006104</ele>
        <time>2016-06-06T09:50:29.69Z</time>
      </trkpt>
      <trkpt lat="45.9167" lon="5.01385">
        <ele>283.100006104</ele>
        <time>2016-06-06T09:50:30.715Z</time>
      </trkpt>
      <trkpt lat="45.91674" lon="5.01383">
        <ele>283.399993896</ele>
        <time>2016-06-06T09:50:31.688Z</time>
      </trkpt>
      <trkpt lat="45.91679" lon="5.01381">
        <ele>283.299987793</ele>
        <time>2016-06-06T09:50:32.711Z</time>
      </trkpt>
      <trkpt lat="45.91683" lon="5.01379">
        <ele>283.399993896</ele>
        <time>2016-06-06T09:50:33.689Z</time>
      </trkpt>
      <trkpt lat="45.91688" lon="5.01376">
        <ele>283.299987793</ele>
        <time>2016-06-06T09:50:34.725Z</time>
      </trkpt>
      <trkpt lat="45.91692" lon="5.01373">
        <ele>283.299987793</ele>
        <time>2016-06-06T09:50:35.69Z</time>
      </trkpt>
      <trkpt lat="45.91696" lon="5.01371">
        <ele>283.299987793</ele>
        <time>2016-06-06T09:50:36.731Z</time>
      </trkpt>
      <trkpt lat="45.91701" lon="5.01368">
        <ele>283.5</ele>
        <time>2016-06-06T09:50:37.688Z</time>
      </trkpt>
      <trkpt lat="45.91705" lon="5.01366">
        <ele>283.399993896</ele>
        <time>2016-06-06T09:50:38.738Z</time>
      </trkpt>
      <trkpt lat="45.9171" lon="5.01364">
        <ele>283.399993896</ele>
        <time>2016-06-06T09:50:39.689Z</time>
      </trkpt>
      <trkpt lat="45.91714" lon="5.01361">
        <ele>283.5</ele>
        <time>2016-06-06T09:50:40.711Z</time>
      </trkpt>
      <trkpt lat="45.91719" lon="5.01358">
        <ele>283.5</ele>
        <time>2016-06-06T09:50:41.687Z</time>
      </trkpt>
      <trkpt lat="45.91724" lon="5.01356">
        <ele>283.399993896</ele>
        <time>2016-06-06T09:50:42.707Z</time>
      </trkpt>
      <trkpt lat="45.91728" lon="5.01353">
        <ele>283.200012207</ele>
        <time>2016-06-06T09:50:43.686Z</time>
      </trkpt>
      <trkpt lat="45.91733" lon="5.0135">
        <ele>283.200012207</ele>
        <time>2016-06-06T09:50:44.736Z</time>
      </trkpt>
      <trkpt lat="45.91738" lon="5.01348">
        <ele>283.100006104</ele>
        <time>2016-06-06T09:50:45.689Z</time>
      </trkpt>
      <trkpt lat="45.91742" lon="5.01346">
        <ele>283.200012207</ele>
        <time>2016-06-06T09:50:46.724Z</time>
      </trkpt>
      <trkpt lat="45.91747" lon="5.01344">
        <ele>283.299987793</ele>
        <time>2016-06-06T09:50:47.687Z</time>
      </trkpt>
      <trkpt lat="45.91756" lon="5.01341">
        <ele>283.299987793</ele>
        <time>2016-06-06T09:50:49.708Z</time>
      </trkpt>
      <trkpt lat="45.9176" lon="5.01338">
        <ele>283.399993896</ele>
        <time>2016-06-06T09:50:50.688Z</time>
      </trkpt>
      <trkpt lat="45.91764" lon="5.01336">
        <ele>283.600006104</ele>
        <time>2016-06-06T09:50:51.714Z</time>
      </trkpt>
      <trkpt lat="45.91769" lon="5.01333">
        <ele>283.700012207</ele>
        <time>2016-06-06T09:50:52.686Z</time>
      </trkpt>
      <trkpt lat="45.91774" lon="5.01331">
        <ele>284.100006104</ele>
        <time>2016-06-06T09:50:53.741Z</time>
      </trkpt>
      <trkpt lat="45.91779" lon="5.01329">
        <ele>284.200012207</ele>
        <time>2016-06-06T09:50:54.691Z</time>
      </trkpt>
      <trkpt lat="45.91785" lon="5.01327">
        <ele>284.100006104</ele>
        <time>2016-06-06T09:50:55.722Z</time>
      </trkpt>
      <trkpt lat="45.9179" lon="5.01324">
        <ele>283.899993896</ele>
        <time>2016-06-06T09:50:56.691Z</time>
      </trkpt>
      <trkpt lat="45.91794" lon="5.01322">
        <ele>284</ele>
        <time>2016-06-06T09:50:57.739Z</time>
      </trkpt>
      <trkpt lat="45.918" lon="5.0132">
        <ele>283.899993896</ele>
        <time>2016-06-06T09:50:58.691Z</time>
      </trkpt>
      <trkpt lat="45.91804" lon="5.01318">
        <ele>284.100006104</ele>
        <time>2016-06-06T09:50:59.713Z</time>
      </trkpt>
      <trkpt lat="45.91809" lon="5.01317">
        <ele>284.200012207</ele>
        <time>2016-06-06T09:51:00.691Z</time>
      </trkpt>
      <trkpt lat="45.91814" lon="5.01317">
        <ele>284</ele>
        <time>2016-06-06T09:51:01.713Z</time>
      </trkpt>
      <trkpt lat="45.91819" lon="5.01316">
        <ele>284</ele>
        <time>2016-06-06T09:51:02.692Z</time>
      </trkpt>
      <trkpt lat="45.91824" lon="5.01315">
        <ele>284.399993896</ele>
        <time>2016-06-06T09:51:03.746Z</time>
      </trkpt>
      <trkpt lat="45.91828" lon="5.01315">
        <ele>284.600006104</ele>
        <time>2016-06-06T09:51:04.691Z</time>
      </trkpt>
      <trkpt lat="45.91832" lon="5.01316">
        <ele>284.899993896</ele>
        <time>2016-06-06T09:51:05.709Z</time>
      </trkpt>
      <trkpt lat="45.91837" lon="5.01316">
        <ele>285.399993896</ele>
        <time>2016-06-06T09:51:06.69Z</time>
      </trkpt>
      <trkpt lat="45.91842" lon="5.01315">
        <ele>286</ele>
        <time>2016-06-06T09:51:07.711Z</time>
      </trkpt>
      <trkpt lat="45.91846" lon="5.01315">
        <ele>286.700012207</ele>
        <time>2016-06-06T09:51:08.691Z</time>
      </trkpt>
      <trkpt lat="45.91854" lon="5.01315">
        <ele>287.5</ele>
        <time>2016-06-06T09:51:10.711Z</time>
      </trkpt>
      <trkpt lat="45.91858" lon="5.01315">
        <ele>287.5</ele>
        <time>2016-06-06T09:51:11.705Z</time>
      </trkpt>
      <trkpt lat="45.91865" lon="5.01316">
        <ele>288.5</ele>
        <time>2016-06-06T09:51:13.738Z</time>
      </trkpt>
      <trkpt lat="45.91869" lon="5.01317">
        <ele>289.100006104</ele>
        <time>2016-06-06T09:51:14.687Z</time>
      </trkpt>
      <trkpt lat="45.91876" lon="5.01316">
        <ele>290.399993896</ele>
        <time>2016-06-06T09:51:16.746Z</time>
      </trkpt>
      <trkpt lat="45.91879" lon="5.01315">
        <ele>290.600006104</ele>
        <time>2016-06-06T09:51:17.689Z</time>
      </trkpt>
      <trkpt lat="45.91887" lon="5.01315">
        <ele>291.799987793</ele>
        <time>2016-06-06T09:51:19.711Z</time>
      </trkpt>
      <trkpt lat="45.91892" lon="5.01314">
        <ele>292</ele>
        <time>2016-06-06T09:51:20.69Z</time>
      </trkpt>
      <trkpt lat="45.919" lon="5.01313">
        <ele>292</ele>
        <time>2016-06-06T09:51:22.779Z</time>
      </trkpt>
      <trkpt lat="45.91903" lon="5.01313">
        <ele>292.399993896</ele>
        <time>2016-06-06T09:51:23.687Z</time>
      </trkpt>
      <trkpt lat="45.9191" lon="5.0131">
        <ele>293.200012207</ele>
        <time>2016-06-06T09:51:25.711Z</time>
      </trkpt>
      <trkpt lat="45.91914" lon="5.0131">
        <ele>293.399993896</ele>
        <time>2016-06-06T09:51:26.686Z</time>
      </trkpt>
      <trkpt lat="45.91922" lon="5.01308">
        <ele>293.200012207</ele>
        <time>2016-06-06T09:51:28.711Z</time>
      </trkpt>
      <trkpt lat="45.91927" lon="5.01307">
        <ele>293.100006104</ele>
        <time>2016-06-06T09:51:29.69Z</time>
      </trkpt>
      <trkpt lat="45.91931" lon="5.01307">
        <ele>292.399993896</ele>
        <time>2016-06-06T09:51:30.71Z</time>
      </trkpt>
      <trkpt lat="45.91936" lon="5.01307">
        <ele>292</ele>
        <time>2016-06-06T09:51:31.69Z</time>
      </trkpt>
      <trkpt lat="45.91941" lon="5.01307">
        <ele>291.600006104</ele>
        <time>2016-06-06T09:51:32.742Z</time>
      </trkpt>
      <trkpt lat="45.91947" lon="5.01309">
        <ele>291.700012207</ele>
        <time>2016-06-06T09:51:33.694Z</time>
      </trkpt>
      <trkpt lat="45.91952" lon="5.01309">
        <ele>292.5</ele>
        <time>2016-06-06T09:51:34.707Z</time>
      </trkpt>
      <trkpt lat="45.91957" lon="5.01309">
        <ele>292.5</ele>
        <time>2016-06-06T09:51:35.686Z</time>
      </trkpt>
      <trkpt lat="45.91962" lon="5.01308">
        <ele>292.299987793</ele>
        <time>2016-06-06T09:51:36.707Z</time>
      </trkpt>
      <trkpt lat="45.91968" lon="5.01308">
        <ele>292.5</ele>
        <time>2016-06-06T09:51:37.687Z</time>
      </trkpt>
      <trkpt lat="45.91974" lon="5.01306">
        <ele>292.5</ele>
        <time>2016-06-06T09:51:38.707Z</time>
      </trkpt>
      <trkpt lat="45.91979" lon="5.01305">
        <ele>292</ele>
        <time>2016-06-06T09:51:39.693Z</time>
      </trkpt>
      <trkpt lat="45.91985" lon="5.01305">
        <ele>291.799987793</ele>
        <time>2016-06-06T09:51:40.821Z</time>
      </trkpt>
      <trkpt lat="45.9199" lon="5.01304">
        <ele>292.200012207</ele>
        <time>2016-06-06T09:51:41.688Z</time>
      </trkpt>
      <trkpt lat="45.91995" lon="5.01302">
        <ele>291.600006104</ele>
        <time>2016-06-06T09:51:42.71Z</time>
      </trkpt>
      <trkpt lat="45.92001" lon="5.013">
        <ele>291.399993896</ele>
        <time>2016-06-06T09:51:43.691Z</time>
      </trkpt>
      <trkpt lat="45.92006" lon="5.01297">
        <ele>291</ele>
        <time>2016-06-06T09:51:44.711Z</time>
      </trkpt>
      <trkpt lat="45.92011" lon="5.01295">
        <ele>290.600006104</ele>
        <time>2016-06-06T09:51:45.69Z</time>
      </trkpt>
      <trkpt lat="45.92017" lon="5.01292">
        <ele>290.200012207</ele>
        <time>2016-06-06T09:51:46.707Z</time>
      </trkpt>
      <trkpt lat="45.92022" lon="5.0129">
        <ele>289.200012207</ele>
        <time>2016-06-06T09:51:47.69Z</time>
      </trkpt>
      <trkpt lat="45.92027" lon="5.01286">
        <ele>288.899993896</ele>
        <time>2016-06-06T09:51:48.726Z</time>
      </trkpt>
      <trkpt lat="45.92032" lon="5.01282">
        <ele>287.600006104</ele>
        <time>2016-06-06T09:51:49.691Z</time>
      </trkpt>
      <trkpt lat="45.92039" lon="5.01274">
        <ele>287.100006104</ele>
        <time>2016-06-06T09:51:51.714Z</time>
      </trkpt>
      <trkpt lat="45.92041" lon="5.01271">
        <ele>287.100006104</ele>
        <time>2016-06-06T09:51:52.691Z</time>
      </trkpt>
      <trkpt lat="45.92043" lon="5.01267">
        <ele>286.399993896</ele>
        <time>2016-06-06T09:51:54.711Z</time>
      </trkpt>
      <trkpt lat="45.92043" lon="5.01266">
        <ele>286.200012207</ele>
        <time>2016-06-06T09:51:55.691Z</time>
      </trkpt>
      <trkpt lat="45.92042" lon="5.01265">
        <ele>285.299987793</ele>
        <time>2016-06-06T09:52:04.727Z</time>
      </trkpt>
      <trkpt lat="45.92043" lon="5.01264">
        <ele>285.299987793</ele>
        <time>2016-06-06T09:52:05.69Z</time>
      </trkpt>
      <trkpt lat="45.92045" lon="5.01253">
        <ele>285.299987793</ele>
        <time>2016-06-06T09:52:17.712Z</time>
      </trkpt>
      <trkpt lat="45.92046" lon="5.01251">
        <ele>285.299987793</ele>
        <time>2016-06-06T09:52:18.69Z</time>
      </trkpt>
      <trkpt lat="45.92047" lon="5.01239">
        <ele>286.399993896</ele>
        <time>2016-06-06T09:57:06.706Z</time>
      </trkpt>
      <trkpt lat="45.92047" lon="5.01238">
        <ele>286.5</ele>
        <time>2016-06-06T09:57:07.686Z</time>
      </trkpt>
      <trkpt lat="45.92053" lon="5.01247">
        <ele>287.100006104</ele>
        <time>2016-06-06T09:58:08.707Z</time>
      </trkpt>
      <trkpt lat="45.92053" lon="5.01247">
        <ele>287.200012207</ele>
        <time>2016-06-06T09:58:09.736Z</time>
      </trkpt>
      <trkpt lat="45.92062" lon="5.0125">
        <ele>287.899993896</ele>
        <time>2016-06-06T09:58:20.707Z</time>
      </trkpt>
      <trkpt lat="45.92063" lon="5.01249">
        <ele>288</ele>
        <time>2016-06-06T09:58:21.693Z</time>
      </trkpt>
      <trkpt lat="45.92071" lon="5.01247">
        <ele>288</ele>
        <time>2016-06-06T09:58:24.706Z</time>
      </trkpt>
      <trkpt lat="45.92075" lon="5.01245">
        <ele>288.100006104</ele>
        <time>2016-06-06T09:58:25.689Z</time>
      </trkpt>
      <trkpt lat="45.92083" lon="5.0124">
        <ele>288.100006104</ele>
        <time>2016-06-06T09:58:27.714Z</time>
      </trkpt>
      <trkpt lat="45.92087" lon="5.01237">
        <ele>288.399993896</ele>
        <time>2016-06-06T09:58:28.684Z</time>
      </trkpt>
      <trkpt lat="45.92094" lon="5.01232">
        <ele>289.100006104</ele>
        <time>2016-06-06T09:58:30.707Z</time>
      </trkpt>
      <trkpt lat="45.92098" lon="5.01229">
        <ele>289.5</ele>
        <time>2016-06-06T09:58:31.684Z</time>
      </trkpt>
      <trkpt lat="45.92105" lon="5.01223">
        <ele>290</ele>
        <time>2016-06-06T09:58:33.727Z</time>
      </trkpt>
      <trkpt lat="45.92109" lon="5.0122">
        <ele>290.200012207</ele>
        <time>2016-06-06T09:58:34.686Z</time>
      </trkpt>
      <trkpt lat="45.92113" lon="5.01217">
        <ele>290.100006104</ele>
        <time>2016-06-06T09:58:35.708Z</time>
      </trkpt>
      <trkpt lat="45.92118" lon="5.01214">
        <ele>290.5</ele>
        <time>2016-06-06T09:58:36.689Z</time>
      </trkpt>
      <trkpt lat="45.92122" lon="5.01212">
        <ele>291</ele>
        <time>2016-06-06T09:58:37.706Z</time>
      </trkpt>
      <trkpt lat="45.92127" lon="5.01209">
        <ele>291.299987793</ele>
        <time>2016-06-06T09:58:38.69Z</time>
      </trkpt>
      <trkpt lat="45.92132" lon="5.01206">
        <ele>291.600006104</ele>
        <time>2016-06-06T09:58:39.713Z</time>
      </trkpt>
      <trkpt lat="45.92136" lon="5.01203">
        <ele>291.700012207</ele>
        <time>2016-06-06T09:58:40.689Z</time>
      </trkpt>
      <trkpt lat="45.92144" lon="5.01197">
        <ele>292.5</ele>
        <time>2016-06-06T09:58:42.709Z</time>
      </trkpt>
      <trkpt lat="45.92148" lon="5.01194">
        <ele>292.700012207</ele>
        <time>2016-06-06T09:58:43.686Z</time>
      </trkpt>
      <trkpt lat="45.92153" lon="5.01192">
        <ele>292.899993896</ele>
        <time>2016-06-06T09:58:44.706Z</time>
      </trkpt>
      <trkpt lat="45.92157" lon="5.01189">
        <ele>293.200012207</ele>
        <time>2016-06-06T09:58:45.688Z</time>
      </trkpt>
      <trkpt lat="45.92161" lon="5.01186">
        <ele>293.399993896</ele>
        <time>2016-06-06T09:58:46.763Z</time>
      </trkpt>
      <trkpt lat="45.92166" lon="5.01184">
        <ele>293.399993896</ele>
        <time>2016-06-06T09:58:47.695Z</time>
      </trkpt>
      <trkpt lat="45.9217" lon="5.01182">
        <ele>293.5</ele>
        <time>2016-06-06T09:58:48.766Z</time>
      </trkpt>
      <trkpt lat="45.92175" lon="5.0118">
        <ele>293.799987793</ele>
        <time>2016-06-06T09:58:49.685Z</time>
      </trkpt>
      <trkpt lat="45.9218" lon="5.01178">
        <ele>293.899993896</ele>
        <time>2016-06-06T09:58:50.706Z</time>
      </trkpt>
      <trkpt lat="45.92185" lon="5.01176">
        <ele>293.899993896</ele>
        <time>2016-06-06T09:58:51.692Z</time>
      </trkpt>
      <trkpt lat="45.92191" lon="5.01175">
        <ele>293.700012207</ele>
        <time>2016-06-06T09:58:52.706Z</time>
      </trkpt>
      <trkpt lat="45.92195" lon="5.01175">
        <ele>293.399993896</ele>
        <time>2016-06-06T09:58:53.716Z</time>
      </trkpt>
      <trkpt lat="45.92201" lon="5.01174">
        <ele>293.299987793</ele>
        <time>2016-06-06T09:58:54.72Z</time>
      </trkpt>
      <trkpt lat="45.92205" lon="5.01173">
        <ele>293.200012207</ele>
        <time>2016-06-06T09:58:55.687Z</time>
      </trkpt>
      <trkpt lat="45.9221" lon="5.01172">
        <ele>293.200012207</ele>
        <time>2016-06-06T09:58:56.707Z</time>
      </trkpt>
      <trkpt lat="45.92214" lon="5.01171">
        <ele>293.100006104</ele>
        <time>2016-06-06T09:58:57.688Z</time>
      </trkpt>
      <trkpt lat="45.92219" lon="5.01171">
        <ele>292.899993896</ele>
        <time>2016-06-06T09:58:58.882Z</time>
      </trkpt>
      <trkpt lat="45.92224" lon="5.01171">
        <ele>292.399993896</ele>
        <time>2016-06-06T09:58:59.688Z</time>
      </trkpt>
      <trkpt lat="45.92228" lon="5.01171">
        <ele>292.299987793</ele>
        <time>2016-06-06T09:59:00.707Z</time>
      </trkpt>
      <trkpt lat="45.92233" lon="5.0117">
        <ele>292.299987793</ele>
        <time>2016-06-06T09:59:01.685Z</time>
      </trkpt>
      <trkpt lat="45.92238" lon="5.01168">
        <ele>292.299987793</ele>
        <time>2016-06-06T09:59:02.705Z</time>
      </trkpt>
      <trkpt lat="45.92243" lon="5.01166">
        <ele>291.700012207</ele>
        <time>2016-06-06T09:59:03.691Z</time>
      </trkpt>
      <trkpt lat="45.92248" lon="5.01165">
        <ele>291.100006104</ele>
        <time>2016-06-06T09:59:04.706Z</time>
      </trkpt>
      <trkpt lat="45.92253" lon="5.01163">
        <ele>290.899993896</ele>
        <time>2016-06-06T09:59:05.688Z</time>
      </trkpt>
      <trkpt lat="45.92258" lon="5.01161">
        <ele>290.5</ele>
        <time>2016-06-06T09:59:06.706Z</time>
      </trkpt>
      <trkpt lat="45.92263" lon="5.0116">
        <ele>290.899993896</ele>
        <time>2016-06-06T09:59:07.683Z</time>
      </trkpt>
      <trkpt lat="45.92268" lon="5.01158">
        <ele>290.799987793</ele>
        <time>2016-06-06T09:59:08.719Z</time>
      </trkpt>
      <trkpt lat="45.92272" lon="5.01157">
        <ele>290.799987793</ele>
        <time>2016-06-06T09:59:09.691Z</time>
      </trkpt>
      <trkpt lat="45.92277" lon="5.01156">
        <ele>290.799987793</ele>
        <time>2016-06-06T09:59:10.705Z</time>
      </trkpt>
      <trkpt lat="45.92281" lon="5.01154">
        <ele>290.700012207</ele>
        <time>2016-06-06T09:59:11.69Z</time>
      </trkpt>
      <trkpt lat="45.9229" lon="5.01151">
        <ele>291</ele>
        <time>2016-06-06T09:59:13.765Z</time>
      </trkpt>
      <trkpt lat="45.92294" lon="5.0115">
        <ele>291</ele>
        <time>2016-06-06T09:59:14.686Z</time>
      </trkpt>
      <trkpt lat="45.92303" lon="5.01147">
        <ele>291.299987793</ele>
        <time>2016-06-06T09:59:16.71Z</time>
      </trkpt>
      <trkpt lat="45.92307" lon="5.01146">
        <ele>291.399993896</ele>
        <time>2016-06-06T09:59:17.687Z</time>
      </trkpt>
      <trkpt lat="45.92312" lon="5.01145">
        <ele>291.399993896</ele>
        <time>2016-06-06T09:59:18.706Z</time>
      </trkpt>
      <trkpt lat="45.92316" lon="5.01143">
        <ele>291.399993896</ele>
        <time>2016-06-06T09:59:19.689Z</time>
      </trkpt>
      <trkpt lat="45.92321" lon="5.01142">
        <ele>292.100006104</ele>
        <time>2016-06-06T09:59:20.721Z</time>
      </trkpt>
      <trkpt lat="45.92325" lon="5.0114">
        <ele>292</ele>
        <time>2016-06-06T09:59:21.695Z</time>
      </trkpt>
      <trkpt lat="45.92333" lon="5.01136">
        <ele>292</ele>
        <time>2016-06-06T09:59:23.707Z</time>
      </trkpt>
      <trkpt lat="45.92337" lon="5.01134">
        <ele>292.299987793</ele>
        <time>2016-06-06T09:59:24.686Z</time>
      </trkpt>
      <trkpt lat="45.92345" lon="5.01131">
        <ele>292.200012207</ele>
        <time>2016-06-06T09:59:26.706Z</time>
      </trkpt>
      <trkpt lat="45.92348" lon="5.01129">
        <ele>292.399993896</ele>
        <time>2016-06-06T09:59:27.688Z</time>
      </trkpt>
      <trkpt lat="45.92356" lon="5.01126">
        <ele>292.200012207</ele>
        <time>2016-06-06T09:59:29.707Z</time>
      </trkpt>
      <trkpt lat="45.92359" lon="5.01123">
        <ele>292.200012207</ele>
        <time>2016-06-06T09:59:30.686Z</time>
      </trkpt>
      <trkpt lat="45.92366" lon="5.01119">
        <ele>293</ele>
        <time>2016-06-06T09:59:32.707Z</time>
      </trkpt>
      <trkpt lat="45.9237" lon="5.01118">
        <ele>293.200012207</ele>
        <time>2016-06-06T09:59:33.692Z</time>
      </trkpt>
      <trkpt lat="45.92376" lon="5.01114">
        <ele>293.600006104</ele>
        <time>2016-06-06T09:59:35.709Z</time>
      </trkpt>
      <trkpt lat="45.92378" lon="5.01112">
        <ele>293.700012207</ele>
        <time>2016-06-06T09:59:36.686Z</time>
      </trkpt>
      <trkpt lat="45.92382" lon="5.01104">
        <ele>293.600006104</ele>
        <time>2016-06-06T09:59:38.705Z</time>
      </trkpt>
      <trkpt lat="45.92385" lon="5.01099">
        <ele>293.600006104</ele>
        <time>2016-06-06T09:59:39.691Z</time>
      </trkpt>
      <trkpt lat="45.92391" lon="5.01092">
        <ele>293.299987793</ele>
        <time>2016-06-06T09:59:41.724Z</time>
      </trkpt>
      <trkpt lat="45.92395" lon="5.01087">
        <ele>293</ele>
        <time>2016-06-06T09:59:42.825Z</time>
      </trkpt>
      <trkpt lat="45.92399" lon="5.01083">
        <ele>292.700012207</ele>
        <time>2016-06-06T09:59:43.709Z</time>
      </trkpt>
      <trkpt lat="45.92403" lon="5.0108">
        <ele>292.600006104</ele>
        <time>2016-06-06T09:59:44.69Z</time>
      </trkpt>
      <trkpt lat="45.92407" lon="5.01077">
        <ele>292.200012207</ele>
        <time>2016-06-06T09:59:45.71Z</time>
      </trkpt>
      <trkpt lat="45.92411" lon="5.01075">
        <ele>291.899993896</ele>
        <time>2016-06-06T09:59:46.684Z</time>
      </trkpt>
      <trkpt lat="45.9242" lon="5.01073">
        <ele>291.600006104</ele>
        <time>2016-06-06T09:59:48.706Z</time>
      </trkpt>
      <trkpt lat="45.92425" lon="5.01072">
        <ele>291.600006104</ele>
        <time>2016-06-06T09:59:49.686Z</time>
      </trkpt>
      <trkpt lat="45.92429" lon="5.01071">
        <ele>291.5</ele>
        <time>2016-06-06T09:59:50.706Z</time>
      </trkpt>
      <trkpt lat="45.92434" lon="5.01071">
        <ele>291.299987793</ele>
        <time>2016-06-06T09:59:51.704Z</time>
      </trkpt>
      <trkpt lat="45.92439" lon="5.0107">
        <ele>291.299987793</ele>
        <time>2016-06-06T09:59:52.76Z</time>
      </trkpt>
      <trkpt lat="45.92444" lon="5.01068">
        <ele>291.200012207</ele>
        <time>2016-06-06T09:59:53.767Z</time>
      </trkpt>
      <trkpt lat="45.92449" lon="5.01067">
        <ele>291.200012207</ele>
        <time>2016-06-06T09:59:54.714Z</time>
      </trkpt>
      <trkpt lat="45.92454" lon="5.01067">
        <ele>291.100006104</ele>
        <time>2016-06-06T09:59:55.689Z</time>
      </trkpt>
      <trkpt lat="45.92459" lon="5.01067">
        <ele>290.899993896</ele>
        <time>2016-06-06T09:59:56.714Z</time>
      </trkpt>
      <trkpt lat="45.92464" lon="5.01066">
        <ele>291</ele>
        <time>2016-06-06T09:59:57.693Z</time>
      </trkpt>
      <trkpt lat="45.92469" lon="5.01066">
        <ele>290.700012207</ele>
        <time>2016-06-06T09:59:58.713Z</time>
      </trkpt>
      <trkpt lat="45.92474" lon="5.01065">
        <ele>290.5</ele>
        <time>2016-06-06T09:59:59.831Z</time>
      </trkpt>
      <trkpt lat="45.92479" lon="5.01064">
        <ele>290.200012207</ele>
        <time>2016-06-06T10:00:00.725Z</time>
      </trkpt>
      <trkpt lat="45.92484" lon="5.01064">
        <ele>290</ele>
        <time>2016-06-06T10:00:01.692Z</time>
      </trkpt>
      <trkpt lat="45.92489" lon="5.01064">
        <ele>289.899993896</ele>
        <time>2016-06-06T10:00:02.721Z</time>
      </trkpt>
      <trkpt lat="45.92494" lon="5.01064">
        <ele>289.799987793</ele>
        <time>2016-06-06T10:00:03.722Z</time>
      </trkpt>
      <trkpt lat="45.92499" lon="5.01064">
        <ele>289.899993896</ele>
        <time>2016-06-06T10:00:04.714Z</time>
      </trkpt>
      <trkpt lat="45.92504" lon="5.01064">
        <ele>290.200012207</ele>
        <time>2016-06-06T10:00:05.688Z</time>
      </trkpt>
      <trkpt lat="45.92509" lon="5.01064">
        <ele>290.299987793</ele>
        <time>2016-06-06T10:00:06.714Z</time>
      </trkpt>
      <trkpt lat="45.92515" lon="5.01063">
        <ele>290.5</ele>
        <time>2016-06-06T10:00:07.69Z</time>
      </trkpt>
      <trkpt lat="45.9252" lon="5.01063">
        <ele>290.799987793</ele>
        <time>2016-06-06T10:00:08.739Z</time>
      </trkpt>
      <trkpt lat="45.92526" lon="5.01063">
        <ele>290.899993896</ele>
        <time>2016-06-06T10:00:09.689Z</time>
      </trkpt>
      <trkpt lat="45.92531" lon="5.01062">
        <ele>290.899993896</ele>
        <time>2016-06-06T10:00:10.749Z</time>
      </trkpt>
      <trkpt lat="45.92536" lon="5.01061">
        <ele>290.799987793</ele>
        <time>2016-06-06T10:00:11.69Z</time>
      </trkpt>
      <trkpt lat="45.92542" lon="5.0106">
        <ele>290.700012207</ele>
        <time>2016-06-06T10:00:12.723Z</time>
      </trkpt>
      <trkpt lat="45.92547" lon="5.01058">
        <ele>290.899993896</ele>
        <time>2016-06-06T10:00:13.69Z</time>
      </trkpt>
      <trkpt lat="45.92553" lon="5.01056">
        <ele>290.700012207</ele>
        <time>2016-06-06T10:00:14.709Z</time>
      </trkpt>
      <trkpt lat="45.92558" lon="5.01055">
        <ele>290.700012207</ele>
        <time>2016-06-06T10:00:15.69Z</time>
      </trkpt>
      <trkpt lat="45.92564" lon="5.01054">
        <ele>290.600006104</ele>
        <time>2016-06-06T10:00:16.709Z</time>
      </trkpt>
      <trkpt lat="45.92569" lon="5.01052">
        <ele>290.600006104</ele>
        <time>2016-06-06T10:00:17.69Z</time>
      </trkpt>
      <trkpt lat="45.92575" lon="5.01051">
        <ele>290.700012207</ele>
        <time>2016-06-06T10:00:18.712Z</time>
      </trkpt>
      <trkpt lat="45.9258" lon="5.01049">
        <ele>290.700012207</ele>
        <time>2016-06-06T10:00:19.69Z</time>
      </trkpt>
      <trkpt lat="45.92585" lon="5.01048">
        <ele>290.799987793</ele>
        <time>2016-06-06T10:00:20.721Z</time>
      </trkpt>
      <trkpt lat="45.9259" lon="5.01046">
        <ele>290.899993896</ele>
        <time>2016-06-06T10:00:21.689Z</time>
      </trkpt>
      <trkpt lat="45.92596" lon="5.01045">
        <ele>291</ele>
        <time>2016-06-06T10:00:22.711Z</time>
      </trkpt>
      <trkpt lat="45.92601" lon="5.01044">
        <ele>291.100006104</ele>
        <time>2016-06-06T10:00:23.691Z</time>
      </trkpt>
      <trkpt lat="45.92606" lon="5.01043">
        <ele>291.200012207</ele>
        <time>2016-06-06T10:00:24.714Z</time>
      </trkpt>
      <trkpt lat="45.9261" lon="5.01043">
        <ele>291.200012207</ele>
        <time>2016-06-06T10:00:25.691Z</time>
      </trkpt>
      <trkpt lat="45.92615" lon="5.01041">
        <ele>291.200012207</ele>
        <time>2016-06-06T10:00:26.709Z</time>
      </trkpt>
      <trkpt lat="45.9262" lon="5.0104">
        <ele>291.5</ele>
        <time>2016-06-06T10:00:27.692Z</time>
      </trkpt>
      <trkpt lat="45.92625" lon="5.0104">
        <ele>291.700012207</ele>
        <time>2016-06-06T10:00:28.708Z</time>
      </trkpt>
      <trkpt lat="45.92629" lon="5.01039">
        <ele>292.100006104</ele>
        <time>2016-06-06T10:00:29.689Z</time>
      </trkpt>
      <trkpt lat="45.92634" lon="5.01038">
        <ele>292.5</ele>
        <time>2016-06-06T10:00:30.707Z</time>
      </trkpt>
      <trkpt lat="45.92638" lon="5.01038">
        <ele>293.100006104</ele>
        <time>2016-06-06T10:00:31.686Z</time>
      </trkpt>
      <trkpt lat="45.92644" lon="5.01037">
        <ele>293.700012207</ele>
        <time>2016-06-06T10:00:32.709Z</time>
      </trkpt>
      <trkpt lat="45.92649" lon="5.01036">
        <ele>294.5</ele>
        <time>2016-06-06T10:00:33.691Z</time>
      </trkpt>
      <trkpt lat="45.92655" lon="5.01035">
        <ele>294.700012207</ele>
        <time>2016-06-06T10:00:34.709Z</time>
      </trkpt>
      <trkpt lat="45.92661" lon="5.01033">
        <ele>295.600006104</ele>
        <time>2016-06-06T10:00:35.688Z</time>
      </trkpt>
      <trkpt lat="45.92668" lon="5.01029">
        <ele>296.799987793</ele>
        <time>2016-06-06T10:00:36.713Z</time>
      </trkpt>
      <trkpt lat="45.92673" lon="5.01025">
        <ele>297.600006104</ele>
        <time>2016-06-06T10:00:37.687Z</time>
      </trkpt>
      <trkpt lat="45.92678" lon="5.01021">
        <ele>297.5</ele>
        <time>2016-06-06T10:00:38.755Z</time>
      </trkpt>
      <trkpt lat="45.92683" lon="5.01016">
        <ele>299.700012207</ele>
        <time>2016-06-06T10:00:39.691Z</time>
      </trkpt>
      <trkpt lat="45.92687" lon="5.0101">
        <ele>300.100006104</ele>
        <time>2016-06-06T10:00:40.721Z</time>
      </trkpt>
      <trkpt lat="45.92692" lon="5.01005">
        <ele>299.700012207</ele>
        <time>2016-06-06T10:00:41.687Z</time>
      </trkpt>
      <trkpt lat="45.92697" lon="5.01">
        <ele>298.700012207</ele>
        <time>2016-06-06T10:00:42.711Z</time>
      </trkpt>
      <trkpt lat="45.92702" lon="5.00995">
        <ele>298.899993896</ele>
        <time>2016-06-06T10:00:43.689Z</time>
      </trkpt>
      <trkpt lat="45.92706" lon="5.00989">
        <ele>299.399993896</ele>
        <time>2016-06-06T10:00:44.733Z</time>
      </trkpt>
      <trkpt lat="45.9271" lon="5.00983">
        <ele>298.899993896</ele>
        <time>2016-06-06T10:00:45.688Z</time>
      </trkpt>
      <trkpt lat="45.92714" lon="5.00978">
        <ele>299.399993896</ele>
        <time>2016-06-06T10:00:46.712Z</time>
      </trkpt>
      <trkpt lat="45.92718" lon="5.00973">
        <ele>299.5</ele>
        <time>2016-06-06T10:00:47.691Z</time>
      </trkpt>
      <trkpt lat="45.92722" lon="5.00968">
        <ele>300.100006104</ele>
        <time>2016-06-06T10:00:48.712Z</time>
      </trkpt>
      <trkpt lat="45.92726" lon="5.00963">
        <ele>300</ele>
        <time>2016-06-06T10:00:49.689Z</time>
      </trkpt>
      <trkpt lat="45.92731" lon="5.00958">
        <ele>300</ele>
        <time>2016-06-06T10:00:50.707Z</time>
      </trkpt>
      <trkpt lat="45.92736" lon="5.00953">
        <ele>300.299987793</ele>
        <time>2016-06-06T10:00:51.692Z</time>
      </trkpt>
      <trkpt lat="45.92739" lon="5.00948">
        <ele>300.5</ele>
        <time>2016-06-06T10:00:52.959Z</time>
      </trkpt>
      <trkpt lat="45.92744" lon="5.00944">
        <ele>300.899993896</ele>
        <time>2016-06-06T10:00:53.693Z</time>
      </trkpt>
      <trkpt lat="45.92748" lon="5.00939">
        <ele>301.299987793</ele>
        <time>2016-06-06T10:00:54.727Z</time>
      </trkpt>
      <trkpt lat="45.92752" lon="5.00934">
        <ele>301.700012207</ele>
        <time>2016-06-06T10:00:55.687Z</time>
      </trkpt>
      <trkpt lat="45.92756" lon="5.00929">
        <ele>302.299987793</ele>
        <time>2016-06-06T10:00:56.708Z</time>
      </trkpt>
      <trkpt lat="45.92762" lon="5.00925">
        <ele>302.600006104</ele>
        <time>2016-06-06T10:00:57.689Z</time>
      </trkpt>
      <trkpt lat="45.92767" lon="5.0092">
        <ele>302.799987793</ele>
        <time>2016-06-06T10:00:58.709Z</time>
      </trkpt>
      <trkpt lat="45.92771" lon="5.00914">
        <ele>302.899993896</ele>
        <time>2016-06-06T10:00:59.688Z</time>
      </trkpt>
      <trkpt lat="45.92775" lon="5.00908">
        <ele>303.399993896</ele>
        <time>2016-06-06T10:01:00.71Z</time>
      </trkpt>
      <trkpt lat="45.92779" lon="5.00903">
        <ele>303.200012207</ele>
        <time>2016-06-06T10:01:01.717Z</time>
      </trkpt>
      <trkpt lat="45.92783" lon="5.00898">
        <ele>303.299987793</ele>
        <time>2016-06-06T10:01:02.711Z</time>
      </trkpt>
      <trkpt lat="45.92787" lon="5.0089">
        <ele>304.299987793</ele>
        <time>2016-06-06T10:01:03.692Z</time>
      </trkpt>
      <trkpt lat="45.92792" lon="5.00883">
        <ele>304.5</ele>
        <time>2016-06-06T10:01:04.711Z</time>
      </trkpt>
      <trkpt lat="45.92796" lon="5.00876">
        <ele>304.600006104</ele>
        <time>2016-06-06T10:01:05.694Z</time>
      </trkpt>
      <trkpt lat="45.92799" lon="5.00869">
        <ele>304.700012207</ele>
        <time>2016-06-06T10:01:06.71Z</time>
      </trkpt>
      <trkpt lat="45.92803" lon="5.00863">
        <ele>304.899993896</ele>
        <time>2016-06-06T10:01:07.69Z</time>
      </trkpt>
      <trkpt lat="45.92807" lon="5.00856">
        <ele>305.299987793</ele>
        <time>2016-06-06T10:01:08.711Z</time>
      </trkpt>
      <trkpt lat="45.9281" lon="5.00849">
        <ele>305.5</ele>
        <time>2016-06-06T10:01:09.693Z</time>
      </trkpt>
      <trkpt lat="45.92813" lon="5.00843">
        <ele>305.799987793</ele>
        <time>2016-06-06T10:01:10.731Z</time>
      </trkpt>
      <trkpt lat="45.92817" lon="5.00835">
        <ele>305.700012207</ele>
        <time>2016-06-06T10:01:11.688Z</time>
      </trkpt>
      <trkpt lat="45.9282" lon="5.00828">
        <ele>305.899993896</ele>
        <time>2016-06-06T10:01:12.712Z</time>
      </trkpt>
      <trkpt lat="45.92823" lon="5.00821">
        <ele>306</ele>
        <time>2016-06-06T10:01:13.687Z</time>
      </trkpt>
      <trkpt lat="45.92826" lon="5.00814">
        <ele>305.5</ele>
        <time>2016-06-06T10:01:14.708Z</time>
      </trkpt>
      <trkpt lat="45.92829" lon="5.00807">
        <ele>305.700012207</ele>
        <time>2016-06-06T10:01:15.693Z</time>
      </trkpt>
      <trkpt lat="45.92832" lon="5.008">
        <ele>305.600006104</ele>
        <time>2016-06-06T10:01:16.769Z</time>
      </trkpt>
      <trkpt lat="45.92835" lon="5.00795">
        <ele>305.600006104</ele>
        <time>2016-06-06T10:01:17.688Z</time>
      </trkpt>
      <trkpt lat="45.92838" lon="5.0079">
        <ele>305.799987793</ele>
        <time>2016-06-06T10:01:18.712Z</time>
      </trkpt>
      <trkpt lat="45.92842" lon="5.00785">
        <ele>306.200012207</ele>
        <time>2016-06-06T10:01:19.69Z</time>
      </trkpt>
      <trkpt lat="45.92846" lon="5.00781">
        <ele>306.299987793</ele>
        <time>2016-06-06T10:01:20.711Z</time>
      </trkpt>
      <trkpt lat="45.92849" lon="5.00776">
        <ele>306.399993896</ele>
        <time>2016-06-06T10:01:21.715Z</time>
      </trkpt>
      <trkpt lat="45.92853" lon="5.00771">
        <ele>307.100006104</ele>
        <time>2016-06-06T10:01:22.71Z</time>
      </trkpt>
      <trkpt lat="45.92857" lon="5.00766">
        <ele>307.399993896</ele>
        <time>2016-06-06T10:01:23.692Z</time>
      </trkpt>
      <trkpt lat="45.92862" lon="5.00761">
        <ele>307.200012207</ele>
        <time>2016-06-06T10:01:24.707Z</time>
      </trkpt>
      <trkpt lat="45.92867" lon="5.00757">
        <ele>307.299987793</ele>
        <time>2016-06-06T10:01:25.689Z</time>
      </trkpt>
      <trkpt lat="45.92871" lon="5.00754">
        <ele>307.399993896</ele>
        <time>2016-06-06T10:01:26.767Z</time>
      </trkpt>
      <trkpt lat="45.92877" lon="5.00752">
        <ele>307.399993896</ele>
        <time>2016-06-06T10:01:27.692Z</time>
      </trkpt>
      <trkpt lat="45.92881" lon="5.0075">
        <ele>307.700012207</ele>
        <time>2016-06-06T10:01:28.747Z</time>
      </trkpt>
      <trkpt lat="45.92885" lon="5.00747">
        <ele>307.100006104</ele>
        <time>2016-06-06T10:01:29.688Z</time>
      </trkpt>
      <trkpt lat="45.92893" lon="5.00742">
        <ele>306.700012207</ele>
        <time>2016-06-06T10:01:31.724Z</time>
      </trkpt>
      <trkpt lat="45.92897" lon="5.00739">
        <ele>306.600006104</ele>
        <time>2016-06-06T10:01:32.69Z</time>
      </trkpt>
      <trkpt lat="45.92904" lon="5.00734">
        <ele>306.600006104</ele>
        <time>2016-06-06T10:01:34.707Z</time>
      </trkpt>
      <trkpt lat="45.92908" lon="5.00731">
        <ele>306.700012207</ele>
        <time>2016-06-06T10:01:35.686Z</time>
      </trkpt>
      <trkpt lat="45.92916" lon="5.00726">
        <ele>306.5</ele>
        <time>2016-06-06T10:01:37.712Z</time>
      </trkpt>
      <trkpt lat="45.9292" lon="5.00725">
        <ele>306.200012207</ele>
        <time>2016-06-06T10:01:38.686Z</time>
      </trkpt>
      <trkpt lat="45.92924" lon="5.00723">
        <ele>306.100006104</ele>
        <time>2016-06-06T10:01:39.715Z</time>
      </trkpt>
      <trkpt lat="45.92929" lon="5.0072">
        <ele>305.700012207</ele>
        <time>2016-06-06T10:01:40.687Z</time>
      </trkpt>
      <trkpt lat="45.92933" lon="5.00717">
        <ele>305</ele>
        <time>2016-06-06T10:01:41.762Z</time>
      </trkpt>
      <trkpt lat="45.92938" lon="5.00713">
        <ele>305.200012207</ele>
        <time>2016-06-06T10:01:42.689Z</time>
      </trkpt>
      <trkpt lat="45.92943" lon="5.00711">
        <ele>305.700012207</ele>
        <time>2016-06-06T10:01:43.712Z</time>
      </trkpt>
      <trkpt lat="45.92948" lon="5.00708">
        <ele>305.799987793</ele>
        <time>2016-06-06T10:01:44.688Z</time>
      </trkpt>
      <trkpt lat="45.92953" lon="5.00705">
        <ele>306</ele>
        <time>2016-06-06T10:01:45.712Z</time>
      </trkpt>
      <trkpt lat="45.92958" lon="5.00701">
        <ele>306.200012207</ele>
        <time>2016-06-06T10:01:46.685Z</time>
      </trkpt>
      <trkpt lat="45.92962" lon="5.00698">
        <ele>306.600006104</ele>
        <time>2016-06-06T10:01:47.708Z</time>
      </trkpt>
      <trkpt lat="45.92966" lon="5.00696">
        <ele>306.899993896</ele>
        <time>2016-06-06T10:01:48.688Z</time>
      </trkpt>
      <trkpt lat="45.92971" lon="5.00693">
        <ele>306.899993896</ele>
        <time>2016-06-06T10:01:49.71Z</time>
      </trkpt>
      <trkpt lat="45.92975" lon="5.00691">
        <ele>307.299987793</ele>
        <time>2016-06-06T10:01:50.687Z</time>
      </trkpt>
      <trkpt lat="45.92981" lon="5.00689">
        <ele>307.700012207</ele>
        <time>2016-06-06T10:01:51.714Z</time>
      </trkpt>
      <trkpt lat="45.92986" lon="5.00687">
        <ele>308.299987793</ele>
        <time>2016-06-06T10:01:52.687Z</time>
      </trkpt>
      <trkpt lat="45.92992" lon="5.00685">
        <ele>308.700012207</ele>
        <time>2016-06-06T10:01:53.708Z</time>
      </trkpt>
      <trkpt lat="45.92998" lon="5.00683">
        <ele>308.600006104</ele>
        <time>2016-06-06T10:01:54.687Z</time>
      </trkpt>
      <trkpt lat="45.93005" lon="5.00681">
        <ele>308.399993896</ele>
        <time>2016-06-06T10:01:55.776Z</time>
      </trkpt>
      <trkpt lat="45.93012" lon="5.0068">
        <ele>308</ele>
        <time>2016-06-06T10:01:56.689Z</time>
      </trkpt>
      <trkpt lat="45.93018" lon="5.00678">
        <ele>307.399993896</ele>
        <time>2016-06-06T10:01:57.856Z</time>
      </trkpt>
      <trkpt lat="45.93024" lon="5.00674">
        <ele>308.200012207</ele>
        <time>2016-06-06T10:01:58.687Z</time>
      </trkpt>
      <trkpt lat="45.93024" lon="5.00674">
        <ele>308.200012207</ele>
        <time>2016-06-06T10:01:58.708Z</time>
      </trkpt>
      <trkpt lat="45.93033" lon="5.00674">
        <ele>308.100006104</ele>
        <time>2016-06-06T10:01:59.689Z</time>
      </trkpt>
      <trkpt lat="45.9304" lon="5.00673">
        <ele>307.899993896</ele>
        <time>2016-06-06T10:02:00.707Z</time>
      </trkpt>
      <trkpt lat="45.93046" lon="5.00668">
        <ele>307.100006104</ele>
        <time>2016-06-06T10:02:01.686Z</time>
      </trkpt>
      <trkpt lat="45.93052" lon="5.00662">
        <ele>304.5</ele>
        <time>2016-06-06T10:02:02.71Z</time>
      </trkpt>
      <trkpt lat="45.93059" lon="5.00661">
        <ele>304.299987793</ele>
        <time>2016-06-06T10:02:03.693Z</time>
      </trkpt>
      <trkpt lat="45.93066" lon="5.0066">
        <ele>303.799987793</ele>
        <time>2016-06-06T10:02:04.707Z</time>
      </trkpt>
      <trkpt lat="45.93072" lon="5.00657">
        <ele>303.100006104</ele>
        <time>2016-06-06T10:02:05.687Z</time>
      </trkpt>
      <trkpt lat="45.93077" lon="5.00657">
        <ele>303</ele>
        <time>2016-06-06T10:02:06.707Z</time>
      </trkpt>
      <trkpt lat="45.93081" lon="5.00657">
        <ele>303</ele>
        <time>2016-06-06T10:02:07.692Z</time>
      </trkpt>
      <trkpt lat="45.93086" lon="5.00656">
        <ele>302.799987793</ele>
        <time>2016-06-06T10:02:08.795Z</time>
      </trkpt>
      <trkpt lat="45.93091" lon="5.00656">
        <ele>303.399993896</ele>
        <time>2016-06-06T10:02:09.694Z</time>
      </trkpt>
      <trkpt lat="45.93097" lon="5.00655">
        <ele>303.399993896</ele>
        <time>2016-06-06T10:02:10.707Z</time>
      </trkpt>
      <trkpt lat="45.93103" lon="5.00654">
        <ele>303.100006104</ele>
        <time>2016-06-06T10:02:11.687Z</time>
      </trkpt>
      <trkpt lat="45.93108" lon="5.00652">
        <ele>303.100006104</ele>
        <time>2016-06-06T10:02:12.708Z</time>
      </trkpt>
      <trkpt lat="45.93114" lon="5.00651">
        <ele>302.700012207</ele>
        <time>2016-06-06T10:02:13.686Z</time>
      </trkpt>
      <trkpt lat="45.93119" lon="5.0065">
        <ele>302</ele>
        <time>2016-06-06T10:02:14.707Z</time>
      </trkpt>
      <trkpt lat="45.93125" lon="5.0065">
        <ele>302.399993896</ele>
        <time>2016-06-06T10:02:15.718Z</time>
      </trkpt>
      <trkpt lat="45.93131" lon="5.00649">
        <ele>302.399993896</ele>
        <time>2016-06-06T10:02:16.708Z</time>
      </trkpt>
      <trkpt lat="45.93136" lon="5.00649">
        <ele>302.600006104</ele>
        <time>2016-06-06T10:02:17.685Z</time>
      </trkpt>
      <trkpt lat="45.93141" lon="5.00648">
        <ele>303.200012207</ele>
        <time>2016-06-06T10:02:18.71Z</time>
      </trkpt>
      <trkpt lat="45.93146" lon="5.00648">
        <ele>303.5</ele>
        <time>2016-06-06T10:02:19.689Z</time>
      </trkpt>
      <trkpt lat="45.93154" lon="5.00648">
        <ele>304.399993896</ele>
        <time>2016-06-06T10:02:21.712Z</time>
      </trkpt>
      <trkpt lat="45.93158" lon="5.00648">
        <ele>304</ele>
        <time>2016-06-06T10:02:22.685Z</time>
      </trkpt>
      <trkpt lat="45.93166" lon="5.00648">
        <ele>304.600006104</ele>
        <time>2016-06-06T10:02:24.725Z</time>
      </trkpt>
      <trkpt lat="45.9317" lon="5.00648">
        <ele>304.899993896</ele>
        <time>2016-06-06T10:02:25.742Z</time>
      </trkpt>
      <trkpt lat="45.93175" lon="5.00647">
        <ele>304.5</ele>
        <time>2016-06-06T10:02:26.745Z</time>
      </trkpt>
      <trkpt lat="45.93181" lon="5.00646">
        <ele>304.200012207</ele>
        <time>2016-06-06T10:02:27.69Z</time>
      </trkpt>
      <trkpt lat="45.93186" lon="5.00646">
        <ele>303.899993896</ele>
        <time>2016-06-06T10:02:28.709Z</time>
      </trkpt>
      <trkpt lat="45.93192" lon="5.00645">
        <ele>303.799987793</ele>
        <time>2016-06-06T10:02:29.687Z</time>
      </trkpt>
      <trkpt lat="45.93197" lon="5.00642">
        <ele>304</ele>
        <time>2016-06-06T10:02:30.707Z</time>
      </trkpt>
      <trkpt lat="45.93202" lon="5.00639">
        <ele>304.200012207</ele>
        <time>2016-06-06T10:02:31.69Z</time>
      </trkpt>
      <trkpt lat="45.93206" lon="5.00636">
        <ele>304.100006104</ele>
        <time>2016-06-06T10:02:32.707Z</time>
      </trkpt>
      <trkpt lat="45.93211" lon="5.00634">
        <ele>304</ele>
        <time>2016-06-06T10:02:33.691Z</time>
      </trkpt>
      <trkpt lat="45.93216" lon="5.0063">
        <ele>304.5</ele>
        <time>2016-06-06T10:02:34.71Z</time>
      </trkpt>
      <trkpt lat="45.93221" lon="5.00627">
        <ele>304.899993896</ele>
        <time>2016-06-06T10:02:35.689Z</time>
      </trkpt>
      <trkpt lat="45.93228" lon="5.00621">
        <ele>305.600006104</ele>
        <time>2016-06-06T10:02:37.707Z</time>
      </trkpt>
      <trkpt lat="45.93232" lon="5.00617">
        <ele>305.5</ele>
        <time>2016-06-06T10:02:38.691Z</time>
      </trkpt>
      <trkpt lat="45.93237" lon="5.00614">
        <ele>304.899993896</ele>
        <time>2016-06-06T10:02:39.712Z</time>
      </trkpt>
      <trkpt lat="45.9324" lon="5.00611">
        <ele>305.299987793</ele>
        <time>2016-06-06T10:02:40.701Z</time>
      </trkpt>
      <trkpt lat="45.93245" lon="5.00607">
        <ele>305.399993896</ele>
        <time>2016-06-06T10:02:41.734Z</time>
      </trkpt>
      <trkpt lat="45.93248" lon="5.00602">
        <ele>305.600006104</ele>
        <time>2016-06-06T10:02:42.686Z</time>
      </trkpt>
      <trkpt lat="45.93254" lon="5.00595">
        <ele>305.5</ele>
        <time>2016-06-06T10:02:44.71Z</time>
      </trkpt>
      <trkpt lat="45.93259" lon="5.00592">
        <ele>305.200012207</ele>
        <time>2016-06-06T10:02:45.689Z</time>
      </trkpt>
      <trkpt lat="45.93264" lon="5.00586">
        <ele>304.899993896</ele>
        <time>2016-06-06T10:02:46.747Z</time>
      </trkpt>
      <trkpt lat="45.93269" lon="5.0058">
        <ele>304.700012207</ele>
        <time>2016-06-06T10:02:47.69Z</time>
      </trkpt>
      <trkpt lat="45.93273" lon="5.00573">
        <ele>304.5</ele>
        <time>2016-06-06T10:02:48.706Z</time>
      </trkpt>
      <trkpt lat="45.93276" lon="5.00567">
        <ele>304.600006104</ele>
        <time>2016-06-06T10:02:49.69Z</time>
      </trkpt>
      <trkpt lat="45.9328" lon="5.0056">
        <ele>304.799987793</ele>
        <time>2016-06-06T10:02:50.707Z</time>
      </trkpt>
      <trkpt lat="45.93284" lon="5.00553">
        <ele>305</ele>
        <time>2016-06-06T10:02:51.692Z</time>
      </trkpt>
      <trkpt lat="45.93287" lon="5.00546">
        <ele>305.399993896</ele>
        <time>2016-06-06T10:02:52.721Z</time>
      </trkpt>
      <trkpt lat="45.9329" lon="5.00539">
        <ele>306</ele>
        <time>2016-06-06T10:02:53.688Z</time>
      </trkpt>
      <trkpt lat="45.93294" lon="5.00531">
        <ele>306.399993896</ele>
        <time>2016-06-06T10:02:54.707Z</time>
      </trkpt>
      <trkpt lat="45.93298" lon="5.00524">
        <ele>306.799987793</ele>
        <time>2016-06-06T10:02:55.689Z</time>
      </trkpt>
      <trkpt lat="45.933" lon="5.00518">
        <ele>307.100006104</ele>
        <time>2016-06-06T10:02:56.706Z</time>
      </trkpt>
      <trkpt lat="45.93304" lon="5.00512">
        <ele>306.799987793</ele>
        <time>2016-06-06T10:02:57.692Z</time>
      </trkpt>
      <trkpt lat="45.93309" lon="5.00505">
        <ele>307</ele>
        <time>2016-06-06T10:02:58.711Z</time>
      </trkpt>
      <trkpt lat="45.93314" lon="5.00498">
        <ele>306.700012207</ele>
        <time>2016-06-06T10:02:59.692Z</time>
      </trkpt>
      <trkpt lat="45.93319" lon="5.00492">
        <ele>306.799987793</ele>
        <time>2016-06-06T10:03:00.709Z</time>
      </trkpt>
      <trkpt lat="45.93323" lon="5.00486">
        <ele>307</ele>
        <time>2016-06-06T10:03:01.706Z</time>
      </trkpt>
      <trkpt lat="45.93328" lon="5.00479">
        <ele>307.100006104</ele>
        <time>2016-06-06T10:03:02.722Z</time>
      </trkpt>
      <trkpt lat="45.93332" lon="5.00473">
        <ele>307.399993896</ele>
        <time>2016-06-06T10:03:03.692Z</time>
      </trkpt>
      <trkpt lat="45.93337" lon="5.00467">
        <ele>307.700012207</ele>
        <time>2016-06-06T10:03:04.706Z</time>
      </trkpt>
      <trkpt lat="45.93341" lon="5.00461">
        <ele>307.399993896</ele>
        <time>2016-06-06T10:03:05.69Z</time>
      </trkpt>
      <trkpt lat="45.93347" lon="5.00454">
        <ele>307.399993896</ele>
        <time>2016-06-06T10:03:06.707Z</time>
      </trkpt>
      <trkpt lat="45.93351" lon="5.00449">
        <ele>307.399993896</ele>
        <time>2016-06-06T10:03:07.684Z</time>
      </trkpt>
      <trkpt lat="45.93355" lon="5.00442">
        <ele>307.799987793</ele>
        <time>2016-06-06T10:03:08.71Z</time>
      </trkpt>
      <trkpt lat="45.9336" lon="5.00437">
        <ele>307.899993896</ele>
        <time>2016-06-06T10:03:09.687Z</time>
      </trkpt>
      <trkpt lat="45.93365" lon="5.00432">
        <ele>307.899993896</ele>
        <time>2016-06-06T10:03:10.71Z</time>
      </trkpt>
      <trkpt lat="45.93368" lon="5.00428">
        <ele>308.200012207</ele>
        <time>2016-06-06T10:03:11.689Z</time>
      </trkpt>
      <trkpt lat="45.93376" lon="5.00422">
        <ele>308.5</ele>
        <time>2016-06-06T10:03:13.71Z</time>
      </trkpt>
      <trkpt lat="45.93379" lon="5.00418">
        <ele>308.899993896</ele>
        <time>2016-06-06T10:03:14.689Z</time>
      </trkpt>
      <trkpt lat="45.93384" lon="5.00414">
        <ele>309.200012207</ele>
        <time>2016-06-06T10:03:16.707Z</time>
      </trkpt>
      <trkpt lat="45.93388" lon="5.0041">
        <ele>309.299987793</ele>
        <time>2016-06-06T10:03:17.689Z</time>
      </trkpt>
      <trkpt lat="45.93393" lon="5.00407">
        <ele>309</ele>
        <time>2016-06-06T10:03:18.718Z</time>
      </trkpt>
      <trkpt lat="45.93398" lon="5.00405">
        <ele>308.899993896</ele>
        <time>2016-06-06T10:03:19.686Z</time>
      </trkpt>
      <trkpt lat="45.93403" lon="5.00403">
        <ele>308.799987793</ele>
        <time>2016-06-06T10:03:20.709Z</time>
      </trkpt>
      <trkpt lat="45.93408" lon="5.004">
        <ele>309</ele>
        <time>2016-06-06T10:03:21.692Z</time>
      </trkpt>
      <trkpt lat="45.93412" lon="5.00398">
        <ele>309.100006104</ele>
        <time>2016-06-06T10:03:22.762Z</time>
      </trkpt>
      <trkpt lat="45.93418" lon="5.00394">
        <ele>309</ele>
        <time>2016-06-06T10:03:23.69Z</time>
      </trkpt>
      <trkpt lat="45.93423" lon="5.0039">
        <ele>309</ele>
        <time>2016-06-06T10:03:24.709Z</time>
      </trkpt>
      <trkpt lat="45.93428" lon="5.00387">
        <ele>309.200012207</ele>
        <time>2016-06-06T10:03:25.716Z</time>
      </trkpt>
      <trkpt lat="45.93433" lon="5.00385">
        <ele>309.100006104</ele>
        <time>2016-06-06T10:03:26.938Z</time>
      </trkpt>
      <trkpt lat="45.93437" lon="5.00383">
        <ele>309.200012207</ele>
        <time>2016-06-06T10:03:27.708Z</time>
      </trkpt>
      <trkpt lat="45.93442" lon="5.00381">
        <ele>309.600006104</ele>
        <time>2016-06-06T10:03:28.706Z</time>
      </trkpt>
      <trkpt lat="45.93447" lon="5.00379">
        <ele>309.700012207</ele>
        <time>2016-06-06T10:03:29.691Z</time>
      </trkpt>
      <trkpt lat="45.93452" lon="5.00375">
        <ele>310</ele>
        <time>2016-06-06T10:03:30.706Z</time>
      </trkpt>
      <trkpt lat="45.93457" lon="5.00372">
        <ele>310.299987793</ele>
        <time>2016-06-06T10:03:31.686Z</time>
      </trkpt>
      <trkpt lat="45.93462" lon="5.00368">
        <ele>310.299987793</ele>
        <time>2016-06-06T10:03:32.726Z</time>
      </trkpt>
      <trkpt lat="45.93468" lon="5.00363">
        <ele>310.5</ele>
        <time>2016-06-06T10:03:33.692Z</time>
      </trkpt>
      <trkpt lat="45.93474" lon="5.00359">
        <ele>310.600006104</ele>
        <time>2016-06-06T10:03:34.709Z</time>
      </trkpt>
      <trkpt lat="45.9348" lon="5.00356">
        <ele>310.799987793</ele>
        <time>2016-06-06T10:03:35.689Z</time>
      </trkpt>
      <trkpt lat="45.9348" lon="5.00356">
        <ele>310.799987793</ele>
        <time>2016-06-06T10:03:35.718Z</time>
      </trkpt>
      <trkpt lat="45.93489" lon="5.00351">
        <ele>310.600006104</ele>
        <time>2016-06-06T10:03:36.694Z</time>
      </trkpt>
      <trkpt lat="45.93495" lon="5.00348">
        <ele>310.600006104</ele>
        <time>2016-06-06T10:03:37.879Z</time>
      </trkpt>
      <trkpt lat="45.93501" lon="5.00345">
        <ele>310.399993896</ele>
        <time>2016-06-06T10:03:38.69Z</time>
      </trkpt>
      <trkpt lat="45.93509" lon="5.00339">
        <ele>309.100006104</ele>
        <time>2016-06-06T10:03:39.715Z</time>
      </trkpt>
      <trkpt lat="45.93516" lon="5.00337">
        <ele>308.399993896</ele>
        <time>2016-06-06T10:03:40.686Z</time>
      </trkpt>
      <trkpt lat="45.93523" lon="5.00334">
        <ele>307.600006104</ele>
        <time>2016-06-06T10:03:41.707Z</time>
      </trkpt>
      <trkpt lat="45.93529" lon="5.00331">
        <ele>306.600006104</ele>
        <time>2016-06-06T10:03:42.686Z</time>
      </trkpt>
      <trkpt lat="45.93536" lon="5.00329">
        <ele>305.700012207</ele>
        <time>2016-06-06T10:03:43.865Z</time>
      </trkpt>
      <trkpt lat="45.93542" lon="5.00326">
        <ele>305.299987793</ele>
        <time>2016-06-06T10:03:44.689Z</time>
      </trkpt>
      <trkpt lat="45.93549" lon="5.00324">
        <ele>304.700012207</ele>
        <time>2016-06-06T10:03:45.711Z</time>
      </trkpt>
      <trkpt lat="45.93555" lon="5.00322">
        <ele>304.100006104</ele>
        <time>2016-06-06T10:03:46.687Z</time>
      </trkpt>
      <trkpt lat="45.93562" lon="5.00319">
        <ele>303.799987793</ele>
        <time>2016-06-06T10:03:47.708Z</time>
      </trkpt>
      <trkpt lat="45.93568" lon="5.00317">
        <ele>303.299987793</ele>
        <time>2016-06-06T10:03:48.686Z</time>
      </trkpt>
      <trkpt lat="45.93574" lon="5.00314">
        <ele>302.299987793</ele>
        <time>2016-06-06T10:03:49.705Z</time>
      </trkpt>
      <trkpt lat="45.93579" lon="5.00312">
        <ele>302.799987793</ele>
        <time>2016-06-06T10:03:50.689Z</time>
      </trkpt>
      <trkpt lat="45.93585" lon="5.0031">
        <ele>303.200012207</ele>
        <time>2016-06-06T10:03:51.713Z</time>
      </trkpt>
      <trkpt lat="45.93589" lon="5.00309">
        <ele>302.899993896</ele>
        <time>2016-06-06T10:03:52.686Z</time>
      </trkpt>
      <trkpt lat="45.93594" lon="5.00307">
        <ele>303.299987793</ele>
        <time>2016-06-06T10:03:53.726Z</time>
      </trkpt>
      <trkpt lat="45.936" lon="5.00305">
        <ele>304.100006104</ele>
        <time>2016-06-06T10:03:54.686Z</time>
      </trkpt>
      <trkpt lat="45.93606" lon="5.00302">
        <ele>304.100006104</ele>
        <time>2016-06-06T10:03:55.705Z</time>
      </trkpt>
      <trkpt lat="45.93611" lon="5.00301">
        <ele>304</ele>
        <time>2016-06-06T10:03:56.686Z</time>
      </trkpt>
      <trkpt lat="45.93618" lon="5.003">
        <ele>304.5</ele>
        <time>2016-06-06T10:03:57.737Z</time>
      </trkpt>
      <trkpt lat="45.93624" lon="5.00298">
        <ele>304.600006104</ele>
        <time>2016-06-06T10:03:58.688Z</time>
      </trkpt>
      <trkpt lat="45.93631" lon="5.00297">
        <ele>304.799987793</ele>
        <time>2016-06-06T10:03:59.718Z</time>
      </trkpt>
      <trkpt lat="45.93637" lon="5.00295">
        <ele>304.700012207</ele>
        <time>2016-06-06T10:04:00.687Z</time>
      </trkpt>
      <trkpt lat="45.93644" lon="5.00294">
        <ele>304.799987793</ele>
        <time>2016-06-06T10:04:01.706Z</time>
      </trkpt>
      <trkpt lat="45.9365" lon="5.00294">
        <ele>305.100006104</ele>
        <time>2016-06-06T10:04:02.693Z</time>
      </trkpt>
      <trkpt lat="45.93656" lon="5.00294">
        <ele>304.899993896</ele>
        <time>2016-06-06T10:04:03.712Z</time>
      </trkpt>
      <trkpt lat="45.93661" lon="5.00295">
        <ele>305.100006104</ele>
        <time>2016-06-06T10:04:04.685Z</time>
      </trkpt>
      <trkpt lat="45.93666" lon="5.00294">
        <ele>305.600006104</ele>
        <time>2016-06-06T10:04:05.707Z</time>
      </trkpt>
      <trkpt lat="45.93671" lon="5.00295">
        <ele>305.399993896</ele>
        <time>2016-06-06T10:04:06.686Z</time>
      </trkpt>
      <trkpt lat="45.93676" lon="5.00296">
        <ele>305.399993896</ele>
        <time>2016-06-06T10:04:07.705Z</time>
      </trkpt>
      <trkpt lat="45.93681" lon="5.00298">
        <ele>305.5</ele>
        <time>2016-06-06T10:04:08.686Z</time>
      </trkpt>
      <trkpt lat="45.93686" lon="5.00299">
        <ele>305.399993896</ele>
        <time>2016-06-06T10:04:09.71Z</time>
      </trkpt>
      <trkpt lat="45.93691" lon="5.00299">
        <ele>305.600006104</ele>
        <time>2016-06-06T10:04:10.802Z</time>
      </trkpt>
      <trkpt lat="45.93696" lon="5.00301">
        <ele>305.700012207</ele>
        <time>2016-06-06T10:04:11.708Z</time>
      </trkpt>
      <trkpt lat="45.93702" lon="5.00302">
        <ele>305.799987793</ele>
        <time>2016-06-06T10:04:12.686Z</time>
      </trkpt>
      <trkpt lat="45.93707" lon="5.00302">
        <ele>306.100006104</ele>
        <time>2016-06-06T10:04:13.706Z</time>
      </trkpt>
      <trkpt lat="45.93713" lon="5.00302">
        <ele>306.399993896</ele>
        <time>2016-06-06T10:04:14.686Z</time>
      </trkpt>
      <trkpt lat="45.93717" lon="5.00303">
        <ele>306.299987793</ele>
        <time>2016-06-06T10:04:15.741Z</time>
      </trkpt>
      <trkpt lat="45.93723" lon="5.00304">
        <ele>306.600006104</ele>
        <time>2016-06-06T10:04:16.689Z</time>
      </trkpt>
      <trkpt lat="45.93728" lon="5.00304">
        <ele>306.600006104</ele>
        <time>2016-06-06T10:04:17.706Z</time>
      </trkpt>
      <trkpt lat="45.93734" lon="5.00305">
        <ele>306.299987793</ele>
        <time>2016-06-06T10:04:18.683Z</time>
      </trkpt>
      <trkpt lat="45.93739" lon="5.00305">
        <ele>306.600006104</ele>
        <time>2016-06-06T10:04:19.724Z</time>
      </trkpt>
      <trkpt lat="45.93745" lon="5.00304">
        <ele>307.700012207</ele>
        <time>2016-06-06T10:04:20.688Z</time>
      </trkpt>
      <trkpt lat="45.93751" lon="5.00305">
        <ele>308.100006104</ele>
        <time>2016-06-06T10:04:21.71Z</time>
      </trkpt>
      <trkpt lat="45.93756" lon="5.00305">
        <ele>308.899993896</ele>
        <time>2016-06-06T10:04:22.689Z</time>
      </trkpt>
      <trkpt lat="45.93762" lon="5.00306">
        <ele>308.799987793</ele>
        <time>2016-06-06T10:04:23.745Z</time>
      </trkpt>
      <trkpt lat="45.93767" lon="5.00307">
        <ele>308.899993896</ele>
        <time>2016-06-06T10:04:24.686Z</time>
      </trkpt>
      <trkpt lat="45.93773" lon="5.00307">
        <ele>308.600006104</ele>
        <time>2016-06-06T10:04:25.705Z</time>
      </trkpt>
      <trkpt lat="45.93778" lon="5.00307">
        <ele>307.899993896</ele>
        <time>2016-06-06T10:04:26.686Z</time>
      </trkpt>
      <trkpt lat="45.93784" lon="5.00307">
        <ele>307.5</ele>
        <time>2016-06-06T10:04:27.711Z</time>
      </trkpt>
      <trkpt lat="45.93789" lon="5.00308">
        <ele>307.700012207</ele>
        <time>2016-06-06T10:04:28.702Z</time>
      </trkpt>
      <trkpt lat="45.93793" lon="5.00309">
        <ele>307.700012207</ele>
        <time>2016-06-06T10:04:29.708Z</time>
      </trkpt>
      <trkpt lat="45.93798" lon="5.0031">
        <ele>308</ele>
        <time>2016-06-06T10:04:30.687Z</time>
      </trkpt>
      <trkpt lat="45.93802" lon="5.00311">
        <ele>308.5</ele>
        <time>2016-06-06T10:04:31.729Z</time>
      </trkpt>
      <trkpt lat="45.93807" lon="5.00312">
        <ele>308.799987793</ele>
        <time>2016-06-06T10:04:32.686Z</time>
      </trkpt>
      <trkpt lat="45.93812" lon="5.00314">
        <ele>308.299987793</ele>
        <time>2016-06-06T10:04:33.711Z</time>
      </trkpt>
      <trkpt lat="45.93817" lon="5.00315">
        <ele>308</ele>
        <time>2016-06-06T10:04:34.686Z</time>
      </trkpt>
      <trkpt lat="45.93822" lon="5.00317">
        <ele>307.600006104</ele>
        <time>2016-06-06T10:04:35.723Z</time>
      </trkpt>
      <trkpt lat="45.93828" lon="5.00319">
        <ele>307.600006104</ele>
        <time>2016-06-06T10:04:36.685Z</time>
      </trkpt>
      <trkpt lat="45.93833" lon="5.0032">
        <ele>307.399993896</ele>
        <time>2016-06-06T10:04:37.712Z</time>
      </trkpt>
      <trkpt lat="45.93839" lon="5.00323">
        <ele>307</ele>
        <time>2016-06-06T10:04:38.685Z</time>
      </trkpt>
      <trkpt lat="45.93844" lon="5.00326">
        <ele>307.399993896</ele>
        <time>2016-06-06T10:04:39.714Z</time>
      </trkpt>
      <trkpt lat="45.9385" lon="5.00329">
        <ele>307.200012207</ele>
        <time>2016-06-06T10:04:40.689Z</time>
      </trkpt>
      <trkpt lat="45.93855" lon="5.00332">
        <ele>307.399993896</ele>
        <time>2016-06-06T10:04:41.71Z</time>
      </trkpt>
      <trkpt lat="45.93861" lon="5.00334">
        <ele>307.100006104</ele>
        <time>2016-06-06T10:04:42.685Z</time>
      </trkpt>
      <trkpt lat="45.93867" lon="5.00337">
        <ele>307.200012207</ele>
        <time>2016-06-06T10:04:43.954Z</time>
      </trkpt>
      <trkpt lat="45.93873" lon="5.00339">
        <ele>307</ele>
        <time>2016-06-06T10:04:44.689Z</time>
      </trkpt>
      <trkpt lat="45.93879" lon="5.00341">
        <ele>306.799987793</ele>
        <time>2016-06-06T10:04:45.711Z</time>
      </trkpt>
      <trkpt lat="45.93886" lon="5.00342">
        <ele>306.799987793</ele>
        <time>2016-06-06T10:04:46.689Z</time>
      </trkpt>
      <trkpt lat="45.93892" lon="5.00344">
        <ele>307.100006104</ele>
        <time>2016-06-06T10:04:47.714Z</time>
      </trkpt>
      <trkpt lat="45.93898" lon="5.00346">
        <ele>307</ele>
        <time>2016-06-06T10:04:48.686Z</time>
      </trkpt>
      <trkpt lat="45.93904" lon="5.00348">
        <ele>307.399993896</ele>
        <time>2016-06-06T10:04:49.705Z</time>
      </trkpt>
      <trkpt lat="45.93911" lon="5.0035">
        <ele>307.5</ele>
        <time>2016-06-06T10:04:50.685Z</time>
      </trkpt>
      <trkpt lat="45.93917" lon="5.00352">
        <ele>307.600006104</ele>
        <time>2016-06-06T10:04:51.728Z</time>
      </trkpt>
      <trkpt lat="45.93923" lon="5.00354">
        <ele>307.600006104</ele>
        <time>2016-06-06T10:04:52.689Z</time>
      </trkpt>
      <trkpt lat="45.93929" lon="5.00357">
        <ele>307.600006104</ele>
        <time>2016-06-06T10:04:53.707Z</time>
      </trkpt>
      <trkpt lat="45.93935" lon="5.00359">
        <ele>307.799987793</ele>
        <time>2016-06-06T10:04:54.689Z</time>
      </trkpt>
      <trkpt lat="45.93941" lon="5.00361">
        <ele>307.600006104</ele>
        <time>2016-06-06T10:04:55.707Z</time>
      </trkpt>
      <trkpt lat="45.93948" lon="5.00363">
        <ele>307.299987793</ele>
        <time>2016-06-06T10:04:56.685Z</time>
      </trkpt>
      <trkpt lat="45.93954" lon="5.00365">
        <ele>307.600006104</ele>
        <time>2016-06-06T10:04:57.72Z</time>
      </trkpt>
      <trkpt lat="45.93961" lon="5.00367">
        <ele>307.600006104</ele>
        <time>2016-06-06T10:04:58.685Z</time>
      </trkpt>
      <trkpt lat="45.93968" lon="5.00369">
        <ele>307.200012207</ele>
        <time>2016-06-06T10:04:59.71Z</time>
      </trkpt>
      <trkpt lat="45.93975" lon="5.0037">
        <ele>306.799987793</ele>
        <time>2016-06-06T10:05:00.686Z</time>
      </trkpt>
      <trkpt lat="45.93981" lon="5.00372">
        <ele>306.899993896</ele>
        <time>2016-06-06T10:05:01.706Z</time>
      </trkpt>
      <trkpt lat="45.93989" lon="5.00374">
        <ele>306.899993896</ele>
        <time>2016-06-06T10:05:02.686Z</time>
      </trkpt>
      <trkpt lat="45.93996" lon="5.00376">
        <ele>307.299987793</ele>
        <time>2016-06-06T10:05:03.713Z</time>
      </trkpt>
      <trkpt lat="45.94003" lon="5.00378">
        <ele>307.399993896</ele>
        <time>2016-06-06T10:05:04.685Z</time>
      </trkpt>
      <trkpt lat="45.9401" lon="5.00378">
        <ele>306.899993896</ele>
        <time>2016-06-06T10:05:05.71Z</time>
      </trkpt>
      <trkpt lat="45.94018" lon="5.00379">
        <ele>307</ele>
        <time>2016-06-06T10:05:06.685Z</time>
      </trkpt>
      <trkpt lat="45.94026" lon="5.00377">
        <ele>307.200012207</ele>
        <time>2016-06-06T10:05:07.733Z</time>
      </trkpt>
      <trkpt lat="45.94032" lon="5.00376">
        <ele>307.200012207</ele>
        <time>2016-06-06T10:05:08.686Z</time>
      </trkpt>
      <trkpt lat="45.94037" lon="5.00375">
        <ele>307.799987793</ele>
        <time>2016-06-06T10:05:09.715Z</time>
      </trkpt>
      <trkpt lat="45.94042" lon="5.00376">
        <ele>308.100006104</ele>
        <time>2016-06-06T10:05:10.685Z</time>
      </trkpt>
      <trkpt lat="45.94048" lon="5.00377">
        <ele>308.799987793</ele>
        <time>2016-06-06T10:05:11.706Z</time>
      </trkpt>
      <trkpt lat="45.94052" lon="5.00377">
        <ele>309</ele>
        <time>2016-06-06T10:05:12.686Z</time>
      </trkpt>
      <trkpt lat="45.94057" lon="5.00377">
        <ele>309.600006104</ele>
        <time>2016-06-06T10:05:13.709Z</time>
      </trkpt>
      <trkpt lat="45.94064" lon="5.00376">
        <ele>309.799987793</ele>
        <time>2016-06-06T10:05:14.688Z</time>
      </trkpt>
      <trkpt lat="45.9407" lon="5.00372">
        <ele>309.5</ele>
        <time>2016-06-06T10:05:15.879Z</time>
      </trkpt>
      <trkpt lat="45.94076" lon="5.00368">
        <ele>309.700012207</ele>
        <time>2016-06-06T10:05:16.688Z</time>
      </trkpt>
      <trkpt lat="45.94081" lon="5.00363">
        <ele>310.100006104</ele>
        <time>2016-06-06T10:05:17.718Z</time>
      </trkpt>
      <trkpt lat="45.94085" lon="5.00358">
        <ele>311</ele>
        <time>2016-06-06T10:05:18.686Z</time>
      </trkpt>
      <trkpt lat="45.9409" lon="5.00352">
        <ele>311.700012207</ele>
        <time>2016-06-06T10:05:19.709Z</time>
      </trkpt>
      <trkpt lat="45.94096" lon="5.00348">
        <ele>310.700012207</ele>
        <time>2016-06-06T10:05:20.69Z</time>
      </trkpt>
      <trkpt lat="45.94102" lon="5.00344">
        <ele>308.899993896</ele>
        <time>2016-06-06T10:05:22.153Z</time>
      </trkpt>
      <trkpt lat="45.94107" lon="5.00339">
        <ele>306.799987793</ele>
        <time>2016-06-06T10:05:22.688Z</time>
      </trkpt>
      <trkpt lat="45.94112" lon="5.00334">
        <ele>305.600006104</ele>
        <time>2016-06-06T10:05:23.723Z</time>
      </trkpt>
      <trkpt lat="45.94117" lon="5.00328">
        <ele>304.399993896</ele>
        <time>2016-06-06T10:05:24.685Z</time>
      </trkpt>
      <trkpt lat="45.94122" lon="5.00323">
        <ele>303.200012207</ele>
        <time>2016-06-06T10:05:25.708Z</time>
      </trkpt>
      <trkpt lat="45.94126" lon="5.00317">
        <ele>302.5</ele>
        <time>2016-06-06T10:05:26.685Z</time>
      </trkpt>
      <trkpt lat="45.9413" lon="5.00311">
        <ele>302.100006104</ele>
        <time>2016-06-06T10:05:27.921Z</time>
      </trkpt>
      <trkpt lat="45.94134" lon="5.00305">
        <ele>301.700012207</ele>
        <time>2016-06-06T10:05:28.687Z</time>
      </trkpt>
      <trkpt lat="45.94139" lon="5.00298">
        <ele>301.799987793</ele>
        <time>2016-06-06T10:05:29.737Z</time>
      </trkpt>
      <trkpt lat="45.94144" lon="5.00291">
        <ele>301.200012207</ele>
        <time>2016-06-06T10:05:30.687Z</time>
      </trkpt>
      <trkpt lat="45.94148" lon="5.00284">
        <ele>301.5</ele>
        <time>2016-06-06T10:05:31.707Z</time>
      </trkpt>
      <trkpt lat="45.94152" lon="5.00277">
        <ele>301</ele>
        <time>2016-06-06T10:05:32.691Z</time>
      </trkpt>
      <trkpt lat="45.94156" lon="5.0027">
        <ele>300.299987793</ele>
        <time>2016-06-06T10:05:33.71Z</time>
      </trkpt>
      <trkpt lat="45.9416" lon="5.00264">
        <ele>299.799987793</ele>
        <time>2016-06-06T10:05:34.685Z</time>
      </trkpt>
      <trkpt lat="45.94164" lon="5.00258">
        <ele>299.700012207</ele>
        <time>2016-06-06T10:05:35.707Z</time>
      </trkpt>
      <trkpt lat="45.94168" lon="5.00252">
        <ele>299.5</ele>
        <time>2016-06-06T10:05:36.683Z</time>
      </trkpt>
      <trkpt lat="45.94173" lon="5.00245">
        <ele>298.399993896</ele>
        <time>2016-06-06T10:05:37.714Z</time>
      </trkpt>
      <trkpt lat="45.94177" lon="5.00238">
        <ele>297.899993896</ele>
        <time>2016-06-06T10:05:38.683Z</time>
      </trkpt>
      <trkpt lat="45.94182" lon="5.00232">
        <ele>297.700012207</ele>
        <time>2016-06-06T10:05:39.727Z</time>
      </trkpt>
      <trkpt lat="45.94187" lon="5.00224">
        <ele>296.799987793</ele>
        <time>2016-06-06T10:05:40.686Z</time>
      </trkpt>
      <trkpt lat="45.94192" lon="5.00217">
        <ele>296.100006104</ele>
        <time>2016-06-06T10:05:41.706Z</time>
      </trkpt>
      <trkpt lat="45.94196" lon="5.00211">
        <ele>296.200012207</ele>
        <time>2016-06-06T10:05:42.689Z</time>
      </trkpt>
      <trkpt lat="45.942" lon="5.00204">
        <ele>296.100006104</ele>
        <time>2016-06-06T10:05:43.709Z</time>
      </trkpt>
      <trkpt lat="45.94204" lon="5.00198">
        <ele>295.700012207</ele>
        <time>2016-06-06T10:05:44.707Z</time>
      </trkpt>
      <trkpt lat="45.94208" lon="5.00192">
        <ele>295.200012207</ele>
        <time>2016-06-06T10:05:45.713Z</time>
      </trkpt>
      <trkpt lat="45.94212" lon="5.00186">
        <ele>294.700012207</ele>
        <time>2016-06-06T10:05:46.69Z</time>
      </trkpt>
      <trkpt lat="45.94215" lon="5.00181">
        <ele>294.299987793</ele>
        <time>2016-06-06T10:05:47.712Z</time>
      </trkpt>
      <trkpt lat="45.94219" lon="5.00175">
        <ele>294.200012207</ele>
        <time>2016-06-06T10:05:48.688Z</time>
      </trkpt>
      <trkpt lat="45.94222" lon="5.0017">
        <ele>294.399993896</ele>
        <time>2016-06-06T10:05:49.706Z</time>
      </trkpt>
      <trkpt lat="45.94226" lon="5.00165">
        <ele>294.299987793</ele>
        <time>2016-06-06T10:05:50.689Z</time>
      </trkpt>
      <trkpt lat="45.94229" lon="5.0016">
        <ele>294.200012207</ele>
        <time>2016-06-06T10:05:51.725Z</time>
      </trkpt>
      <trkpt lat="45.94233" lon="5.00155">
        <ele>294.100006104</ele>
        <time>2016-06-06T10:05:52.699Z</time>
      </trkpt>
      <trkpt lat="45.94237" lon="5.0015">
        <ele>293.899993896</ele>
        <time>2016-06-06T10:05:53.723Z</time>
      </trkpt>
      <trkpt lat="45.94241" lon="5.00144">
        <ele>293.600006104</ele>
        <time>2016-06-06T10:05:54.708Z</time>
      </trkpt>
      <trkpt lat="45.94244" lon="5.00139">
        <ele>293.600006104</ele>
        <time>2016-06-06T10:05:55.788Z</time>
      </trkpt>
      <trkpt lat="45.94248" lon="5.00133">
        <ele>293.5</ele>
        <time>2016-06-06T10:05:56.735Z</time>
      </trkpt>
      <trkpt lat="45.94251" lon="5.00128">
        <ele>293.299987793</ele>
        <time>2016-06-06T10:05:57.885Z</time>
      </trkpt>
      <trkpt lat="45.94254" lon="5.00124">
        <ele>293.299987793</ele>
        <time>2016-06-06T10:05:58.741Z</time>
      </trkpt>
      <trkpt lat="45.94257" lon="5.00119">
        <ele>293.5</ele>
        <time>2016-06-06T10:05:59.926Z</time>
      </trkpt>
      <trkpt lat="45.94261" lon="5.00115">
        <ele>293.399993896</ele>
        <time>2016-06-06T10:06:00.737Z</time>
      </trkpt>
      <trkpt lat="45.94267" lon="5.00106">
        <ele>293.600006104</ele>
        <time>2016-06-06T10:06:02.835Z</time>
      </trkpt>
      <trkpt lat="45.9427" lon="5.00102">
        <ele>293.5</ele>
        <time>2016-06-06T10:06:03.765Z</time>
      </trkpt>
      <trkpt lat="45.94274" lon="5.00097">
        <ele>293.700012207</ele>
        <time>2016-06-06T10:06:04.776Z</time>
      </trkpt>
      <trkpt lat="45.94277" lon="5.00092">
        <ele>294</ele>
        <time>2016-06-06T10:06:05.689Z</time>
      </trkpt>
      <trkpt lat="45.9428" lon="5.00087">
        <ele>294.299987793</ele>
        <time>2016-06-06T10:06:06.705Z</time>
      </trkpt>
      <trkpt lat="45.94283" lon="5.00082">
        <ele>294.600006104</ele>
        <time>2016-06-06T10:06:07.688Z</time>
      </trkpt>
      <trkpt lat="45.94287" lon="5.00077">
        <ele>295</ele>
        <time>2016-06-06T10:06:08.708Z</time>
      </trkpt>
      <trkpt lat="45.9429" lon="5.00072">
        <ele>295.299987793</ele>
        <time>2016-06-06T10:06:09.691Z</time>
      </trkpt>
      <trkpt lat="45.94294" lon="5.00066">
        <ele>295.600006104</ele>
        <time>2016-06-06T10:06:10.721Z</time>
      </trkpt>
      <trkpt lat="45.94297" lon="5.00061">
        <ele>295.899993896</ele>
        <time>2016-06-06T10:06:11.684Z</time>
      </trkpt>
      <trkpt lat="45.943" lon="5.00055">
        <ele>296</ele>
        <time>2016-06-06T10:06:12.709Z</time>
      </trkpt>
      <trkpt lat="45.94303" lon="5.00049">
        <ele>296.200012207</ele>
        <time>2016-06-06T10:06:13.689Z</time>
      </trkpt>
      <trkpt lat="45.94306" lon="5.00044">
        <ele>296.5</ele>
        <time>2016-06-06T10:06:14.708Z</time>
      </trkpt>
      <trkpt lat="45.94309" lon="5.00038">
        <ele>296.600006104</ele>
        <time>2016-06-06T10:06:15.69Z</time>
      </trkpt>
      <trkpt lat="45.94313" lon="5.00031">
        <ele>296.899993896</ele>
        <time>2016-06-06T10:06:16.709Z</time>
      </trkpt>
      <trkpt lat="45.94316" lon="5.00024">
        <ele>296.799987793</ele>
        <time>2016-06-06T10:06:17.686Z</time>
      </trkpt>
      <trkpt lat="45.94319" lon="5.00017">
        <ele>296.899993896</ele>
        <time>2016-06-06T10:06:18.708Z</time>
      </trkpt>
      <trkpt lat="45.94322" lon="5.00011">
        <ele>297.100006104</ele>
        <time>2016-06-06T10:06:19.712Z</time>
      </trkpt>
      <trkpt lat="45.94324" lon="5.00005">
        <ele>297.100006104</ele>
        <time>2016-06-06T10:06:20.708Z</time>
      </trkpt>
      <trkpt lat="45.94327" lon="4.99999">
        <ele>297.299987793</ele>
        <time>2016-06-06T10:06:21.687Z</time>
      </trkpt>
      <trkpt lat="45.9433" lon="4.99993">
        <ele>297.299987793</ele>
        <time>2016-06-06T10:06:22.866Z</time>
      </trkpt>
      <trkpt lat="45.94333" lon="4.99988">
        <ele>297.5</ele>
        <time>2016-06-06T10:06:23.687Z</time>
      </trkpt>
      <trkpt lat="45.94336" lon="4.99981">
        <ele>297.700012207</ele>
        <time>2016-06-06T10:06:24.708Z</time>
      </trkpt>
      <trkpt lat="45.94338" lon="4.99975">
        <ele>297.899993896</ele>
        <time>2016-06-06T10:06:25.685Z</time>
      </trkpt>
      <trkpt lat="45.94341" lon="4.99969">
        <ele>298.299987793</ele>
        <time>2016-06-06T10:06:26.705Z</time>
      </trkpt>
      <trkpt lat="45.94344" lon="4.99963">
        <ele>298.399993896</ele>
        <time>2016-06-06T10:06:27.691Z</time>
      </trkpt>
      <trkpt lat="45.94346" lon="4.99956">
        <ele>298.399993896</ele>
        <time>2016-06-06T10:06:28.705Z</time>
      </trkpt>
      <trkpt lat="45.94348" lon="4.99949">
        <ele>298.700012207</ele>
        <time>2016-06-06T10:06:29.689Z</time>
      </trkpt>
      <trkpt lat="45.94351" lon="4.99942">
        <ele>299.100006104</ele>
        <time>2016-06-06T10:06:30.709Z</time>
      </trkpt>
      <trkpt lat="45.94354" lon="4.99935">
        <ele>299.200012207</ele>
        <time>2016-06-06T10:06:31.704Z</time>
      </trkpt>
      <trkpt lat="45.94357" lon="4.99928">
        <ele>299.299987793</ele>
        <time>2016-06-06T10:06:32.724Z</time>
      </trkpt>
      <trkpt lat="45.94359" lon="4.99922">
        <ele>299.5</ele>
        <time>2016-06-06T10:06:33.691Z</time>
      </trkpt>
      <trkpt lat="45.94362" lon="4.99916">
        <ele>299.600006104</ele>
        <time>2016-06-06T10:06:34.705Z</time>
      </trkpt>
      <trkpt lat="45.94365" lon="4.9991">
        <ele>299.5</ele>
        <time>2016-06-06T10:06:35.69Z</time>
      </trkpt>
      <trkpt lat="45.94369" lon="4.999">
        <ele>300.100006104</ele>
        <time>2016-06-06T10:06:37.709Z</time>
      </trkpt>
      <trkpt lat="45.94372" lon="4.99894">
        <ele>300.399993896</ele>
        <time>2016-06-06T10:06:38.715Z</time>
      </trkpt>
      <trkpt lat="45.94374" lon="4.99888">
        <ele>300.799987793</ele>
        <time>2016-06-06T10:06:39.714Z</time>
      </trkpt>
      <trkpt lat="45.94377" lon="4.99882">
        <ele>301.100006104</ele>
        <time>2016-06-06T10:06:40.685Z</time>
      </trkpt>
      <trkpt lat="45.94381" lon="4.99876">
        <ele>301.200012207</ele>
        <time>2016-06-06T10:06:41.708Z</time>
      </trkpt>
      <trkpt lat="45.94383" lon="4.9987">
        <ele>301.5</ele>
        <time>2016-06-06T10:06:42.686Z</time>
      </trkpt>
      <trkpt lat="45.94386" lon="4.99864">
        <ele>301.799987793</ele>
        <time>2016-06-06T10:06:43.705Z</time>
      </trkpt>
      <trkpt lat="45.94389" lon="4.99857">
        <ele>302.100006104</ele>
        <time>2016-06-06T10:06:44.684Z</time>
      </trkpt>
      <trkpt lat="45.94391" lon="4.9985">
        <ele>302.200012207</ele>
        <time>2016-06-06T10:06:45.71Z</time>
      </trkpt>
      <trkpt lat="45.94395" lon="4.99843">
        <ele>302.200012207</ele>
        <time>2016-06-06T10:06:46.686Z</time>
      </trkpt>
      <trkpt lat="45.94399" lon="4.99834">
        <ele>302</ele>
        <time>2016-06-06T10:06:47.724Z</time>
      </trkpt>
      <trkpt lat="45.94403" lon="4.99826">
        <ele>302.299987793</ele>
        <time>2016-06-06T10:06:48.688Z</time>
      </trkpt>
      <trkpt lat="45.94407" lon="4.99818">
        <ele>302.399993896</ele>
        <time>2016-06-06T10:06:49.705Z</time>
      </trkpt>
      <trkpt lat="45.9441" lon="4.9981">
        <ele>302.299987793</ele>
        <time>2016-06-06T10:06:50.703Z</time>
      </trkpt>
      <trkpt lat="45.94414" lon="4.99802">
        <ele>302.200012207</ele>
        <time>2016-06-06T10:06:51.728Z</time>
      </trkpt>
      <trkpt lat="45.94417" lon="4.99795">
        <ele>302</ele>
        <time>2016-06-06T10:06:52.688Z</time>
      </trkpt>
      <trkpt lat="45.9442" lon="4.99787">
        <ele>301.799987793</ele>
        <time>2016-06-06T10:06:53.709Z</time>
      </trkpt>
      <trkpt lat="45.94424" lon="4.9978">
        <ele>301.700012207</ele>
        <time>2016-06-06T10:06:54.688Z</time>
      </trkpt>
      <trkpt lat="45.94426" lon="4.99773">
        <ele>301.799987793</ele>
        <time>2016-06-06T10:06:55.854Z</time>
      </trkpt>
      <trkpt lat="45.94429" lon="4.99766">
        <ele>301.700012207</ele>
        <time>2016-06-06T10:06:56.685Z</time>
      </trkpt>
      <trkpt lat="45.94432" lon="4.99759">
        <ele>301.600006104</ele>
        <time>2016-06-06T10:06:57.712Z</time>
      </trkpt>
      <trkpt lat="45.94435" lon="4.99752">
        <ele>301.299987793</ele>
        <time>2016-06-06T10:06:58.686Z</time>
      </trkpt>
      <trkpt lat="45.94438" lon="4.99745">
        <ele>301.200012207</ele>
        <time>2016-06-06T10:06:59.707Z</time>
      </trkpt>
      <trkpt lat="45.94441" lon="4.99738">
        <ele>301.200012207</ele>
        <time>2016-06-06T10:07:00.686Z</time>
      </trkpt>
      <trkpt lat="45.94444" lon="4.9973">
        <ele>301.299987793</ele>
        <time>2016-06-06T10:07:01.708Z</time>
      </trkpt>
      <trkpt lat="45.94448" lon="4.9972">
        <ele>300.899993896</ele>
        <time>2016-06-06T10:07:02.689Z</time>
      </trkpt>
      <trkpt lat="45.94452" lon="4.99711">
        <ele>300.399993896</ele>
        <time>2016-06-06T10:07:03.709Z</time>
      </trkpt>
      <trkpt lat="45.94455" lon="4.99701">
        <ele>300</ele>
        <time>2016-06-06T10:07:04.689Z</time>
      </trkpt>
      <trkpt lat="45.94458" lon="4.99692">
        <ele>299.200012207</ele>
        <time>2016-06-06T10:07:05.71Z</time>
      </trkpt>
      <trkpt lat="45.94461" lon="4.99683">
        <ele>298.600006104</ele>
        <time>2016-06-06T10:07:06.808Z</time>
      </trkpt>
      <trkpt lat="45.94464" lon="4.99674">
        <ele>298.399993896</ele>
        <time>2016-06-06T10:07:07.704Z</time>
      </trkpt>
      <trkpt lat="45.94467" lon="4.99665">
        <ele>298.5</ele>
        <time>2016-06-06T10:07:08.685Z</time>
      </trkpt>
      <trkpt lat="45.94469" lon="4.99657">
        <ele>298.399993896</ele>
        <time>2016-06-06T10:07:09.713Z</time>
      </trkpt>
      <trkpt lat="45.94472" lon="4.99648">
        <ele>297.899993896</ele>
        <time>2016-06-06T10:07:10.688Z</time>
      </trkpt>
      <trkpt lat="45.94475" lon="4.99638">
        <ele>297.600006104</ele>
        <time>2016-06-06T10:07:11.709Z</time>
      </trkpt>
      <trkpt lat="45.94478" lon="4.99628">
        <ele>297.200012207</ele>
        <time>2016-06-06T10:07:12.689Z</time>
      </trkpt>
      <trkpt lat="45.94481" lon="4.99618">
        <ele>297.100006104</ele>
        <time>2016-06-06T10:07:13.75Z</time>
      </trkpt>
      <trkpt lat="45.94484" lon="4.99609">
        <ele>296.5</ele>
        <time>2016-06-06T10:07:14.689Z</time>
      </trkpt>
      <trkpt lat="45.94487" lon="4.996">
        <ele>296.399993896</ele>
        <time>2016-06-06T10:07:15.713Z</time>
      </trkpt>
      <trkpt lat="45.9449" lon="4.99591">
        <ele>296.200012207</ele>
        <time>2016-06-06T10:07:16.687Z</time>
      </trkpt>
      <trkpt lat="45.94492" lon="4.99582">
        <ele>295.899993896</ele>
        <time>2016-06-06T10:07:17.71Z</time>
      </trkpt>
      <trkpt lat="45.94495" lon="4.99573">
        <ele>295.5</ele>
        <time>2016-06-06T10:07:18.689Z</time>
      </trkpt>
      <trkpt lat="45.94497" lon="4.99565">
        <ele>295.299987793</ele>
        <time>2016-06-06T10:07:19.706Z</time>
      </trkpt>
      <trkpt lat="45.94499" lon="4.99556">
        <ele>295.299987793</ele>
        <time>2016-06-06T10:07:20.686Z</time>
      </trkpt>
      <trkpt lat="45.94502" lon="4.99547">
        <ele>295.200012207</ele>
        <time>2016-06-06T10:07:21.713Z</time>
      </trkpt>
      <trkpt lat="45.94504" lon="4.99538">
        <ele>294.700012207</ele>
        <time>2016-06-06T10:07:22.686Z</time>
      </trkpt>
      <trkpt lat="45.94506" lon="4.99529">
        <ele>294.700012207</ele>
        <time>2016-06-06T10:07:23.716Z</time>
      </trkpt>
      <trkpt lat="45.94508" lon="4.9952">
        <ele>294.799987793</ele>
        <time>2016-06-06T10:07:24.686Z</time>
      </trkpt>
      <trkpt lat="45.9451" lon="4.99511">
        <ele>294.5</ele>
        <time>2016-06-06T10:07:25.709Z</time>
      </trkpt>
      <trkpt lat="45.94513" lon="4.99502">
        <ele>294.299987793</ele>
        <time>2016-06-06T10:07:26.687Z</time>
      </trkpt>
      <trkpt lat="45.94515" lon="4.99493">
        <ele>294.399993896</ele>
        <time>2016-06-06T10:07:27.746Z</time>
      </trkpt>
      <trkpt lat="45.94518" lon="4.99484">
        <ele>294.5</ele>
        <time>2016-06-06T10:07:28.697Z</time>
      </trkpt>
      <trkpt lat="45.9452" lon="4.99476">
        <ele>294.399993896</ele>
        <time>2016-06-06T10:07:29.724Z</time>
      </trkpt>
      <trkpt lat="45.94523" lon="4.99467">
        <ele>294.5</ele>
        <time>2016-06-06T10:07:30.693Z</time>
      </trkpt>
      <trkpt lat="45.94525" lon="4.99459">
        <ele>294.600006104</ele>
        <time>2016-06-06T10:07:31.71Z</time>
      </trkpt>
      <trkpt lat="45.94527" lon="4.99451">
        <ele>294.299987793</ele>
        <time>2016-06-06T10:07:32.686Z</time>
      </trkpt>
      <trkpt lat="45.9453" lon="4.99443">
        <ele>294.100006104</ele>
        <time>2016-06-06T10:07:33.711Z</time>
      </trkpt>
      <trkpt lat="45.94532" lon="4.99435">
        <ele>293.700012207</ele>
        <time>2016-06-06T10:07:34.689Z</time>
      </trkpt>
      <trkpt lat="45.94534" lon="4.99427">
        <ele>293.799987793</ele>
        <time>2016-06-06T10:07:35.71Z</time>
      </trkpt>
      <trkpt lat="45.94536" lon="4.9942">
        <ele>294</ele>
        <time>2016-06-06T10:07:36.69Z</time>
      </trkpt>
      <trkpt lat="45.94538" lon="4.99412">
        <ele>294.100006104</ele>
        <time>2016-06-06T10:07:37.71Z</time>
      </trkpt>
      <trkpt lat="45.94541" lon="4.99403">
        <ele>294.200012207</ele>
        <time>2016-06-06T10:07:38.689Z</time>
      </trkpt>
      <trkpt lat="45.94543" lon="4.99395">
        <ele>294.399993896</ele>
        <time>2016-06-06T10:07:39.723Z</time>
      </trkpt>
      <trkpt lat="45.94546" lon="4.99387">
        <ele>294.399993896</ele>
        <time>2016-06-06T10:07:40.689Z</time>
      </trkpt>
      <trkpt lat="45.94548" lon="4.99379">
        <ele>294.299987793</ele>
        <time>2016-06-06T10:07:41.707Z</time>
      </trkpt>
      <trkpt lat="45.94552" lon="4.99371">
        <ele>294.399993896</ele>
        <time>2016-06-06T10:07:42.689Z</time>
      </trkpt>
      <trkpt lat="45.94555" lon="4.99364">
        <ele>294.299987793</ele>
        <time>2016-06-06T10:07:43.705Z</time>
      </trkpt>
      <trkpt lat="45.94558" lon="4.99357">
        <ele>294</ele>
        <time>2016-06-06T10:07:44.685Z</time>
      </trkpt>
      <trkpt lat="45.94561" lon="4.9935">
        <ele>293.600006104</ele>
        <time>2016-06-06T10:07:45.713Z</time>
      </trkpt>
      <trkpt lat="45.94565" lon="4.99343">
        <ele>293.399993896</ele>
        <time>2016-06-06T10:07:46.685Z</time>
      </trkpt>
      <trkpt lat="45.94569" lon="4.99337">
        <ele>293.399993896</ele>
        <time>2016-06-06T10:07:47.71Z</time>
      </trkpt>
      <trkpt lat="45.94574" lon="4.99331">
        <ele>293.399993896</ele>
        <time>2016-06-06T10:07:48.689Z</time>
      </trkpt>
      <trkpt lat="45.94577" lon="4.99324">
        <ele>293.299987793</ele>
        <time>2016-06-06T10:07:49.718Z</time>
      </trkpt>
      <trkpt lat="45.94581" lon="4.99318">
        <ele>293.200012207</ele>
        <time>2016-06-06T10:07:50.703Z</time>
      </trkpt>
      <trkpt lat="45.94584" lon="4.99312">
        <ele>292.299987793</ele>
        <time>2016-06-06T10:07:51.716Z</time>
      </trkpt>
      <trkpt lat="45.94588" lon="4.99307">
        <ele>292.299987793</ele>
        <time>2016-06-06T10:07:52.686Z</time>
      </trkpt>
      <trkpt lat="45.94592" lon="4.99301">
        <ele>292.100006104</ele>
        <time>2016-06-06T10:07:53.706Z</time>
      </trkpt>
      <trkpt lat="45.94596" lon="4.99296">
        <ele>292.100006104</ele>
        <time>2016-06-06T10:07:54.686Z</time>
      </trkpt>
      <trkpt lat="45.946" lon="4.99291">
        <ele>292.200012207</ele>
        <time>2016-06-06T10:07:55.724Z</time>
      </trkpt>
      <trkpt lat="45.94603" lon="4.99285">
        <ele>291.799987793</ele>
        <time>2016-06-06T10:07:56.717Z</time>
      </trkpt>
      <trkpt lat="45.94607" lon="4.9928">
        <ele>291.799987793</ele>
        <time>2016-06-06T10:07:57.715Z</time>
      </trkpt>
      <trkpt lat="45.94611" lon="4.99274">
        <ele>292.100006104</ele>
        <time>2016-06-06T10:07:58.689Z</time>
      </trkpt>
      <trkpt lat="45.94616" lon="4.99268">
        <ele>292</ele>
        <time>2016-06-06T10:07:59.71Z</time>
      </trkpt>
      <trkpt lat="45.9462" lon="4.99262">
        <ele>292.200012207</ele>
        <time>2016-06-06T10:08:00.689Z</time>
      </trkpt>
      <trkpt lat="45.94625" lon="4.99255">
        <ele>292.299987793</ele>
        <time>2016-06-06T10:08:01.766Z</time>
      </trkpt>
      <trkpt lat="45.94629" lon="4.9925">
        <ele>292.399993896</ele>
        <time>2016-06-06T10:08:02.685Z</time>
      </trkpt>
      <trkpt lat="45.94633" lon="4.99244">
        <ele>292</ele>
        <time>2016-06-06T10:08:03.713Z</time>
      </trkpt>
      <trkpt lat="45.94637" lon="4.99239">
        <ele>292</ele>
        <time>2016-06-06T10:08:04.685Z</time>
      </trkpt>
      <trkpt lat="45.94641" lon="4.99235">
        <ele>292.200012207</ele>
        <time>2016-06-06T10:08:05.709Z</time>
      </trkpt>
      <trkpt lat="45.94644" lon="4.99229">
        <ele>292.100006104</ele>
        <time>2016-06-06T10:08:06.687Z</time>
      </trkpt>
      <trkpt lat="45.94648" lon="4.99224">
        <ele>292</ele>
        <time>2016-06-06T10:08:07.708Z</time>
      </trkpt>
      <trkpt lat="45.94652" lon="4.99219">
        <ele>292.100006104</ele>
        <time>2016-06-06T10:08:08.685Z</time>
      </trkpt>
      <trkpt lat="45.94656" lon="4.99214">
        <ele>292.299987793</ele>
        <time>2016-06-06T10:08:09.711Z</time>
      </trkpt>
      <trkpt lat="45.94659" lon="4.99208">
        <ele>292.200012207</ele>
        <time>2016-06-06T10:08:10.686Z</time>
      </trkpt>
      <trkpt lat="45.94663" lon="4.99203">
        <ele>292.100006104</ele>
        <time>2016-06-06T10:08:11.862Z</time>
      </trkpt>
      <trkpt lat="45.94667" lon="4.99198">
        <ele>292</ele>
        <time>2016-06-06T10:08:12.686Z</time>
      </trkpt>
      <trkpt lat="45.9467" lon="4.99194">
        <ele>292.299987793</ele>
        <time>2016-06-06T10:08:13.708Z</time>
      </trkpt>
      <trkpt lat="45.94674" lon="4.9919">
        <ele>292.299987793</ele>
        <time>2016-06-06T10:08:14.686Z</time>
      </trkpt>
      <trkpt lat="45.94677" lon="4.99186">
        <ele>292.399993896</ele>
        <time>2016-06-06T10:08:15.789Z</time>
      </trkpt>
      <trkpt lat="45.94682" lon="4.99181">
        <ele>292.399993896</ele>
        <time>2016-06-06T10:08:16.686Z</time>
      </trkpt>
      <trkpt lat="45.94686" lon="4.99177">
        <ele>292.399993896</ele>
        <time>2016-06-06T10:08:17.731Z</time>
      </trkpt>
      <trkpt lat="45.94691" lon="4.99172">
        <ele>292.399993896</ele>
        <time>2016-06-06T10:08:18.685Z</time>
      </trkpt>
      <trkpt lat="45.94695" lon="4.99168">
        <ele>292.399993896</ele>
        <time>2016-06-06T10:08:19.705Z</time>
      </trkpt>
      <trkpt lat="45.94699" lon="4.99163">
        <ele>292.899993896</ele>
        <time>2016-06-06T10:08:20.687Z</time>
      </trkpt>
      <trkpt lat="45.94703" lon="4.99159">
        <ele>293</ele>
        <time>2016-06-06T10:08:21.712Z</time>
      </trkpt>
      <trkpt lat="45.94708" lon="4.99156">
        <ele>293</ele>
        <time>2016-06-06T10:08:22.692Z</time>
      </trkpt>
      <trkpt lat="45.94712" lon="4.99152">
        <ele>293.200012207</ele>
        <time>2016-06-06T10:08:23.71Z</time>
      </trkpt>
      <trkpt lat="45.94716" lon="4.99148">
        <ele>293.5</ele>
        <time>2016-06-06T10:08:24.685Z</time>
      </trkpt>
      <trkpt lat="45.9472" lon="4.99144">
        <ele>293.600006104</ele>
        <time>2016-06-06T10:08:25.705Z</time>
      </trkpt>
      <trkpt lat="45.94724" lon="4.9914">
        <ele>293.700012207</ele>
        <time>2016-06-06T10:08:26.685Z</time>
      </trkpt>
      <trkpt lat="45.94727" lon="4.99135">
        <ele>293.5</ele>
        <time>2016-06-06T10:08:27.729Z</time>
      </trkpt>
      <trkpt lat="45.94731" lon="4.9913">
        <ele>293.5</ele>
        <time>2016-06-06T10:08:28.686Z</time>
      </trkpt>
      <trkpt lat="45.94735" lon="4.99124">
        <ele>293.5</ele>
        <time>2016-06-06T10:08:29.707Z</time>
      </trkpt>
      <trkpt lat="45.94739" lon="4.99119">
        <ele>293.399993896</ele>
        <time>2016-06-06T10:08:30.684Z</time>
      </trkpt>
      <trkpt lat="45.94743" lon="4.99114">
        <ele>293.299987793</ele>
        <time>2016-06-06T10:08:31.748Z</time>
      </trkpt>
      <trkpt lat="45.94746" lon="4.9911">
        <ele>293.299987793</ele>
        <time>2016-06-06T10:08:32.687Z</time>
      </trkpt>
      <trkpt lat="45.9475" lon="4.99105">
        <ele>293.5</ele>
        <time>2016-06-06T10:08:33.746Z</time>
      </trkpt>
      <trkpt lat="45.94754" lon="4.991">
        <ele>293.5</ele>
        <time>2016-06-06T10:08:34.725Z</time>
      </trkpt>
      <trkpt lat="45.94757" lon="4.99094">
        <ele>293.5</ele>
        <time>2016-06-06T10:08:35.71Z</time>
      </trkpt>
      <trkpt lat="45.94761" lon="4.99089">
        <ele>293.399993896</ele>
        <time>2016-06-06T10:08:36.719Z</time>
      </trkpt>
      <trkpt lat="45.94764" lon="4.99083">
        <ele>293.299987793</ele>
        <time>2016-06-06T10:08:37.708Z</time>
      </trkpt>
      <trkpt lat="45.94767" lon="4.99077">
        <ele>293.100006104</ele>
        <time>2016-06-06T10:08:38.686Z</time>
      </trkpt>
      <trkpt lat="45.94771" lon="4.99072">
        <ele>292.899993896</ele>
        <time>2016-06-06T10:08:39.71Z</time>
      </trkpt>
      <trkpt lat="45.94774" lon="4.99066">
        <ele>292.899993896</ele>
        <time>2016-06-06T10:08:40.686Z</time>
      </trkpt>
      <trkpt lat="45.94778" lon="4.9906">
        <ele>292.700012207</ele>
        <time>2016-06-06T10:08:41.718Z</time>
      </trkpt>
      <trkpt lat="45.94781" lon="4.99055">
        <ele>292.799987793</ele>
        <time>2016-06-06T10:08:42.687Z</time>
      </trkpt>
      <trkpt lat="45.94784" lon="4.99049">
        <ele>292.899993896</ele>
        <time>2016-06-06T10:08:43.709Z</time>
      </trkpt>
      <trkpt lat="45.94787" lon="4.99044">
        <ele>293.299987793</ele>
        <time>2016-06-06T10:08:44.686Z</time>
      </trkpt>
      <trkpt lat="45.94791" lon="4.99033">
        <ele>293.600006104</ele>
        <time>2016-06-06T10:08:46.705Z</time>
      </trkpt>
      <trkpt lat="45.94793" lon="4.99026">
        <ele>293.600006104</ele>
        <time>2016-06-06T10:08:47.708Z</time>
      </trkpt>
      <trkpt lat="45.94794" lon="4.99019">
        <ele>293.799987793</ele>
        <time>2016-06-06T10:08:48.786Z</time>
      </trkpt>
      <trkpt lat="45.94795" lon="4.99012">
        <ele>294</ele>
        <time>2016-06-06T10:08:49.689Z</time>
      </trkpt>
      <trkpt lat="45.94795" lon="4.99004">
        <ele>294.100006104</ele>
        <time>2016-06-06T10:08:50.724Z</time>
      </trkpt>
      <trkpt lat="45.94796" lon="4.98997">
        <ele>294.299987793</ele>
        <time>2016-06-06T10:08:51.695Z</time>
      </trkpt>
      <trkpt lat="45.94796" lon="4.98989">
        <ele>294.399993896</ele>
        <time>2016-06-06T10:08:52.765Z</time>
      </trkpt>
      <trkpt lat="45.94796" lon="4.98982">
        <ele>294.399993896</ele>
        <time>2016-06-06T10:08:53.69Z</time>
      </trkpt>
      <trkpt lat="45.94797" lon="4.98973">
        <ele>294.5</ele>
        <time>2016-06-06T10:08:54.705Z</time>
      </trkpt>
      <trkpt lat="45.94797" lon="4.98966">
        <ele>294.799987793</ele>
        <time>2016-06-06T10:08:55.689Z</time>
      </trkpt>
      <trkpt lat="45.94798" lon="4.98958">
        <ele>295.200012207</ele>
        <time>2016-06-06T10:08:56.705Z</time>
      </trkpt>
      <trkpt lat="45.94799" lon="4.9895">
        <ele>295.299987793</ele>
        <time>2016-06-06T10:08:57.689Z</time>
      </trkpt>
      <trkpt lat="45.948" lon="4.98942">
        <ele>295.200012207</ele>
        <time>2016-06-06T10:08:58.708Z</time>
      </trkpt>
      <trkpt lat="45.948" lon="4.98935">
        <ele>295.399993896</ele>
        <time>2016-06-06T10:08:59.688Z</time>
      </trkpt>
      <trkpt lat="45.94801" lon="4.98927">
        <ele>295.600006104</ele>
        <time>2016-06-06T10:09:00.709Z</time>
      </trkpt>
      <trkpt lat="45.94802" lon="4.9892">
        <ele>295.799987793</ele>
        <time>2016-06-06T10:09:01.737Z</time>
      </trkpt>
      <trkpt lat="45.94803" lon="4.98913">
        <ele>296</ele>
        <time>2016-06-06T10:09:02.733Z</time>
      </trkpt>
      <trkpt lat="45.94803" lon="4.98906">
        <ele>296.200012207</ele>
        <time>2016-06-06T10:09:03.692Z</time>
      </trkpt>
      <trkpt lat="45.94804" lon="4.98894">
        <ele>296.100006104</ele>
        <time>2016-06-06T10:09:05.71Z</time>
      </trkpt>
      <trkpt lat="45.94805" lon="4.98888">
        <ele>296.200012207</ele>
        <time>2016-06-06T10:09:06.687Z</time>
      </trkpt>
      <trkpt lat="45.94806" lon="4.98882">
        <ele>296</ele>
        <time>2016-06-06T10:09:07.71Z</time>
      </trkpt>
      <trkpt lat="45.94806" lon="4.98874">
        <ele>296.100006104</ele>
        <time>2016-06-06T10:09:08.689Z</time>
      </trkpt>
      <trkpt lat="45.94806" lon="4.98867">
        <ele>296.100006104</ele>
        <time>2016-06-06T10:09:09.73Z</time>
      </trkpt>
      <trkpt lat="45.94807" lon="4.98859">
        <ele>295.899993896</ele>
        <time>2016-06-06T10:09:10.682Z</time>
      </trkpt>
      <trkpt lat="45.94807" lon="4.98851">
        <ele>296</ele>
        <time>2016-06-06T10:09:11.71Z</time>
      </trkpt>
      <trkpt lat="45.94807" lon="4.98844">
        <ele>296.299987793</ele>
        <time>2016-06-06T10:09:12.685Z</time>
      </trkpt>
      <trkpt lat="45.94808" lon="4.98838">
        <ele>296.600006104</ele>
        <time>2016-06-06T10:09:13.705Z</time>
      </trkpt>
      <trkpt lat="45.94809" lon="4.98832">
        <ele>296.600006104</ele>
        <time>2016-06-06T10:09:14.688Z</time>
      </trkpt>
      <trkpt lat="45.9481" lon="4.98825">
        <ele>296.700012207</ele>
        <time>2016-06-06T10:09:15.75Z</time>
      </trkpt>
      <trkpt lat="45.94811" lon="4.98819">
        <ele>296.700012207</ele>
        <time>2016-06-06T10:09:16.741Z</time>
      </trkpt>
      <trkpt lat="45.94812" lon="4.98812">
        <ele>296.600006104</ele>
        <time>2016-06-06T10:09:17.711Z</time>
      </trkpt>
      <trkpt lat="45.94813" lon="4.98805">
        <ele>297.100006104</ele>
        <time>2016-06-06T10:09:18.688Z</time>
      </trkpt>
      <trkpt lat="45.94814" lon="4.98798">
        <ele>297.200012207</ele>
        <time>2016-06-06T10:09:19.708Z</time>
      </trkpt>
      <trkpt lat="45.94815" lon="4.9879">
        <ele>296.899993896</ele>
        <time>2016-06-06T10:09:20.689Z</time>
      </trkpt>
      <trkpt lat="45.94816" lon="4.98782">
        <ele>297.100006104</ele>
        <time>2016-06-06T10:09:21.712Z</time>
      </trkpt>
      <trkpt lat="45.94817" lon="4.98774">
        <ele>297.5</ele>
        <time>2016-06-06T10:09:22.688Z</time>
      </trkpt>
      <trkpt lat="45.94818" lon="4.98767">
        <ele>297.899993896</ele>
        <time>2016-06-06T10:09:23.709Z</time>
      </trkpt>
      <trkpt lat="45.9482" lon="4.98759">
        <ele>298.100006104</ele>
        <time>2016-06-06T10:09:24.691Z</time>
      </trkpt>
      <trkpt lat="45.94821" lon="4.98751">
        <ele>298.399993896</ele>
        <time>2016-06-06T10:09:25.728Z</time>
      </trkpt>
      <trkpt lat="45.94822" lon="4.98743">
        <ele>298.200012207</ele>
        <time>2016-06-06T10:09:26.685Z</time>
      </trkpt>
      <trkpt lat="45.94822" lon="4.98736">
        <ele>298.100006104</ele>
        <time>2016-06-06T10:09:27.712Z</time>
      </trkpt>
      <trkpt lat="45.94823" lon="4.98729">
        <ele>298</ele>
        <time>2016-06-06T10:09:28.685Z</time>
      </trkpt>
      <trkpt lat="45.94825" lon="4.98722">
        <ele>298</ele>
        <time>2016-06-06T10:09:29.706Z</time>
      </trkpt>
      <trkpt lat="45.94827" lon="4.98717">
        <ele>298.100006104</ele>
        <time>2016-06-06T10:09:30.685Z</time>
      </trkpt>
      <trkpt lat="45.94829" lon="4.98711">
        <ele>298.200012207</ele>
        <time>2016-06-06T10:09:31.765Z</time>
      </trkpt>
      <trkpt lat="45.94831" lon="4.98705">
        <ele>298</ele>
        <time>2016-06-06T10:09:32.678Z</time>
      </trkpt>
      <trkpt lat="45.94834" lon="4.98694">
        <ele>298.100006104</ele>
        <time>2016-06-06T10:09:34.719Z</time>
      </trkpt>
      <trkpt lat="45.94836" lon="4.98689">
        <ele>298.399993896</ele>
        <time>2016-06-06T10:09:35.689Z</time>
      </trkpt>
      <trkpt lat="45.94836" lon="4.98678">
        <ele>298.299987793</ele>
        <time>2016-06-06T10:09:37.705Z</time>
      </trkpt>
      <trkpt lat="45.94837" lon="4.98673">
        <ele>298.399993896</ele>
        <time>2016-06-06T10:09:38.685Z</time>
      </trkpt>
      <trkpt lat="45.94838" lon="4.98661">
        <ele>299.100006104</ele>
        <time>2016-06-06T10:09:40.708Z</time>
      </trkpt>
      <trkpt lat="45.94839" lon="4.98656">
        <ele>299.399993896</ele>
        <time>2016-06-06T10:09:41.689Z</time>
      </trkpt>
      <trkpt lat="45.94842" lon="4.98646">
        <ele>299.799987793</ele>
        <time>2016-06-06T10:09:43.708Z</time>
      </trkpt>
      <trkpt lat="45.94844" lon="4.98641">
        <ele>300</ele>
        <time>2016-06-06T10:09:44.688Z</time>
      </trkpt>
      <trkpt lat="45.9485" lon="4.98638">
        <ele>300.299987793</ele>
        <time>2016-06-06T10:09:46.708Z</time>
      </trkpt>
      <trkpt lat="45.94854" lon="4.98635">
        <ele>300.399993896</ele>
        <time>2016-06-06T10:09:47.714Z</time>
      </trkpt>
      <trkpt lat="45.94862" lon="4.98633">
        <ele>300.700012207</ele>
        <time>2016-06-06T10:09:49.708Z</time>
      </trkpt>
      <trkpt lat="45.94865" lon="4.98631">
        <ele>300.899993896</ele>
        <time>2016-06-06T10:09:50.691Z</time>
      </trkpt>
      <trkpt lat="45.94873" lon="4.98629">
        <ele>301.5</ele>
        <time>2016-06-06T10:09:57.713Z</time>
      </trkpt>
      <trkpt lat="45.94874" lon="4.98629">
        <ele>301.600006104</ele>
        <time>2016-06-06T10:09:58.686Z</time>
      </trkpt>
      <trkpt lat="45.94882" lon="4.98622">
        <ele>302.5</ele>
        <time>2016-06-06T10:10:03.756Z</time>
      </trkpt>
      <trkpt lat="45.94884" lon="4.98619">
        <ele>303</ele>
        <time>2016-06-06T10:10:04.685Z</time>
      </trkpt>
      <trkpt lat="45.94888" lon="4.98612">
        <ele>303.700012207</ele>
        <time>2016-06-06T10:10:05.709Z</time>
      </trkpt>
      <trkpt lat="45.94891" lon="4.98606">
        <ele>303.899993896</ele>
        <time>2016-06-06T10:10:06.686Z</time>
      </trkpt>
      <trkpt lat="45.94895" lon="4.98599">
        <ele>303.899993896</ele>
        <time>2016-06-06T10:10:07.718Z</time>
      </trkpt>
      <trkpt lat="45.94898" lon="4.98591">
        <ele>304.399993896</ele>
        <time>2016-06-06T10:10:08.688Z</time>
      </trkpt>
      <trkpt lat="45.94901" lon="4.98584">
        <ele>304.600006104</ele>
        <time>2016-06-06T10:10:09.709Z</time>
      </trkpt>
      <trkpt lat="45.94905" lon="4.98578">
        <ele>304.899993896</ele>
        <time>2016-06-06T10:10:10.688Z</time>
      </trkpt>
      <trkpt lat="45.94907" lon="4.98572">
        <ele>304.700012207</ele>
        <time>2016-06-06T10:10:11.709Z</time>
      </trkpt>
      <trkpt lat="45.9491" lon="4.98566">
        <ele>304.799987793</ele>
        <time>2016-06-06T10:10:12.685Z</time>
      </trkpt>
      <trkpt lat="45.94913" lon="4.98559">
        <ele>304.5</ele>
        <time>2016-06-06T10:10:13.708Z</time>
      </trkpt>
      <trkpt lat="45.94916" lon="4.98553">
        <ele>304.799987793</ele>
        <time>2016-06-06T10:10:14.684Z</time>
      </trkpt>
      <trkpt lat="45.94919" lon="4.98546">
        <ele>304.700012207</ele>
        <time>2016-06-06T10:10:15.708Z</time>
      </trkpt>
      <trkpt lat="45.94923" lon="4.98539">
        <ele>304.5</ele>
        <time>2016-06-06T10:10:16.688Z</time>
      </trkpt>
      <trkpt lat="45.94927" lon="4.9853">
        <ele>304.399993896</ele>
        <time>2016-06-06T10:10:17.871Z</time>
      </trkpt>
      <trkpt lat="45.94931" lon="4.98523">
        <ele>304.200012207</ele>
        <time>2016-06-06T10:10:18.69Z</time>
      </trkpt>
      <trkpt lat="45.94934" lon="4.98516">
        <ele>304.200012207</ele>
        <time>2016-06-06T10:10:19.706Z</time>
      </trkpt>
      <trkpt lat="45.94938" lon="4.98509">
        <ele>304</ele>
        <time>2016-06-06T10:10:20.685Z</time>
      </trkpt>
      <trkpt lat="45.94942" lon="4.98503">
        <ele>303.899993896</ele>
        <time>2016-06-06T10:10:21.708Z</time>
      </trkpt>
      <trkpt lat="45.94945" lon="4.98497">
        <ele>303.399993896</ele>
        <time>2016-06-06T10:10:22.688Z</time>
      </trkpt>
      <trkpt lat="45.94949" lon="4.9849">
        <ele>303.200012207</ele>
        <time>2016-06-06T10:10:23.706Z</time>
      </trkpt>
      <trkpt lat="45.94953" lon="4.98483">
        <ele>303</ele>
        <time>2016-06-06T10:10:24.685Z</time>
      </trkpt>
      <trkpt lat="45.94957" lon="4.98476">
        <ele>302.5</ele>
        <time>2016-06-06T10:10:25.705Z</time>
      </trkpt>
      <trkpt lat="45.9496" lon="4.98468">
        <ele>301.799987793</ele>
        <time>2016-06-06T10:10:26.689Z</time>
      </trkpt>
      <trkpt lat="45.94964" lon="4.98461">
        <ele>301.200012207</ele>
        <time>2016-06-06T10:10:27.712Z</time>
      </trkpt>
      <trkpt lat="45.94967" lon="4.98454">
        <ele>300.600006104</ele>
        <time>2016-06-06T10:10:28.685Z</time>
      </trkpt>
      <trkpt lat="45.94971" lon="4.98446">
        <ele>300.100006104</ele>
        <time>2016-06-06T10:10:29.71Z</time>
      </trkpt>
      <trkpt lat="45.94975" lon="4.98439">
        <ele>299.600006104</ele>
        <time>2016-06-06T10:10:30.712Z</time>
      </trkpt>
      <trkpt lat="45.94978" lon="4.98431">
        <ele>299.399993896</ele>
        <time>2016-06-06T10:10:31.708Z</time>
      </trkpt>
      <trkpt lat="45.94982" lon="4.98423">
        <ele>298.899993896</ele>
        <time>2016-06-06T10:10:32.709Z</time>
      </trkpt>
      <trkpt lat="45.94985" lon="4.98416">
        <ele>298.399993896</ele>
        <time>2016-06-06T10:10:33.762Z</time>
      </trkpt>
      <trkpt lat="45.94989" lon="4.9841">
        <ele>297.799987793</ele>
        <time>2016-06-06T10:10:34.687Z</time>
      </trkpt>
      <trkpt lat="45.94993" lon="4.98402">
        <ele>297.399993896</ele>
        <time>2016-06-06T10:10:35.708Z</time>
      </trkpt>
      <trkpt lat="45.94996" lon="4.98394">
        <ele>297.100006104</ele>
        <time>2016-06-06T10:10:36.69Z</time>
      </trkpt>
      <trkpt lat="45.95" lon="4.98387">
        <ele>296.600006104</ele>
        <time>2016-06-06T10:10:37.706Z</time>
      </trkpt>
      <trkpt lat="45.95003" lon="4.9838">
        <ele>296.299987793</ele>
        <time>2016-06-06T10:10:38.701Z</time>
      </trkpt>
      <trkpt lat="45.95006" lon="4.98374">
        <ele>296.100006104</ele>
        <time>2016-06-06T10:10:39.712Z</time>
      </trkpt>
      <trkpt lat="45.9501" lon="4.98367">
        <ele>295.700012207</ele>
        <time>2016-06-06T10:10:40.685Z</time>
      </trkpt>
      <trkpt lat="45.95014" lon="4.9836">
        <ele>295.299987793</ele>
        <time>2016-06-06T10:10:41.706Z</time>
      </trkpt>
      <trkpt lat="45.95017" lon="4.98353">
        <ele>294.5</ele>
        <time>2016-06-06T10:10:42.688Z</time>
      </trkpt>
      <trkpt lat="45.9502" lon="4.98345">
        <ele>293.700012207</ele>
        <time>2016-06-06T10:10:43.727Z</time>
      </trkpt>
      <trkpt lat="45.95024" lon="4.98337">
        <ele>293.299987793</ele>
        <time>2016-06-06T10:10:44.689Z</time>
      </trkpt>
      <trkpt lat="45.95028" lon="4.98329">
        <ele>293.100006104</ele>
        <time>2016-06-06T10:10:45.712Z</time>
      </trkpt>
      <trkpt lat="45.95031" lon="4.98322">
        <ele>293</ele>
        <time>2016-06-06T10:10:46.686Z</time>
      </trkpt>
      <trkpt lat="45.95035" lon="4.98315">
        <ele>292.600006104</ele>
        <time>2016-06-06T10:10:47.709Z</time>
      </trkpt>
      <trkpt lat="45.95039" lon="4.98308">
        <ele>292.399993896</ele>
        <time>2016-06-06T10:10:48.688Z</time>
      </trkpt>
      <trkpt lat="45.95042" lon="4.983">
        <ele>292</ele>
        <time>2016-06-06T10:10:49.706Z</time>
      </trkpt>
      <trkpt lat="45.95045" lon="4.98293">
        <ele>291.799987793</ele>
        <time>2016-06-06T10:10:50.686Z</time>
      </trkpt>
      <trkpt lat="45.95048" lon="4.98285">
        <ele>291.600006104</ele>
        <time>2016-06-06T10:10:51.711Z</time>
      </trkpt>
      <trkpt lat="45.9505" lon="4.98278">
        <ele>291.5</ele>
        <time>2016-06-06T10:10:52.685Z</time>
      </trkpt>
      <trkpt lat="45.95053" lon="4.98271">
        <ele>291.399993896</ele>
        <time>2016-06-06T10:10:53.706Z</time>
      </trkpt>
      <trkpt lat="45.95057" lon="4.98265">
        <ele>291.700012207</ele>
        <time>2016-06-06T10:10:54.688Z</time>
      </trkpt>
      <trkpt lat="45.95059" lon="4.98258">
        <ele>291.799987793</ele>
        <time>2016-06-06T10:10:55.708Z</time>
      </trkpt>
      <trkpt lat="45.95062" lon="4.98251">
        <ele>291.899993896</ele>
        <time>2016-06-06T10:10:56.689Z</time>
      </trkpt>
      <trkpt lat="45.95065" lon="4.98244">
        <ele>292.100006104</ele>
        <time>2016-06-06T10:10:57.712Z</time>
      </trkpt>
      <trkpt lat="45.95067" lon="4.98237">
        <ele>292.299987793</ele>
        <time>2016-06-06T10:10:58.688Z</time>
      </trkpt>
      <trkpt lat="45.95069" lon="4.98229">
        <ele>293</ele>
        <time>2016-06-06T10:10:59.725Z</time>
      </trkpt>
      <trkpt lat="45.95072" lon="4.98221">
        <ele>293.399993896</ele>
        <time>2016-06-06T10:11:00.688Z</time>
      </trkpt>
      <trkpt lat="45.95075" lon="4.98213">
        <ele>293.600006104</ele>
        <time>2016-06-06T10:11:01.704Z</time>
      </trkpt>
      <trkpt lat="45.95077" lon="4.98205">
        <ele>293.899993896</ele>
        <time>2016-06-06T10:11:02.685Z</time>
      </trkpt>
      <trkpt lat="45.95079" lon="4.98198">
        <ele>293.899993896</ele>
        <time>2016-06-06T10:11:03.711Z</time>
      </trkpt>
      <trkpt lat="45.95081" lon="4.9819">
        <ele>294.200012207</ele>
        <time>2016-06-06T10:11:04.685Z</time>
      </trkpt>
      <trkpt lat="45.95083" lon="4.98183">
        <ele>294.399993896</ele>
        <time>2016-06-06T10:11:05.709Z</time>
      </trkpt>
      <trkpt lat="45.95085" lon="4.98175">
        <ele>294.399993896</ele>
        <time>2016-06-06T10:11:06.685Z</time>
      </trkpt>
      <trkpt lat="45.95086" lon="4.98167">
        <ele>294.299987793</ele>
        <time>2016-06-06T10:11:07.708Z</time>
      </trkpt>
      <trkpt lat="45.95087" lon="4.9816">
        <ele>294.399993896</ele>
        <time>2016-06-06T10:11:08.691Z</time>
      </trkpt>
      <trkpt lat="45.95088" lon="4.98153">
        <ele>294.399993896</ele>
        <time>2016-06-06T10:11:09.727Z</time>
      </trkpt>
      <trkpt lat="45.95089" lon="4.98146">
        <ele>294.600006104</ele>
        <time>2016-06-06T10:11:10.688Z</time>
      </trkpt>
      <trkpt lat="45.9509" lon="4.98139">
        <ele>294.299987793</ele>
        <time>2016-06-06T10:11:11.708Z</time>
      </trkpt>
      <trkpt lat="45.95091" lon="4.98132">
        <ele>294.399993896</ele>
        <time>2016-06-06T10:11:12.685Z</time>
      </trkpt>
      <trkpt lat="45.95093" lon="4.98124">
        <ele>294.399993896</ele>
        <time>2016-06-06T10:11:13.704Z</time>
      </trkpt>
      <trkpt lat="45.95094" lon="4.98117">
        <ele>295</ele>
        <time>2016-06-06T10:11:14.685Z</time>
      </trkpt>
      <trkpt lat="45.95095" lon="4.98109">
        <ele>295.299987793</ele>
        <time>2016-06-06T10:11:15.728Z</time>
      </trkpt>
      <trkpt lat="45.95096" lon="4.98101">
        <ele>295.799987793</ele>
        <time>2016-06-06T10:11:16.685Z</time>
      </trkpt>
      <trkpt lat="45.95097" lon="4.98093">
        <ele>296.100006104</ele>
        <time>2016-06-06T10:11:17.733Z</time>
      </trkpt>
      <trkpt lat="45.95098" lon="4.98085">
        <ele>296.299987793</ele>
        <time>2016-06-06T10:11:18.688Z</time>
      </trkpt>
      <trkpt lat="45.95098" lon="4.98076">
        <ele>296.5</ele>
        <time>2016-06-06T10:11:19.704Z</time>
      </trkpt>
      <trkpt lat="45.951" lon="4.98067">
        <ele>296.299987793</ele>
        <time>2016-06-06T10:11:20.688Z</time>
      </trkpt>
      <trkpt lat="45.951" lon="4.98057">
        <ele>296</ele>
        <time>2016-06-06T10:11:21.711Z</time>
      </trkpt>
      <trkpt lat="45.95101" lon="4.98048">
        <ele>296.100006104</ele>
        <time>2016-06-06T10:11:22.688Z</time>
      </trkpt>
      <trkpt lat="45.95101" lon="4.98039">
        <ele>295.600006104</ele>
        <time>2016-06-06T10:11:23.709Z</time>
      </trkpt>
      <trkpt lat="45.95101" lon="4.98029">
        <ele>295.299987793</ele>
        <time>2016-06-06T10:11:24.685Z</time>
      </trkpt>
      <trkpt lat="45.95101" lon="4.9802">
        <ele>294.700012207</ele>
        <time>2016-06-06T10:11:25.705Z</time>
      </trkpt>
      <trkpt lat="45.951" lon="4.98011">
        <ele>294.399993896</ele>
        <time>2016-06-06T10:11:26.685Z</time>
      </trkpt>
      <trkpt lat="45.951" lon="4.98002">
        <ele>294</ele>
        <time>2016-06-06T10:11:27.709Z</time>
      </trkpt>
      <trkpt lat="45.951" lon="4.97994">
        <ele>293.399993896</ele>
        <time>2016-06-06T10:11:28.716Z</time>
      </trkpt>
      <trkpt lat="45.951" lon="4.97985">
        <ele>293.200012207</ele>
        <time>2016-06-06T10:11:29.706Z</time>
      </trkpt>
      <trkpt lat="45.95099" lon="4.97977">
        <ele>293.100006104</ele>
        <time>2016-06-06T10:11:30.689Z</time>
      </trkpt>
      <trkpt lat="45.95099" lon="4.97969">
        <ele>293.100006104</ele>
        <time>2016-06-06T10:11:31.708Z</time>
      </trkpt>
      <trkpt lat="45.95098" lon="4.97961">
        <ele>293.399993896</ele>
        <time>2016-06-06T10:11:32.685Z</time>
      </trkpt>
      <trkpt lat="45.95098" lon="4.97954">
        <ele>293.5</ele>
        <time>2016-06-06T10:11:33.712Z</time>
      </trkpt>
      <trkpt lat="45.95097" lon="4.97947">
        <ele>293.5</ele>
        <time>2016-06-06T10:11:34.691Z</time>
      </trkpt>
      <trkpt lat="45.95096" lon="4.97939">
        <ele>293.399993896</ele>
        <time>2016-06-06T10:11:35.712Z</time>
      </trkpt>
      <trkpt lat="45.95095" lon="4.97932">
        <ele>293.5</ele>
        <time>2016-06-06T10:11:36.689Z</time>
      </trkpt>
      <trkpt lat="45.95093" lon="4.97924">
        <ele>293.600006104</ele>
        <time>2016-06-06T10:11:37.708Z</time>
      </trkpt>
      <trkpt lat="45.95091" lon="4.97916">
        <ele>293.700012207</ele>
        <time>2016-06-06T10:11:38.685Z</time>
      </trkpt>
      <trkpt lat="45.95089" lon="4.97908">
        <ele>293.799987793</ele>
        <time>2016-06-06T10:11:39.712Z</time>
      </trkpt>
      <trkpt lat="45.95087" lon="4.979">
        <ele>293.899993896</ele>
        <time>2016-06-06T10:11:40.685Z</time>
      </trkpt>
      <trkpt lat="45.95085" lon="4.97892">
        <ele>294</ele>
        <time>2016-06-06T10:11:41.735Z</time>
      </trkpt>
      <trkpt lat="45.95083" lon="4.97884">
        <ele>293.899993896</ele>
        <time>2016-06-06T10:11:42.688Z</time>
      </trkpt>
      <trkpt lat="45.95082" lon="4.97876">
        <ele>294</ele>
        <time>2016-06-06T10:11:43.708Z</time>
      </trkpt>
      <trkpt lat="45.9508" lon="4.97869">
        <ele>294</ele>
        <time>2016-06-06T10:11:44.686Z</time>
      </trkpt>
      <trkpt lat="45.95078" lon="4.97862">
        <ele>294.100006104</ele>
        <time>2016-06-06T10:11:45.711Z</time>
      </trkpt>
      <trkpt lat="45.95077" lon="4.97855">
        <ele>293.899993896</ele>
        <time>2016-06-06T10:11:46.686Z</time>
      </trkpt>
      <trkpt lat="45.95075" lon="4.97848">
        <ele>294.200012207</ele>
        <time>2016-06-06T10:11:47.709Z</time>
      </trkpt>
      <trkpt lat="45.95073" lon="4.9784">
        <ele>294</ele>
        <time>2016-06-06T10:11:48.688Z</time>
      </trkpt>
      <trkpt lat="45.95071" lon="4.97833">
        <ele>293.5</ele>
        <time>2016-06-06T10:11:49.707Z</time>
      </trkpt>
      <trkpt lat="45.95069" lon="4.97825">
        <ele>293.5</ele>
        <time>2016-06-06T10:11:50.688Z</time>
      </trkpt>
      <trkpt lat="45.95068" lon="4.97817">
        <ele>293.600006104</ele>
        <time>2016-06-06T10:11:51.712Z</time>
      </trkpt>
      <trkpt lat="45.95068" lon="4.97808">
        <ele>293.5</ele>
        <time>2016-06-06T10:11:52.688Z</time>
      </trkpt>
      <trkpt lat="45.95067" lon="4.97799">
        <ele>293.399993896</ele>
        <time>2016-06-06T10:11:53.706Z</time>
      </trkpt>
      <trkpt lat="45.95067" lon="4.9779">
        <ele>293.299987793</ele>
        <time>2016-06-06T10:11:54.688Z</time>
      </trkpt>
      <trkpt lat="45.95067" lon="4.97782">
        <ele>293.399993896</ele>
        <time>2016-06-06T10:11:55.708Z</time>
      </trkpt>
      <trkpt lat="45.95067" lon="4.97775">
        <ele>293.5</ele>
        <time>2016-06-06T10:11:56.689Z</time>
      </trkpt>
      <trkpt lat="45.95067" lon="4.97768">
        <ele>293.600006104</ele>
        <time>2016-06-06T10:11:57.724Z</time>
      </trkpt>
      <trkpt lat="45.95068" lon="4.9776">
        <ele>293.5</ele>
        <time>2016-06-06T10:11:58.686Z</time>
      </trkpt>
      <trkpt lat="45.95069" lon="4.97752">
        <ele>293.399993896</ele>
        <time>2016-06-06T10:11:59.709Z</time>
      </trkpt>
      <trkpt lat="45.95069" lon="4.97744">
        <ele>293.600006104</ele>
        <time>2016-06-06T10:12:00.688Z</time>
      </trkpt>
      <trkpt lat="45.9507" lon="4.97736">
        <ele>293.299987793</ele>
        <time>2016-06-06T10:12:01.711Z</time>
      </trkpt>
      <trkpt lat="45.95069" lon="4.97728">
        <ele>293.299987793</ele>
        <time>2016-06-06T10:12:02.728Z</time>
      </trkpt>
      <trkpt lat="45.95069" lon="4.97719">
        <ele>293</ele>
        <time>2016-06-06T10:12:03.708Z</time>
      </trkpt>
      <trkpt lat="45.9507" lon="4.97711">
        <ele>293</ele>
        <time>2016-06-06T10:12:04.682Z</time>
      </trkpt>
      <trkpt lat="45.9507" lon="4.97703">
        <ele>292.700012207</ele>
        <time>2016-06-06T10:12:05.706Z</time>
      </trkpt>
      <trkpt lat="45.95071" lon="4.97695">
        <ele>292.700012207</ele>
        <time>2016-06-06T10:12:06.686Z</time>
      </trkpt>
      <trkpt lat="45.95072" lon="4.97687">
        <ele>292.5</ele>
        <time>2016-06-06T10:12:07.704Z</time>
      </trkpt>
      <trkpt lat="45.95072" lon="4.97679">
        <ele>292.399993896</ele>
        <time>2016-06-06T10:12:08.688Z</time>
      </trkpt>
      <trkpt lat="45.95073" lon="4.97671">
        <ele>291.899993896</ele>
        <time>2016-06-06T10:12:09.708Z</time>
      </trkpt>
      <trkpt lat="45.95073" lon="4.97662">
        <ele>291.700012207</ele>
        <time>2016-06-06T10:12:10.686Z</time>
      </trkpt>
      <trkpt lat="45.95074" lon="4.97653">
        <ele>291.200012207</ele>
        <time>2016-06-06T10:12:11.705Z</time>
      </trkpt>
      <trkpt lat="45.95074" lon="4.97643">
        <ele>290.899993896</ele>
        <time>2016-06-06T10:12:12.688Z</time>
      </trkpt>
      <trkpt lat="45.95075" lon="4.97634">
        <ele>290.399993896</ele>
        <time>2016-06-06T10:12:13.75Z</time>
      </trkpt>
      <trkpt lat="45.95075" lon="4.97624">
        <ele>290.5</ele>
        <time>2016-06-06T10:12:14.688Z</time>
      </trkpt>
      <trkpt lat="45.95075" lon="4.97614">
        <ele>290.299987793</ele>
        <time>2016-06-06T10:12:15.711Z</time>
      </trkpt>
      <trkpt lat="45.95075" lon="4.97604">
        <ele>290.200012207</ele>
        <time>2016-06-06T10:12:16.682Z</time>
      </trkpt>
      <trkpt lat="45.95076" lon="4.97594">
        <ele>290</ele>
        <time>2016-06-06T10:12:17.708Z</time>
      </trkpt>
      <trkpt lat="45.95076" lon="4.97586">
        <ele>289.799987793</ele>
        <time>2016-06-06T10:12:18.696Z</time>
      </trkpt>
      <trkpt lat="45.95076" lon="4.97577">
        <ele>289.700012207</ele>
        <time>2016-06-06T10:12:19.707Z</time>
      </trkpt>
      <trkpt lat="45.95077" lon="4.97568">
        <ele>289.600006104</ele>
        <time>2016-06-06T10:12:20.686Z</time>
      </trkpt>
      <trkpt lat="45.95077" lon="4.9756">
        <ele>289.700012207</ele>
        <time>2016-06-06T10:12:21.712Z</time>
      </trkpt>
      <trkpt lat="45.95077" lon="4.97552">
        <ele>289.600006104</ele>
        <time>2016-06-06T10:12:22.687Z</time>
      </trkpt>
      <trkpt lat="45.95077" lon="4.97544">
        <ele>289.600006104</ele>
        <time>2016-06-06T10:12:23.738Z</time>
      </trkpt>
      <trkpt lat="45.95077" lon="4.97536">
        <ele>289.5</ele>
        <time>2016-06-06T10:12:24.682Z</time>
      </trkpt>
      <trkpt lat="45.95076" lon="4.97527">
        <ele>289.5</ele>
        <time>2016-06-06T10:12:25.704Z</time>
      </trkpt>
      <trkpt lat="45.95076" lon="4.97519">
        <ele>289.299987793</ele>
        <time>2016-06-06T10:12:26.72Z</time>
      </trkpt>
      <trkpt lat="45.95076" lon="4.9751">
        <ele>289</ele>
        <time>2016-06-06T10:12:27.712Z</time>
      </trkpt>
      <trkpt lat="45.95075" lon="4.97502">
        <ele>288.899993896</ele>
        <time>2016-06-06T10:12:28.682Z</time>
      </trkpt>
      <trkpt lat="45.95075" lon="4.97493">
        <ele>288.600006104</ele>
        <time>2016-06-06T10:12:29.706Z</time>
      </trkpt>
      <trkpt lat="45.95074" lon="4.97485">
        <ele>288.600006104</ele>
        <time>2016-06-06T10:12:30.689Z</time>
      </trkpt>
      <trkpt lat="45.95074" lon="4.97476">
        <ele>288.5</ele>
        <time>2016-06-06T10:12:31.705Z</time>
      </trkpt>
      <trkpt lat="45.95073" lon="4.97467">
        <ele>288.600006104</ele>
        <time>2016-06-06T10:12:32.685Z</time>
      </trkpt>
      <trkpt lat="45.95073" lon="4.97457">
        <ele>288.5</ele>
        <time>2016-06-06T10:12:33.727Z</time>
      </trkpt>
      <trkpt lat="45.95072" lon="4.97448">
        <ele>288.299987793</ele>
        <time>2016-06-06T10:12:34.685Z</time>
      </trkpt>
      <trkpt lat="45.95072" lon="4.97439">
        <ele>288.200012207</ele>
        <time>2016-06-06T10:12:35.732Z</time>
      </trkpt>
      <trkpt lat="45.95071" lon="4.9743">
        <ele>288.100006104</ele>
        <time>2016-06-06T10:12:36.685Z</time>
      </trkpt>
      <trkpt lat="45.95071" lon="4.97421">
        <ele>288</ele>
        <time>2016-06-06T10:12:37.705Z</time>
      </trkpt>
      <trkpt lat="45.95071" lon="4.97412">
        <ele>287.600006104</ele>
        <time>2016-06-06T10:12:38.686Z</time>
      </trkpt>
      <trkpt lat="45.9507" lon="4.97404">
        <ele>287.399993896</ele>
        <time>2016-06-06T10:12:39.741Z</time>
      </trkpt>
      <trkpt lat="45.9507" lon="4.97395">
        <ele>287.200012207</ele>
        <time>2016-06-06T10:12:40.682Z</time>
      </trkpt>
      <trkpt lat="45.95069" lon="4.97387">
        <ele>286.799987793</ele>
        <time>2016-06-06T10:12:41.709Z</time>
      </trkpt>
      <trkpt lat="45.95069" lon="4.97378">
        <ele>286.899993896</ele>
        <time>2016-06-06T10:12:42.684Z</time>
      </trkpt>
      <trkpt lat="45.95069" lon="4.9737">
        <ele>286.899993896</ele>
        <time>2016-06-06T10:12:43.705Z</time>
      </trkpt>
      <trkpt lat="45.95068" lon="4.97361">
        <ele>287.100006104</ele>
        <time>2016-06-06T10:12:44.684Z</time>
      </trkpt>
      <trkpt lat="45.95068" lon="4.97352">
        <ele>287.299987793</ele>
        <time>2016-06-06T10:12:45.708Z</time>
      </trkpt>
      <trkpt lat="45.95068" lon="4.97343">
        <ele>287.399993896</ele>
        <time>2016-06-06T10:12:46.684Z</time>
      </trkpt>
      <trkpt lat="45.95067" lon="4.97334">
        <ele>287.700012207</ele>
        <time>2016-06-06T10:12:47.73Z</time>
      </trkpt>
      <trkpt lat="45.95067" lon="4.97325">
        <ele>287.899993896</ele>
        <time>2016-06-06T10:12:48.682Z</time>
      </trkpt>
      <trkpt lat="45.95067" lon="4.97315">
        <ele>288</ele>
        <time>2016-06-06T10:12:49.704Z</time>
      </trkpt>
      <trkpt lat="45.95067" lon="4.97306">
        <ele>288.299987793</ele>
        <time>2016-06-06T10:12:50.684Z</time>
      </trkpt>
      <trkpt lat="45.95066" lon="4.97296">
        <ele>288.299987793</ele>
        <time>2016-06-06T10:12:51.711Z</time>
      </trkpt>
      <trkpt lat="45.95066" lon="4.97287">
        <ele>287.899993896</ele>
        <time>2016-06-06T10:12:52.703Z</time>
      </trkpt>
      <trkpt lat="45.95066" lon="4.97277">
        <ele>288.200012207</ele>
        <time>2016-06-06T10:12:53.713Z</time>
      </trkpt>
      <trkpt lat="45.95065" lon="4.97267">
        <ele>287.899993896</ele>
        <time>2016-06-06T10:12:54.684Z</time>
      </trkpt>
      <trkpt lat="45.95065" lon="4.97258">
        <ele>287.899993896</ele>
        <time>2016-06-06T10:12:55.745Z</time>
      </trkpt>
      <trkpt lat="45.95064" lon="4.97249">
        <ele>287.899993896</ele>
        <time>2016-06-06T10:12:56.684Z</time>
      </trkpt>
      <trkpt lat="45.95064" lon="4.97239">
        <ele>288</ele>
        <time>2016-06-06T10:12:57.711Z</time>
      </trkpt>
      <trkpt lat="45.95063" lon="4.9723">
        <ele>288</ele>
        <time>2016-06-06T10:12:58.685Z</time>
      </trkpt>
      <trkpt lat="45.95063" lon="4.9722">
        <ele>288.200012207</ele>
        <time>2016-06-06T10:12:59.708Z</time>
      </trkpt>
      <trkpt lat="45.95063" lon="4.97211">
        <ele>288.299987793</ele>
        <time>2016-06-06T10:13:00.7Z</time>
      </trkpt>
      <trkpt lat="45.95062" lon="4.97203">
        <ele>288.299987793</ele>
        <time>2016-06-06T10:13:01.704Z</time>
      </trkpt>
      <trkpt lat="45.95062" lon="4.97194">
        <ele>288.299987793</ele>
        <time>2016-06-06T10:13:02.685Z</time>
      </trkpt>
      <trkpt lat="45.95061" lon="4.97185">
        <ele>288.5</ele>
        <time>2016-06-06T10:13:03.708Z</time>
      </trkpt>
      <trkpt lat="45.95061" lon="4.97177">
        <ele>288.600006104</ele>
        <time>2016-06-06T10:13:04.686Z</time>
      </trkpt>
      <trkpt lat="45.95061" lon="4.97169">
        <ele>288.5</ele>
        <time>2016-06-06T10:13:05.722Z</time>
      </trkpt>
      <trkpt lat="45.9506" lon="4.9716">
        <ele>288.399993896</ele>
        <time>2016-06-06T10:13:06.688Z</time>
      </trkpt>
      <trkpt lat="45.9506" lon="4.97152">
        <ele>288.5</ele>
        <time>2016-06-06T10:13:07.704Z</time>
      </trkpt>
      <trkpt lat="45.9506" lon="4.97144">
        <ele>288.200012207</ele>
        <time>2016-06-06T10:13:08.685Z</time>
      </trkpt>
      <trkpt lat="45.95059" lon="4.97135">
        <ele>288</ele>
        <time>2016-06-06T10:13:09.708Z</time>
      </trkpt>
      <trkpt lat="45.95059" lon="4.97127">
        <ele>288</ele>
        <time>2016-06-06T10:13:10.685Z</time>
      </trkpt>
      <trkpt lat="45.95058" lon="4.97118">
        <ele>287.799987793</ele>
        <time>2016-06-06T10:13:11.715Z</time>
      </trkpt>
      <trkpt lat="45.95058" lon="4.97109">
        <ele>287.799987793</ele>
        <time>2016-06-06T10:13:12.685Z</time>
      </trkpt>
      <trkpt lat="45.95058" lon="4.971">
        <ele>287.700012207</ele>
        <time>2016-06-06T10:13:13.704Z</time>
      </trkpt>
      <trkpt lat="45.95057" lon="4.97091">
        <ele>287.700012207</ele>
        <time>2016-06-06T10:13:14.685Z</time>
      </trkpt>
      <trkpt lat="45.95057" lon="4.97082">
        <ele>287.700012207</ele>
        <time>2016-06-06T10:13:15.708Z</time>
      </trkpt>
      <trkpt lat="45.95057" lon="4.97074">
        <ele>287.700012207</ele>
        <time>2016-06-06T10:13:16.682Z</time>
      </trkpt>
      <trkpt lat="45.95057" lon="4.97065">
        <ele>287.799987793</ele>
        <time>2016-06-06T10:13:17.706Z</time>
      </trkpt>
      <trkpt lat="45.95057" lon="4.97058">
        <ele>287.899993896</ele>
        <time>2016-06-06T10:13:18.689Z</time>
      </trkpt>
      <trkpt lat="45.95057" lon="4.97049">
        <ele>288.100006104</ele>
        <time>2016-06-06T10:13:19.732Z</time>
      </trkpt>
      <trkpt lat="45.95057" lon="4.97041">
        <ele>288.299987793</ele>
        <time>2016-06-06T10:13:20.688Z</time>
      </trkpt>
      <trkpt lat="45.95056" lon="4.97032">
        <ele>288.299987793</ele>
        <time>2016-06-06T10:13:21.796Z</time>
      </trkpt>
      <trkpt lat="45.95056" lon="4.97023">
        <ele>288</ele>
        <time>2016-06-06T10:13:22.682Z</time>
      </trkpt>
      <trkpt lat="45.95055" lon="4.97014">
        <ele>288.299987793</ele>
        <time>2016-06-06T10:13:23.706Z</time>
      </trkpt>
      <trkpt lat="45.95055" lon="4.97004">
        <ele>288.600006104</ele>
        <time>2016-06-06T10:13:24.676Z</time>
      </trkpt>
      <trkpt lat="45.95055" lon="4.96995">
        <ele>288.799987793</ele>
        <time>2016-06-06T10:13:25.704Z</time>
      </trkpt>
      <trkpt lat="45.95054" lon="4.96986">
        <ele>289.100006104</ele>
        <time>2016-06-06T10:13:26.685Z</time>
      </trkpt>
      <trkpt lat="45.95054" lon="4.96977">
        <ele>289.200012207</ele>
        <time>2016-06-06T10:13:27.708Z</time>
      </trkpt>
      <trkpt lat="45.95054" lon="4.96969">
        <ele>289.200012207</ele>
        <time>2016-06-06T10:13:28.697Z</time>
      </trkpt>
      <trkpt lat="45.95054" lon="4.96961">
        <ele>289.299987793</ele>
        <time>2016-06-06T10:13:29.706Z</time>
      </trkpt>
      <trkpt lat="45.95054" lon="4.96953">
        <ele>289.399993896</ele>
        <time>2016-06-06T10:13:30.682Z</time>
      </trkpt>
      <trkpt lat="45.95053" lon="4.96946">
        <ele>289.5</ele>
        <time>2016-06-06T10:13:31.707Z</time>
      </trkpt>
      <trkpt lat="45.95053" lon="4.96938">
        <ele>289.600006104</ele>
        <time>2016-06-06T10:13:32.709Z</time>
      </trkpt>
      <trkpt lat="45.95053" lon="4.96931">
        <ele>289.600006104</ele>
        <time>2016-06-06T10:13:33.723Z</time>
      </trkpt>
      <trkpt lat="45.95053" lon="4.96924">
        <ele>289.799987793</ele>
        <time>2016-06-06T10:13:34.682Z</time>
      </trkpt>
      <trkpt lat="45.95052" lon="4.96916">
        <ele>289.799987793</ele>
        <time>2016-06-06T10:13:35.708Z</time>
      </trkpt>
      <trkpt lat="45.95052" lon="4.96908">
        <ele>290.299987793</ele>
        <time>2016-06-06T10:13:36.688Z</time>
      </trkpt>
      <trkpt lat="45.95052" lon="4.96899">
        <ele>290.399993896</ele>
        <time>2016-06-06T10:13:37.728Z</time>
      </trkpt>
      <trkpt lat="45.95051" lon="4.96891">
        <ele>290.700012207</ele>
        <time>2016-06-06T10:13:38.682Z</time>
      </trkpt>
      <trkpt lat="45.95051" lon="4.96882">
        <ele>291.100006104</ele>
        <time>2016-06-06T10:13:39.708Z</time>
      </trkpt>
      <trkpt lat="45.95051" lon="4.96873">
        <ele>291.299987793</ele>
        <time>2016-06-06T10:13:40.685Z</time>
      </trkpt>
      <trkpt lat="45.95051" lon="4.96864">
        <ele>291.700012207</ele>
        <time>2016-06-06T10:13:41.705Z</time>
      </trkpt>
      <trkpt lat="45.95051" lon="4.96855">
        <ele>291.799987793</ele>
        <time>2016-06-06T10:13:42.698Z</time>
      </trkpt>
      <trkpt lat="45.9505" lon="4.96846">
        <ele>291.700012207</ele>
        <time>2016-06-06T10:13:43.714Z</time>
      </trkpt>
      <trkpt lat="45.95049" lon="4.96837">
        <ele>291.799987793</ele>
        <time>2016-06-06T10:13:44.685Z</time>
      </trkpt>
      <trkpt lat="45.95049" lon="4.96829">
        <ele>292</ele>
        <time>2016-06-06T10:13:45.715Z</time>
      </trkpt>
      <trkpt lat="45.95048" lon="4.96821">
        <ele>292.100006104</ele>
        <time>2016-06-06T10:13:46.685Z</time>
      </trkpt>
      <trkpt lat="45.95048" lon="4.96813">
        <ele>292.299987793</ele>
        <time>2016-06-06T10:13:47.724Z</time>
      </trkpt>
      <trkpt lat="45.95048" lon="4.96805">
        <ele>292.299987793</ele>
        <time>2016-06-06T10:13:48.682Z</time>
      </trkpt>
      <trkpt lat="45.95048" lon="4.96797">
        <ele>292.200012207</ele>
        <time>2016-06-06T10:13:49.704Z</time>
      </trkpt>
      <trkpt lat="45.95048" lon="4.96789">
        <ele>292.100006104</ele>
        <time>2016-06-06T10:13:50.682Z</time>
      </trkpt>
      <trkpt lat="45.95047" lon="4.96781">
        <ele>292.200012207</ele>
        <time>2016-06-06T10:13:51.711Z</time>
      </trkpt>
      <trkpt lat="45.95047" lon="4.96773">
        <ele>292.399993896</ele>
        <time>2016-06-06T10:13:52.697Z</time>
      </trkpt>
      <trkpt lat="45.95046" lon="4.96764">
        <ele>292.200012207</ele>
        <time>2016-06-06T10:13:53.706Z</time>
      </trkpt>
      <trkpt lat="45.95046" lon="4.96755">
        <ele>292.600006104</ele>
        <time>2016-06-06T10:13:54.685Z</time>
      </trkpt>
      <trkpt lat="45.95045" lon="4.96747">
        <ele>292.600006104</ele>
        <time>2016-06-06T10:13:55.844Z</time>
      </trkpt>
      <trkpt lat="45.95045" lon="4.96738">
        <ele>292.600006104</ele>
        <time>2016-06-06T10:13:56.685Z</time>
      </trkpt>
      <trkpt lat="45.95045" lon="4.96729">
        <ele>293</ele>
        <time>2016-06-06T10:13:57.708Z</time>
      </trkpt>
      <trkpt lat="45.95045" lon="4.9672">
        <ele>293.100006104</ele>
        <time>2016-06-06T10:13:58.682Z</time>
      </trkpt>
      <trkpt lat="45.95045" lon="4.96711">
        <ele>293.200012207</ele>
        <time>2016-06-06T10:13:59.705Z</time>
      </trkpt>
      <trkpt lat="45.95044" lon="4.96702">
        <ele>292.799987793</ele>
        <time>2016-06-06T10:14:00.688Z</time>
      </trkpt>
      <trkpt lat="45.95044" lon="4.96694">
        <ele>292.700012207</ele>
        <time>2016-06-06T10:14:01.704Z</time>
      </trkpt>
      <trkpt lat="45.95044" lon="4.96686">
        <ele>292.899993896</ele>
        <time>2016-06-06T10:14:02.686Z</time>
      </trkpt>
      <trkpt lat="45.95044" lon="4.96677">
        <ele>293.100006104</ele>
        <time>2016-06-06T10:14:03.711Z</time>
      </trkpt>
      <trkpt lat="45.95044" lon="4.96669">
        <ele>293.100006104</ele>
        <time>2016-06-06T10:14:04.682Z</time>
      </trkpt>
      <trkpt lat="45.95044" lon="4.96661">
        <ele>293.299987793</ele>
        <time>2016-06-06T10:14:05.706Z</time>
      </trkpt>
      <trkpt lat="45.95044" lon="4.96653">
        <ele>293.399993896</ele>
        <time>2016-06-06T10:14:06.686Z</time>
      </trkpt>
      <trkpt lat="45.95045" lon="4.96646">
        <ele>293.5</ele>
        <time>2016-06-06T10:14:07.733Z</time>
      </trkpt>
      <trkpt lat="45.95045" lon="4.96638">
        <ele>293.700012207</ele>
        <time>2016-06-06T10:14:08.698Z</time>
      </trkpt>
      <trkpt lat="45.95046" lon="4.96629">
        <ele>293.899993896</ele>
        <time>2016-06-06T10:14:09.708Z</time>
      </trkpt>
      <trkpt lat="45.95047" lon="4.96621">
        <ele>294.200012207</ele>
        <time>2016-06-06T10:14:10.688Z</time>
      </trkpt>
      <trkpt lat="45.95048" lon="4.96613">
        <ele>294.299987793</ele>
        <time>2016-06-06T10:14:11.709Z</time>
      </trkpt>
      <trkpt lat="45.95049" lon="4.96605">
        <ele>294.399993896</ele>
        <time>2016-06-06T10:14:12.682Z</time>
      </trkpt>
      <trkpt lat="45.9505" lon="4.96598">
        <ele>294.399993896</ele>
        <time>2016-06-06T10:14:13.719Z</time>
      </trkpt>
      <trkpt lat="45.95051" lon="4.9659">
        <ele>294.5</ele>
        <time>2016-06-06T10:14:14.688Z</time>
      </trkpt>
      <trkpt lat="45.95052" lon="4.96583">
        <ele>294.399993896</ele>
        <time>2016-06-06T10:14:15.708Z</time>
      </trkpt>
      <trkpt lat="45.95053" lon="4.96575">
        <ele>294.5</ele>
        <time>2016-06-06T10:14:16.685Z</time>
      </trkpt>
      <trkpt lat="45.95055" lon="4.96568">
        <ele>294.5</ele>
        <time>2016-06-06T10:14:17.861Z</time>
      </trkpt>
      <trkpt lat="45.95057" lon="4.96561">
        <ele>294.600006104</ele>
        <time>2016-06-06T10:14:18.686Z</time>
      </trkpt>
      <trkpt lat="45.9506" lon="4.96553">
        <ele>294.700012207</ele>
        <time>2016-06-06T10:14:19.708Z</time>
      </trkpt>
      <trkpt lat="45.95062" lon="4.96545">
        <ele>294.899993896</ele>
        <time>2016-06-06T10:14:20.684Z</time>
      </trkpt>
      <trkpt lat="45.95065" lon="4.96537">
        <ele>295</ele>
        <time>2016-06-06T10:14:21.715Z</time>
      </trkpt>
      <trkpt lat="45.95068" lon="4.96531">
        <ele>294.600006104</ele>
        <time>2016-06-06T10:14:22.733Z</time>
      </trkpt>
      <trkpt lat="45.95071" lon="4.96523">
        <ele>294.899993896</ele>
        <time>2016-06-06T10:14:23.705Z</time>
      </trkpt>
      <trkpt lat="45.95074" lon="4.96514">
        <ele>294.899993896</ele>
        <time>2016-06-06T10:14:24.688Z</time>
      </trkpt>
      <trkpt lat="45.95076" lon="4.96505">
        <ele>294.799987793</ele>
        <time>2016-06-06T10:14:25.707Z</time>
      </trkpt>
      <trkpt lat="45.95079" lon="4.96496">
        <ele>294.799987793</ele>
        <time>2016-06-06T10:14:26.688Z</time>
      </trkpt>
      <trkpt lat="45.95081" lon="4.96488">
        <ele>294.700012207</ele>
        <time>2016-06-06T10:14:27.713Z</time>
      </trkpt>
      <trkpt lat="45.95084" lon="4.96481">
        <ele>294.600006104</ele>
        <time>2016-06-06T10:14:28.682Z</time>
      </trkpt>
      <trkpt lat="45.95086" lon="4.96474">
        <ele>294.700012207</ele>
        <time>2016-06-06T10:14:29.723Z</time>
      </trkpt>
      <trkpt lat="45.95088" lon="4.96467">
        <ele>294.899993896</ele>
        <time>2016-06-06T10:14:30.682Z</time>
      </trkpt>
      <trkpt lat="45.9509" lon="4.96461">
        <ele>294.899993896</ele>
        <time>2016-06-06T10:14:31.704Z</time>
      </trkpt>
      <trkpt lat="45.95092" lon="4.96455">
        <ele>295</ele>
        <time>2016-06-06T10:14:32.686Z</time>
      </trkpt>
      <trkpt lat="45.95094" lon="4.96448">
        <ele>295.299987793</ele>
        <time>2016-06-06T10:14:33.711Z</time>
      </trkpt>
      <trkpt lat="45.95096" lon="4.96442">
        <ele>295.600006104</ele>
        <time>2016-06-06T10:14:34.688Z</time>
      </trkpt>
      <trkpt lat="45.95099" lon="4.96435">
        <ele>295.600006104</ele>
        <time>2016-06-06T10:14:35.704Z</time>
      </trkpt>
      <trkpt lat="45.95101" lon="4.96427">
        <ele>295.799987793</ele>
        <time>2016-06-06T10:14:36.686Z</time>
      </trkpt>
      <trkpt lat="45.95104" lon="4.96418">
        <ele>295.700012207</ele>
        <time>2016-06-06T10:14:37.714Z</time>
      </trkpt>
      <trkpt lat="45.95107" lon="4.9641">
        <ele>295.5</ele>
        <time>2016-06-06T10:14:38.686Z</time>
      </trkpt>
      <trkpt lat="45.95111" lon="4.964">
        <ele>295</ele>
        <time>2016-06-06T10:14:39.711Z</time>
      </trkpt>
      <trkpt lat="45.95114" lon="4.96392">
        <ele>295</ele>
        <time>2016-06-06T10:14:40.682Z</time>
      </trkpt>
      <trkpt lat="45.95117" lon="4.96384">
        <ele>295</ele>
        <time>2016-06-06T10:14:41.709Z</time>
      </trkpt>
      <trkpt lat="45.9512" lon="4.96376">
        <ele>295</ele>
        <time>2016-06-06T10:14:42.682Z</time>
      </trkpt>
      <trkpt lat="45.95122" lon="4.96369">
        <ele>295.100006104</ele>
        <time>2016-06-06T10:14:43.704Z</time>
      </trkpt>
      <trkpt lat="45.95124" lon="4.96362">
        <ele>295</ele>
        <time>2016-06-06T10:14:44.685Z</time>
      </trkpt>
      <trkpt lat="45.95127" lon="4.96355">
        <ele>295.100006104</ele>
        <time>2016-06-06T10:14:45.71Z</time>
      </trkpt>
      <trkpt lat="45.9513" lon="4.96347">
        <ele>294.600006104</ele>
        <time>2016-06-06T10:14:46.685Z</time>
      </trkpt>
      <trkpt lat="45.95133" lon="4.96339">
        <ele>294.5</ele>
        <time>2016-06-06T10:14:47.712Z</time>
      </trkpt>
      <trkpt lat="45.95136" lon="4.96332">
        <ele>294.600006104</ele>
        <time>2016-06-06T10:14:48.682Z</time>
      </trkpt>
      <trkpt lat="45.95138" lon="4.96325">
        <ele>294.700012207</ele>
        <time>2016-06-06T10:14:49.708Z</time>
      </trkpt>
      <trkpt lat="45.95141" lon="4.96317">
        <ele>294.700012207</ele>
        <time>2016-06-06T10:14:50.682Z</time>
      </trkpt>
      <trkpt lat="45.95144" lon="4.9631">
        <ele>294.799987793</ele>
        <time>2016-06-06T10:14:51.714Z</time>
      </trkpt>
      <trkpt lat="45.95146" lon="4.96303">
        <ele>294.799987793</ele>
        <time>2016-06-06T10:14:52.682Z</time>
      </trkpt>
      <trkpt lat="45.95149" lon="4.96294">
        <ele>294.600006104</ele>
        <time>2016-06-06T10:14:53.734Z</time>
      </trkpt>
      <trkpt lat="45.95152" lon="4.96286">
        <ele>294.799987793</ele>
        <time>2016-06-06T10:14:54.682Z</time>
      </trkpt>
      <trkpt lat="45.95154" lon="4.96278">
        <ele>294.799987793</ele>
        <time>2016-06-06T10:14:55.72Z</time>
      </trkpt>
      <trkpt lat="45.95158" lon="4.9627">
        <ele>294.600006104</ele>
        <time>2016-06-06T10:14:56.685Z</time>
      </trkpt>
      <trkpt lat="45.9516" lon="4.96263">
        <ele>294.399993896</ele>
        <time>2016-06-06T10:14:57.71Z</time>
      </trkpt>
      <trkpt lat="45.95161" lon="4.96254">
        <ele>294.299987793</ele>
        <time>2016-06-06T10:14:58.687Z</time>
      </trkpt>
      <trkpt lat="45.95162" lon="4.96245">
        <ele>294.100006104</ele>
        <time>2016-06-06T10:14:59.708Z</time>
      </trkpt>
      <trkpt lat="45.95163" lon="4.96237">
        <ele>294.200012207</ele>
        <time>2016-06-06T10:15:00.682Z</time>
      </trkpt>
      <trkpt lat="45.95164" lon="4.96228">
        <ele>294.200012207</ele>
        <time>2016-06-06T10:15:01.707Z</time>
      </trkpt>
      <trkpt lat="45.95164" lon="4.96219">
        <ele>294.200012207</ele>
        <time>2016-06-06T10:15:02.708Z</time>
      </trkpt>
      <trkpt lat="45.95165" lon="4.96211">
        <ele>294.100006104</ele>
        <time>2016-06-06T10:15:03.708Z</time>
      </trkpt>
      <trkpt lat="45.95165" lon="4.96203">
        <ele>294</ele>
        <time>2016-06-06T10:15:04.685Z</time>
      </trkpt>
      <trkpt lat="45.95166" lon="4.96194">
        <ele>294.200012207</ele>
        <time>2016-06-06T10:15:05.705Z</time>
      </trkpt>
      <trkpt lat="45.95166" lon="4.96186">
        <ele>294.5</ele>
        <time>2016-06-06T10:15:06.682Z</time>
      </trkpt>
      <trkpt lat="45.95166" lon="4.96177">
        <ele>294.799987793</ele>
        <time>2016-06-06T10:15:07.704Z</time>
      </trkpt>
      <trkpt lat="45.95167" lon="4.96168">
        <ele>294.799987793</ele>
        <time>2016-06-06T10:15:08.688Z</time>
      </trkpt>
      <trkpt lat="45.95167" lon="4.96159">
        <ele>294.799987793</ele>
        <time>2016-06-06T10:15:09.711Z</time>
      </trkpt>
      <trkpt lat="45.95168" lon="4.96151">
        <ele>294.899993896</ele>
        <time>2016-06-06T10:15:10.687Z</time>
      </trkpt>
      <trkpt lat="45.95168" lon="4.96143">
        <ele>294.700012207</ele>
        <time>2016-06-06T10:15:11.724Z</time>
      </trkpt>
      <trkpt lat="45.95168" lon="4.96135">
        <ele>294.600006104</ele>
        <time>2016-06-06T10:15:12.684Z</time>
      </trkpt>
      <trkpt lat="45.95169" lon="4.96127">
        <ele>294.399993896</ele>
        <time>2016-06-06T10:15:13.707Z</time>
      </trkpt>
      <trkpt lat="45.95169" lon="4.96119">
        <ele>294.200012207</ele>
        <time>2016-06-06T10:15:14.686Z</time>
      </trkpt>
      <trkpt lat="45.95168" lon="4.96111">
        <ele>294</ele>
        <time>2016-06-06T10:15:15.707Z</time>
      </trkpt>
      <trkpt lat="45.95168" lon="4.96102">
        <ele>293.899993896</ele>
        <time>2016-06-06T10:15:16.684Z</time>
      </trkpt>
      <trkpt lat="45.95168" lon="4.96093">
        <ele>294</ele>
        <time>2016-06-06T10:15:17.709Z</time>
      </trkpt>
      <trkpt lat="45.95167" lon="4.96084">
        <ele>293.899993896</ele>
        <time>2016-06-06T10:15:18.687Z</time>
      </trkpt>
      <trkpt lat="45.95165" lon="4.96075">
        <ele>293.700012207</ele>
        <time>2016-06-06T10:15:19.707Z</time>
      </trkpt>
      <trkpt lat="45.95164" lon="4.96066">
        <ele>293.200012207</ele>
        <time>2016-06-06T10:15:20.714Z</time>
      </trkpt>
      <trkpt lat="45.95162" lon="4.96057">
        <ele>293.100006104</ele>
        <time>2016-06-06T10:15:21.711Z</time>
      </trkpt>
      <trkpt lat="45.9516" lon="4.96048">
        <ele>293.100006104</ele>
        <time>2016-06-06T10:15:22.688Z</time>
      </trkpt>
      <trkpt lat="45.95158" lon="4.96039">
        <ele>293.100006104</ele>
        <time>2016-06-06T10:15:23.705Z</time>
      </trkpt>
      <trkpt lat="45.95156" lon="4.9603">
        <ele>292.700012207</ele>
        <time>2016-06-06T10:15:24.683Z</time>
      </trkpt>
      <trkpt lat="45.95154" lon="4.96021">
        <ele>292.5</ele>
        <time>2016-06-06T10:15:25.705Z</time>
      </trkpt>
      <trkpt lat="45.95152" lon="4.96013">
        <ele>292.100006104</ele>
        <time>2016-06-06T10:15:26.686Z</time>
      </trkpt>
      <trkpt lat="45.9515" lon="4.96004">
        <ele>292</ele>
        <time>2016-06-06T10:15:27.727Z</time>
      </trkpt>
      <trkpt lat="45.95147" lon="4.95995">
        <ele>291.700012207</ele>
        <time>2016-06-06T10:15:28.685Z</time>
      </trkpt>
      <trkpt lat="45.95145" lon="4.95987">
        <ele>291.5</ele>
        <time>2016-06-06T10:15:29.706Z</time>
      </trkpt>
      <trkpt lat="45.95143" lon="4.95978">
        <ele>291.399993896</ele>
        <time>2016-06-06T10:15:30.682Z</time>
      </trkpt>
      <trkpt lat="45.95141" lon="4.9597">
        <ele>290.899993896</ele>
        <time>2016-06-06T10:15:31.704Z</time>
      </trkpt>
      <trkpt lat="45.95138" lon="4.95961">
        <ele>290.799987793</ele>
        <time>2016-06-06T10:15:32.682Z</time>
      </trkpt>
      <trkpt lat="45.95136" lon="4.95951">
        <ele>290.700012207</ele>
        <time>2016-06-06T10:15:33.735Z</time>
      </trkpt>
      <trkpt lat="45.95134" lon="4.95942">
        <ele>290.399993896</ele>
        <time>2016-06-06T10:15:34.683Z</time>
      </trkpt>
      <trkpt lat="45.95132" lon="4.95931">
        <ele>290.100006104</ele>
        <time>2016-06-06T10:15:35.706Z</time>
      </trkpt>
      <trkpt lat="45.95129" lon="4.95921">
        <ele>289.399993896</ele>
        <time>2016-06-06T10:15:36.683Z</time>
      </trkpt>
      <trkpt lat="45.95126" lon="4.95912">
        <ele>288.899993896</ele>
        <time>2016-06-06T10:15:37.705Z</time>
      </trkpt>
      <trkpt lat="45.95123" lon="4.95902">
        <ele>288.899993896</ele>
        <time>2016-06-06T10:15:38.687Z</time>
      </trkpt>
      <trkpt lat="45.95121" lon="4.95893">
        <ele>289.399993896</ele>
        <time>2016-06-06T10:15:39.74Z</time>
      </trkpt>
      <trkpt lat="45.95119" lon="4.95884">
        <ele>289</ele>
        <time>2016-06-06T10:15:40.689Z</time>
      </trkpt>
      <trkpt lat="45.95117" lon="4.95875">
        <ele>288.600006104</ele>
        <time>2016-06-06T10:15:41.71Z</time>
      </trkpt>
      <trkpt lat="45.95115" lon="4.95866">
        <ele>288.200012207</ele>
        <time>2016-06-06T10:15:42.689Z</time>
      </trkpt>
      <trkpt lat="45.95113" lon="4.95858">
        <ele>287.799987793</ele>
        <time>2016-06-06T10:15:43.722Z</time>
      </trkpt>
      <trkpt lat="45.95111" lon="4.9585">
        <ele>287.799987793</ele>
        <time>2016-06-06T10:15:44.682Z</time>
      </trkpt>
      <trkpt lat="45.95109" lon="4.95842">
        <ele>287.799987793</ele>
        <time>2016-06-06T10:15:45.707Z</time>
      </trkpt>
      <trkpt lat="45.95107" lon="4.95834">
        <ele>287.600006104</ele>
        <time>2016-06-06T10:15:46.682Z</time>
      </trkpt>
      <trkpt lat="45.95105" lon="4.95826">
        <ele>287.899993896</ele>
        <time>2016-06-06T10:15:47.733Z</time>
      </trkpt>
      <trkpt lat="45.95104" lon="4.95818">
        <ele>287.799987793</ele>
        <time>2016-06-06T10:15:48.686Z</time>
      </trkpt>
      <trkpt lat="45.95102" lon="4.9581">
        <ele>287.700012207</ele>
        <time>2016-06-06T10:15:49.704Z</time>
      </trkpt>
      <trkpt lat="45.951" lon="4.95803">
        <ele>288</ele>
        <time>2016-06-06T10:15:50.686Z</time>
      </trkpt>
      <trkpt lat="45.95099" lon="4.95795">
        <ele>288.200012207</ele>
        <time>2016-06-06T10:15:51.71Z</time>
      </trkpt>
      <trkpt lat="45.95097" lon="4.95787">
        <ele>288.700012207</ele>
        <time>2016-06-06T10:15:52.682Z</time>
      </trkpt>
      <trkpt lat="45.95095" lon="4.95778">
        <ele>288.399993896</ele>
        <time>2016-06-06T10:15:53.706Z</time>
      </trkpt>
      <trkpt lat="45.95093" lon="4.95769">
        <ele>288.399993896</ele>
        <time>2016-06-06T10:15:54.682Z</time>
      </trkpt>
      <trkpt lat="45.95091" lon="4.9576">
        <ele>288.399993896</ele>
        <time>2016-06-06T10:15:55.765Z</time>
      </trkpt>
      <trkpt lat="45.95089" lon="4.95752">
        <ele>288.600006104</ele>
        <time>2016-06-06T10:15:56.685Z</time>
      </trkpt>
      <trkpt lat="45.95088" lon="4.95745">
        <ele>288.600006104</ele>
        <time>2016-06-06T10:15:57.711Z</time>
      </trkpt>
      <trkpt lat="45.95086" lon="4.95738">
        <ele>288.600006104</ele>
        <time>2016-06-06T10:15:58.685Z</time>
      </trkpt>
      <trkpt lat="45.95085" lon="4.9573">
        <ele>288.600006104</ele>
        <time>2016-06-06T10:15:59.724Z</time>
      </trkpt>
      <trkpt lat="45.95084" lon="4.95723">
        <ele>288.700012207</ele>
        <time>2016-06-06T10:16:00.687Z</time>
      </trkpt>
      <trkpt lat="45.95083" lon="4.95716">
        <ele>288.700012207</ele>
        <time>2016-06-06T10:16:01.704Z</time>
      </trkpt>
      <trkpt lat="45.95081" lon="4.95709">
        <ele>289</ele>
        <time>2016-06-06T10:16:02.684Z</time>
      </trkpt>
      <trkpt lat="45.9508" lon="4.95702">
        <ele>289.100006104</ele>
        <time>2016-06-06T10:16:03.711Z</time>
      </trkpt>
      <trkpt lat="45.95078" lon="4.95695">
        <ele>289.299987793</ele>
        <time>2016-06-06T10:16:04.684Z</time>
      </trkpt>
      <trkpt lat="45.95077" lon="4.95687">
        <ele>289.600006104</ele>
        <time>2016-06-06T10:16:05.709Z</time>
      </trkpt>
      <trkpt lat="45.95075" lon="4.95681">
        <ele>289.899993896</ele>
        <time>2016-06-06T10:16:06.682Z</time>
      </trkpt>
      <trkpt lat="45.95073" lon="4.95675">
        <ele>290.5</ele>
        <time>2016-06-06T10:16:07.704Z</time>
      </trkpt>
      <trkpt lat="45.9507" lon="4.95669">
        <ele>290.899993896</ele>
        <time>2016-06-06T10:16:08.684Z</time>
      </trkpt>
      <trkpt lat="45.95068" lon="4.95662">
        <ele>291.100006104</ele>
        <time>2016-06-06T10:16:09.711Z</time>
      </trkpt>
      <trkpt lat="45.95065" lon="4.95656">
        <ele>292</ele>
        <time>2016-06-06T10:16:10.684Z</time>
      </trkpt>
      <trkpt lat="45.95063" lon="4.95649">
        <ele>292.299987793</ele>
        <time>2016-06-06T10:16:11.74Z</time>
      </trkpt>
      <trkpt lat="45.9506" lon="4.95642">
        <ele>292.700012207</ele>
        <time>2016-06-06T10:16:12.684Z</time>
      </trkpt>
      <trkpt lat="45.95057" lon="4.95636">
        <ele>292.899993896</ele>
        <time>2016-06-06T10:16:13.703Z</time>
      </trkpt>
      <trkpt lat="45.95055" lon="4.95629">
        <ele>293.200012207</ele>
        <time>2016-06-06T10:16:14.687Z</time>
      </trkpt>
      <trkpt lat="45.95052" lon="4.95623">
        <ele>293.799987793</ele>
        <time>2016-06-06T10:16:15.711Z</time>
      </trkpt>
      <trkpt lat="45.9505" lon="4.95615">
        <ele>294.600006104</ele>
        <time>2016-06-06T10:16:16.683Z</time>
      </trkpt>
      <trkpt lat="45.95047" lon="4.95608">
        <ele>295.299987793</ele>
        <time>2016-06-06T10:16:17.821Z</time>
      </trkpt>
      <trkpt lat="45.95045" lon="4.95602">
        <ele>296</ele>
        <time>2016-06-06T10:16:18.684Z</time>
      </trkpt>
      <trkpt lat="45.95042" lon="4.95595">
        <ele>296.200012207</ele>
        <time>2016-06-06T10:16:19.738Z</time>
      </trkpt>
      <trkpt lat="45.95039" lon="4.95587">
        <ele>296.899993896</ele>
        <time>2016-06-06T10:16:20.7Z</time>
      </trkpt>
      <trkpt lat="45.95037" lon="4.9558">
        <ele>297.5</ele>
        <time>2016-06-06T10:16:21.708Z</time>
      </trkpt>
      <trkpt lat="45.95035" lon="4.95572">
        <ele>297.799987793</ele>
        <time>2016-06-06T10:16:22.685Z</time>
      </trkpt>
      <trkpt lat="45.95033" lon="4.95564">
        <ele>298</ele>
        <time>2016-06-06T10:16:23.705Z</time>
      </trkpt>
      <trkpt lat="45.95032" lon="4.95557">
        <ele>298.600006104</ele>
        <time>2016-06-06T10:16:24.683Z</time>
      </trkpt>
      <trkpt lat="45.9503" lon="4.95549">
        <ele>299.200012207</ele>
        <time>2016-06-06T10:16:25.766Z</time>
      </trkpt>
      <trkpt lat="45.95029" lon="4.95542">
        <ele>299.100006104</ele>
        <time>2016-06-06T10:16:26.685Z</time>
      </trkpt>
      <trkpt lat="45.95028" lon="4.95534">
        <ele>299.299987793</ele>
        <time>2016-06-06T10:16:27.715Z</time>
      </trkpt>
      <trkpt lat="45.95026" lon="4.95527">
        <ele>299.799987793</ele>
        <time>2016-06-06T10:16:28.684Z</time>
      </trkpt>
      <trkpt lat="45.95024" lon="4.95519">
        <ele>300</ele>
        <time>2016-06-06T10:16:29.707Z</time>
      </trkpt>
      <trkpt lat="45.95023" lon="4.95511">
        <ele>300.200012207</ele>
        <time>2016-06-06T10:16:30.684Z</time>
      </trkpt>
      <trkpt lat="45.95023" lon="4.95503">
        <ele>300.299987793</ele>
        <time>2016-06-06T10:16:32.023Z</time>
      </trkpt>
      <trkpt lat="45.95022" lon="4.95496">
        <ele>300.5</ele>
        <time>2016-06-06T10:16:32.708Z</time>
      </trkpt>
      <trkpt lat="45.95021" lon="4.95489">
        <ele>300.299987793</ele>
        <time>2016-06-06T10:16:33.706Z</time>
      </trkpt>
      <trkpt lat="45.9502" lon="4.95482">
        <ele>300.299987793</ele>
        <time>2016-06-06T10:16:34.684Z</time>
      </trkpt>
      <trkpt lat="45.95019" lon="4.95476">
        <ele>300.299987793</ele>
        <time>2016-06-06T10:16:35.708Z</time>
      </trkpt>
      <trkpt lat="45.95019" lon="4.95468">
        <ele>300.399993896</ele>
        <time>2016-06-06T10:16:36.683Z</time>
      </trkpt>
      <trkpt lat="45.95019" lon="4.95462">
        <ele>300.5</ele>
        <time>2016-06-06T10:16:37.707Z</time>
      </trkpt>
      <trkpt lat="45.9502" lon="4.95456">
        <ele>300.700012207</ele>
        <time>2016-06-06T10:16:38.687Z</time>
      </trkpt>
      <trkpt lat="45.9502" lon="4.95449">
        <ele>300.899993896</ele>
        <time>2016-06-06T10:16:39.706Z</time>
      </trkpt>
      <trkpt lat="45.9502" lon="4.95442">
        <ele>301.200012207</ele>
        <time>2016-06-06T10:16:40.683Z</time>
      </trkpt>
      <trkpt lat="45.9502" lon="4.95435">
        <ele>301.299987793</ele>
        <time>2016-06-06T10:16:41.72Z</time>
      </trkpt>
      <trkpt lat="45.9502" lon="4.95429">
        <ele>301.299987793</ele>
        <time>2016-06-06T10:16:42.683Z</time>
      </trkpt>
      <trkpt lat="45.9502" lon="4.95416">
        <ele>302.200012207</ele>
        <time>2016-06-06T10:16:44.707Z</time>
      </trkpt>
      <trkpt lat="45.95021" lon="4.95409">
        <ele>302.5</ele>
        <time>2016-06-06T10:16:45.69Z</time>
      </trkpt>
      <trkpt lat="45.95021" lon="4.95402">
        <ele>303</ele>
        <time>2016-06-06T10:16:46.718Z</time>
      </trkpt>
      <trkpt lat="45.95021" lon="4.95396">
        <ele>303.399993896</ele>
        <time>2016-06-06T10:16:47.684Z</time>
      </trkpt>
      <trkpt lat="45.95021" lon="4.95388">
        <ele>303.5</ele>
        <time>2016-06-06T10:16:48.706Z</time>
      </trkpt>
      <trkpt lat="45.95022" lon="4.95381">
        <ele>303.600006104</ele>
        <time>2016-06-06T10:16:49.686Z</time>
      </trkpt>
      <trkpt lat="45.95022" lon="4.95373">
        <ele>304.200012207</ele>
        <time>2016-06-06T10:16:50.703Z</time>
      </trkpt>
      <trkpt lat="45.95022" lon="4.95365">
        <ele>304.600006104</ele>
        <time>2016-06-06T10:16:51.691Z</time>
      </trkpt>
      <trkpt lat="45.95021" lon="4.95358">
        <ele>305</ele>
        <time>2016-06-06T10:16:52.703Z</time>
      </trkpt>
      <trkpt lat="45.95021" lon="4.9535">
        <ele>305.399993896</ele>
        <time>2016-06-06T10:16:53.684Z</time>
      </trkpt>
      <trkpt lat="45.95021" lon="4.95341">
        <ele>305.700012207</ele>
        <time>2016-06-06T10:16:54.703Z</time>
      </trkpt>
      <trkpt lat="45.95021" lon="4.95333">
        <ele>306.299987793</ele>
        <time>2016-06-06T10:16:55.683Z</time>
      </trkpt>
      <trkpt lat="45.95021" lon="4.95325">
        <ele>306.399993896</ele>
        <time>2016-06-06T10:16:56.729Z</time>
      </trkpt>
      <trkpt lat="45.9502" lon="4.95318">
        <ele>307.100006104</ele>
        <time>2016-06-06T10:16:57.691Z</time>
      </trkpt>
      <trkpt lat="45.95021" lon="4.9531">
        <ele>307.299987793</ele>
        <time>2016-06-06T10:16:58.707Z</time>
      </trkpt>
      <trkpt lat="45.95021" lon="4.95303">
        <ele>307.5</ele>
        <time>2016-06-06T10:16:59.684Z</time>
      </trkpt>
      <trkpt lat="45.95022" lon="4.95295">
        <ele>307.899993896</ele>
        <time>2016-06-06T10:17:00.703Z</time>
      </trkpt>
      <trkpt lat="45.95022" lon="4.95288">
        <ele>308.100006104</ele>
        <time>2016-06-06T10:17:01.683Z</time>
      </trkpt>
      <trkpt lat="45.95022" lon="4.9528">
        <ele>307.899993896</ele>
        <time>2016-06-06T10:17:02.863Z</time>
      </trkpt>
      <trkpt lat="45.95021" lon="4.95271">
        <ele>308.299987793</ele>
        <time>2016-06-06T10:17:03.687Z</time>
      </trkpt>
      <trkpt lat="45.95021" lon="4.95263">
        <ele>308.5</ele>
        <time>2016-06-06T10:17:04.703Z</time>
      </trkpt>
      <trkpt lat="45.9502" lon="4.95255">
        <ele>308.700012207</ele>
        <time>2016-06-06T10:17:05.685Z</time>
      </trkpt>
      <trkpt lat="45.95019" lon="4.95248">
        <ele>309.100006104</ele>
        <time>2016-06-06T10:17:06.703Z</time>
      </trkpt>
      <trkpt lat="45.95018" lon="4.9524">
        <ele>309.299987793</ele>
        <time>2016-06-06T10:17:07.684Z</time>
      </trkpt>
      <trkpt lat="45.95017" lon="4.95232">
        <ele>309.700012207</ele>
        <time>2016-06-06T10:17:08.734Z</time>
      </trkpt>
      <trkpt lat="45.95017" lon="4.95225">
        <ele>309.899993896</ele>
        <time>2016-06-06T10:17:09.686Z</time>
      </trkpt>
      <trkpt lat="45.95016" lon="4.95217">
        <ele>310.200012207</ele>
        <time>2016-06-06T10:17:10.702Z</time>
      </trkpt>
      <trkpt lat="45.95016" lon="4.9521">
        <ele>310.100006104</ele>
        <time>2016-06-06T10:17:11.687Z</time>
      </trkpt>
      <trkpt lat="45.95015" lon="4.95202">
        <ele>309.700012207</ele>
        <time>2016-06-06T10:17:12.78Z</time>
      </trkpt>
      <trkpt lat="45.95014" lon="4.95194">
        <ele>309.600006104</ele>
        <time>2016-06-06T10:17:13.684Z</time>
      </trkpt>
      <trkpt lat="45.95014" lon="4.95186">
        <ele>309.600006104</ele>
        <time>2016-06-06T10:17:14.706Z</time>
      </trkpt>
      <trkpt lat="45.95014" lon="4.95178">
        <ele>309</ele>
        <time>2016-06-06T10:17:15.689Z</time>
      </trkpt>
      <trkpt lat="45.95012" lon="4.9517">
        <ele>307.899993896</ele>
        <time>2016-06-06T10:17:16.703Z</time>
      </trkpt>
      <trkpt lat="45.95012" lon="4.95163">
        <ele>307.600006104</ele>
        <time>2016-06-06T10:17:17.688Z</time>
      </trkpt>
      <trkpt lat="45.95012" lon="4.95154">
        <ele>307.200012207</ele>
        <time>2016-06-06T10:17:18.707Z</time>
      </trkpt>
      <trkpt lat="45.95011" lon="4.95146">
        <ele>306.399993896</ele>
        <time>2016-06-06T10:17:19.684Z</time>
      </trkpt>
      <trkpt lat="45.95011" lon="4.95138">
        <ele>306</ele>
        <time>2016-06-06T10:17:20.703Z</time>
      </trkpt>
      <trkpt lat="45.95011" lon="4.9513">
        <ele>305.700012207</ele>
        <time>2016-06-06T10:17:21.69Z</time>
      </trkpt>
      <trkpt lat="45.95011" lon="4.95123">
        <ele>305.600006104</ele>
        <time>2016-06-06T10:17:22.706Z</time>
      </trkpt>
      <trkpt lat="45.95011" lon="4.95115">
        <ele>305.5</ele>
        <time>2016-06-06T10:17:23.705Z</time>
      </trkpt>
      <trkpt lat="45.95012" lon="4.95108">
        <ele>305.799987793</ele>
        <time>2016-06-06T10:17:24.858Z</time>
      </trkpt>
      <trkpt lat="45.95012" lon="4.951">
        <ele>305.399993896</ele>
        <time>2016-06-06T10:17:25.683Z</time>
      </trkpt>
      <trkpt lat="45.95012" lon="4.95092">
        <ele>305.600006104</ele>
        <time>2016-06-06T10:17:26.703Z</time>
      </trkpt>
      <trkpt lat="45.95012" lon="4.95083">
        <ele>305.399993896</ele>
        <time>2016-06-06T10:17:27.686Z</time>
      </trkpt>
      <trkpt lat="45.95012" lon="4.95075">
        <ele>305.299987793</ele>
        <time>2016-06-06T10:17:28.717Z</time>
      </trkpt>
      <trkpt lat="45.95011" lon="4.95066">
        <ele>304.700012207</ele>
        <time>2016-06-06T10:17:29.684Z</time>
      </trkpt>
      <trkpt lat="45.95011" lon="4.95057">
        <ele>304.700012207</ele>
        <time>2016-06-06T10:17:30.706Z</time>
      </trkpt>
      <trkpt lat="45.9501" lon="4.95047">
        <ele>304.700012207</ele>
        <time>2016-06-06T10:17:31.683Z</time>
      </trkpt>
      <trkpt lat="45.95009" lon="4.95038">
        <ele>304.399993896</ele>
        <time>2016-06-06T10:17:32.707Z</time>
      </trkpt>
      <trkpt lat="45.95008" lon="4.95029">
        <ele>304.299987793</ele>
        <time>2016-06-06T10:17:33.689Z</time>
      </trkpt>
      <trkpt lat="45.95006" lon="4.95021">
        <ele>304.700012207</ele>
        <time>2016-06-06T10:17:34.706Z</time>
      </trkpt>
      <trkpt lat="45.95005" lon="4.95013">
        <ele>304.700012207</ele>
        <time>2016-06-06T10:17:35.684Z</time>
      </trkpt>
      <trkpt lat="45.95003" lon="4.95006">
        <ele>304.600006104</ele>
        <time>2016-06-06T10:17:36.703Z</time>
      </trkpt>
      <trkpt lat="45.95001" lon="4.94999">
        <ele>304.399993896</ele>
        <time>2016-06-06T10:17:37.696Z</time>
      </trkpt>
      <trkpt lat="45.95001" lon="4.94991">
        <ele>304.100006104</ele>
        <time>2016-06-06T10:17:38.706Z</time>
      </trkpt>
      <trkpt lat="45.95001" lon="4.94983">
        <ele>304.100006104</ele>
        <time>2016-06-06T10:17:39.686Z</time>
      </trkpt>
      <trkpt lat="45.95001" lon="4.94976">
        <ele>304</ele>
        <time>2016-06-06T10:17:40.712Z</time>
      </trkpt>
      <trkpt lat="45.95003" lon="4.94969">
        <ele>303.799987793</ele>
        <time>2016-06-06T10:17:41.687Z</time>
      </trkpt>
      <trkpt lat="45.95006" lon="4.94963">
        <ele>303.600006104</ele>
        <time>2016-06-06T10:17:42.703Z</time>
      </trkpt>
      <trkpt lat="45.9501" lon="4.94957">
        <ele>303.600006104</ele>
        <time>2016-06-06T10:17:43.683Z</time>
      </trkpt>
      <trkpt lat="45.95013" lon="4.94952">
        <ele>303.100006104</ele>
        <time>2016-06-06T10:17:44.703Z</time>
      </trkpt>
      <trkpt lat="45.95017" lon="4.94947">
        <ele>303.299987793</ele>
        <time>2016-06-06T10:17:45.686Z</time>
      </trkpt>
      <trkpt lat="45.95021" lon="4.94941">
        <ele>303.299987793</ele>
        <time>2016-06-06T10:17:46.702Z</time>
      </trkpt>
      <trkpt lat="45.95025" lon="4.94937">
        <ele>303.5</ele>
        <time>2016-06-06T10:17:47.688Z</time>
      </trkpt>
      <trkpt lat="45.95029" lon="4.94931">
        <ele>302.600006104</ele>
        <time>2016-06-06T10:17:48.707Z</time>
      </trkpt>
      <trkpt lat="45.95032" lon="4.94927">
        <ele>302.700012207</ele>
        <time>2016-06-06T10:17:49.702Z</time>
      </trkpt>
      <trkpt lat="45.95036" lon="4.94923">
        <ele>302.399993896</ele>
        <time>2016-06-06T10:17:50.703Z</time>
      </trkpt>
      <trkpt lat="45.9504" lon="4.94919">
        <ele>302.399993896</ele>
        <time>2016-06-06T10:17:51.691Z</time>
      </trkpt>
      <trkpt lat="45.95044" lon="4.94915">
        <ele>302.299987793</ele>
        <time>2016-06-06T10:17:52.704Z</time>
      </trkpt>
      <trkpt lat="45.95047" lon="4.9491">
        <ele>302.600006104</ele>
        <time>2016-06-06T10:17:53.685Z</time>
      </trkpt>
      <trkpt lat="45.95051" lon="4.94906">
        <ele>302.799987793</ele>
        <time>2016-06-06T10:17:54.721Z</time>
      </trkpt>
      <trkpt lat="45.95054" lon="4.94902">
        <ele>303.100006104</ele>
        <time>2016-06-06T10:17:55.686Z</time>
      </trkpt>
      <trkpt lat="45.95059" lon="4.94898">
        <ele>303.399993896</ele>
        <time>2016-06-06T10:17:56.703Z</time>
      </trkpt>
      <trkpt lat="45.95063" lon="4.94893">
        <ele>303.600006104</ele>
        <time>2016-06-06T10:17:57.684Z</time>
      </trkpt>
      <trkpt lat="45.95068" lon="4.94888">
        <ele>303.799987793</ele>
        <time>2016-06-06T10:17:58.704Z</time>
      </trkpt>
      <trkpt lat="45.95072" lon="4.94882">
        <ele>304.200012207</ele>
        <time>2016-06-06T10:17:59.688Z</time>
      </trkpt>
      <trkpt lat="45.95076" lon="4.94877">
        <ele>304.399993896</ele>
        <time>2016-06-06T10:18:00.704Z</time>
      </trkpt>
      <trkpt lat="45.9508" lon="4.94872">
        <ele>304.600006104</ele>
        <time>2016-06-06T10:18:01.687Z</time>
      </trkpt>
      <trkpt lat="45.95085" lon="4.94867">
        <ele>304.899993896</ele>
        <time>2016-06-06T10:18:02.706Z</time>
      </trkpt>
      <trkpt lat="45.9509" lon="4.94862">
        <ele>305</ele>
        <time>2016-06-06T10:18:03.711Z</time>
      </trkpt>
      <trkpt lat="45.95096" lon="4.94857">
        <ele>304.700012207</ele>
        <time>2016-06-06T10:18:04.707Z</time>
      </trkpt>
      <trkpt lat="45.95101" lon="4.9485">
        <ele>304.600006104</ele>
        <time>2016-06-06T10:18:05.686Z</time>
      </trkpt>
      <trkpt lat="45.95106" lon="4.94845">
        <ele>304</ele>
        <time>2016-06-06T10:18:06.708Z</time>
      </trkpt>
      <trkpt lat="45.95112" lon="4.9484">
        <ele>303.399993896</ele>
        <time>2016-06-06T10:18:07.684Z</time>
      </trkpt>
      <trkpt lat="45.95118" lon="4.94834">
        <ele>302.399993896</ele>
        <time>2016-06-06T10:18:08.704Z</time>
      </trkpt>
      <trkpt lat="45.95123" lon="4.94829">
        <ele>301.899993896</ele>
        <time>2016-06-06T10:18:09.687Z</time>
      </trkpt>
      <trkpt lat="45.95129" lon="4.94823">
        <ele>301.200012207</ele>
        <time>2016-06-06T10:18:10.711Z</time>
      </trkpt>
      <trkpt lat="45.95136" lon="4.94818">
        <ele>300.799987793</ele>
        <time>2016-06-06T10:18:11.685Z</time>
      </trkpt>
      <trkpt lat="45.95142" lon="4.94814">
        <ele>300.399993896</ele>
        <time>2016-06-06T10:18:12.73Z</time>
      </trkpt>
      <trkpt lat="45.95148" lon="4.9481">
        <ele>300.200012207</ele>
        <time>2016-06-06T10:18:13.683Z</time>
      </trkpt>
      <trkpt lat="45.95154" lon="4.94807">
        <ele>299.600006104</ele>
        <time>2016-06-06T10:18:14.706Z</time>
      </trkpt>
      <trkpt lat="45.9516" lon="4.94804">
        <ele>299</ele>
        <time>2016-06-06T10:18:15.702Z</time>
      </trkpt>
      <trkpt lat="45.95165" lon="4.94801">
        <ele>298.299987793</ele>
        <time>2016-06-06T10:18:16.748Z</time>
      </trkpt>
      <trkpt lat="45.95171" lon="4.94798">
        <ele>297.799987793</ele>
        <time>2016-06-06T10:18:17.685Z</time>
      </trkpt>
      <trkpt lat="45.95176" lon="4.94795">
        <ele>297.100006104</ele>
        <time>2016-06-06T10:18:18.706Z</time>
      </trkpt>
      <trkpt lat="45.95182" lon="4.94793">
        <ele>297.100006104</ele>
        <time>2016-06-06T10:18:19.683Z</time>
      </trkpt>
      <trkpt lat="45.95187" lon="4.9479">
        <ele>296.899993896</ele>
        <time>2016-06-06T10:18:20.719Z</time>
      </trkpt>
      <trkpt lat="45.95192" lon="4.94787">
        <ele>296.899993896</ele>
        <time>2016-06-06T10:18:21.689Z</time>
      </trkpt>
      <trkpt lat="45.95197" lon="4.94784">
        <ele>296.200012207</ele>
        <time>2016-06-06T10:18:22.703Z</time>
      </trkpt>
      <trkpt lat="45.95202" lon="4.94781">
        <ele>296.200012207</ele>
        <time>2016-06-06T10:18:23.684Z</time>
      </trkpt>
      <trkpt lat="45.95206" lon="4.94775">
        <ele>296.200012207</ele>
        <time>2016-06-06T10:18:24.703Z</time>
      </trkpt>
      <trkpt lat="45.95208" lon="4.94769">
        <ele>296.200012207</ele>
        <time>2016-06-06T10:18:25.687Z</time>
      </trkpt>
      <trkpt lat="45.95206" lon="4.94762">
        <ele>296</ele>
        <time>2016-06-06T10:18:26.707Z</time>
      </trkpt>
      <trkpt lat="45.95204" lon="4.94756">
        <ele>295.899993896</ele>
        <time>2016-06-06T10:18:27.69Z</time>
      </trkpt>
      <trkpt lat="45.952" lon="4.94751">
        <ele>295.899993896</ele>
        <time>2016-06-06T10:18:28.704Z</time>
      </trkpt>
      <trkpt lat="45.95195" lon="4.94746">
        <ele>296</ele>
        <time>2016-06-06T10:18:29.684Z</time>
      </trkpt>
      <trkpt lat="45.95191" lon="4.94741">
        <ele>296</ele>
        <time>2016-06-06T10:18:30.736Z</time>
      </trkpt>
      <trkpt lat="45.95187" lon="4.94736">
        <ele>295.899993896</ele>
        <time>2016-06-06T10:18:31.687Z</time>
      </trkpt>
      <trkpt lat="45.95182" lon="4.94731">
        <ele>295.799987793</ele>
        <time>2016-06-06T10:18:32.75Z</time>
      </trkpt>
      <trkpt lat="45.95178" lon="4.94726">
        <ele>296</ele>
        <time>2016-06-06T10:18:33.686Z</time>
      </trkpt>
      <trkpt lat="45.95173" lon="4.94721">
        <ele>296</ele>
        <time>2016-06-06T10:18:34.707Z</time>
      </trkpt>
      <trkpt lat="45.95169" lon="4.94716">
        <ele>295.5</ele>
        <time>2016-06-06T10:18:35.686Z</time>
      </trkpt>
      <trkpt lat="45.95164" lon="4.94711">
        <ele>295.100006104</ele>
        <time>2016-06-06T10:18:36.707Z</time>
      </trkpt>
      <trkpt lat="45.9516" lon="4.94705">
        <ele>295.299987793</ele>
        <time>2016-06-06T10:18:37.684Z</time>
      </trkpt>
      <trkpt lat="45.95156" lon="4.947">
        <ele>295.299987793</ele>
        <time>2016-06-06T10:18:38.703Z</time>
      </trkpt>
      <trkpt lat="45.95152" lon="4.94693">
        <ele>294.700012207</ele>
        <time>2016-06-06T10:18:39.686Z</time>
      </trkpt>
      <trkpt lat="45.95149" lon="4.94686">
        <ele>294.399993896</ele>
        <time>2016-06-06T10:18:40.706Z</time>
      </trkpt>
      <trkpt lat="45.95149" lon="4.94678">
        <ele>294.299987793</ele>
        <time>2016-06-06T10:18:41.7Z</time>
      </trkpt>
      <trkpt lat="45.95151" lon="4.9467">
        <ele>294.100006104</ele>
        <time>2016-06-06T10:18:42.72Z</time>
      </trkpt>
      <trkpt lat="45.95154" lon="4.94664">
        <ele>293.799987793</ele>
        <time>2016-06-06T10:18:43.683Z</time>
      </trkpt>
      <trkpt lat="45.95158" lon="4.94659">
        <ele>293.5</ele>
        <time>2016-06-06T10:18:44.707Z</time>
      </trkpt>
      <trkpt lat="45.95162" lon="4.94654">
        <ele>293.799987793</ele>
        <time>2016-06-06T10:18:45.69Z</time>
      </trkpt>
      <trkpt lat="45.95165" lon="4.94649">
        <ele>293.700012207</ele>
        <time>2016-06-06T10:18:46.703Z</time>
      </trkpt>
      <trkpt lat="45.95169" lon="4.94642">
        <ele>294</ele>
        <time>2016-06-06T10:18:47.685Z</time>
      </trkpt>
      <trkpt lat="45.95172" lon="4.94636">
        <ele>294.399993896</ele>
        <time>2016-06-06T10:18:48.782Z</time>
      </trkpt>
      <trkpt lat="45.95175" lon="4.9463">
        <ele>295</ele>
        <time>2016-06-06T10:18:49.684Z</time>
      </trkpt>
      <trkpt lat="45.95178" lon="4.94624">
        <ele>295</ele>
        <time>2016-06-06T10:18:50.839Z</time>
      </trkpt>
      <trkpt lat="45.95179" lon="4.94617">
        <ele>294.899993896</ele>
        <time>2016-06-06T10:18:51.688Z</time>
      </trkpt>
      <trkpt lat="45.95181" lon="4.9461">
        <ele>294.799987793</ele>
        <time>2016-06-06T10:18:52.741Z</time>
      </trkpt>
      <trkpt lat="45.95182" lon="4.94602">
        <ele>294.799987793</ele>
        <time>2016-06-06T10:18:53.689Z</time>
      </trkpt>
      <trkpt lat="45.95182" lon="4.94595">
        <ele>294.700012207</ele>
        <time>2016-06-06T10:18:54.707Z</time>
      </trkpt>
      <trkpt lat="45.95182" lon="4.94587">
        <ele>294.799987793</ele>
        <time>2016-06-06T10:18:55.684Z</time>
      </trkpt>
      <trkpt lat="45.95182" lon="4.9458">
        <ele>294.799987793</ele>
        <time>2016-06-06T10:18:56.707Z</time>
      </trkpt>
      <trkpt lat="45.95183" lon="4.94571">
        <ele>295</ele>
        <time>2016-06-06T10:18:57.69Z</time>
      </trkpt>
      <trkpt lat="45.95183" lon="4.94563">
        <ele>295.100006104</ele>
        <time>2016-06-06T10:18:58.73Z</time>
      </trkpt>
      <trkpt lat="45.95184" lon="4.94554">
        <ele>295.200012207</ele>
        <time>2016-06-06T10:18:59.726Z</time>
      </trkpt>
      <trkpt lat="45.95186" lon="4.94546">
        <ele>295.200012207</ele>
        <time>2016-06-06T10:19:00.703Z</time>
      </trkpt>
      <trkpt lat="45.95187" lon="4.94538">
        <ele>295.200012207</ele>
        <time>2016-06-06T10:19:01.685Z</time>
      </trkpt>
      <trkpt lat="45.95188" lon="4.94529">
        <ele>294.899993896</ele>
        <time>2016-06-06T10:19:02.723Z</time>
      </trkpt>
      <trkpt lat="45.9519" lon="4.9452">
        <ele>294.600006104</ele>
        <time>2016-06-06T10:19:03.69Z</time>
      </trkpt>
      <trkpt lat="45.95191" lon="4.94511">
        <ele>294.399993896</ele>
        <time>2016-06-06T10:19:04.726Z</time>
      </trkpt>
      <trkpt lat="45.95191" lon="4.94502">
        <ele>294.700012207</ele>
        <time>2016-06-06T10:19:05.687Z</time>
      </trkpt>
      <trkpt lat="45.95192" lon="4.94494">
        <ele>294.799987793</ele>
        <time>2016-06-06T10:19:06.706Z</time>
      </trkpt>
      <trkpt lat="45.95193" lon="4.94486">
        <ele>294.899993896</ele>
        <time>2016-06-06T10:19:07.683Z</time>
      </trkpt>
      <trkpt lat="45.95194" lon="4.94479">
        <ele>294.899993896</ele>
        <time>2016-06-06T10:19:08.704Z</time>
      </trkpt>
      <trkpt lat="45.95194" lon="4.94471">
        <ele>295</ele>
        <time>2016-06-06T10:19:09.687Z</time>
      </trkpt>
      <trkpt lat="45.95195" lon="4.94463">
        <ele>295</ele>
        <time>2016-06-06T10:19:10.703Z</time>
      </trkpt>
      <trkpt lat="45.95195" lon="4.94455">
        <ele>295.5</ele>
        <time>2016-06-06T10:19:11.682Z</time>
      </trkpt>
      <trkpt lat="45.95196" lon="4.94447">
        <ele>295.600006104</ele>
        <time>2016-06-06T10:19:12.703Z</time>
      </trkpt>
      <trkpt lat="45.95198" lon="4.94439">
        <ele>295.799987793</ele>
        <time>2016-06-06T10:19:13.685Z</time>
      </trkpt>
      <trkpt lat="45.952" lon="4.94431">
        <ele>296.200012207</ele>
        <time>2016-06-06T10:19:14.707Z</time>
      </trkpt>
      <trkpt lat="45.95202" lon="4.94423">
        <ele>296.299987793</ele>
        <time>2016-06-06T10:19:15.691Z</time>
      </trkpt>
      <trkpt lat="45.95205" lon="4.94415">
        <ele>296.5</ele>
        <time>2016-06-06T10:19:16.703Z</time>
      </trkpt>
      <trkpt lat="45.95207" lon="4.94407">
        <ele>296.799987793</ele>
        <time>2016-06-06T10:19:17.688Z</time>
      </trkpt>
      <trkpt lat="45.9521" lon="4.944">
        <ele>297.200012207</ele>
        <time>2016-06-06T10:19:18.726Z</time>
      </trkpt>
      <trkpt lat="45.95214" lon="4.94392">
        <ele>297.200012207</ele>
        <time>2016-06-06T10:19:19.683Z</time>
      </trkpt>
      <trkpt lat="45.95217" lon="4.94384">
        <ele>297.399993896</ele>
        <time>2016-06-06T10:19:20.703Z</time>
      </trkpt>
      <trkpt lat="45.95221" lon="4.94377">
        <ele>297.299987793</ele>
        <time>2016-06-06T10:19:21.686Z</time>
      </trkpt>
      <trkpt lat="45.95224" lon="4.9437">
        <ele>297.399993896</ele>
        <time>2016-06-06T10:19:22.703Z</time>
      </trkpt>
      <trkpt lat="45.95226" lon="4.94363">
        <ele>297.399993896</ele>
        <time>2016-06-06T10:19:23.688Z</time>
      </trkpt>
      <trkpt lat="45.95228" lon="4.94355">
        <ele>297.299987793</ele>
        <time>2016-06-06T10:19:24.707Z</time>
      </trkpt>
      <trkpt lat="45.9523" lon="4.94347">
        <ele>297.299987793</ele>
        <time>2016-06-06T10:19:25.687Z</time>
      </trkpt>
      <trkpt lat="45.95232" lon="4.9434">
        <ele>297.399993896</ele>
        <time>2016-06-06T10:19:26.703Z</time>
      </trkpt>
      <trkpt lat="45.95233" lon="4.94332">
        <ele>297.899993896</ele>
        <time>2016-06-06T10:19:27.686Z</time>
      </trkpt>
      <trkpt lat="45.95234" lon="4.94324">
        <ele>298</ele>
        <time>2016-06-06T10:19:28.749Z</time>
      </trkpt>
      <trkpt lat="45.95235" lon="4.94317">
        <ele>297.600006104</ele>
        <time>2016-06-06T10:19:29.684Z</time>
      </trkpt>
      <trkpt lat="45.95236" lon="4.94309">
        <ele>297.600006104</ele>
        <time>2016-06-06T10:19:30.71Z</time>
      </trkpt>
      <trkpt lat="45.95236" lon="4.943">
        <ele>297.700012207</ele>
        <time>2016-06-06T10:19:31.683Z</time>
      </trkpt>
      <trkpt lat="45.95237" lon="4.94292">
        <ele>297.600006104</ele>
        <time>2016-06-06T10:19:32.703Z</time>
      </trkpt>
      <trkpt lat="45.95237" lon="4.94284">
        <ele>297.5</ele>
        <time>2016-06-06T10:19:33.725Z</time>
      </trkpt>
      <trkpt lat="45.95238" lon="4.94276">
        <ele>297.5</ele>
        <time>2016-06-06T10:19:34.741Z</time>
      </trkpt>
      <trkpt lat="45.95238" lon="4.94267">
        <ele>297.5</ele>
        <time>2016-06-06T10:19:35.688Z</time>
      </trkpt>
      <trkpt lat="45.95238" lon="4.94258">
        <ele>297.299987793</ele>
        <time>2016-06-06T10:19:36.704Z</time>
      </trkpt>
      <trkpt lat="45.95238" lon="4.9425">
        <ele>297.200012207</ele>
        <time>2016-06-06T10:19:37.684Z</time>
      </trkpt>
      <trkpt lat="45.95238" lon="4.94242">
        <ele>297.200012207</ele>
        <time>2016-06-06T10:19:38.703Z</time>
      </trkpt>
      <trkpt lat="45.95239" lon="4.94234">
        <ele>297</ele>
        <time>2016-06-06T10:19:39.69Z</time>
      </trkpt>
      <trkpt lat="45.9524" lon="4.94227">
        <ele>296.799987793</ele>
        <time>2016-06-06T10:19:40.707Z</time>
      </trkpt>
      <trkpt lat="45.95241" lon="4.94219">
        <ele>296.600006104</ele>
        <time>2016-06-06T10:19:41.688Z</time>
      </trkpt>
      <trkpt lat="45.95242" lon="4.94212">
        <ele>296.700012207</ele>
        <time>2016-06-06T10:19:42.703Z</time>
      </trkpt>
      <trkpt lat="45.95244" lon="4.94204">
        <ele>296.700012207</ele>
        <time>2016-06-06T10:19:43.684Z</time>
      </trkpt>
      <trkpt lat="45.95245" lon="4.94196">
        <ele>296.399993896</ele>
        <time>2016-06-06T10:19:44.707Z</time>
      </trkpt>
      <trkpt lat="45.95248" lon="4.94188">
        <ele>296.299987793</ele>
        <time>2016-06-06T10:19:45.686Z</time>
      </trkpt>
      <trkpt lat="45.9525" lon="4.9418">
        <ele>296.5</ele>
        <time>2016-06-06T10:19:46.776Z</time>
      </trkpt>
      <trkpt lat="45.95253" lon="4.94172">
        <ele>296.600006104</ele>
        <time>2016-06-06T10:19:47.684Z</time>
      </trkpt>
      <trkpt lat="45.95256" lon="4.94164">
        <ele>296.5</ele>
        <time>2016-06-06T10:19:48.706Z</time>
      </trkpt>
      <trkpt lat="45.95259" lon="4.94156">
        <ele>296.600006104</ele>
        <time>2016-06-06T10:19:49.699Z</time>
      </trkpt>
      <trkpt lat="45.95263" lon="4.94148">
        <ele>296.399993896</ele>
        <time>2016-06-06T10:19:50.703Z</time>
      </trkpt>
      <trkpt lat="45.95266" lon="4.94141">
        <ele>296.600006104</ele>
        <time>2016-06-06T10:19:51.688Z</time>
      </trkpt>
      <trkpt lat="45.95269" lon="4.94133">
        <ele>296.700012207</ele>
        <time>2016-06-06T10:19:52.706Z</time>
      </trkpt>
      <trkpt lat="45.95272" lon="4.94125">
        <ele>296.5</ele>
        <time>2016-06-06T10:19:53.686Z</time>
      </trkpt>
      <trkpt lat="45.95274" lon="4.94117">
        <ele>296.100006104</ele>
        <time>2016-06-06T10:19:54.722Z</time>
      </trkpt>
      <trkpt lat="45.95277" lon="4.9411">
        <ele>296.200012207</ele>
        <time>2016-06-06T10:19:55.684Z</time>
      </trkpt>
      <trkpt lat="45.9528" lon="4.94102">
        <ele>296.299987793</ele>
        <time>2016-06-06T10:19:56.849Z</time>
      </trkpt>
      <trkpt lat="45.95282" lon="4.94094">
        <ele>296.100006104</ele>
        <time>2016-06-06T10:19:57.69Z</time>
      </trkpt>
      <trkpt lat="45.95284" lon="4.94086">
        <ele>296.200012207</ele>
        <time>2016-06-06T10:19:58.703Z</time>
      </trkpt>
      <trkpt lat="45.95287" lon="4.94079">
        <ele>296.100006104</ele>
        <time>2016-06-06T10:19:59.685Z</time>
      </trkpt>
      <trkpt lat="45.95289" lon="4.94071">
        <ele>296</ele>
        <time>2016-06-06T10:20:00.703Z</time>
      </trkpt>
      <trkpt lat="45.95292" lon="4.94064">
        <ele>295.600006104</ele>
        <time>2016-06-06T10:20:01.683Z</time>
      </trkpt>
      <trkpt lat="45.95295" lon="4.94057">
        <ele>295.700012207</ele>
        <time>2016-06-06T10:20:02.706Z</time>
      </trkpt>
      <trkpt lat="45.95298" lon="4.9405">
        <ele>296.100006104</ele>
        <time>2016-06-06T10:20:03.686Z</time>
      </trkpt>
      <trkpt lat="45.95301" lon="4.94043">
        <ele>295.799987793</ele>
        <time>2016-06-06T10:20:04.703Z</time>
      </trkpt>
      <trkpt lat="45.95305" lon="4.94037">
        <ele>295.700012207</ele>
        <time>2016-06-06T10:20:05.684Z</time>
      </trkpt>
      <trkpt lat="45.95309" lon="4.94032">
        <ele>295.5</ele>
        <time>2016-06-06T10:20:06.849Z</time>
      </trkpt>
      <trkpt lat="45.95313" lon="4.94029">
        <ele>295.200012207</ele>
        <time>2016-06-06T10:20:07.687Z</time>
      </trkpt>
      <trkpt lat="45.95318" lon="4.94027">
        <ele>294.899993896</ele>
        <time>2016-06-06T10:20:08.703Z</time>
      </trkpt>
      <trkpt lat="45.95322" lon="4.94027">
        <ele>294.700012207</ele>
        <time>2016-06-06T10:20:09.689Z</time>
      </trkpt>
      <trkpt lat="45.95326" lon="4.94027">
        <ele>294.5</ele>
        <time>2016-06-06T10:20:10.719Z</time>
      </trkpt>
      <trkpt lat="45.95332" lon="4.94027">
        <ele>294.100006104</ele>
        <time>2016-06-06T10:20:11.684Z</time>
      </trkpt>
      <trkpt lat="45.95337" lon="4.94027">
        <ele>293.399993896</ele>
        <time>2016-06-06T10:20:12.718Z</time>
      </trkpt>
      <trkpt lat="45.95343" lon="4.94026">
        <ele>293.200012207</ele>
        <time>2016-06-06T10:20:13.685Z</time>
      </trkpt>
      <trkpt lat="45.95348" lon="4.94026">
        <ele>293.100006104</ele>
        <time>2016-06-06T10:20:14.703Z</time>
      </trkpt>
      <trkpt lat="45.95354" lon="4.94026">
        <ele>293</ele>
        <time>2016-06-06T10:20:15.686Z</time>
      </trkpt>
      <trkpt lat="45.9536" lon="4.94024">
        <ele>292.899993896</ele>
        <time>2016-06-06T10:20:16.707Z</time>
      </trkpt>
      <trkpt lat="45.95365" lon="4.94023">
        <ele>293.100006104</ele>
        <time>2016-06-06T10:20:17.684Z</time>
      </trkpt>
      <trkpt lat="45.9537" lon="4.94021">
        <ele>293.399993896</ele>
        <time>2016-06-06T10:20:18.738Z</time>
      </trkpt>
      <trkpt lat="45.95375" lon="4.9402">
        <ele>293.799987793</ele>
        <time>2016-06-06T10:20:19.683Z</time>
      </trkpt>
      <trkpt lat="45.9538" lon="4.94019">
        <ele>293.899993896</ele>
        <time>2016-06-06T10:20:20.71Z</time>
      </trkpt>
      <trkpt lat="45.95386" lon="4.94018">
        <ele>294</ele>
        <time>2016-06-06T10:20:21.686Z</time>
      </trkpt>
      <trkpt lat="45.95392" lon="4.94016">
        <ele>294</ele>
        <time>2016-06-06T10:20:22.703Z</time>
      </trkpt>
      <trkpt lat="45.95398" lon="4.94014">
        <ele>293.899993896</ele>
        <time>2016-06-06T10:20:23.684Z</time>
      </trkpt>
      <trkpt lat="45.95405" lon="4.94012">
        <ele>294</ele>
        <time>2016-06-06T10:20:24.703Z</time>
      </trkpt>
      <trkpt lat="45.95412" lon="4.9401">
        <ele>293.899993896</ele>
        <time>2016-06-06T10:20:25.683Z</time>
      </trkpt>
      <trkpt lat="45.95418" lon="4.94008">
        <ele>293.700012207</ele>
        <time>2016-06-06T10:20:26.776Z</time>
      </trkpt>
      <trkpt lat="45.95425" lon="4.94005">
        <ele>293.600006104</ele>
        <time>2016-06-06T10:20:27.686Z</time>
      </trkpt>
      <trkpt lat="45.95431" lon="4.94003">
        <ele>293.100006104</ele>
        <time>2016-06-06T10:20:28.703Z</time>
      </trkpt>
      <trkpt lat="45.95437" lon="4.94001">
        <ele>292.899993896</ele>
        <time>2016-06-06T10:20:29.684Z</time>
      </trkpt>
      <trkpt lat="45.95443" lon="4.93999">
        <ele>292.399993896</ele>
        <time>2016-06-06T10:20:30.707Z</time>
      </trkpt>
      <trkpt lat="45.95449" lon="4.93997">
        <ele>291.899993896</ele>
        <time>2016-06-06T10:20:31.699Z</time>
      </trkpt>
      <trkpt lat="45.95455" lon="4.93996">
        <ele>291.299987793</ele>
        <time>2016-06-06T10:20:32.739Z</time>
      </trkpt>
      <trkpt lat="45.95461" lon="4.93995">
        <ele>290.899993896</ele>
        <time>2016-06-06T10:20:33.687Z</time>
      </trkpt>
      <trkpt lat="45.95466" lon="4.93995">
        <ele>291</ele>
        <time>2016-06-06T10:20:34.711Z</time>
      </trkpt>
      <trkpt lat="45.95472" lon="4.93993">
        <ele>291</ele>
        <time>2016-06-06T10:20:35.687Z</time>
      </trkpt>
      <trkpt lat="45.95477" lon="4.93993">
        <ele>291.200012207</ele>
        <time>2016-06-06T10:20:36.722Z</time>
      </trkpt>
      <trkpt lat="45.95482" lon="4.93992">
        <ele>291.200012207</ele>
        <time>2016-06-06T10:20:37.684Z</time>
      </trkpt>
      <trkpt lat="45.95487" lon="4.93994">
        <ele>291.399993896</ele>
        <time>2016-06-06T10:20:38.703Z</time>
      </trkpt>
      <trkpt lat="45.95493" lon="4.93995">
        <ele>291.5</ele>
        <time>2016-06-06T10:20:39.689Z</time>
      </trkpt>
      <trkpt lat="45.95499" lon="4.93997">
        <ele>291.200012207</ele>
        <time>2016-06-06T10:20:40.706Z</time>
      </trkpt>
      <trkpt lat="45.95505" lon="4.93999">
        <ele>291</ele>
        <time>2016-06-06T10:20:41.684Z</time>
      </trkpt>
      <trkpt lat="45.9551" lon="4.94001">
        <ele>290.700012207</ele>
        <time>2016-06-06T10:20:42.703Z</time>
      </trkpt>
      <trkpt lat="45.95514" lon="4.94001">
        <ele>291.299987793</ele>
        <time>2016-06-06T10:20:43.686Z</time>
      </trkpt>
      <trkpt lat="45.95519" lon="4.94001">
        <ele>290.5</ele>
        <time>2016-06-06T10:20:44.708Z</time>
      </trkpt>
      <trkpt lat="45.95524" lon="4.93999">
        <ele>290</ele>
        <time>2016-06-06T10:20:45.691Z</time>
      </trkpt>
      <trkpt lat="45.95528" lon="4.93995">
        <ele>289.799987793</ele>
        <time>2016-06-06T10:20:46.713Z</time>
      </trkpt>
      <trkpt lat="45.95529" lon="4.93987">
        <ele>289.799987793</ele>
        <time>2016-06-06T10:20:47.69Z</time>
      </trkpt>
      <trkpt lat="45.95528" lon="4.9398">
        <ele>290</ele>
        <time>2016-06-06T10:20:48.706Z</time>
      </trkpt>
      <trkpt lat="45.95529" lon="4.93972">
        <ele>290</ele>
        <time>2016-06-06T10:20:49.684Z</time>
      </trkpt>
      <trkpt lat="45.95529" lon="4.93964">
        <ele>290.399993896</ele>
        <time>2016-06-06T10:20:50.706Z</time>
      </trkpt>
      <trkpt lat="45.9553" lon="4.93955">
        <ele>290.899993896</ele>
        <time>2016-06-06T10:20:51.687Z</time>
      </trkpt>
      <trkpt lat="45.9553" lon="4.93947">
        <ele>291.299987793</ele>
        <time>2016-06-06T10:20:52.719Z</time>
      </trkpt>
      <trkpt lat="45.9553" lon="4.93939">
        <ele>291.600006104</ele>
        <time>2016-06-06T10:20:53.684Z</time>
      </trkpt>
      <trkpt lat="45.95531" lon="4.93931">
        <ele>292</ele>
        <time>2016-06-06T10:20:54.703Z</time>
      </trkpt>
      <trkpt lat="45.95532" lon="4.93922">
        <ele>292.100006104</ele>
        <time>2016-06-06T10:20:55.687Z</time>
      </trkpt>
      <trkpt lat="45.95532" lon="4.93914">
        <ele>292</ele>
        <time>2016-06-06T10:20:56.708Z</time>
      </trkpt>
      <trkpt lat="45.95532" lon="4.93907">
        <ele>292.399993896</ele>
        <time>2016-06-06T10:20:57.69Z</time>
      </trkpt>
      <trkpt lat="45.95532" lon="4.93899">
        <ele>292.799987793</ele>
        <time>2016-06-06T10:20:58.703Z</time>
      </trkpt>
      <trkpt lat="45.95533" lon="4.93891">
        <ele>293.299987793</ele>
        <time>2016-06-06T10:20:59.684Z</time>
      </trkpt>
      <trkpt lat="45.95533" lon="4.93884">
        <ele>293.700012207</ele>
        <time>2016-06-06T10:21:00.703Z</time>
      </trkpt>
      <trkpt lat="45.95534" lon="4.93875">
        <ele>294.299987793</ele>
        <time>2016-06-06T10:21:01.683Z</time>
      </trkpt>
      <trkpt lat="45.95534" lon="4.93867">
        <ele>294.899993896</ele>
        <time>2016-06-06T10:21:02.706Z</time>
      </trkpt>
      <trkpt lat="45.95534" lon="4.93859">
        <ele>295.299987793</ele>
        <time>2016-06-06T10:21:03.891Z</time>
      </trkpt>
      <trkpt lat="45.95535" lon="4.93851">
        <ele>295.700012207</ele>
        <time>2016-06-06T10:21:04.707Z</time>
      </trkpt>
      <trkpt lat="45.95535" lon="4.93845">
        <ele>296.200012207</ele>
        <time>2016-06-06T10:21:05.684Z</time>
      </trkpt>
      <trkpt lat="45.95536" lon="4.93838">
        <ele>296.600006104</ele>
        <time>2016-06-06T10:21:06.731Z</time>
      </trkpt>
      <trkpt lat="45.95538" lon="4.93832">
        <ele>296.700012207</ele>
        <time>2016-06-06T10:21:07.683Z</time>
      </trkpt>
      <trkpt lat="45.95543" lon="4.93825">
        <ele>297.299987793</ele>
        <time>2016-06-06T10:21:08.703Z</time>
      </trkpt>
      <trkpt lat="45.95546" lon="4.93819">
        <ele>298</ele>
        <time>2016-06-06T10:21:09.685Z</time>
      </trkpt>
      <trkpt lat="45.95549" lon="4.93815">
        <ele>298.299987793</ele>
        <time>2016-06-06T10:21:10.703Z</time>
      </trkpt>
      <trkpt lat="45.95553" lon="4.93811">
        <ele>298.700012207</ele>
        <time>2016-06-06T10:21:11.684Z</time>
      </trkpt>
      <trkpt lat="45.95558" lon="4.93807">
        <ele>298.799987793</ele>
        <time>2016-06-06T10:21:12.849Z</time>
      </trkpt>
      <trkpt lat="45.95562" lon="4.93802">
        <ele>298.600006104</ele>
        <time>2016-06-06T10:21:13.706Z</time>
      </trkpt>
      <trkpt lat="45.95565" lon="4.93796">
        <ele>297.899993896</ele>
        <time>2016-06-06T10:21:14.707Z</time>
      </trkpt>
      <trkpt lat="45.95567" lon="4.93788">
        <ele>297.200012207</ele>
        <time>2016-06-06T10:21:15.685Z</time>
      </trkpt>
      <trkpt lat="45.95567" lon="4.9378">
        <ele>296.399993896</ele>
        <time>2016-06-06T10:21:16.703Z</time>
      </trkpt>
      <trkpt lat="45.95566" lon="4.93772">
        <ele>296.200012207</ele>
        <time>2016-06-06T10:21:17.684Z</time>
      </trkpt>
      <trkpt lat="45.95566" lon="4.93764">
        <ele>296.600006104</ele>
        <time>2016-06-06T10:21:18.703Z</time>
      </trkpt>
      <trkpt lat="45.95565" lon="4.93757">
        <ele>296.899993896</ele>
        <time>2016-06-06T10:21:19.684Z</time>
      </trkpt>
      <trkpt lat="45.95565" lon="4.9375">
        <ele>297.100006104</ele>
        <time>2016-06-06T10:21:20.706Z</time>
      </trkpt>
      <trkpt lat="45.95565" lon="4.93743">
        <ele>297.399993896</ele>
        <time>2016-06-06T10:21:21.689Z</time>
      </trkpt>
      <trkpt lat="45.95565" lon="4.93735">
        <ele>297.600006104</ele>
        <time>2016-06-06T10:21:22.703Z</time>
      </trkpt>
      <trkpt lat="45.95565" lon="4.93728">
        <ele>298.200012207</ele>
        <time>2016-06-06T10:21:23.725Z</time>
      </trkpt>
      <trkpt lat="45.95565" lon="4.93721">
        <ele>298.299987793</ele>
        <time>2016-06-06T10:21:24.702Z</time>
      </trkpt>
      <trkpt lat="45.95565" lon="4.93714">
        <ele>298.299987793</ele>
        <time>2016-06-06T10:21:25.683Z</time>
      </trkpt>
      <trkpt lat="45.95565" lon="4.93706">
        <ele>298.299987793</ele>
        <time>2016-06-06T10:21:26.703Z</time>
      </trkpt>
      <trkpt lat="45.95565" lon="4.93699">
        <ele>298.200012207</ele>
        <time>2016-06-06T10:21:27.686Z</time>
      </trkpt>
      <trkpt lat="45.95565" lon="4.9369">
        <ele>298.200012207</ele>
        <time>2016-06-06T10:21:28.706Z</time>
      </trkpt>
      <trkpt lat="45.95565" lon="4.93682">
        <ele>298.200012207</ele>
        <time>2016-06-06T10:21:29.688Z</time>
      </trkpt>
      <trkpt lat="45.95566" lon="4.93673">
        <ele>298.200012207</ele>
        <time>2016-06-06T10:21:30.706Z</time>
      </trkpt>
      <trkpt lat="45.95567" lon="4.93665">
        <ele>298.299987793</ele>
        <time>2016-06-06T10:21:31.685Z</time>
      </trkpt>
      <trkpt lat="45.95567" lon="4.93658">
        <ele>298.700012207</ele>
        <time>2016-06-06T10:21:32.707Z</time>
      </trkpt>
      <trkpt lat="45.95568" lon="4.9365">
        <ele>299.100006104</ele>
        <time>2016-06-06T10:21:33.686Z</time>
      </trkpt>
      <trkpt lat="45.95569" lon="4.93643">
        <ele>299</ele>
        <time>2016-06-06T10:21:34.844Z</time>
      </trkpt>
      <trkpt lat="45.95569" lon="4.93636">
        <ele>298.700012207</ele>
        <time>2016-06-06T10:21:35.684Z</time>
      </trkpt>
      <trkpt lat="45.9557" lon="4.93629">
        <ele>298.5</ele>
        <time>2016-06-06T10:21:36.723Z</time>
      </trkpt>
      <trkpt lat="45.9557" lon="4.93621">
        <ele>298.600006104</ele>
        <time>2016-06-06T10:21:37.683Z</time>
      </trkpt>
      <trkpt lat="45.9557" lon="4.93613">
        <ele>298.5</ele>
        <time>2016-06-06T10:21:38.706Z</time>
      </trkpt>
      <trkpt lat="45.95572" lon="4.93604">
        <ele>298.700012207</ele>
        <time>2016-06-06T10:21:39.702Z</time>
      </trkpt>
      <trkpt lat="45.95572" lon="4.93596">
        <ele>298.799987793</ele>
        <time>2016-06-06T10:21:40.706Z</time>
      </trkpt>
      <trkpt lat="45.95573" lon="4.93588">
        <ele>298.799987793</ele>
        <time>2016-06-06T10:21:41.687Z</time>
      </trkpt>
      <trkpt lat="45.95574" lon="4.93579">
        <ele>298.899993896</ele>
        <time>2016-06-06T10:21:42.702Z</time>
      </trkpt>
      <trkpt lat="45.95574" lon="4.93571">
        <ele>299.200012207</ele>
        <time>2016-06-06T10:21:43.684Z</time>
      </trkpt>
      <trkpt lat="45.95575" lon="4.93563">
        <ele>298.899993896</ele>
        <time>2016-06-06T10:21:44.703Z</time>
      </trkpt>
      <trkpt lat="45.95575" lon="4.93555">
        <ele>299</ele>
        <time>2016-06-06T10:21:45.689Z</time>
      </trkpt>
      <trkpt lat="45.95574" lon="4.93547">
        <ele>298.899993896</ele>
        <time>2016-06-06T10:21:46.868Z</time>
      </trkpt>
      <trkpt lat="45.95574" lon="4.93539">
        <ele>299.100006104</ele>
        <time>2016-06-06T10:21:47.688Z</time>
      </trkpt>
      <trkpt lat="45.95573" lon="4.9353">
        <ele>299</ele>
        <time>2016-06-06T10:21:48.727Z</time>
      </trkpt>
      <trkpt lat="45.95571" lon="4.93521">
        <ele>299.200012207</ele>
        <time>2016-06-06T10:21:49.685Z</time>
      </trkpt>
      <trkpt lat="45.9557" lon="4.93512">
        <ele>299.700012207</ele>
        <time>2016-06-06T10:21:50.74Z</time>
      </trkpt>
      <trkpt lat="45.95567" lon="4.93503">
        <ele>299.700012207</ele>
        <time>2016-06-06T10:21:51.731Z</time>
      </trkpt>
      <trkpt lat="45.95565" lon="4.93495">
        <ele>300.299987793</ele>
        <time>2016-06-06T10:21:52.702Z</time>
      </trkpt>
      <trkpt lat="45.95563" lon="4.93487">
        <ele>300.5</ele>
        <time>2016-06-06T10:21:53.685Z</time>
      </trkpt>
      <trkpt lat="45.95561" lon="4.9348">
        <ele>300.399993896</ele>
        <time>2016-06-06T10:21:54.706Z</time>
      </trkpt>
      <trkpt lat="45.95559" lon="4.93474">
        <ele>300.200012207</ele>
        <time>2016-06-06T10:21:55.683Z</time>
      </trkpt>
      <trkpt lat="45.95556" lon="4.93467">
        <ele>300</ele>
        <time>2016-06-06T10:21:56.85Z</time>
      </trkpt>
      <trkpt lat="45.95554" lon="4.93461">
        <ele>300.100006104</ele>
        <time>2016-06-06T10:21:57.69Z</time>
      </trkpt>
      <trkpt lat="45.95552" lon="4.93454">
        <ele>300.200012207</ele>
        <time>2016-06-06T10:21:58.706Z</time>
      </trkpt>
      <trkpt lat="45.9555" lon="4.93447">
        <ele>300.299987793</ele>
        <time>2016-06-06T10:21:59.682Z</time>
      </trkpt>
      <trkpt lat="45.95548" lon="4.93441">
        <ele>300.299987793</ele>
        <time>2016-06-06T10:22:00.718Z</time>
      </trkpt>
      <trkpt lat="45.95545" lon="4.93434">
        <ele>300.5</ele>
        <time>2016-06-06T10:22:01.684Z</time>
      </trkpt>
      <trkpt lat="45.95543" lon="4.93427">
        <ele>300.700012207</ele>
        <time>2016-06-06T10:22:02.706Z</time>
      </trkpt>
      <trkpt lat="45.95541" lon="4.9342">
        <ele>300.899993896</ele>
        <time>2016-06-06T10:22:03.684Z</time>
      </trkpt>
      <trkpt lat="45.95538" lon="4.93413">
        <ele>300.899993896</ele>
        <time>2016-06-06T10:22:04.709Z</time>
      </trkpt>
      <trkpt lat="45.95535" lon="4.93405">
        <ele>301</ele>
        <time>2016-06-06T10:22:05.684Z</time>
      </trkpt>
      <trkpt lat="45.95532" lon="4.93398">
        <ele>301.100006104</ele>
        <time>2016-06-06T10:22:06.706Z</time>
      </trkpt>
      <trkpt lat="45.95529" lon="4.93391">
        <ele>301.200012207</ele>
        <time>2016-06-06T10:22:07.683Z</time>
      </trkpt>
      <trkpt lat="45.95526" lon="4.93384">
        <ele>301.600006104</ele>
        <time>2016-06-06T10:22:08.706Z</time>
      </trkpt>
      <trkpt lat="45.95522" lon="4.93376">
        <ele>301.399993896</ele>
        <time>2016-06-06T10:22:09.684Z</time>
      </trkpt>
      <trkpt lat="45.95518" lon="4.93368">
        <ele>301.399993896</ele>
        <time>2016-06-06T10:22:10.703Z</time>
      </trkpt>
      <trkpt lat="45.95516" lon="4.9336">
        <ele>301.5</ele>
        <time>2016-06-06T10:22:11.687Z</time>
      </trkpt>
      <trkpt lat="45.95514" lon="4.93354">
        <ele>301.5</ele>
        <time>2016-06-06T10:22:12.72Z</time>
      </trkpt>
      <trkpt lat="45.95511" lon="4.93348">
        <ele>301.700012207</ele>
        <time>2016-06-06T10:22:13.684Z</time>
      </trkpt>
      <trkpt lat="45.95509" lon="4.93341">
        <ele>302.100006104</ele>
        <time>2016-06-06T10:22:14.703Z</time>
      </trkpt>
      <trkpt lat="45.95507" lon="4.93335">
        <ele>302.200012207</ele>
        <time>2016-06-06T10:22:15.686Z</time>
      </trkpt>
      <trkpt lat="45.95505" lon="4.93328">
        <ele>302.399993896</ele>
        <time>2016-06-06T10:22:16.703Z</time>
      </trkpt>
      <trkpt lat="45.95502" lon="4.93322">
        <ele>302.399993896</ele>
        <time>2016-06-06T10:22:17.684Z</time>
      </trkpt>
      <trkpt lat="45.95499" lon="4.93315">
        <ele>302.399993896</ele>
        <time>2016-06-06T10:22:18.703Z</time>
      </trkpt>
      <trkpt lat="45.95495" lon="4.93307">
        <ele>302.299987793</ele>
        <time>2016-06-06T10:22:19.685Z</time>
      </trkpt>
      <trkpt lat="45.95492" lon="4.933">
        <ele>302.299987793</ele>
        <time>2016-06-06T10:22:20.703Z</time>
      </trkpt>
      <trkpt lat="45.95489" lon="4.93293">
        <ele>302.299987793</ele>
        <time>2016-06-06T10:22:21.688Z</time>
      </trkpt>
      <trkpt lat="45.95486" lon="4.93286">
        <ele>302.5</ele>
        <time>2016-06-06T10:22:22.732Z</time>
      </trkpt>
      <trkpt lat="45.95483" lon="4.93279">
        <ele>302.600006104</ele>
        <time>2016-06-06T10:22:23.686Z</time>
      </trkpt>
      <trkpt lat="45.95481" lon="4.93273">
        <ele>302.399993896</ele>
        <time>2016-06-06T10:22:24.704Z</time>
      </trkpt>
      <trkpt lat="45.95478" lon="4.93266">
        <ele>302.100006104</ele>
        <time>2016-06-06T10:22:25.682Z</time>
      </trkpt>
      <trkpt lat="45.95475" lon="4.9326">
        <ele>302.299987793</ele>
        <time>2016-06-06T10:22:26.71Z</time>
      </trkpt>
      <trkpt lat="45.95473" lon="4.93254">
        <ele>302.899993896</ele>
        <time>2016-06-06T10:22:27.688Z</time>
      </trkpt>
      <trkpt lat="45.95471" lon="4.93248">
        <ele>303.299987793</ele>
        <time>2016-06-06T10:22:28.703Z</time>
      </trkpt>
      <trkpt lat="45.95468" lon="4.93242">
        <ele>303.799987793</ele>
        <time>2016-06-06T10:22:29.682Z</time>
      </trkpt>
      <trkpt lat="45.95465" lon="4.93235">
        <ele>304</ele>
        <time>2016-06-06T10:22:30.703Z</time>
      </trkpt>
      <trkpt lat="45.95463" lon="4.93228">
        <ele>304.200012207</ele>
        <time>2016-06-06T10:22:31.7Z</time>
      </trkpt>
      <trkpt lat="45.95459" lon="4.9322">
        <ele>303.899993896</ele>
        <time>2016-06-06T10:22:32.743Z</time>
      </trkpt>
      <trkpt lat="45.95457" lon="4.93212">
        <ele>303.899993896</ele>
        <time>2016-06-06T10:22:33.71Z</time>
      </trkpt>
      <trkpt lat="45.95456" lon="4.93205">
        <ele>303.799987793</ele>
        <time>2016-06-06T10:22:34.706Z</time>
      </trkpt>
      <trkpt lat="45.95455" lon="4.93197">
        <ele>303.399993896</ele>
        <time>2016-06-06T10:22:35.688Z</time>
      </trkpt>
      <trkpt lat="45.95456" lon="4.93191">
        <ele>302.600006104</ele>
        <time>2016-06-06T10:22:36.733Z</time>
      </trkpt>
      <trkpt lat="45.95458" lon="4.93185">
        <ele>302.700012207</ele>
        <time>2016-06-06T10:22:37.683Z</time>
      </trkpt>
      <trkpt lat="45.95461" lon="4.93179">
        <ele>302.799987793</ele>
        <time>2016-06-06T10:22:38.706Z</time>
      </trkpt>
      <trkpt lat="45.95465" lon="4.93174">
        <ele>302.799987793</ele>
        <time>2016-06-06T10:22:39.684Z</time>
      </trkpt>
      <trkpt lat="45.95469" lon="4.9317">
        <ele>303</ele>
        <time>2016-06-06T10:22:40.822Z</time>
      </trkpt>
      <trkpt lat="45.95473" lon="4.93165">
        <ele>303.100006104</ele>
        <time>2016-06-06T10:22:41.687Z</time>
      </trkpt>
      <trkpt lat="45.95478" lon="4.93162">
        <ele>303.100006104</ele>
        <time>2016-06-06T10:22:42.706Z</time>
      </trkpt>
      <trkpt lat="45.95482" lon="4.93158">
        <ele>303</ele>
        <time>2016-06-06T10:22:43.685Z</time>
      </trkpt>
      <trkpt lat="45.95485" lon="4.93155">
        <ele>303</ele>
        <time>2016-06-06T10:22:44.706Z</time>
      </trkpt>
      <trkpt lat="45.9549" lon="4.93152">
        <ele>303.100006104</ele>
        <time>2016-06-06T10:22:45.686Z</time>
      </trkpt>
      <trkpt lat="45.95498" lon="4.93146">
        <ele>303.399993896</ele>
        <time>2016-06-06T10:22:47.704Z</time>
      </trkpt>
      <trkpt lat="45.95502" lon="4.93143">
        <ele>303.5</ele>
        <time>2016-06-06T10:22:48.682Z</time>
      </trkpt>
      <trkpt lat="45.95507" lon="4.93139">
        <ele>303.600006104</ele>
        <time>2016-06-06T10:22:49.704Z</time>
      </trkpt>
      <trkpt lat="45.95511" lon="4.93135">
        <ele>303.799987793</ele>
        <time>2016-06-06T10:22:50.683Z</time>
      </trkpt>
      <trkpt lat="45.95516" lon="4.9313">
        <ele>303.799987793</ele>
        <time>2016-06-06T10:22:51.73Z</time>
      </trkpt>
      <trkpt lat="45.9552" lon="4.93125">
        <ele>303.799987793</ele>
        <time>2016-06-06T10:22:52.699Z</time>
      </trkpt>
      <trkpt lat="45.95526" lon="4.9312">
        <ele>304</ele>
        <time>2016-06-06T10:22:53.708Z</time>
      </trkpt>
      <trkpt lat="45.9553" lon="4.93114">
        <ele>303.399993896</ele>
        <time>2016-06-06T10:22:54.685Z</time>
      </trkpt>
      <trkpt lat="45.95535" lon="4.93108">
        <ele>303.600006104</ele>
        <time>2016-06-06T10:22:55.704Z</time>
      </trkpt>
      <trkpt lat="45.9554" lon="4.93102">
        <ele>303.700012207</ele>
        <time>2016-06-06T10:22:56.7Z</time>
      </trkpt>
      <trkpt lat="45.95543" lon="4.93094">
        <ele>303.299987793</ele>
        <time>2016-06-06T10:22:57.73Z</time>
      </trkpt>
      <trkpt lat="45.95545" lon="4.93087">
        <ele>303.100006104</ele>
        <time>2016-06-06T10:22:58.684Z</time>
      </trkpt>
      <trkpt lat="45.95548" lon="4.93078">
        <ele>303.100006104</ele>
        <time>2016-06-06T10:22:59.708Z</time>
      </trkpt>
      <trkpt lat="45.95549" lon="4.9307">
        <ele>302.899993896</ele>
        <time>2016-06-06T10:23:00.684Z</time>
      </trkpt>
      <trkpt lat="45.9555" lon="4.93062">
        <ele>302.899993896</ele>
        <time>2016-06-06T10:23:01.707Z</time>
      </trkpt>
      <trkpt lat="45.9555" lon="4.93054">
        <ele>302.799987793</ele>
        <time>2016-06-06T10:23:02.684Z</time>
      </trkpt>
      <trkpt lat="45.95552" lon="4.93044">
        <ele>302.299987793</ele>
        <time>2016-06-06T10:23:03.709Z</time>
      </trkpt>
      <trkpt lat="45.95553" lon="4.93036">
        <ele>302.100006104</ele>
        <time>2016-06-06T10:23:04.684Z</time>
      </trkpt>
      <trkpt lat="45.95554" lon="4.93027">
        <ele>301.700012207</ele>
        <time>2016-06-06T10:23:05.707Z</time>
      </trkpt>
      <trkpt lat="45.95555" lon="4.93019">
        <ele>301.700012207</ele>
        <time>2016-06-06T10:23:06.686Z</time>
      </trkpt>
      <trkpt lat="45.95556" lon="4.93012">
        <ele>301.700012207</ele>
        <time>2016-06-06T10:23:07.747Z</time>
      </trkpt>
      <trkpt lat="45.95556" lon="4.93004">
        <ele>301.299987793</ele>
        <time>2016-06-06T10:23:08.683Z</time>
      </trkpt>
      <trkpt lat="45.95557" lon="4.92997">
        <ele>301.200012207</ele>
        <time>2016-06-06T10:23:09.709Z</time>
      </trkpt>
      <trkpt lat="45.95557" lon="4.9299">
        <ele>301.299987793</ele>
        <time>2016-06-06T10:23:10.684Z</time>
      </trkpt>
      <trkpt lat="45.95558" lon="4.92982">
        <ele>301.299987793</ele>
        <time>2016-06-06T10:23:11.706Z</time>
      </trkpt>
      <trkpt lat="45.95559" lon="4.92974">
        <ele>301.399993896</ele>
        <time>2016-06-06T10:23:12.683Z</time>
      </trkpt>
      <trkpt lat="45.9556" lon="4.92967">
        <ele>301.399993896</ele>
        <time>2016-06-06T10:23:13.728Z</time>
      </trkpt>
      <trkpt lat="45.95562" lon="4.92959">
        <ele>301.600006104</ele>
        <time>2016-06-06T10:23:14.684Z</time>
      </trkpt>
      <trkpt lat="45.95563" lon="4.92952">
        <ele>301.600006104</ele>
        <time>2016-06-06T10:23:15.705Z</time>
      </trkpt>
      <trkpt lat="45.95564" lon="4.92944">
        <ele>301.5</ele>
        <time>2016-06-06T10:23:16.701Z</time>
      </trkpt>
      <trkpt lat="45.95564" lon="4.92936">
        <ele>301.100006104</ele>
        <time>2016-06-06T10:23:17.704Z</time>
      </trkpt>
      <trkpt lat="45.95565" lon="4.92928">
        <ele>300.299987793</ele>
        <time>2016-06-06T10:23:18.707Z</time>
      </trkpt>
      <trkpt lat="45.95567" lon="4.92919">
        <ele>300.200012207</ele>
        <time>2016-06-06T10:23:19.702Z</time>
      </trkpt>
      <trkpt lat="45.95568" lon="4.92911">
        <ele>300.200012207</ele>
        <time>2016-06-06T10:23:20.683Z</time>
      </trkpt>
      <trkpt lat="45.9557" lon="4.92903">
        <ele>300.100006104</ele>
        <time>2016-06-06T10:23:21.706Z</time>
      </trkpt>
      <trkpt lat="45.95571" lon="4.92895">
        <ele>299.899993896</ele>
        <time>2016-06-06T10:23:22.683Z</time>
      </trkpt>
      <trkpt lat="45.95573" lon="4.92887">
        <ele>299.899993896</ele>
        <time>2016-06-06T10:23:23.712Z</time>
      </trkpt>
      <trkpt lat="45.95574" lon="4.92879">
        <ele>299.899993896</ele>
        <time>2016-06-06T10:23:24.683Z</time>
      </trkpt>
      <trkpt lat="45.95575" lon="4.92871">
        <ele>299.600006104</ele>
        <time>2016-06-06T10:23:25.703Z</time>
      </trkpt>
      <trkpt lat="45.95577" lon="4.92864">
        <ele>299.5</ele>
        <time>2016-06-06T10:23:26.684Z</time>
      </trkpt>
      <trkpt lat="45.95578" lon="4.92857">
        <ele>299.399993896</ele>
        <time>2016-06-06T10:23:27.706Z</time>
      </trkpt>
      <trkpt lat="45.95579" lon="4.9285">
        <ele>299.5</ele>
        <time>2016-06-06T10:23:28.681Z</time>
      </trkpt>
      <trkpt lat="45.9558" lon="4.92843">
        <ele>299.700012207</ele>
        <time>2016-06-06T10:23:29.722Z</time>
      </trkpt>
      <trkpt lat="45.9558" lon="4.92835">
        <ele>299.799987793</ele>
        <time>2016-06-06T10:23:30.684Z</time>
      </trkpt>
      <trkpt lat="45.95581" lon="4.92828">
        <ele>299.799987793</ele>
        <time>2016-06-06T10:23:31.706Z</time>
      </trkpt>
      <trkpt lat="45.95582" lon="4.92821">
        <ele>299.899993896</ele>
        <time>2016-06-06T10:23:32.685Z</time>
      </trkpt>
      <trkpt lat="45.95582" lon="4.92814">
        <ele>300</ele>
        <time>2016-06-06T10:23:33.712Z</time>
      </trkpt>
      <trkpt lat="45.95583" lon="4.92807">
        <ele>300.200012207</ele>
        <time>2016-06-06T10:23:34.682Z</time>
      </trkpt>
      <trkpt lat="45.95585" lon="4.928">
        <ele>300.299987793</ele>
        <time>2016-06-06T10:23:35.706Z</time>
      </trkpt>
      <trkpt lat="45.95585" lon="4.92794">
        <ele>300.799987793</ele>
        <time>2016-06-06T10:23:36.699Z</time>
      </trkpt>
      <trkpt lat="45.95587" lon="4.92787">
        <ele>300.799987793</ele>
        <time>2016-06-06T10:23:37.702Z</time>
      </trkpt>
      <trkpt lat="45.95588" lon="4.9278">
        <ele>300.899993896</ele>
        <time>2016-06-06T10:23:38.684Z</time>
      </trkpt>
      <trkpt lat="45.9559" lon="4.92772">
        <ele>300.899993896</ele>
        <time>2016-06-06T10:23:39.765Z</time>
      </trkpt>
      <trkpt lat="45.95591" lon="4.92764">
        <ele>300.899993896</ele>
        <time>2016-06-06T10:23:40.683Z</time>
      </trkpt>
      <trkpt lat="45.95592" lon="4.92756">
        <ele>301.299987793</ele>
        <time>2016-06-06T10:23:41.707Z</time>
      </trkpt>
      <trkpt lat="45.95594" lon="4.92747">
        <ele>301.399993896</ele>
        <time>2016-06-06T10:23:42.683Z</time>
      </trkpt>
      <trkpt lat="45.95596" lon="4.92738">
        <ele>301.299987793</ele>
        <time>2016-06-06T10:23:43.706Z</time>
      </trkpt>
      <trkpt lat="45.95598" lon="4.92729">
        <ele>301.200012207</ele>
        <time>2016-06-06T10:23:44.684Z</time>
      </trkpt>
      <trkpt lat="45.95601" lon="4.9272">
        <ele>301.100006104</ele>
        <time>2016-06-06T10:23:45.709Z</time>
      </trkpt>
      <trkpt lat="45.95603" lon="4.9271">
        <ele>301.200012207</ele>
        <time>2016-06-06T10:23:46.689Z</time>
      </trkpt>
      <trkpt lat="45.95605" lon="4.927">
        <ele>300.899993896</ele>
        <time>2016-06-06T10:23:47.707Z</time>
      </trkpt>
      <trkpt lat="45.95607" lon="4.92691">
        <ele>300.799987793</ele>
        <time>2016-06-06T10:23:48.683Z</time>
      </trkpt>
      <trkpt lat="45.95609" lon="4.92682">
        <ele>300.600006104</ele>
        <time>2016-06-06T10:23:49.73Z</time>
      </trkpt>
      <trkpt lat="45.95611" lon="4.92673">
        <ele>300.5</ele>
        <time>2016-06-06T10:23:50.683Z</time>
      </trkpt>
      <trkpt lat="45.95613" lon="4.92665">
        <ele>300.200012207</ele>
        <time>2016-06-06T10:23:51.712Z</time>
      </trkpt>
      <trkpt lat="45.95615" lon="4.92656">
        <ele>300.100006104</ele>
        <time>2016-06-06T10:23:52.683Z</time>
      </trkpt>
      <trkpt lat="45.95616" lon="4.92647">
        <ele>300.200012207</ele>
        <time>2016-06-06T10:23:53.707Z</time>
      </trkpt>
      <trkpt lat="45.95618" lon="4.92638">
        <ele>300.299987793</ele>
        <time>2016-06-06T10:23:54.683Z</time>
      </trkpt>
      <trkpt lat="45.95619" lon="4.92629">
        <ele>300.299987793</ele>
        <time>2016-06-06T10:23:55.718Z</time>
      </trkpt>
      <trkpt lat="45.95621" lon="4.9262">
        <ele>300.399993896</ele>
        <time>2016-06-06T10:23:56.697Z</time>
      </trkpt>
      <trkpt lat="45.95622" lon="4.92611">
        <ele>300.700012207</ele>
        <time>2016-06-06T10:23:57.705Z</time>
      </trkpt>
      <trkpt lat="45.95624" lon="4.92603">
        <ele>300.700012207</ele>
        <time>2016-06-06T10:23:58.689Z</time>
      </trkpt>
      <trkpt lat="45.95625" lon="4.92594">
        <ele>300.899993896</ele>
        <time>2016-06-06T10:23:59.708Z</time>
      </trkpt>
      <trkpt lat="45.95627" lon="4.92586">
        <ele>300.899993896</ele>
        <time>2016-06-06T10:24:00.683Z</time>
      </trkpt>
      <trkpt lat="45.95628" lon="4.92578">
        <ele>301</ele>
        <time>2016-06-06T10:24:01.702Z</time>
      </trkpt>
      <trkpt lat="45.9563" lon="4.92569">
        <ele>300.899993896</ele>
        <time>2016-06-06T10:24:02.682Z</time>
      </trkpt>
      <trkpt lat="45.95631" lon="4.92561">
        <ele>300.799987793</ele>
        <time>2016-06-06T10:24:03.752Z</time>
      </trkpt>
      <trkpt lat="45.95631" lon="4.92552">
        <ele>300.200012207</ele>
        <time>2016-06-06T10:24:04.683Z</time>
      </trkpt>
      <trkpt lat="45.95632" lon="4.92544">
        <ele>300.399993896</ele>
        <time>2016-06-06T10:24:05.707Z</time>
      </trkpt>
      <trkpt lat="45.95633" lon="4.92537">
        <ele>300.200012207</ele>
        <time>2016-06-06T10:24:06.701Z</time>
      </trkpt>
      <trkpt lat="45.95634" lon="4.92529">
        <ele>299.899993896</ele>
        <time>2016-06-06T10:24:07.702Z</time>
      </trkpt>
      <trkpt lat="45.95635" lon="4.92522">
        <ele>299.799987793</ele>
        <time>2016-06-06T10:24:08.683Z</time>
      </trkpt>
      <trkpt lat="45.95636" lon="4.92514">
        <ele>300.100006104</ele>
        <time>2016-06-06T10:24:09.709Z</time>
      </trkpt>
      <trkpt lat="45.95637" lon="4.92507">
        <ele>300.200012207</ele>
        <time>2016-06-06T10:24:10.684Z</time>
      </trkpt>
      <trkpt lat="45.95639" lon="4.92499">
        <ele>300.299987793</ele>
        <time>2016-06-06T10:24:11.707Z</time>
      </trkpt>
      <trkpt lat="45.9564" lon="4.92491">
        <ele>300.399993896</ele>
        <time>2016-06-06T10:24:12.684Z</time>
      </trkpt>
      <trkpt lat="45.95641" lon="4.92483">
        <ele>300.600006104</ele>
        <time>2016-06-06T10:24:13.703Z</time>
      </trkpt>
      <trkpt lat="45.95642" lon="4.92474">
        <ele>300.399993896</ele>
        <time>2016-06-06T10:24:14.683Z</time>
      </trkpt>
      <trkpt lat="45.95643" lon="4.92465">
        <ele>300.5</ele>
        <time>2016-06-06T10:24:15.772Z</time>
      </trkpt>
      <trkpt lat="45.95645" lon="4.92457">
        <ele>300.899993896</ele>
        <time>2016-06-06T10:24:16.705Z</time>
      </trkpt>
      <trkpt lat="45.95646" lon="4.92448">
        <ele>301</ele>
        <time>2016-06-06T10:24:17.703Z</time>
      </trkpt>
      <trkpt lat="45.95648" lon="4.92439">
        <ele>300.899993896</ele>
        <time>2016-06-06T10:24:18.684Z</time>
      </trkpt>
      <trkpt lat="45.9565" lon="4.92429">
        <ele>301.200012207</ele>
        <time>2016-06-06T10:24:19.743Z</time>
      </trkpt>
      <trkpt lat="45.95651" lon="4.9242">
        <ele>301.299987793</ele>
        <time>2016-06-06T10:24:20.682Z</time>
      </trkpt>
      <trkpt lat="45.95653" lon="4.9241">
        <ele>301.299987793</ele>
        <time>2016-06-06T10:24:21.705Z</time>
      </trkpt>
      <trkpt lat="45.95654" lon="4.924">
        <ele>301.100006104</ele>
        <time>2016-06-06T10:24:22.683Z</time>
      </trkpt>
      <trkpt lat="45.95655" lon="4.9239">
        <ele>300.799987793</ele>
        <time>2016-06-06T10:24:23.703Z</time>
      </trkpt>
      <trkpt lat="45.95656" lon="4.92381">
        <ele>301</ele>
        <time>2016-06-06T10:24:24.685Z</time>
      </trkpt>
      <trkpt lat="45.95657" lon="4.92371">
        <ele>301.399993896</ele>
        <time>2016-06-06T10:24:25.76Z</time>
      </trkpt>
      <trkpt lat="45.95658" lon="4.92362">
        <ele>301.399993896</ele>
        <time>2016-06-06T10:24:26.686Z</time>
      </trkpt>
      <trkpt lat="45.95659" lon="4.92353">
        <ele>301.700012207</ele>
        <time>2016-06-06T10:24:27.705Z</time>
      </trkpt>
      <trkpt lat="45.9566" lon="4.92344">
        <ele>301.799987793</ele>
        <time>2016-06-06T10:24:28.689Z</time>
      </trkpt>
      <trkpt lat="45.95661" lon="4.92335">
        <ele>301.899993896</ele>
        <time>2016-06-06T10:24:29.703Z</time>
      </trkpt>
      <trkpt lat="45.95661" lon="4.92326">
        <ele>302</ele>
        <time>2016-06-06T10:24:30.684Z</time>
      </trkpt>
      <trkpt lat="45.95662" lon="4.92317">
        <ele>302</ele>
        <time>2016-06-06T10:24:31.719Z</time>
      </trkpt>
      <trkpt lat="45.95663" lon="4.92308">
        <ele>302.299987793</ele>
        <time>2016-06-06T10:24:32.682Z</time>
      </trkpt>
      <trkpt lat="45.95663" lon="4.92299">
        <ele>302.600006104</ele>
        <time>2016-06-06T10:24:33.706Z</time>
      </trkpt>
      <trkpt lat="45.95663" lon="4.92289">
        <ele>302.700012207</ele>
        <time>2016-06-06T10:24:34.683Z</time>
      </trkpt>
      <trkpt lat="45.95664" lon="4.9228">
        <ele>302.899993896</ele>
        <time>2016-06-06T10:24:35.707Z</time>
      </trkpt>
      <trkpt lat="45.95664" lon="4.92271">
        <ele>303.100006104</ele>
        <time>2016-06-06T10:24:36.688Z</time>
      </trkpt>
      <trkpt lat="45.95664" lon="4.92261">
        <ele>303.200012207</ele>
        <time>2016-06-06T10:24:37.706Z</time>
      </trkpt>
      <trkpt lat="45.95665" lon="4.92251">
        <ele>303.399993896</ele>
        <time>2016-06-06T10:24:38.682Z</time>
      </trkpt>
      <trkpt lat="45.95665" lon="4.92241">
        <ele>303.299987793</ele>
        <time>2016-06-06T10:24:39.823Z</time>
      </trkpt>
      <trkpt lat="45.95666" lon="4.92231">
        <ele>303.399993896</ele>
        <time>2016-06-06T10:24:40.684Z</time>
      </trkpt>
      <trkpt lat="45.95666" lon="4.92221">
        <ele>303.299987793</ele>
        <time>2016-06-06T10:24:41.721Z</time>
      </trkpt>
      <trkpt lat="45.95667" lon="4.92211">
        <ele>303.5</ele>
        <time>2016-06-06T10:24:42.684Z</time>
      </trkpt>
      <trkpt lat="45.95667" lon="4.922">
        <ele>303.600006104</ele>
        <time>2016-06-06T10:24:43.706Z</time>
      </trkpt>
      <trkpt lat="45.95668" lon="4.92191">
        <ele>303.700012207</ele>
        <time>2016-06-06T10:24:44.684Z</time>
      </trkpt>
      <trkpt lat="45.95668" lon="4.9218">
        <ele>303.799987793</ele>
        <time>2016-06-06T10:24:45.709Z</time>
      </trkpt>
      <trkpt lat="45.95668" lon="4.92171">
        <ele>304</ele>
        <time>2016-06-06T10:24:46.69Z</time>
      </trkpt>
      <trkpt lat="45.95667" lon="4.92163">
        <ele>303.899993896</ele>
        <time>2016-06-06T10:24:47.708Z</time>
      </trkpt>
      <trkpt lat="45.95666" lon="4.92154">
        <ele>303.5</ele>
        <time>2016-06-06T10:24:48.663Z</time>
      </trkpt>
      <trkpt lat="45.95666" lon="4.92146">
        <ele>303.5</ele>
        <time>2016-06-06T10:24:49.705Z</time>
      </trkpt>
      <trkpt lat="45.95666" lon="4.92139">
        <ele>303.600006104</ele>
        <time>2016-06-06T10:24:50.687Z</time>
      </trkpt>
      <trkpt lat="45.95666" lon="4.92132">
        <ele>303.700012207</ele>
        <time>2016-06-06T10:24:51.717Z</time>
      </trkpt>
      <trkpt lat="45.95667" lon="4.92124">
        <ele>303.799987793</ele>
        <time>2016-06-06T10:24:52.699Z</time>
      </trkpt>
      <trkpt lat="45.95666" lon="4.92117">
        <ele>304</ele>
        <time>2016-06-06T10:24:53.707Z</time>
      </trkpt>
      <trkpt lat="45.95666" lon="4.9211">
        <ele>303.899993896</ele>
        <time>2016-06-06T10:24:54.684Z</time>
      </trkpt>
      <trkpt lat="45.95666" lon="4.92103">
        <ele>304.100006104</ele>
        <time>2016-06-06T10:24:55.702Z</time>
      </trkpt>
      <trkpt lat="45.95666" lon="4.92095">
        <ele>304.100006104</ele>
        <time>2016-06-06T10:24:56.688Z</time>
      </trkpt>
      <trkpt lat="45.95667" lon="4.92087">
        <ele>304.100006104</ele>
        <time>2016-06-06T10:24:57.73Z</time>
      </trkpt>
      <trkpt lat="45.95667" lon="4.92078">
        <ele>304.200012207</ele>
        <time>2016-06-06T10:24:58.682Z</time>
      </trkpt>
      <trkpt lat="45.95668" lon="4.9207">
        <ele>304.299987793</ele>
        <time>2016-06-06T10:24:59.736Z</time>
      </trkpt>
      <trkpt lat="45.95668" lon="4.92062">
        <ele>304.299987793</ele>
        <time>2016-06-06T10:25:00.683Z</time>
      </trkpt>
      <trkpt lat="45.95669" lon="4.92054">
        <ele>304.399993896</ele>
        <time>2016-06-06T10:25:01.706Z</time>
      </trkpt>
      <trkpt lat="45.95671" lon="4.92047">
        <ele>304.299987793</ele>
        <time>2016-06-06T10:25:02.683Z</time>
      </trkpt>
      <trkpt lat="45.95673" lon="4.9204">
        <ele>304.5</ele>
        <time>2016-06-06T10:25:03.736Z</time>
      </trkpt>
      <trkpt lat="45.95676" lon="4.92033">
        <ele>304.600006104</ele>
        <time>2016-06-06T10:25:04.684Z</time>
      </trkpt>
      <trkpt lat="45.95678" lon="4.92027">
        <ele>304.600006104</ele>
        <time>2016-06-06T10:25:05.703Z</time>
      </trkpt>
      <trkpt lat="45.95681" lon="4.92021">
        <ele>304.700012207</ele>
        <time>2016-06-06T10:25:06.684Z</time>
      </trkpt>
      <trkpt lat="45.95684" lon="4.92015">
        <ele>304.799987793</ele>
        <time>2016-06-06T10:25:07.706Z</time>
      </trkpt>
      <trkpt lat="45.95686" lon="4.92009">
        <ele>305</ele>
        <time>2016-06-06T10:25:08.698Z</time>
      </trkpt>
      <trkpt lat="45.95689" lon="4.92004">
        <ele>305.200012207</ele>
        <time>2016-06-06T10:25:09.717Z</time>
      </trkpt>
      <trkpt lat="45.95692" lon="4.91998">
        <ele>305.399993896</ele>
        <time>2016-06-06T10:25:10.683Z</time>
      </trkpt>
      <trkpt lat="45.95695" lon="4.91993">
        <ele>305.5</ele>
        <time>2016-06-06T10:25:11.736Z</time>
      </trkpt>
      <trkpt lat="45.95698" lon="4.91988">
        <ele>305.700012207</ele>
        <time>2016-06-06T10:25:12.684Z</time>
      </trkpt>
      <trkpt lat="45.95702" lon="4.91982">
        <ele>305.799987793</ele>
        <time>2016-06-06T10:25:13.717Z</time>
      </trkpt>
      <trkpt lat="45.95705" lon="4.91977">
        <ele>306</ele>
        <time>2016-06-06T10:25:14.683Z</time>
      </trkpt>
      <trkpt lat="45.95707" lon="4.91972">
        <ele>306.100006104</ele>
        <time>2016-06-06T10:25:15.708Z</time>
      </trkpt>
      <trkpt lat="45.9571" lon="4.91964">
        <ele>306.399993896</ele>
        <time>2016-06-06T10:25:16.685Z</time>
      </trkpt>
      <trkpt lat="45.95713" lon="4.91957">
        <ele>306.399993896</ele>
        <time>2016-06-06T10:25:17.707Z</time>
      </trkpt>
      <trkpt lat="45.95716" lon="4.91954">
        <ele>306.600006104</ele>
        <time>2016-06-06T10:25:18.685Z</time>
      </trkpt>
      <trkpt lat="45.95718" lon="4.91947">
        <ele>307</ele>
        <time>2016-06-06T10:25:19.708Z</time>
      </trkpt>
      <trkpt lat="45.95722" lon="4.9194">
        <ele>307.399993896</ele>
        <time>2016-06-06T10:25:20.683Z</time>
      </trkpt>
      <trkpt lat="45.95725" lon="4.91934">
        <ele>307.700012207</ele>
        <time>2016-06-06T10:25:21.727Z</time>
      </trkpt>
      <trkpt lat="45.95728" lon="4.91929">
        <ele>307.899993896</ele>
        <time>2016-06-06T10:25:22.683Z</time>
      </trkpt>
      <trkpt lat="45.95732" lon="4.91922">
        <ele>308.100006104</ele>
        <time>2016-06-06T10:25:23.706Z</time>
      </trkpt>
      <trkpt lat="45.95735" lon="4.91916">
        <ele>308.600006104</ele>
        <time>2016-06-06T10:25:24.683Z</time>
      </trkpt>
      <trkpt lat="45.95738" lon="4.91909">
        <ele>309.200012207</ele>
        <time>2016-06-06T10:25:25.706Z</time>
      </trkpt>
      <trkpt lat="45.95742" lon="4.91903">
        <ele>309.799987793</ele>
        <time>2016-06-06T10:25:26.686Z</time>
      </trkpt>
      <trkpt lat="45.95747" lon="4.91894">
        <ele>310.600006104</ele>
        <time>2016-06-06T10:25:28.703Z</time>
      </trkpt>
      <trkpt lat="45.9575" lon="4.91889">
        <ele>311.100006104</ele>
        <time>2016-06-06T10:25:29.7Z</time>
      </trkpt>
      <trkpt lat="45.95755" lon="4.91879">
        <ele>312.299987793</ele>
        <time>2016-06-06T10:25:31.702Z</time>
      </trkpt>
      <trkpt lat="45.95759" lon="4.91873">
        <ele>312.799987793</ele>
        <time>2016-06-06T10:25:32.683Z</time>
      </trkpt>
      <trkpt lat="45.95762" lon="4.91867">
        <ele>313.399993896</ele>
        <time>2016-06-06T10:25:33.745Z</time>
      </trkpt>
      <trkpt lat="45.95766" lon="4.9186">
        <ele>313.899993896</ele>
        <time>2016-06-06T10:25:34.682Z</time>
      </trkpt>
      <trkpt lat="45.9577" lon="4.91854">
        <ele>314.399993896</ele>
        <time>2016-06-06T10:25:35.703Z</time>
      </trkpt>
      <trkpt lat="45.95775" lon="4.91846">
        <ele>314.799987793</ele>
        <time>2016-06-06T10:25:36.686Z</time>
      </trkpt>
      <trkpt lat="45.95778" lon="4.91839">
        <ele>315.100006104</ele>
        <time>2016-06-06T10:25:37.706Z</time>
      </trkpt>
      <trkpt lat="45.95783" lon="4.91832">
        <ele>315.200012207</ele>
        <time>2016-06-06T10:25:38.682Z</time>
      </trkpt>
      <trkpt lat="45.95789" lon="4.91822">
        <ele>314.899993896</ele>
        <time>2016-06-06T10:25:39.726Z</time>
      </trkpt>
      <trkpt lat="45.95792" lon="4.91816">
        <ele>315</ele>
        <time>2016-06-06T10:25:40.731Z</time>
      </trkpt>
      <trkpt lat="45.95796" lon="4.9181">
        <ele>314.600006104</ele>
        <time>2016-06-06T10:25:41.72Z</time>
      </trkpt>
      <trkpt lat="45.95798" lon="4.91805">
        <ele>314.700012207</ele>
        <time>2016-06-06T10:25:42.698Z</time>
      </trkpt>
      <trkpt lat="45.95803" lon="4.91795">
        <ele>315.200012207</ele>
        <time>2016-06-06T10:25:44.722Z</time>
      </trkpt>
      <trkpt lat="45.95806" lon="4.9179">
        <ele>315.600006104</ele>
        <time>2016-06-06T10:25:45.701Z</time>
      </trkpt>
      <trkpt lat="45.9581" lon="4.91785">
        <ele>315.600006104</ele>
        <time>2016-06-06T10:25:46.735Z</time>
      </trkpt>
      <trkpt lat="45.95817" lon="4.91774">
        <ele>315.600006104</ele>
        <time>2016-06-06T10:25:47.7Z</time>
      </trkpt>
      <trkpt lat="45.95821" lon="4.91765">
        <ele>316</ele>
        <time>2016-06-06T10:25:48.724Z</time>
      </trkpt>
      <trkpt lat="45.95824" lon="4.91758">
        <ele>316.5</ele>
        <time>2016-06-06T10:25:49.703Z</time>
      </trkpt>
      <trkpt lat="45.95827" lon="4.91751">
        <ele>316.899993896</ele>
        <time>2016-06-06T10:25:50.766Z</time>
      </trkpt>
      <trkpt lat="45.95829" lon="4.91746">
        <ele>317.299987793</ele>
        <time>2016-06-06T10:25:51.711Z</time>
      </trkpt>
      <trkpt lat="45.95835" lon="4.91736">
        <ele>317.899993896</ele>
        <time>2016-06-06T10:25:54.726Z</time>
      </trkpt>
      <trkpt lat="45.95836" lon="4.9173">
        <ele>318</ele>
        <time>2016-06-06T10:25:55.702Z</time>
      </trkpt>
      <trkpt lat="45.95836" lon="4.91722">
        <ele>318.200012207</ele>
        <time>2016-06-06T10:25:56.735Z</time>
      </trkpt>
      <trkpt lat="45.95837" lon="4.91714">
        <ele>318.600006104</ele>
        <time>2016-06-06T10:25:57.702Z</time>
      </trkpt>
      <trkpt lat="45.95837" lon="4.91706">
        <ele>319</ele>
        <time>2016-06-06T10:25:58.722Z</time>
      </trkpt>
      <trkpt lat="45.95839" lon="4.91696">
        <ele>318.600006104</ele>
        <time>2016-06-06T10:25:59.703Z</time>
      </trkpt>
      <trkpt lat="45.95839" lon="4.91688">
        <ele>318.899993896</ele>
        <time>2016-06-06T10:26:00.722Z</time>
      </trkpt>
      <trkpt lat="45.9584" lon="4.91679">
        <ele>319</ele>
        <time>2016-06-06T10:26:01.702Z</time>
      </trkpt>
      <trkpt lat="45.9584" lon="4.9167">
        <ele>318.799987793</ele>
        <time>2016-06-06T10:26:02.75Z</time>
      </trkpt>
      <trkpt lat="45.95841" lon="4.91661">
        <ele>319.100006104</ele>
        <time>2016-06-06T10:26:03.69Z</time>
      </trkpt>
      <trkpt lat="45.95842" lon="4.91652">
        <ele>319.100006104</ele>
        <time>2016-06-06T10:26:04.703Z</time>
      </trkpt>
      <trkpt lat="45.95843" lon="4.91642">
        <ele>319.299987793</ele>
        <time>2016-06-06T10:26:05.685Z</time>
      </trkpt>
      <trkpt lat="45.95843" lon="4.91632">
        <ele>319.399993896</ele>
        <time>2016-06-06T10:26:06.763Z</time>
      </trkpt>
      <trkpt lat="45.95843" lon="4.91623">
        <ele>319.5</ele>
        <time>2016-06-06T10:26:07.681Z</time>
      </trkpt>
      <trkpt lat="45.95843" lon="4.91614">
        <ele>319.5</ele>
        <time>2016-06-06T10:26:08.705Z</time>
      </trkpt>
      <trkpt lat="45.95844" lon="4.91604">
        <ele>319.5</ele>
        <time>2016-06-06T10:26:09.686Z</time>
      </trkpt>
      <trkpt lat="45.95845" lon="4.91595">
        <ele>319.399993896</ele>
        <time>2016-06-06T10:26:10.708Z</time>
      </trkpt>
      <trkpt lat="45.95846" lon="4.91585">
        <ele>318.799987793</ele>
        <time>2016-06-06T10:26:11.701Z</time>
      </trkpt>
      <trkpt lat="45.95846" lon="4.91575">
        <ele>318.600006104</ele>
        <time>2016-06-06T10:26:12.704Z</time>
      </trkpt>
      <trkpt lat="45.95846" lon="4.91565">
        <ele>318.299987793</ele>
        <time>2016-06-06T10:26:13.683Z</time>
      </trkpt>
      <trkpt lat="45.95848" lon="4.91555">
        <ele>318.299987793</ele>
        <time>2016-06-06T10:26:14.707Z</time>
      </trkpt>
      <trkpt lat="45.95848" lon="4.91546">
        <ele>318.5</ele>
        <time>2016-06-06T10:26:15.686Z</time>
      </trkpt>
      <trkpt lat="45.95849" lon="4.91536">
        <ele>318.100006104</ele>
        <time>2016-06-06T10:26:16.707Z</time>
      </trkpt>
      <trkpt lat="45.95849" lon="4.91526">
        <ele>317.899993896</ele>
        <time>2016-06-06T10:26:17.684Z</time>
      </trkpt>
      <trkpt lat="45.9585" lon="4.91515">
        <ele>318</ele>
        <time>2016-06-06T10:26:18.978Z</time>
      </trkpt>
      <trkpt lat="45.95851" lon="4.91505">
        <ele>318.200012207</ele>
        <time>2016-06-06T10:26:19.688Z</time>
      </trkpt>
      <trkpt lat="45.95852" lon="4.91495">
        <ele>318.299987793</ele>
        <time>2016-06-06T10:26:20.71Z</time>
      </trkpt>
      <trkpt lat="45.95853" lon="4.91484">
        <ele>318.399993896</ele>
        <time>2016-06-06T10:26:21.686Z</time>
      </trkpt>
      <trkpt lat="45.95855" lon="4.91473">
        <ele>318.5</ele>
        <time>2016-06-06T10:26:22.704Z</time>
      </trkpt>
      <trkpt lat="45.95856" lon="4.91463">
        <ele>318.5</ele>
        <time>2016-06-06T10:26:23.684Z</time>
      </trkpt>
      <trkpt lat="45.95857" lon="4.91453">
        <ele>318.5</ele>
        <time>2016-06-06T10:26:24.708Z</time>
      </trkpt>
      <trkpt lat="45.95857" lon="4.91442">
        <ele>318.299987793</ele>
        <time>2016-06-06T10:26:25.683Z</time>
      </trkpt>
      <trkpt lat="45.95858" lon="4.91432">
        <ele>318.200012207</ele>
        <time>2016-06-06T10:26:26.707Z</time>
      </trkpt>
      <trkpt lat="45.95859" lon="4.91421">
        <ele>317.899993896</ele>
        <time>2016-06-06T10:26:27.683Z</time>
      </trkpt>
      <trkpt lat="45.95859" lon="4.91411">
        <ele>317.799987793</ele>
        <time>2016-06-06T10:26:28.705Z</time>
      </trkpt>
      <trkpt lat="45.95861" lon="4.91401">
        <ele>317.799987793</ele>
        <time>2016-06-06T10:26:29.687Z</time>
      </trkpt>
      <trkpt lat="45.95862" lon="4.91391">
        <ele>317.600006104</ele>
        <time>2016-06-06T10:26:30.706Z</time>
      </trkpt>
      <trkpt lat="45.95862" lon="4.91381">
        <ele>317.299987793</ele>
        <time>2016-06-06T10:26:31.684Z</time>
      </trkpt>
      <trkpt lat="45.95863" lon="4.91373">
        <ele>316.299987793</ele>
        <time>2016-06-06T10:26:32.703Z</time>
      </trkpt>
      <trkpt lat="45.95863" lon="4.91364">
        <ele>315.700012207</ele>
        <time>2016-06-06T10:26:33.689Z</time>
      </trkpt>
      <trkpt lat="45.95863" lon="4.91356">
        <ele>315.399993896</ele>
        <time>2016-06-06T10:26:34.708Z</time>
      </trkpt>
      <trkpt lat="45.95863" lon="4.91347">
        <ele>315</ele>
        <time>2016-06-06T10:26:35.684Z</time>
      </trkpt>
      <trkpt lat="45.95863" lon="4.91339">
        <ele>315.100006104</ele>
        <time>2016-06-06T10:26:36.711Z</time>
      </trkpt>
      <trkpt lat="45.95863" lon="4.91331">
        <ele>314.899993896</ele>
        <time>2016-06-06T10:26:37.702Z</time>
      </trkpt>
      <trkpt lat="45.95863" lon="4.91322">
        <ele>314.899993896</ele>
        <time>2016-06-06T10:26:38.704Z</time>
      </trkpt>
      <trkpt lat="45.95863" lon="4.91314">
        <ele>315</ele>
        <time>2016-06-06T10:26:39.719Z</time>
      </trkpt>
      <trkpt lat="45.95864" lon="4.91305">
        <ele>315</ele>
        <time>2016-06-06T10:26:40.716Z</time>
      </trkpt>
      <trkpt lat="45.95865" lon="4.91296">
        <ele>315.200012207</ele>
        <time>2016-06-06T10:26:41.683Z</time>
      </trkpt>
      <trkpt lat="45.95865" lon="4.91286">
        <ele>315.399993896</ele>
        <time>2016-06-06T10:26:42.722Z</time>
      </trkpt>
      <trkpt lat="45.95865" lon="4.91276">
        <ele>315.200012207</ele>
        <time>2016-06-06T10:26:43.683Z</time>
      </trkpt>
      <trkpt lat="45.95865" lon="4.91267">
        <ele>315.100006104</ele>
        <time>2016-06-06T10:26:44.707Z</time>
      </trkpt>
      <trkpt lat="45.95865" lon="4.91258">
        <ele>314.700012207</ele>
        <time>2016-06-06T10:26:45.689Z</time>
      </trkpt>
      <trkpt lat="45.95865" lon="4.91249">
        <ele>314.5</ele>
        <time>2016-06-06T10:26:46.707Z</time>
      </trkpt>
      <trkpt lat="45.95865" lon="4.9124">
        <ele>314.399993896</ele>
        <time>2016-06-06T10:26:47.684Z</time>
      </trkpt>
      <trkpt lat="45.95865" lon="4.91232">
        <ele>314</ele>
        <time>2016-06-06T10:26:48.704Z</time>
      </trkpt>
      <trkpt lat="45.95866" lon="4.91222">
        <ele>313.899993896</ele>
        <time>2016-06-06T10:26:49.686Z</time>
      </trkpt>
      <trkpt lat="45.95865" lon="4.91213">
        <ele>313.899993896</ele>
        <time>2016-06-06T10:26:50.703Z</time>
      </trkpt>
      <trkpt lat="45.95867" lon="4.91204">
        <ele>314.100006104</ele>
        <time>2016-06-06T10:26:51.69Z</time>
      </trkpt>
      <trkpt lat="45.95868" lon="4.91194">
        <ele>314.200012207</ele>
        <time>2016-06-06T10:26:52.704Z</time>
      </trkpt>
      <trkpt lat="45.95868" lon="4.91185">
        <ele>314.399993896</ele>
        <time>2016-06-06T10:26:53.685Z</time>
      </trkpt>
      <trkpt lat="45.95868" lon="4.91177">
        <ele>314.399993896</ele>
        <time>2016-06-06T10:26:54.703Z</time>
      </trkpt>
      <trkpt lat="45.95868" lon="4.91168">
        <ele>314.5</ele>
        <time>2016-06-06T10:26:55.684Z</time>
      </trkpt>
      <trkpt lat="45.95868" lon="4.91159">
        <ele>314.600006104</ele>
        <time>2016-06-06T10:26:56.71Z</time>
      </trkpt>
      <trkpt lat="45.95869" lon="4.91149">
        <ele>314.899993896</ele>
        <time>2016-06-06T10:26:57.686Z</time>
      </trkpt>
      <trkpt lat="45.95869" lon="4.9114">
        <ele>315.299987793</ele>
        <time>2016-06-06T10:26:58.718Z</time>
      </trkpt>
      <trkpt lat="45.9587" lon="4.9113">
        <ele>315.700012207</ele>
        <time>2016-06-06T10:26:59.689Z</time>
      </trkpt>
      <trkpt lat="45.95871" lon="4.9112">
        <ele>315.899993896</ele>
        <time>2016-06-06T10:27:00.819Z</time>
      </trkpt>
      <trkpt lat="45.95871" lon="4.91109">
        <ele>316</ele>
        <time>2016-06-06T10:27:01.684Z</time>
      </trkpt>
      <trkpt lat="45.95872" lon="4.91099">
        <ele>316.100006104</ele>
        <time>2016-06-06T10:27:02.723Z</time>
      </trkpt>
      <trkpt lat="45.95872" lon="4.91088">
        <ele>316.399993896</ele>
        <time>2016-06-06T10:27:03.727Z</time>
      </trkpt>
      <trkpt lat="45.95873" lon="4.91078">
        <ele>316.600006104</ele>
        <time>2016-06-06T10:27:04.707Z</time>
      </trkpt>
      <trkpt lat="45.95873" lon="4.91068">
        <ele>316.799987793</ele>
        <time>2016-06-06T10:27:05.684Z</time>
      </trkpt>
      <trkpt lat="45.95873" lon="4.91058">
        <ele>317</ele>
        <time>2016-06-06T10:27:06.711Z</time>
      </trkpt>
      <trkpt lat="45.95874" lon="4.91048">
        <ele>317.5</ele>
        <time>2016-06-06T10:27:07.685Z</time>
      </trkpt>
      <trkpt lat="45.95874" lon="4.91037">
        <ele>317.700012207</ele>
        <time>2016-06-06T10:27:08.703Z</time>
      </trkpt>
      <trkpt lat="45.95875" lon="4.91026">
        <ele>317.799987793</ele>
        <time>2016-06-06T10:27:09.689Z</time>
      </trkpt>
      <trkpt lat="45.95876" lon="4.91016">
        <ele>317.600006104</ele>
        <time>2016-06-06T10:27:10.703Z</time>
      </trkpt>
      <trkpt lat="45.95877" lon="4.91007">
        <ele>317.200012207</ele>
        <time>2016-06-06T10:27:11.687Z</time>
      </trkpt>
      <trkpt lat="45.95878" lon="4.90998">
        <ele>316.600006104</ele>
        <time>2016-06-06T10:27:12.702Z</time>
      </trkpt>
      <trkpt lat="45.95878" lon="4.90988">
        <ele>316.299987793</ele>
        <time>2016-06-06T10:27:13.683Z</time>
      </trkpt>
      <trkpt lat="45.95878" lon="4.9098">
        <ele>315.799987793</ele>
        <time>2016-06-06T10:27:14.703Z</time>
      </trkpt>
      <trkpt lat="45.95878" lon="4.90972">
        <ele>314.5</ele>
        <time>2016-06-06T10:27:15.689Z</time>
      </trkpt>
      <trkpt lat="45.95879" lon="4.90963">
        <ele>313.5</ele>
        <time>2016-06-06T10:27:16.711Z</time>
      </trkpt>
      <trkpt lat="45.95879" lon="4.90955">
        <ele>312.5</ele>
        <time>2016-06-06T10:27:17.688Z</time>
      </trkpt>
      <trkpt lat="45.95879" lon="4.90947">
        <ele>312.299987793</ele>
        <time>2016-06-06T10:27:18.703Z</time>
      </trkpt>
      <trkpt lat="45.9588" lon="4.90939">
        <ele>311.899993896</ele>
        <time>2016-06-06T10:27:19.698Z</time>
      </trkpt>
      <trkpt lat="45.95881" lon="4.90931">
        <ele>311.200012207</ele>
        <time>2016-06-06T10:27:20.702Z</time>
      </trkpt>
      <trkpt lat="45.9588" lon="4.90923">
        <ele>310.100006104</ele>
        <time>2016-06-06T10:27:21.685Z</time>
      </trkpt>
      <trkpt lat="45.95879" lon="4.90916">
        <ele>309</ele>
        <time>2016-06-06T10:27:22.702Z</time>
      </trkpt>
      <trkpt lat="45.95879" lon="4.90907">
        <ele>307.799987793</ele>
        <time>2016-06-06T10:27:23.684Z</time>
      </trkpt>
      <trkpt lat="45.95879" lon="4.90899">
        <ele>307.100006104</ele>
        <time>2016-06-06T10:27:24.718Z</time>
      </trkpt>
      <trkpt lat="45.95879" lon="4.90891">
        <ele>305.899993896</ele>
        <time>2016-06-06T10:27:25.682Z</time>
      </trkpt>
      <trkpt lat="45.95878" lon="4.90882">
        <ele>305.200012207</ele>
        <time>2016-06-06T10:27:26.707Z</time>
      </trkpt>
      <trkpt lat="45.95879" lon="4.90874">
        <ele>304.799987793</ele>
        <time>2016-06-06T10:27:27.686Z</time>
      </trkpt>
      <trkpt lat="45.95879" lon="4.90864">
        <ele>304.399993896</ele>
        <time>2016-06-06T10:27:28.702Z</time>
      </trkpt>
      <trkpt lat="45.95879" lon="4.90855">
        <ele>304.100006104</ele>
        <time>2016-06-06T10:27:29.684Z</time>
      </trkpt>
      <trkpt lat="45.95879" lon="4.90846">
        <ele>303.899993896</ele>
        <time>2016-06-06T10:27:30.714Z</time>
      </trkpt>
      <trkpt lat="45.95879" lon="4.90836">
        <ele>303.700012207</ele>
        <time>2016-06-06T10:27:31.682Z</time>
      </trkpt>
      <trkpt lat="45.95879" lon="4.90828">
        <ele>303.5</ele>
        <time>2016-06-06T10:27:32.735Z</time>
      </trkpt>
      <trkpt lat="45.95879" lon="4.90819">
        <ele>303.299987793</ele>
        <time>2016-06-06T10:27:33.689Z</time>
      </trkpt>
      <trkpt lat="45.95879" lon="4.9081">
        <ele>303.299987793</ele>
        <time>2016-06-06T10:27:34.703Z</time>
      </trkpt>
      <trkpt lat="45.95879" lon="4.90802">
        <ele>303.100006104</ele>
        <time>2016-06-06T10:27:35.684Z</time>
      </trkpt>
      <trkpt lat="45.95879" lon="4.90794">
        <ele>302.600006104</ele>
        <time>2016-06-06T10:27:36.744Z</time>
      </trkpt>
      <trkpt lat="45.95879" lon="4.90786">
        <ele>302.299987793</ele>
        <time>2016-06-06T10:27:37.683Z</time>
      </trkpt>
      <trkpt lat="45.9588" lon="4.90778">
        <ele>302.100006104</ele>
        <time>2016-06-06T10:27:38.706Z</time>
      </trkpt>
      <trkpt lat="45.9588" lon="4.90769">
        <ele>301.899993896</ele>
        <time>2016-06-06T10:27:39.689Z</time>
      </trkpt>
      <trkpt lat="45.9588" lon="4.90761">
        <ele>301.899993896</ele>
        <time>2016-06-06T10:27:40.723Z</time>
      </trkpt>
      <trkpt lat="45.95881" lon="4.90753">
        <ele>301.799987793</ele>
        <time>2016-06-06T10:27:41.868Z</time>
      </trkpt>
      <trkpt lat="45.9588" lon="4.90744">
        <ele>301.100006104</ele>
        <time>2016-06-06T10:27:42.704Z</time>
      </trkpt>
      <trkpt lat="45.9588" lon="4.90735">
        <ele>300.799987793</ele>
        <time>2016-06-06T10:27:43.682Z</time>
      </trkpt>
      <trkpt lat="45.9588" lon="4.90727">
        <ele>300.600006104</ele>
        <time>2016-06-06T10:27:44.702Z</time>
      </trkpt>
      <trkpt lat="45.95881" lon="4.90718">
        <ele>300.399993896</ele>
        <time>2016-06-06T10:27:45.685Z</time>
      </trkpt>
      <trkpt lat="45.95881" lon="4.90709">
        <ele>300</ele>
        <time>2016-06-06T10:27:46.711Z</time>
      </trkpt>
      <trkpt lat="45.95881" lon="4.90699">
        <ele>299.799987793</ele>
        <time>2016-06-06T10:27:47.684Z</time>
      </trkpt>
      <trkpt lat="45.95881" lon="4.9069">
        <ele>299.5</ele>
        <time>2016-06-06T10:27:48.726Z</time>
      </trkpt>
      <trkpt lat="45.95881" lon="4.9068">
        <ele>299.399993896</ele>
        <time>2016-06-06T10:27:49.685Z</time>
      </trkpt>
      <trkpt lat="45.95882" lon="4.90671">
        <ele>299.5</ele>
        <time>2016-06-06T10:27:50.702Z</time>
      </trkpt>
      <trkpt lat="45.95882" lon="4.90661">
        <ele>299.5</ele>
        <time>2016-06-06T10:27:51.686Z</time>
      </trkpt>
      <trkpt lat="45.95883" lon="4.90652">
        <ele>299.399993896</ele>
        <time>2016-06-06T10:27:52.702Z</time>
      </trkpt>
      <trkpt lat="45.95882" lon="4.90642">
        <ele>299.5</ele>
        <time>2016-06-06T10:27:53.683Z</time>
      </trkpt>
      <trkpt lat="45.95883" lon="4.90634">
        <ele>300.200012207</ele>
        <time>2016-06-06T10:27:54.848Z</time>
      </trkpt>
      <trkpt lat="45.95882" lon="4.90625">
        <ele>299</ele>
        <time>2016-06-06T10:27:55.682Z</time>
      </trkpt>
      <trkpt lat="45.95883" lon="4.90616">
        <ele>299.100006104</ele>
        <time>2016-06-06T10:27:56.714Z</time>
      </trkpt>
      <trkpt lat="45.95883" lon="4.90607">
        <ele>299</ele>
        <time>2016-06-06T10:27:57.684Z</time>
      </trkpt>
      <trkpt lat="45.95883" lon="4.90599">
        <ele>298.899993896</ele>
        <time>2016-06-06T10:27:58.707Z</time>
      </trkpt>
      <trkpt lat="45.95884" lon="4.9059">
        <ele>298.5</ele>
        <time>2016-06-06T10:27:59.684Z</time>
      </trkpt>
      <trkpt lat="45.95884" lon="4.90581">
        <ele>298.399993896</ele>
        <time>2016-06-06T10:28:00.702Z</time>
      </trkpt>
      <trkpt lat="45.95884" lon="4.90572">
        <ele>298.299987793</ele>
        <time>2016-06-06T10:28:01.682Z</time>
      </trkpt>
      <trkpt lat="45.95885" lon="4.90563">
        <ele>298.399993896</ele>
        <time>2016-06-06T10:28:02.702Z</time>
      </trkpt>
      <trkpt lat="45.95885" lon="4.90553">
        <ele>298.299987793</ele>
        <time>2016-06-06T10:28:03.685Z</time>
      </trkpt>
      <trkpt lat="45.95885" lon="4.90544">
        <ele>298</ele>
        <time>2016-06-06T10:28:04.703Z</time>
      </trkpt>
      <trkpt lat="45.95886" lon="4.90534">
        <ele>297.899993896</ele>
        <time>2016-06-06T10:28:05.684Z</time>
      </trkpt>
      <trkpt lat="45.95886" lon="4.90524">
        <ele>297.799987793</ele>
        <time>2016-06-06T10:28:06.706Z</time>
      </trkpt>
      <trkpt lat="45.95886" lon="4.90514">
        <ele>297.600006104</ele>
        <time>2016-06-06T10:28:07.685Z</time>
      </trkpt>
      <trkpt lat="45.95887" lon="4.90504">
        <ele>297.600006104</ele>
        <time>2016-06-06T10:28:08.732Z</time>
      </trkpt>
      <trkpt lat="45.95888" lon="4.90493">
        <ele>297.399993896</ele>
        <time>2016-06-06T10:28:09.685Z</time>
      </trkpt>
      <trkpt lat="45.95887" lon="4.90483">
        <ele>297.200012207</ele>
        <time>2016-06-06T10:28:10.704Z</time>
      </trkpt>
      <trkpt lat="45.95887" lon="4.90473">
        <ele>297</ele>
        <time>2016-06-06T10:28:11.699Z</time>
      </trkpt>
      <trkpt lat="45.95887" lon="4.90464">
        <ele>297</ele>
        <time>2016-06-06T10:28:12.724Z</time>
      </trkpt>
      <trkpt lat="45.95887" lon="4.90455">
        <ele>296.799987793</ele>
        <time>2016-06-06T10:28:13.683Z</time>
      </trkpt>
      <trkpt lat="45.95888" lon="4.90446">
        <ele>296.799987793</ele>
        <time>2016-06-06T10:28:14.707Z</time>
      </trkpt>
      <trkpt lat="45.95888" lon="4.90437">
        <ele>296.700012207</ele>
        <time>2016-06-06T10:28:15.685Z</time>
      </trkpt>
      <trkpt lat="45.95888" lon="4.90428">
        <ele>296.799987793</ele>
        <time>2016-06-06T10:28:16.883Z</time>
      </trkpt>
      <trkpt lat="45.95888" lon="4.9042">
        <ele>296.899993896</ele>
        <time>2016-06-06T10:28:17.683Z</time>
      </trkpt>
      <trkpt lat="45.95888" lon="4.90411">
        <ele>296.799987793</ele>
        <time>2016-06-06T10:28:18.706Z</time>
      </trkpt>
      <trkpt lat="45.95889" lon="4.90403">
        <ele>296.799987793</ele>
        <time>2016-06-06T10:28:19.68Z</time>
      </trkpt>
      <trkpt lat="45.95889" lon="4.90394">
        <ele>296.899993896</ele>
        <time>2016-06-06T10:28:20.703Z</time>
      </trkpt>
      <trkpt lat="45.9589" lon="4.90384">
        <ele>296.799987793</ele>
        <time>2016-06-06T10:28:21.686Z</time>
      </trkpt>
      <trkpt lat="45.9589" lon="4.90375">
        <ele>296.799987793</ele>
        <time>2016-06-06T10:28:22.713Z</time>
      </trkpt>
      <trkpt lat="45.9589" lon="4.90366">
        <ele>297</ele>
        <time>2016-06-06T10:28:23.683Z</time>
      </trkpt>
      <trkpt lat="45.95891" lon="4.90357">
        <ele>296.799987793</ele>
        <time>2016-06-06T10:28:24.706Z</time>
      </trkpt>
      <trkpt lat="45.95891" lon="4.90347">
        <ele>296.399993896</ele>
        <time>2016-06-06T10:28:25.683Z</time>
      </trkpt>
      <trkpt lat="45.95891" lon="4.90337">
        <ele>296.299987793</ele>
        <time>2016-06-06T10:28:26.71Z</time>
      </trkpt>
      <trkpt lat="45.95891" lon="4.90327">
        <ele>296.100006104</ele>
        <time>2016-06-06T10:28:27.705Z</time>
      </trkpt>
      <trkpt lat="45.95892" lon="4.90317">
        <ele>296</ele>
        <time>2016-06-06T10:28:28.706Z</time>
      </trkpt>
      <trkpt lat="45.95893" lon="4.90307">
        <ele>296.100006104</ele>
        <time>2016-06-06T10:28:29.685Z</time>
      </trkpt>
      <trkpt lat="45.95893" lon="4.90298">
        <ele>296.100006104</ele>
        <time>2016-06-06T10:28:30.703Z</time>
      </trkpt>
      <trkpt lat="45.95894" lon="4.90289">
        <ele>296.5</ele>
        <time>2016-06-06T10:28:31.682Z</time>
      </trkpt>
      <trkpt lat="45.95894" lon="4.9028">
        <ele>296.5</ele>
        <time>2016-06-06T10:28:32.731Z</time>
      </trkpt>
      <trkpt lat="45.95895" lon="4.90271">
        <ele>296.5</ele>
        <time>2016-06-06T10:28:33.71Z</time>
      </trkpt>
      <trkpt lat="45.95895" lon="4.90262">
        <ele>296.399993896</ele>
        <time>2016-06-06T10:28:34.742Z</time>
      </trkpt>
      <trkpt lat="45.95896" lon="4.90254">
        <ele>296.5</ele>
        <time>2016-06-06T10:28:35.685Z</time>
      </trkpt>
      <trkpt lat="45.95896" lon="4.90244">
        <ele>296.399993896</ele>
        <time>2016-06-06T10:28:36.713Z</time>
      </trkpt>
      <trkpt lat="45.95896" lon="4.90236">
        <ele>296.299987793</ele>
        <time>2016-06-06T10:28:37.684Z</time>
      </trkpt>
      <trkpt lat="45.95897" lon="4.90227">
        <ele>296.399993896</ele>
        <time>2016-06-06T10:28:38.702Z</time>
      </trkpt>
      <trkpt lat="45.95897" lon="4.90218">
        <ele>296.5</ele>
        <time>2016-06-06T10:28:39.686Z</time>
      </trkpt>
      <trkpt lat="45.95897" lon="4.90209">
        <ele>296.5</ele>
        <time>2016-06-06T10:28:40.703Z</time>
      </trkpt>
      <trkpt lat="45.95897" lon="4.90199">
        <ele>296.5</ele>
        <time>2016-06-06T10:28:41.683Z</time>
      </trkpt>
      <trkpt lat="45.95898" lon="4.9019">
        <ele>296.5</ele>
        <time>2016-06-06T10:28:42.702Z</time>
      </trkpt>
      <trkpt lat="45.95898" lon="4.9018">
        <ele>296.100006104</ele>
        <time>2016-06-06T10:28:43.684Z</time>
      </trkpt>
      <trkpt lat="45.95898" lon="4.9017">
        <ele>296.399993896</ele>
        <time>2016-06-06T10:28:44.705Z</time>
      </trkpt>
      <trkpt lat="45.95898" lon="4.9016">
        <ele>296.299987793</ele>
        <time>2016-06-06T10:28:45.688Z</time>
      </trkpt>
      <trkpt lat="45.95898" lon="4.9015">
        <ele>296.299987793</ele>
        <time>2016-06-06T10:28:46.712Z</time>
      </trkpt>
      <trkpt lat="45.95898" lon="4.9014">
        <ele>296.200012207</ele>
        <time>2016-06-06T10:28:47.683Z</time>
      </trkpt>
      <trkpt lat="45.95898" lon="4.90131">
        <ele>296</ele>
        <time>2016-06-06T10:28:48.892Z</time>
      </trkpt>
      <trkpt lat="45.95899" lon="4.90122">
        <ele>295.899993896</ele>
        <time>2016-06-06T10:28:49.683Z</time>
      </trkpt>
      <trkpt lat="45.95899" lon="4.90113">
        <ele>295.899993896</ele>
        <time>2016-06-06T10:28:50.705Z</time>
      </trkpt>
      <trkpt lat="45.95899" lon="4.90104">
        <ele>295.799987793</ele>
        <time>2016-06-06T10:28:51.694Z</time>
      </trkpt>
      <trkpt lat="45.95899" lon="4.90095">
        <ele>295.899993896</ele>
        <time>2016-06-06T10:28:52.701Z</time>
      </trkpt>
      <trkpt lat="45.95899" lon="4.90086">
        <ele>296.100006104</ele>
        <time>2016-06-06T10:28:53.695Z</time>
      </trkpt>
      <trkpt lat="45.95899" lon="4.90078">
        <ele>296.200012207</ele>
        <time>2016-06-06T10:28:54.799Z</time>
      </trkpt>
      <trkpt lat="45.95899" lon="4.90069">
        <ele>296.100006104</ele>
        <time>2016-06-06T10:28:55.686Z</time>
      </trkpt>
      <trkpt lat="45.95899" lon="4.9006">
        <ele>296.200012207</ele>
        <time>2016-06-06T10:28:56.727Z</time>
      </trkpt>
      <trkpt lat="45.95899" lon="4.90051">
        <ele>296.200012207</ele>
        <time>2016-06-06T10:28:57.683Z</time>
      </trkpt>
      <trkpt lat="45.95899" lon="4.90042">
        <ele>296.200012207</ele>
        <time>2016-06-06T10:28:58.708Z</time>
      </trkpt>
      <trkpt lat="45.95898" lon="4.90033">
        <ele>296</ele>
        <time>2016-06-06T10:28:59.696Z</time>
      </trkpt>
      <trkpt lat="45.95898" lon="4.90025">
        <ele>296.100006104</ele>
        <time>2016-06-06T10:29:00.734Z</time>
      </trkpt>
      <trkpt lat="45.95899" lon="4.90016">
        <ele>296.100006104</ele>
        <time>2016-06-06T10:29:01.684Z</time>
      </trkpt>
      <trkpt lat="45.95899" lon="4.90008">
        <ele>296.100006104</ele>
        <time>2016-06-06T10:29:02.705Z</time>
      </trkpt>
      <trkpt lat="45.95899" lon="4.9">
        <ele>296</ele>
        <time>2016-06-06T10:29:03.692Z</time>
      </trkpt>
      <trkpt lat="45.95898" lon="4.89991">
        <ele>295.700012207</ele>
        <time>2016-06-06T10:29:04.719Z</time>
      </trkpt>
      <trkpt lat="45.95898" lon="4.89982">
        <ele>295.5</ele>
        <time>2016-06-06T10:29:05.686Z</time>
      </trkpt>
      <trkpt lat="45.95897" lon="4.89974">
        <ele>295.200012207</ele>
        <time>2016-06-06T10:29:06.739Z</time>
      </trkpt>
      <trkpt lat="45.95897" lon="4.89964">
        <ele>295.200012207</ele>
        <time>2016-06-06T10:29:07.687Z</time>
      </trkpt>
      <trkpt lat="45.95897" lon="4.89955">
        <ele>295.200012207</ele>
        <time>2016-06-06T10:29:08.736Z</time>
      </trkpt>
      <trkpt lat="45.95897" lon="4.89946">
        <ele>295.5</ele>
        <time>2016-06-06T10:29:09.684Z</time>
      </trkpt>
      <trkpt lat="45.95897" lon="4.89937">
        <ele>295.399993896</ele>
        <time>2016-06-06T10:29:10.715Z</time>
      </trkpt>
      <trkpt lat="45.95896" lon="4.89928">
        <ele>295.399993896</ele>
        <time>2016-06-06T10:29:11.705Z</time>
      </trkpt>
      <trkpt lat="45.95896" lon="4.8992">
        <ele>295.299987793</ele>
        <time>2016-06-06T10:29:12.711Z</time>
      </trkpt>
      <trkpt lat="45.95896" lon="4.89911">
        <ele>295.299987793</ele>
        <time>2016-06-06T10:29:13.683Z</time>
      </trkpt>
      <trkpt lat="45.95896" lon="4.89903">
        <ele>295.299987793</ele>
        <time>2016-06-06T10:29:14.705Z</time>
      </trkpt>
      <trkpt lat="45.95896" lon="4.89895">
        <ele>295.299987793</ele>
        <time>2016-06-06T10:29:15.688Z</time>
      </trkpt>
      <trkpt lat="45.95895" lon="4.89887">
        <ele>295.200012207</ele>
        <time>2016-06-06T10:29:16.748Z</time>
      </trkpt>
      <trkpt lat="45.95895" lon="4.89879">
        <ele>295.299987793</ele>
        <time>2016-06-06T10:29:17.685Z</time>
      </trkpt>
      <trkpt lat="45.95895" lon="4.8987">
        <ele>295.100006104</ele>
        <time>2016-06-06T10:29:18.727Z</time>
      </trkpt>
      <trkpt lat="45.95895" lon="4.89861">
        <ele>294.899993896</ele>
        <time>2016-06-06T10:29:19.683Z</time>
      </trkpt>
      <trkpt lat="45.95894" lon="4.89852">
        <ele>294.799987793</ele>
        <time>2016-06-06T10:29:20.718Z</time>
      </trkpt>
      <trkpt lat="45.95894" lon="4.89843">
        <ele>294.799987793</ele>
        <time>2016-06-06T10:29:21.686Z</time>
      </trkpt>
      <trkpt lat="45.95894" lon="4.89834">
        <ele>294.899993896</ele>
        <time>2016-06-06T10:29:22.706Z</time>
      </trkpt>
      <trkpt lat="45.95894" lon="4.89826">
        <ele>294.899993896</ele>
        <time>2016-06-06T10:29:23.687Z</time>
      </trkpt>
      <trkpt lat="45.95894" lon="4.89817">
        <ele>294.899993896</ele>
        <time>2016-06-06T10:29:24.706Z</time>
      </trkpt>
      <trkpt lat="45.95893" lon="4.89809">
        <ele>294.5</ele>
        <time>2016-06-06T10:29:25.683Z</time>
      </trkpt>
      <trkpt lat="45.95893" lon="4.898">
        <ele>294.600006104</ele>
        <time>2016-06-06T10:29:26.738Z</time>
      </trkpt>
      <trkpt lat="45.95893" lon="4.89791">
        <ele>294.899993896</ele>
        <time>2016-06-06T10:29:27.686Z</time>
      </trkpt>
      <trkpt lat="45.95893" lon="4.89781">
        <ele>294.899993896</ele>
        <time>2016-06-06T10:29:28.706Z</time>
      </trkpt>
      <trkpt lat="45.95892" lon="4.89771">
        <ele>295.200012207</ele>
        <time>2016-06-06T10:29:29.684Z</time>
      </trkpt>
      <trkpt lat="45.95892" lon="4.89761">
        <ele>295.299987793</ele>
        <time>2016-06-06T10:29:30.702Z</time>
      </trkpt>
      <trkpt lat="45.95892" lon="4.89752">
        <ele>295.200012207</ele>
        <time>2016-06-06T10:29:31.685Z</time>
      </trkpt>
      <trkpt lat="45.95892" lon="4.89742">
        <ele>295.100006104</ele>
        <time>2016-06-06T10:29:32.75Z</time>
      </trkpt>
      <trkpt lat="45.95892" lon="4.89732">
        <ele>294.799987793</ele>
        <time>2016-06-06T10:29:33.689Z</time>
      </trkpt>
      <trkpt lat="45.95892" lon="4.89722">
        <ele>294.899993896</ele>
        <time>2016-06-06T10:29:34.707Z</time>
      </trkpt>
      <trkpt lat="45.95891" lon="4.89712">
        <ele>294.799987793</ele>
        <time>2016-06-06T10:29:35.687Z</time>
      </trkpt>
      <trkpt lat="45.95891" lon="4.89702">
        <ele>294.700012207</ele>
        <time>2016-06-06T10:29:36.717Z</time>
      </trkpt>
      <trkpt lat="45.95891" lon="4.89692">
        <ele>294.899993896</ele>
        <time>2016-06-06T10:29:37.685Z</time>
      </trkpt>
      <trkpt lat="45.95891" lon="4.89682">
        <ele>294.899993896</ele>
        <time>2016-06-06T10:29:38.703Z</time>
      </trkpt>
      <trkpt lat="45.95891" lon="4.89672">
        <ele>294.600006104</ele>
        <time>2016-06-06T10:29:39.706Z</time>
      </trkpt>
      <trkpt lat="45.95891" lon="4.89662">
        <ele>294.399993896</ele>
        <time>2016-06-06T10:29:40.73Z</time>
      </trkpt>
      <trkpt lat="45.95891" lon="4.89652">
        <ele>294.100006104</ele>
        <time>2016-06-06T10:29:41.724Z</time>
      </trkpt>
      <trkpt lat="45.95891" lon="4.89643">
        <ele>294</ele>
        <time>2016-06-06T10:29:42.705Z</time>
      </trkpt>
      <trkpt lat="45.95891" lon="4.89633">
        <ele>294</ele>
        <time>2016-06-06T10:29:43.685Z</time>
      </trkpt>
      <trkpt lat="45.9589" lon="4.89623">
        <ele>294</ele>
        <time>2016-06-06T10:29:44.706Z</time>
      </trkpt>
      <trkpt lat="45.95891" lon="4.89613">
        <ele>294</ele>
        <time>2016-06-06T10:29:45.685Z</time>
      </trkpt>
      <trkpt lat="45.9589" lon="4.89603">
        <ele>293.799987793</ele>
        <time>2016-06-06T10:29:46.719Z</time>
      </trkpt>
      <trkpt lat="45.9589" lon="4.89593">
        <ele>294.100006104</ele>
        <time>2016-06-06T10:29:47.683Z</time>
      </trkpt>
      <trkpt lat="45.9589" lon="4.89583">
        <ele>294.200012207</ele>
        <time>2016-06-06T10:29:48.705Z</time>
      </trkpt>
      <trkpt lat="45.9589" lon="4.89573">
        <ele>294.200012207</ele>
        <time>2016-06-06T10:29:49.682Z</time>
      </trkpt>
      <trkpt lat="45.9589" lon="4.89562">
        <ele>294.200012207</ele>
        <time>2016-06-06T10:29:50.705Z</time>
      </trkpt>
      <trkpt lat="45.9589" lon="4.89552">
        <ele>294.100006104</ele>
        <time>2016-06-06T10:29:51.704Z</time>
      </trkpt>
      <trkpt lat="45.9589" lon="4.89542">
        <ele>294.399993896</ele>
        <time>2016-06-06T10:29:52.713Z</time>
      </trkpt>
      <trkpt lat="45.95889" lon="4.89532">
        <ele>294.100006104</ele>
        <time>2016-06-06T10:29:53.683Z</time>
      </trkpt>
      <trkpt lat="45.95889" lon="4.89521">
        <ele>294</ele>
        <time>2016-06-06T10:29:54.702Z</time>
      </trkpt>
      <trkpt lat="45.95889" lon="4.89511">
        <ele>293.700012207</ele>
        <time>2016-06-06T10:29:55.681Z</time>
      </trkpt>
      <trkpt lat="45.95889" lon="4.89501">
        <ele>293.700012207</ele>
        <time>2016-06-06T10:29:56.735Z</time>
      </trkpt>
      <trkpt lat="45.95889" lon="4.89491">
        <ele>293.600006104</ele>
        <time>2016-06-06T10:29:57.685Z</time>
      </trkpt>
      <trkpt lat="45.95889" lon="4.89481">
        <ele>293.600006104</ele>
        <time>2016-06-06T10:29:58.705Z</time>
      </trkpt>
      <trkpt lat="45.95889" lon="4.89471">
        <ele>293.700012207</ele>
        <time>2016-06-06T10:29:59.684Z</time>
      </trkpt>
      <trkpt lat="45.95889" lon="4.89462">
        <ele>293.700012207</ele>
        <time>2016-06-06T10:30:00.843Z</time>
      </trkpt>
      <trkpt lat="45.95889" lon="4.89452">
        <ele>293.600006104</ele>
        <time>2016-06-06T10:30:01.684Z</time>
      </trkpt>
      <trkpt lat="45.95889" lon="4.89443">
        <ele>293.5</ele>
        <time>2016-06-06T10:30:02.722Z</time>
      </trkpt>
      <trkpt lat="45.9589" lon="4.89433">
        <ele>293.899993896</ele>
        <time>2016-06-06T10:30:03.712Z</time>
      </trkpt>
      <trkpt lat="45.9589" lon="4.89424">
        <ele>293.899993896</ele>
        <time>2016-06-06T10:30:04.703Z</time>
      </trkpt>
      <trkpt lat="45.9589" lon="4.89415">
        <ele>293.700012207</ele>
        <time>2016-06-06T10:30:05.684Z</time>
      </trkpt>
      <trkpt lat="45.9589" lon="4.89405">
        <ele>293.600006104</ele>
        <time>2016-06-06T10:30:06.72Z</time>
      </trkpt>
      <trkpt lat="45.9589" lon="4.89396">
        <ele>293.399993896</ele>
        <time>2016-06-06T10:30:07.683Z</time>
      </trkpt>
      <trkpt lat="45.9589" lon="4.89387">
        <ele>293.5</ele>
        <time>2016-06-06T10:30:08.703Z</time>
      </trkpt>
      <trkpt lat="45.9589" lon="4.89379">
        <ele>293.600006104</ele>
        <time>2016-06-06T10:30:09.689Z</time>
      </trkpt>
      <trkpt lat="45.9589" lon="4.8937">
        <ele>293.700012207</ele>
        <time>2016-06-06T10:30:10.703Z</time>
      </trkpt>
      <trkpt lat="45.9589" lon="4.89361">
        <ele>293.899993896</ele>
        <time>2016-06-06T10:30:11.684Z</time>
      </trkpt>
      <trkpt lat="45.95889" lon="4.89352">
        <ele>294.299987793</ele>
        <time>2016-06-06T10:30:12.738Z</time>
      </trkpt>
      <trkpt lat="45.95889" lon="4.89343">
        <ele>294.700012207</ele>
        <time>2016-06-06T10:30:13.684Z</time>
      </trkpt>
      <trkpt lat="45.95889" lon="4.89334">
        <ele>294.799987793</ele>
        <time>2016-06-06T10:30:14.705Z</time>
      </trkpt>
      <trkpt lat="45.95889" lon="4.89325">
        <ele>294.899993896</ele>
        <time>2016-06-06T10:30:15.685Z</time>
      </trkpt>
      <trkpt lat="45.9589" lon="4.89315">
        <ele>295.100006104</ele>
        <time>2016-06-06T10:30:16.72Z</time>
      </trkpt>
      <trkpt lat="45.9589" lon="4.89305">
        <ele>295.5</ele>
        <time>2016-06-06T10:30:17.685Z</time>
      </trkpt>
      <trkpt lat="45.9589" lon="4.89296">
        <ele>295.5</ele>
        <time>2016-06-06T10:30:18.704Z</time>
      </trkpt>
      <trkpt lat="45.95889" lon="4.89287">
        <ele>295.399993896</ele>
        <time>2016-06-06T10:30:19.682Z</time>
      </trkpt>
      <trkpt lat="45.95889" lon="4.89279">
        <ele>295.399993896</ele>
        <time>2016-06-06T10:30:20.705Z</time>
      </trkpt>
      <trkpt lat="45.95889" lon="4.8927">
        <ele>295.5</ele>
        <time>2016-06-06T10:30:21.688Z</time>
      </trkpt>
      <trkpt lat="45.95888" lon="4.89262">
        <ele>295.700012207</ele>
        <time>2016-06-06T10:30:22.704Z</time>
      </trkpt>
      <trkpt lat="45.95888" lon="4.89254">
        <ele>295.799987793</ele>
        <time>2016-06-06T10:30:23.739Z</time>
      </trkpt>
      <trkpt lat="45.95888" lon="4.89246">
        <ele>296</ele>
        <time>2016-06-06T10:30:24.703Z</time>
      </trkpt>
      <trkpt lat="45.95888" lon="4.89238">
        <ele>296.299987793</ele>
        <time>2016-06-06T10:30:25.682Z</time>
      </trkpt>
      <trkpt lat="45.95888" lon="4.8923">
        <ele>296.200012207</ele>
        <time>2016-06-06T10:30:26.752Z</time>
      </trkpt>
      <trkpt lat="45.95888" lon="4.89222">
        <ele>296.200012207</ele>
        <time>2016-06-06T10:30:27.685Z</time>
      </trkpt>
      <trkpt lat="45.95888" lon="4.89214">
        <ele>296.299987793</ele>
        <time>2016-06-06T10:30:28.706Z</time>
      </trkpt>
      <trkpt lat="45.95887" lon="4.89206">
        <ele>296.399993896</ele>
        <time>2016-06-06T10:30:29.686Z</time>
      </trkpt>
      <trkpt lat="45.95886" lon="4.89197">
        <ele>296.5</ele>
        <time>2016-06-06T10:30:30.749Z</time>
      </trkpt>
      <trkpt lat="45.95886" lon="4.89189">
        <ele>296.5</ele>
        <time>2016-06-06T10:30:31.683Z</time>
      </trkpt>
      <trkpt lat="45.95885" lon="4.8918">
        <ele>296.299987793</ele>
        <time>2016-06-06T10:30:32.702Z</time>
      </trkpt>
      <trkpt lat="45.95884" lon="4.89172">
        <ele>296.5</ele>
        <time>2016-06-06T10:30:33.685Z</time>
      </trkpt>
      <trkpt lat="45.95884" lon="4.89163">
        <ele>296.5</ele>
        <time>2016-06-06T10:30:34.702Z</time>
      </trkpt>
      <trkpt lat="45.95883" lon="4.89155">
        <ele>296.700012207</ele>
        <time>2016-06-06T10:30:35.683Z</time>
      </trkpt>
      <trkpt lat="45.95882" lon="4.89147">
        <ele>296.399993896</ele>
        <time>2016-06-06T10:30:36.722Z</time>
      </trkpt>
      <trkpt lat="45.95883" lon="4.89139">
        <ele>295.899993896</ele>
        <time>2016-06-06T10:30:37.685Z</time>
      </trkpt>
      <trkpt lat="45.95884" lon="4.89132">
        <ele>295.399993896</ele>
        <time>2016-06-06T10:30:38.72Z</time>
      </trkpt>
      <trkpt lat="45.95886" lon="4.89126">
        <ele>295.399993896</ele>
        <time>2016-06-06T10:30:39.685Z</time>
      </trkpt>
      <trkpt lat="45.95891" lon="4.89117">
        <ele>295.100006104</ele>
        <time>2016-06-06T10:30:41.706Z</time>
      </trkpt>
      <trkpt lat="45.95893" lon="4.89115">
        <ele>295.200012207</ele>
        <time>2016-06-06T10:30:42.682Z</time>
      </trkpt>
      <trkpt lat="45.95899" lon="4.89107">
        <ele>294.299987793</ele>
        <time>2016-06-06T10:30:45.708Z</time>
      </trkpt>
      <trkpt lat="45.959" lon="4.89103">
        <ele>294.100006104</ele>
        <time>2016-06-06T10:30:46.704Z</time>
      </trkpt>
      <trkpt lat="45.95902" lon="4.89094">
        <ele>293.899993896</ele>
        <time>2016-06-06T10:30:48.725Z</time>
      </trkpt>
      <trkpt lat="45.95902" lon="4.89089">
        <ele>294.100006104</ele>
        <time>2016-06-06T10:30:49.685Z</time>
      </trkpt>
      <trkpt lat="45.95903" lon="4.89076">
        <ele>294.100006104</ele>
        <time>2016-06-06T10:30:51.711Z</time>
      </trkpt>
      <trkpt lat="45.95903" lon="4.8907">
        <ele>294</ele>
        <time>2016-06-06T10:30:52.685Z</time>
      </trkpt>
      <trkpt lat="45.95904" lon="4.89063">
        <ele>294.100006104</ele>
        <time>2016-06-06T10:30:53.704Z</time>
      </trkpt>
      <trkpt lat="45.95904" lon="4.89055">
        <ele>294.399993896</ele>
        <time>2016-06-06T10:30:54.685Z</time>
      </trkpt>
      <trkpt lat="45.95903" lon="4.89048">
        <ele>294.399993896</ele>
        <time>2016-06-06T10:30:55.711Z</time>
      </trkpt>
      <trkpt lat="45.95902" lon="4.89041">
        <ele>294.5</ele>
        <time>2016-06-06T10:30:56.708Z</time>
      </trkpt>
      <trkpt lat="45.95901" lon="4.89034">
        <ele>294.700012207</ele>
        <time>2016-06-06T10:30:57.707Z</time>
      </trkpt>
      <trkpt lat="45.95899" lon="4.89027">
        <ele>294.799987793</ele>
        <time>2016-06-06T10:30:58.682Z</time>
      </trkpt>
      <trkpt lat="45.95897" lon="4.8902">
        <ele>294.799987793</ele>
        <time>2016-06-06T10:30:59.719Z</time>
      </trkpt>
      <trkpt lat="45.95896" lon="4.89013">
        <ele>294.799987793</ele>
        <time>2016-06-06T10:31:00.684Z</time>
      </trkpt>
      <trkpt lat="45.95894" lon="4.89006">
        <ele>294.799987793</ele>
        <time>2016-06-06T10:31:01.702Z</time>
      </trkpt>
      <trkpt lat="45.95893" lon="4.88998">
        <ele>294.899993896</ele>
        <time>2016-06-06T10:31:02.683Z</time>
      </trkpt>
      <trkpt lat="45.95892" lon="4.88991">
        <ele>294.700012207</ele>
        <time>2016-06-06T10:31:03.706Z</time>
      </trkpt>
      <trkpt lat="45.95891" lon="4.88984">
        <ele>294.600006104</ele>
        <time>2016-06-06T10:31:04.682Z</time>
      </trkpt>
      <trkpt lat="45.95889" lon="4.88976">
        <ele>294.399993896</ele>
        <time>2016-06-06T10:31:05.703Z</time>
      </trkpt>
      <trkpt lat="45.95888" lon="4.88969">
        <ele>294.399993896</ele>
        <time>2016-06-06T10:31:06.705Z</time>
      </trkpt>
      <trkpt lat="45.95888" lon="4.88962">
        <ele>294.299987793</ele>
        <time>2016-06-06T10:31:07.702Z</time>
      </trkpt>
      <trkpt lat="45.95887" lon="4.88955">
        <ele>294</ele>
        <time>2016-06-06T10:31:08.682Z</time>
      </trkpt>
      <trkpt lat="45.95887" lon="4.88947">
        <ele>294</ele>
        <time>2016-06-06T10:31:09.704Z</time>
      </trkpt>
      <trkpt lat="45.95887" lon="4.88939">
        <ele>293.899993896</ele>
        <time>2016-06-06T10:31:10.682Z</time>
      </trkpt>
      <trkpt lat="45.95886" lon="4.88931">
        <ele>293.600006104</ele>
        <time>2016-06-06T10:31:11.707Z</time>
      </trkpt>
      <trkpt lat="45.95886" lon="4.88922">
        <ele>293.5</ele>
        <time>2016-06-06T10:31:12.685Z</time>
      </trkpt>
      <trkpt lat="45.95886" lon="4.88913">
        <ele>293.399993896</ele>
        <time>2016-06-06T10:31:13.705Z</time>
      </trkpt>
      <trkpt lat="45.95885" lon="4.88904">
        <ele>293.399993896</ele>
        <time>2016-06-06T10:31:14.682Z</time>
      </trkpt>
      <trkpt lat="45.95885" lon="4.88896">
        <ele>293.399993896</ele>
        <time>2016-06-06T10:31:15.704Z</time>
      </trkpt>
      <trkpt lat="45.95885" lon="4.88887">
        <ele>293.399993896</ele>
        <time>2016-06-06T10:31:16.706Z</time>
      </trkpt>
      <trkpt lat="45.95885" lon="4.88879">
        <ele>293.299987793</ele>
        <time>2016-06-06T10:31:17.846Z</time>
      </trkpt>
      <trkpt lat="45.95885" lon="4.88871">
        <ele>293.299987793</ele>
        <time>2016-06-06T10:31:18.682Z</time>
      </trkpt>
      <trkpt lat="45.95885" lon="4.88863">
        <ele>293.299987793</ele>
        <time>2016-06-06T10:31:19.701Z</time>
      </trkpt>
      <trkpt lat="45.95885" lon="4.88855">
        <ele>293.399993896</ele>
        <time>2016-06-06T10:31:20.687Z</time>
      </trkpt>
      <trkpt lat="45.95884" lon="4.88848">
        <ele>293.200012207</ele>
        <time>2016-06-06T10:31:21.712Z</time>
      </trkpt>
      <trkpt lat="45.95884" lon="4.8884">
        <ele>293.200012207</ele>
        <time>2016-06-06T10:31:22.685Z</time>
      </trkpt>
      <trkpt lat="45.95884" lon="4.88832">
        <ele>293.100006104</ele>
        <time>2016-06-06T10:31:23.704Z</time>
      </trkpt>
      <trkpt lat="45.95883" lon="4.88824">
        <ele>293.100006104</ele>
        <time>2016-06-06T10:31:24.682Z</time>
      </trkpt>
      <trkpt lat="45.95883" lon="4.88816">
        <ele>292.899993896</ele>
        <time>2016-06-06T10:31:25.702Z</time>
      </trkpt>
      <trkpt lat="45.95883" lon="4.88808">
        <ele>293</ele>
        <time>2016-06-06T10:31:26.708Z</time>
      </trkpt>
      <trkpt lat="45.95882" lon="4.88799">
        <ele>293</ele>
        <time>2016-06-06T10:31:27.732Z</time>
      </trkpt>
      <trkpt lat="45.95882" lon="4.88791">
        <ele>292.799987793</ele>
        <time>2016-06-06T10:31:28.673Z</time>
      </trkpt>
      <trkpt lat="45.95881" lon="4.88782">
        <ele>292.5</ele>
        <time>2016-06-06T10:31:29.703Z</time>
      </trkpt>
      <trkpt lat="45.95881" lon="4.88773">
        <ele>292.5</ele>
        <time>2016-06-06T10:31:30.697Z</time>
      </trkpt>
      <trkpt lat="45.95881" lon="4.88764">
        <ele>292.299987793</ele>
        <time>2016-06-06T10:31:31.701Z</time>
      </trkpt>
      <trkpt lat="45.95881" lon="4.88756">
        <ele>291.899993896</ele>
        <time>2016-06-06T10:31:32.682Z</time>
      </trkpt>
      <trkpt lat="45.95881" lon="4.88747">
        <ele>291.899993896</ele>
        <time>2016-06-06T10:31:33.745Z</time>
      </trkpt>
      <trkpt lat="45.9588" lon="4.88738">
        <ele>291.600006104</ele>
        <time>2016-06-06T10:31:34.682Z</time>
      </trkpt>
      <trkpt lat="45.9588" lon="4.8873">
        <ele>291.799987793</ele>
        <time>2016-06-06T10:31:35.719Z</time>
      </trkpt>
      <trkpt lat="45.95879" lon="4.88721">
        <ele>291.700012207</ele>
        <time>2016-06-06T10:31:36.709Z</time>
      </trkpt>
      <trkpt lat="45.95879" lon="4.88713">
        <ele>291.700012207</ele>
        <time>2016-06-06T10:31:37.703Z</time>
      </trkpt>
      <trkpt lat="45.95879" lon="4.88704">
        <ele>291.5</ele>
        <time>2016-06-06T10:31:38.685Z</time>
      </trkpt>
      <trkpt lat="45.95879" lon="4.88695">
        <ele>291.700012207</ele>
        <time>2016-06-06T10:31:39.736Z</time>
      </trkpt>
      <trkpt lat="45.95878" lon="4.88686">
        <ele>291.700012207</ele>
        <time>2016-06-06T10:31:40.682Z</time>
      </trkpt>
      <trkpt lat="45.95878" lon="4.88677">
        <ele>291.399993896</ele>
        <time>2016-06-06T10:31:41.702Z</time>
      </trkpt>
      <trkpt lat="45.95877" lon="4.88668">
        <ele>291.600006104</ele>
        <time>2016-06-06T10:31:42.682Z</time>
      </trkpt>
      <trkpt lat="45.95877" lon="4.88659">
        <ele>291.700012207</ele>
        <time>2016-06-06T10:31:43.705Z</time>
      </trkpt>
      <trkpt lat="45.95876" lon="4.88649">
        <ele>291.600006104</ele>
        <time>2016-06-06T10:31:44.682Z</time>
      </trkpt>
      <trkpt lat="45.95876" lon="4.8864">
        <ele>291.5</ele>
        <time>2016-06-06T10:31:45.704Z</time>
      </trkpt>
      <trkpt lat="45.95876" lon="4.8863">
        <ele>291.5</ele>
        <time>2016-06-06T10:31:46.712Z</time>
      </trkpt>
      <trkpt lat="45.95875" lon="4.88621">
        <ele>291.399993896</ele>
        <time>2016-06-06T10:31:47.706Z</time>
      </trkpt>
      <trkpt lat="45.95875" lon="4.88611">
        <ele>291.399993896</ele>
        <time>2016-06-06T10:31:48.682Z</time>
      </trkpt>
      <trkpt lat="45.95874" lon="4.88602">
        <ele>291.600006104</ele>
        <time>2016-06-06T10:31:49.701Z</time>
      </trkpt>
      <trkpt lat="45.95874" lon="4.88594">
        <ele>291.5</ele>
        <time>2016-06-06T10:31:50.682Z</time>
      </trkpt>
      <trkpt lat="45.95873" lon="4.88585">
        <ele>291.299987793</ele>
        <time>2016-06-06T10:31:51.728Z</time>
      </trkpt>
      <trkpt lat="45.95873" lon="4.88576">
        <ele>291.100006104</ele>
        <time>2016-06-06T10:31:52.685Z</time>
      </trkpt>
      <trkpt lat="45.95873" lon="4.88568">
        <ele>290.899993896</ele>
        <time>2016-06-06T10:31:53.718Z</time>
      </trkpt>
      <trkpt lat="45.95873" lon="4.88559">
        <ele>290.899993896</ele>
        <time>2016-06-06T10:31:54.684Z</time>
      </trkpt>
      <trkpt lat="45.95872" lon="4.88551">
        <ele>290.899993896</ele>
        <time>2016-06-06T10:31:55.704Z</time>
      </trkpt>
      <trkpt lat="45.95871" lon="4.88543">
        <ele>290.700012207</ele>
        <time>2016-06-06T10:31:56.731Z</time>
      </trkpt>
      <trkpt lat="45.95871" lon="4.88535">
        <ele>290.799987793</ele>
        <time>2016-06-06T10:31:57.704Z</time>
      </trkpt>
      <trkpt lat="45.9587" lon="4.88527">
        <ele>290.700012207</ele>
        <time>2016-06-06T10:31:58.685Z</time>
      </trkpt>
      <trkpt lat="45.9587" lon="4.88519">
        <ele>290.799987793</ele>
        <time>2016-06-06T10:31:59.706Z</time>
      </trkpt>
      <trkpt lat="45.95871" lon="4.8851">
        <ele>290.899993896</ele>
        <time>2016-06-06T10:32:00.679Z</time>
      </trkpt>
      <trkpt lat="45.9587" lon="4.88502">
        <ele>290.600006104</ele>
        <time>2016-06-06T10:32:01.704Z</time>
      </trkpt>
      <trkpt lat="45.9587" lon="4.88495">
        <ele>290.5</ele>
        <time>2016-06-06T10:32:02.681Z</time>
      </trkpt>
      <trkpt lat="45.9587" lon="4.88487">
        <ele>290.700012207</ele>
        <time>2016-06-06T10:32:03.761Z</time>
      </trkpt>
      <trkpt lat="45.95869" lon="4.88479">
        <ele>290.600006104</ele>
        <time>2016-06-06T10:32:04.681Z</time>
      </trkpt>
      <trkpt lat="45.95869" lon="4.8847">
        <ele>290.899993896</ele>
        <time>2016-06-06T10:32:05.701Z</time>
      </trkpt>
      <trkpt lat="45.95869" lon="4.88461">
        <ele>291.100006104</ele>
        <time>2016-06-06T10:32:06.713Z</time>
      </trkpt>
      <trkpt lat="45.95868" lon="4.88452">
        <ele>291.100006104</ele>
        <time>2016-06-06T10:32:07.718Z</time>
      </trkpt>
      <trkpt lat="45.95868" lon="4.88443">
        <ele>291.200012207</ele>
        <time>2016-06-06T10:32:08.681Z</time>
      </trkpt>
      <trkpt lat="45.95867" lon="4.88433">
        <ele>291.200012207</ele>
        <time>2016-06-06T10:32:09.707Z</time>
      </trkpt>
      <trkpt lat="45.95867" lon="4.88424">
        <ele>291.100006104</ele>
        <time>2016-06-06T10:32:10.681Z</time>
      </trkpt>
      <trkpt lat="45.95867" lon="4.88414">
        <ele>291</ele>
        <time>2016-06-06T10:32:11.705Z</time>
      </trkpt>
      <trkpt lat="45.95866" lon="4.88404">
        <ele>290.700012207</ele>
        <time>2016-06-06T10:32:12.681Z</time>
      </trkpt>
      <trkpt lat="45.95865" lon="4.88395">
        <ele>290.600006104</ele>
        <time>2016-06-06T10:32:13.722Z</time>
      </trkpt>
      <trkpt lat="45.95865" lon="4.88386">
        <ele>290.600006104</ele>
        <time>2016-06-06T10:32:14.684Z</time>
      </trkpt>
      <trkpt lat="45.95864" lon="4.88377">
        <ele>290.600006104</ele>
        <time>2016-06-06T10:32:15.704Z</time>
      </trkpt>
      <trkpt lat="45.95864" lon="4.88369">
        <ele>290.399993896</ele>
        <time>2016-06-06T10:32:16.714Z</time>
      </trkpt>
      <trkpt lat="45.95864" lon="4.8836">
        <ele>290.399993896</ele>
        <time>2016-06-06T10:32:17.744Z</time>
      </trkpt>
      <trkpt lat="45.95863" lon="4.88353">
        <ele>290.399993896</ele>
        <time>2016-06-06T10:32:18.705Z</time>
      </trkpt>
      <trkpt lat="45.95863" lon="4.88345">
        <ele>290.399993896</ele>
        <time>2016-06-06T10:32:19.701Z</time>
      </trkpt>
      <trkpt lat="45.95862" lon="4.88337">
        <ele>290.399993896</ele>
        <time>2016-06-06T10:32:20.681Z</time>
      </trkpt>
      <trkpt lat="45.95862" lon="4.88329">
        <ele>290.299987793</ele>
        <time>2016-06-06T10:32:21.705Z</time>
      </trkpt>
      <trkpt lat="45.95861" lon="4.88321">
        <ele>290.299987793</ele>
        <time>2016-06-06T10:32:22.681Z</time>
      </trkpt>
      <trkpt lat="45.95861" lon="4.88313">
        <ele>290.299987793</ele>
        <time>2016-06-06T10:32:23.775Z</time>
      </trkpt>
      <trkpt lat="45.9586" lon="4.88305">
        <ele>290.299987793</ele>
        <time>2016-06-06T10:32:24.681Z</time>
      </trkpt>
      <trkpt lat="45.9586" lon="4.88296">
        <ele>290.5</ele>
        <time>2016-06-06T10:32:25.703Z</time>
      </trkpt>
      <trkpt lat="45.9586" lon="4.88287">
        <ele>290.399993896</ele>
        <time>2016-06-06T10:32:26.714Z</time>
      </trkpt>
      <trkpt lat="45.95859" lon="4.88279">
        <ele>290.200012207</ele>
        <time>2016-06-06T10:32:27.704Z</time>
      </trkpt>
      <trkpt lat="45.95859" lon="4.8827">
        <ele>290.399993896</ele>
        <time>2016-06-06T10:32:28.681Z</time>
      </trkpt>
      <trkpt lat="45.95858" lon="4.88261">
        <ele>291</ele>
        <time>2016-06-06T10:32:29.702Z</time>
      </trkpt>
      <trkpt lat="45.95858" lon="4.88252">
        <ele>290.899993896</ele>
        <time>2016-06-06T10:32:30.678Z</time>
      </trkpt>
      <trkpt lat="45.95857" lon="4.88243">
        <ele>291</ele>
        <time>2016-06-06T10:32:31.704Z</time>
      </trkpt>
      <trkpt lat="45.95857" lon="4.88233">
        <ele>291.100006104</ele>
        <time>2016-06-06T10:32:32.678Z</time>
      </trkpt>
      <trkpt lat="45.95857" lon="4.88224">
        <ele>291.200012207</ele>
        <time>2016-06-06T10:32:33.723Z</time>
      </trkpt>
      <trkpt lat="45.95856" lon="4.88215">
        <ele>291.100006104</ele>
        <time>2016-06-06T10:32:34.678Z</time>
      </trkpt>
      <trkpt lat="45.95856" lon="4.88205">
        <ele>291.100006104</ele>
        <time>2016-06-06T10:32:35.701Z</time>
      </trkpt>
      <trkpt lat="45.95856" lon="4.88197">
        <ele>291.100006104</ele>
        <time>2016-06-06T10:32:36.714Z</time>
      </trkpt>
      <trkpt lat="45.95856" lon="4.88188">
        <ele>291</ele>
        <time>2016-06-06T10:32:37.7Z</time>
      </trkpt>
      <trkpt lat="45.95855" lon="4.8818">
        <ele>290.899993896</ele>
        <time>2016-06-06T10:32:38.681Z</time>
      </trkpt>
      <trkpt lat="45.95855" lon="4.88172">
        <ele>290.899993896</ele>
        <time>2016-06-06T10:32:39.719Z</time>
      </trkpt>
      <trkpt lat="45.95854" lon="4.88164">
        <ele>291.200012207</ele>
        <time>2016-06-06T10:32:40.681Z</time>
      </trkpt>
      <trkpt lat="45.95854" lon="4.88156">
        <ele>291.399993896</ele>
        <time>2016-06-06T10:32:41.701Z</time>
      </trkpt>
      <trkpt lat="45.95854" lon="4.88149">
        <ele>291.399993896</ele>
        <time>2016-06-06T10:32:42.684Z</time>
      </trkpt>
      <trkpt lat="45.95854" lon="4.88141">
        <ele>291.399993896</ele>
        <time>2016-06-06T10:32:43.756Z</time>
      </trkpt>
      <trkpt lat="45.95854" lon="4.88133">
        <ele>291.399993896</ele>
        <time>2016-06-06T10:32:44.681Z</time>
      </trkpt>
      <trkpt lat="45.95853" lon="4.88125">
        <ele>291.5</ele>
        <time>2016-06-06T10:32:45.703Z</time>
      </trkpt>
      <trkpt lat="45.95853" lon="4.88117">
        <ele>291.5</ele>
        <time>2016-06-06T10:32:46.741Z</time>
      </trkpt>
      <trkpt lat="45.95852" lon="4.88108">
        <ele>291.299987793</ele>
        <time>2016-06-06T10:32:47.703Z</time>
      </trkpt>
      <trkpt lat="45.95852" lon="4.88099">
        <ele>291.200012207</ele>
        <time>2016-06-06T10:32:48.681Z</time>
      </trkpt>
      <trkpt lat="45.95852" lon="4.88091">
        <ele>291.100006104</ele>
        <time>2016-06-06T10:32:49.703Z</time>
      </trkpt>
      <trkpt lat="45.95852" lon="4.88082">
        <ele>290.899993896</ele>
        <time>2016-06-06T10:32:50.684Z</time>
      </trkpt>
      <trkpt lat="45.95851" lon="4.88073">
        <ele>291</ele>
        <time>2016-06-06T10:32:51.711Z</time>
      </trkpt>
      <trkpt lat="45.9585" lon="4.88065">
        <ele>291.100006104</ele>
        <time>2016-06-06T10:32:52.684Z</time>
      </trkpt>
      <trkpt lat="45.9585" lon="4.88056">
        <ele>291.200012207</ele>
        <time>2016-06-06T10:32:53.704Z</time>
      </trkpt>
      <trkpt lat="45.9585" lon="4.88048">
        <ele>291.299987793</ele>
        <time>2016-06-06T10:32:54.681Z</time>
      </trkpt>
      <trkpt lat="45.95849" lon="4.8804">
        <ele>291.399993896</ele>
        <time>2016-06-06T10:32:55.704Z</time>
      </trkpt>
      <trkpt lat="45.95849" lon="4.88033">
        <ele>291.899993896</ele>
        <time>2016-06-06T10:32:56.716Z</time>
      </trkpt>
      <trkpt lat="45.95849" lon="4.88025">
        <ele>292.200012207</ele>
        <time>2016-06-06T10:32:57.84Z</time>
      </trkpt>
      <trkpt lat="45.95848" lon="4.88017">
        <ele>292.200012207</ele>
        <time>2016-06-06T10:32:58.681Z</time>
      </trkpt>
      <trkpt lat="45.95848" lon="4.88009">
        <ele>291.899993896</ele>
        <time>2016-06-06T10:32:59.702Z</time>
      </trkpt>
      <trkpt lat="45.95848" lon="4.88002">
        <ele>291.899993896</ele>
        <time>2016-06-06T10:33:00.68Z</time>
      </trkpt>
      <trkpt lat="45.95847" lon="4.87994">
        <ele>291.899993896</ele>
        <time>2016-06-06T10:33:01.701Z</time>
      </trkpt>
      <trkpt lat="45.95846" lon="4.87985">
        <ele>291.700012207</ele>
        <time>2016-06-06T10:33:02.681Z</time>
      </trkpt>
      <trkpt lat="45.95846" lon="4.87976">
        <ele>291.600006104</ele>
        <time>2016-06-06T10:33:03.703Z</time>
      </trkpt>
      <trkpt lat="45.95845" lon="4.87967">
        <ele>291.200012207</ele>
        <time>2016-06-06T10:33:04.684Z</time>
      </trkpt>
      <trkpt lat="45.95845" lon="4.87959">
        <ele>291.399993896</ele>
        <time>2016-06-06T10:33:05.744Z</time>
      </trkpt>
      <trkpt lat="45.95845" lon="4.8795">
        <ele>291.700012207</ele>
        <time>2016-06-06T10:33:06.71Z</time>
      </trkpt>
      <trkpt lat="45.95844" lon="4.87941">
        <ele>291.700012207</ele>
        <time>2016-06-06T10:33:07.704Z</time>
      </trkpt>
      <trkpt lat="45.95844" lon="4.87933">
        <ele>291.600006104</ele>
        <time>2016-06-06T10:33:08.803Z</time>
      </trkpt>
      <trkpt lat="45.95843" lon="4.87924">
        <ele>291.600006104</ele>
        <time>2016-06-06T10:33:09.704Z</time>
      </trkpt>
      <trkpt lat="45.95843" lon="4.87916">
        <ele>291.700012207</ele>
        <time>2016-06-06T10:33:10.697Z</time>
      </trkpt>
      <trkpt lat="45.95843" lon="4.87907">
        <ele>291.5</ele>
        <time>2016-06-06T10:33:11.702Z</time>
      </trkpt>
      <trkpt lat="45.95842" lon="4.87898">
        <ele>291.399993896</ele>
        <time>2016-06-06T10:33:12.681Z</time>
      </trkpt>
      <trkpt lat="45.95842" lon="4.87889">
        <ele>291.200012207</ele>
        <time>2016-06-06T10:33:13.727Z</time>
      </trkpt>
      <trkpt lat="45.95841" lon="4.8788">
        <ele>291.100006104</ele>
        <time>2016-06-06T10:33:14.681Z</time>
      </trkpt>
      <trkpt lat="45.95841" lon="4.87871">
        <ele>290.899993896</ele>
        <time>2016-06-06T10:33:15.721Z</time>
      </trkpt>
      <trkpt lat="45.95841" lon="4.87862">
        <ele>291</ele>
        <time>2016-06-06T10:33:16.711Z</time>
      </trkpt>
      <trkpt lat="45.9584" lon="4.87853">
        <ele>291</ele>
        <time>2016-06-06T10:33:17.701Z</time>
      </trkpt>
      <trkpt lat="45.9584" lon="4.87844">
        <ele>290.700012207</ele>
        <time>2016-06-06T10:33:18.681Z</time>
      </trkpt>
      <trkpt lat="45.95839" lon="4.87834">
        <ele>290.600006104</ele>
        <time>2016-06-06T10:33:19.7Z</time>
      </trkpt>
      <trkpt lat="45.95838" lon="4.87825">
        <ele>290.700012207</ele>
        <time>2016-06-06T10:33:20.679Z</time>
      </trkpt>
      <trkpt lat="45.95837" lon="4.87815">
        <ele>290.700012207</ele>
        <time>2016-06-06T10:33:21.715Z</time>
      </trkpt>
      <trkpt lat="45.95836" lon="4.87806">
        <ele>290.899993896</ele>
        <time>2016-06-06T10:33:22.68Z</time>
      </trkpt>
      <trkpt lat="45.95835" lon="4.87796">
        <ele>291</ele>
        <time>2016-06-06T10:33:23.702Z</time>
      </trkpt>
      <trkpt lat="45.95833" lon="4.87785">
        <ele>291.100006104</ele>
        <time>2016-06-06T10:33:24.698Z</time>
      </trkpt>
      <trkpt lat="45.95832" lon="4.87775">
        <ele>291</ele>
        <time>2016-06-06T10:33:25.7Z</time>
      </trkpt>
      <trkpt lat="45.9583" lon="4.87765">
        <ele>291.100006104</ele>
        <time>2016-06-06T10:33:26.707Z</time>
      </trkpt>
      <trkpt lat="45.95828" lon="4.87755">
        <ele>291</ele>
        <time>2016-06-06T10:33:27.704Z</time>
      </trkpt>
      <trkpt lat="45.95827" lon="4.87745">
        <ele>290.899993896</ele>
        <time>2016-06-06T10:33:28.684Z</time>
      </trkpt>
      <trkpt lat="45.95825" lon="4.87735">
        <ele>290.700012207</ele>
        <time>2016-06-06T10:33:29.82Z</time>
      </trkpt>
      <trkpt lat="45.95823" lon="4.87725">
        <ele>290.299987793</ele>
        <time>2016-06-06T10:33:30.679Z</time>
      </trkpt>
      <trkpt lat="45.95821" lon="4.87714">
        <ele>290</ele>
        <time>2016-06-06T10:33:31.72Z</time>
      </trkpt>
      <trkpt lat="45.95819" lon="4.87704">
        <ele>289.700012207</ele>
        <time>2016-06-06T10:33:32.681Z</time>
      </trkpt>
      <trkpt lat="45.95816" lon="4.87694">
        <ele>289.299987793</ele>
        <time>2016-06-06T10:33:33.703Z</time>
      </trkpt>
      <trkpt lat="45.95814" lon="4.87684">
        <ele>289.100006104</ele>
        <time>2016-06-06T10:33:34.681Z</time>
      </trkpt>
      <trkpt lat="45.95812" lon="4.87674">
        <ele>289</ele>
        <time>2016-06-06T10:33:35.702Z</time>
      </trkpt>
      <trkpt lat="45.95808" lon="4.87664">
        <ele>289.100006104</ele>
        <time>2016-06-06T10:33:36.702Z</time>
      </trkpt>
      <trkpt lat="45.95804" lon="4.87654">
        <ele>288.600006104</ele>
        <time>2016-06-06T10:33:37.704Z</time>
      </trkpt>
      <trkpt lat="45.95801" lon="4.87645">
        <ele>288.600006104</ele>
        <time>2016-06-06T10:33:38.679Z</time>
      </trkpt>
      <trkpt lat="45.95796" lon="4.87635">
        <ele>287.200012207</ele>
        <time>2016-06-06T10:33:39.704Z</time>
      </trkpt>
      <trkpt lat="45.95792" lon="4.87625">
        <ele>286.399993896</ele>
        <time>2016-06-06T10:33:40.678Z</time>
      </trkpt>
      <trkpt lat="45.95787" lon="4.87615">
        <ele>285.700012207</ele>
        <time>2016-06-06T10:33:41.705Z</time>
      </trkpt>
      <trkpt lat="45.95781" lon="4.87605">
        <ele>284.299987793</ele>
        <time>2016-06-06T10:33:42.683Z</time>
      </trkpt>
      <trkpt lat="45.95776" lon="4.87594">
        <ele>284</ele>
        <time>2016-06-06T10:33:43.701Z</time>
      </trkpt>
      <trkpt lat="45.95771" lon="4.87583">
        <ele>283.299987793</ele>
        <time>2016-06-06T10:33:44.682Z</time>
      </trkpt>
      <trkpt lat="45.95771" lon="4.87583">
        <ele>283.299987793</ele>
        <time>2016-06-06T10:33:44.703Z</time>
      </trkpt>
      <trkpt lat="45.95766" lon="4.87573">
        <ele>282.899993896</ele>
        <time>2016-06-06T10:33:45.684Z</time>
      </trkpt>
      <trkpt lat="45.95766" lon="4.87573">
        <ele>282.899993896</ele>
        <time>2016-06-06T10:33:45.704Z</time>
      </trkpt>
      <trkpt lat="45.95761" lon="4.87562">
        <ele>282.399993896</ele>
        <time>2016-06-06T10:33:46.699Z</time>
      </trkpt>
      <trkpt lat="45.95761" lon="4.87562">
        <ele>282.399993896</ele>
        <time>2016-06-06T10:33:46.741Z</time>
      </trkpt>
      <trkpt lat="45.95756" lon="4.87551">
        <ele>281.899993896</ele>
        <time>2016-06-06T10:33:47.698Z</time>
      </trkpt>
      <trkpt lat="45.95756" lon="4.87551">
        <ele>281.899993896</ele>
        <time>2016-06-06T10:33:47.719Z</time>
      </trkpt>
      <trkpt lat="45.95751" lon="4.87539">
        <ele>281.399993896</ele>
        <time>2016-06-06T10:33:48.679Z</time>
      </trkpt>
      <trkpt lat="45.95751" lon="4.87539">
        <ele>281.399993896</ele>
        <time>2016-06-06T10:33:48.702Z</time>
      </trkpt>
      <trkpt lat="45.95745" lon="4.87529">
        <ele>281</ele>
        <time>2016-06-06T10:33:49.704Z</time>
      </trkpt>
      <trkpt lat="45.95745" lon="4.87529">
        <ele>281</ele>
        <time>2016-06-06T10:33:49.725Z</time>
      </trkpt>
      <trkpt lat="45.9574" lon="4.87518">
        <ele>280.5</ele>
        <time>2016-06-06T10:33:50.679Z</time>
      </trkpt>
      <trkpt lat="45.9574" lon="4.87518">
        <ele>280.5</ele>
        <time>2016-06-06T10:33:50.702Z</time>
      </trkpt>
      <trkpt lat="45.95734" lon="4.87507">
        <ele>280.200012207</ele>
        <time>2016-06-06T10:33:51.685Z</time>
      </trkpt>
      <trkpt lat="45.95734" lon="4.87507">
        <ele>280.200012207</ele>
        <time>2016-06-06T10:33:51.708Z</time>
      </trkpt>
      <trkpt lat="45.95729" lon="4.87496">
        <ele>279.700012207</ele>
        <time>2016-06-06T10:33:52.682Z</time>
      </trkpt>
      <trkpt lat="45.95729" lon="4.87496">
        <ele>279.700012207</ele>
        <time>2016-06-06T10:33:52.749Z</time>
      </trkpt>
      <trkpt lat="45.95723" lon="4.87486">
        <ele>279.399993896</ele>
        <time>2016-06-06T10:33:53.682Z</time>
      </trkpt>
      <trkpt lat="45.95718" lon="4.87476">
        <ele>279.299987793</ele>
        <time>2016-06-06T10:33:54.7Z</time>
      </trkpt>
      <trkpt lat="45.95713" lon="4.87465">
        <ele>279</ele>
        <time>2016-06-06T10:33:55.684Z</time>
      </trkpt>
      <trkpt lat="45.95708" lon="4.87455">
        <ele>278.799987793</ele>
        <time>2016-06-06T10:33:56.732Z</time>
      </trkpt>
      <trkpt lat="45.95704" lon="4.87445">
        <ele>278.399993896</ele>
        <time>2016-06-06T10:33:57.687Z</time>
      </trkpt>
      <trkpt lat="45.95699" lon="4.87435">
        <ele>278.5</ele>
        <time>2016-06-06T10:33:58.704Z</time>
      </trkpt>
      <trkpt lat="45.95694" lon="4.87425">
        <ele>278.200012207</ele>
        <time>2016-06-06T10:33:59.685Z</time>
      </trkpt>
      <trkpt lat="45.9569" lon="4.87416">
        <ele>277.799987793</ele>
        <time>2016-06-06T10:34:00.704Z</time>
      </trkpt>
      <trkpt lat="45.95685" lon="4.87406">
        <ele>277.600006104</ele>
        <time>2016-06-06T10:34:01.681Z</time>
      </trkpt>
      <trkpt lat="45.9568" lon="4.87397">
        <ele>277.600006104</ele>
        <time>2016-06-06T10:34:02.7Z</time>
      </trkpt>
      <trkpt lat="45.95676" lon="4.87387">
        <ele>277.5</ele>
        <time>2016-06-06T10:34:03.698Z</time>
      </trkpt>
      <trkpt lat="45.95671" lon="4.87378">
        <ele>277.399993896</ele>
        <time>2016-06-06T10:34:04.701Z</time>
      </trkpt>
      <trkpt lat="45.95666" lon="4.8737">
        <ele>277.399993896</ele>
        <time>2016-06-06T10:34:05.682Z</time>
      </trkpt>
      <trkpt lat="45.95662" lon="4.87362">
        <ele>277.600006104</ele>
        <time>2016-06-06T10:34:06.731Z</time>
      </trkpt>
      <trkpt lat="45.95657" lon="4.87353">
        <ele>277.600006104</ele>
        <time>2016-06-06T10:34:07.681Z</time>
      </trkpt>
      <trkpt lat="45.95653" lon="4.87344">
        <ele>277.799987793</ele>
        <time>2016-06-06T10:34:08.72Z</time>
      </trkpt>
      <trkpt lat="45.95649" lon="4.87336">
        <ele>277.799987793</ele>
        <time>2016-06-06T10:34:09.681Z</time>
      </trkpt>
      <trkpt lat="45.95645" lon="4.87327">
        <ele>277.799987793</ele>
        <time>2016-06-06T10:34:10.7Z</time>
      </trkpt>
      <trkpt lat="45.95641" lon="4.87319">
        <ele>277.5</ele>
        <time>2016-06-06T10:34:11.685Z</time>
      </trkpt>
      <trkpt lat="45.95637" lon="4.87311">
        <ele>277.100006104</ele>
        <time>2016-06-06T10:34:12.812Z</time>
      </trkpt>
      <trkpt lat="45.95633" lon="4.87302">
        <ele>276.899993896</ele>
        <time>2016-06-06T10:34:13.682Z</time>
      </trkpt>
      <trkpt lat="45.95628" lon="4.87293">
        <ele>276.899993896</ele>
        <time>2016-06-06T10:34:14.7Z</time>
      </trkpt>
      <trkpt lat="45.95624" lon="4.87284">
        <ele>276.799987793</ele>
        <time>2016-06-06T10:34:15.685Z</time>
      </trkpt>
      <trkpt lat="45.95619" lon="4.87275">
        <ele>276.399993896</ele>
        <time>2016-06-06T10:34:16.728Z</time>
      </trkpt>
      <trkpt lat="45.95615" lon="4.87266">
        <ele>276</ele>
        <time>2016-06-06T10:34:17.683Z</time>
      </trkpt>
      <trkpt lat="45.9561" lon="4.87257">
        <ele>275.399993896</ele>
        <time>2016-06-06T10:34:18.701Z</time>
      </trkpt>
      <trkpt lat="45.95606" lon="4.87247">
        <ele>274.899993896</ele>
        <time>2016-06-06T10:34:19.679Z</time>
      </trkpt>
      <trkpt lat="45.95601" lon="4.87237">
        <ele>274.399993896</ele>
        <time>2016-06-06T10:34:20.7Z</time>
      </trkpt>
      <trkpt lat="45.95596" lon="4.87227">
        <ele>274.200012207</ele>
        <time>2016-06-06T10:34:21.682Z</time>
      </trkpt>
      <trkpt lat="45.95592" lon="4.87217">
        <ele>274.200012207</ele>
        <time>2016-06-06T10:34:22.731Z</time>
      </trkpt>
      <trkpt lat="45.95587" lon="4.87207">
        <ele>274.100006104</ele>
        <time>2016-06-06T10:34:23.685Z</time>
      </trkpt>
      <trkpt lat="45.95582" lon="4.87197">
        <ele>274.100006104</ele>
        <time>2016-06-06T10:34:24.715Z</time>
      </trkpt>
      <trkpt lat="45.95577" lon="4.87187">
        <ele>273.899993896</ele>
        <time>2016-06-06T10:34:25.682Z</time>
      </trkpt>
      <trkpt lat="45.95573" lon="4.87178">
        <ele>273.700012207</ele>
        <time>2016-06-06T10:34:26.732Z</time>
      </trkpt>
      <trkpt lat="45.95568" lon="4.87168">
        <ele>273.5</ele>
        <time>2016-06-06T10:34:27.682Z</time>
      </trkpt>
      <trkpt lat="45.95563" lon="4.87158">
        <ele>273.5</ele>
        <time>2016-06-06T10:34:28.701Z</time>
      </trkpt>
      <trkpt lat="45.95558" lon="4.87149">
        <ele>273.5</ele>
        <time>2016-06-06T10:34:29.685Z</time>
      </trkpt>
      <trkpt lat="45.95554" lon="4.8714">
        <ele>273.299987793</ele>
        <time>2016-06-06T10:34:30.711Z</time>
      </trkpt>
      <trkpt lat="45.95549" lon="4.87131">
        <ele>273.100006104</ele>
        <time>2016-06-06T10:34:31.679Z</time>
      </trkpt>
      <trkpt lat="45.95544" lon="4.87122">
        <ele>272.799987793</ele>
        <time>2016-06-06T10:34:32.704Z</time>
      </trkpt>
      <trkpt lat="45.95541" lon="4.87114">
        <ele>272.799987793</ele>
        <time>2016-06-06T10:34:33.69Z</time>
      </trkpt>
      <trkpt lat="45.95537" lon="4.87105">
        <ele>272.799987793</ele>
        <time>2016-06-06T10:34:34.704Z</time>
      </trkpt>
      <trkpt lat="45.95533" lon="4.87097">
        <ele>272.799987793</ele>
        <time>2016-06-06T10:34:35.685Z</time>
      </trkpt>
      <trkpt lat="45.95528" lon="4.8709">
        <ele>272.5</ele>
        <time>2016-06-06T10:34:36.727Z</time>
      </trkpt>
      <trkpt lat="45.95525" lon="4.87082">
        <ele>272.600006104</ele>
        <time>2016-06-06T10:34:37.679Z</time>
      </trkpt>
      <trkpt lat="45.95521" lon="4.87075">
        <ele>272.399993896</ele>
        <time>2016-06-06T10:34:38.7Z</time>
      </trkpt>
      <trkpt lat="45.95517" lon="4.87069">
        <ele>272.700012207</ele>
        <time>2016-06-06T10:34:39.685Z</time>
      </trkpt>
      <trkpt lat="45.95514" lon="4.87061">
        <ele>273</ele>
        <time>2016-06-06T10:34:40.72Z</time>
      </trkpt>
      <trkpt lat="45.9551" lon="4.87053">
        <ele>273.399993896</ele>
        <time>2016-06-06T10:34:41.685Z</time>
      </trkpt>
      <trkpt lat="45.95506" lon="4.87045">
        <ele>273.5</ele>
        <time>2016-06-06T10:34:42.704Z</time>
      </trkpt>
      <trkpt lat="45.95502" lon="4.87038">
        <ele>273.600006104</ele>
        <time>2016-06-06T10:34:43.681Z</time>
      </trkpt>
      <trkpt lat="45.95499" lon="4.8703">
        <ele>273.700012207</ele>
        <time>2016-06-06T10:34:44.704Z</time>
      </trkpt>
      <trkpt lat="45.95495" lon="4.87023">
        <ele>273.799987793</ele>
        <time>2016-06-06T10:34:45.685Z</time>
      </trkpt>
      <trkpt lat="45.95492" lon="4.87016">
        <ele>273.899993896</ele>
        <time>2016-06-06T10:34:46.723Z</time>
      </trkpt>
      <trkpt lat="45.95489" lon="4.87009">
        <ele>274</ele>
        <time>2016-06-06T10:34:47.685Z</time>
      </trkpt>
      <trkpt lat="45.95485" lon="4.87002">
        <ele>274.299987793</ele>
        <time>2016-06-06T10:34:48.703Z</time>
      </trkpt>
      <trkpt lat="45.95482" lon="4.86995">
        <ele>274.399993896</ele>
        <time>2016-06-06T10:34:49.682Z</time>
      </trkpt>
      <trkpt lat="45.95479" lon="4.86988">
        <ele>274.100006104</ele>
        <time>2016-06-06T10:34:50.701Z</time>
      </trkpt>
      <trkpt lat="45.95476" lon="4.8698">
        <ele>273.899993896</ele>
        <time>2016-06-06T10:34:51.688Z</time>
      </trkpt>
      <trkpt lat="45.95472" lon="4.86973">
        <ele>274.100006104</ele>
        <time>2016-06-06T10:34:52.716Z</time>
      </trkpt>
      <trkpt lat="45.95469" lon="4.86965">
        <ele>274.100006104</ele>
        <time>2016-06-06T10:34:53.685Z</time>
      </trkpt>
      <trkpt lat="45.95465" lon="4.86957">
        <ele>274</ele>
        <time>2016-06-06T10:34:54.703Z</time>
      </trkpt>
      <trkpt lat="45.95461" lon="4.86949">
        <ele>274.399993896</ele>
        <time>2016-06-06T10:34:55.684Z</time>
      </trkpt>
      <trkpt lat="45.95457" lon="4.86941">
        <ele>274.700012207</ele>
        <time>2016-06-06T10:34:56.722Z</time>
      </trkpt>
      <trkpt lat="45.95454" lon="4.86933">
        <ele>274.899993896</ele>
        <time>2016-06-06T10:34:57.685Z</time>
      </trkpt>
      <trkpt lat="45.95449" lon="4.86924">
        <ele>274.799987793</ele>
        <time>2016-06-06T10:34:58.699Z</time>
      </trkpt>
      <trkpt lat="45.95445" lon="4.86916">
        <ele>274.5</ele>
        <time>2016-06-06T10:34:59.684Z</time>
      </trkpt>
      <trkpt lat="45.9544" lon="4.86907">
        <ele>273.600006104</ele>
        <time>2016-06-06T10:35:00.715Z</time>
      </trkpt>
      <trkpt lat="45.95436" lon="4.86898">
        <ele>273.600006104</ele>
        <time>2016-06-06T10:35:01.682Z</time>
      </trkpt>
      <trkpt lat="45.95432" lon="4.86889">
        <ele>273.299987793</ele>
        <time>2016-06-06T10:35:02.854Z</time>
      </trkpt>
      <trkpt lat="45.95428" lon="4.86881">
        <ele>273.299987793</ele>
        <time>2016-06-06T10:35:03.685Z</time>
      </trkpt>
      <trkpt lat="45.95424" lon="4.86873">
        <ele>273.399993896</ele>
        <time>2016-06-06T10:35:04.703Z</time>
      </trkpt>
      <trkpt lat="45.9542" lon="4.86865">
        <ele>273.5</ele>
        <time>2016-06-06T10:35:05.681Z</time>
      </trkpt>
      <trkpt lat="45.95416" lon="4.86858">
        <ele>273.700012207</ele>
        <time>2016-06-06T10:35:06.777Z</time>
      </trkpt>
      <trkpt lat="45.95412" lon="4.8685">
        <ele>273.5</ele>
        <time>2016-06-06T10:35:07.681Z</time>
      </trkpt>
      <trkpt lat="45.95409" lon="4.86842">
        <ele>273.200012207</ele>
        <time>2016-06-06T10:35:08.703Z</time>
      </trkpt>
      <trkpt lat="45.95405" lon="4.86835">
        <ele>273.100006104</ele>
        <time>2016-06-06T10:35:09.685Z</time>
      </trkpt>
      <trkpt lat="45.95402" lon="4.86827">
        <ele>273</ele>
        <time>2016-06-06T10:35:10.702Z</time>
      </trkpt>
      <trkpt lat="45.95397" lon="4.8682">
        <ele>273</ele>
        <time>2016-06-06T10:35:11.7Z</time>
      </trkpt>
      <trkpt lat="45.95394" lon="4.86813">
        <ele>272.799987793</ele>
        <time>2016-06-06T10:35:12.72Z</time>
      </trkpt>
      <trkpt lat="45.9539" lon="4.86806">
        <ele>272.799987793</ele>
        <time>2016-06-06T10:35:13.681Z</time>
      </trkpt>
      <trkpt lat="45.95386" lon="4.86799">
        <ele>272.299987793</ele>
        <time>2016-06-06T10:35:14.7Z</time>
      </trkpt>
      <trkpt lat="45.95383" lon="4.86793">
        <ele>272</ele>
        <time>2016-06-06T10:35:15.683Z</time>
      </trkpt>
      <trkpt lat="45.9538" lon="4.86786">
        <ele>272</ele>
        <time>2016-06-06T10:35:16.752Z</time>
      </trkpt>
      <trkpt lat="45.95376" lon="4.86778">
        <ele>272</ele>
        <time>2016-06-06T10:35:17.681Z</time>
      </trkpt>
      <trkpt lat="45.95373" lon="4.86771">
        <ele>271.899993896</ele>
        <time>2016-06-06T10:35:18.703Z</time>
      </trkpt>
      <trkpt lat="45.9537" lon="4.86763">
        <ele>271.899993896</ele>
        <time>2016-06-06T10:35:19.68Z</time>
      </trkpt>
      <trkpt lat="45.95366" lon="4.86755">
        <ele>271.799987793</ele>
        <time>2016-06-06T10:35:20.727Z</time>
      </trkpt>
      <trkpt lat="45.95362" lon="4.86748">
        <ele>271.700012207</ele>
        <time>2016-06-06T10:35:21.684Z</time>
      </trkpt>
      <trkpt lat="45.95357" lon="4.8674">
        <ele>271.799987793</ele>
        <time>2016-06-06T10:35:22.703Z</time>
      </trkpt>
      <trkpt lat="45.95353" lon="4.86732">
        <ele>271.799987793</ele>
        <time>2016-06-06T10:35:23.684Z</time>
      </trkpt>
      <trkpt lat="45.95349" lon="4.86724">
        <ele>271.5</ele>
        <time>2016-06-06T10:35:24.703Z</time>
      </trkpt>
      <trkpt lat="45.95346" lon="4.86717">
        <ele>271.5</ele>
        <time>2016-06-06T10:35:25.68Z</time>
      </trkpt>
      <trkpt lat="45.95342" lon="4.86709">
        <ele>271.299987793</ele>
        <time>2016-06-06T10:35:26.724Z</time>
      </trkpt>
      <trkpt lat="45.95338" lon="4.86702">
        <ele>271.200012207</ele>
        <time>2016-06-06T10:35:27.683Z</time>
      </trkpt>
      <trkpt lat="45.95335" lon="4.86695">
        <ele>271.299987793</ele>
        <time>2016-06-06T10:35:28.841Z</time>
      </trkpt>
      <trkpt lat="45.95331" lon="4.86688">
        <ele>271.299987793</ele>
        <time>2016-06-06T10:35:29.681Z</time>
      </trkpt>
      <trkpt lat="45.95328" lon="4.8668">
        <ele>271.5</ele>
        <time>2016-06-06T10:35:30.702Z</time>
      </trkpt>
      <trkpt lat="45.95324" lon="4.86673">
        <ele>271.799987793</ele>
        <time>2016-06-06T10:35:31.679Z</time>
      </trkpt>
      <trkpt lat="45.9532" lon="4.86666">
        <ele>272</ele>
        <time>2016-06-06T10:35:32.717Z</time>
      </trkpt>
      <trkpt lat="45.95316" lon="4.86658">
        <ele>271.799987793</ele>
        <time>2016-06-06T10:35:33.683Z</time>
      </trkpt>
      <trkpt lat="45.95312" lon="4.8665">
        <ele>271.799987793</ele>
        <time>2016-06-06T10:35:34.699Z</time>
      </trkpt>
      <trkpt lat="45.95308" lon="4.86642">
        <ele>271.700012207</ele>
        <time>2016-06-06T10:35:35.681Z</time>
      </trkpt>
      <trkpt lat="45.95304" lon="4.86634">
        <ele>271.600006104</ele>
        <time>2016-06-06T10:35:36.711Z</time>
      </trkpt>
      <trkpt lat="45.953" lon="4.86625">
        <ele>271.5</ele>
        <time>2016-06-06T10:35:37.68Z</time>
      </trkpt>
      <trkpt lat="45.95296" lon="4.86617">
        <ele>271.299987793</ele>
        <time>2016-06-06T10:35:38.7Z</time>
      </trkpt>
      <trkpt lat="45.95292" lon="4.86609">
        <ele>271.100006104</ele>
        <time>2016-06-06T10:35:39.683Z</time>
      </trkpt>
      <trkpt lat="45.95287" lon="4.86601">
        <ele>270.899993896</ele>
        <time>2016-06-06T10:35:40.699Z</time>
      </trkpt>
      <trkpt lat="45.95282" lon="4.86592">
        <ele>270.5</ele>
        <time>2016-06-06T10:35:41.679Z</time>
      </trkpt>
      <trkpt lat="45.95277" lon="4.86584">
        <ele>270.100006104</ele>
        <time>2016-06-06T10:35:42.7Z</time>
      </trkpt>
      <trkpt lat="45.95271" lon="4.86575">
        <ele>269.899993896</ele>
        <time>2016-06-06T10:35:43.683Z</time>
      </trkpt>
      <trkpt lat="45.95266" lon="4.86567">
        <ele>269.700012207</ele>
        <time>2016-06-06T10:35:44.704Z</time>
      </trkpt>
      <trkpt lat="45.9526" lon="4.8656">
        <ele>269.5</ele>
        <time>2016-06-06T10:35:45.683Z</time>
      </trkpt>
      <trkpt lat="45.95254" lon="4.86553">
        <ele>269.399993896</ele>
        <time>2016-06-06T10:35:46.715Z</time>
      </trkpt>
      <trkpt lat="45.95248" lon="4.86545">
        <ele>269.299987793</ele>
        <time>2016-06-06T10:35:47.684Z</time>
      </trkpt>
      <trkpt lat="45.95243" lon="4.86538">
        <ele>269.600006104</ele>
        <time>2016-06-06T10:35:48.703Z</time>
      </trkpt>
      <trkpt lat="45.95238" lon="4.86531">
        <ele>269.799987793</ele>
        <time>2016-06-06T10:35:49.681Z</time>
      </trkpt>
      <trkpt lat="45.95233" lon="4.86524">
        <ele>269.799987793</ele>
        <time>2016-06-06T10:35:50.849Z</time>
      </trkpt>
      <trkpt lat="45.95228" lon="4.86519">
        <ele>269.799987793</ele>
        <time>2016-06-06T10:35:51.684Z</time>
      </trkpt>
      <trkpt lat="45.95222" lon="4.86513">
        <ele>269.799987793</ele>
        <time>2016-06-06T10:35:52.704Z</time>
      </trkpt>
      <trkpt lat="45.95217" lon="4.86507">
        <ele>269.700012207</ele>
        <time>2016-06-06T10:35:53.681Z</time>
      </trkpt>
      <trkpt lat="45.95212" lon="4.86501">
        <ele>270</ele>
        <time>2016-06-06T10:35:54.703Z</time>
      </trkpt>
      <trkpt lat="45.95208" lon="4.86495">
        <ele>270.200012207</ele>
        <time>2016-06-06T10:35:55.678Z</time>
      </trkpt>
      <trkpt lat="45.95203" lon="4.86489">
        <ele>270.200012207</ele>
        <time>2016-06-06T10:35:56.704Z</time>
      </trkpt>
      <trkpt lat="45.95198" lon="4.86483">
        <ele>270.200012207</ele>
        <time>2016-06-06T10:35:57.683Z</time>
      </trkpt>
      <trkpt lat="45.95194" lon="4.86477">
        <ele>270.399993896</ele>
        <time>2016-06-06T10:35:58.717Z</time>
      </trkpt>
      <trkpt lat="45.95189" lon="4.86471">
        <ele>270.700012207</ele>
        <time>2016-06-06T10:35:59.683Z</time>
      </trkpt>
      <trkpt lat="45.95185" lon="4.86466">
        <ele>270.799987793</ele>
        <time>2016-06-06T10:36:00.733Z</time>
      </trkpt>
      <trkpt lat="45.95181" lon="4.8646">
        <ele>270.899993896</ele>
        <time>2016-06-06T10:36:01.68Z</time>
      </trkpt>
      <trkpt lat="45.95176" lon="4.86455">
        <ele>271.200012207</ele>
        <time>2016-06-06T10:36:02.705Z</time>
      </trkpt>
      <trkpt lat="45.95173" lon="4.8645">
        <ele>271.399993896</ele>
        <time>2016-06-06T10:36:03.684Z</time>
      </trkpt>
      <trkpt lat="45.95169" lon="4.86446">
        <ele>271.600006104</ele>
        <time>2016-06-06T10:36:04.701Z</time>
      </trkpt>
      <trkpt lat="45.95164" lon="4.86441">
        <ele>271.899993896</ele>
        <time>2016-06-06T10:36:05.68Z</time>
      </trkpt>
      <trkpt lat="45.95161" lon="4.86436">
        <ele>272.200012207</ele>
        <time>2016-06-06T10:36:06.743Z</time>
      </trkpt>
      <trkpt lat="45.95156" lon="4.86431">
        <ele>272.200012207</ele>
        <time>2016-06-06T10:36:07.679Z</time>
      </trkpt>
      <trkpt lat="45.95153" lon="4.86426">
        <ele>272.399993896</ele>
        <time>2016-06-06T10:36:08.701Z</time>
      </trkpt>
      <trkpt lat="45.95149" lon="4.86421">
        <ele>272.5</ele>
        <time>2016-06-06T10:36:09.681Z</time>
      </trkpt>
      <trkpt lat="45.95144" lon="4.86416">
        <ele>272.600006104</ele>
        <time>2016-06-06T10:36:10.701Z</time>
      </trkpt>
      <trkpt lat="45.9514" lon="4.8641">
        <ele>272.5</ele>
        <time>2016-06-06T10:36:11.679Z</time>
      </trkpt>
      <trkpt lat="45.95136" lon="4.86405">
        <ele>272.5</ele>
        <time>2016-06-06T10:36:12.701Z</time>
      </trkpt>
      <trkpt lat="45.95131" lon="4.864">
        <ele>272.5</ele>
        <time>2016-06-06T10:36:13.682Z</time>
      </trkpt>
      <trkpt lat="45.95127" lon="4.86394">
        <ele>272.200012207</ele>
        <time>2016-06-06T10:36:14.72Z</time>
      </trkpt>
      <trkpt lat="45.95122" lon="4.86389">
        <ele>272.299987793</ele>
        <time>2016-06-06T10:36:15.683Z</time>
      </trkpt>
      <trkpt lat="45.95118" lon="4.86383">
        <ele>272.399993896</ele>
        <time>2016-06-06T10:36:16.754Z</time>
      </trkpt>
      <trkpt lat="45.95113" lon="4.86378">
        <ele>272.600006104</ele>
        <time>2016-06-06T10:36:17.679Z</time>
      </trkpt>
      <trkpt lat="45.95108" lon="4.86373">
        <ele>272.799987793</ele>
        <time>2016-06-06T10:36:18.701Z</time>
      </trkpt>
      <trkpt lat="45.95104" lon="4.86368">
        <ele>272.799987793</ele>
        <time>2016-06-06T10:36:19.682Z</time>
      </trkpt>
      <trkpt lat="45.95099" lon="4.86362">
        <ele>273</ele>
        <time>2016-06-06T10:36:20.701Z</time>
      </trkpt>
      <trkpt lat="45.95095" lon="4.86356">
        <ele>273</ele>
        <time>2016-06-06T10:36:21.683Z</time>
      </trkpt>
      <trkpt lat="45.9509" lon="4.86351">
        <ele>272.5</ele>
        <time>2016-06-06T10:36:22.704Z</time>
      </trkpt>
      <trkpt lat="45.95085" lon="4.86345">
        <ele>272.399993896</ele>
        <time>2016-06-06T10:36:23.682Z</time>
      </trkpt>
      <trkpt lat="45.95081" lon="4.8634">
        <ele>272.299987793</ele>
        <time>2016-06-06T10:36:24.704Z</time>
      </trkpt>
      <trkpt lat="45.95076" lon="4.86335">
        <ele>272.299987793</ele>
        <time>2016-06-06T10:36:25.678Z</time>
      </trkpt>
      <trkpt lat="45.95072" lon="4.8633">
        <ele>272.399993896</ele>
        <time>2016-06-06T10:36:26.701Z</time>
      </trkpt>
      <trkpt lat="45.95067" lon="4.86324">
        <ele>272.600006104</ele>
        <time>2016-06-06T10:36:27.683Z</time>
      </trkpt>
      <trkpt lat="45.95063" lon="4.86319">
        <ele>272.700012207</ele>
        <time>2016-06-06T10:36:28.736Z</time>
      </trkpt>
      <trkpt lat="45.95058" lon="4.86313">
        <ele>272.700012207</ele>
        <time>2016-06-06T10:36:29.684Z</time>
      </trkpt>
      <trkpt lat="45.95054" lon="4.86308">
        <ele>272.899993896</ele>
        <time>2016-06-06T10:36:30.715Z</time>
      </trkpt>
      <trkpt lat="45.9505" lon="4.86303">
        <ele>273</ele>
        <time>2016-06-06T10:36:31.678Z</time>
      </trkpt>
      <trkpt lat="45.95046" lon="4.86298">
        <ele>272.899993896</ele>
        <time>2016-06-06T10:36:32.704Z</time>
      </trkpt>
      <trkpt lat="45.95042" lon="4.86293">
        <ele>273</ele>
        <time>2016-06-06T10:36:33.684Z</time>
      </trkpt>
      <trkpt lat="45.95039" lon="4.86288">
        <ele>273.100006104</ele>
        <time>2016-06-06T10:36:34.7Z</time>
      </trkpt>
      <trkpt lat="45.95035" lon="4.86284">
        <ele>273.299987793</ele>
        <time>2016-06-06T10:36:35.681Z</time>
      </trkpt>
      <trkpt lat="45.95031" lon="4.8628">
        <ele>273.399993896</ele>
        <time>2016-06-06T10:36:36.704Z</time>
      </trkpt>
      <trkpt lat="45.95028" lon="4.86276">
        <ele>273.600006104</ele>
        <time>2016-06-06T10:36:37.677Z</time>
      </trkpt>
      <trkpt lat="45.95024" lon="4.86271">
        <ele>273.799987793</ele>
        <time>2016-06-06T10:36:38.701Z</time>
      </trkpt>
      <trkpt lat="45.9502" lon="4.86266">
        <ele>274</ele>
        <time>2016-06-06T10:36:39.713Z</time>
      </trkpt>
      <trkpt lat="45.95017" lon="4.86261">
        <ele>274.200012207</ele>
        <time>2016-06-06T10:36:40.701Z</time>
      </trkpt>
      <trkpt lat="45.95014" lon="4.86257">
        <ele>274.399993896</ele>
        <time>2016-06-06T10:36:41.682Z</time>
      </trkpt>
      <trkpt lat="45.9501" lon="4.86252">
        <ele>274.700012207</ele>
        <time>2016-06-06T10:36:42.7Z</time>
      </trkpt>
      <trkpt lat="45.95006" lon="4.86248">
        <ele>275</ele>
        <time>2016-06-06T10:36:43.678Z</time>
      </trkpt>
      <trkpt lat="45.95003" lon="4.86244">
        <ele>275.200012207</ele>
        <time>2016-06-06T10:36:44.7Z</time>
      </trkpt>
      <trkpt lat="45.95" lon="4.86239">
        <ele>275.5</ele>
        <time>2016-06-06T10:36:45.683Z</time>
      </trkpt>
      <trkpt lat="45.94996" lon="4.86235">
        <ele>275.700012207</ele>
        <time>2016-06-06T10:36:46.7Z</time>
      </trkpt>
      <trkpt lat="45.94993" lon="4.8623">
        <ele>276.200012207</ele>
        <time>2016-06-06T10:36:47.681Z</time>
      </trkpt>
      <trkpt lat="45.94989" lon="4.86226">
        <ele>276.200012207</ele>
        <time>2016-06-06T10:36:48.7Z</time>
      </trkpt>
      <trkpt lat="45.94985" lon="4.86221">
        <ele>276.399993896</ele>
        <time>2016-06-06T10:36:49.678Z</time>
      </trkpt>
      <trkpt lat="45.94982" lon="4.86217">
        <ele>276.5</ele>
        <time>2016-06-06T10:36:50.704Z</time>
      </trkpt>
      <trkpt lat="45.94978" lon="4.86213">
        <ele>276.600006104</ele>
        <time>2016-06-06T10:36:51.684Z</time>
      </trkpt>
      <trkpt lat="45.94975" lon="4.86208">
        <ele>276.5</ele>
        <time>2016-06-06T10:36:52.7Z</time>
      </trkpt>
      <trkpt lat="45.94971" lon="4.86203">
        <ele>276.600006104</ele>
        <time>2016-06-06T10:36:53.68Z</time>
      </trkpt>
      <trkpt lat="45.94967" lon="4.86198">
        <ele>276.600006104</ele>
        <time>2016-06-06T10:36:54.703Z</time>
      </trkpt>
      <trkpt lat="45.94964" lon="4.86194">
        <ele>276.600006104</ele>
        <time>2016-06-06T10:36:55.678Z</time>
      </trkpt>
      <trkpt lat="45.9496" lon="4.8619">
        <ele>276.799987793</ele>
        <time>2016-06-06T10:36:56.892Z</time>
      </trkpt>
      <trkpt lat="45.94956" lon="4.86185">
        <ele>277.100006104</ele>
        <time>2016-06-06T10:36:57.684Z</time>
      </trkpt>
      <trkpt lat="45.94952" lon="4.8618">
        <ele>276.799987793</ele>
        <time>2016-06-06T10:36:58.705Z</time>
      </trkpt>
      <trkpt lat="45.94949" lon="4.86176">
        <ele>276.899993896</ele>
        <time>2016-06-06T10:36:59.679Z</time>
      </trkpt>
      <trkpt lat="45.94945" lon="4.86171">
        <ele>277</ele>
        <time>2016-06-06T10:37:00.701Z</time>
      </trkpt>
      <trkpt lat="45.94941" lon="4.86167">
        <ele>277</ele>
        <time>2016-06-06T10:37:01.696Z</time>
      </trkpt>
      <trkpt lat="45.94938" lon="4.86162">
        <ele>277</ele>
        <time>2016-06-06T10:37:02.7Z</time>
      </trkpt>
      <trkpt lat="45.94934" lon="4.86157">
        <ele>277</ele>
        <time>2016-06-06T10:37:03.688Z</time>
      </trkpt>
      <trkpt lat="45.94931" lon="4.86152">
        <ele>276.899993896</ele>
        <time>2016-06-06T10:37:04.7Z</time>
      </trkpt>
      <trkpt lat="45.94928" lon="4.86147">
        <ele>276.899993896</ele>
        <time>2016-06-06T10:37:05.681Z</time>
      </trkpt>
      <trkpt lat="45.94924" lon="4.86143">
        <ele>277</ele>
        <time>2016-06-06T10:37:06.91Z</time>
      </trkpt>
      <trkpt lat="45.94921" lon="4.86138">
        <ele>277.100006104</ele>
        <time>2016-06-06T10:37:07.679Z</time>
      </trkpt>
      <trkpt lat="45.94917" lon="4.86133">
        <ele>277.200012207</ele>
        <time>2016-06-06T10:37:08.704Z</time>
      </trkpt>
      <trkpt lat="45.94914" lon="4.86127">
        <ele>277.299987793</ele>
        <time>2016-06-06T10:37:09.683Z</time>
      </trkpt>
      <trkpt lat="45.94911" lon="4.86122">
        <ele>277.299987793</ele>
        <time>2016-06-06T10:37:10.7Z</time>
      </trkpt>
      <trkpt lat="45.94908" lon="4.86117">
        <ele>277.299987793</ele>
        <time>2016-06-06T10:37:11.681Z</time>
      </trkpt>
      <trkpt lat="45.94906" lon="4.86111">
        <ele>277.299987793</ele>
        <time>2016-06-06T10:37:12.711Z</time>
      </trkpt>
      <trkpt lat="45.94904" lon="4.86106">
        <ele>277.399993896</ele>
        <time>2016-06-06T10:37:13.678Z</time>
      </trkpt>
      <trkpt lat="45.94902" lon="4.861">
        <ele>277.600006104</ele>
        <time>2016-06-06T10:37:14.704Z</time>
      </trkpt>
      <trkpt lat="45.949" lon="4.86093">
        <ele>277.700012207</ele>
        <time>2016-06-06T10:37:15.683Z</time>
      </trkpt>
      <trkpt lat="45.94898" lon="4.86088">
        <ele>277.899993896</ele>
        <time>2016-06-06T10:37:16.7Z</time>
      </trkpt>
      <trkpt lat="45.94896" lon="4.86081">
        <ele>278</ele>
        <time>2016-06-06T10:37:17.696Z</time>
      </trkpt>
      <trkpt lat="45.94894" lon="4.86075">
        <ele>278</ele>
        <time>2016-06-06T10:37:18.744Z</time>
      </trkpt>
      <trkpt lat="45.94892" lon="4.86069">
        <ele>277.899993896</ele>
        <time>2016-06-06T10:37:19.68Z</time>
      </trkpt>
      <trkpt lat="45.9489" lon="4.86062">
        <ele>277.799987793</ele>
        <time>2016-06-06T10:37:20.702Z</time>
      </trkpt>
      <trkpt lat="45.94888" lon="4.86056">
        <ele>277.799987793</ele>
        <time>2016-06-06T10:37:21.683Z</time>
      </trkpt>
      <trkpt lat="45.94886" lon="4.86049">
        <ele>277.700012207</ele>
        <time>2016-06-06T10:37:22.818Z</time>
      </trkpt>
      <trkpt lat="45.94884" lon="4.86042">
        <ele>277.5</ele>
        <time>2016-06-06T10:37:23.681Z</time>
      </trkpt>
      <trkpt lat="45.94883" lon="4.86035">
        <ele>277.5</ele>
        <time>2016-06-06T10:37:24.701Z</time>
      </trkpt>
      <trkpt lat="45.94881" lon="4.86028">
        <ele>277.600006104</ele>
        <time>2016-06-06T10:37:25.681Z</time>
      </trkpt>
      <trkpt lat="45.9488" lon="4.86021">
        <ele>277.5</ele>
        <time>2016-06-06T10:37:26.7Z</time>
      </trkpt>
      <trkpt lat="45.94878" lon="4.86014">
        <ele>277.5</ele>
        <time>2016-06-06T10:37:27.683Z</time>
      </trkpt>
      <trkpt lat="45.94876" lon="4.86007">
        <ele>277.399993896</ele>
        <time>2016-06-06T10:37:28.701Z</time>
      </trkpt>
      <trkpt lat="45.94874" lon="4.86">
        <ele>277.200012207</ele>
        <time>2016-06-06T10:37:29.681Z</time>
      </trkpt>
      <trkpt lat="45.94873" lon="4.85993">
        <ele>276.899993896</ele>
        <time>2016-06-06T10:37:30.7Z</time>
      </trkpt>
      <trkpt lat="45.94871" lon="4.85986">
        <ele>276.899993896</ele>
        <time>2016-06-06T10:37:31.679Z</time>
      </trkpt>
      <trkpt lat="45.94869" lon="4.85979">
        <ele>276.799987793</ele>
        <time>2016-06-06T10:37:32.701Z</time>
      </trkpt>
      <trkpt lat="45.94866" lon="4.85973">
        <ele>276.5</ele>
        <time>2016-06-06T10:37:33.683Z</time>
      </trkpt>
      <trkpt lat="45.94864" lon="4.85965">
        <ele>276.100006104</ele>
        <time>2016-06-06T10:37:34.7Z</time>
      </trkpt>
      <trkpt lat="45.94862" lon="4.85958">
        <ele>275.799987793</ele>
        <time>2016-06-06T10:37:35.679Z</time>
      </trkpt>
      <trkpt lat="45.9486" lon="4.8595">
        <ele>276</ele>
        <time>2016-06-06T10:37:36.728Z</time>
      </trkpt>
      <trkpt lat="45.94859" lon="4.85943">
        <ele>276</ele>
        <time>2016-06-06T10:37:37.689Z</time>
      </trkpt>
      <trkpt lat="45.94857" lon="4.85936">
        <ele>276.200012207</ele>
        <time>2016-06-06T10:37:38.715Z</time>
      </trkpt>
      <trkpt lat="45.94855" lon="4.85929">
        <ele>276.5</ele>
        <time>2016-06-06T10:37:39.683Z</time>
      </trkpt>
      <trkpt lat="45.94853" lon="4.85922">
        <ele>276.899993896</ele>
        <time>2016-06-06T10:37:40.7Z</time>
      </trkpt>
      <trkpt lat="45.94852" lon="4.85915">
        <ele>277.399993896</ele>
        <time>2016-06-06T10:37:41.681Z</time>
      </trkpt>
      <trkpt lat="45.9485" lon="4.85908">
        <ele>277.399993896</ele>
        <time>2016-06-06T10:37:42.7Z</time>
      </trkpt>
      <trkpt lat="45.94849" lon="4.85901">
        <ele>277.600006104</ele>
        <time>2016-06-06T10:37:43.678Z</time>
      </trkpt>
      <trkpt lat="45.94847" lon="4.85894">
        <ele>277.700012207</ele>
        <time>2016-06-06T10:37:44.7Z</time>
      </trkpt>
      <trkpt lat="45.94845" lon="4.85887">
        <ele>277.899993896</ele>
        <time>2016-06-06T10:37:45.683Z</time>
      </trkpt>
      <trkpt lat="45.94843" lon="4.8588">
        <ele>278</ele>
        <time>2016-06-06T10:37:46.702Z</time>
      </trkpt>
      <trkpt lat="45.94841" lon="4.85873">
        <ele>278.100006104</ele>
        <time>2016-06-06T10:37:47.68Z</time>
      </trkpt>
      <trkpt lat="45.9484" lon="4.85867">
        <ele>278.299987793</ele>
        <time>2016-06-06T10:37:48.701Z</time>
      </trkpt>
      <trkpt lat="45.94838" lon="4.8586">
        <ele>278.399993896</ele>
        <time>2016-06-06T10:37:49.678Z</time>
      </trkpt>
      <trkpt lat="45.94836" lon="4.85853">
        <ele>278.5</ele>
        <time>2016-06-06T10:37:50.707Z</time>
      </trkpt>
      <trkpt lat="45.94835" lon="4.85846">
        <ele>278.5</ele>
        <time>2016-06-06T10:37:51.684Z</time>
      </trkpt>
      <trkpt lat="45.94833" lon="4.85839">
        <ele>278.799987793</ele>
        <time>2016-06-06T10:37:52.699Z</time>
      </trkpt>
      <trkpt lat="45.94831" lon="4.85832">
        <ele>278.700012207</ele>
        <time>2016-06-06T10:37:53.678Z</time>
      </trkpt>
      <trkpt lat="45.9483" lon="4.85825">
        <ele>278.700012207</ele>
        <time>2016-06-06T10:37:54.716Z</time>
      </trkpt>
      <trkpt lat="45.94828" lon="4.85818">
        <ele>278.899993896</ele>
        <time>2016-06-06T10:37:55.678Z</time>
      </trkpt>
      <trkpt lat="45.94826" lon="4.85811">
        <ele>279.100006104</ele>
        <time>2016-06-06T10:37:56.7Z</time>
      </trkpt>
      <trkpt lat="45.94823" lon="4.85804">
        <ele>279.600006104</ele>
        <time>2016-06-06T10:37:57.683Z</time>
      </trkpt>
      <trkpt lat="45.94821" lon="4.85797">
        <ele>279.799987793</ele>
        <time>2016-06-06T10:37:58.7Z</time>
      </trkpt>
      <trkpt lat="45.9482" lon="4.8579">
        <ele>280.100006104</ele>
        <time>2016-06-06T10:37:59.681Z</time>
      </trkpt>
      <trkpt lat="45.94818" lon="4.85783">
        <ele>280.200012207</ele>
        <time>2016-06-06T10:38:00.704Z</time>
      </trkpt>
      <trkpt lat="45.94816" lon="4.85776">
        <ele>280.399993896</ele>
        <time>2016-06-06T10:38:01.678Z</time>
      </trkpt>
      <trkpt lat="45.94815" lon="4.85769">
        <ele>281.100006104</ele>
        <time>2016-06-06T10:38:02.7Z</time>
      </trkpt>
      <trkpt lat="45.94813" lon="4.85763">
        <ele>281</ele>
        <time>2016-06-06T10:38:03.683Z</time>
      </trkpt>
      <trkpt lat="45.9481" lon="4.85756">
        <ele>281.299987793</ele>
        <time>2016-06-06T10:38:04.701Z</time>
      </trkpt>
      <trkpt lat="45.94808" lon="4.85749">
        <ele>281.5</ele>
        <time>2016-06-06T10:38:05.681Z</time>
      </trkpt>
      <trkpt lat="45.94806" lon="4.85742">
        <ele>281.700012207</ele>
        <time>2016-06-06T10:38:06.7Z</time>
      </trkpt>
      <trkpt lat="45.94805" lon="4.85736">
        <ele>282</ele>
        <time>2016-06-06T10:38:07.678Z</time>
      </trkpt>
      <trkpt lat="45.94803" lon="4.85728">
        <ele>282.399993896</ele>
        <time>2016-06-06T10:38:08.7Z</time>
      </trkpt>
      <trkpt lat="45.94802" lon="4.85721">
        <ele>282.799987793</ele>
        <time>2016-06-06T10:38:09.683Z</time>
      </trkpt>
      <trkpt lat="45.948" lon="4.85714">
        <ele>282.799987793</ele>
        <time>2016-06-06T10:38:10.7Z</time>
      </trkpt>
      <trkpt lat="45.94799" lon="4.85708">
        <ele>283.200012207</ele>
        <time>2016-06-06T10:38:11.684Z</time>
      </trkpt>
      <trkpt lat="45.94797" lon="4.85701">
        <ele>283.5</ele>
        <time>2016-06-06T10:38:12.839Z</time>
      </trkpt>
      <trkpt lat="45.94795" lon="4.85695">
        <ele>283.799987793</ele>
        <time>2016-06-06T10:38:13.68Z</time>
      </trkpt>
      <trkpt lat="45.94794" lon="4.85688">
        <ele>284.200012207</ele>
        <time>2016-06-06T10:38:14.703Z</time>
      </trkpt>
      <trkpt lat="45.94792" lon="4.85681">
        <ele>284.399993896</ele>
        <time>2016-06-06T10:38:15.683Z</time>
      </trkpt>
      <trkpt lat="45.9479" lon="4.85674">
        <ele>284.399993896</ele>
        <time>2016-06-06T10:38:16.7Z</time>
      </trkpt>
      <trkpt lat="45.94788" lon="4.85667">
        <ele>284.399993896</ele>
        <time>2016-06-06T10:38:17.682Z</time>
      </trkpt>
      <trkpt lat="45.94787" lon="4.85659">
        <ele>284.299987793</ele>
        <time>2016-06-06T10:38:18.704Z</time>
      </trkpt>
      <trkpt lat="45.94785" lon="4.85652">
        <ele>284.299987793</ele>
        <time>2016-06-06T10:38:19.68Z</time>
      </trkpt>
      <trkpt lat="45.94784" lon="4.85644">
        <ele>284.5</ele>
        <time>2016-06-06T10:38:20.714Z</time>
      </trkpt>
      <trkpt lat="45.94782" lon="4.85636">
        <ele>284.399993896</ele>
        <time>2016-06-06T10:38:21.684Z</time>
      </trkpt>
      <trkpt lat="45.9478" lon="4.85628">
        <ele>284.299987793</ele>
        <time>2016-06-06T10:38:22.7Z</time>
      </trkpt>
      <trkpt lat="45.94779" lon="4.85619">
        <ele>284.700012207</ele>
        <time>2016-06-06T10:38:23.682Z</time>
      </trkpt>
      <trkpt lat="45.94777" lon="4.85611">
        <ele>284.299987793</ele>
        <time>2016-06-06T10:38:24.736Z</time>
      </trkpt>
      <trkpt lat="45.94776" lon="4.85602">
        <ele>284</ele>
        <time>2016-06-06T10:38:25.68Z</time>
      </trkpt>
      <trkpt lat="45.94775" lon="4.85594">
        <ele>284.200012207</ele>
        <time>2016-06-06T10:38:26.705Z</time>
      </trkpt>
      <trkpt lat="45.94773" lon="4.85584">
        <ele>283.399993896</ele>
        <time>2016-06-06T10:38:27.684Z</time>
      </trkpt>
      <trkpt lat="45.9477" lon="4.85574">
        <ele>282.5</ele>
        <time>2016-06-06T10:38:28.716Z</time>
      </trkpt>
      <trkpt lat="45.94769" lon="4.85564">
        <ele>282.100006104</ele>
        <time>2016-06-06T10:38:29.682Z</time>
      </trkpt>
      <trkpt lat="45.94767" lon="4.85554">
        <ele>281.799987793</ele>
        <time>2016-06-06T10:38:30.7Z</time>
      </trkpt>
      <trkpt lat="45.94764" lon="4.85543">
        <ele>281.399993896</ele>
        <time>2016-06-06T10:38:31.682Z</time>
      </trkpt>
      <trkpt lat="45.94763" lon="4.85532">
        <ele>280.799987793</ele>
        <time>2016-06-06T10:38:32.7Z</time>
      </trkpt>
      <trkpt lat="45.94761" lon="4.8552">
        <ele>280.299987793</ele>
        <time>2016-06-06T10:38:33.683Z</time>
      </trkpt>
      <trkpt lat="45.94759" lon="4.85509">
        <ele>279.399993896</ele>
        <time>2016-06-06T10:38:34.7Z</time>
      </trkpt>
      <trkpt lat="45.94757" lon="4.85497">
        <ele>278.899993896</ele>
        <time>2016-06-06T10:38:35.706Z</time>
      </trkpt>
      <trkpt lat="45.94755" lon="4.85485">
        <ele>278.399993896</ele>
        <time>2016-06-06T10:38:36.707Z</time>
      </trkpt>
      <trkpt lat="45.94753" lon="4.85472">
        <ele>277.399993896</ele>
        <time>2016-06-06T10:38:37.678Z</time>
      </trkpt>
      <trkpt lat="45.94752" lon="4.8546">
        <ele>276.399993896</ele>
        <time>2016-06-06T10:38:38.706Z</time>
      </trkpt>
      <trkpt lat="45.9475" lon="4.85447">
        <ele>275.899993896</ele>
        <time>2016-06-06T10:38:39.683Z</time>
      </trkpt>
      <trkpt lat="45.9475" lon="4.85447">
        <ele>275.899993896</ele>
        <time>2016-06-06T10:38:39.705Z</time>
      </trkpt>
      <trkpt lat="45.94749" lon="4.85434">
        <ele>275.399993896</ele>
        <time>2016-06-06T10:38:40.678Z</time>
      </trkpt>
      <trkpt lat="45.94749" lon="4.85434">
        <ele>275.399993896</ele>
        <time>2016-06-06T10:38:40.701Z</time>
      </trkpt>
      <trkpt lat="45.94747" lon="4.85421">
        <ele>275.100006104</ele>
        <time>2016-06-06T10:38:41.679Z</time>
      </trkpt>
      <trkpt lat="45.94747" lon="4.85421">
        <ele>275.100006104</ele>
        <time>2016-06-06T10:38:41.702Z</time>
      </trkpt>
      <trkpt lat="45.94746" lon="4.85408">
        <ele>274.799987793</ele>
        <time>2016-06-06T10:38:42.682Z</time>
      </trkpt>
      <trkpt lat="45.94746" lon="4.85408">
        <ele>274.799987793</ele>
        <time>2016-06-06T10:38:42.705Z</time>
      </trkpt>
      <trkpt lat="45.94744" lon="4.85395">
        <ele>274.399993896</ele>
        <time>2016-06-06T10:38:43.678Z</time>
      </trkpt>
      <trkpt lat="45.94743" lon="4.85382">
        <ele>273.899993896</ele>
        <time>2016-06-06T10:38:44.7Z</time>
      </trkpt>
      <trkpt lat="45.94741" lon="4.8537">
        <ele>273.299987793</ele>
        <time>2016-06-06T10:38:45.683Z</time>
      </trkpt>
      <trkpt lat="45.94739" lon="4.85357">
        <ele>273</ele>
        <time>2016-06-06T10:38:46.7Z</time>
      </trkpt>
      <trkpt lat="45.94737" lon="4.85345">
        <ele>272.799987793</ele>
        <time>2016-06-06T10:38:47.681Z</time>
      </trkpt>
      <trkpt lat="45.94736" lon="4.85334">
        <ele>272.399993896</ele>
        <time>2016-06-06T10:38:48.756Z</time>
      </trkpt>
      <trkpt lat="45.94735" lon="4.85322">
        <ele>272</ele>
        <time>2016-06-06T10:38:49.687Z</time>
      </trkpt>
      <trkpt lat="45.94734" lon="4.85311">
        <ele>272</ele>
        <time>2016-06-06T10:38:50.7Z</time>
      </trkpt>
      <trkpt lat="45.94732" lon="4.85299">
        <ele>271.799987793</ele>
        <time>2016-06-06T10:38:51.705Z</time>
      </trkpt>
      <trkpt lat="45.94731" lon="4.85288">
        <ele>271.700012207</ele>
        <time>2016-06-06T10:38:52.703Z</time>
      </trkpt>
      <trkpt lat="45.94729" lon="4.85278">
        <ele>271.5</ele>
        <time>2016-06-06T10:38:53.679Z</time>
      </trkpt>
      <trkpt lat="45.94728" lon="4.85268">
        <ele>271.399993896</ele>
        <time>2016-06-06T10:38:54.703Z</time>
      </trkpt>
      <trkpt lat="45.94727" lon="4.85257">
        <ele>271.200012207</ele>
        <time>2016-06-06T10:38:55.684Z</time>
      </trkpt>
      <trkpt lat="45.94726" lon="4.85247">
        <ele>271.100006104</ele>
        <time>2016-06-06T10:38:56.7Z</time>
      </trkpt>
      <trkpt lat="45.94724" lon="4.85237">
        <ele>270.899993896</ele>
        <time>2016-06-06T10:38:57.683Z</time>
      </trkpt>
      <trkpt lat="45.94723" lon="4.85227">
        <ele>270.899993896</ele>
        <time>2016-06-06T10:38:58.703Z</time>
      </trkpt>
      <trkpt lat="45.94722" lon="4.85218">
        <ele>270.700012207</ele>
        <time>2016-06-06T10:38:59.679Z</time>
      </trkpt>
      <trkpt lat="45.94721" lon="4.85208">
        <ele>270.5</ele>
        <time>2016-06-06T10:39:00.704Z</time>
      </trkpt>
      <trkpt lat="45.9472" lon="4.85197">
        <ele>270.399993896</ele>
        <time>2016-06-06T10:39:01.681Z</time>
      </trkpt>
      <trkpt lat="45.94719" lon="4.85187">
        <ele>270.200012207</ele>
        <time>2016-06-06T10:39:02.704Z</time>
      </trkpt>
      <trkpt lat="45.94719" lon="4.85177">
        <ele>269.899993896</ele>
        <time>2016-06-06T10:39:03.683Z</time>
      </trkpt>
      <trkpt lat="45.94718" lon="4.85166">
        <ele>269.600006104</ele>
        <time>2016-06-06T10:39:04.703Z</time>
      </trkpt>
      <trkpt lat="45.94716" lon="4.85155">
        <ele>269.5</ele>
        <time>2016-06-06T10:39:05.68Z</time>
      </trkpt>
      <trkpt lat="45.94715" lon="4.85144">
        <ele>269.5</ele>
        <time>2016-06-06T10:39:06.7Z</time>
      </trkpt>
      <trkpt lat="45.94713" lon="4.85133">
        <ele>269.399993896</ele>
        <time>2016-06-06T10:39:07.707Z</time>
      </trkpt>
      <trkpt lat="45.94712" lon="4.85123">
        <ele>269.399993896</ele>
        <time>2016-06-06T10:39:08.7Z</time>
      </trkpt>
      <trkpt lat="45.94711" lon="4.85113">
        <ele>269.399993896</ele>
        <time>2016-06-06T10:39:09.683Z</time>
      </trkpt>
      <trkpt lat="45.9471" lon="4.85103">
        <ele>269.5</ele>
        <time>2016-06-06T10:39:10.713Z</time>
      </trkpt>
      <trkpt lat="45.94709" lon="4.85093">
        <ele>269.700012207</ele>
        <time>2016-06-06T10:39:11.681Z</time>
      </trkpt>
      <trkpt lat="45.94708" lon="4.85084">
        <ele>269.799987793</ele>
        <time>2016-06-06T10:39:12.722Z</time>
      </trkpt>
      <trkpt lat="45.94707" lon="4.85074">
        <ele>269.799987793</ele>
        <time>2016-06-06T10:39:13.678Z</time>
      </trkpt>
      <trkpt lat="45.94706" lon="4.85065">
        <ele>269.799987793</ele>
        <time>2016-06-06T10:39:14.707Z</time>
      </trkpt>
      <trkpt lat="45.94705" lon="4.85056">
        <ele>270.100006104</ele>
        <time>2016-06-06T10:39:15.683Z</time>
      </trkpt>
      <trkpt lat="45.94704" lon="4.85046">
        <ele>269.899993896</ele>
        <time>2016-06-06T10:39:16.734Z</time>
      </trkpt>
      <trkpt lat="45.94704" lon="4.85037">
        <ele>270.100006104</ele>
        <time>2016-06-06T10:39:17.679Z</time>
      </trkpt>
      <trkpt lat="45.94703" lon="4.85027">
        <ele>270.299987793</ele>
        <time>2016-06-06T10:39:18.7Z</time>
      </trkpt>
      <trkpt lat="45.94702" lon="4.85018">
        <ele>270.200012207</ele>
        <time>2016-06-06T10:39:19.684Z</time>
      </trkpt>
      <trkpt lat="45.94701" lon="4.85008">
        <ele>270.299987793</ele>
        <time>2016-06-06T10:39:20.7Z</time>
      </trkpt>
      <trkpt lat="45.947" lon="4.84998">
        <ele>270.299987793</ele>
        <time>2016-06-06T10:39:21.683Z</time>
      </trkpt>
      <trkpt lat="45.94698" lon="4.84988">
        <ele>270.100006104</ele>
        <time>2016-06-06T10:39:22.806Z</time>
      </trkpt>
      <trkpt lat="45.94697" lon="4.84977">
        <ele>270.100006104</ele>
        <time>2016-06-06T10:39:23.679Z</time>
      </trkpt>
      <trkpt lat="45.94696" lon="4.84967">
        <ele>270</ele>
        <time>2016-06-06T10:39:24.699Z</time>
      </trkpt>
      <trkpt lat="45.94695" lon="4.84957">
        <ele>269.899993896</ele>
        <time>2016-06-06T10:39:25.678Z</time>
      </trkpt>
      <trkpt lat="45.94694" lon="4.84946">
        <ele>269.799987793</ele>
        <time>2016-06-06T10:39:26.7Z</time>
      </trkpt>
      <trkpt lat="45.94692" lon="4.84936">
        <ele>269.799987793</ele>
        <time>2016-06-06T10:39:27.729Z</time>
      </trkpt>
      <trkpt lat="45.94692" lon="4.84926">
        <ele>269.899993896</ele>
        <time>2016-06-06T10:39:28.7Z</time>
      </trkpt>
      <trkpt lat="45.94691" lon="4.84916">
        <ele>270.100006104</ele>
        <time>2016-06-06T10:39:29.682Z</time>
      </trkpt>
      <trkpt lat="45.9469" lon="4.84906">
        <ele>269.799987793</ele>
        <time>2016-06-06T10:39:30.7Z</time>
      </trkpt>
      <trkpt lat="45.94689" lon="4.84897">
        <ele>269.799987793</ele>
        <time>2016-06-06T10:39:31.678Z</time>
      </trkpt>
      <trkpt lat="45.94688" lon="4.84888">
        <ele>269.700012207</ele>
        <time>2016-06-06T10:39:32.712Z</time>
      </trkpt>
      <trkpt lat="45.94687" lon="4.84879">
        <ele>269.899993896</ele>
        <time>2016-06-06T10:39:33.69Z</time>
      </trkpt>
      <trkpt lat="45.94686" lon="4.84871">
        <ele>270</ele>
        <time>2016-06-06T10:39:34.841Z</time>
      </trkpt>
      <trkpt lat="45.94685" lon="4.84862">
        <ele>270</ele>
        <time>2016-06-06T10:39:35.681Z</time>
      </trkpt>
      <trkpt lat="45.94684" lon="4.84854">
        <ele>270.100006104</ele>
        <time>2016-06-06T10:39:36.7Z</time>
      </trkpt>
      <trkpt lat="45.94683" lon="4.84845">
        <ele>270</ele>
        <time>2016-06-06T10:39:37.678Z</time>
      </trkpt>
      <trkpt lat="45.94682" lon="4.84836">
        <ele>270</ele>
        <time>2016-06-06T10:39:38.716Z</time>
      </trkpt>
      <trkpt lat="45.94681" lon="4.84827">
        <ele>270</ele>
        <time>2016-06-06T10:39:39.683Z</time>
      </trkpt>
      <trkpt lat="45.94681" lon="4.84818">
        <ele>270</ele>
        <time>2016-06-06T10:39:40.706Z</time>
      </trkpt>
      <trkpt lat="45.9468" lon="4.84808">
        <ele>270.200012207</ele>
        <time>2016-06-06T10:39:41.679Z</time>
      </trkpt>
      <trkpt lat="45.94679" lon="4.84798">
        <ele>270.200012207</ele>
        <time>2016-06-06T10:39:42.7Z</time>
      </trkpt>
      <trkpt lat="45.94678" lon="4.84789">
        <ele>270.200012207</ele>
        <time>2016-06-06T10:39:43.678Z</time>
      </trkpt>
      <trkpt lat="45.94678" lon="4.8478">
        <ele>270.200012207</ele>
        <time>2016-06-06T10:39:44.7Z</time>
      </trkpt>
      <trkpt lat="45.94677" lon="4.84771">
        <ele>270.100006104</ele>
        <time>2016-06-06T10:39:45.683Z</time>
      </trkpt>
      <trkpt lat="45.94677" lon="4.84762">
        <ele>270.200012207</ele>
        <time>2016-06-06T10:39:46.7Z</time>
      </trkpt>
      <trkpt lat="45.94676" lon="4.84753">
        <ele>270.100006104</ele>
        <time>2016-06-06T10:39:47.681Z</time>
      </trkpt>
      <trkpt lat="45.94675" lon="4.84745">
        <ele>270.100006104</ele>
        <time>2016-06-06T10:39:48.7Z</time>
      </trkpt>
      <trkpt lat="45.94674" lon="4.84736">
        <ele>270.200012207</ele>
        <time>2016-06-06T10:39:49.678Z</time>
      </trkpt>
      <trkpt lat="45.94674" lon="4.84727">
        <ele>270</ele>
        <time>2016-06-06T10:39:50.704Z</time>
      </trkpt>
      <trkpt lat="45.94674" lon="4.84719">
        <ele>270</ele>
        <time>2016-06-06T10:39:51.684Z</time>
      </trkpt>
      <trkpt lat="45.94673" lon="4.8471">
        <ele>270</ele>
        <time>2016-06-06T10:39:52.724Z</time>
      </trkpt>
      <trkpt lat="45.94673" lon="4.84701">
        <ele>269.899993896</ele>
        <time>2016-06-06T10:39:53.681Z</time>
      </trkpt>
      <trkpt lat="45.94673" lon="4.84692">
        <ele>269.799987793</ele>
        <time>2016-06-06T10:39:54.73Z</time>
      </trkpt>
      <trkpt lat="45.94673" lon="4.84683">
        <ele>269.799987793</ele>
        <time>2016-06-06T10:39:55.727Z</time>
      </trkpt>
      <trkpt lat="45.94673" lon="4.84673">
        <ele>269.799987793</ele>
        <time>2016-06-06T10:39:56.701Z</time>
      </trkpt>
      <trkpt lat="45.94672" lon="4.84663">
        <ele>269.700012207</ele>
        <time>2016-06-06T10:39:57.683Z</time>
      </trkpt>
      <trkpt lat="45.94672" lon="4.84653">
        <ele>269.799987793</ele>
        <time>2016-06-06T10:39:58.7Z</time>
      </trkpt>
      <trkpt lat="45.94671" lon="4.84643">
        <ele>269.700012207</ele>
        <time>2016-06-06T10:39:59.679Z</time>
      </trkpt>
      <trkpt lat="45.94671" lon="4.84634">
        <ele>269.899993896</ele>
        <time>2016-06-06T10:40:00.704Z</time>
      </trkpt>
      <trkpt lat="45.94671" lon="4.84625">
        <ele>270</ele>
        <time>2016-06-06T10:40:01.678Z</time>
      </trkpt>
      <trkpt lat="45.94671" lon="4.84616">
        <ele>269.899993896</ele>
        <time>2016-06-06T10:40:02.7Z</time>
      </trkpt>
      <trkpt lat="45.9467" lon="4.84607">
        <ele>269.899993896</ele>
        <time>2016-06-06T10:40:03.683Z</time>
      </trkpt>
      <trkpt lat="45.9467" lon="4.84598">
        <ele>269.899993896</ele>
        <time>2016-06-06T10:40:04.7Z</time>
      </trkpt>
      <trkpt lat="45.9467" lon="4.8459">
        <ele>270</ele>
        <time>2016-06-06T10:40:05.679Z</time>
      </trkpt>
      <trkpt lat="45.9467" lon="4.84581">
        <ele>270.100006104</ele>
        <time>2016-06-06T10:40:06.887Z</time>
      </trkpt>
      <trkpt lat="45.94669" lon="4.84573">
        <ele>270.200012207</ele>
        <time>2016-06-06T10:40:07.68Z</time>
      </trkpt>
      <trkpt lat="45.94668" lon="4.84564">
        <ele>270.200012207</ele>
        <time>2016-06-06T10:40:08.7Z</time>
      </trkpt>
      <trkpt lat="45.94668" lon="4.84555">
        <ele>270.100006104</ele>
        <time>2016-06-06T10:40:09.683Z</time>
      </trkpt>
      <trkpt lat="45.94667" lon="4.84546">
        <ele>270.200012207</ele>
        <time>2016-06-06T10:40:10.714Z</time>
      </trkpt>
      <trkpt lat="45.94666" lon="4.84536">
        <ele>270.299987793</ele>
        <time>2016-06-06T10:40:11.68Z</time>
      </trkpt>
      <trkpt lat="45.94665" lon="4.84526">
        <ele>270.5</ele>
        <time>2016-06-06T10:40:12.703Z</time>
      </trkpt>
      <trkpt lat="45.94664" lon="4.84517">
        <ele>270.5</ele>
        <time>2016-06-06T10:40:13.678Z</time>
      </trkpt>
      <trkpt lat="45.94664" lon="4.84507">
        <ele>270.600006104</ele>
        <time>2016-06-06T10:40:14.7Z</time>
      </trkpt>
      <trkpt lat="45.94663" lon="4.84498">
        <ele>270.600006104</ele>
        <time>2016-06-06T10:40:15.683Z</time>
      </trkpt>
      <trkpt lat="45.94662" lon="4.84489">
        <ele>270.600006104</ele>
        <time>2016-06-06T10:40:16.7Z</time>
      </trkpt>
      <trkpt lat="45.94661" lon="4.84481">
        <ele>270.5</ele>
        <time>2016-06-06T10:40:17.681Z</time>
      </trkpt>
      <trkpt lat="45.94661" lon="4.84472">
        <ele>270.5</ele>
        <time>2016-06-06T10:40:18.7Z</time>
      </trkpt>
      <trkpt lat="45.9466" lon="4.84464">
        <ele>270.5</ele>
        <time>2016-06-06T10:40:19.679Z</time>
      </trkpt>
      <trkpt lat="45.94659" lon="4.84456">
        <ele>270.5</ele>
        <time>2016-06-06T10:40:20.7Z</time>
      </trkpt>
      <trkpt lat="45.94658" lon="4.84448">
        <ele>270.600006104</ele>
        <time>2016-06-06T10:40:21.683Z</time>
      </trkpt>
      <trkpt lat="45.94657" lon="4.8444">
        <ele>270.600006104</ele>
        <time>2016-06-06T10:40:22.7Z</time>
      </trkpt>
      <trkpt lat="45.94656" lon="4.84432">
        <ele>270.600006104</ele>
        <time>2016-06-06T10:40:23.678Z</time>
      </trkpt>
      <trkpt lat="45.94656" lon="4.84424">
        <ele>270.600006104</ele>
        <time>2016-06-06T10:40:24.726Z</time>
      </trkpt>
      <trkpt lat="45.94655" lon="4.84415">
        <ele>270.600006104</ele>
        <time>2016-06-06T10:40:25.678Z</time>
      </trkpt>
      <trkpt lat="45.94654" lon="4.84407">
        <ele>270.600006104</ele>
        <time>2016-06-06T10:40:26.705Z</time>
      </trkpt>
      <trkpt lat="45.94652" lon="4.84398">
        <ele>270.5</ele>
        <time>2016-06-06T10:40:27.683Z</time>
      </trkpt>
      <trkpt lat="45.94651" lon="4.84389">
        <ele>270.5</ele>
        <time>2016-06-06T10:40:28.835Z</time>
      </trkpt>
      <trkpt lat="45.94649" lon="4.8438">
        <ele>270.399993896</ele>
        <time>2016-06-06T10:40:29.682Z</time>
      </trkpt>
      <trkpt lat="45.94648" lon="4.8437">
        <ele>270.5</ele>
        <time>2016-06-06T10:40:30.7Z</time>
      </trkpt>
      <trkpt lat="45.94647" lon="4.8436">
        <ele>270.5</ele>
        <time>2016-06-06T10:40:31.726Z</time>
      </trkpt>
      <trkpt lat="45.94646" lon="4.84351">
        <ele>270.5</ele>
        <time>2016-06-06T10:40:32.706Z</time>
      </trkpt>
      <trkpt lat="45.94645" lon="4.84341">
        <ele>270.600006104</ele>
        <time>2016-06-06T10:40:33.684Z</time>
      </trkpt>
      <trkpt lat="45.94644" lon="4.84332">
        <ele>270.5</ele>
        <time>2016-06-06T10:40:34.703Z</time>
      </trkpt>
      <trkpt lat="45.94643" lon="4.84323">
        <ele>270.600006104</ele>
        <time>2016-06-06T10:40:35.678Z</time>
      </trkpt>
      <trkpt lat="45.94642" lon="4.84314">
        <ele>270.5</ele>
        <time>2016-06-06T10:40:36.7Z</time>
      </trkpt>
      <trkpt lat="45.94641" lon="4.84305">
        <ele>270.600006104</ele>
        <time>2016-06-06T10:40:37.678Z</time>
      </trkpt>
      <trkpt lat="45.9464" lon="4.84296">
        <ele>270.600006104</ele>
        <time>2016-06-06T10:40:38.7Z</time>
      </trkpt>
      <trkpt lat="45.94638" lon="4.84287">
        <ele>270.5</ele>
        <time>2016-06-06T10:40:39.683Z</time>
      </trkpt>
      <trkpt lat="45.94637" lon="4.84277">
        <ele>270.399993896</ele>
        <time>2016-06-06T10:40:40.703Z</time>
      </trkpt>
      <trkpt lat="45.94636" lon="4.84268">
        <ele>270.5</ele>
        <time>2016-06-06T10:40:41.681Z</time>
      </trkpt>
      <trkpt lat="45.94635" lon="4.84259">
        <ele>270.399993896</ele>
        <time>2016-06-06T10:40:42.7Z</time>
      </trkpt>
      <trkpt lat="45.94633" lon="4.84249">
        <ele>270.299987793</ele>
        <time>2016-06-06T10:40:43.678Z</time>
      </trkpt>
      <trkpt lat="45.94632" lon="4.8424">
        <ele>270.5</ele>
        <time>2016-06-06T10:40:44.7Z</time>
      </trkpt>
      <trkpt lat="45.9463" lon="4.84231">
        <ele>270.5</ele>
        <time>2016-06-06T10:40:45.683Z</time>
      </trkpt>
      <trkpt lat="45.94629" lon="4.84222">
        <ele>270.299987793</ele>
        <time>2016-06-06T10:40:46.7Z</time>
      </trkpt>
      <trkpt lat="45.94627" lon="4.84213">
        <ele>270.200012207</ele>
        <time>2016-06-06T10:40:47.681Z</time>
      </trkpt>
      <trkpt lat="45.94626" lon="4.84204">
        <ele>270.200012207</ele>
        <time>2016-06-06T10:40:48.7Z</time>
      </trkpt>
      <trkpt lat="45.94625" lon="4.84195">
        <ele>269.600006104</ele>
        <time>2016-06-06T10:40:49.682Z</time>
      </trkpt>
      <trkpt lat="45.94623" lon="4.84186">
        <ele>269.299987793</ele>
        <time>2016-06-06T10:40:50.703Z</time>
      </trkpt>
      <trkpt lat="45.94622" lon="4.84178">
        <ele>269.799987793</ele>
        <time>2016-06-06T10:40:51.684Z</time>
      </trkpt>
      <trkpt lat="45.94621" lon="4.84169">
        <ele>269.600006104</ele>
        <time>2016-06-06T10:40:52.784Z</time>
      </trkpt>
      <trkpt lat="45.94619" lon="4.8416">
        <ele>269.600006104</ele>
        <time>2016-06-06T10:40:53.678Z</time>
      </trkpt>
      <trkpt lat="45.94618" lon="4.84151">
        <ele>269.5</ele>
        <time>2016-06-06T10:40:54.7Z</time>
      </trkpt>
      <trkpt lat="45.94616" lon="4.84142">
        <ele>269.700012207</ele>
        <time>2016-06-06T10:40:55.678Z</time>
      </trkpt>
      <trkpt lat="45.94615" lon="4.84132">
        <ele>269.5</ele>
        <time>2016-06-06T10:40:56.7Z</time>
      </trkpt>
      <trkpt lat="45.94613" lon="4.84123">
        <ele>269.5</ele>
        <time>2016-06-06T10:40:57.683Z</time>
      </trkpt>
      <trkpt lat="45.94611" lon="4.84113">
        <ele>269.600006104</ele>
        <time>2016-06-06T10:40:58.703Z</time>
      </trkpt>
      <trkpt lat="45.9461" lon="4.84103">
        <ele>269.700012207</ele>
        <time>2016-06-06T10:40:59.679Z</time>
      </trkpt>
      <trkpt lat="45.94608" lon="4.84094">
        <ele>269.600006104</ele>
        <time>2016-06-06T10:41:00.7Z</time>
      </trkpt>
      <trkpt lat="45.94607" lon="4.84084">
        <ele>269.799987793</ele>
        <time>2016-06-06T10:41:01.678Z</time>
      </trkpt>
      <trkpt lat="45.94605" lon="4.84073">
        <ele>269.899993896</ele>
        <time>2016-06-06T10:41:02.716Z</time>
      </trkpt>
      <trkpt lat="45.94604" lon="4.84064">
        <ele>269.899993896</ele>
        <time>2016-06-06T10:41:03.685Z</time>
      </trkpt>
      <trkpt lat="45.94602" lon="4.84054">
        <ele>269.799987793</ele>
        <time>2016-06-06T10:41:04.701Z</time>
      </trkpt>
      <trkpt lat="45.94601" lon="4.84044">
        <ele>269.899993896</ele>
        <time>2016-06-06T10:41:05.685Z</time>
      </trkpt>
      <trkpt lat="45.94599" lon="4.84035">
        <ele>269.899993896</ele>
        <time>2016-06-06T10:41:06.701Z</time>
      </trkpt>
      <trkpt lat="45.94598" lon="4.84025">
        <ele>269.899993896</ele>
        <time>2016-06-06T10:41:07.681Z</time>
      </trkpt>
      <trkpt lat="45.94597" lon="4.84016">
        <ele>270</ele>
        <time>2016-06-06T10:41:08.715Z</time>
      </trkpt>
      <trkpt lat="45.94596" lon="4.84008">
        <ele>270.100006104</ele>
        <time>2016-06-06T10:41:09.682Z</time>
      </trkpt>
      <trkpt lat="45.94595" lon="4.83999">
        <ele>270.100006104</ele>
        <time>2016-06-06T10:41:10.729Z</time>
      </trkpt>
      <trkpt lat="45.94593" lon="4.83991">
        <ele>270.100006104</ele>
        <time>2016-06-06T10:41:11.682Z</time>
      </trkpt>
      <trkpt lat="45.94592" lon="4.83982">
        <ele>270.100006104</ele>
        <time>2016-06-06T10:41:12.839Z</time>
      </trkpt>
      <trkpt lat="45.94591" lon="4.83973">
        <ele>270</ele>
        <time>2016-06-06T10:41:13.678Z</time>
      </trkpt>
      <trkpt lat="45.94589" lon="4.83963">
        <ele>269.899993896</ele>
        <time>2016-06-06T10:41:14.703Z</time>
      </trkpt>
      <trkpt lat="45.94588" lon="4.83953">
        <ele>269.799987793</ele>
        <time>2016-06-06T10:41:15.683Z</time>
      </trkpt>
      <trkpt lat="45.94586" lon="4.83943">
        <ele>269.600006104</ele>
        <time>2016-06-06T10:41:16.7Z</time>
      </trkpt>
      <trkpt lat="45.94585" lon="4.83933">
        <ele>269.5</ele>
        <time>2016-06-06T10:41:17.68Z</time>
      </trkpt>
      <trkpt lat="45.94584" lon="4.83922">
        <ele>269.299987793</ele>
        <time>2016-06-06T10:41:18.7Z</time>
      </trkpt>
      <trkpt lat="45.94582" lon="4.83911">
        <ele>269</ele>
        <time>2016-06-06T10:41:19.678Z</time>
      </trkpt>
      <trkpt lat="45.9458" lon="4.83901">
        <ele>268.799987793</ele>
        <time>2016-06-06T10:41:20.703Z</time>
      </trkpt>
      <trkpt lat="45.94578" lon="4.8389">
        <ele>268.299987793</ele>
        <time>2016-06-06T10:41:21.68Z</time>
      </trkpt>
      <trkpt lat="45.94576" lon="4.83878">
        <ele>267.899993896</ele>
        <time>2016-06-06T10:41:22.772Z</time>
      </trkpt>
      <trkpt lat="45.94575" lon="4.83867">
        <ele>267.600006104</ele>
        <time>2016-06-06T10:41:23.708Z</time>
      </trkpt>
      <trkpt lat="45.94573" lon="4.83855">
        <ele>267.200012207</ele>
        <time>2016-06-06T10:41:24.703Z</time>
      </trkpt>
      <trkpt lat="45.94571" lon="4.83843">
        <ele>267.100006104</ele>
        <time>2016-06-06T10:41:25.679Z</time>
      </trkpt>
      <trkpt lat="45.94569" lon="4.83831">
        <ele>266.799987793</ele>
        <time>2016-06-06T10:41:26.703Z</time>
      </trkpt>
      <trkpt lat="45.94568" lon="4.83819">
        <ele>266.700012207</ele>
        <time>2016-06-06T10:41:27.683Z</time>
      </trkpt>
      <trkpt lat="45.94566" lon="4.83806">
        <ele>266.5</ele>
        <time>2016-06-06T10:41:28.703Z</time>
      </trkpt>
      <trkpt lat="45.94564" lon="4.83794">
        <ele>266.200012207</ele>
        <time>2016-06-06T10:41:29.679Z</time>
      </trkpt>
      <trkpt lat="45.94562" lon="4.83781">
        <ele>265.799987793</ele>
        <time>2016-06-06T10:41:30.7Z</time>
      </trkpt>
      <trkpt lat="45.9456" lon="4.8377">
        <ele>265.5</ele>
        <time>2016-06-06T10:41:31.678Z</time>
      </trkpt>
      <trkpt lat="45.94558" lon="4.83758">
        <ele>265.299987793</ele>
        <time>2016-06-06T10:41:32.699Z</time>
      </trkpt>
      <trkpt lat="45.94556" lon="4.83746">
        <ele>265.5</ele>
        <time>2016-06-06T10:41:33.683Z</time>
      </trkpt>
      <trkpt lat="45.94554" lon="4.83734">
        <ele>265.5</ele>
        <time>2016-06-06T10:41:34.719Z</time>
      </trkpt>
      <trkpt lat="45.94552" lon="4.83723">
        <ele>265.399993896</ele>
        <time>2016-06-06T10:41:35.795Z</time>
      </trkpt>
      <trkpt lat="45.94551" lon="4.83711">
        <ele>265.399993896</ele>
        <time>2016-06-06T10:41:36.703Z</time>
      </trkpt>
      <trkpt lat="45.94549" lon="4.837">
        <ele>265.399993896</ele>
        <time>2016-06-06T10:41:37.678Z</time>
      </trkpt>
      <trkpt lat="45.94547" lon="4.83689">
        <ele>265.299987793</ele>
        <time>2016-06-06T10:41:38.725Z</time>
      </trkpt>
      <trkpt lat="45.94545" lon="4.83678">
        <ele>265</ele>
        <time>2016-06-06T10:41:39.683Z</time>
      </trkpt>
      <trkpt lat="45.94543" lon="4.83667">
        <ele>265.100006104</ele>
        <time>2016-06-06T10:41:40.707Z</time>
      </trkpt>
      <trkpt lat="45.94541" lon="4.83656">
        <ele>265.100006104</ele>
        <time>2016-06-06T10:41:41.679Z</time>
      </trkpt>
      <trkpt lat="45.94539" lon="4.83646">
        <ele>265.399993896</ele>
        <time>2016-06-06T10:41:42.699Z</time>
      </trkpt>
      <trkpt lat="45.94538" lon="4.83635">
        <ele>265.5</ele>
        <time>2016-06-06T10:41:43.681Z</time>
      </trkpt>
      <trkpt lat="45.94536" lon="4.83624">
        <ele>265.600006104</ele>
        <time>2016-06-06T10:41:44.7Z</time>
      </trkpt>
      <trkpt lat="45.94534" lon="4.83614">
        <ele>265.899993896</ele>
        <time>2016-06-06T10:41:45.683Z</time>
      </trkpt>
      <trkpt lat="45.94532" lon="4.83604">
        <ele>266</ele>
        <time>2016-06-06T10:41:46.7Z</time>
      </trkpt>
      <trkpt lat="45.9453" lon="4.83593">
        <ele>265.799987793</ele>
        <time>2016-06-06T10:41:47.68Z</time>
      </trkpt>
      <trkpt lat="45.94528" lon="4.83584">
        <ele>265.899993896</ele>
        <time>2016-06-06T10:41:48.7Z</time>
      </trkpt>
      <trkpt lat="45.94524" lon="4.83574">
        <ele>265.100006104</ele>
        <time>2016-06-06T10:41:49.708Z</time>
      </trkpt>
      <trkpt lat="45.94521" lon="4.83564">
        <ele>265.399993896</ele>
        <time>2016-06-06T10:41:50.718Z</time>
      </trkpt>
      <trkpt lat="45.94517" lon="4.83556">
        <ele>265.799987793</ele>
        <time>2016-06-06T10:41:51.685Z</time>
      </trkpt>
      <trkpt lat="45.94513" lon="4.83547">
        <ele>266</ele>
        <time>2016-06-06T10:41:52.699Z</time>
      </trkpt>
      <trkpt lat="45.94508" lon="4.83539">
        <ele>266.299987793</ele>
        <time>2016-06-06T10:41:53.678Z</time>
      </trkpt>
      <trkpt lat="45.94503" lon="4.8353">
        <ele>266.399993896</ele>
        <time>2016-06-06T10:41:54.7Z</time>
      </trkpt>
      <trkpt lat="45.94498" lon="4.83522">
        <ele>266.399993896</ele>
        <time>2016-06-06T10:41:55.678Z</time>
      </trkpt>
      <trkpt lat="45.94493" lon="4.83513">
        <ele>266.299987793</ele>
        <time>2016-06-06T10:41:56.7Z</time>
      </trkpt>
      <trkpt lat="45.94488" lon="4.83505">
        <ele>266.399993896</ele>
        <time>2016-06-06T10:41:57.681Z</time>
      </trkpt>
      <trkpt lat="45.94484" lon="4.83498">
        <ele>266.600006104</ele>
        <time>2016-06-06T10:41:58.699Z</time>
      </trkpt>
      <trkpt lat="45.94479" lon="4.8349">
        <ele>266.399993896</ele>
        <time>2016-06-06T10:41:59.681Z</time>
      </trkpt>
      <trkpt lat="45.94475" lon="4.83483">
        <ele>266.700012207</ele>
        <time>2016-06-06T10:42:00.7Z</time>
      </trkpt>
      <trkpt lat="45.9447" lon="4.83476">
        <ele>266.700012207</ele>
        <time>2016-06-06T10:42:01.681Z</time>
      </trkpt>
      <trkpt lat="45.94466" lon="4.83469">
        <ele>267.100006104</ele>
        <time>2016-06-06T10:42:02.703Z</time>
      </trkpt>
      <trkpt lat="45.94462" lon="4.83462">
        <ele>267.200012207</ele>
        <time>2016-06-06T10:42:03.68Z</time>
      </trkpt>
      <trkpt lat="45.94459" lon="4.83454">
        <ele>267.399993896</ele>
        <time>2016-06-06T10:42:04.699Z</time>
      </trkpt>
      <trkpt lat="45.94455" lon="4.83447">
        <ele>267.600006104</ele>
        <time>2016-06-06T10:42:05.68Z</time>
      </trkpt>
      <trkpt lat="45.94451" lon="4.83439">
        <ele>267.700012207</ele>
        <time>2016-06-06T10:42:06.703Z</time>
      </trkpt>
      <trkpt lat="45.94447" lon="4.83432">
        <ele>267.700012207</ele>
        <time>2016-06-06T10:42:07.678Z</time>
      </trkpt>
      <trkpt lat="45.94444" lon="4.83426">
        <ele>267.600006104</ele>
        <time>2016-06-06T10:42:08.763Z</time>
      </trkpt>
      <trkpt lat="45.94441" lon="4.83419">
        <ele>267.799987793</ele>
        <time>2016-06-06T10:42:09.683Z</time>
      </trkpt>
      <trkpt lat="45.94437" lon="4.83412">
        <ele>267.899993896</ele>
        <time>2016-06-06T10:42:10.703Z</time>
      </trkpt>
      <trkpt lat="45.94434" lon="4.83405">
        <ele>268.100006104</ele>
        <time>2016-06-06T10:42:11.678Z</time>
      </trkpt>
      <trkpt lat="45.9443" lon="4.83398">
        <ele>268.299987793</ele>
        <time>2016-06-06T10:42:12.776Z</time>
      </trkpt>
      <trkpt lat="45.94427" lon="4.83391">
        <ele>268.5</ele>
        <time>2016-06-06T10:42:13.678Z</time>
      </trkpt>
      <trkpt lat="45.94423" lon="4.83383">
        <ele>268.600006104</ele>
        <time>2016-06-06T10:42:14.703Z</time>
      </trkpt>
      <trkpt lat="45.9442" lon="4.83376">
        <ele>268.399993896</ele>
        <time>2016-06-06T10:42:15.683Z</time>
      </trkpt>
      <trkpt lat="45.94416" lon="4.83368">
        <ele>268.299987793</ele>
        <time>2016-06-06T10:42:16.706Z</time>
      </trkpt>
      <trkpt lat="45.94413" lon="4.8336">
        <ele>268.399993896</ele>
        <time>2016-06-06T10:42:17.683Z</time>
      </trkpt>
      <trkpt lat="45.9441" lon="4.83351">
        <ele>268.5</ele>
        <time>2016-06-06T10:42:18.84Z</time>
      </trkpt>
      <trkpt lat="45.94406" lon="4.83343">
        <ele>268.200012207</ele>
        <time>2016-06-06T10:42:19.678Z</time>
      </trkpt>
      <trkpt lat="45.94403" lon="4.83335">
        <ele>267.899993896</ele>
        <time>2016-06-06T10:42:20.7Z</time>
      </trkpt>
      <trkpt lat="45.944" lon="4.83327">
        <ele>267.600006104</ele>
        <time>2016-06-06T10:42:21.697Z</time>
      </trkpt>
      <trkpt lat="45.94398" lon="4.83319">
        <ele>267.700012207</ele>
        <time>2016-06-06T10:42:22.703Z</time>
      </trkpt>
      <trkpt lat="45.94395" lon="4.83311">
        <ele>267.600006104</ele>
        <time>2016-06-06T10:42:23.678Z</time>
      </trkpt>
      <trkpt lat="45.94393" lon="4.83304">
        <ele>267.600006104</ele>
        <time>2016-06-06T10:42:24.725Z</time>
      </trkpt>
      <trkpt lat="45.9439" lon="4.83296">
        <ele>267.799987793</ele>
        <time>2016-06-06T10:42:25.678Z</time>
      </trkpt>
      <trkpt lat="45.94387" lon="4.83288">
        <ele>268</ele>
        <time>2016-06-06T10:42:26.7Z</time>
      </trkpt>
      <trkpt lat="45.94384" lon="4.8328">
        <ele>268.299987793</ele>
        <time>2016-06-06T10:42:27.682Z</time>
      </trkpt>
      <trkpt lat="45.94381" lon="4.83272">
        <ele>268.100006104</ele>
        <time>2016-06-06T10:42:28.699Z</time>
      </trkpt>
      <trkpt lat="45.94377" lon="4.83263">
        <ele>268</ele>
        <time>2016-06-06T10:42:29.678Z</time>
      </trkpt>
      <trkpt lat="45.94375" lon="4.83256">
        <ele>268.200012207</ele>
        <time>2016-06-06T10:42:30.699Z</time>
      </trkpt>
      <trkpt lat="45.94372" lon="4.83248">
        <ele>268.200012207</ele>
        <time>2016-06-06T10:42:31.678Z</time>
      </trkpt>
      <trkpt lat="45.9437" lon="4.83241">
        <ele>268.100006104</ele>
        <time>2016-06-06T10:42:32.699Z</time>
      </trkpt>
      <trkpt lat="45.94368" lon="4.83234">
        <ele>268</ele>
        <time>2016-06-06T10:42:33.683Z</time>
      </trkpt>
      <trkpt lat="45.94365" lon="4.83228">
        <ele>267.600006104</ele>
        <time>2016-06-06T10:42:34.703Z</time>
      </trkpt>
      <trkpt lat="45.94362" lon="4.83221">
        <ele>267.600006104</ele>
        <time>2016-06-06T10:42:35.678Z</time>
      </trkpt>
      <trkpt lat="45.9436" lon="4.83214">
        <ele>267.600006104</ele>
        <time>2016-06-06T10:42:36.699Z</time>
      </trkpt>
      <trkpt lat="45.94357" lon="4.83207">
        <ele>267.5</ele>
        <time>2016-06-06T10:42:37.681Z</time>
      </trkpt>
      <trkpt lat="45.94355" lon="4.83199">
        <ele>267.299987793</ele>
        <time>2016-06-06T10:42:38.699Z</time>
      </trkpt>
      <trkpt lat="45.94352" lon="4.83192">
        <ele>267.200012207</ele>
        <time>2016-06-06T10:42:39.682Z</time>
      </trkpt>
      <trkpt lat="45.9435" lon="4.83186">
        <ele>267.100006104</ele>
        <time>2016-06-06T10:42:40.856Z</time>
      </trkpt>
      <trkpt lat="45.94347" lon="4.83178">
        <ele>267.299987793</ele>
        <time>2016-06-06T10:42:41.68Z</time>
      </trkpt>
      <trkpt lat="45.94344" lon="4.83171">
        <ele>267.5</ele>
        <time>2016-06-06T10:42:42.717Z</time>
      </trkpt>
      <trkpt lat="45.94341" lon="4.83163">
        <ele>267.600006104</ele>
        <time>2016-06-06T10:42:43.679Z</time>
      </trkpt>
      <trkpt lat="45.94339" lon="4.83156">
        <ele>268</ele>
        <time>2016-06-06T10:42:44.733Z</time>
      </trkpt>
      <trkpt lat="45.94336" lon="4.83149">
        <ele>268</ele>
        <time>2016-06-06T10:42:45.682Z</time>
      </trkpt>
      <trkpt lat="45.94334" lon="4.83142">
        <ele>268.100006104</ele>
        <time>2016-06-06T10:42:46.7Z</time>
      </trkpt>
      <trkpt lat="45.94331" lon="4.83135">
        <ele>268</ele>
        <time>2016-06-06T10:42:47.726Z</time>
      </trkpt>
      <trkpt lat="45.94329" lon="4.83128">
        <ele>267.899993896</ele>
        <time>2016-06-06T10:42:48.7Z</time>
      </trkpt>
      <trkpt lat="45.94327" lon="4.83121">
        <ele>268</ele>
        <time>2016-06-06T10:42:49.678Z</time>
      </trkpt>
      <trkpt lat="45.94324" lon="4.83114">
        <ele>268</ele>
        <time>2016-06-06T10:42:50.699Z</time>
      </trkpt>
      <trkpt lat="45.94323" lon="4.83108">
        <ele>268</ele>
        <time>2016-06-06T10:42:51.684Z</time>
      </trkpt>
      <trkpt lat="45.94321" lon="4.83101">
        <ele>268.100006104</ele>
        <time>2016-06-06T10:42:52.7Z</time>
      </trkpt>
      <trkpt lat="45.94318" lon="4.83094">
        <ele>268.200012207</ele>
        <time>2016-06-06T10:42:53.681Z</time>
      </trkpt>
      <trkpt lat="45.94316" lon="4.83087">
        <ele>268.299987793</ele>
        <time>2016-06-06T10:42:54.7Z</time>
      </trkpt>
      <trkpt lat="45.94314" lon="4.83079">
        <ele>268.399993896</ele>
        <time>2016-06-06T10:42:55.678Z</time>
      </trkpt>
      <trkpt lat="45.94312" lon="4.83071">
        <ele>268.600006104</ele>
        <time>2016-06-06T10:42:56.708Z</time>
      </trkpt>
      <trkpt lat="45.9431" lon="4.83064">
        <ele>268.299987793</ele>
        <time>2016-06-06T10:42:57.684Z</time>
      </trkpt>
      <trkpt lat="45.94309" lon="4.83056">
        <ele>268</ele>
        <time>2016-06-06T10:42:58.715Z</time>
      </trkpt>
      <trkpt lat="45.94307" lon="4.83049">
        <ele>267.899993896</ele>
        <time>2016-06-06T10:42:59.679Z</time>
      </trkpt>
      <trkpt lat="45.94306" lon="4.83042">
        <ele>267.899993896</ele>
        <time>2016-06-06T10:43:00.7Z</time>
      </trkpt>
      <trkpt lat="45.94304" lon="4.83035">
        <ele>268.100006104</ele>
        <time>2016-06-06T10:43:01.678Z</time>
      </trkpt>
      <trkpt lat="45.94303" lon="4.83028">
        <ele>268.299987793</ele>
        <time>2016-06-06T10:43:02.699Z</time>
      </trkpt>
      <trkpt lat="45.94302" lon="4.83022">
        <ele>268.5</ele>
        <time>2016-06-06T10:43:03.698Z</time>
      </trkpt>
      <trkpt lat="45.943" lon="4.83015">
        <ele>268.700012207</ele>
        <time>2016-06-06T10:43:04.7Z</time>
      </trkpt>
      <trkpt lat="45.94299" lon="4.83008">
        <ele>269</ele>
        <time>2016-06-06T10:43:05.678Z</time>
      </trkpt>
      <trkpt lat="45.94298" lon="4.83">
        <ele>269</ele>
        <time>2016-06-06T10:43:06.73Z</time>
      </trkpt>
      <trkpt lat="45.94296" lon="4.82993">
        <ele>269.100006104</ele>
        <time>2016-06-06T10:43:07.682Z</time>
      </trkpt>
      <trkpt lat="45.94294" lon="4.82986">
        <ele>269.200012207</ele>
        <time>2016-06-06T10:43:08.717Z</time>
      </trkpt>
      <trkpt lat="45.94292" lon="4.82979">
        <ele>269.399993896</ele>
        <time>2016-06-06T10:43:09.684Z</time>
      </trkpt>
      <trkpt lat="45.9429" lon="4.82973">
        <ele>269.700012207</ele>
        <time>2016-06-06T10:43:10.699Z</time>
      </trkpt>
      <trkpt lat="45.94288" lon="4.82967">
        <ele>270.100006104</ele>
        <time>2016-06-06T10:43:11.679Z</time>
      </trkpt>
      <trkpt lat="45.94285" lon="4.82958">
        <ele>270.100006104</ele>
        <time>2016-06-06T10:43:13.703Z</time>
      </trkpt>
      <trkpt lat="45.94285" lon="4.82954">
        <ele>269.899993896</ele>
        <time>2016-06-06T10:43:14.682Z</time>
      </trkpt>
      <trkpt lat="45.94286" lon="4.82944">
        <ele>270.5</ele>
        <time>2016-06-06T10:43:16.701Z</time>
      </trkpt>
      <trkpt lat="45.94287" lon="4.82939">
        <ele>270.399993896</ele>
        <time>2016-06-06T10:43:17.683Z</time>
      </trkpt>
      <trkpt lat="45.94288" lon="4.82932">
        <ele>270.399993896</ele>
        <time>2016-06-06T10:43:18.7Z</time>
      </trkpt>
      <trkpt lat="45.94289" lon="4.82926">
        <ele>270.5</ele>
        <time>2016-06-06T10:43:19.678Z</time>
      </trkpt>
      <trkpt lat="45.9429" lon="4.82918">
        <ele>270.700012207</ele>
        <time>2016-06-06T10:43:20.699Z</time>
      </trkpt>
      <trkpt lat="45.94291" lon="4.82911">
        <ele>270.5</ele>
        <time>2016-06-06T10:43:21.686Z</time>
      </trkpt>
      <trkpt lat="45.94292" lon="4.82903">
        <ele>270.200012207</ele>
        <time>2016-06-06T10:43:22.703Z</time>
      </trkpt>
      <trkpt lat="45.94292" lon="4.82895">
        <ele>269.899993896</ele>
        <time>2016-06-06T10:43:23.678Z</time>
      </trkpt>
      <trkpt lat="45.94293" lon="4.82887">
        <ele>269.700012207</ele>
        <time>2016-06-06T10:43:24.756Z</time>
      </trkpt>
      <trkpt lat="45.94294" lon="4.8288">
        <ele>269.700012207</ele>
        <time>2016-06-06T10:43:25.678Z</time>
      </trkpt>
      <trkpt lat="45.94294" lon="4.82872">
        <ele>269.700012207</ele>
        <time>2016-06-06T10:43:26.7Z</time>
      </trkpt>
      <trkpt lat="45.94294" lon="4.82864">
        <ele>269.799987793</ele>
        <time>2016-06-06T10:43:27.683Z</time>
      </trkpt>
      <trkpt lat="45.94294" lon="4.82856">
        <ele>269.5</ele>
        <time>2016-06-06T10:43:28.699Z</time>
      </trkpt>
      <trkpt lat="45.94295" lon="4.82848">
        <ele>269.399993896</ele>
        <time>2016-06-06T10:43:29.679Z</time>
      </trkpt>
      <trkpt lat="45.94295" lon="4.8284">
        <ele>269.299987793</ele>
        <time>2016-06-06T10:43:30.7Z</time>
      </trkpt>
      <trkpt lat="45.94295" lon="4.82831">
        <ele>269.299987793</ele>
        <time>2016-06-06T10:43:31.678Z</time>
      </trkpt>
      <trkpt lat="45.94295" lon="4.82823">
        <ele>269.100006104</ele>
        <time>2016-06-06T10:43:32.708Z</time>
      </trkpt>
      <trkpt lat="45.94296" lon="4.82814">
        <ele>269.200012207</ele>
        <time>2016-06-06T10:43:33.682Z</time>
      </trkpt>
      <trkpt lat="45.94296" lon="4.82805">
        <ele>269.100006104</ele>
        <time>2016-06-06T10:43:34.702Z</time>
      </trkpt>
      <trkpt lat="45.94296" lon="4.82796">
        <ele>269.100006104</ele>
        <time>2016-06-06T10:43:35.68Z</time>
      </trkpt>
      <trkpt lat="45.94296" lon="4.82787">
        <ele>269.100006104</ele>
        <time>2016-06-06T10:43:36.7Z</time>
      </trkpt>
      <trkpt lat="45.94296" lon="4.82777">
        <ele>268.899993896</ele>
        <time>2016-06-06T10:43:37.679Z</time>
      </trkpt>
      <trkpt lat="45.94296" lon="4.82768">
        <ele>268.600006104</ele>
        <time>2016-06-06T10:43:38.706Z</time>
      </trkpt>
      <trkpt lat="45.94296" lon="4.82758">
        <ele>268.5</ele>
        <time>2016-06-06T10:43:39.686Z</time>
      </trkpt>
      <trkpt lat="45.94296" lon="4.82749">
        <ele>268.299987793</ele>
        <time>2016-06-06T10:43:40.746Z</time>
      </trkpt>
      <trkpt lat="45.94296" lon="4.8274">
        <ele>267.600006104</ele>
        <time>2016-06-06T10:43:41.68Z</time>
      </trkpt>
      <trkpt lat="45.94296" lon="4.82731">
        <ele>267.5</ele>
        <time>2016-06-06T10:43:42.722Z</time>
      </trkpt>
      <trkpt lat="45.94296" lon="4.82721">
        <ele>267.399993896</ele>
        <time>2016-06-06T10:43:43.682Z</time>
      </trkpt>
      <trkpt lat="45.94296" lon="4.82712">
        <ele>267.299987793</ele>
        <time>2016-06-06T10:43:44.702Z</time>
      </trkpt>
      <trkpt lat="45.94297" lon="4.82703">
        <ele>267.399993896</ele>
        <time>2016-06-06T10:43:45.731Z</time>
      </trkpt>
      <trkpt lat="45.94297" lon="4.82694">
        <ele>267.399993896</ele>
        <time>2016-06-06T10:43:46.859Z</time>
      </trkpt>
      <trkpt lat="45.94297" lon="4.82685">
        <ele>267.399993896</ele>
        <time>2016-06-06T10:43:47.686Z</time>
      </trkpt>
      <trkpt lat="45.94297" lon="4.82677">
        <ele>267.399993896</ele>
        <time>2016-06-06T10:43:48.708Z</time>
      </trkpt>
      <trkpt lat="45.94297" lon="4.82668">
        <ele>267.5</ele>
        <time>2016-06-06T10:43:49.685Z</time>
      </trkpt>
      <trkpt lat="45.94297" lon="4.8266">
        <ele>267.5</ele>
        <time>2016-06-06T10:43:50.707Z</time>
      </trkpt>
      <trkpt lat="45.94297" lon="4.82651">
        <ele>267.5</ele>
        <time>2016-06-06T10:43:51.691Z</time>
      </trkpt>
      <trkpt lat="45.94298" lon="4.82642">
        <ele>267.399993896</ele>
        <time>2016-06-06T10:43:52.708Z</time>
      </trkpt>
      <trkpt lat="45.94298" lon="4.82632">
        <ele>267.399993896</ele>
        <time>2016-06-06T10:43:53.685Z</time>
      </trkpt>
      <trkpt lat="45.94298" lon="4.82623">
        <ele>267.299987793</ele>
        <time>2016-06-06T10:43:54.708Z</time>
      </trkpt>
      <trkpt lat="45.94298" lon="4.82613">
        <ele>267.200012207</ele>
        <time>2016-06-06T10:43:55.68Z</time>
      </trkpt>
      <trkpt lat="45.94297" lon="4.82604">
        <ele>267.100006104</ele>
        <time>2016-06-06T10:43:56.708Z</time>
      </trkpt>
      <trkpt lat="45.94297" lon="4.82593">
        <ele>267.100006104</ele>
        <time>2016-06-06T10:43:57.689Z</time>
      </trkpt>
      <trkpt lat="45.94297" lon="4.82583">
        <ele>267.100006104</ele>
        <time>2016-06-06T10:43:58.715Z</time>
      </trkpt>
      <trkpt lat="45.94298" lon="4.82573">
        <ele>267.100006104</ele>
        <time>2016-06-06T10:43:59.685Z</time>
      </trkpt>
      <trkpt lat="45.94298" lon="4.82562">
        <ele>267.100006104</ele>
        <time>2016-06-06T10:44:00.711Z</time>
      </trkpt>
      <trkpt lat="45.94298" lon="4.82552">
        <ele>267</ele>
        <time>2016-06-06T10:44:01.688Z</time>
      </trkpt>
      <trkpt lat="45.94298" lon="4.82542">
        <ele>266.899993896</ele>
        <time>2016-06-06T10:44:02.702Z</time>
      </trkpt>
      <trkpt lat="45.94298" lon="4.82532">
        <ele>266.799987793</ele>
        <time>2016-06-06T10:44:03.683Z</time>
      </trkpt>
      <trkpt lat="45.94298" lon="4.82522">
        <ele>266.700012207</ele>
        <time>2016-06-06T10:44:04.707Z</time>
      </trkpt>
      <trkpt lat="45.94298" lon="4.82512">
        <ele>266.600006104</ele>
        <time>2016-06-06T10:44:05.681Z</time>
      </trkpt>
      <trkpt lat="45.94298" lon="4.82502">
        <ele>266.399993896</ele>
        <time>2016-06-06T10:44:06.706Z</time>
      </trkpt>
      <trkpt lat="45.94297" lon="4.82492">
        <ele>266.700012207</ele>
        <time>2016-06-06T10:44:07.68Z</time>
      </trkpt>
      <trkpt lat="45.94297" lon="4.82483">
        <ele>266.5</ele>
        <time>2016-06-06T10:44:08.868Z</time>
      </trkpt>
      <trkpt lat="45.94297" lon="4.82473">
        <ele>266.399993896</ele>
        <time>2016-06-06T10:44:09.685Z</time>
      </trkpt>
      <trkpt lat="45.94297" lon="4.82463">
        <ele>266.299987793</ele>
        <time>2016-06-06T10:44:10.701Z</time>
      </trkpt>
      <trkpt lat="45.94296" lon="4.82453">
        <ele>266</ele>
        <time>2016-06-06T10:44:11.698Z</time>
      </trkpt>
      <trkpt lat="45.94296" lon="4.82443">
        <ele>265.899993896</ele>
        <time>2016-06-06T10:44:12.706Z</time>
      </trkpt>
      <trkpt lat="45.94296" lon="4.82433">
        <ele>265.700012207</ele>
        <time>2016-06-06T10:44:13.683Z</time>
      </trkpt>
      <trkpt lat="45.94295" lon="4.82423">
        <ele>265.5</ele>
        <time>2016-06-06T10:44:14.702Z</time>
      </trkpt>
      <trkpt lat="45.94295" lon="4.82412">
        <ele>265.399993896</ele>
        <time>2016-06-06T10:44:15.685Z</time>
      </trkpt>
      <trkpt lat="45.94294" lon="4.82401">
        <ele>265.100006104</ele>
        <time>2016-06-06T10:44:16.718Z</time>
      </trkpt>
      <trkpt lat="45.94294" lon="4.82389">
        <ele>264.899993896</ele>
        <time>2016-06-06T10:44:17.684Z</time>
      </trkpt>
      <trkpt lat="45.94293" lon="4.82378">
        <ele>264.799987793</ele>
        <time>2016-06-06T10:44:18.703Z</time>
      </trkpt>
      <trkpt lat="45.94292" lon="4.82367">
        <ele>264.5</ele>
        <time>2016-06-06T10:44:19.681Z</time>
      </trkpt>
      <trkpt lat="45.94292" lon="4.82356">
        <ele>264.399993896</ele>
        <time>2016-06-06T10:44:20.702Z</time>
      </trkpt>
      <trkpt lat="45.94291" lon="4.82345">
        <ele>264.299987793</ele>
        <time>2016-06-06T10:44:21.684Z</time>
      </trkpt>
      <trkpt lat="45.94291" lon="4.82334">
        <ele>264.100006104</ele>
        <time>2016-06-06T10:44:22.702Z</time>
      </trkpt>
      <trkpt lat="45.9429" lon="4.82323">
        <ele>264.100006104</ele>
        <time>2016-06-06T10:44:23.681Z</time>
      </trkpt>
      <trkpt lat="45.9429" lon="4.82313">
        <ele>264</ele>
        <time>2016-06-06T10:44:24.703Z</time>
      </trkpt>
      <trkpt lat="45.9429" lon="4.82302">
        <ele>264</ele>
        <time>2016-06-06T10:44:25.679Z</time>
      </trkpt>
      <trkpt lat="45.94289" lon="4.82291">
        <ele>264</ele>
        <time>2016-06-06T10:44:26.704Z</time>
      </trkpt>
      <trkpt lat="45.94288" lon="4.8228">
        <ele>263.700012207</ele>
        <time>2016-06-06T10:44:27.685Z</time>
      </trkpt>
      <trkpt lat="45.94288" lon="4.8227">
        <ele>263.700012207</ele>
        <time>2016-06-06T10:44:28.706Z</time>
      </trkpt>
      <trkpt lat="45.94288" lon="4.8226">
        <ele>263.600006104</ele>
        <time>2016-06-06T10:44:29.683Z</time>
      </trkpt>
      <trkpt lat="45.94287" lon="4.8225">
        <ele>263.5</ele>
        <time>2016-06-06T10:44:30.853Z</time>
      </trkpt>
      <trkpt lat="45.94287" lon="4.8224">
        <ele>263.399993896</ele>
        <time>2016-06-06T10:44:31.684Z</time>
      </trkpt>
      <trkpt lat="45.94286" lon="4.82229">
        <ele>263.399993896</ele>
        <time>2016-06-06T10:44:32.721Z</time>
      </trkpt>
      <trkpt lat="45.94285" lon="4.8222">
        <ele>263.299987793</ele>
        <time>2016-06-06T10:44:33.684Z</time>
      </trkpt>
      <trkpt lat="45.94285" lon="4.8221">
        <ele>263.399993896</ele>
        <time>2016-06-06T10:44:34.705Z</time>
      </trkpt>
      <trkpt lat="45.94283" lon="4.82201">
        <ele>263.5</ele>
        <time>2016-06-06T10:44:35.683Z</time>
      </trkpt>
      <trkpt lat="45.94282" lon="4.82191">
        <ele>263.399993896</ele>
        <time>2016-06-06T10:44:36.706Z</time>
      </trkpt>
      <trkpt lat="45.9428" lon="4.82182">
        <ele>263.399993896</ele>
        <time>2016-06-06T10:44:37.684Z</time>
      </trkpt>
      <trkpt lat="45.94278" lon="4.82173">
        <ele>263.5</ele>
        <time>2016-06-06T10:44:38.706Z</time>
      </trkpt>
      <trkpt lat="45.94276" lon="4.82163">
        <ele>263.5</ele>
        <time>2016-06-06T10:44:39.685Z</time>
      </trkpt>
      <trkpt lat="45.94274" lon="4.82154">
        <ele>263.5</ele>
        <time>2016-06-06T10:44:40.705Z</time>
      </trkpt>
      <trkpt lat="45.94272" lon="4.82144">
        <ele>263.600006104</ele>
        <time>2016-06-06T10:44:41.695Z</time>
      </trkpt>
      <trkpt lat="45.94271" lon="4.82134">
        <ele>263.600006104</ele>
        <time>2016-06-06T10:44:42.733Z</time>
      </trkpt>
      <trkpt lat="45.94269" lon="4.82124">
        <ele>263.700012207</ele>
        <time>2016-06-06T10:44:43.681Z</time>
      </trkpt>
      <trkpt lat="45.94267" lon="4.82114">
        <ele>263.700012207</ele>
        <time>2016-06-06T10:44:44.704Z</time>
      </trkpt>
      <trkpt lat="45.94265" lon="4.82103">
        <ele>263.600006104</ele>
        <time>2016-06-06T10:44:45.683Z</time>
      </trkpt>
      <trkpt lat="45.94263" lon="4.82093">
        <ele>263.700012207</ele>
        <time>2016-06-06T10:44:46.701Z</time>
      </trkpt>
      <trkpt lat="45.94261" lon="4.82082">
        <ele>263.700012207</ele>
        <time>2016-06-06T10:44:47.679Z</time>
      </trkpt>
      <trkpt lat="45.94258" lon="4.82071">
        <ele>263.799987793</ele>
        <time>2016-06-06T10:44:48.705Z</time>
      </trkpt>
      <trkpt lat="45.94256" lon="4.8206">
        <ele>263.799987793</ele>
        <time>2016-06-06T10:44:49.682Z</time>
      </trkpt>
      <trkpt lat="45.94255" lon="4.82049">
        <ele>263.899993896</ele>
        <time>2016-06-06T10:44:50.704Z</time>
      </trkpt>
      <trkpt lat="45.94253" lon="4.82039">
        <ele>264.200012207</ele>
        <time>2016-06-06T10:44:51.695Z</time>
      </trkpt>
      <trkpt lat="45.94251" lon="4.82028">
        <ele>264.399993896</ele>
        <time>2016-06-06T10:44:52.846Z</time>
      </trkpt>
      <trkpt lat="45.94249" lon="4.82018">
        <ele>264.700012207</ele>
        <time>2016-06-06T10:44:53.704Z</time>
      </trkpt>
      <trkpt lat="45.94247" lon="4.82009">
        <ele>265.100006104</ele>
        <time>2016-06-06T10:44:54.701Z</time>
      </trkpt>
      <trkpt lat="45.94245" lon="4.81999">
        <ele>265.700012207</ele>
        <time>2016-06-06T10:44:55.678Z</time>
      </trkpt>
      <trkpt lat="45.94243" lon="4.8199">
        <ele>266</ele>
        <time>2016-06-06T10:44:56.703Z</time>
      </trkpt>
      <trkpt lat="45.94241" lon="4.81981">
        <ele>266.100006104</ele>
        <time>2016-06-06T10:44:57.685Z</time>
      </trkpt>
      <trkpt lat="45.94239" lon="4.81972">
        <ele>266.100006104</ele>
        <time>2016-06-06T10:44:58.701Z</time>
      </trkpt>
      <trkpt lat="45.94238" lon="4.81963">
        <ele>266.100006104</ele>
        <time>2016-06-06T10:44:59.684Z</time>
      </trkpt>
      <trkpt lat="45.94236" lon="4.81954">
        <ele>266.399993896</ele>
        <time>2016-06-06T10:45:00.705Z</time>
      </trkpt>
      <trkpt lat="45.94234" lon="4.81945">
        <ele>266.5</ele>
        <time>2016-06-06T10:45:01.681Z</time>
      </trkpt>
      <trkpt lat="45.94233" lon="4.81936">
        <ele>266.700012207</ele>
        <time>2016-06-06T10:45:02.705Z</time>
      </trkpt>
      <trkpt lat="45.94231" lon="4.81927">
        <ele>266.399993896</ele>
        <time>2016-06-06T10:45:03.685Z</time>
      </trkpt>
      <trkpt lat="45.94229" lon="4.81917">
        <ele>266.5</ele>
        <time>2016-06-06T10:45:04.701Z</time>
      </trkpt>
      <trkpt lat="45.94227" lon="4.81908">
        <ele>266.399993896</ele>
        <time>2016-06-06T10:45:05.683Z</time>
      </trkpt>
      <trkpt lat="45.94225" lon="4.819">
        <ele>266.399993896</ele>
        <time>2016-06-06T10:45:06.701Z</time>
      </trkpt>
      <trkpt lat="45.94223" lon="4.81891">
        <ele>266.299987793</ele>
        <time>2016-06-06T10:45:07.683Z</time>
      </trkpt>
      <trkpt lat="45.94221" lon="4.81883">
        <ele>266.100006104</ele>
        <time>2016-06-06T10:45:08.706Z</time>
      </trkpt>
      <trkpt lat="45.94219" lon="4.81875">
        <ele>266.100006104</ele>
        <time>2016-06-06T10:45:09.71Z</time>
      </trkpt>
      <trkpt lat="45.94217" lon="4.81867">
        <ele>265.799987793</ele>
        <time>2016-06-06T10:45:10.706Z</time>
      </trkpt>
      <trkpt lat="45.94215" lon="4.81859">
        <ele>265.700012207</ele>
        <time>2016-06-06T10:45:11.683Z</time>
      </trkpt>
      <trkpt lat="45.94213" lon="4.81851">
        <ele>265.200012207</ele>
        <time>2016-06-06T10:45:12.701Z</time>
      </trkpt>
      <trkpt lat="45.94211" lon="4.81843">
        <ele>265.299987793</ele>
        <time>2016-06-06T10:45:13.679Z</time>
      </trkpt>
      <trkpt lat="45.94209" lon="4.81834">
        <ele>265.200012207</ele>
        <time>2016-06-06T10:45:14.756Z</time>
      </trkpt>
      <trkpt lat="45.94207" lon="4.81825">
        <ele>265.200012207</ele>
        <time>2016-06-06T10:45:15.685Z</time>
      </trkpt>
      <trkpt lat="45.94206" lon="4.81816">
        <ele>265.100006104</ele>
        <time>2016-06-06T10:45:16.704Z</time>
      </trkpt>
      <trkpt lat="45.94206" lon="4.81806">
        <ele>265</ele>
        <time>2016-06-06T10:45:17.683Z</time>
      </trkpt>
      <trkpt lat="45.94206" lon="4.81796">
        <ele>265.100006104</ele>
        <time>2016-06-06T10:45:18.706Z</time>
      </trkpt>
      <trkpt lat="45.94207" lon="4.81787">
        <ele>265.200012207</ele>
        <time>2016-06-06T10:45:19.684Z</time>
      </trkpt>
      <trkpt lat="45.94209" lon="4.81777">
        <ele>265.200012207</ele>
        <time>2016-06-06T10:45:20.705Z</time>
      </trkpt>
      <trkpt lat="45.94212" lon="4.81769">
        <ele>265</ele>
        <time>2016-06-06T10:45:21.686Z</time>
      </trkpt>
      <trkpt lat="45.94216" lon="4.81761">
        <ele>264.899993896</ele>
        <time>2016-06-06T10:45:22.705Z</time>
      </trkpt>
      <trkpt lat="45.94219" lon="4.81753">
        <ele>265</ele>
        <time>2016-06-06T10:45:23.68Z</time>
      </trkpt>
      <trkpt lat="45.94222" lon="4.81745">
        <ele>264.5</ele>
        <time>2016-06-06T10:45:24.705Z</time>
      </trkpt>
      <trkpt lat="45.94223" lon="4.81737">
        <ele>264.200012207</ele>
        <time>2016-06-06T10:45:25.682Z</time>
      </trkpt>
      <trkpt lat="45.94223" lon="4.81728">
        <ele>264.600006104</ele>
        <time>2016-06-06T10:45:26.846Z</time>
      </trkpt>
      <trkpt lat="45.94221" lon="4.8172">
        <ele>264.700012207</ele>
        <time>2016-06-06T10:45:27.682Z</time>
      </trkpt>
      <trkpt lat="45.94217" lon="4.81714">
        <ele>264.700012207</ele>
        <time>2016-06-06T10:45:28.706Z</time>
      </trkpt>
      <trkpt lat="45.94213" lon="4.8171">
        <ele>265.100006104</ele>
        <time>2016-06-06T10:45:29.682Z</time>
      </trkpt>
      <trkpt lat="45.94208" lon="4.81707">
        <ele>265</ele>
        <time>2016-06-06T10:45:30.701Z</time>
      </trkpt>
      <trkpt lat="45.94202" lon="4.81705">
        <ele>264.899993896</ele>
        <time>2016-06-06T10:45:31.679Z</time>
      </trkpt>
      <trkpt lat="45.94197" lon="4.81701">
        <ele>264.600006104</ele>
        <time>2016-06-06T10:45:32.706Z</time>
      </trkpt>
      <trkpt lat="45.94192" lon="4.81695">
        <ele>264.299987793</ele>
        <time>2016-06-06T10:45:33.685Z</time>
      </trkpt>
      <trkpt lat="45.94188" lon="4.81688">
        <ele>264.200012207</ele>
        <time>2016-06-06T10:45:34.704Z</time>
      </trkpt>
      <trkpt lat="45.94184" lon="4.81679">
        <ele>264.299987793</ele>
        <time>2016-06-06T10:45:35.679Z</time>
      </trkpt>
      <trkpt lat="45.94181" lon="4.81669">
        <ele>264.399993896</ele>
        <time>2016-06-06T10:45:36.704Z</time>
      </trkpt>
      <trkpt lat="45.94179" lon="4.81659">
        <ele>264.600006104</ele>
        <time>2016-06-06T10:45:37.683Z</time>
      </trkpt>
      <trkpt lat="45.94177" lon="4.81648">
        <ele>264.799987793</ele>
        <time>2016-06-06T10:45:38.706Z</time>
      </trkpt>
      <trkpt lat="45.94174" lon="4.81636">
        <ele>265.100006104</ele>
        <time>2016-06-06T10:45:39.685Z</time>
      </trkpt>
      <trkpt lat="45.94171" lon="4.81625">
        <ele>265.100006104</ele>
        <time>2016-06-06T10:45:40.705Z</time>
      </trkpt>
      <trkpt lat="45.94168" lon="4.81613">
        <ele>265.299987793</ele>
        <time>2016-06-06T10:45:41.714Z</time>
      </trkpt>
      <trkpt lat="45.94168" lon="4.81613">
        <ele>265.299987793</ele>
        <time>2016-06-06T10:45:41.74Z</time>
      </trkpt>
      <trkpt lat="45.94165" lon="4.81601">
        <ele>265.299987793</ele>
        <time>2016-06-06T10:45:42.682Z</time>
      </trkpt>
      <trkpt lat="45.94165" lon="4.81601">
        <ele>265.299987793</ele>
        <time>2016-06-06T10:45:42.706Z</time>
      </trkpt>
      <trkpt lat="45.94162" lon="4.81588">
        <ele>265.399993896</ele>
        <time>2016-06-06T10:45:43.682Z</time>
      </trkpt>
      <trkpt lat="45.94162" lon="4.81588">
        <ele>265.399993896</ele>
        <time>2016-06-06T10:45:43.706Z</time>
      </trkpt>
      <trkpt lat="45.94161" lon="4.81574">
        <ele>265.299987793</ele>
        <time>2016-06-06T10:45:44.681Z</time>
      </trkpt>
      <trkpt lat="45.94161" lon="4.81574">
        <ele>265.299987793</ele>
        <time>2016-06-06T10:45:44.705Z</time>
      </trkpt>
      <trkpt lat="45.9416" lon="4.8156">
        <ele>265.299987793</ele>
        <time>2016-06-06T10:45:45.703Z</time>
      </trkpt>
      <trkpt lat="45.9416" lon="4.8156">
        <ele>265.299987793</ele>
        <time>2016-06-06T10:45:45.724Z</time>
      </trkpt>
      <trkpt lat="45.94157" lon="4.81546">
        <ele>265.100006104</ele>
        <time>2016-06-06T10:45:46.678Z</time>
      </trkpt>
      <trkpt lat="45.94157" lon="4.81546">
        <ele>265.100006104</ele>
        <time>2016-06-06T10:45:46.703Z</time>
      </trkpt>
      <trkpt lat="45.94157" lon="4.81532">
        <ele>265.100006104</ele>
        <time>2016-06-06T10:45:47.679Z</time>
      </trkpt>
      <trkpt lat="45.94157" lon="4.81532">
        <ele>265.100006104</ele>
        <time>2016-06-06T10:45:47.703Z</time>
      </trkpt>
      <trkpt lat="45.94157" lon="4.81517">
        <ele>265</ele>
        <time>2016-06-06T10:45:48.682Z</time>
      </trkpt>
      <trkpt lat="45.94157" lon="4.81517">
        <ele>265</ele>
        <time>2016-06-06T10:45:48.705Z</time>
      </trkpt>
      <trkpt lat="45.94158" lon="4.81501">
        <ele>264.899993896</ele>
        <time>2016-06-06T10:45:49.679Z</time>
      </trkpt>
      <trkpt lat="45.94158" lon="4.81501">
        <ele>264.899993896</ele>
        <time>2016-06-06T10:45:49.703Z</time>
      </trkpt>
      <trkpt lat="45.94159" lon="4.81485">
        <ele>264.799987793</ele>
        <time>2016-06-06T10:45:50.682Z</time>
      </trkpt>
      <trkpt lat="45.94159" lon="4.81485">
        <ele>264.799987793</ele>
        <time>2016-06-06T10:45:50.752Z</time>
      </trkpt>
      <trkpt lat="45.94162" lon="4.81468">
        <ele>264.700012207</ele>
        <time>2016-06-06T10:45:51.682Z</time>
      </trkpt>
      <trkpt lat="45.94162" lon="4.81468">
        <ele>264.700012207</ele>
        <time>2016-06-06T10:45:51.714Z</time>
      </trkpt>
      <trkpt lat="45.94165" lon="4.81452">
        <ele>264.600006104</ele>
        <time>2016-06-06T10:45:52.679Z</time>
      </trkpt>
      <trkpt lat="45.94165" lon="4.81452">
        <ele>264.600006104</ele>
        <time>2016-06-06T10:45:52.703Z</time>
      </trkpt>
      <trkpt lat="45.94167" lon="4.81437">
        <ele>264.399993896</ele>
        <time>2016-06-06T10:45:53.684Z</time>
      </trkpt>
      <trkpt lat="45.94167" lon="4.81437">
        <ele>264.399993896</ele>
        <time>2016-06-06T10:45:53.705Z</time>
      </trkpt>
      <trkpt lat="45.94169" lon="4.81421">
        <ele>264.5</ele>
        <time>2016-06-06T10:45:54.679Z</time>
      </trkpt>
      <trkpt lat="45.94169" lon="4.81421">
        <ele>264.5</ele>
        <time>2016-06-06T10:45:54.703Z</time>
      </trkpt>
      <trkpt lat="45.94171" lon="4.81404">
        <ele>264.399993896</ele>
        <time>2016-06-06T10:45:55.678Z</time>
      </trkpt>
      <trkpt lat="45.94171" lon="4.81404">
        <ele>264.399993896</ele>
        <time>2016-06-06T10:45:55.702Z</time>
      </trkpt>
      <trkpt lat="45.94174" lon="4.81387">
        <ele>264.299987793</ele>
        <time>2016-06-06T10:45:56.682Z</time>
      </trkpt>
      <trkpt lat="45.94174" lon="4.81387">
        <ele>264.299987793</ele>
        <time>2016-06-06T10:45:56.798Z</time>
      </trkpt>
      <trkpt lat="45.94175" lon="4.81371">
        <ele>264.200012207</ele>
        <time>2016-06-06T10:45:57.685Z</time>
      </trkpt>
      <trkpt lat="45.94175" lon="4.81371">
        <ele>264.200012207</ele>
        <time>2016-06-06T10:45:57.709Z</time>
      </trkpt>
      <trkpt lat="45.94176" lon="4.81355">
        <ele>264</ele>
        <time>2016-06-06T10:45:58.682Z</time>
      </trkpt>
      <trkpt lat="45.94176" lon="4.81355">
        <ele>264</ele>
        <time>2016-06-06T10:45:58.706Z</time>
      </trkpt>
      <trkpt lat="45.94177" lon="4.81337">
        <ele>263.600006104</ele>
        <time>2016-06-06T10:45:59.683Z</time>
      </trkpt>
      <trkpt lat="45.94177" lon="4.81337">
        <ele>263.600006104</ele>
        <time>2016-06-06T10:45:59.707Z</time>
      </trkpt>
      <trkpt lat="45.94177" lon="4.8132">
        <ele>263.399993896</ele>
        <time>2016-06-06T10:46:00.68Z</time>
      </trkpt>
      <trkpt lat="45.94177" lon="4.8132">
        <ele>263.399993896</ele>
        <time>2016-06-06T10:46:00.862Z</time>
      </trkpt>
      <trkpt lat="45.94176" lon="4.81302">
        <ele>263.200012207</ele>
        <time>2016-06-06T10:46:01.68Z</time>
      </trkpt>
      <trkpt lat="45.94176" lon="4.81302">
        <ele>263.200012207</ele>
        <time>2016-06-06T10:46:01.706Z</time>
      </trkpt>
      <trkpt lat="45.94175" lon="4.81285">
        <ele>263.100006104</ele>
        <time>2016-06-06T10:46:02.682Z</time>
      </trkpt>
      <trkpt lat="45.94175" lon="4.81285">
        <ele>263.100006104</ele>
        <time>2016-06-06T10:46:02.706Z</time>
      </trkpt>
      <trkpt lat="45.94173" lon="4.81267">
        <ele>262.899993896</ele>
        <time>2016-06-06T10:46:03.685Z</time>
      </trkpt>
      <trkpt lat="45.94173" lon="4.81267">
        <ele>262.899993896</ele>
        <time>2016-06-06T10:46:03.706Z</time>
      </trkpt>
      <trkpt lat="45.9417" lon="4.8125">
        <ele>262.700012207</ele>
        <time>2016-06-06T10:46:04.678Z</time>
      </trkpt>
      <trkpt lat="45.9417" lon="4.8125">
        <ele>262.700012207</ele>
        <time>2016-06-06T10:46:04.702Z</time>
      </trkpt>
      <trkpt lat="45.94166" lon="4.81233">
        <ele>262.399993896</ele>
        <time>2016-06-06T10:46:05.679Z</time>
      </trkpt>
      <trkpt lat="45.94166" lon="4.81233">
        <ele>262.399993896</ele>
        <time>2016-06-06T10:46:05.702Z</time>
      </trkpt>
      <trkpt lat="45.94163" lon="4.81215">
        <ele>262</ele>
        <time>2016-06-06T10:46:06.678Z</time>
      </trkpt>
      <trkpt lat="45.94163" lon="4.81215">
        <ele>262</ele>
        <time>2016-06-06T10:46:06.736Z</time>
      </trkpt>
      <trkpt lat="45.94158" lon="4.81199">
        <ele>261.399993896</ele>
        <time>2016-06-06T10:46:07.679Z</time>
      </trkpt>
      <trkpt lat="45.94158" lon="4.81199">
        <ele>261.399993896</ele>
        <time>2016-06-06T10:46:07.702Z</time>
      </trkpt>
      <trkpt lat="45.94154" lon="4.81182">
        <ele>261</ele>
        <time>2016-06-06T10:46:08.683Z</time>
      </trkpt>
      <trkpt lat="45.94154" lon="4.81182">
        <ele>261</ele>
        <time>2016-06-06T10:46:08.707Z</time>
      </trkpt>
      <trkpt lat="45.94149" lon="4.81165">
        <ele>260.600006104</ele>
        <time>2016-06-06T10:46:09.684Z</time>
      </trkpt>
      <trkpt lat="45.94149" lon="4.81165">
        <ele>260.600006104</ele>
        <time>2016-06-06T10:46:09.706Z</time>
      </trkpt>
      <trkpt lat="45.94144" lon="4.8115">
        <ele>260.200012207</ele>
        <time>2016-06-06T10:46:10.685Z</time>
      </trkpt>
      <trkpt lat="45.94144" lon="4.8115">
        <ele>260.200012207</ele>
        <time>2016-06-06T10:46:10.709Z</time>
      </trkpt>
      <trkpt lat="45.94137" lon="4.81136">
        <ele>259.899993896</ele>
        <time>2016-06-06T10:46:11.686Z</time>
      </trkpt>
      <trkpt lat="45.94137" lon="4.81136">
        <ele>259.899993896</ele>
        <time>2016-06-06T10:46:11.711Z</time>
      </trkpt>
      <trkpt lat="45.94131" lon="4.81123">
        <ele>259.5</ele>
        <time>2016-06-06T10:46:12.684Z</time>
      </trkpt>
      <trkpt lat="45.94131" lon="4.81123">
        <ele>259.5</ele>
        <time>2016-06-06T10:46:12.707Z</time>
      </trkpt>
      <trkpt lat="45.94124" lon="4.81109">
        <ele>259.200012207</ele>
        <time>2016-06-06T10:46:13.678Z</time>
      </trkpt>
      <trkpt lat="45.94124" lon="4.81109">
        <ele>259.200012207</ele>
        <time>2016-06-06T10:46:13.75Z</time>
      </trkpt>
      <trkpt lat="45.94117" lon="4.81096">
        <ele>259</ele>
        <time>2016-06-06T10:46:14.682Z</time>
      </trkpt>
      <trkpt lat="45.94117" lon="4.81096">
        <ele>259</ele>
        <time>2016-06-06T10:46:14.706Z</time>
      </trkpt>
      <trkpt lat="45.9411" lon="4.81083">
        <ele>258.700012207</ele>
        <time>2016-06-06T10:46:15.682Z</time>
      </trkpt>
      <trkpt lat="45.9411" lon="4.81083">
        <ele>258.700012207</ele>
        <time>2016-06-06T10:46:15.704Z</time>
      </trkpt>
      <trkpt lat="45.94105" lon="4.81069">
        <ele>258.399993896</ele>
        <time>2016-06-06T10:46:16.682Z</time>
      </trkpt>
      <trkpt lat="45.94105" lon="4.81069">
        <ele>258.399993896</ele>
        <time>2016-06-06T10:46:17.001Z</time>
      </trkpt>
      <trkpt lat="45.94097" lon="4.81055">
        <ele>257.799987793</ele>
        <time>2016-06-06T10:46:17.677Z</time>
      </trkpt>
      <trkpt lat="45.94097" lon="4.81055">
        <ele>257.799987793</ele>
        <time>2016-06-06T10:46:17.703Z</time>
      </trkpt>
      <trkpt lat="45.94092" lon="4.8104">
        <ele>257.399993896</ele>
        <time>2016-06-06T10:46:18.681Z</time>
      </trkpt>
      <trkpt lat="45.94092" lon="4.8104">
        <ele>257.399993896</ele>
        <time>2016-06-06T10:46:18.704Z</time>
      </trkpt>
      <trkpt lat="45.94086" lon="4.81025">
        <ele>256.799987793</ele>
        <time>2016-06-06T10:46:19.682Z</time>
      </trkpt>
      <trkpt lat="45.94086" lon="4.81025">
        <ele>256.799987793</ele>
        <time>2016-06-06T10:46:19.706Z</time>
      </trkpt>
      <trkpt lat="45.94081" lon="4.81009">
        <ele>256.399993896</ele>
        <time>2016-06-06T10:46:20.719Z</time>
      </trkpt>
      <trkpt lat="45.94081" lon="4.81009">
        <ele>256.399993896</ele>
        <time>2016-06-06T10:46:20.745Z</time>
      </trkpt>
      <trkpt lat="45.94078" lon="4.80992">
        <ele>255.699996948</ele>
        <time>2016-06-06T10:46:21.702Z</time>
      </trkpt>
      <trkpt lat="45.94078" lon="4.80992">
        <ele>255.699996948</ele>
        <time>2016-06-06T10:46:21.726Z</time>
      </trkpt>
      <trkpt lat="45.94075" lon="4.80974">
        <ele>255.100006104</ele>
        <time>2016-06-06T10:46:22.678Z</time>
      </trkpt>
      <trkpt lat="45.94075" lon="4.80974">
        <ele>255.100006104</ele>
        <time>2016-06-06T10:46:22.702Z</time>
      </trkpt>
      <trkpt lat="45.94072" lon="4.80958">
        <ele>254.5</ele>
        <time>2016-06-06T10:46:23.68Z</time>
      </trkpt>
      <trkpt lat="45.94072" lon="4.80958">
        <ele>254.5</ele>
        <time>2016-06-06T10:46:23.704Z</time>
      </trkpt>
      <trkpt lat="45.9407" lon="4.80941">
        <ele>254</ele>
        <time>2016-06-06T10:46:24.682Z</time>
      </trkpt>
      <trkpt lat="45.9407" lon="4.80941">
        <ele>254</ele>
        <time>2016-06-06T10:46:24.706Z</time>
      </trkpt>
      <trkpt lat="45.94067" lon="4.80925">
        <ele>253.399993896</ele>
        <time>2016-06-06T10:46:25.678Z</time>
      </trkpt>
      <trkpt lat="45.94067" lon="4.80925">
        <ele>253.399993896</ele>
        <time>2016-06-06T10:46:25.703Z</time>
      </trkpt>
      <trkpt lat="45.94064" lon="4.80908">
        <ele>252.5</ele>
        <time>2016-06-06T10:46:26.678Z</time>
      </trkpt>
      <trkpt lat="45.94064" lon="4.80908">
        <ele>252.5</ele>
        <time>2016-06-06T10:46:26.702Z</time>
      </trkpt>
      <trkpt lat="45.94061" lon="4.80891">
        <ele>251.800003052</ele>
        <time>2016-06-06T10:46:27.686Z</time>
      </trkpt>
      <trkpt lat="45.94061" lon="4.80891">
        <ele>251.800003052</ele>
        <time>2016-06-06T10:46:27.707Z</time>
      </trkpt>
      <trkpt lat="45.94058" lon="4.80874">
        <ele>251.100006104</ele>
        <time>2016-06-06T10:46:28.682Z</time>
      </trkpt>
      <trkpt lat="45.94058" lon="4.80874">
        <ele>251.100006104</ele>
        <time>2016-06-06T10:46:28.833Z</time>
      </trkpt>
      <trkpt lat="45.94056" lon="4.80858">
        <ele>250.300003052</ele>
        <time>2016-06-06T10:46:29.684Z</time>
      </trkpt>
      <trkpt lat="45.94056" lon="4.80858">
        <ele>250.300003052</ele>
        <time>2016-06-06T10:46:29.705Z</time>
      </trkpt>
      <trkpt lat="45.94053" lon="4.80841">
        <ele>249.5</ele>
        <time>2016-06-06T10:46:30.679Z</time>
      </trkpt>
      <trkpt lat="45.94053" lon="4.80841">
        <ele>249.5</ele>
        <time>2016-06-06T10:46:30.821Z</time>
      </trkpt>
      <trkpt lat="45.94051" lon="4.80823">
        <ele>248.600006104</ele>
        <time>2016-06-06T10:46:31.682Z</time>
      </trkpt>
      <trkpt lat="45.94051" lon="4.80823">
        <ele>248.600006104</ele>
        <time>2016-06-06T10:46:31.707Z</time>
      </trkpt>
      <trkpt lat="45.94048" lon="4.80806">
        <ele>247.800003052</ele>
        <time>2016-06-06T10:46:32.683Z</time>
      </trkpt>
      <trkpt lat="45.94048" lon="4.80806">
        <ele>247.800003052</ele>
        <time>2016-06-06T10:46:32.707Z</time>
      </trkpt>
      <trkpt lat="45.94045" lon="4.8079">
        <ele>247</ele>
        <time>2016-06-06T10:46:33.683Z</time>
      </trkpt>
      <trkpt lat="45.94045" lon="4.8079">
        <ele>247</ele>
        <time>2016-06-06T10:46:33.705Z</time>
      </trkpt>
      <trkpt lat="45.94043" lon="4.80773">
        <ele>246.399993896</ele>
        <time>2016-06-06T10:46:34.679Z</time>
      </trkpt>
      <trkpt lat="45.94043" lon="4.80773">
        <ele>246.399993896</ele>
        <time>2016-06-06T10:46:34.703Z</time>
      </trkpt>
      <trkpt lat="45.9404" lon="4.80756">
        <ele>246</ele>
        <time>2016-06-06T10:46:35.683Z</time>
      </trkpt>
      <trkpt lat="45.9404" lon="4.80756">
        <ele>246</ele>
        <time>2016-06-06T10:46:35.706Z</time>
      </trkpt>
      <trkpt lat="45.94037" lon="4.8074">
        <ele>245.5</ele>
        <time>2016-06-06T10:46:36.684Z</time>
      </trkpt>
      <trkpt lat="45.94037" lon="4.8074">
        <ele>245.5</ele>
        <time>2016-06-06T10:46:36.966Z</time>
      </trkpt>
      <trkpt lat="45.94036" lon="4.80722">
        <ele>244.5</ele>
        <time>2016-06-06T10:46:37.683Z</time>
      </trkpt>
      <trkpt lat="45.94036" lon="4.80722">
        <ele>244.5</ele>
        <time>2016-06-06T10:46:37.709Z</time>
      </trkpt>
      <trkpt lat="45.94034" lon="4.80705">
        <ele>243.800003052</ele>
        <time>2016-06-06T10:46:38.678Z</time>
      </trkpt>
      <trkpt lat="45.94034" lon="4.80705">
        <ele>243.800003052</ele>
        <time>2016-06-06T10:46:38.702Z</time>
      </trkpt>
      <trkpt lat="45.94032" lon="4.80688">
        <ele>243</ele>
        <time>2016-06-06T10:46:39.683Z</time>
      </trkpt>
      <trkpt lat="45.94032" lon="4.80688">
        <ele>243</ele>
        <time>2016-06-06T10:46:39.705Z</time>
      </trkpt>
      <trkpt lat="45.94034" lon="4.80669">
        <ele>240.699996948</ele>
        <time>2016-06-06T10:46:40.708Z</time>
      </trkpt>
      <trkpt lat="45.94034" lon="4.80669">
        <ele>240.699996948</ele>
        <time>2016-06-06T10:46:40.729Z</time>
      </trkpt>
      <trkpt lat="45.94034" lon="4.80654">
        <ele>239.300003052</ele>
        <time>2016-06-06T10:46:41.679Z</time>
      </trkpt>
      <trkpt lat="45.94034" lon="4.80654">
        <ele>239.300003052</ele>
        <time>2016-06-06T10:46:41.703Z</time>
      </trkpt>
      <trkpt lat="45.94033" lon="4.80636">
        <ele>238.300003052</ele>
        <time>2016-06-06T10:46:42.692Z</time>
      </trkpt>
      <trkpt lat="45.94033" lon="4.80636">
        <ele>238.300003052</ele>
        <time>2016-06-06T10:46:42.724Z</time>
      </trkpt>
      <trkpt lat="45.94031" lon="4.80619">
        <ele>237.5</ele>
        <time>2016-06-06T10:46:43.682Z</time>
      </trkpt>
      <trkpt lat="45.94031" lon="4.80619">
        <ele>237.5</ele>
        <time>2016-06-06T10:46:43.707Z</time>
      </trkpt>
      <trkpt lat="45.94031" lon="4.80602">
        <ele>237.100006104</ele>
        <time>2016-06-06T10:46:44.677Z</time>
      </trkpt>
      <trkpt lat="45.94031" lon="4.80602">
        <ele>237.100006104</ele>
        <time>2016-06-06T10:46:44.701Z</time>
      </trkpt>
      <trkpt lat="45.9403" lon="4.80586">
        <ele>236.600006104</ele>
        <time>2016-06-06T10:46:45.686Z</time>
      </trkpt>
      <trkpt lat="45.9403" lon="4.80586">
        <ele>236.600006104</ele>
        <time>2016-06-06T10:46:45.713Z</time>
      </trkpt>
      <trkpt lat="45.94028" lon="4.8057">
        <ele>236.100006104</ele>
        <time>2016-06-06T10:46:46.677Z</time>
      </trkpt>
      <trkpt lat="45.94028" lon="4.8057">
        <ele>236.100006104</ele>
        <time>2016-06-06T10:46:46.856Z</time>
      </trkpt>
      <trkpt lat="45.94027" lon="4.80554">
        <ele>235.399993896</ele>
        <time>2016-06-06T10:46:47.684Z</time>
      </trkpt>
      <trkpt lat="45.94027" lon="4.80554">
        <ele>235.399993896</ele>
        <time>2016-06-06T10:46:47.753Z</time>
      </trkpt>
      <trkpt lat="45.94025" lon="4.80538">
        <ele>235</ele>
        <time>2016-06-06T10:46:48.678Z</time>
      </trkpt>
      <trkpt lat="45.94025" lon="4.80538">
        <ele>235</ele>
        <time>2016-06-06T10:46:48.702Z</time>
      </trkpt>
      <trkpt lat="45.94024" lon="4.80522">
        <ele>234.399993896</ele>
        <time>2016-06-06T10:46:49.681Z</time>
      </trkpt>
      <trkpt lat="45.94024" lon="4.80522">
        <ele>234.399993896</ele>
        <time>2016-06-06T10:46:49.706Z</time>
      </trkpt>
      <trkpt lat="45.94024" lon="4.80506">
        <ele>233.899993896</ele>
        <time>2016-06-06T10:46:50.678Z</time>
      </trkpt>
      <trkpt lat="45.94024" lon="4.80506">
        <ele>233.899993896</ele>
        <time>2016-06-06T10:46:50.702Z</time>
      </trkpt>
      <trkpt lat="45.94023" lon="4.8049">
        <ele>233.300003052</ele>
        <time>2016-06-06T10:46:51.684Z</time>
      </trkpt>
      <trkpt lat="45.94023" lon="4.8049">
        <ele>233.300003052</ele>
        <time>2016-06-06T10:46:51.707Z</time>
      </trkpt>
      <trkpt lat="45.94022" lon="4.80474">
        <ele>232.5</ele>
        <time>2016-06-06T10:46:52.678Z</time>
      </trkpt>
      <trkpt lat="45.94022" lon="4.80474">
        <ele>232.5</ele>
        <time>2016-06-06T10:46:52.701Z</time>
      </trkpt>
      <trkpt lat="45.94021" lon="4.80459">
        <ele>231.800003052</ele>
        <time>2016-06-06T10:46:53.68Z</time>
      </trkpt>
      <trkpt lat="45.94021" lon="4.80459">
        <ele>231.800003052</ele>
        <time>2016-06-06T10:46:53.71Z</time>
      </trkpt>
      <trkpt lat="45.94019" lon="4.80444">
        <ele>231.100006104</ele>
        <time>2016-06-06T10:46:54.677Z</time>
      </trkpt>
      <trkpt lat="45.94019" lon="4.80444">
        <ele>231.100006104</ele>
        <time>2016-06-06T10:46:54.701Z</time>
      </trkpt>
      <trkpt lat="45.94017" lon="4.80427">
        <ele>230</ele>
        <time>2016-06-06T10:46:55.678Z</time>
      </trkpt>
      <trkpt lat="45.94017" lon="4.80427">
        <ele>230</ele>
        <time>2016-06-06T10:46:55.701Z</time>
      </trkpt>
      <trkpt lat="45.94016" lon="4.80412">
        <ele>228.899993896</ele>
        <time>2016-06-06T10:46:56.675Z</time>
      </trkpt>
      <trkpt lat="45.94016" lon="4.80412">
        <ele>228.899993896</ele>
        <time>2016-06-06T10:46:56.702Z</time>
      </trkpt>
      <trkpt lat="45.94012" lon="4.80398">
        <ele>228</ele>
        <time>2016-06-06T10:46:57.685Z</time>
      </trkpt>
      <trkpt lat="45.94012" lon="4.80398">
        <ele>228</ele>
        <time>2016-06-06T10:46:57.708Z</time>
      </trkpt>
      <trkpt lat="45.94009" lon="4.80383">
        <ele>226.899993896</ele>
        <time>2016-06-06T10:46:58.682Z</time>
      </trkpt>
      <trkpt lat="45.94009" lon="4.80383">
        <ele>226.899993896</ele>
        <time>2016-06-06T10:46:58.705Z</time>
      </trkpt>
      <trkpt lat="45.94004" lon="4.80367">
        <ele>226</ele>
        <time>2016-06-06T10:46:59.678Z</time>
      </trkpt>
      <trkpt lat="45.94004" lon="4.80367">
        <ele>226</ele>
        <time>2016-06-06T10:46:59.805Z</time>
      </trkpt>
      <trkpt lat="45.94001" lon="4.80352">
        <ele>225</ele>
        <time>2016-06-06T10:47:00.682Z</time>
      </trkpt>
      <trkpt lat="45.94001" lon="4.80352">
        <ele>225</ele>
        <time>2016-06-06T10:47:00.706Z</time>
      </trkpt>
      <trkpt lat="45.93995" lon="4.80334">
        <ele>223.800003052</ele>
        <time>2016-06-06T10:47:01.681Z</time>
      </trkpt>
      <trkpt lat="45.93995" lon="4.80334">
        <ele>223.800003052</ele>
        <time>2016-06-06T10:47:01.706Z</time>
      </trkpt>
      <trkpt lat="45.9399" lon="4.80318">
        <ele>222.300003052</ele>
        <time>2016-06-06T10:47:02.68Z</time>
      </trkpt>
      <trkpt lat="45.9399" lon="4.80318">
        <ele>222.300003052</ele>
        <time>2016-06-06T10:47:02.704Z</time>
      </trkpt>
      <trkpt lat="45.93985" lon="4.80303">
        <ele>221</ele>
        <time>2016-06-06T10:47:03.703Z</time>
      </trkpt>
      <trkpt lat="45.93985" lon="4.80303">
        <ele>221</ele>
        <time>2016-06-06T10:47:03.727Z</time>
      </trkpt>
      <trkpt lat="45.93981" lon="4.80288">
        <ele>219.800003052</ele>
        <time>2016-06-06T10:47:04.678Z</time>
      </trkpt>
      <trkpt lat="45.93981" lon="4.80288">
        <ele>219.800003052</ele>
        <time>2016-06-06T10:47:04.702Z</time>
      </trkpt>
      <trkpt lat="45.93977" lon="4.80273">
        <ele>218.699996948</ele>
        <time>2016-06-06T10:47:05.682Z</time>
      </trkpt>
      <trkpt lat="45.93977" lon="4.80273">
        <ele>218.699996948</ele>
        <time>2016-06-06T10:47:05.707Z</time>
      </trkpt>
      <trkpt lat="45.93973" lon="4.80258">
        <ele>218.199996948</ele>
        <time>2016-06-06T10:47:06.735Z</time>
      </trkpt>
      <trkpt lat="45.93973" lon="4.80258">
        <ele>218.199996948</ele>
        <time>2016-06-06T10:47:07.078Z</time>
      </trkpt>
      <trkpt lat="45.93969" lon="4.80244">
        <ele>217.600006104</ele>
        <time>2016-06-06T10:47:07.679Z</time>
      </trkpt>
      <trkpt lat="45.93969" lon="4.80244">
        <ele>217.600006104</ele>
        <time>2016-06-06T10:47:07.703Z</time>
      </trkpt>
      <trkpt lat="45.93965" lon="4.8023">
        <ele>216.699996948</ele>
        <time>2016-06-06T10:47:08.681Z</time>
      </trkpt>
      <trkpt lat="45.93965" lon="4.8023">
        <ele>216.699996948</ele>
        <time>2016-06-06T10:47:08.704Z</time>
      </trkpt>
      <trkpt lat="45.93962" lon="4.80216">
        <ele>216.100006104</ele>
        <time>2016-06-06T10:47:09.685Z</time>
      </trkpt>
      <trkpt lat="45.93962" lon="4.80216">
        <ele>216.100006104</ele>
        <time>2016-06-06T10:47:09.706Z</time>
      </trkpt>
      <trkpt lat="45.93958" lon="4.80202">
        <ele>216.5</ele>
        <time>2016-06-06T10:47:10.678Z</time>
      </trkpt>
      <trkpt lat="45.93958" lon="4.80202">
        <ele>216.5</ele>
        <time>2016-06-06T10:47:10.702Z</time>
      </trkpt>
      <trkpt lat="45.93955" lon="4.80189">
        <ele>215.699996948</ele>
        <time>2016-06-06T10:47:11.679Z</time>
      </trkpt>
      <trkpt lat="45.93955" lon="4.80189">
        <ele>215.699996948</ele>
        <time>2016-06-06T10:47:11.703Z</time>
      </trkpt>
      <trkpt lat="45.93952" lon="4.80176">
        <ele>215.199996948</ele>
        <time>2016-06-06T10:47:12.678Z</time>
      </trkpt>
      <trkpt lat="45.9395" lon="4.80164">
        <ele>214.699996948</ele>
        <time>2016-06-06T10:47:13.7Z</time>
      </trkpt>
      <trkpt lat="45.93949" lon="4.80151">
        <ele>214.100006104</ele>
        <time>2016-06-06T10:47:14.681Z</time>
      </trkpt>
      <trkpt lat="45.93948" lon="4.80139">
        <ele>213.5</ele>
        <time>2016-06-06T10:47:15.706Z</time>
      </trkpt>
      <trkpt lat="45.93946" lon="4.80127">
        <ele>212.800003052</ele>
        <time>2016-06-06T10:47:16.678Z</time>
      </trkpt>
      <trkpt lat="45.93944" lon="4.80115">
        <ele>212.300003052</ele>
        <time>2016-06-06T10:47:17.706Z</time>
      </trkpt>
      <trkpt lat="45.93943" lon="4.80104">
        <ele>211.699996948</ele>
        <time>2016-06-06T10:47:18.681Z</time>
      </trkpt>
      <trkpt lat="45.93943" lon="4.80092">
        <ele>211.399993896</ele>
        <time>2016-06-06T10:47:19.72Z</time>
      </trkpt>
      <trkpt lat="45.93945" lon="4.8008">
        <ele>210.600006104</ele>
        <time>2016-06-06T10:47:20.679Z</time>
      </trkpt>
      <trkpt lat="45.93946" lon="4.80068">
        <ele>210.300003052</ele>
        <time>2016-06-06T10:47:21.712Z</time>
      </trkpt>
      <trkpt lat="45.93947" lon="4.80057">
        <ele>210.100006104</ele>
        <time>2016-06-06T10:47:22.675Z</time>
      </trkpt>
      <trkpt lat="45.93947" lon="4.80047">
        <ele>210.100006104</ele>
        <time>2016-06-06T10:47:23.704Z</time>
      </trkpt>
      <trkpt lat="45.93948" lon="4.80036">
        <ele>209.899993896</ele>
        <time>2016-06-06T10:47:24.675Z</time>
      </trkpt>
      <trkpt lat="45.93949" lon="4.80026">
        <ele>209.699996948</ele>
        <time>2016-06-06T10:47:25.7Z</time>
      </trkpt>
      <trkpt lat="45.9395" lon="4.80015">
        <ele>209.5</ele>
        <time>2016-06-06T10:47:26.678Z</time>
      </trkpt>
      <trkpt lat="45.93952" lon="4.80004">
        <ele>209.600006104</ele>
        <time>2016-06-06T10:47:27.752Z</time>
      </trkpt>
      <trkpt lat="45.93953" lon="4.79993">
        <ele>209</ele>
        <time>2016-06-06T10:47:28.684Z</time>
      </trkpt>
      <trkpt lat="45.93956" lon="4.79982">
        <ele>208.800003052</ele>
        <time>2016-06-06T10:47:29.734Z</time>
      </trkpt>
      <trkpt lat="45.93958" lon="4.79971">
        <ele>208.699996948</ele>
        <time>2016-06-06T10:47:30.678Z</time>
      </trkpt>
      <trkpt lat="45.9396" lon="4.7996">
        <ele>208.5</ele>
        <time>2016-06-06T10:47:31.703Z</time>
      </trkpt>
      <trkpt lat="45.93961" lon="4.7995">
        <ele>207.899993896</ele>
        <time>2016-06-06T10:47:32.681Z</time>
      </trkpt>
      <trkpt lat="45.93962" lon="4.79939">
        <ele>207.5</ele>
        <time>2016-06-06T10:47:33.705Z</time>
      </trkpt>
      <trkpt lat="45.93962" lon="4.79928">
        <ele>207.699996948</ele>
        <time>2016-06-06T10:47:34.682Z</time>
      </trkpt>
      <trkpt lat="45.93964" lon="4.79918">
        <ele>208.100006104</ele>
        <time>2016-06-06T10:47:35.704Z</time>
      </trkpt>
      <trkpt lat="45.93965" lon="4.79907">
        <ele>207.899993896</ele>
        <time>2016-06-06T10:47:36.681Z</time>
      </trkpt>
      <trkpt lat="45.93966" lon="4.79897">
        <ele>207.899993896</ele>
        <time>2016-06-06T10:47:37.706Z</time>
      </trkpt>
      <trkpt lat="45.93968" lon="4.79886">
        <ele>207.699996948</ele>
        <time>2016-06-06T10:47:38.72Z</time>
      </trkpt>
      <trkpt lat="45.9397" lon="4.79876">
        <ele>207.100006104</ele>
        <time>2016-06-06T10:47:39.705Z</time>
      </trkpt>
      <trkpt lat="45.93971" lon="4.79866">
        <ele>207.100006104</ele>
        <time>2016-06-06T10:47:40.678Z</time>
      </trkpt>
      <trkpt lat="45.93972" lon="4.79855">
        <ele>206.899993896</ele>
        <time>2016-06-06T10:47:41.7Z</time>
      </trkpt>
      <trkpt lat="45.93974" lon="4.79845">
        <ele>206.600006104</ele>
        <time>2016-06-06T10:47:42.678Z</time>
      </trkpt>
      <trkpt lat="45.93976" lon="4.79835">
        <ele>206.699996948</ele>
        <time>2016-06-06T10:47:43.7Z</time>
      </trkpt>
      <trkpt lat="45.93976" lon="4.79824">
        <ele>206.600006104</ele>
        <time>2016-06-06T10:47:44.678Z</time>
      </trkpt>
      <trkpt lat="45.93978" lon="4.79813">
        <ele>206.600006104</ele>
        <time>2016-06-06T10:47:45.722Z</time>
      </trkpt>
      <trkpt lat="45.93979" lon="4.79803">
        <ele>206.800003052</ele>
        <time>2016-06-06T10:47:46.678Z</time>
      </trkpt>
      <trkpt lat="45.9398" lon="4.79793">
        <ele>206.600006104</ele>
        <time>2016-06-06T10:47:47.709Z</time>
      </trkpt>
      <trkpt lat="45.9398" lon="4.79783">
        <ele>206.300003052</ele>
        <time>2016-06-06T10:47:48.677Z</time>
      </trkpt>
      <trkpt lat="45.9398" lon="4.79773">
        <ele>206.5</ele>
        <time>2016-06-06T10:47:49.703Z</time>
      </trkpt>
      <trkpt lat="45.9398" lon="4.79763">
        <ele>206.800003052</ele>
        <time>2016-06-06T10:47:50.678Z</time>
      </trkpt>
      <trkpt lat="45.93978" lon="4.79753">
        <ele>207.199996948</ele>
        <time>2016-06-06T10:47:52.256Z</time>
      </trkpt>
      <trkpt lat="45.93977" lon="4.79743">
        <ele>207</ele>
        <time>2016-06-06T10:47:52.675Z</time>
      </trkpt>
      <trkpt lat="45.93976" lon="4.79733">
        <ele>207.100006104</ele>
        <time>2016-06-06T10:47:53.704Z</time>
      </trkpt>
      <trkpt lat="45.93975" lon="4.79724">
        <ele>207.399993896</ele>
        <time>2016-06-06T10:47:54.684Z</time>
      </trkpt>
      <trkpt lat="45.93973" lon="4.79714">
        <ele>207.5</ele>
        <time>2016-06-06T10:47:55.707Z</time>
      </trkpt>
      <trkpt lat="45.93972" lon="4.79705">
        <ele>207.600006104</ele>
        <time>2016-06-06T10:47:56.675Z</time>
      </trkpt>
      <trkpt lat="45.93971" lon="4.79696">
        <ele>207.899993896</ele>
        <time>2016-06-06T10:47:57.703Z</time>
      </trkpt>
      <trkpt lat="45.93971" lon="4.79686">
        <ele>207.699996948</ele>
        <time>2016-06-06T10:47:58.675Z</time>
      </trkpt>
      <trkpt lat="45.9397" lon="4.79676">
        <ele>207.300003052</ele>
        <time>2016-06-06T10:47:59.701Z</time>
      </trkpt>
      <trkpt lat="45.93969" lon="4.79667">
        <ele>207.399993896</ele>
        <time>2016-06-06T10:48:00.677Z</time>
      </trkpt>
      <trkpt lat="45.93968" lon="4.79657">
        <ele>207.399993896</ele>
        <time>2016-06-06T10:48:01.714Z</time>
      </trkpt>
      <trkpt lat="45.93968" lon="4.79646">
        <ele>207.5</ele>
        <time>2016-06-06T10:48:02.677Z</time>
      </trkpt>
      <trkpt lat="45.93967" lon="4.79635">
        <ele>207.800003052</ele>
        <time>2016-06-06T10:48:03.705Z</time>
      </trkpt>
      <trkpt lat="45.93966" lon="4.79625">
        <ele>208.199996948</ele>
        <time>2016-06-06T10:48:04.677Z</time>
      </trkpt>
      <trkpt lat="45.93966" lon="4.79614">
        <ele>208.100006104</ele>
        <time>2016-06-06T10:48:05.7Z</time>
      </trkpt>
      <trkpt lat="45.93966" lon="4.79604">
        <ele>208</ele>
        <time>2016-06-06T10:48:06.681Z</time>
      </trkpt>
      <trkpt lat="45.93965" lon="4.79594">
        <ele>208.100006104</ele>
        <time>2016-06-06T10:48:07.703Z</time>
      </trkpt>
      <trkpt lat="45.93964" lon="4.79584">
        <ele>208.300003052</ele>
        <time>2016-06-06T10:48:08.681Z</time>
      </trkpt>
      <trkpt lat="45.93964" lon="4.79574">
        <ele>208.5</ele>
        <time>2016-06-06T10:48:09.702Z</time>
      </trkpt>
      <trkpt lat="45.93963" lon="4.79564">
        <ele>209</ele>
        <time>2016-06-06T10:48:10.681Z</time>
      </trkpt>
      <trkpt lat="45.93963" lon="4.79554">
        <ele>208.899993896</ele>
        <time>2016-06-06T10:48:11.728Z</time>
      </trkpt>
      <trkpt lat="45.93962" lon="4.79543">
        <ele>209</ele>
        <time>2016-06-06T10:48:12.681Z</time>
      </trkpt>
      <trkpt lat="45.9396" lon="4.79533">
        <ele>208.899993896</ele>
        <time>2016-06-06T10:48:13.73Z</time>
      </trkpt>
      <trkpt lat="45.9396" lon="4.79522">
        <ele>208.800003052</ele>
        <time>2016-06-06T10:48:14.682Z</time>
      </trkpt>
      <trkpt lat="45.9396" lon="4.7951">
        <ele>208.699996948</ele>
        <time>2016-06-06T10:48:15.733Z</time>
      </trkpt>
      <trkpt lat="45.93959" lon="4.79499">
        <ele>208.699996948</ele>
        <time>2016-06-06T10:48:16.682Z</time>
      </trkpt>
      <trkpt lat="45.93959" lon="4.79487">
        <ele>208.699996948</ele>
        <time>2016-06-06T10:48:17.705Z</time>
      </trkpt>
      <trkpt lat="45.93958" lon="4.79476">
        <ele>208.199996948</ele>
        <time>2016-06-06T10:48:18.677Z</time>
      </trkpt>
      <trkpt lat="45.93957" lon="4.79464">
        <ele>207.699996948</ele>
        <time>2016-06-06T10:48:19.701Z</time>
      </trkpt>
      <trkpt lat="45.93956" lon="4.79451">
        <ele>207</ele>
        <time>2016-06-06T10:48:20.678Z</time>
      </trkpt>
      <trkpt lat="45.93956" lon="4.79439">
        <ele>206.699996948</ele>
        <time>2016-06-06T10:48:21.702Z</time>
      </trkpt>
      <trkpt lat="45.93956" lon="4.79427">
        <ele>206.600006104</ele>
        <time>2016-06-06T10:48:22.696Z</time>
      </trkpt>
      <trkpt lat="45.93956" lon="4.79415">
        <ele>206.5</ele>
        <time>2016-06-06T10:48:23.733Z</time>
      </trkpt>
      <trkpt lat="45.93956" lon="4.79403">
        <ele>206.100006104</ele>
        <time>2016-06-06T10:48:24.678Z</time>
      </trkpt>
      <trkpt lat="45.93956" lon="4.79403">
        <ele>206.100006104</ele>
        <time>2016-06-06T10:48:24.704Z</time>
      </trkpt>
      <trkpt lat="45.93957" lon="4.7939">
        <ele>205.399993896</ele>
        <time>2016-06-06T10:48:25.675Z</time>
      </trkpt>
      <trkpt lat="45.93957" lon="4.7939">
        <ele>205.399993896</ele>
        <time>2016-06-06T10:48:25.735Z</time>
      </trkpt>
      <trkpt lat="45.93957" lon="4.79377">
        <ele>204.699996948</ele>
        <time>2016-06-06T10:48:26.675Z</time>
      </trkpt>
      <trkpt lat="45.93956" lon="4.79365">
        <ele>204.199996948</ele>
        <time>2016-06-06T10:48:27.722Z</time>
      </trkpt>
      <trkpt lat="45.93956" lon="4.79352">
        <ele>203.800003052</ele>
        <time>2016-06-06T10:48:28.68Z</time>
      </trkpt>
      <trkpt lat="45.93955" lon="4.7934">
        <ele>203.5</ele>
        <time>2016-06-06T10:48:29.702Z</time>
      </trkpt>
      <trkpt lat="45.93954" lon="4.79328">
        <ele>203.300003052</ele>
        <time>2016-06-06T10:48:30.681Z</time>
      </trkpt>
      <trkpt lat="45.93954" lon="4.79316">
        <ele>203</ele>
        <time>2016-06-06T10:48:31.706Z</time>
      </trkpt>
      <trkpt lat="45.93953" lon="4.79303">
        <ele>202.800003052</ele>
        <time>2016-06-06T10:48:32.677Z</time>
      </trkpt>
      <trkpt lat="45.93953" lon="4.7929">
        <ele>202.699996948</ele>
        <time>2016-06-06T10:48:33.702Z</time>
      </trkpt>
      <trkpt lat="45.93953" lon="4.79278">
        <ele>202.600006104</ele>
        <time>2016-06-06T10:48:34.678Z</time>
      </trkpt>
      <trkpt lat="45.93953" lon="4.79265">
        <ele>202.100006104</ele>
        <time>2016-06-06T10:48:35.701Z</time>
      </trkpt>
      <trkpt lat="45.93953" lon="4.79252">
        <ele>202</ele>
        <time>2016-06-06T10:48:36.677Z</time>
      </trkpt>
      <trkpt lat="45.93952" lon="4.7924">
        <ele>201.899993896</ele>
        <time>2016-06-06T10:48:37.705Z</time>
      </trkpt>
      <trkpt lat="45.93953" lon="4.79228">
        <ele>201.399993896</ele>
        <time>2016-06-06T10:48:38.677Z</time>
      </trkpt>
      <trkpt lat="45.93953" lon="4.79216">
        <ele>201.100006104</ele>
        <time>2016-06-06T10:48:39.705Z</time>
      </trkpt>
      <trkpt lat="45.93953" lon="4.79205">
        <ele>201</ele>
        <time>2016-06-06T10:48:40.681Z</time>
      </trkpt>
      <trkpt lat="45.93953" lon="4.79193">
        <ele>200.800003052</ele>
        <time>2016-06-06T10:48:41.711Z</time>
      </trkpt>
      <trkpt lat="45.93953" lon="4.79182">
        <ele>200.699996948</ele>
        <time>2016-06-06T10:48:42.681Z</time>
      </trkpt>
      <trkpt lat="45.93954" lon="4.7917">
        <ele>200.399993896</ele>
        <time>2016-06-06T10:48:43.715Z</time>
      </trkpt>
      <trkpt lat="45.93954" lon="4.79158">
        <ele>200.199996948</ele>
        <time>2016-06-06T10:48:44.677Z</time>
      </trkpt>
      <trkpt lat="45.93955" lon="4.79147">
        <ele>200</ele>
        <time>2016-06-06T10:48:45.851Z</time>
      </trkpt>
      <trkpt lat="45.93955" lon="4.79135">
        <ele>199.800003052</ele>
        <time>2016-06-06T10:48:46.681Z</time>
      </trkpt>
      <trkpt lat="45.93953" lon="4.79123">
        <ele>199.5</ele>
        <time>2016-06-06T10:48:47.713Z</time>
      </trkpt>
      <trkpt lat="45.93953" lon="4.7911">
        <ele>199.699996948</ele>
        <time>2016-06-06T10:48:48.719Z</time>
      </trkpt>
      <trkpt lat="45.93953" lon="4.79097">
        <ele>199.899993896</ele>
        <time>2016-06-06T10:48:49.699Z</time>
      </trkpt>
      <trkpt lat="45.93953" lon="4.79084">
        <ele>200.300003052</ele>
        <time>2016-06-06T10:48:50.681Z</time>
      </trkpt>
      <trkpt lat="45.93953" lon="4.79071">
        <ele>200.600006104</ele>
        <time>2016-06-06T10:48:51.705Z</time>
      </trkpt>
      <trkpt lat="45.93953" lon="4.79059">
        <ele>200.800003052</ele>
        <time>2016-06-06T10:48:52.675Z</time>
      </trkpt>
      <trkpt lat="45.93953" lon="4.79059">
        <ele>200.800003052</ele>
        <time>2016-06-06T10:48:52.732Z</time>
      </trkpt>
      <trkpt lat="45.93953" lon="4.79046">
        <ele>200.600006104</ele>
        <time>2016-06-06T10:48:53.683Z</time>
      </trkpt>
      <trkpt lat="45.93953" lon="4.79033">
        <ele>200.199996948</ele>
        <time>2016-06-06T10:48:54.847Z</time>
      </trkpt>
      <trkpt lat="45.93952" lon="4.7902">
        <ele>200.399993896</ele>
        <time>2016-06-06T10:48:55.675Z</time>
      </trkpt>
      <trkpt lat="45.93951" lon="4.79008">
        <ele>200.300003052</ele>
        <time>2016-06-06T10:48:56.706Z</time>
      </trkpt>
      <trkpt lat="45.9395" lon="4.78996">
        <ele>200.300003052</ele>
        <time>2016-06-06T10:48:57.725Z</time>
      </trkpt>
      <trkpt lat="45.9395" lon="4.78984">
        <ele>200.5</ele>
        <time>2016-06-06T10:48:58.701Z</time>
      </trkpt>
      <trkpt lat="45.9395" lon="4.78972">
        <ele>200.199996948</ele>
        <time>2016-06-06T10:48:59.683Z</time>
      </trkpt>
      <trkpt lat="45.93949" lon="4.78961">
        <ele>200.199996948</ele>
        <time>2016-06-06T10:49:00.703Z</time>
      </trkpt>
      <trkpt lat="45.93948" lon="4.7895">
        <ele>199.699996948</ele>
        <time>2016-06-06T10:49:01.682Z</time>
      </trkpt>
      <trkpt lat="45.93948" lon="4.78939">
        <ele>199.5</ele>
        <time>2016-06-06T10:49:02.703Z</time>
      </trkpt>
      <trkpt lat="45.93947" lon="4.78928">
        <ele>198.899993896</ele>
        <time>2016-06-06T10:49:03.681Z</time>
      </trkpt>
      <trkpt lat="45.93947" lon="4.78917">
        <ele>198.600006104</ele>
        <time>2016-06-06T10:49:04.755Z</time>
      </trkpt>
      <trkpt lat="45.93947" lon="4.78906">
        <ele>197.899993896</ele>
        <time>2016-06-06T10:49:05.675Z</time>
      </trkpt>
      <trkpt lat="45.93946" lon="4.78895">
        <ele>197.600006104</ele>
        <time>2016-06-06T10:49:06.706Z</time>
      </trkpt>
      <trkpt lat="45.93945" lon="4.78885">
        <ele>197.300003052</ele>
        <time>2016-06-06T10:49:07.682Z</time>
      </trkpt>
      <trkpt lat="45.93945" lon="4.78874">
        <ele>197.100006104</ele>
        <time>2016-06-06T10:49:08.7Z</time>
      </trkpt>
      <trkpt lat="45.93944" lon="4.78863">
        <ele>197</ele>
        <time>2016-06-06T10:49:09.681Z</time>
      </trkpt>
      <trkpt lat="45.93944" lon="4.78852">
        <ele>197</ele>
        <time>2016-06-06T10:49:10.716Z</time>
      </trkpt>
      <trkpt lat="45.93943" lon="4.78841">
        <ele>196.699996948</ele>
        <time>2016-06-06T10:49:11.679Z</time>
      </trkpt>
      <trkpt lat="45.93943" lon="4.7883">
        <ele>196.300003052</ele>
        <time>2016-06-06T10:49:12.699Z</time>
      </trkpt>
      <trkpt lat="45.93942" lon="4.78819">
        <ele>196.399993896</ele>
        <time>2016-06-06T10:49:13.677Z</time>
      </trkpt>
      <trkpt lat="45.93941" lon="4.78809">
        <ele>196.199996948</ele>
        <time>2016-06-06T10:49:14.7Z</time>
      </trkpt>
      <trkpt lat="45.93941" lon="4.78799">
        <ele>196</ele>
        <time>2016-06-06T10:49:15.685Z</time>
      </trkpt>
      <trkpt lat="45.93941" lon="4.78789">
        <ele>195.899993896</ele>
        <time>2016-06-06T10:49:16.967Z</time>
      </trkpt>
      <trkpt lat="45.93941" lon="4.7878">
        <ele>195.699996948</ele>
        <time>2016-06-06T10:49:17.685Z</time>
      </trkpt>
      <trkpt lat="45.93941" lon="4.78771">
        <ele>195.800003052</ele>
        <time>2016-06-06T10:49:18.702Z</time>
      </trkpt>
      <trkpt lat="45.93941" lon="4.78762">
        <ele>195.699996948</ele>
        <time>2016-06-06T10:49:19.675Z</time>
      </trkpt>
      <trkpt lat="45.93942" lon="4.78753">
        <ele>195.5</ele>
        <time>2016-06-06T10:49:20.719Z</time>
      </trkpt>
      <trkpt lat="45.93942" lon="4.78745">
        <ele>195.5</ele>
        <time>2016-06-06T10:49:21.685Z</time>
      </trkpt>
      <trkpt lat="45.93942" lon="4.78738">
        <ele>195.399993896</ele>
        <time>2016-06-06T10:49:22.716Z</time>
      </trkpt>
      <trkpt lat="45.93942" lon="4.7873">
        <ele>195.199996948</ele>
        <time>2016-06-06T10:49:23.681Z</time>
      </trkpt>
      <trkpt lat="45.93942" lon="4.78723">
        <ele>195.199996948</ele>
        <time>2016-06-06T10:49:24.704Z</time>
      </trkpt>
      <trkpt lat="45.93942" lon="4.78716">
        <ele>195.199996948</ele>
        <time>2016-06-06T10:49:25.677Z</time>
      </trkpt>
      <trkpt lat="45.93942" lon="4.78708">
        <ele>195.300003052</ele>
        <time>2016-06-06T10:49:26.735Z</time>
      </trkpt>
      <trkpt lat="45.93942" lon="4.787">
        <ele>194.899993896</ele>
        <time>2016-06-06T10:49:27.685Z</time>
      </trkpt>
      <trkpt lat="45.93943" lon="4.78692">
        <ele>194.899993896</ele>
        <time>2016-06-06T10:49:28.704Z</time>
      </trkpt>
      <trkpt lat="45.93943" lon="4.78683">
        <ele>194.899993896</ele>
        <time>2016-06-06T10:49:29.683Z</time>
      </trkpt>
      <trkpt lat="45.93943" lon="4.78675">
        <ele>194.899993896</ele>
        <time>2016-06-06T10:49:30.703Z</time>
      </trkpt>
      <trkpt lat="45.93943" lon="4.78667">
        <ele>194.899993896</ele>
        <time>2016-06-06T10:49:31.677Z</time>
      </trkpt>
      <trkpt lat="45.93943" lon="4.78659">
        <ele>194.899993896</ele>
        <time>2016-06-06T10:49:32.728Z</time>
      </trkpt>
      <trkpt lat="45.93942" lon="4.7865">
        <ele>194.699996948</ele>
        <time>2016-06-06T10:49:33.684Z</time>
      </trkpt>
      <trkpt lat="45.93941" lon="4.78642">
        <ele>194.5</ele>
        <time>2016-06-06T10:49:34.699Z</time>
      </trkpt>
      <trkpt lat="45.93941" lon="4.78635">
        <ele>194.399993896</ele>
        <time>2016-06-06T10:49:35.675Z</time>
      </trkpt>
      <trkpt lat="45.93941" lon="4.78627">
        <ele>194.5</ele>
        <time>2016-06-06T10:49:36.699Z</time>
      </trkpt>
      <trkpt lat="45.9394" lon="4.78619">
        <ele>194.5</ele>
        <time>2016-06-06T10:49:37.682Z</time>
      </trkpt>
      <trkpt lat="45.9394" lon="4.78612">
        <ele>194.399993896</ele>
        <time>2016-06-06T10:49:38.703Z</time>
      </trkpt>
      <trkpt lat="45.9394" lon="4.78605">
        <ele>194.800003052</ele>
        <time>2016-06-06T10:49:39.68Z</time>
      </trkpt>
      <trkpt lat="45.9394" lon="4.78597">
        <ele>195</ele>
        <time>2016-06-06T10:49:40.703Z</time>
      </trkpt>
      <trkpt lat="45.9394" lon="4.7859">
        <ele>194.800003052</ele>
        <time>2016-06-06T10:49:41.698Z</time>
      </trkpt>
      <trkpt lat="45.93939" lon="4.78583">
        <ele>194.899993896</ele>
        <time>2016-06-06T10:49:42.727Z</time>
      </trkpt>
      <trkpt lat="45.93939" lon="4.78577">
        <ele>195.100006104</ele>
        <time>2016-06-06T10:49:43.681Z</time>
      </trkpt>
      <trkpt lat="45.93939" lon="4.78566">
        <ele>195.600006104</ele>
        <time>2016-06-06T10:49:45.755Z</time>
      </trkpt>
      <trkpt lat="45.93939" lon="4.78563">
        <ele>195.699996948</ele>
        <time>2016-06-06T10:49:46.677Z</time>
      </trkpt>
      <trkpt lat="45.93939" lon="4.78563">
        <ele>195.699996948</ele>
        <time>2016-06-06T10:49:46.7Z</time>
      </trkpt>
      <trkpt lat="45.93939" lon="4.78562">
        <ele>195.699996948</ele>
        <time>2016-06-06T10:49:47.684Z</time>
      </trkpt>
      <trkpt lat="45.93938" lon="4.78553">
        <ele>195.699996948</ele>
        <time>2016-06-06T10:49:53.702Z</time>
      </trkpt>
      <trkpt lat="45.93938" lon="4.7855">
        <ele>195.800003052</ele>
        <time>2016-06-06T10:49:54.673Z</time>
      </trkpt>
      <trkpt lat="45.9394" lon="4.78538">
        <ele>196.300003052</ele>
        <time>2016-06-06T10:49:58.702Z</time>
      </trkpt>
      <trkpt lat="45.9394" lon="4.78534">
        <ele>196.399993896</ele>
        <time>2016-06-06T10:49:59.682Z</time>
      </trkpt>
      <trkpt lat="45.9394" lon="4.78524">
        <ele>196.199996948</ele>
        <time>2016-06-06T10:50:01.699Z</time>
      </trkpt>
      <trkpt lat="45.93941" lon="4.78519">
        <ele>196.5</ele>
        <time>2016-06-06T10:50:02.695Z</time>
      </trkpt>
      <trkpt lat="45.93941" lon="4.78508">
        <ele>196.699996948</ele>
        <time>2016-06-06T10:50:04.699Z</time>
      </trkpt>
      <trkpt lat="45.93941" lon="4.78502">
        <ele>197.100006104</ele>
        <time>2016-06-06T10:50:05.675Z</time>
      </trkpt>
      <trkpt lat="45.93944" lon="4.78491">
        <ele>197.699996948</ele>
        <time>2016-06-06T10:50:07.721Z</time>
      </trkpt>
      <trkpt lat="45.93945" lon="4.78485">
        <ele>197.899993896</ele>
        <time>2016-06-06T10:50:08.677Z</time>
      </trkpt>
      <trkpt lat="45.93946" lon="4.78474">
        <ele>198.300003052</ele>
        <time>2016-06-06T10:50:10.703Z</time>
      </trkpt>
      <trkpt lat="45.93947" lon="4.78469">
        <ele>198.300003052</ele>
        <time>2016-06-06T10:50:11.678Z</time>
      </trkpt>
      <trkpt lat="45.93947" lon="4.78457">
        <ele>198.399993896</ele>
        <time>2016-06-06T10:50:13.699Z</time>
      </trkpt>
      <trkpt lat="45.93947" lon="4.7845">
        <ele>198.600006104</ele>
        <time>2016-06-06T10:50:14.676Z</time>
      </trkpt>
      <trkpt lat="45.93948" lon="4.78444">
        <ele>198.800003052</ele>
        <time>2016-06-06T10:50:15.705Z</time>
      </trkpt>
      <trkpt lat="45.93948" lon="4.78437">
        <ele>198.699996948</ele>
        <time>2016-06-06T10:50:16.675Z</time>
      </trkpt>
      <trkpt lat="45.93949" lon="4.7843">
        <ele>199.100006104</ele>
        <time>2016-06-06T10:50:17.707Z</time>
      </trkpt>
      <trkpt lat="45.9395" lon="4.78423">
        <ele>199.100006104</ele>
        <time>2016-06-06T10:50:18.675Z</time>
      </trkpt>
      <trkpt lat="45.93951" lon="4.78415">
        <ele>199.300003052</ele>
        <time>2016-06-06T10:50:19.702Z</time>
      </trkpt>
      <trkpt lat="45.93952" lon="4.78407">
        <ele>199.5</ele>
        <time>2016-06-06T10:50:20.675Z</time>
      </trkpt>
      <trkpt lat="45.93952" lon="4.78399">
        <ele>198.800003052</ele>
        <time>2016-06-06T10:50:21.704Z</time>
      </trkpt>
      <trkpt lat="45.93953" lon="4.78392">
        <ele>198.899993896</ele>
        <time>2016-06-06T10:50:22.677Z</time>
      </trkpt>
      <trkpt lat="45.93954" lon="4.78384">
        <ele>198.699996948</ele>
        <time>2016-06-06T10:50:23.701Z</time>
      </trkpt>
      <trkpt lat="45.93955" lon="4.78377">
        <ele>198.600006104</ele>
        <time>2016-06-06T10:50:24.68Z</time>
      </trkpt>
      <trkpt lat="45.93956" lon="4.7837">
        <ele>198.5</ele>
        <time>2016-06-06T10:50:25.702Z</time>
      </trkpt>
      <trkpt lat="45.93956" lon="4.78363">
        <ele>198.399993896</ele>
        <time>2016-06-06T10:50:26.677Z</time>
      </trkpt>
      <trkpt lat="45.93957" lon="4.78355">
        <ele>198.399993896</ele>
        <time>2016-06-06T10:50:27.704Z</time>
      </trkpt>
      <trkpt lat="45.93958" lon="4.78348">
        <ele>198.399993896</ele>
        <time>2016-06-06T10:50:28.694Z</time>
      </trkpt>
      <trkpt lat="45.93959" lon="4.78341">
        <ele>198.5</ele>
        <time>2016-06-06T10:50:29.703Z</time>
      </trkpt>
      <trkpt lat="45.9396" lon="4.78334">
        <ele>198.600006104</ele>
        <time>2016-06-06T10:50:30.675Z</time>
      </trkpt>
      <trkpt lat="45.93961" lon="4.78328">
        <ele>198.600006104</ele>
        <time>2016-06-06T10:50:31.703Z</time>
      </trkpt>
      <trkpt lat="45.93962" lon="4.78322">
        <ele>198.399993896</ele>
        <time>2016-06-06T10:50:32.677Z</time>
      </trkpt>
      <trkpt lat="45.93962" lon="4.78315">
        <ele>198.199996948</ele>
        <time>2016-06-06T10:50:33.747Z</time>
      </trkpt>
      <trkpt lat="45.93963" lon="4.78308">
        <ele>198</ele>
        <time>2016-06-06T10:50:34.675Z</time>
      </trkpt>
      <trkpt lat="45.93962" lon="4.78302">
        <ele>198.100006104</ele>
        <time>2016-06-06T10:50:35.703Z</time>
      </trkpt>
      <trkpt lat="45.93965" lon="4.78295">
        <ele>197.699996948</ele>
        <time>2016-06-06T10:50:36.677Z</time>
      </trkpt>
      <trkpt lat="45.93968" lon="4.78289">
        <ele>197.100006104</ele>
        <time>2016-06-06T10:50:37.702Z</time>
      </trkpt>
      <trkpt lat="45.93969" lon="4.78282">
        <ele>197.300003052</ele>
        <time>2016-06-06T10:50:38.68Z</time>
      </trkpt>
      <trkpt lat="45.9397" lon="4.78274">
        <ele>197.5</ele>
        <time>2016-06-06T10:50:39.704Z</time>
      </trkpt>
      <trkpt lat="45.93972" lon="4.78267">
        <ele>197.600006104</ele>
        <time>2016-06-06T10:50:40.68Z</time>
      </trkpt>
      <trkpt lat="45.93973" lon="4.7826">
        <ele>197.800003052</ele>
        <time>2016-06-06T10:50:41.759Z</time>
      </trkpt>
      <trkpt lat="45.93974" lon="4.78253">
        <ele>197.800003052</ele>
        <time>2016-06-06T10:50:42.675Z</time>
      </trkpt>
      <trkpt lat="45.93973" lon="4.78245">
        <ele>197.899993896</ele>
        <time>2016-06-06T10:50:43.702Z</time>
      </trkpt>
      <trkpt lat="45.93974" lon="4.78239">
        <ele>198</ele>
        <time>2016-06-06T10:50:44.677Z</time>
      </trkpt>
      <trkpt lat="45.93974" lon="4.78232">
        <ele>197.899993896</ele>
        <time>2016-06-06T10:50:45.851Z</time>
      </trkpt>
      <trkpt lat="45.93975" lon="4.78225">
        <ele>198</ele>
        <time>2016-06-06T10:50:46.681Z</time>
      </trkpt>
      <trkpt lat="45.93976" lon="4.78219">
        <ele>198</ele>
        <time>2016-06-06T10:50:47.703Z</time>
      </trkpt>
      <trkpt lat="45.93977" lon="4.78212">
        <ele>198</ele>
        <time>2016-06-06T10:50:48.675Z</time>
      </trkpt>
      <trkpt lat="45.93977" lon="4.78205">
        <ele>198.100006104</ele>
        <time>2016-06-06T10:50:49.719Z</time>
      </trkpt>
      <trkpt lat="45.93978" lon="4.78199">
        <ele>198.100006104</ele>
        <time>2016-06-06T10:50:50.681Z</time>
      </trkpt>
      <trkpt lat="45.93979" lon="4.78186">
        <ele>198</ele>
        <time>2016-06-06T10:50:52.698Z</time>
      </trkpt>
      <trkpt lat="45.9398" lon="4.78181">
        <ele>197.899993896</ele>
        <time>2016-06-06T10:50:53.678Z</time>
      </trkpt>
      <trkpt lat="45.93984" lon="4.78171">
        <ele>198.100006104</ele>
        <time>2016-06-06T10:50:55.702Z</time>
      </trkpt>
      <trkpt lat="45.93985" lon="4.78166">
        <ele>198.600006104</ele>
        <time>2016-06-06T10:50:56.68Z</time>
      </trkpt>
      <trkpt lat="45.93989" lon="4.78157">
        <ele>198.399993896</ele>
        <time>2016-06-06T10:50:58.701Z</time>
      </trkpt>
      <trkpt lat="45.9399" lon="4.78151">
        <ele>198.100006104</ele>
        <time>2016-06-06T10:50:59.678Z</time>
      </trkpt>
      <trkpt lat="45.93991" lon="4.78139">
        <ele>198.100006104</ele>
        <time>2016-06-06T10:51:01.699Z</time>
      </trkpt>
      <trkpt lat="45.93992" lon="4.78133">
        <ele>198</ele>
        <time>2016-06-06T10:51:02.68Z</time>
      </trkpt>
      <trkpt lat="45.93995" lon="4.78122">
        <ele>197.699996948</ele>
        <time>2016-06-06T10:51:04.726Z</time>
      </trkpt>
      <trkpt lat="45.93996" lon="4.78116">
        <ele>197.300003052</ele>
        <time>2016-06-06T10:51:05.681Z</time>
      </trkpt>
      <trkpt lat="45.93998" lon="4.78109">
        <ele>197.100006104</ele>
        <time>2016-06-06T10:51:06.698Z</time>
      </trkpt>
      <trkpt lat="45.93999" lon="4.78101">
        <ele>197</ele>
        <time>2016-06-06T10:51:07.689Z</time>
      </trkpt>
      <trkpt lat="45.94" lon="4.78094">
        <ele>197</ele>
        <time>2016-06-06T10:51:08.703Z</time>
      </trkpt>
      <trkpt lat="45.94001" lon="4.78086">
        <ele>197.300003052</ele>
        <time>2016-06-06T10:51:09.679Z</time>
      </trkpt>
      <trkpt lat="45.94002" lon="4.78079">
        <ele>197.399993896</ele>
        <time>2016-06-06T10:51:10.739Z</time>
      </trkpt>
      <trkpt lat="45.94004" lon="4.78072">
        <ele>197.199996948</ele>
        <time>2016-06-06T10:51:11.678Z</time>
      </trkpt>
      <trkpt lat="45.94005" lon="4.78065">
        <ele>197.399993896</ele>
        <time>2016-06-06T10:51:12.713Z</time>
      </trkpt>
      <trkpt lat="45.94007" lon="4.78058">
        <ele>197.600006104</ele>
        <time>2016-06-06T10:51:13.704Z</time>
      </trkpt>
      <trkpt lat="45.94008" lon="4.78051">
        <ele>197.600006104</ele>
        <time>2016-06-06T10:51:14.704Z</time>
      </trkpt>
      <trkpt lat="45.9401" lon="4.78045">
        <ele>198.399993896</ele>
        <time>2016-06-06T10:51:15.685Z</time>
      </trkpt>
      <trkpt lat="45.94011" lon="4.78038">
        <ele>198.600006104</ele>
        <time>2016-06-06T10:51:16.703Z</time>
      </trkpt>
      <trkpt lat="45.94012" lon="4.78031">
        <ele>198.300003052</ele>
        <time>2016-06-06T10:51:17.687Z</time>
      </trkpt>
      <trkpt lat="45.94013" lon="4.78024">
        <ele>198.5</ele>
        <time>2016-06-06T10:51:18.698Z</time>
      </trkpt>
      <trkpt lat="45.94014" lon="4.78017">
        <ele>198.100006104</ele>
        <time>2016-06-06T10:51:19.675Z</time>
      </trkpt>
      <trkpt lat="45.94016" lon="4.7801">
        <ele>197.899993896</ele>
        <time>2016-06-06T10:51:20.698Z</time>
      </trkpt>
      <trkpt lat="45.94017" lon="4.78003">
        <ele>197.899993896</ele>
        <time>2016-06-06T10:51:21.681Z</time>
      </trkpt>
      <trkpt lat="45.94017" lon="4.77995">
        <ele>197.699996948</ele>
        <time>2016-06-06T10:51:22.731Z</time>
      </trkpt>
      <trkpt lat="45.94018" lon="4.77988">
        <ele>197.600006104</ele>
        <time>2016-06-06T10:51:23.681Z</time>
      </trkpt>
      <trkpt lat="45.94019" lon="4.7798">
        <ele>197.600006104</ele>
        <time>2016-06-06T10:51:24.698Z</time>
      </trkpt>
      <trkpt lat="45.94021" lon="4.77972">
        <ele>197.399993896</ele>
        <time>2016-06-06T10:51:25.675Z</time>
      </trkpt>
      <trkpt lat="45.94022" lon="4.77964">
        <ele>197.199996948</ele>
        <time>2016-06-06T10:51:26.702Z</time>
      </trkpt>
      <trkpt lat="45.94023" lon="4.77956">
        <ele>196.899993896</ele>
        <time>2016-06-06T10:51:27.683Z</time>
      </trkpt>
      <trkpt lat="45.94025" lon="4.77948">
        <ele>196.899993896</ele>
        <time>2016-06-06T10:51:28.698Z</time>
      </trkpt>
      <trkpt lat="45.94027" lon="4.7794">
        <ele>196.399993896</ele>
        <time>2016-06-06T10:51:29.675Z</time>
      </trkpt>
      <trkpt lat="45.94028" lon="4.77933">
        <ele>196</ele>
        <time>2016-06-06T10:51:30.702Z</time>
      </trkpt>
      <trkpt lat="45.94025" lon="4.77927">
        <ele>195.899993896</ele>
        <time>2016-06-06T10:51:31.689Z</time>
      </trkpt>
      <trkpt lat="45.94021" lon="4.77923">
        <ele>195</ele>
        <time>2016-06-06T10:51:32.702Z</time>
      </trkpt>
      <trkpt lat="45.94016" lon="4.77922">
        <ele>194.600006104</ele>
        <time>2016-06-06T10:51:33.685Z</time>
      </trkpt>
      <trkpt lat="45.94011" lon="4.77922">
        <ele>194.300003052</ele>
        <time>2016-06-06T10:51:34.703Z</time>
      </trkpt>
      <trkpt lat="45.94004" lon="4.77924">
        <ele>193.899993896</ele>
        <time>2016-06-06T10:51:35.681Z</time>
      </trkpt>
      <trkpt lat="45.93998" lon="4.77926">
        <ele>193.300003052</ele>
        <time>2016-06-06T10:51:36.715Z</time>
      </trkpt>
      <trkpt lat="45.93992" lon="4.77929">
        <ele>192.699996948</ele>
        <time>2016-06-06T10:51:37.681Z</time>
      </trkpt>
      <trkpt lat="45.93985" lon="4.77933">
        <ele>192.300003052</ele>
        <time>2016-06-06T10:51:38.709Z</time>
      </trkpt>
      <trkpt lat="45.93978" lon="4.77939">
        <ele>192</ele>
        <time>2016-06-06T10:51:39.681Z</time>
      </trkpt>
      <trkpt lat="45.93978" lon="4.77939">
        <ele>192</ele>
        <time>2016-06-06T10:51:39.702Z</time>
      </trkpt>
      <trkpt lat="45.9397" lon="4.77945">
        <ele>191.699996948</ele>
        <time>2016-06-06T10:51:40.68Z</time>
      </trkpt>
      <trkpt lat="45.93962" lon="4.77951">
        <ele>191.399993896</ele>
        <time>2016-06-06T10:51:41.703Z</time>
      </trkpt>
      <trkpt lat="45.93954" lon="4.77957">
        <ele>191.100006104</ele>
        <time>2016-06-06T10:51:42.675Z</time>
      </trkpt>
      <trkpt lat="45.93954" lon="4.77957">
        <ele>191.100006104</ele>
        <time>2016-06-06T10:51:42.706Z</time>
      </trkpt>
      <trkpt lat="45.93945" lon="4.77964">
        <ele>190.800003052</ele>
        <time>2016-06-06T10:51:43.675Z</time>
      </trkpt>
      <trkpt lat="45.93937" lon="4.7797">
        <ele>190.5</ele>
        <time>2016-06-06T10:51:44.698Z</time>
      </trkpt>
      <trkpt lat="45.93929" lon="4.77974">
        <ele>190.199996948</ele>
        <time>2016-06-06T10:51:45.679Z</time>
      </trkpt>
      <trkpt lat="45.9392" lon="4.77979">
        <ele>189.800003052</ele>
        <time>2016-06-06T10:51:46.698Z</time>
      </trkpt>
      <trkpt lat="45.93914" lon="4.77985">
        <ele>189.600006104</ele>
        <time>2016-06-06T10:51:47.683Z</time>
      </trkpt>
      <trkpt lat="45.93908" lon="4.77992">
        <ele>189.300003052</ele>
        <time>2016-06-06T10:51:48.702Z</time>
      </trkpt>
      <trkpt lat="45.93901" lon="4.77999">
        <ele>188.300003052</ele>
        <time>2016-06-06T10:51:49.675Z</time>
      </trkpt>
      <trkpt lat="45.93896" lon="4.78006">
        <ele>187.899993896</ele>
        <time>2016-06-06T10:51:50.698Z</time>
      </trkpt>
      <trkpt lat="45.93891" lon="4.78011">
        <ele>187.5</ele>
        <time>2016-06-06T10:51:51.681Z</time>
      </trkpt>
      <trkpt lat="45.93886" lon="4.78015">
        <ele>187.100006104</ele>
        <time>2016-06-06T10:51:52.715Z</time>
      </trkpt>
      <trkpt lat="45.93882" lon="4.78016">
        <ele>186.899993896</ele>
        <time>2016-06-06T10:51:53.675Z</time>
      </trkpt>
      <trkpt lat="45.93876" lon="4.78012">
        <ele>186.899993896</ele>
        <time>2016-06-06T10:51:54.706Z</time>
      </trkpt>
      <trkpt lat="45.93871" lon="4.78007">
        <ele>186.699996948</ele>
        <time>2016-06-06T10:51:55.68Z</time>
      </trkpt>
      <trkpt lat="45.93865" lon="4.78001">
        <ele>186.399993896</ele>
        <time>2016-06-06T10:51:56.701Z</time>
      </trkpt>
      <trkpt lat="45.9386" lon="4.77996">
        <ele>186.300003052</ele>
        <time>2016-06-06T10:51:57.682Z</time>
      </trkpt>
      <trkpt lat="45.93854" lon="4.77993">
        <ele>186</ele>
        <time>2016-06-06T10:51:58.701Z</time>
      </trkpt>
      <trkpt lat="45.93849" lon="4.77988">
        <ele>185.600006104</ele>
        <time>2016-06-06T10:51:59.687Z</time>
      </trkpt>
      <trkpt lat="45.93845" lon="4.77983">
        <ele>185.199996948</ele>
        <time>2016-06-06T10:52:00.703Z</time>
      </trkpt>
      <trkpt lat="45.93841" lon="4.77977">
        <ele>185.300003052</ele>
        <time>2016-06-06T10:52:01.675Z</time>
      </trkpt>
      <trkpt lat="45.93837" lon="4.77971">
        <ele>184.899993896</ele>
        <time>2016-06-06T10:52:02.702Z</time>
      </trkpt>
      <trkpt lat="45.93833" lon="4.77966">
        <ele>184.600006104</ele>
        <time>2016-06-06T10:52:03.682Z</time>
      </trkpt>
      <trkpt lat="45.93829" lon="4.77961">
        <ele>184.699996948</ele>
        <time>2016-06-06T10:52:04.702Z</time>
      </trkpt>
      <trkpt lat="45.93825" lon="4.77957">
        <ele>184.699996948</ele>
        <time>2016-06-06T10:52:05.676Z</time>
      </trkpt>
      <trkpt lat="45.93821" lon="4.77952">
        <ele>184.800003052</ele>
        <time>2016-06-06T10:52:06.702Z</time>
      </trkpt>
      <trkpt lat="45.93817" lon="4.77947">
        <ele>184.5</ele>
        <time>2016-06-06T10:52:07.683Z</time>
      </trkpt>
      <trkpt lat="45.93813" lon="4.77943">
        <ele>184.5</ele>
        <time>2016-06-06T10:52:08.713Z</time>
      </trkpt>
      <trkpt lat="45.9381" lon="4.77938">
        <ele>184.399993896</ele>
        <time>2016-06-06T10:52:09.681Z</time>
      </trkpt>
      <trkpt lat="45.93804" lon="4.7793">
        <ele>184.5</ele>
        <time>2016-06-06T10:52:11.703Z</time>
      </trkpt>
      <trkpt lat="45.93801" lon="4.77925">
        <ele>184.5</ele>
        <time>2016-06-06T10:52:12.675Z</time>
      </trkpt>
      <trkpt lat="45.93798" lon="4.7792">
        <ele>184.199996948</ele>
        <time>2016-06-06T10:52:13.714Z</time>
      </trkpt>
      <trkpt lat="45.93794" lon="4.77915">
        <ele>183.800003052</ele>
        <time>2016-06-06T10:52:14.675Z</time>
      </trkpt>
      <trkpt lat="45.9379" lon="4.7791">
        <ele>183.899993896</ele>
        <time>2016-06-06T10:52:15.702Z</time>
      </trkpt>
      <trkpt lat="45.93786" lon="4.77906">
        <ele>184</ele>
        <time>2016-06-06T10:52:16.677Z</time>
      </trkpt>
      <trkpt lat="45.93782" lon="4.77901">
        <ele>183.800003052</ele>
        <time>2016-06-06T10:52:17.703Z</time>
      </trkpt>
      <trkpt lat="45.93779" lon="4.77896">
        <ele>183.699996948</ele>
        <time>2016-06-06T10:52:18.675Z</time>
      </trkpt>
      <trkpt lat="45.93775" lon="4.77891">
        <ele>183.800003052</ele>
        <time>2016-06-06T10:52:19.699Z</time>
      </trkpt>
      <trkpt lat="45.93771" lon="4.77887">
        <ele>183.600006104</ele>
        <time>2016-06-06T10:52:20.679Z</time>
      </trkpt>
      <trkpt lat="45.93767" lon="4.77882">
        <ele>183.399993896</ele>
        <time>2016-06-06T10:52:21.73Z</time>
      </trkpt>
      <trkpt lat="45.93763" lon="4.77876">
        <ele>183.699996948</ele>
        <time>2016-06-06T10:52:22.68Z</time>
      </trkpt>
      <trkpt lat="45.93759" lon="4.77871">
        <ele>183.899993896</ele>
        <time>2016-06-06T10:52:23.703Z</time>
      </trkpt>
      <trkpt lat="45.93755" lon="4.77866">
        <ele>184</ele>
        <time>2016-06-06T10:52:24.675Z</time>
      </trkpt>
      <trkpt lat="45.93751" lon="4.7786">
        <ele>184</ele>
        <time>2016-06-06T10:52:25.712Z</time>
      </trkpt>
      <trkpt lat="45.93747" lon="4.77855">
        <ele>184.100006104</ele>
        <time>2016-06-06T10:52:26.68Z</time>
      </trkpt>
      <trkpt lat="45.93743" lon="4.7785">
        <ele>184.100006104</ele>
        <time>2016-06-06T10:52:27.708Z</time>
      </trkpt>
      <trkpt lat="45.93739" lon="4.77845">
        <ele>184.699996948</ele>
        <time>2016-06-06T10:52:28.678Z</time>
      </trkpt>
      <trkpt lat="45.93735" lon="4.7784">
        <ele>184.800003052</ele>
        <time>2016-06-06T10:52:29.745Z</time>
      </trkpt>
      <trkpt lat="45.9373" lon="4.77834">
        <ele>184.800003052</ele>
        <time>2016-06-06T10:52:30.68Z</time>
      </trkpt>
      <trkpt lat="45.93726" lon="4.77828">
        <ele>184.699996948</ele>
        <time>2016-06-06T10:52:31.701Z</time>
      </trkpt>
      <trkpt lat="45.93722" lon="4.77823">
        <ele>184.5</ele>
        <time>2016-06-06T10:52:32.676Z</time>
      </trkpt>
      <trkpt lat="45.93718" lon="4.77817">
        <ele>184.399993896</ele>
        <time>2016-06-06T10:52:33.704Z</time>
      </trkpt>
      <trkpt lat="45.93714" lon="4.77812">
        <ele>184</ele>
        <time>2016-06-06T10:52:34.693Z</time>
      </trkpt>
      <trkpt lat="45.93709" lon="4.77806">
        <ele>184.100006104</ele>
        <time>2016-06-06T10:52:35.702Z</time>
      </trkpt>
      <trkpt lat="45.93705" lon="4.778">
        <ele>184.399993896</ele>
        <time>2016-06-06T10:52:36.675Z</time>
      </trkpt>
      <trkpt lat="45.937" lon="4.77794">
        <ele>184.399993896</ele>
        <time>2016-06-06T10:52:37.707Z</time>
      </trkpt>
      <trkpt lat="45.93695" lon="4.77788">
        <ele>184.300003052</ele>
        <time>2016-06-06T10:52:38.68Z</time>
      </trkpt>
      <trkpt lat="45.9369" lon="4.77781">
        <ele>184.300003052</ele>
        <time>2016-06-06T10:52:39.717Z</time>
      </trkpt>
      <trkpt lat="45.93686" lon="4.77774">
        <ele>184.199996948</ele>
        <time>2016-06-06T10:52:40.682Z</time>
      </trkpt>
      <trkpt lat="45.93681" lon="4.77767">
        <ele>184.100006104</ele>
        <time>2016-06-06T10:52:41.699Z</time>
      </trkpt>
      <trkpt lat="45.93676" lon="4.7776">
        <ele>183.800003052</ele>
        <time>2016-06-06T10:52:42.677Z</time>
      </trkpt>
      <trkpt lat="45.93672" lon="4.77753">
        <ele>183.600006104</ele>
        <time>2016-06-06T10:52:43.698Z</time>
      </trkpt>
      <trkpt lat="45.93666" lon="4.77745">
        <ele>183.100006104</ele>
        <time>2016-06-06T10:52:44.702Z</time>
      </trkpt>
      <trkpt lat="45.93661" lon="4.77737">
        <ele>182.800003052</ele>
        <time>2016-06-06T10:52:45.819Z</time>
      </trkpt>
      <trkpt lat="45.93657" lon="4.77729">
        <ele>182.300003052</ele>
        <time>2016-06-06T10:52:46.679Z</time>
      </trkpt>
      <trkpt lat="45.93652" lon="4.7772">
        <ele>181.899993896</ele>
        <time>2016-06-06T10:52:47.708Z</time>
      </trkpt>
      <trkpt lat="45.93647" lon="4.77711">
        <ele>181.5</ele>
        <time>2016-06-06T10:52:48.675Z</time>
      </trkpt>
      <trkpt lat="45.93642" lon="4.77702">
        <ele>181.100006104</ele>
        <time>2016-06-06T10:52:49.699Z</time>
      </trkpt>
      <trkpt lat="45.93637" lon="4.77692">
        <ele>180.699996948</ele>
        <time>2016-06-06T10:52:50.675Z</time>
      </trkpt>
      <trkpt lat="45.93632" lon="4.77683">
        <ele>180.399993896</ele>
        <time>2016-06-06T10:52:51.711Z</time>
      </trkpt>
      <trkpt lat="45.93628" lon="4.77673">
        <ele>180</ele>
        <time>2016-06-06T10:52:52.677Z</time>
      </trkpt>
      <trkpt lat="45.93624" lon="4.77663">
        <ele>179.800003052</ele>
        <time>2016-06-06T10:52:53.7Z</time>
      </trkpt>
      <trkpt lat="45.9362" lon="4.77654">
        <ele>179.699996948</ele>
        <time>2016-06-06T10:52:54.675Z</time>
      </trkpt>
      <trkpt lat="45.93616" lon="4.77644">
        <ele>179.399993896</ele>
        <time>2016-06-06T10:52:55.714Z</time>
      </trkpt>
      <trkpt lat="45.93613" lon="4.77635">
        <ele>178.899993896</ele>
        <time>2016-06-06T10:52:56.678Z</time>
      </trkpt>
      <trkpt lat="45.93609" lon="4.77626">
        <ele>177.800003052</ele>
        <time>2016-06-06T10:52:57.714Z</time>
      </trkpt>
      <trkpt lat="45.93606" lon="4.77617">
        <ele>177.899993896</ele>
        <time>2016-06-06T10:52:58.689Z</time>
      </trkpt>
      <trkpt lat="45.93603" lon="4.77609">
        <ele>177.600006104</ele>
        <time>2016-06-06T10:52:59.703Z</time>
      </trkpt>
      <trkpt lat="45.936" lon="4.776">
        <ele>177.800003052</ele>
        <time>2016-06-06T10:53:00.68Z</time>
      </trkpt>
      <trkpt lat="45.93597" lon="4.77592">
        <ele>177.699996948</ele>
        <time>2016-06-06T10:53:01.699Z</time>
      </trkpt>
      <trkpt lat="45.93595" lon="4.77584">
        <ele>178</ele>
        <time>2016-06-06T10:53:02.679Z</time>
      </trkpt>
      <trkpt lat="45.93592" lon="4.77576">
        <ele>178</ele>
        <time>2016-06-06T10:53:03.705Z</time>
      </trkpt>
      <trkpt lat="45.9359" lon="4.77568">
        <ele>178.300003052</ele>
        <time>2016-06-06T10:53:04.679Z</time>
      </trkpt>
      <trkpt lat="45.93588" lon="4.77559">
        <ele>178.399993896</ele>
        <time>2016-06-06T10:53:05.699Z</time>
      </trkpt>
      <trkpt lat="45.93585" lon="4.77551">
        <ele>178.5</ele>
        <time>2016-06-06T10:53:06.678Z</time>
      </trkpt>
      <trkpt lat="45.93582" lon="4.77542">
        <ele>178.5</ele>
        <time>2016-06-06T10:53:07.92Z</time>
      </trkpt>
      <trkpt lat="45.9358" lon="4.77533">
        <ele>178.300003052</ele>
        <time>2016-06-06T10:53:08.681Z</time>
      </trkpt>
      <trkpt lat="45.93578" lon="4.77524">
        <ele>178.100006104</ele>
        <time>2016-06-06T10:53:09.701Z</time>
      </trkpt>
      <trkpt lat="45.93577" lon="4.77516">
        <ele>177.899993896</ele>
        <time>2016-06-06T10:53:10.682Z</time>
      </trkpt>
      <trkpt lat="45.93575" lon="4.77508">
        <ele>178</ele>
        <time>2016-06-06T10:53:11.703Z</time>
      </trkpt>
      <trkpt lat="45.93574" lon="4.775">
        <ele>178</ele>
        <time>2016-06-06T10:53:12.676Z</time>
      </trkpt>
      <trkpt lat="45.93572" lon="4.77492">
        <ele>177.800003052</ele>
        <time>2016-06-06T10:53:13.698Z</time>
      </trkpt>
      <trkpt lat="45.9357" lon="4.77484">
        <ele>177.600006104</ele>
        <time>2016-06-06T10:53:14.678Z</time>
      </trkpt>
      <trkpt lat="45.93568" lon="4.77477">
        <ele>177.199996948</ele>
        <time>2016-06-06T10:53:15.701Z</time>
      </trkpt>
      <trkpt lat="45.93566" lon="4.7747">
        <ele>177.399993896</ele>
        <time>2016-06-06T10:53:16.678Z</time>
      </trkpt>
      <trkpt lat="45.93565" lon="4.77463">
        <ele>177.399993896</ele>
        <time>2016-06-06T10:53:17.719Z</time>
      </trkpt>
      <trkpt lat="45.93565" lon="4.77456">
        <ele>177.5</ele>
        <time>2016-06-06T10:53:18.678Z</time>
      </trkpt>
      <trkpt lat="45.93563" lon="4.7745">
        <ele>177.199996948</ele>
        <time>2016-06-06T10:53:19.698Z</time>
      </trkpt>
      <trkpt lat="45.93562" lon="4.77444">
        <ele>176.899993896</ele>
        <time>2016-06-06T10:53:20.682Z</time>
      </trkpt>
      <trkpt lat="45.9356" lon="4.77434">
        <ele>177.199996948</ele>
        <time>2016-06-06T10:53:23.699Z</time>
      </trkpt>
      <trkpt lat="45.9356" lon="4.77432">
        <ele>177</ele>
        <time>2016-06-06T10:53:24.682Z</time>
      </trkpt>
      <trkpt lat="45.9356" lon="4.77432">
        <ele>176.600006104</ele>
        <time>2016-06-06T10:53:45.705Z</time>
      </trkpt>
      <trkpt lat="45.93559" lon="4.77429">
        <ele>176.600006104</ele>
        <time>2016-06-06T10:53:46.678Z</time>
      </trkpt>
      <trkpt lat="45.93556" lon="4.77418">
        <ele>176.300003052</ele>
        <time>2016-06-06T10:53:50.698Z</time>
      </trkpt>
      <trkpt lat="45.93555" lon="4.77413">
        <ele>176.199996948</ele>
        <time>2016-06-06T10:53:51.685Z</time>
      </trkpt>
      <trkpt lat="45.93552" lon="4.77402">
        <ele>176.300003052</ele>
        <time>2016-06-06T10:53:53.726Z</time>
      </trkpt>
      <trkpt lat="45.93551" lon="4.77396">
        <ele>176.399993896</ele>
        <time>2016-06-06T10:53:54.682Z</time>
      </trkpt>
      <trkpt lat="45.93549" lon="4.7739">
        <ele>176.399993896</ele>
        <time>2016-06-06T10:53:55.701Z</time>
      </trkpt>
      <trkpt lat="45.93547" lon="4.77384">
        <ele>176.199996948</ele>
        <time>2016-06-06T10:53:56.675Z</time>
      </trkpt>
      <trkpt lat="45.93546" lon="4.77378">
        <ele>176.100006104</ele>
        <time>2016-06-06T10:53:57.725Z</time>
      </trkpt>
      <trkpt lat="45.93545" lon="4.77371">
        <ele>176.100006104</ele>
        <time>2016-06-06T10:53:58.734Z</time>
      </trkpt>
      <trkpt lat="45.93543" lon="4.77364">
        <ele>176.100006104</ele>
        <time>2016-06-06T10:53:59.699Z</time>
      </trkpt>
      <trkpt lat="45.93542" lon="4.77357">
        <ele>176.399993896</ele>
        <time>2016-06-06T10:54:00.678Z</time>
      </trkpt>
      <trkpt lat="45.93541" lon="4.77349">
        <ele>176.199996948</ele>
        <time>2016-06-06T10:54:01.713Z</time>
      </trkpt>
      <trkpt lat="45.93539" lon="4.77342">
        <ele>175.899993896</ele>
        <time>2016-06-06T10:54:02.684Z</time>
      </trkpt>
      <trkpt lat="45.93538" lon="4.77334">
        <ele>175.800003052</ele>
        <time>2016-06-06T10:54:03.7Z</time>
      </trkpt>
      <trkpt lat="45.93536" lon="4.77327">
        <ele>175.800003052</ele>
        <time>2016-06-06T10:54:04.681Z</time>
      </trkpt>
      <trkpt lat="45.93535" lon="4.7732">
        <ele>176.100006104</ele>
        <time>2016-06-06T10:54:05.699Z</time>
      </trkpt>
      <trkpt lat="45.93533" lon="4.77313">
        <ele>176.300003052</ele>
        <time>2016-06-06T10:54:06.706Z</time>
      </trkpt>
      <trkpt lat="45.93531" lon="4.77306">
        <ele>176.5</ele>
        <time>2016-06-06T10:54:07.726Z</time>
      </trkpt>
      <trkpt lat="45.9353" lon="4.773">
        <ele>176.399993896</ele>
        <time>2016-06-06T10:54:08.679Z</time>
      </trkpt>
      <trkpt lat="45.93528" lon="4.77293">
        <ele>175.600006104</ele>
        <time>2016-06-06T10:54:09.724Z</time>
      </trkpt>
      <trkpt lat="45.93526" lon="4.77287">
        <ele>175.100006104</ele>
        <time>2016-06-06T10:54:10.7Z</time>
      </trkpt>
      <trkpt lat="45.93525" lon="4.77281">
        <ele>174.899993896</ele>
        <time>2016-06-06T10:54:11.703Z</time>
      </trkpt>
      <trkpt lat="45.93523" lon="4.77274">
        <ele>174.600006104</ele>
        <time>2016-06-06T10:54:12.682Z</time>
      </trkpt>
      <trkpt lat="45.93522" lon="4.77268">
        <ele>174.5</ele>
        <time>2016-06-06T10:54:13.698Z</time>
      </trkpt>
      <trkpt lat="45.9352" lon="4.77261">
        <ele>174.600006104</ele>
        <time>2016-06-06T10:54:14.681Z</time>
      </trkpt>
      <trkpt lat="45.93518" lon="4.77249">
        <ele>174.5</ele>
        <time>2016-06-06T10:54:16.698Z</time>
      </trkpt>
      <trkpt lat="45.93516" lon="4.77243">
        <ele>174</ele>
        <time>2016-06-06T10:54:17.703Z</time>
      </trkpt>
      <trkpt lat="45.93514" lon="4.7723">
        <ele>172.699996948</ele>
        <time>2016-06-06T10:54:19.701Z</time>
      </trkpt>
      <trkpt lat="45.93513" lon="4.77224">
        <ele>172.5</ele>
        <time>2016-06-06T10:54:20.678Z</time>
      </trkpt>
      <trkpt lat="45.93512" lon="4.77217">
        <ele>172.699996948</ele>
        <time>2016-06-06T10:54:21.701Z</time>
      </trkpt>
      <trkpt lat="45.9351" lon="4.7721">
        <ele>173</ele>
        <time>2016-06-06T10:54:22.678Z</time>
      </trkpt>
      <trkpt lat="45.93508" lon="4.77203">
        <ele>173.399993896</ele>
        <time>2016-06-06T10:54:23.704Z</time>
      </trkpt>
      <trkpt lat="45.93507" lon="4.77196">
        <ele>174</ele>
        <time>2016-06-06T10:54:24.678Z</time>
      </trkpt>
      <trkpt lat="45.93505" lon="4.77188">
        <ele>174.5</ele>
        <time>2016-06-06T10:54:25.714Z</time>
      </trkpt>
      <trkpt lat="45.93503" lon="4.7718">
        <ele>174.5</ele>
        <time>2016-06-06T10:54:26.682Z</time>
      </trkpt>
      <trkpt lat="45.93501" lon="4.77173">
        <ele>174.399993896</ele>
        <time>2016-06-06T10:54:27.728Z</time>
      </trkpt>
      <trkpt lat="45.93499" lon="4.77165">
        <ele>173.800003052</ele>
        <time>2016-06-06T10:54:28.678Z</time>
      </trkpt>
      <trkpt lat="45.93498" lon="4.77157">
        <ele>173.199996948</ele>
        <time>2016-06-06T10:54:29.7Z</time>
      </trkpt>
      <trkpt lat="45.93496" lon="4.7715">
        <ele>172.5</ele>
        <time>2016-06-06T10:54:30.678Z</time>
      </trkpt>
      <trkpt lat="45.93494" lon="4.77143">
        <ele>172.300003052</ele>
        <time>2016-06-06T10:54:31.698Z</time>
      </trkpt>
      <trkpt lat="45.93492" lon="4.77136">
        <ele>172.199996948</ele>
        <time>2016-06-06T10:54:32.678Z</time>
      </trkpt>
      <trkpt lat="45.93491" lon="4.77129">
        <ele>172.199996948</ele>
        <time>2016-06-06T10:54:33.701Z</time>
      </trkpt>
      <trkpt lat="45.93489" lon="4.77121">
        <ele>172</ele>
        <time>2016-06-06T10:54:34.678Z</time>
      </trkpt>
      <trkpt lat="45.93488" lon="4.77114">
        <ele>172.5</ele>
        <time>2016-06-06T10:54:35.848Z</time>
      </trkpt>
      <trkpt lat="45.93486" lon="4.77107">
        <ele>173.100006104</ele>
        <time>2016-06-06T10:54:36.675Z</time>
      </trkpt>
      <trkpt lat="45.93485" lon="4.771">
        <ele>173.399993896</ele>
        <time>2016-06-06T10:54:37.726Z</time>
      </trkpt>
      <trkpt lat="45.93484" lon="4.77093">
        <ele>173.5</ele>
        <time>2016-06-06T10:54:38.678Z</time>
      </trkpt>
      <trkpt lat="45.93482" lon="4.77086">
        <ele>173.100006104</ele>
        <time>2016-06-06T10:54:39.704Z</time>
      </trkpt>
      <trkpt lat="45.93481" lon="4.77079">
        <ele>172.800003052</ele>
        <time>2016-06-06T10:54:40.678Z</time>
      </trkpt>
      <trkpt lat="45.93479" lon="4.77072">
        <ele>172.5</ele>
        <time>2016-06-06T10:54:41.699Z</time>
      </trkpt>
      <trkpt lat="45.93478" lon="4.77064">
        <ele>172.100006104</ele>
        <time>2016-06-06T10:54:42.678Z</time>
      </trkpt>
      <trkpt lat="45.93477" lon="4.77056">
        <ele>171.699996948</ele>
        <time>2016-06-06T10:54:43.701Z</time>
      </trkpt>
      <trkpt lat="45.93475" lon="4.77048">
        <ele>171.5</ele>
        <time>2016-06-06T10:54:44.678Z</time>
      </trkpt>
      <trkpt lat="45.93474" lon="4.7704">
        <ele>171.300003052</ele>
        <time>2016-06-06T10:54:45.704Z</time>
      </trkpt>
      <trkpt lat="45.93472" lon="4.77032">
        <ele>171.5</ele>
        <time>2016-06-06T10:54:46.681Z</time>
      </trkpt>
      <trkpt lat="45.9347" lon="4.77024">
        <ele>171.5</ele>
        <time>2016-06-06T10:54:47.725Z</time>
      </trkpt>
      <trkpt lat="45.93469" lon="4.77016">
        <ele>171.899993896</ele>
        <time>2016-06-06T10:54:48.679Z</time>
      </trkpt>
      <trkpt lat="45.93467" lon="4.77008">
        <ele>172</ele>
        <time>2016-06-06T10:54:49.702Z</time>
      </trkpt>
      <trkpt lat="45.93466" lon="4.77">
        <ele>172.100006104</ele>
        <time>2016-06-06T10:54:50.678Z</time>
      </trkpt>
      <trkpt lat="45.93465" lon="4.76992">
        <ele>172.399993896</ele>
        <time>2016-06-06T10:54:51.724Z</time>
      </trkpt>
      <trkpt lat="45.93463" lon="4.76984">
        <ele>172.600006104</ele>
        <time>2016-06-06T10:54:52.678Z</time>
      </trkpt>
      <trkpt lat="45.93462" lon="4.76976">
        <ele>172.600006104</ele>
        <time>2016-06-06T10:54:53.702Z</time>
      </trkpt>
      <trkpt lat="45.93461" lon="4.76969">
        <ele>172.399993896</ele>
        <time>2016-06-06T10:54:54.678Z</time>
      </trkpt>
      <trkpt lat="45.9346" lon="4.76961">
        <ele>172.399993896</ele>
        <time>2016-06-06T10:54:55.704Z</time>
      </trkpt>
      <trkpt lat="45.93459" lon="4.76953">
        <ele>172.100006104</ele>
        <time>2016-06-06T10:54:56.678Z</time>
      </trkpt>
      <trkpt lat="45.93457" lon="4.76944">
        <ele>171.699996948</ele>
        <time>2016-06-06T10:54:57.73Z</time>
      </trkpt>
      <trkpt lat="45.93456" lon="4.76936">
        <ele>171.300003052</ele>
        <time>2016-06-06T10:54:58.679Z</time>
      </trkpt>
      <trkpt lat="45.93454" lon="4.76928">
        <ele>171.100006104</ele>
        <time>2016-06-06T10:54:59.703Z</time>
      </trkpt>
      <trkpt lat="45.93452" lon="4.76919">
        <ele>171.100006104</ele>
        <time>2016-06-06T10:55:00.705Z</time>
      </trkpt>
      <trkpt lat="45.9345" lon="4.7691">
        <ele>170.699996948</ele>
        <time>2016-06-06T10:55:01.699Z</time>
      </trkpt>
      <trkpt lat="45.93448" lon="4.76901">
        <ele>170.600006104</ele>
        <time>2016-06-06T10:55:02.682Z</time>
      </trkpt>
      <trkpt lat="45.93445" lon="4.76892">
        <ele>170.100006104</ele>
        <time>2016-06-06T10:55:03.704Z</time>
      </trkpt>
      <trkpt lat="45.93443" lon="4.76884">
        <ele>169.899993896</ele>
        <time>2016-06-06T10:55:04.682Z</time>
      </trkpt>
      <trkpt lat="45.9344" lon="4.76876">
        <ele>169.800003052</ele>
        <time>2016-06-06T10:55:05.709Z</time>
      </trkpt>
      <trkpt lat="45.93437" lon="4.76869">
        <ele>169.199996948</ele>
        <time>2016-06-06T10:55:06.679Z</time>
      </trkpt>
      <trkpt lat="45.93435" lon="4.76862">
        <ele>170.199996948</ele>
        <time>2016-06-06T10:55:07.767Z</time>
      </trkpt>
      <trkpt lat="45.93432" lon="4.76855">
        <ele>170.199996948</ele>
        <time>2016-06-06T10:55:08.682Z</time>
      </trkpt>
      <trkpt lat="45.93428" lon="4.76849">
        <ele>170.300003052</ele>
        <time>2016-06-06T10:55:09.746Z</time>
      </trkpt>
      <trkpt lat="45.93425" lon="4.76842">
        <ele>170.399993896</ele>
        <time>2016-06-06T10:55:10.679Z</time>
      </trkpt>
      <trkpt lat="45.93421" lon="4.76836">
        <ele>170.5</ele>
        <time>2016-06-06T10:55:11.702Z</time>
      </trkpt>
      <trkpt lat="45.93418" lon="4.76829">
        <ele>170.899993896</ele>
        <time>2016-06-06T10:55:12.698Z</time>
      </trkpt>
      <trkpt lat="45.93414" lon="4.76823">
        <ele>171.300003052</ele>
        <time>2016-06-06T10:55:13.699Z</time>
      </trkpt>
      <trkpt lat="45.9341" lon="4.76817">
        <ele>171.600006104</ele>
        <time>2016-06-06T10:55:14.682Z</time>
      </trkpt>
      <trkpt lat="45.93406" lon="4.76811">
        <ele>171.800003052</ele>
        <time>2016-06-06T10:55:15.704Z</time>
      </trkpt>
      <trkpt lat="45.93402" lon="4.76805">
        <ele>171.800003052</ele>
        <time>2016-06-06T10:55:16.678Z</time>
      </trkpt>
      <trkpt lat="45.93397" lon="4.76799">
        <ele>172.399993896</ele>
        <time>2016-06-06T10:55:17.741Z</time>
      </trkpt>
      <trkpt lat="45.93393" lon="4.76793">
        <ele>172.899993896</ele>
        <time>2016-06-06T10:55:18.678Z</time>
      </trkpt>
      <trkpt lat="45.93388" lon="4.76788">
        <ele>173.600006104</ele>
        <time>2016-06-06T10:55:19.698Z</time>
      </trkpt>
      <trkpt lat="45.93384" lon="4.76783">
        <ele>174.199996948</ele>
        <time>2016-06-06T10:55:20.675Z</time>
      </trkpt>
      <trkpt lat="45.93379" lon="4.76778">
        <ele>174.699996948</ele>
        <time>2016-06-06T10:55:21.704Z</time>
      </trkpt>
      <trkpt lat="45.93375" lon="4.76773">
        <ele>175.199996948</ele>
        <time>2016-06-06T10:55:22.679Z</time>
      </trkpt>
      <trkpt lat="45.9337" lon="4.76768">
        <ele>175.899993896</ele>
        <time>2016-06-06T10:55:23.729Z</time>
      </trkpt>
      <trkpt lat="45.93366" lon="4.76763">
        <ele>176.699996948</ele>
        <time>2016-06-06T10:55:24.682Z</time>
      </trkpt>
      <trkpt lat="45.93361" lon="4.76759">
        <ele>177.899993896</ele>
        <time>2016-06-06T10:55:25.701Z</time>
      </trkpt>
      <trkpt lat="45.93357" lon="4.76754">
        <ele>178.300003052</ele>
        <time>2016-06-06T10:55:26.678Z</time>
      </trkpt>
      <trkpt lat="45.93352" lon="4.7675">
        <ele>179.100006104</ele>
        <time>2016-06-06T10:55:27.727Z</time>
      </trkpt>
      <trkpt lat="45.93348" lon="4.76745">
        <ele>179.600006104</ele>
        <time>2016-06-06T10:55:28.681Z</time>
      </trkpt>
      <trkpt lat="45.93342" lon="4.7674">
        <ele>179.899993896</ele>
        <time>2016-06-06T10:55:29.725Z</time>
      </trkpt>
      <trkpt lat="45.93337" lon="4.76735">
        <ele>180.600006104</ele>
        <time>2016-06-06T10:55:30.682Z</time>
      </trkpt>
      <trkpt lat="45.93332" lon="4.76731">
        <ele>181.100006104</ele>
        <time>2016-06-06T10:55:31.698Z</time>
      </trkpt>
      <trkpt lat="45.93328" lon="4.76727">
        <ele>181.5</ele>
        <time>2016-06-06T10:55:32.678Z</time>
      </trkpt>
      <trkpt lat="45.93323" lon="4.76722">
        <ele>181.899993896</ele>
        <time>2016-06-06T10:55:33.721Z</time>
      </trkpt>
      <trkpt lat="45.93318" lon="4.76717">
        <ele>182.199996948</ele>
        <time>2016-06-06T10:55:34.678Z</time>
      </trkpt>
      <trkpt lat="45.93313" lon="4.76712">
        <ele>182.600006104</ele>
        <time>2016-06-06T10:55:35.699Z</time>
      </trkpt>
      <trkpt lat="45.93308" lon="4.76707">
        <ele>182.5</ele>
        <time>2016-06-06T10:55:36.678Z</time>
      </trkpt>
      <trkpt lat="45.93303" lon="4.76702">
        <ele>183</ele>
        <time>2016-06-06T10:55:37.728Z</time>
      </trkpt>
      <trkpt lat="45.93299" lon="4.76697">
        <ele>183.199996948</ele>
        <time>2016-06-06T10:55:38.681Z</time>
      </trkpt>
      <trkpt lat="45.93294" lon="4.76693">
        <ele>183.5</ele>
        <time>2016-06-06T10:55:39.704Z</time>
      </trkpt>
      <trkpt lat="45.9329" lon="4.76688">
        <ele>183.5</ele>
        <time>2016-06-06T10:55:40.681Z</time>
      </trkpt>
      <trkpt lat="45.93286" lon="4.76683">
        <ele>183.699996948</ele>
        <time>2016-06-06T10:55:41.699Z</time>
      </trkpt>
      <trkpt lat="45.93281" lon="4.76678">
        <ele>183.699996948</ele>
        <time>2016-06-06T10:55:42.678Z</time>
      </trkpt>
      <trkpt lat="45.93277" lon="4.76674">
        <ele>184</ele>
        <time>2016-06-06T10:55:43.698Z</time>
      </trkpt>
      <trkpt lat="45.93273" lon="4.7667">
        <ele>183.600006104</ele>
        <time>2016-06-06T10:55:44.679Z</time>
      </trkpt>
      <trkpt lat="45.93269" lon="4.76665">
        <ele>183.100006104</ele>
        <time>2016-06-06T10:55:45.7Z</time>
      </trkpt>
      <trkpt lat="45.93264" lon="4.76661">
        <ele>183.600006104</ele>
        <time>2016-06-06T10:55:46.678Z</time>
      </trkpt>
      <trkpt lat="45.9326" lon="4.76655">
        <ele>182.5</ele>
        <time>2016-06-06T10:55:47.726Z</time>
      </trkpt>
      <trkpt lat="45.93255" lon="4.7665">
        <ele>182</ele>
        <time>2016-06-06T10:55:48.678Z</time>
      </trkpt>
      <trkpt lat="45.9325" lon="4.76645">
        <ele>181.600006104</ele>
        <time>2016-06-06T10:55:49.716Z</time>
      </trkpt>
      <trkpt lat="45.93246" lon="4.7664">
        <ele>181.399993896</ele>
        <time>2016-06-06T10:55:50.678Z</time>
      </trkpt>
      <trkpt lat="45.93241" lon="4.76634">
        <ele>181.399993896</ele>
        <time>2016-06-06T10:55:51.704Z</time>
      </trkpt>
      <trkpt lat="45.93235" lon="4.76628">
        <ele>181</ele>
        <time>2016-06-06T10:55:52.793Z</time>
      </trkpt>
      <trkpt lat="45.9323" lon="4.76623">
        <ele>179.600006104</ele>
        <time>2016-06-06T10:55:53.699Z</time>
      </trkpt>
      <trkpt lat="45.93225" lon="4.76618">
        <ele>178.5</ele>
        <time>2016-06-06T10:55:54.678Z</time>
      </trkpt>
      <trkpt lat="45.93221" lon="4.76613">
        <ele>177.699996948</ele>
        <time>2016-06-06T10:55:55.701Z</time>
      </trkpt>
      <trkpt lat="45.93216" lon="4.76609">
        <ele>177.300003052</ele>
        <time>2016-06-06T10:55:56.678Z</time>
      </trkpt>
      <trkpt lat="45.93212" lon="4.76603">
        <ele>176.199996948</ele>
        <time>2016-06-06T10:55:57.725Z</time>
      </trkpt>
      <trkpt lat="45.93207" lon="4.76599">
        <ele>175.600006104</ele>
        <time>2016-06-06T10:55:58.682Z</time>
      </trkpt>
      <trkpt lat="45.93202" lon="4.76594">
        <ele>175</ele>
        <time>2016-06-06T10:55:59.703Z</time>
      </trkpt>
      <trkpt lat="45.93197" lon="4.7659">
        <ele>174.199996948</ele>
        <time>2016-06-06T10:56:00.682Z</time>
      </trkpt>
      <trkpt lat="45.93193" lon="4.76585">
        <ele>173.800003052</ele>
        <time>2016-06-06T10:56:01.746Z</time>
      </trkpt>
      <trkpt lat="45.93188" lon="4.76581">
        <ele>173.899993896</ele>
        <time>2016-06-06T10:56:02.68Z</time>
      </trkpt>
      <trkpt lat="45.93184" lon="4.76576">
        <ele>173.699996948</ele>
        <time>2016-06-06T10:56:03.703Z</time>
      </trkpt>
      <trkpt lat="45.93179" lon="4.76571">
        <ele>173.399993896</ele>
        <time>2016-06-06T10:56:04.678Z</time>
      </trkpt>
      <trkpt lat="45.93174" lon="4.76567">
        <ele>173.600006104</ele>
        <time>2016-06-06T10:56:05.703Z</time>
      </trkpt>
      <trkpt lat="45.93169" lon="4.76562">
        <ele>173.699996948</ele>
        <time>2016-06-06T10:56:06.682Z</time>
      </trkpt>
      <trkpt lat="45.93165" lon="4.76558">
        <ele>173.800003052</ele>
        <time>2016-06-06T10:56:07.725Z</time>
      </trkpt>
      <trkpt lat="45.9316" lon="4.76553">
        <ele>174</ele>
        <time>2016-06-06T10:56:08.681Z</time>
      </trkpt>
      <trkpt lat="45.93155" lon="4.76548">
        <ele>174.300003052</ele>
        <time>2016-06-06T10:56:09.703Z</time>
      </trkpt>
      <trkpt lat="45.93151" lon="4.76544">
        <ele>174.600006104</ele>
        <time>2016-06-06T10:56:10.697Z</time>
      </trkpt>
      <trkpt lat="45.93146" lon="4.76539">
        <ele>175.100006104</ele>
        <time>2016-06-06T10:56:11.699Z</time>
      </trkpt>
      <trkpt lat="45.93141" lon="4.76534">
        <ele>175.300003052</ele>
        <time>2016-06-06T10:56:12.681Z</time>
      </trkpt>
      <trkpt lat="45.93136" lon="4.76529">
        <ele>175.899993896</ele>
        <time>2016-06-06T10:56:13.858Z</time>
      </trkpt>
      <trkpt lat="45.93131" lon="4.76525">
        <ele>177.100006104</ele>
        <time>2016-06-06T10:56:14.68Z</time>
      </trkpt>
      <trkpt lat="45.93127" lon="4.7652">
        <ele>178.5</ele>
        <time>2016-06-06T10:56:15.721Z</time>
      </trkpt>
      <trkpt lat="45.93122" lon="4.76516">
        <ele>180</ele>
        <time>2016-06-06T10:56:16.681Z</time>
      </trkpt>
      <trkpt lat="45.93118" lon="4.76512">
        <ele>181.100006104</ele>
        <time>2016-06-06T10:56:17.723Z</time>
      </trkpt>
      <trkpt lat="45.93113" lon="4.76507">
        <ele>182.100006104</ele>
        <time>2016-06-06T10:56:18.678Z</time>
      </trkpt>
      <trkpt lat="45.93109" lon="4.76503">
        <ele>183.5</ele>
        <time>2016-06-06T10:56:19.725Z</time>
      </trkpt>
      <trkpt lat="45.93104" lon="4.76499">
        <ele>184.5</ele>
        <time>2016-06-06T10:56:20.678Z</time>
      </trkpt>
      <trkpt lat="45.931" lon="4.76494">
        <ele>185.399993896</ele>
        <time>2016-06-06T10:56:21.744Z</time>
      </trkpt>
      <trkpt lat="45.93094" lon="4.76491">
        <ele>186.100006104</ele>
        <time>2016-06-06T10:56:22.677Z</time>
      </trkpt>
      <trkpt lat="45.93089" lon="4.76486">
        <ele>187.300003052</ele>
        <time>2016-06-06T10:56:23.785Z</time>
      </trkpt>
      <trkpt lat="45.93084" lon="4.76481">
        <ele>187.899993896</ele>
        <time>2016-06-06T10:56:24.682Z</time>
      </trkpt>
      <trkpt lat="45.9308" lon="4.76476">
        <ele>188.899993896</ele>
        <time>2016-06-06T10:56:25.702Z</time>
      </trkpt>
      <trkpt lat="45.93075" lon="4.76471">
        <ele>189.800003052</ele>
        <time>2016-06-06T10:56:26.677Z</time>
      </trkpt>
      <trkpt lat="45.9307" lon="4.76466">
        <ele>190</ele>
        <time>2016-06-06T10:56:27.726Z</time>
      </trkpt>
      <trkpt lat="45.93066" lon="4.76461">
        <ele>190.699996948</ele>
        <time>2016-06-06T10:56:28.677Z</time>
      </trkpt>
      <trkpt lat="45.93061" lon="4.76456">
        <ele>191</ele>
        <time>2016-06-06T10:56:29.705Z</time>
      </trkpt>
      <trkpt lat="45.93056" lon="4.76451">
        <ele>191</ele>
        <time>2016-06-06T10:56:30.679Z</time>
      </trkpt>
      <trkpt lat="45.93051" lon="4.76446">
        <ele>190.899993896</ele>
        <time>2016-06-06T10:56:31.745Z</time>
      </trkpt>
      <trkpt lat="45.93046" lon="4.76441">
        <ele>191.199996948</ele>
        <time>2016-06-06T10:56:32.682Z</time>
      </trkpt>
      <trkpt lat="45.93041" lon="4.76436">
        <ele>191.199996948</ele>
        <time>2016-06-06T10:56:33.713Z</time>
      </trkpt>
      <trkpt lat="45.93037" lon="4.76431">
        <ele>191.300003052</ele>
        <time>2016-06-06T10:56:34.679Z</time>
      </trkpt>
      <trkpt lat="45.93032" lon="4.76427">
        <ele>191.100006104</ele>
        <time>2016-06-06T10:56:35.703Z</time>
      </trkpt>
      <trkpt lat="45.93027" lon="4.76423">
        <ele>191</ele>
        <time>2016-06-06T10:56:36.677Z</time>
      </trkpt>
      <trkpt lat="45.93022" lon="4.76418">
        <ele>190.600006104</ele>
        <time>2016-06-06T10:56:37.725Z</time>
      </trkpt>
      <trkpt lat="45.93018" lon="4.76414">
        <ele>190.199996948</ele>
        <time>2016-06-06T10:56:38.682Z</time>
      </trkpt>
      <trkpt lat="45.93014" lon="4.7641">
        <ele>189.399993896</ele>
        <time>2016-06-06T10:56:39.704Z</time>
      </trkpt>
      <trkpt lat="45.9301" lon="4.76405">
        <ele>188.800003052</ele>
        <time>2016-06-06T10:56:40.678Z</time>
      </trkpt>
      <trkpt lat="45.93006" lon="4.76401">
        <ele>188</ele>
        <time>2016-06-06T10:56:41.7Z</time>
      </trkpt>
      <trkpt lat="45.93001" lon="4.76396">
        <ele>187.399993896</ele>
        <time>2016-06-06T10:56:42.679Z</time>
      </trkpt>
      <trkpt lat="45.92997" lon="4.76392">
        <ele>187.300003052</ele>
        <time>2016-06-06T10:56:43.698Z</time>
      </trkpt>
      <trkpt lat="45.92992" lon="4.76387">
        <ele>187</ele>
        <time>2016-06-06T10:56:44.679Z</time>
      </trkpt>
      <trkpt lat="45.92988" lon="4.76382">
        <ele>186.800003052</ele>
        <time>2016-06-06T10:56:45.745Z</time>
      </trkpt>
      <trkpt lat="45.92983" lon="4.76377">
        <ele>186.600006104</ele>
        <time>2016-06-06T10:56:46.678Z</time>
      </trkpt>
      <trkpt lat="45.92978" lon="4.76372">
        <ele>186.899993896</ele>
        <time>2016-06-06T10:56:47.743Z</time>
      </trkpt>
      <trkpt lat="45.92973" lon="4.76367">
        <ele>186.899993896</ele>
        <time>2016-06-06T10:56:48.678Z</time>
      </trkpt>
      <trkpt lat="45.92967" lon="4.76363">
        <ele>186.699996948</ele>
        <time>2016-06-06T10:56:49.701Z</time>
      </trkpt>
      <trkpt lat="45.92962" lon="4.76358">
        <ele>187.300003052</ele>
        <time>2016-06-06T10:56:50.681Z</time>
      </trkpt>
      <trkpt lat="45.92957" lon="4.76353">
        <ele>188.100006104</ele>
        <time>2016-06-06T10:56:51.708Z</time>
      </trkpt>
      <trkpt lat="45.92953" lon="4.76348">
        <ele>188.600006104</ele>
        <time>2016-06-06T10:56:52.678Z</time>
      </trkpt>
      <trkpt lat="45.92946" lon="4.76344">
        <ele>188.800003052</ele>
        <time>2016-06-06T10:56:53.703Z</time>
      </trkpt>
      <trkpt lat="45.92941" lon="4.76341">
        <ele>188.800003052</ele>
        <time>2016-06-06T10:56:54.679Z</time>
      </trkpt>
      <trkpt lat="45.92937" lon="4.76336">
        <ele>189</ele>
        <time>2016-06-06T10:56:55.704Z</time>
      </trkpt>
      <trkpt lat="45.92933" lon="4.76332">
        <ele>189.300003052</ele>
        <time>2016-06-06T10:56:56.681Z</time>
      </trkpt>
      <trkpt lat="45.92929" lon="4.76327">
        <ele>188.899993896</ele>
        <time>2016-06-06T10:56:57.724Z</time>
      </trkpt>
      <trkpt lat="45.92924" lon="4.76323">
        <ele>188.800003052</ele>
        <time>2016-06-06T10:56:58.681Z</time>
      </trkpt>
      <trkpt lat="45.9292" lon="4.76318">
        <ele>188.399993896</ele>
        <time>2016-06-06T10:56:59.699Z</time>
      </trkpt>
      <trkpt lat="45.92915" lon="4.76313">
        <ele>188</ele>
        <time>2016-06-06T10:57:00.679Z</time>
      </trkpt>
      <trkpt lat="45.9291" lon="4.76308">
        <ele>187.199996948</ele>
        <time>2016-06-06T10:57:01.698Z</time>
      </trkpt>
      <trkpt lat="45.92905" lon="4.76304">
        <ele>186.899993896</ele>
        <time>2016-06-06T10:57:02.678Z</time>
      </trkpt>
      <trkpt lat="45.92901" lon="4.76298">
        <ele>186.5</ele>
        <time>2016-06-06T10:57:03.718Z</time>
      </trkpt>
      <trkpt lat="45.92896" lon="4.76293">
        <ele>187.199996948</ele>
        <time>2016-06-06T10:57:04.678Z</time>
      </trkpt>
      <trkpt lat="45.92891" lon="4.76288">
        <ele>187</ele>
        <time>2016-06-06T10:57:05.699Z</time>
      </trkpt>
      <trkpt lat="45.92886" lon="4.76283">
        <ele>187</ele>
        <time>2016-06-06T10:57:06.681Z</time>
      </trkpt>
      <trkpt lat="45.92881" lon="4.76278">
        <ele>186.899993896</ele>
        <time>2016-06-06T10:57:07.852Z</time>
      </trkpt>
      <trkpt lat="45.92877" lon="4.76273">
        <ele>186.800003052</ele>
        <time>2016-06-06T10:57:08.678Z</time>
      </trkpt>
      <trkpt lat="45.92873" lon="4.76268">
        <ele>186.899993896</ele>
        <time>2016-06-06T10:57:09.701Z</time>
      </trkpt>
      <trkpt lat="45.92868" lon="4.76263">
        <ele>187.100006104</ele>
        <time>2016-06-06T10:57:10.678Z</time>
      </trkpt>
      <trkpt lat="45.92864" lon="4.76259">
        <ele>187.100006104</ele>
        <time>2016-06-06T10:57:11.702Z</time>
      </trkpt>
      <trkpt lat="45.9286" lon="4.76255">
        <ele>187.399993896</ele>
        <time>2016-06-06T10:57:12.681Z</time>
      </trkpt>
      <trkpt lat="45.92856" lon="4.76251">
        <ele>187.399993896</ele>
        <time>2016-06-06T10:57:13.701Z</time>
      </trkpt>
      <trkpt lat="45.92852" lon="4.76247">
        <ele>187.5</ele>
        <time>2016-06-06T10:57:14.676Z</time>
      </trkpt>
      <trkpt lat="45.92848" lon="4.76242">
        <ele>187.600006104</ele>
        <time>2016-06-06T10:57:15.7Z</time>
      </trkpt>
      <trkpt lat="45.92844" lon="4.76238">
        <ele>188</ele>
        <time>2016-06-06T10:57:16.681Z</time>
      </trkpt>
      <trkpt lat="45.9284" lon="4.76233">
        <ele>188</ele>
        <time>2016-06-06T10:57:17.724Z</time>
      </trkpt>
      <trkpt lat="45.92835" lon="4.76229">
        <ele>187.800003052</ele>
        <time>2016-06-06T10:57:18.678Z</time>
      </trkpt>
      <trkpt lat="45.9283" lon="4.76224">
        <ele>187.300003052</ele>
        <time>2016-06-06T10:57:19.746Z</time>
      </trkpt>
      <trkpt lat="45.92826" lon="4.7622">
        <ele>187.100006104</ele>
        <time>2016-06-06T10:57:20.676Z</time>
      </trkpt>
      <trkpt lat="45.92821" lon="4.76215">
        <ele>186.5</ele>
        <time>2016-06-06T10:57:21.7Z</time>
      </trkpt>
      <trkpt lat="45.92816" lon="4.76211">
        <ele>186.600006104</ele>
        <time>2016-06-06T10:57:22.681Z</time>
      </trkpt>
      <trkpt lat="45.92812" lon="4.76206">
        <ele>186.899993896</ele>
        <time>2016-06-06T10:57:23.699Z</time>
      </trkpt>
      <trkpt lat="45.92807" lon="4.76202">
        <ele>187.399993896</ele>
        <time>2016-06-06T10:57:24.678Z</time>
      </trkpt>
      <trkpt lat="45.92804" lon="4.76197">
        <ele>188.300003052</ele>
        <time>2016-06-06T10:57:25.701Z</time>
      </trkpt>
      <trkpt lat="45.92799" lon="4.76193">
        <ele>188.699996948</ele>
        <time>2016-06-06T10:57:26.678Z</time>
      </trkpt>
      <trkpt lat="45.92795" lon="4.76188">
        <ele>189</ele>
        <time>2016-06-06T10:57:27.728Z</time>
      </trkpt>
      <trkpt lat="45.9279" lon="4.76184">
        <ele>189.100006104</ele>
        <time>2016-06-06T10:57:28.678Z</time>
      </trkpt>
      <trkpt lat="45.92786" lon="4.76181">
        <ele>189.199996948</ele>
        <time>2016-06-06T10:57:29.732Z</time>
      </trkpt>
      <trkpt lat="45.92781" lon="4.76177">
        <ele>189</ele>
        <time>2016-06-06T10:57:30.678Z</time>
      </trkpt>
      <trkpt lat="45.92776" lon="4.76174">
        <ele>188.199996948</ele>
        <time>2016-06-06T10:57:31.698Z</time>
      </trkpt>
      <trkpt lat="45.92771" lon="4.7617">
        <ele>187.899993896</ele>
        <time>2016-06-06T10:57:32.683Z</time>
      </trkpt>
      <trkpt lat="45.92767" lon="4.76166">
        <ele>187.300003052</ele>
        <time>2016-06-06T10:57:33.701Z</time>
      </trkpt>
      <trkpt lat="45.92762" lon="4.76162">
        <ele>186.800003052</ele>
        <time>2016-06-06T10:57:34.682Z</time>
      </trkpt>
      <trkpt lat="45.92757" lon="4.76158">
        <ele>186.300003052</ele>
        <time>2016-06-06T10:57:35.703Z</time>
      </trkpt>
      <trkpt lat="45.92752" lon="4.76155">
        <ele>186.199996948</ele>
        <time>2016-06-06T10:57:36.681Z</time>
      </trkpt>
      <trkpt lat="45.92747" lon="4.76151">
        <ele>186.199996948</ele>
        <time>2016-06-06T10:57:37.724Z</time>
      </trkpt>
      <trkpt lat="45.92743" lon="4.76148">
        <ele>186.399993896</ele>
        <time>2016-06-06T10:57:38.681Z</time>
      </trkpt>
      <trkpt lat="45.92738" lon="4.76144">
        <ele>186.699996948</ele>
        <time>2016-06-06T10:57:39.704Z</time>
      </trkpt>
      <trkpt lat="45.92733" lon="4.76141">
        <ele>186.399993896</ele>
        <time>2016-06-06T10:57:40.692Z</time>
      </trkpt>
      <trkpt lat="45.92729" lon="4.76137">
        <ele>185.899993896</ele>
        <time>2016-06-06T10:57:41.699Z</time>
      </trkpt>
      <trkpt lat="45.92724" lon="4.76133">
        <ele>185.100006104</ele>
        <time>2016-06-06T10:57:42.678Z</time>
      </trkpt>
      <trkpt lat="45.92719" lon="4.7613">
        <ele>184.399993896</ele>
        <time>2016-06-06T10:57:43.701Z</time>
      </trkpt>
      <trkpt lat="45.92713" lon="4.76126">
        <ele>183.100006104</ele>
        <time>2016-06-06T10:57:44.678Z</time>
      </trkpt>
      <trkpt lat="45.92707" lon="4.76121">
        <ele>182.5</ele>
        <time>2016-06-06T10:57:45.715Z</time>
      </trkpt>
      <trkpt lat="45.92702" lon="4.76118">
        <ele>181.600006104</ele>
        <time>2016-06-06T10:57:46.678Z</time>
      </trkpt>
      <trkpt lat="45.92697" lon="4.76114">
        <ele>181.5</ele>
        <time>2016-06-06T10:57:47.719Z</time>
      </trkpt>
      <trkpt lat="45.92691" lon="4.7611">
        <ele>180.600006104</ele>
        <time>2016-06-06T10:57:48.682Z</time>
      </trkpt>
      <trkpt lat="45.92686" lon="4.76107">
        <ele>179.699996948</ele>
        <time>2016-06-06T10:57:49.701Z</time>
      </trkpt>
      <trkpt lat="45.92681" lon="4.76103">
        <ele>179.600006104</ele>
        <time>2016-06-06T10:57:50.678Z</time>
      </trkpt>
      <trkpt lat="45.92676" lon="4.76099">
        <ele>179.399993896</ele>
        <time>2016-06-06T10:57:51.849Z</time>
      </trkpt>
      <trkpt lat="45.92671" lon="4.76096">
        <ele>179.300003052</ele>
        <time>2016-06-06T10:57:52.678Z</time>
      </trkpt>
      <trkpt lat="45.92667" lon="4.76092">
        <ele>179.5</ele>
        <time>2016-06-06T10:57:53.7Z</time>
      </trkpt>
      <trkpt lat="45.92662" lon="4.76089">
        <ele>179.5</ele>
        <time>2016-06-06T10:57:54.681Z</time>
      </trkpt>
      <trkpt lat="45.92655" lon="4.76082">
        <ele>180.199996948</ele>
        <time>2016-06-06T10:57:56.701Z</time>
      </trkpt>
      <trkpt lat="45.9265" lon="4.76079">
        <ele>180.399993896</ele>
        <time>2016-06-06T10:57:57.68Z</time>
      </trkpt>
      <trkpt lat="45.92643" lon="4.76073">
        <ele>180.899993896</ele>
        <time>2016-06-06T10:57:59.7Z</time>
      </trkpt>
      <trkpt lat="45.92638" lon="4.7607">
        <ele>180.899993896</ele>
        <time>2016-06-06T10:58:00.678Z</time>
      </trkpt>
      <trkpt lat="45.92635" lon="4.76067">
        <ele>181.300003052</ele>
        <time>2016-06-06T10:58:01.853Z</time>
      </trkpt>
      <trkpt lat="45.9263" lon="4.76064">
        <ele>181.699996948</ele>
        <time>2016-06-06T10:58:02.702Z</time>
      </trkpt>
      <trkpt lat="45.92622" lon="4.76059">
        <ele>183.699996948</ele>
        <time>2016-06-06T10:58:04.701Z</time>
      </trkpt>
      <trkpt lat="45.92618" lon="4.76056">
        <ele>184.600006104</ele>
        <time>2016-06-06T10:58:05.676Z</time>
      </trkpt>
      <trkpt lat="45.92614" lon="4.76053">
        <ele>184.899993896</ele>
        <time>2016-06-06T10:58:06.713Z</time>
      </trkpt>
      <trkpt lat="45.9261" lon="4.7605">
        <ele>185.100006104</ele>
        <time>2016-06-06T10:58:07.678Z</time>
      </trkpt>
      <trkpt lat="45.92606" lon="4.76047">
        <ele>185.300003052</ele>
        <time>2016-06-06T10:58:08.698Z</time>
      </trkpt>
      <trkpt lat="45.92602" lon="4.76044">
        <ele>185.5</ele>
        <time>2016-06-06T10:58:09.68Z</time>
      </trkpt>
      <trkpt lat="45.92598" lon="4.76041">
        <ele>185.899993896</ele>
        <time>2016-06-06T10:58:10.698Z</time>
      </trkpt>
      <trkpt lat="45.92594" lon="4.76037">
        <ele>186.300003052</ele>
        <time>2016-06-06T10:58:11.675Z</time>
      </trkpt>
      <trkpt lat="45.9259" lon="4.76034">
        <ele>186.899993896</ele>
        <time>2016-06-06T10:58:12.745Z</time>
      </trkpt>
      <trkpt lat="45.92585" lon="4.76031">
        <ele>187.399993896</ele>
        <time>2016-06-06T10:58:13.681Z</time>
      </trkpt>
      <trkpt lat="45.92581" lon="4.76028">
        <ele>187.699996948</ele>
        <time>2016-06-06T10:58:14.701Z</time>
      </trkpt>
      <trkpt lat="45.92576" lon="4.76025">
        <ele>187.899993896</ele>
        <time>2016-06-06T10:58:15.679Z</time>
      </trkpt>
      <trkpt lat="45.92571" lon="4.76021">
        <ele>188.100006104</ele>
        <time>2016-06-06T10:58:16.698Z</time>
      </trkpt>
      <trkpt lat="45.92567" lon="4.76018">
        <ele>188.199996948</ele>
        <time>2016-06-06T10:58:17.677Z</time>
      </trkpt>
      <trkpt lat="45.92562" lon="4.76015">
        <ele>188.5</ele>
        <time>2016-06-06T10:58:18.698Z</time>
      </trkpt>
      <trkpt lat="45.92557" lon="4.76012">
        <ele>188.699996948</ele>
        <time>2016-06-06T10:58:19.678Z</time>
      </trkpt>
      <trkpt lat="45.92552" lon="4.76009">
        <ele>187.899993896</ele>
        <time>2016-06-06T10:58:20.697Z</time>
      </trkpt>
      <trkpt lat="45.92548" lon="4.76005">
        <ele>186.800003052</ele>
        <time>2016-06-06T10:58:21.678Z</time>
      </trkpt>
      <trkpt lat="45.92543" lon="4.76002">
        <ele>186.600006104</ele>
        <time>2016-06-06T10:58:22.716Z</time>
      </trkpt>
      <trkpt lat="45.92539" lon="4.75999">
        <ele>186.600006104</ele>
        <time>2016-06-06T10:58:23.675Z</time>
      </trkpt>
      <trkpt lat="45.92531" lon="4.75993">
        <ele>187</ele>
        <time>2016-06-06T10:58:25.701Z</time>
      </trkpt>
      <trkpt lat="45.92528" lon="4.7599">
        <ele>186.5</ele>
        <time>2016-06-06T10:58:26.681Z</time>
      </trkpt>
      <trkpt lat="45.92524" lon="4.75987">
        <ele>186.5</ele>
        <time>2016-06-06T10:58:27.817Z</time>
      </trkpt>
      <trkpt lat="45.92519" lon="4.75983">
        <ele>186.600006104</ele>
        <time>2016-06-06T10:58:28.678Z</time>
      </trkpt>
      <trkpt lat="45.92515" lon="4.7598">
        <ele>186.699996948</ele>
        <time>2016-06-06T10:58:29.703Z</time>
      </trkpt>
      <trkpt lat="45.9251" lon="4.75976">
        <ele>186.600006104</ele>
        <time>2016-06-06T10:58:30.681Z</time>
      </trkpt>
      <trkpt lat="45.92505" lon="4.75973">
        <ele>186.5</ele>
        <time>2016-06-06T10:58:31.698Z</time>
      </trkpt>
      <trkpt lat="45.925" lon="4.7597">
        <ele>186.100006104</ele>
        <time>2016-06-06T10:58:32.681Z</time>
      </trkpt>
      <trkpt lat="45.92494" lon="4.75966">
        <ele>185.800003052</ele>
        <time>2016-06-06T10:58:33.718Z</time>
      </trkpt>
      <trkpt lat="45.92489" lon="4.75963">
        <ele>185.399993896</ele>
        <time>2016-06-06T10:58:34.678Z</time>
      </trkpt>
      <trkpt lat="45.92483" lon="4.7596">
        <ele>185.300003052</ele>
        <time>2016-06-06T10:58:35.698Z</time>
      </trkpt>
      <trkpt lat="45.92477" lon="4.75957">
        <ele>185.100006104</ele>
        <time>2016-06-06T10:58:36.678Z</time>
      </trkpt>
      <trkpt lat="45.92472" lon="4.75953">
        <ele>185</ele>
        <time>2016-06-06T10:58:37.762Z</time>
      </trkpt>
      <trkpt lat="45.92466" lon="4.75949">
        <ele>184.800003052</ele>
        <time>2016-06-06T10:58:38.678Z</time>
      </trkpt>
      <trkpt lat="45.92461" lon="4.75946">
        <ele>184.800003052</ele>
        <time>2016-06-06T10:58:39.701Z</time>
      </trkpt>
      <trkpt lat="45.92455" lon="4.75943">
        <ele>184.600006104</ele>
        <time>2016-06-06T10:58:40.681Z</time>
      </trkpt>
      <trkpt lat="45.92449" lon="4.75939">
        <ele>183.899993896</ele>
        <time>2016-06-06T10:58:41.702Z</time>
      </trkpt>
      <trkpt lat="45.92442" lon="4.75935">
        <ele>183.300003052</ele>
        <time>2016-06-06T10:58:42.678Z</time>
      </trkpt>
      <trkpt lat="45.92436" lon="4.75931">
        <ele>182.899993896</ele>
        <time>2016-06-06T10:58:43.73Z</time>
      </trkpt>
      <trkpt lat="45.92429" lon="4.75927">
        <ele>182</ele>
        <time>2016-06-06T10:58:44.681Z</time>
      </trkpt>
      <trkpt lat="45.92422" lon="4.75922">
        <ele>181.399993896</ele>
        <time>2016-06-06T10:58:45.7Z</time>
      </trkpt>
      <trkpt lat="45.92416" lon="4.75918">
        <ele>181.399993896</ele>
        <time>2016-06-06T10:58:46.681Z</time>
      </trkpt>
      <trkpt lat="45.92409" lon="4.75914">
        <ele>181</ele>
        <time>2016-06-06T10:58:47.708Z</time>
      </trkpt>
      <trkpt lat="45.92403" lon="4.7591">
        <ele>181.399993896</ele>
        <time>2016-06-06T10:58:48.678Z</time>
      </trkpt>
      <trkpt lat="45.92396" lon="4.75905">
        <ele>181.399993896</ele>
        <time>2016-06-06T10:58:49.698Z</time>
      </trkpt>
      <trkpt lat="45.9239" lon="4.75901">
        <ele>180.699996948</ele>
        <time>2016-06-06T10:58:50.68Z</time>
      </trkpt>
      <trkpt lat="45.92384" lon="4.75896">
        <ele>180.699996948</ele>
        <time>2016-06-06T10:58:51.711Z</time>
      </trkpt>
      <trkpt lat="45.92378" lon="4.75891">
        <ele>180</ele>
        <time>2016-06-06T10:58:52.678Z</time>
      </trkpt>
      <trkpt lat="45.92372" lon="4.75887">
        <ele>179.5</ele>
        <time>2016-06-06T10:58:53.7Z</time>
      </trkpt>
      <trkpt lat="45.92366" lon="4.75883">
        <ele>179.199996948</ele>
        <time>2016-06-06T10:58:54.716Z</time>
      </trkpt>
      <trkpt lat="45.92361" lon="4.75879">
        <ele>178.800003052</ele>
        <time>2016-06-06T10:58:55.698Z</time>
      </trkpt>
      <trkpt lat="45.92356" lon="4.75876">
        <ele>178.600006104</ele>
        <time>2016-06-06T10:58:56.678Z</time>
      </trkpt>
      <trkpt lat="45.92351" lon="4.75873">
        <ele>178.5</ele>
        <time>2016-06-06T10:58:57.705Z</time>
      </trkpt>
      <trkpt lat="45.92345" lon="4.7587">
        <ele>177.800003052</ele>
        <time>2016-06-06T10:58:58.678Z</time>
      </trkpt>
      <trkpt lat="45.9234" lon="4.75867">
        <ele>177.100006104</ele>
        <time>2016-06-06T10:58:59.73Z</time>
      </trkpt>
      <trkpt lat="45.92335" lon="4.75864">
        <ele>176.800003052</ele>
        <time>2016-06-06T10:59:00.678Z</time>
      </trkpt>
      <trkpt lat="45.9233" lon="4.75861">
        <ele>176.899993896</ele>
        <time>2016-06-06T10:59:01.698Z</time>
      </trkpt>
      <trkpt lat="45.92324" lon="4.75858">
        <ele>176.5</ele>
        <time>2016-06-06T10:59:02.681Z</time>
      </trkpt>
      <trkpt lat="45.92319" lon="4.75854">
        <ele>176.399993896</ele>
        <time>2016-06-06T10:59:03.701Z</time>
      </trkpt>
      <trkpt lat="45.92314" lon="4.7585">
        <ele>176.300003052</ele>
        <time>2016-06-06T10:59:04.681Z</time>
      </trkpt>
      <trkpt lat="45.92309" lon="4.75848">
        <ele>176.199996948</ele>
        <time>2016-06-06T10:59:05.839Z</time>
      </trkpt>
      <trkpt lat="45.92304" lon="4.75845">
        <ele>176.300003052</ele>
        <time>2016-06-06T10:59:06.678Z</time>
      </trkpt>
      <trkpt lat="45.92299" lon="4.75842">
        <ele>176</ele>
        <time>2016-06-06T10:59:07.698Z</time>
      </trkpt>
      <trkpt lat="45.92294" lon="4.75839">
        <ele>175.899993896</ele>
        <time>2016-06-06T10:59:08.677Z</time>
      </trkpt>
      <trkpt lat="45.92289" lon="4.75835">
        <ele>175.699996948</ele>
        <time>2016-06-06T10:59:09.704Z</time>
      </trkpt>
      <trkpt lat="45.92284" lon="4.75831">
        <ele>175.399993896</ele>
        <time>2016-06-06T10:59:10.678Z</time>
      </trkpt>
      <trkpt lat="45.92279" lon="4.75827">
        <ele>175.100006104</ele>
        <time>2016-06-06T10:59:11.702Z</time>
      </trkpt>
      <trkpt lat="45.92275" lon="4.75822">
        <ele>174.899993896</ele>
        <time>2016-06-06T10:59:12.681Z</time>
      </trkpt>
      <trkpt lat="45.92271" lon="4.75816">
        <ele>174.899993896</ele>
        <time>2016-06-06T10:59:13.724Z</time>
      </trkpt>
      <trkpt lat="45.92267" lon="4.7581">
        <ele>174.699996948</ele>
        <time>2016-06-06T10:59:14.678Z</time>
      </trkpt>
      <trkpt lat="45.92265" lon="4.75803">
        <ele>174.699996948</ele>
        <time>2016-06-06T10:59:15.716Z</time>
      </trkpt>
      <trkpt lat="45.92263" lon="4.75797">
        <ele>174.699996948</ele>
        <time>2016-06-06T10:59:16.683Z</time>
      </trkpt>
      <trkpt lat="45.92261" lon="4.7579">
        <ele>174.800003052</ele>
        <time>2016-06-06T10:59:17.7Z</time>
      </trkpt>
      <trkpt lat="45.9226" lon="4.75782">
        <ele>174.899993896</ele>
        <time>2016-06-06T10:59:18.678Z</time>
      </trkpt>
      <trkpt lat="45.92258" lon="4.75774">
        <ele>175</ele>
        <time>2016-06-06T10:59:19.698Z</time>
      </trkpt>
      <trkpt lat="45.92257" lon="4.75766">
        <ele>175.5</ele>
        <time>2016-06-06T10:59:20.681Z</time>
      </trkpt>
      <trkpt lat="45.92255" lon="4.75758">
        <ele>175.600006104</ele>
        <time>2016-06-06T10:59:21.786Z</time>
      </trkpt>
      <trkpt lat="45.92254" lon="4.75749">
        <ele>175.300003052</ele>
        <time>2016-06-06T10:59:22.678Z</time>
      </trkpt>
      <trkpt lat="45.92252" lon="4.7574">
        <ele>175.600006104</ele>
        <time>2016-06-06T10:59:23.703Z</time>
      </trkpt>
      <trkpt lat="45.9225" lon="4.75732">
        <ele>175.899993896</ele>
        <time>2016-06-06T10:59:24.681Z</time>
      </trkpt>
      <trkpt lat="45.92247" lon="4.75723">
        <ele>175.800003052</ele>
        <time>2016-06-06T10:59:25.701Z</time>
      </trkpt>
      <trkpt lat="45.92244" lon="4.75716">
        <ele>175.600006104</ele>
        <time>2016-06-06T10:59:26.678Z</time>
      </trkpt>
      <trkpt lat="45.9224" lon="4.75709">
        <ele>175.600006104</ele>
        <time>2016-06-06T10:59:27.703Z</time>
      </trkpt>
      <trkpt lat="45.92236" lon="4.75702">
        <ele>175.5</ele>
        <time>2016-06-06T10:59:28.681Z</time>
      </trkpt>
      <trkpt lat="45.92231" lon="4.75697">
        <ele>175.600006104</ele>
        <time>2016-06-06T10:59:29.702Z</time>
      </trkpt>
      <trkpt lat="45.92226" lon="4.75693">
        <ele>175.899993896</ele>
        <time>2016-06-06T10:59:30.681Z</time>
      </trkpt>
      <trkpt lat="45.92222" lon="4.75688">
        <ele>176.199996948</ele>
        <time>2016-06-06T10:59:31.715Z</time>
      </trkpt>
      <trkpt lat="45.92217" lon="4.75684">
        <ele>176.100006104</ele>
        <time>2016-06-06T10:59:32.685Z</time>
      </trkpt>
      <trkpt lat="45.92212" lon="4.75679">
        <ele>175</ele>
        <time>2016-06-06T10:59:33.795Z</time>
      </trkpt>
      <trkpt lat="45.92207" lon="4.75673">
        <ele>175</ele>
        <time>2016-06-06T10:59:34.685Z</time>
      </trkpt>
      <trkpt lat="45.92203" lon="4.75668">
        <ele>175.199996948</ele>
        <time>2016-06-06T10:59:35.736Z</time>
      </trkpt>
      <trkpt lat="45.92198" lon="4.75664">
        <ele>175.399993896</ele>
        <time>2016-06-06T10:59:36.681Z</time>
      </trkpt>
      <trkpt lat="45.92194" lon="4.75659">
        <ele>175.699996948</ele>
        <time>2016-06-06T10:59:37.723Z</time>
      </trkpt>
      <trkpt lat="45.92189" lon="4.75654">
        <ele>176.100006104</ele>
        <time>2016-06-06T10:59:38.681Z</time>
      </trkpt>
      <trkpt lat="45.92184" lon="4.7565">
        <ele>176.300003052</ele>
        <time>2016-06-06T10:59:39.703Z</time>
      </trkpt>
      <trkpt lat="45.92179" lon="4.75645">
        <ele>175.899993896</ele>
        <time>2016-06-06T10:59:40.681Z</time>
      </trkpt>
      <trkpt lat="45.92174" lon="4.7564">
        <ele>176</ele>
        <time>2016-06-06T10:59:41.702Z</time>
      </trkpt>
      <trkpt lat="45.92169" lon="4.75635">
        <ele>176.199996948</ele>
        <time>2016-06-06T10:59:42.683Z</time>
      </trkpt>
      <trkpt lat="45.92164" lon="4.75629">
        <ele>176</ele>
        <time>2016-06-06T10:59:43.745Z</time>
      </trkpt>
      <trkpt lat="45.92158" lon="4.75624">
        <ele>175.600006104</ele>
        <time>2016-06-06T10:59:44.681Z</time>
      </trkpt>
      <trkpt lat="45.92153" lon="4.75619">
        <ele>176.300003052</ele>
        <time>2016-06-06T10:59:45.7Z</time>
      </trkpt>
      <trkpt lat="45.92149" lon="4.75615">
        <ele>176.5</ele>
        <time>2016-06-06T10:59:46.678Z</time>
      </trkpt>
      <trkpt lat="45.92144" lon="4.7561">
        <ele>176.399993896</ele>
        <time>2016-06-06T10:59:47.714Z</time>
      </trkpt>
      <trkpt lat="45.92139" lon="4.75606">
        <ele>176.399993896</ele>
        <time>2016-06-06T10:59:48.678Z</time>
      </trkpt>
      <trkpt lat="45.92136" lon="4.75601">
        <ele>176.899993896</ele>
        <time>2016-06-06T10:59:49.7Z</time>
      </trkpt>
      <trkpt lat="45.92132" lon="4.75597">
        <ele>177.100006104</ele>
        <time>2016-06-06T10:59:50.681Z</time>
      </trkpt>
      <trkpt lat="45.92128" lon="4.75593">
        <ele>177.800003052</ele>
        <time>2016-06-06T10:59:51.707Z</time>
      </trkpt>
      <trkpt lat="45.92124" lon="4.75588">
        <ele>177.199996948</ele>
        <time>2016-06-06T10:59:52.696Z</time>
      </trkpt>
      <trkpt lat="45.92119" lon="4.75577">
        <ele>176.699996948</ele>
        <time>2016-06-06T10:59:54.697Z</time>
      </trkpt>
      <trkpt lat="45.92119" lon="4.75571">
        <ele>176.699996948</ele>
        <time>2016-06-06T10:59:55.712Z</time>
      </trkpt>
      <trkpt lat="45.9212" lon="4.75564">
        <ele>176.899993896</ele>
        <time>2016-06-06T10:59:56.697Z</time>
      </trkpt>
      <trkpt lat="45.92123" lon="4.75558">
        <ele>176.800003052</ele>
        <time>2016-06-06T10:59:57.68Z</time>
      </trkpt>
      <trkpt lat="45.92126" lon="4.75552">
        <ele>177.199996948</ele>
        <time>2016-06-06T10:59:58.697Z</time>
      </trkpt>
      <trkpt lat="45.9213" lon="4.75546">
        <ele>177.699996948</ele>
        <time>2016-06-06T10:59:59.675Z</time>
      </trkpt>
      <trkpt lat="45.92133" lon="4.7554">
        <ele>177.600006104</ele>
        <time>2016-06-06T11:00:00.697Z</time>
      </trkpt>
      <trkpt lat="45.92137" lon="4.75534">
        <ele>177.800003052</ele>
        <time>2016-06-06T11:00:01.681Z</time>
      </trkpt>
      <trkpt lat="45.92139" lon="4.75528">
        <ele>177.899993896</ele>
        <time>2016-06-06T11:00:02.7Z</time>
      </trkpt>
      <trkpt lat="45.92142" lon="4.75521">
        <ele>178</ele>
        <time>2016-06-06T11:00:03.683Z</time>
      </trkpt>
      <trkpt lat="45.92145" lon="4.75515">
        <ele>177.899993896</ele>
        <time>2016-06-06T11:00:04.697Z</time>
      </trkpt>
      <trkpt lat="45.92148" lon="4.75508">
        <ele>178.100006104</ele>
        <time>2016-06-06T11:00:05.682Z</time>
      </trkpt>
      <trkpt lat="45.92151" lon="4.75501">
        <ele>178.100006104</ele>
        <time>2016-06-06T11:00:06.701Z</time>
      </trkpt>
      <trkpt lat="45.92153" lon="4.75494">
        <ele>178</ele>
        <time>2016-06-06T11:00:07.678Z</time>
      </trkpt>
      <trkpt lat="45.92156" lon="4.75487">
        <ele>178</ele>
        <time>2016-06-06T11:00:08.716Z</time>
      </trkpt>
      <trkpt lat="45.92159" lon="4.7548">
        <ele>178.199996948</ele>
        <time>2016-06-06T11:00:09.678Z</time>
      </trkpt>
      <trkpt lat="45.92162" lon="4.75472">
        <ele>177.800003052</ele>
        <time>2016-06-06T11:00:10.697Z</time>
      </trkpt>
      <trkpt lat="45.92165" lon="4.75465">
        <ele>177.600006104</ele>
        <time>2016-06-06T11:00:11.675Z</time>
      </trkpt>
      <trkpt lat="45.92168" lon="4.75458">
        <ele>177.699996948</ele>
        <time>2016-06-06T11:00:12.697Z</time>
      </trkpt>
      <trkpt lat="45.92171" lon="4.7545">
        <ele>177.699996948</ele>
        <time>2016-06-06T11:00:13.681Z</time>
      </trkpt>
      <trkpt lat="45.92174" lon="4.75443">
        <ele>177.800003052</ele>
        <time>2016-06-06T11:00:14.875Z</time>
      </trkpt>
      <trkpt lat="45.92177" lon="4.75435">
        <ele>177.699996948</ele>
        <time>2016-06-06T11:00:15.675Z</time>
      </trkpt>
      <trkpt lat="45.92179" lon="4.75427">
        <ele>178</ele>
        <time>2016-06-06T11:00:16.7Z</time>
      </trkpt>
      <trkpt lat="45.92182" lon="4.75419">
        <ele>178</ele>
        <time>2016-06-06T11:00:17.675Z</time>
      </trkpt>
      <trkpt lat="45.92185" lon="4.75411">
        <ele>177.800003052</ele>
        <time>2016-06-06T11:00:18.697Z</time>
      </trkpt>
      <trkpt lat="45.92188" lon="4.75402">
        <ele>177.600006104</ele>
        <time>2016-06-06T11:00:19.681Z</time>
      </trkpt>
      <trkpt lat="45.9219" lon="4.75395">
        <ele>177.800003052</ele>
        <time>2016-06-06T11:00:20.7Z</time>
      </trkpt>
      <trkpt lat="45.92193" lon="4.75388">
        <ele>177.699996948</ele>
        <time>2016-06-06T11:00:21.678Z</time>
      </trkpt>
      <trkpt lat="45.92195" lon="4.7538">
        <ele>177.399993896</ele>
        <time>2016-06-06T11:00:22.726Z</time>
      </trkpt>
      <trkpt lat="45.92198" lon="4.75373">
        <ele>177</ele>
        <time>2016-06-06T11:00:23.675Z</time>
      </trkpt>
      <trkpt lat="45.92201" lon="4.75366">
        <ele>176.699996948</ele>
        <time>2016-06-06T11:00:24.717Z</time>
      </trkpt>
      <trkpt lat="45.92203" lon="4.75359">
        <ele>176.399993896</ele>
        <time>2016-06-06T11:00:25.681Z</time>
      </trkpt>
      <trkpt lat="45.92205" lon="4.75352">
        <ele>176.399993896</ele>
        <time>2016-06-06T11:00:26.701Z</time>
      </trkpt>
      <trkpt lat="45.92207" lon="4.75344">
        <ele>176.399993896</ele>
        <time>2016-06-06T11:00:27.682Z</time>
      </trkpt>
      <trkpt lat="45.92208" lon="4.75336">
        <ele>176.5</ele>
        <time>2016-06-06T11:00:28.7Z</time>
      </trkpt>
      <trkpt lat="45.92209" lon="4.75327">
        <ele>176.5</ele>
        <time>2016-06-06T11:00:29.681Z</time>
      </trkpt>
      <trkpt lat="45.9221" lon="4.75319">
        <ele>176.800003052</ele>
        <time>2016-06-06T11:00:30.705Z</time>
      </trkpt>
      <trkpt lat="45.92211" lon="4.7531">
        <ele>177.399993896</ele>
        <time>2016-06-06T11:00:31.681Z</time>
      </trkpt>
      <trkpt lat="45.92212" lon="4.75301">
        <ele>177.199996948</ele>
        <time>2016-06-06T11:00:32.697Z</time>
      </trkpt>
      <trkpt lat="45.92213" lon="4.75292">
        <ele>177.100006104</ele>
        <time>2016-06-06T11:00:33.741Z</time>
      </trkpt>
      <trkpt lat="45.92213" lon="4.75283">
        <ele>177</ele>
        <time>2016-06-06T11:00:34.701Z</time>
      </trkpt>
      <trkpt lat="45.92214" lon="4.75273">
        <ele>177.100006104</ele>
        <time>2016-06-06T11:00:35.675Z</time>
      </trkpt>
      <trkpt lat="45.92214" lon="4.75263">
        <ele>177.199996948</ele>
        <time>2016-06-06T11:00:36.697Z</time>
      </trkpt>
      <trkpt lat="45.92215" lon="4.75254">
        <ele>177.100006104</ele>
        <time>2016-06-06T11:00:37.678Z</time>
      </trkpt>
      <trkpt lat="45.92216" lon="4.75244">
        <ele>177.100006104</ele>
        <time>2016-06-06T11:00:38.7Z</time>
      </trkpt>
      <trkpt lat="45.92217" lon="4.75234">
        <ele>177.5</ele>
        <time>2016-06-06T11:00:39.678Z</time>
      </trkpt>
      <trkpt lat="45.92218" lon="4.75223">
        <ele>177.199996948</ele>
        <time>2016-06-06T11:00:40.713Z</time>
      </trkpt>
      <trkpt lat="45.92219" lon="4.75212">
        <ele>176.800003052</ele>
        <time>2016-06-06T11:00:41.682Z</time>
      </trkpt>
      <trkpt lat="45.92221" lon="4.75202">
        <ele>176.800003052</ele>
        <time>2016-06-06T11:00:42.697Z</time>
      </trkpt>
      <trkpt lat="45.92223" lon="4.75192">
        <ele>176.800003052</ele>
        <time>2016-06-06T11:00:43.677Z</time>
      </trkpt>
      <trkpt lat="45.92225" lon="4.75182">
        <ele>176.399993896</ele>
        <time>2016-06-06T11:00:44.833Z</time>
      </trkpt>
      <trkpt lat="45.92229" lon="4.75173">
        <ele>176.800003052</ele>
        <time>2016-06-06T11:00:45.679Z</time>
      </trkpt>
      <trkpt lat="45.92232" lon="4.75164">
        <ele>176.5</ele>
        <time>2016-06-06T11:00:46.701Z</time>
      </trkpt>
      <trkpt lat="45.92237" lon="4.75156">
        <ele>176.100006104</ele>
        <time>2016-06-06T11:00:47.681Z</time>
      </trkpt>
      <trkpt lat="45.92241" lon="4.75148">
        <ele>176.100006104</ele>
        <time>2016-06-06T11:00:48.697Z</time>
      </trkpt>
      <trkpt lat="45.92246" lon="4.7514">
        <ele>175.899993896</ele>
        <time>2016-06-06T11:00:49.677Z</time>
      </trkpt>
      <trkpt lat="45.92251" lon="4.75133">
        <ele>175.899993896</ele>
        <time>2016-06-06T11:00:50.745Z</time>
      </trkpt>
      <trkpt lat="45.92256" lon="4.75126">
        <ele>175.800003052</ele>
        <time>2016-06-06T11:00:51.68Z</time>
      </trkpt>
      <trkpt lat="45.92261" lon="4.7512">
        <ele>175.699996948</ele>
        <time>2016-06-06T11:00:52.7Z</time>
      </trkpt>
      <trkpt lat="45.92267" lon="4.75114">
        <ele>175.5</ele>
        <time>2016-06-06T11:00:53.68Z</time>
      </trkpt>
      <trkpt lat="45.92272" lon="4.75108">
        <ele>175.300003052</ele>
        <time>2016-06-06T11:00:54.697Z</time>
      </trkpt>
      <trkpt lat="45.92277" lon="4.75103">
        <ele>175.199996948</ele>
        <time>2016-06-06T11:00:55.803Z</time>
      </trkpt>
      <trkpt lat="45.92283" lon="4.75097">
        <ele>175</ele>
        <time>2016-06-06T11:00:56.7Z</time>
      </trkpt>
      <trkpt lat="45.92288" lon="4.75092">
        <ele>175.100006104</ele>
        <time>2016-06-06T11:00:57.675Z</time>
      </trkpt>
      <trkpt lat="45.92293" lon="4.75087">
        <ele>175.199996948</ele>
        <time>2016-06-06T11:00:58.697Z</time>
      </trkpt>
      <trkpt lat="45.92298" lon="4.75081">
        <ele>175.300003052</ele>
        <time>2016-06-06T11:00:59.675Z</time>
      </trkpt>
      <trkpt lat="45.92303" lon="4.75075">
        <ele>174.899993896</ele>
        <time>2016-06-06T11:01:00.722Z</time>
      </trkpt>
      <trkpt lat="45.92308" lon="4.75069">
        <ele>174.699996948</ele>
        <time>2016-06-06T11:01:01.68Z</time>
      </trkpt>
      <trkpt lat="45.92314" lon="4.75062">
        <ele>174.5</ele>
        <time>2016-06-06T11:01:02.697Z</time>
      </trkpt>
      <trkpt lat="45.92319" lon="4.75056">
        <ele>174.199996948</ele>
        <time>2016-06-06T11:01:03.678Z</time>
      </trkpt>
      <trkpt lat="45.92324" lon="4.75049">
        <ele>174.100006104</ele>
        <time>2016-06-06T11:01:04.721Z</time>
      </trkpt>
      <trkpt lat="45.92328" lon="4.75042">
        <ele>173.800003052</ele>
        <time>2016-06-06T11:01:05.678Z</time>
      </trkpt>
      <trkpt lat="45.92333" lon="4.75034">
        <ele>173.399993896</ele>
        <time>2016-06-06T11:01:06.697Z</time>
      </trkpt>
      <trkpt lat="45.92336" lon="4.75027">
        <ele>173.699996948</ele>
        <time>2016-06-06T11:01:07.678Z</time>
      </trkpt>
      <trkpt lat="45.9234" lon="4.7502">
        <ele>173.300003052</ele>
        <time>2016-06-06T11:01:08.701Z</time>
      </trkpt>
      <trkpt lat="45.92343" lon="4.75014">
        <ele>173.300003052</ele>
        <time>2016-06-06T11:01:09.678Z</time>
      </trkpt>
      <trkpt lat="45.92346" lon="4.75007">
        <ele>173.199996948</ele>
        <time>2016-06-06T11:01:10.703Z</time>
      </trkpt>
      <trkpt lat="45.92349" lon="4.75">
        <ele>173.199996948</ele>
        <time>2016-06-06T11:01:11.701Z</time>
      </trkpt>
      <trkpt lat="45.92351" lon="4.74992">
        <ele>173.199996948</ele>
        <time>2016-06-06T11:01:12.7Z</time>
      </trkpt>
      <trkpt lat="45.92354" lon="4.74984">
        <ele>173.5</ele>
        <time>2016-06-06T11:01:13.68Z</time>
      </trkpt>
      <trkpt lat="45.92356" lon="4.74977">
        <ele>173.300003052</ele>
        <time>2016-06-06T11:01:14.696Z</time>
      </trkpt>
      <trkpt lat="45.92359" lon="4.74969">
        <ele>173.199996948</ele>
        <time>2016-06-06T11:01:15.675Z</time>
      </trkpt>
      <trkpt lat="45.92362" lon="4.74962">
        <ele>172.899993896</ele>
        <time>2016-06-06T11:01:16.713Z</time>
      </trkpt>
      <trkpt lat="45.92365" lon="4.74954">
        <ele>172.300003052</ele>
        <time>2016-06-06T11:01:17.678Z</time>
      </trkpt>
      <trkpt lat="45.92368" lon="4.74947">
        <ele>172.300003052</ele>
        <time>2016-06-06T11:01:18.696Z</time>
      </trkpt>
      <trkpt lat="45.92371" lon="4.7494">
        <ele>172.100006104</ele>
        <time>2016-06-06T11:01:19.677Z</time>
      </trkpt>
      <trkpt lat="45.92374" lon="4.74933">
        <ele>172.600006104</ele>
        <time>2016-06-06T11:01:20.699Z</time>
      </trkpt>
      <trkpt lat="45.92376" lon="4.74926">
        <ele>172.899993896</ele>
        <time>2016-06-06T11:01:21.675Z</time>
      </trkpt>
      <trkpt lat="45.92379" lon="4.74918">
        <ele>173.199996948</ele>
        <time>2016-06-06T11:01:22.696Z</time>
      </trkpt>
      <trkpt lat="45.92383" lon="4.7491">
        <ele>173.300003052</ele>
        <time>2016-06-06T11:01:23.678Z</time>
      </trkpt>
      <trkpt lat="45.92385" lon="4.74903">
        <ele>173.600006104</ele>
        <time>2016-06-06T11:01:24.701Z</time>
      </trkpt>
      <trkpt lat="45.92388" lon="4.74895">
        <ele>173.600006104</ele>
        <time>2016-06-06T11:01:25.675Z</time>
      </trkpt>
      <trkpt lat="45.92391" lon="4.74887">
        <ele>173.699996948</ele>
        <time>2016-06-06T11:01:26.698Z</time>
      </trkpt>
      <trkpt lat="45.92394" lon="4.74879">
        <ele>174.300003052</ele>
        <time>2016-06-06T11:01:27.681Z</time>
      </trkpt>
      <trkpt lat="45.92397" lon="4.74871">
        <ele>174.399993896</ele>
        <time>2016-06-06T11:01:28.696Z</time>
      </trkpt>
      <trkpt lat="45.92399" lon="4.74862">
        <ele>174.5</ele>
        <time>2016-06-06T11:01:29.677Z</time>
      </trkpt>
      <trkpt lat="45.92402" lon="4.74855">
        <ele>174.800003052</ele>
        <time>2016-06-06T11:01:30.7Z</time>
      </trkpt>
      <trkpt lat="45.92404" lon="4.74847">
        <ele>174.600006104</ele>
        <time>2016-06-06T11:01:31.71Z</time>
      </trkpt>
      <trkpt lat="45.92406" lon="4.74839">
        <ele>174.399993896</ele>
        <time>2016-06-06T11:01:32.714Z</time>
      </trkpt>
      <trkpt lat="45.92408" lon="4.74832">
        <ele>174</ele>
        <time>2016-06-06T11:01:33.678Z</time>
      </trkpt>
      <trkpt lat="45.9241" lon="4.74823">
        <ele>173.800003052</ele>
        <time>2016-06-06T11:01:34.696Z</time>
      </trkpt>
      <trkpt lat="45.92411" lon="4.74815">
        <ele>173.899993896</ele>
        <time>2016-06-06T11:01:35.678Z</time>
      </trkpt>
      <trkpt lat="45.92413" lon="4.74807">
        <ele>173.800003052</ele>
        <time>2016-06-06T11:01:36.698Z</time>
      </trkpt>
      <trkpt lat="45.92415" lon="4.74798">
        <ele>173.600006104</ele>
        <time>2016-06-06T11:01:37.678Z</time>
      </trkpt>
      <trkpt lat="45.92416" lon="4.74789">
        <ele>173.5</ele>
        <time>2016-06-06T11:01:38.696Z</time>
      </trkpt>
      <trkpt lat="45.92418" lon="4.7478">
        <ele>173.199996948</ele>
        <time>2016-06-06T11:01:39.68Z</time>
      </trkpt>
      <trkpt lat="45.9242" lon="4.74771">
        <ele>173.399993896</ele>
        <time>2016-06-06T11:01:40.737Z</time>
      </trkpt>
      <trkpt lat="45.92422" lon="4.74762">
        <ele>173.100006104</ele>
        <time>2016-06-06T11:01:41.682Z</time>
      </trkpt>
      <trkpt lat="45.92425" lon="4.74753">
        <ele>173.399993896</ele>
        <time>2016-06-06T11:01:42.713Z</time>
      </trkpt>
      <trkpt lat="45.92428" lon="4.74744">
        <ele>173</ele>
        <time>2016-06-06T11:01:43.676Z</time>
      </trkpt>
      <trkpt lat="45.9243" lon="4.74735">
        <ele>172.800003052</ele>
        <time>2016-06-06T11:01:44.696Z</time>
      </trkpt>
      <trkpt lat="45.92433" lon="4.74727">
        <ele>173</ele>
        <time>2016-06-06T11:01:45.678Z</time>
      </trkpt>
      <trkpt lat="45.92436" lon="4.74719">
        <ele>173.199996948</ele>
        <time>2016-06-06T11:01:46.696Z</time>
      </trkpt>
      <trkpt lat="45.92439" lon="4.74712">
        <ele>173.100006104</ele>
        <time>2016-06-06T11:01:47.677Z</time>
      </trkpt>
      <trkpt lat="45.92441" lon="4.74705">
        <ele>173.5</ele>
        <time>2016-06-06T11:01:48.696Z</time>
      </trkpt>
      <trkpt lat="45.92445" lon="4.74698">
        <ele>173.5</ele>
        <time>2016-06-06T11:01:49.676Z</time>
      </trkpt>
      <trkpt lat="45.92448" lon="4.74691">
        <ele>173.5</ele>
        <time>2016-06-06T11:01:50.696Z</time>
      </trkpt>
      <trkpt lat="45.92451" lon="4.74684">
        <ele>173.800003052</ele>
        <time>2016-06-06T11:01:51.697Z</time>
      </trkpt>
      <trkpt lat="45.92454" lon="4.74677">
        <ele>173.5</ele>
        <time>2016-06-06T11:01:52.712Z</time>
      </trkpt>
      <trkpt lat="45.92457" lon="4.7467">
        <ele>173.399993896</ele>
        <time>2016-06-06T11:01:53.681Z</time>
      </trkpt>
      <trkpt lat="45.92461" lon="4.74663">
        <ele>173.300003052</ele>
        <time>2016-06-06T11:01:54.699Z</time>
      </trkpt>
      <trkpt lat="45.92464" lon="4.74655">
        <ele>172.899993896</ele>
        <time>2016-06-06T11:01:55.68Z</time>
      </trkpt>
      <trkpt lat="45.92468" lon="4.74648">
        <ele>172.699996948</ele>
        <time>2016-06-06T11:01:56.699Z</time>
      </trkpt>
      <trkpt lat="45.92473" lon="4.74641">
        <ele>172.399993896</ele>
        <time>2016-06-06T11:01:57.675Z</time>
      </trkpt>
      <trkpt lat="45.92477" lon="4.74635">
        <ele>172.899993896</ele>
        <time>2016-06-06T11:01:58.714Z</time>
      </trkpt>
      <trkpt lat="45.92483" lon="4.74629">
        <ele>173</ele>
        <time>2016-06-06T11:01:59.681Z</time>
      </trkpt>
      <trkpt lat="45.92488" lon="4.74621">
        <ele>173</ele>
        <time>2016-06-06T11:02:00.699Z</time>
      </trkpt>
      <trkpt lat="45.92492" lon="4.74615">
        <ele>173.100006104</ele>
        <time>2016-06-06T11:02:01.679Z</time>
      </trkpt>
      <trkpt lat="45.92497" lon="4.74609">
        <ele>173.100006104</ele>
        <time>2016-06-06T11:02:02.734Z</time>
      </trkpt>
      <trkpt lat="45.92502" lon="4.74603">
        <ele>173.199996948</ele>
        <time>2016-06-06T11:02:03.679Z</time>
      </trkpt>
      <trkpt lat="45.92506" lon="4.74597">
        <ele>172.600006104</ele>
        <time>2016-06-06T11:02:04.696Z</time>
      </trkpt>
      <trkpt lat="45.92511" lon="4.74592">
        <ele>172.300003052</ele>
        <time>2016-06-06T11:02:05.681Z</time>
      </trkpt>
      <trkpt lat="45.92515" lon="4.74587">
        <ele>171.800003052</ele>
        <time>2016-06-06T11:02:06.696Z</time>
      </trkpt>
      <trkpt lat="45.9252" lon="4.74581">
        <ele>171.199996948</ele>
        <time>2016-06-06T11:02:07.677Z</time>
      </trkpt>
      <trkpt lat="45.92524" lon="4.74576">
        <ele>171.300003052</ele>
        <time>2016-06-06T11:02:08.696Z</time>
      </trkpt>
      <trkpt lat="45.92529" lon="4.74571">
        <ele>171.5</ele>
        <time>2016-06-06T11:02:09.678Z</time>
      </trkpt>
      <trkpt lat="45.92533" lon="4.74566">
        <ele>171.800003052</ele>
        <time>2016-06-06T11:02:10.726Z</time>
      </trkpt>
      <trkpt lat="45.92537" lon="4.7456">
        <ele>171.899993896</ele>
        <time>2016-06-06T11:02:11.677Z</time>
      </trkpt>
      <trkpt lat="45.92542" lon="4.74553">
        <ele>172</ele>
        <time>2016-06-06T11:02:12.725Z</time>
      </trkpt>
      <trkpt lat="45.92546" lon="4.74547">
        <ele>171.699996948</ele>
        <time>2016-06-06T11:02:13.679Z</time>
      </trkpt>
      <trkpt lat="45.9255" lon="4.7454">
        <ele>171.199996948</ele>
        <time>2016-06-06T11:02:14.714Z</time>
      </trkpt>
      <trkpt lat="45.92554" lon="4.74533">
        <ele>171</ele>
        <time>2016-06-06T11:02:15.678Z</time>
      </trkpt>
      <trkpt lat="45.92557" lon="4.74526">
        <ele>170.899993896</ele>
        <time>2016-06-06T11:02:16.696Z</time>
      </trkpt>
      <trkpt lat="45.92561" lon="4.7452">
        <ele>170.899993896</ele>
        <time>2016-06-06T11:02:17.678Z</time>
      </trkpt>
      <trkpt lat="45.92564" lon="4.74513">
        <ele>170.600006104</ele>
        <time>2016-06-06T11:02:18.696Z</time>
      </trkpt>
      <trkpt lat="45.92568" lon="4.74506">
        <ele>170.399993896</ele>
        <time>2016-06-06T11:02:19.691Z</time>
      </trkpt>
      <trkpt lat="45.92572" lon="4.745">
        <ele>170.5</ele>
        <time>2016-06-06T11:02:20.696Z</time>
      </trkpt>
      <trkpt lat="45.92575" lon="4.74493">
        <ele>170.100006104</ele>
        <time>2016-06-06T11:02:21.677Z</time>
      </trkpt>
      <trkpt lat="45.92578" lon="4.74487">
        <ele>170</ele>
        <time>2016-06-06T11:02:22.696Z</time>
      </trkpt>
      <trkpt lat="45.92582" lon="4.7448">
        <ele>170</ele>
        <time>2016-06-06T11:02:23.678Z</time>
      </trkpt>
      <trkpt lat="45.92586" lon="4.74473">
        <ele>169.699996948</ele>
        <time>2016-06-06T11:02:24.711Z</time>
      </trkpt>
      <trkpt lat="45.9259" lon="4.74466">
        <ele>169.5</ele>
        <time>2016-06-06T11:02:25.677Z</time>
      </trkpt>
      <trkpt lat="45.92593" lon="4.7446">
        <ele>169.5</ele>
        <time>2016-06-06T11:02:26.699Z</time>
      </trkpt>
      <trkpt lat="45.92597" lon="4.74452">
        <ele>169.600006104</ele>
        <time>2016-06-06T11:02:27.678Z</time>
      </trkpt>
      <trkpt lat="45.92601" lon="4.74445">
        <ele>169.5</ele>
        <time>2016-06-06T11:02:28.698Z</time>
      </trkpt>
      <trkpt lat="45.92606" lon="4.74438">
        <ele>169.5</ele>
        <time>2016-06-06T11:02:29.677Z</time>
      </trkpt>
      <trkpt lat="45.9261" lon="4.74431">
        <ele>169.899993896</ele>
        <time>2016-06-06T11:02:30.7Z</time>
      </trkpt>
      <trkpt lat="45.92614" lon="4.74423">
        <ele>169.699996948</ele>
        <time>2016-06-06T11:02:31.68Z</time>
      </trkpt>
      <trkpt lat="45.92618" lon="4.74415">
        <ele>169.899993896</ele>
        <time>2016-06-06T11:02:32.699Z</time>
      </trkpt>
      <trkpt lat="45.92622" lon="4.74408">
        <ele>169.899993896</ele>
        <time>2016-06-06T11:02:33.675Z</time>
      </trkpt>
      <trkpt lat="45.92626" lon="4.74401">
        <ele>170.199996948</ele>
        <time>2016-06-06T11:02:34.695Z</time>
      </trkpt>
      <trkpt lat="45.9263" lon="4.74394">
        <ele>170.100006104</ele>
        <time>2016-06-06T11:02:35.702Z</time>
      </trkpt>
      <trkpt lat="45.92634" lon="4.74386">
        <ele>170</ele>
        <time>2016-06-06T11:02:36.703Z</time>
      </trkpt>
      <trkpt lat="45.92638" lon="4.7438">
        <ele>170.100006104</ele>
        <time>2016-06-06T11:02:37.677Z</time>
      </trkpt>
      <trkpt lat="45.92641" lon="4.74373">
        <ele>169.699996948</ele>
        <time>2016-06-06T11:02:38.695Z</time>
      </trkpt>
      <trkpt lat="45.92644" lon="4.74367">
        <ele>169.899993896</ele>
        <time>2016-06-06T11:02:39.677Z</time>
      </trkpt>
      <trkpt lat="45.92647" lon="4.7436">
        <ele>169.899993896</ele>
        <time>2016-06-06T11:02:40.695Z</time>
      </trkpt>
      <trkpt lat="45.92651" lon="4.74354">
        <ele>169.800003052</ele>
        <time>2016-06-06T11:02:41.681Z</time>
      </trkpt>
      <trkpt lat="45.92654" lon="4.74348">
        <ele>170</ele>
        <time>2016-06-06T11:02:42.696Z</time>
      </trkpt>
      <trkpt lat="45.92658" lon="4.74341">
        <ele>170.5</ele>
        <time>2016-06-06T11:02:43.676Z</time>
      </trkpt>
      <trkpt lat="45.92661" lon="4.74335">
        <ele>170.800003052</ele>
        <time>2016-06-06T11:02:44.696Z</time>
      </trkpt>
      <trkpt lat="45.92665" lon="4.74328">
        <ele>171.199996948</ele>
        <time>2016-06-06T11:02:45.692Z</time>
      </trkpt>
      <trkpt lat="45.92669" lon="4.74321">
        <ele>171.300003052</ele>
        <time>2016-06-06T11:02:46.694Z</time>
      </trkpt>
      <trkpt lat="45.92673" lon="4.74314">
        <ele>171.600006104</ele>
        <time>2016-06-06T11:02:47.678Z</time>
      </trkpt>
      <trkpt lat="45.92677" lon="4.74307">
        <ele>171.600006104</ele>
        <time>2016-06-06T11:02:48.695Z</time>
      </trkpt>
      <trkpt lat="45.92681" lon="4.743">
        <ele>171.899993896</ele>
        <time>2016-06-06T11:02:49.664Z</time>
      </trkpt>
      <trkpt lat="45.92685" lon="4.74292">
        <ele>171.800003052</ele>
        <time>2016-06-06T11:02:50.711Z</time>
      </trkpt>
      <trkpt lat="45.92689" lon="4.74285">
        <ele>171.899993896</ele>
        <time>2016-06-06T11:02:51.677Z</time>
      </trkpt>
      <trkpt lat="45.92694" lon="4.74278">
        <ele>172.399993896</ele>
        <time>2016-06-06T11:02:52.696Z</time>
      </trkpt>
      <trkpt lat="45.92697" lon="4.74271">
        <ele>172.5</ele>
        <time>2016-06-06T11:02:53.675Z</time>
      </trkpt>
      <trkpt lat="45.92702" lon="4.74264">
        <ele>172.600006104</ele>
        <time>2016-06-06T11:02:54.698Z</time>
      </trkpt>
      <trkpt lat="45.92706" lon="4.74258">
        <ele>173</ele>
        <time>2016-06-06T11:02:55.679Z</time>
      </trkpt>
      <trkpt lat="45.9271" lon="4.74251">
        <ele>173.100006104</ele>
        <time>2016-06-06T11:02:56.695Z</time>
      </trkpt>
      <trkpt lat="45.92714" lon="4.74245">
        <ele>173</ele>
        <time>2016-06-06T11:02:57.679Z</time>
      </trkpt>
      <trkpt lat="45.92718" lon="4.74238">
        <ele>173.199996948</ele>
        <time>2016-06-06T11:02:58.695Z</time>
      </trkpt>
      <trkpt lat="45.92721" lon="4.74232">
        <ele>173.199996948</ele>
        <time>2016-06-06T11:02:59.678Z</time>
      </trkpt>
      <trkpt lat="45.92725" lon="4.74226">
        <ele>173.300003052</ele>
        <time>2016-06-06T11:03:00.696Z</time>
      </trkpt>
      <trkpt lat="45.9273" lon="4.7422">
        <ele>173.399993896</ele>
        <time>2016-06-06T11:03:01.676Z</time>
      </trkpt>
      <trkpt lat="45.92734" lon="4.74214">
        <ele>173</ele>
        <time>2016-06-06T11:03:02.71Z</time>
      </trkpt>
      <trkpt lat="45.92738" lon="4.74209">
        <ele>173</ele>
        <time>2016-06-06T11:03:03.675Z</time>
      </trkpt>
      <trkpt lat="45.92742" lon="4.74203">
        <ele>173.199996948</ele>
        <time>2016-06-06T11:03:04.695Z</time>
      </trkpt>
      <trkpt lat="45.92746" lon="4.74197">
        <ele>173.399993896</ele>
        <time>2016-06-06T11:03:05.675Z</time>
      </trkpt>
      <trkpt lat="45.92751" lon="4.74192">
        <ele>173.399993896</ele>
        <time>2016-06-06T11:03:06.696Z</time>
      </trkpt>
      <trkpt lat="45.92755" lon="4.74187">
        <ele>173.5</ele>
        <time>2016-06-06T11:03:07.675Z</time>
      </trkpt>
      <trkpt lat="45.9276" lon="4.74181">
        <ele>173.600006104</ele>
        <time>2016-06-06T11:03:08.73Z</time>
      </trkpt>
      <trkpt lat="45.92765" lon="4.74176">
        <ele>173.5</ele>
        <time>2016-06-06T11:03:09.678Z</time>
      </trkpt>
      <trkpt lat="45.9277" lon="4.7417">
        <ele>173.199996948</ele>
        <time>2016-06-06T11:03:10.696Z</time>
      </trkpt>
      <trkpt lat="45.92775" lon="4.74165">
        <ele>173.199996948</ele>
        <time>2016-06-06T11:03:11.692Z</time>
      </trkpt>
      <trkpt lat="45.9278" lon="4.74159">
        <ele>172.899993896</ele>
        <time>2016-06-06T11:03:12.696Z</time>
      </trkpt>
      <trkpt lat="45.92786" lon="4.74153">
        <ele>172.100006104</ele>
        <time>2016-06-06T11:03:13.678Z</time>
      </trkpt>
      <trkpt lat="45.92791" lon="4.74147">
        <ele>171.899993896</ele>
        <time>2016-06-06T11:03:14.696Z</time>
      </trkpt>
      <trkpt lat="45.92796" lon="4.74141">
        <ele>171.600006104</ele>
        <time>2016-06-06T11:03:15.682Z</time>
      </trkpt>
      <trkpt lat="45.92802" lon="4.74136">
        <ele>171.699996948</ele>
        <time>2016-06-06T11:03:16.711Z</time>
      </trkpt>
      <trkpt lat="45.92807" lon="4.7413">
        <ele>171.699996948</ele>
        <time>2016-06-06T11:03:17.676Z</time>
      </trkpt>
      <trkpt lat="45.92813" lon="4.74124">
        <ele>171.199996948</ele>
        <time>2016-06-06T11:03:18.859Z</time>
      </trkpt>
      <trkpt lat="45.92818" lon="4.74118">
        <ele>171.600006104</ele>
        <time>2016-06-06T11:03:19.677Z</time>
      </trkpt>
      <trkpt lat="45.92823" lon="4.74112">
        <ele>171.699996948</ele>
        <time>2016-06-06T11:03:20.699Z</time>
      </trkpt>
      <trkpt lat="45.92827" lon="4.74107">
        <ele>171.699996948</ele>
        <time>2016-06-06T11:03:21.683Z</time>
      </trkpt>
      <trkpt lat="45.92832" lon="4.74102">
        <ele>171.5</ele>
        <time>2016-06-06T11:03:22.696Z</time>
      </trkpt>
      <trkpt lat="45.92836" lon="4.74096">
        <ele>171.699996948</ele>
        <time>2016-06-06T11:03:23.682Z</time>
      </trkpt>
      <trkpt lat="45.92841" lon="4.74091">
        <ele>171.5</ele>
        <time>2016-06-06T11:03:24.699Z</time>
      </trkpt>
      <trkpt lat="45.92845" lon="4.74086">
        <ele>171.399993896</ele>
        <time>2016-06-06T11:03:25.677Z</time>
      </trkpt>
      <trkpt lat="45.9285" lon="4.74081">
        <ele>171.699996948</ele>
        <time>2016-06-06T11:03:26.697Z</time>
      </trkpt>
      <trkpt lat="45.92854" lon="4.74075">
        <ele>171.899993896</ele>
        <time>2016-06-06T11:03:27.678Z</time>
      </trkpt>
      <trkpt lat="45.92858" lon="4.7407">
        <ele>172.300003052</ele>
        <time>2016-06-06T11:03:28.7Z</time>
      </trkpt>
      <trkpt lat="45.92863" lon="4.74064">
        <ele>172.100006104</ele>
        <time>2016-06-06T11:03:29.679Z</time>
      </trkpt>
      <trkpt lat="45.92868" lon="4.74059">
        <ele>171.899993896</ele>
        <time>2016-06-06T11:03:30.696Z</time>
      </trkpt>
      <trkpt lat="45.92872" lon="4.74054">
        <ele>171.600006104</ele>
        <time>2016-06-06T11:03:31.68Z</time>
      </trkpt>
      <trkpt lat="45.92877" lon="4.7405">
        <ele>171.600006104</ele>
        <time>2016-06-06T11:03:32.715Z</time>
      </trkpt>
      <trkpt lat="45.92882" lon="4.74048">
        <ele>171.800003052</ele>
        <time>2016-06-06T11:03:33.678Z</time>
      </trkpt>
      <trkpt lat="45.92886" lon="4.74047">
        <ele>171.699996948</ele>
        <time>2016-06-06T11:03:34.696Z</time>
      </trkpt>
      <trkpt lat="45.92891" lon="4.74047">
        <ele>171.800003052</ele>
        <time>2016-06-06T11:03:35.681Z</time>
      </trkpt>
      <trkpt lat="45.92896" lon="4.74047">
        <ele>171.699996948</ele>
        <time>2016-06-06T11:03:36.696Z</time>
      </trkpt>
      <trkpt lat="45.92902" lon="4.74046">
        <ele>171.800003052</ele>
        <time>2016-06-06T11:03:37.676Z</time>
      </trkpt>
      <trkpt lat="45.92907" lon="4.74044">
        <ele>172.100006104</ele>
        <time>2016-06-06T11:03:38.696Z</time>
      </trkpt>
      <trkpt lat="45.92912" lon="4.74039">
        <ele>172.300003052</ele>
        <time>2016-06-06T11:03:39.678Z</time>
      </trkpt>
      <trkpt lat="45.92916" lon="4.74032">
        <ele>172.199996948</ele>
        <time>2016-06-06T11:03:40.699Z</time>
      </trkpt>
      <trkpt lat="45.92918" lon="4.74025">
        <ele>172.5</ele>
        <time>2016-06-06T11:03:41.681Z</time>
      </trkpt>
      <trkpt lat="45.92919" lon="4.74016">
        <ele>172.699996948</ele>
        <time>2016-06-06T11:03:42.703Z</time>
      </trkpt>
      <trkpt lat="45.92917" lon="4.74007">
        <ele>172.800003052</ele>
        <time>2016-06-06T11:03:43.676Z</time>
      </trkpt>
      <trkpt lat="45.92915" lon="4.74001">
        <ele>173</ele>
        <time>2016-06-06T11:03:44.696Z</time>
      </trkpt>
      <trkpt lat="45.92912" lon="4.73995">
        <ele>173.399993896</ele>
        <time>2016-06-06T11:03:45.677Z</time>
      </trkpt>
      <trkpt lat="45.92907" lon="4.7399">
        <ele>173.600006104</ele>
        <time>2016-06-06T11:03:46.702Z</time>
      </trkpt>
      <trkpt lat="45.92903" lon="4.73987">
        <ele>173.800003052</ele>
        <time>2016-06-06T11:03:47.677Z</time>
      </trkpt>
      <trkpt lat="45.92898" lon="4.73983">
        <ele>174</ele>
        <time>2016-06-06T11:03:48.742Z</time>
      </trkpt>
      <trkpt lat="45.92894" lon="4.73977">
        <ele>174.100006104</ele>
        <time>2016-06-06T11:03:49.677Z</time>
      </trkpt>
      <trkpt lat="45.92892" lon="4.7397">
        <ele>174.100006104</ele>
        <time>2016-06-06T11:03:50.695Z</time>
      </trkpt>
      <trkpt lat="45.92891" lon="4.73962">
        <ele>173.800003052</ele>
        <time>2016-06-06T11:03:51.68Z</time>
      </trkpt>
      <trkpt lat="45.9289" lon="4.73953">
        <ele>174</ele>
        <time>2016-06-06T11:03:52.696Z</time>
      </trkpt>
      <trkpt lat="45.92889" lon="4.73944">
        <ele>174</ele>
        <time>2016-06-06T11:03:53.679Z</time>
      </trkpt>
      <trkpt lat="45.92888" lon="4.73934">
        <ele>174.100006104</ele>
        <time>2016-06-06T11:03:54.699Z</time>
      </trkpt>
      <trkpt lat="45.92887" lon="4.73924">
        <ele>174.199996948</ele>
        <time>2016-06-06T11:03:55.676Z</time>
      </trkpt>
      <trkpt lat="45.92886" lon="4.73914">
        <ele>174.100006104</ele>
        <time>2016-06-06T11:03:56.696Z</time>
      </trkpt>
      <trkpt lat="45.92885" lon="4.73904">
        <ele>174.600006104</ele>
        <time>2016-06-06T11:03:57.675Z</time>
      </trkpt>
      <trkpt lat="45.92884" lon="4.73895">
        <ele>174.600006104</ele>
        <time>2016-06-06T11:03:58.695Z</time>
      </trkpt>
      <trkpt lat="45.92882" lon="4.73884">
        <ele>174.600006104</ele>
        <time>2016-06-06T11:03:59.681Z</time>
      </trkpt>
      <trkpt lat="45.9288" lon="4.73875">
        <ele>175.100006104</ele>
        <time>2016-06-06T11:04:00.696Z</time>
      </trkpt>
      <trkpt lat="45.92878" lon="4.73866">
        <ele>175.300003052</ele>
        <time>2016-06-06T11:04:01.68Z</time>
      </trkpt>
      <trkpt lat="45.92876" lon="4.73857">
        <ele>175.300003052</ele>
        <time>2016-06-06T11:04:02.699Z</time>
      </trkpt>
      <trkpt lat="45.92873" lon="4.73848">
        <ele>175.399993896</ele>
        <time>2016-06-06T11:04:03.675Z</time>
      </trkpt>
      <trkpt lat="45.9287" lon="4.73838">
        <ele>175.399993896</ele>
        <time>2016-06-06T11:04:04.715Z</time>
      </trkpt>
      <trkpt lat="45.92867" lon="4.7383">
        <ele>175.600006104</ele>
        <time>2016-06-06T11:04:05.681Z</time>
      </trkpt>
      <trkpt lat="45.92865" lon="4.73822">
        <ele>176.100006104</ele>
        <time>2016-06-06T11:04:06.76Z</time>
      </trkpt>
      <trkpt lat="45.92863" lon="4.73815">
        <ele>176.699996948</ele>
        <time>2016-06-06T11:04:07.68Z</time>
      </trkpt>
      <trkpt lat="45.9286" lon="4.73808">
        <ele>177</ele>
        <time>2016-06-06T11:04:08.715Z</time>
      </trkpt>
      <trkpt lat="45.92856" lon="4.73802">
        <ele>177.199996948</ele>
        <time>2016-06-06T11:04:09.681Z</time>
      </trkpt>
      <trkpt lat="45.92851" lon="4.73796">
        <ele>177.300003052</ele>
        <time>2016-06-06T11:04:10.699Z</time>
      </trkpt>
      <trkpt lat="45.92847" lon="4.7379">
        <ele>177.699996948</ele>
        <time>2016-06-06T11:04:11.677Z</time>
      </trkpt>
      <trkpt lat="45.92842" lon="4.73786">
        <ele>178.100006104</ele>
        <time>2016-06-06T11:04:12.702Z</time>
      </trkpt>
      <trkpt lat="45.92837" lon="4.73782">
        <ele>178.300003052</ele>
        <time>2016-06-06T11:04:13.679Z</time>
      </trkpt>
      <trkpt lat="45.92832" lon="4.73779">
        <ele>178.399993896</ele>
        <time>2016-06-06T11:04:14.699Z</time>
      </trkpt>
      <trkpt lat="45.92827" lon="4.73776">
        <ele>178.399993896</ele>
        <time>2016-06-06T11:04:15.675Z</time>
      </trkpt>
      <trkpt lat="45.92822" lon="4.73773">
        <ele>178.5</ele>
        <time>2016-06-06T11:04:16.695Z</time>
      </trkpt>
      <trkpt lat="45.92817" lon="4.7377">
        <ele>178.800003052</ele>
        <time>2016-06-06T11:04:17.68Z</time>
      </trkpt>
      <trkpt lat="45.92812" lon="4.73767">
        <ele>179</ele>
        <time>2016-06-06T11:04:18.695Z</time>
      </trkpt>
      <trkpt lat="45.92807" lon="4.73765">
        <ele>179.199996948</ele>
        <time>2016-06-06T11:04:19.679Z</time>
      </trkpt>
      <trkpt lat="45.92803" lon="4.73762">
        <ele>179.300003052</ele>
        <time>2016-06-06T11:04:20.715Z</time>
      </trkpt>
      <trkpt lat="45.92799" lon="4.73759">
        <ele>179.399993896</ele>
        <time>2016-06-06T11:04:21.675Z</time>
      </trkpt>
      <trkpt lat="45.92795" lon="4.73756">
        <ele>179.5</ele>
        <time>2016-06-06T11:04:22.7Z</time>
      </trkpt>
      <trkpt lat="45.92792" lon="4.73751">
        <ele>179.5</ele>
        <time>2016-06-06T11:04:23.678Z</time>
      </trkpt>
      <trkpt lat="45.92787" lon="4.73741">
        <ele>179.100006104</ele>
        <time>2016-06-06T11:04:25.714Z</time>
      </trkpt>
      <trkpt lat="45.92783" lon="4.73738">
        <ele>179.199996948</ele>
        <time>2016-06-06T11:04:26.68Z</time>
      </trkpt>
      <trkpt lat="45.92778" lon="4.73735">
        <ele>179.100006104</ele>
        <time>2016-06-06T11:04:27.702Z</time>
      </trkpt>
      <trkpt lat="45.92773" lon="4.73732">
        <ele>179.100006104</ele>
        <time>2016-06-06T11:04:28.68Z</time>
      </trkpt>
      <trkpt lat="45.92768" lon="4.7373">
        <ele>179</ele>
        <time>2016-06-06T11:04:29.702Z</time>
      </trkpt>
      <trkpt lat="45.92763" lon="4.73728">
        <ele>178.800003052</ele>
        <time>2016-06-06T11:04:30.679Z</time>
      </trkpt>
      <trkpt lat="45.92757" lon="4.73726">
        <ele>178.699996948</ele>
        <time>2016-06-06T11:04:31.699Z</time>
      </trkpt>
      <trkpt lat="45.9275" lon="4.73724">
        <ele>178.899993896</ele>
        <time>2016-06-06T11:04:32.68Z</time>
      </trkpt>
      <trkpt lat="45.92744" lon="4.73722">
        <ele>178.699996948</ele>
        <time>2016-06-06T11:04:33.702Z</time>
      </trkpt>
      <trkpt lat="45.92738" lon="4.73721">
        <ele>178.5</ele>
        <time>2016-06-06T11:04:34.676Z</time>
      </trkpt>
      <trkpt lat="45.92732" lon="4.73719">
        <ele>178.600006104</ele>
        <time>2016-06-06T11:04:35.7Z</time>
      </trkpt>
      <trkpt lat="45.92725" lon="4.73718">
        <ele>178.699996948</ele>
        <time>2016-06-06T11:04:36.676Z</time>
      </trkpt>
      <trkpt lat="45.92719" lon="4.73717">
        <ele>178.699996948</ele>
        <time>2016-06-06T11:04:37.707Z</time>
      </trkpt>
      <trkpt lat="45.92713" lon="4.73716">
        <ele>178.899993896</ele>
        <time>2016-06-06T11:04:38.68Z</time>
      </trkpt>
      <trkpt lat="45.92708" lon="4.73715">
        <ele>179.199996948</ele>
        <time>2016-06-06T11:04:39.703Z</time>
      </trkpt>
      <trkpt lat="45.92703" lon="4.73714">
        <ele>179.5</ele>
        <time>2016-06-06T11:04:40.679Z</time>
      </trkpt>
      <trkpt lat="45.92697" lon="4.73713">
        <ele>179.699996948</ele>
        <time>2016-06-06T11:04:41.715Z</time>
      </trkpt>
      <trkpt lat="45.92692" lon="4.73712">
        <ele>179.699996948</ele>
        <time>2016-06-06T11:04:42.676Z</time>
      </trkpt>
      <trkpt lat="45.92687" lon="4.7371">
        <ele>179.800003052</ele>
        <time>2016-06-06T11:04:43.699Z</time>
      </trkpt>
      <trkpt lat="45.92682" lon="4.73707">
        <ele>180.100006104</ele>
        <time>2016-06-06T11:04:44.679Z</time>
      </trkpt>
      <trkpt lat="45.92676" lon="4.73704">
        <ele>179.800003052</ele>
        <time>2016-06-06T11:04:45.699Z</time>
      </trkpt>
      <trkpt lat="45.92671" lon="4.73701">
        <ele>179.699996948</ele>
        <time>2016-06-06T11:04:46.676Z</time>
      </trkpt>
      <trkpt lat="45.92666" lon="4.73698">
        <ele>179.600006104</ele>
        <time>2016-06-06T11:04:47.697Z</time>
      </trkpt>
      <trkpt lat="45.92662" lon="4.73694">
        <ele>179.800003052</ele>
        <time>2016-06-06T11:04:48.676Z</time>
      </trkpt>
      <trkpt lat="45.92658" lon="4.73689">
        <ele>180</ele>
        <time>2016-06-06T11:04:49.695Z</time>
      </trkpt>
      <trkpt lat="45.92653" lon="4.73684">
        <ele>180.699996948</ele>
        <time>2016-06-06T11:04:50.676Z</time>
      </trkpt>
      <trkpt lat="45.92649" lon="4.73679">
        <ele>180.699996948</ele>
        <time>2016-06-06T11:04:51.702Z</time>
      </trkpt>
      <trkpt lat="45.92645" lon="4.73674">
        <ele>180.899993896</ele>
        <time>2016-06-06T11:04:52.678Z</time>
      </trkpt>
      <trkpt lat="45.92642" lon="4.73667">
        <ele>181.199996948</ele>
        <time>2016-06-06T11:04:53.718Z</time>
      </trkpt>
      <trkpt lat="45.92638" lon="4.7366">
        <ele>181.399993896</ele>
        <time>2016-06-06T11:04:54.679Z</time>
      </trkpt>
      <trkpt lat="45.92636" lon="4.73652">
        <ele>181.699996948</ele>
        <time>2016-06-06T11:04:55.699Z</time>
      </trkpt>
      <trkpt lat="45.92632" lon="4.73644">
        <ele>182</ele>
        <time>2016-06-06T11:04:56.679Z</time>
      </trkpt>
      <trkpt lat="45.92629" lon="4.73638">
        <ele>182.300003052</ele>
        <time>2016-06-06T11:04:57.719Z</time>
      </trkpt>
      <trkpt lat="45.92624" lon="4.73633">
        <ele>182.5</ele>
        <time>2016-06-06T11:04:58.68Z</time>
      </trkpt>
      <trkpt lat="45.92619" lon="4.7363">
        <ele>182.699996948</ele>
        <time>2016-06-06T11:04:59.697Z</time>
      </trkpt>
      <trkpt lat="45.92615" lon="4.73628">
        <ele>182.800003052</ele>
        <time>2016-06-06T11:05:00.68Z</time>
      </trkpt>
      <trkpt lat="45.9261" lon="4.73627">
        <ele>183</ele>
        <time>2016-06-06T11:05:01.699Z</time>
      </trkpt>
      <trkpt lat="45.92605" lon="4.73627">
        <ele>183.100006104</ele>
        <time>2016-06-06T11:05:02.676Z</time>
      </trkpt>
      <trkpt lat="45.926" lon="4.73628">
        <ele>183.199996948</ele>
        <time>2016-06-06T11:05:03.702Z</time>
      </trkpt>
      <trkpt lat="45.92595" lon="4.73629">
        <ele>183.199996948</ele>
        <time>2016-06-06T11:05:04.68Z</time>
      </trkpt>
      <trkpt lat="45.9259" lon="4.7363">
        <ele>183.300003052</ele>
        <time>2016-06-06T11:05:05.727Z</time>
      </trkpt>
      <trkpt lat="45.92584" lon="4.73631">
        <ele>183.399993896</ele>
        <time>2016-06-06T11:05:06.676Z</time>
      </trkpt>
      <trkpt lat="45.92578" lon="4.73632">
        <ele>183.600006104</ele>
        <time>2016-06-06T11:05:07.725Z</time>
      </trkpt>
      <trkpt lat="45.92573" lon="4.73633">
        <ele>183.800003052</ele>
        <time>2016-06-06T11:05:08.68Z</time>
      </trkpt>
      <trkpt lat="45.92568" lon="4.73636">
        <ele>183.800003052</ele>
        <time>2016-06-06T11:05:09.702Z</time>
      </trkpt>
      <trkpt lat="45.92562" lon="4.73637">
        <ele>183.699996948</ele>
        <time>2016-06-06T11:05:10.676Z</time>
      </trkpt>
      <trkpt lat="45.92555" lon="4.73637">
        <ele>183.600006104</ele>
        <time>2016-06-06T11:05:11.7Z</time>
      </trkpt>
      <trkpt lat="45.92549" lon="4.73637">
        <ele>183.399993896</ele>
        <time>2016-06-06T11:05:12.679Z</time>
      </trkpt>
      <trkpt lat="45.92544" lon="4.73638">
        <ele>183.399993896</ele>
        <time>2016-06-06T11:05:13.713Z</time>
      </trkpt>
      <trkpt lat="45.92539" lon="4.73639">
        <ele>183.5</ele>
        <time>2016-06-06T11:05:14.676Z</time>
      </trkpt>
      <trkpt lat="45.92534" lon="4.7364">
        <ele>183.399993896</ele>
        <time>2016-06-06T11:05:15.698Z</time>
      </trkpt>
      <trkpt lat="45.92529" lon="4.7364">
        <ele>183.5</ele>
        <time>2016-06-06T11:05:16.679Z</time>
      </trkpt>
      <trkpt lat="45.9252" lon="4.73641">
        <ele>184.100006104</ele>
        <time>2016-06-06T11:05:18.713Z</time>
      </trkpt>
      <trkpt lat="45.92516" lon="4.73642">
        <ele>184.300003052</ele>
        <time>2016-06-06T11:05:19.679Z</time>
      </trkpt>
      <trkpt lat="45.92509" lon="4.73643">
        <ele>184.800003052</ele>
        <time>2016-06-06T11:05:21.703Z</time>
      </trkpt>
      <trkpt lat="45.92505" lon="4.73643">
        <ele>185.100006104</ele>
        <time>2016-06-06T11:05:22.676Z</time>
      </trkpt>
      <trkpt lat="45.92497" lon="4.73642">
        <ele>185.800003052</ele>
        <time>2016-06-06T11:05:24.728Z</time>
      </trkpt>
      <trkpt lat="45.92493" lon="4.73642">
        <ele>186.199996948</ele>
        <time>2016-06-06T11:05:25.678Z</time>
      </trkpt>
      <trkpt lat="45.92485" lon="4.73646">
        <ele>186.300003052</ele>
        <time>2016-06-06T11:05:27.702Z</time>
      </trkpt>
      <trkpt lat="45.92481" lon="4.7365">
        <ele>186.399993896</ele>
        <time>2016-06-06T11:05:28.679Z</time>
      </trkpt>
      <trkpt lat="45.92477" lon="4.73659">
        <ele>186.5</ele>
        <time>2016-06-06T11:05:30.813Z</time>
      </trkpt>
      <trkpt lat="45.92475" lon="4.73664">
        <ele>186.600006104</ele>
        <time>2016-06-06T11:05:31.679Z</time>
      </trkpt>
      <trkpt lat="45.92474" lon="4.73675">
        <ele>186.300003052</ele>
        <time>2016-06-06T11:05:33.702Z</time>
      </trkpt>
      <trkpt lat="45.92473" lon="4.7368">
        <ele>185.899993896</ele>
        <time>2016-06-06T11:05:34.676Z</time>
      </trkpt>
      <trkpt lat="45.92473" lon="4.7369">
        <ele>185.300003052</ele>
        <time>2016-06-06T11:05:36.698Z</time>
      </trkpt>
      <trkpt lat="45.92471" lon="4.73696">
        <ele>183.899993896</ele>
        <time>2016-06-06T11:05:37.708Z</time>
      </trkpt>
      <trkpt lat="45.92467" lon="4.73707">
        <ele>181.199996948</ele>
        <time>2016-06-06T11:05:40.696Z</time>
      </trkpt>
      <trkpt lat="45.92466" lon="4.73709">
        <ele>181</ele>
        <time>2016-06-06T11:05:41.681Z</time>
      </trkpt>
      <trkpt lat="45.92466" lon="4.73709">
        <ele>181</ele>
        <time>2016-06-06T11:05:41.725Z</time>
      </trkpt>
      <trkpt lat="45.92467" lon="4.7371">
        <ele>180.899993896</ele>
        <time>2016-06-06T11:05:42.68Z</time>
      </trkpt>
      <trkpt lat="45.92466" lon="4.73711">
        <ele>180.199996948</ele>
        <time>2016-06-06T11:06:21.315Z</time>
      </trkpt>
    </trkseg>
  </trk>
</gpx>